<?xml version="1.0" encoding="ISO-8859-1"?>
<gpx version="1.1" 
creator="Memory-Map 5.4.2.1089 http://www.memory-map.com"
 xmlns:xsi="http://www.w3.org/2001/XMLSchema-instance"
 xmlns="http://www.topografix.com/GPX/1/1"
 xsi:schemaLocation="http://www.topografix.com/GPX/1/1 http://www.topografix.com/GPX/1/1/gpx.xsd">
<trk>
<name>User Track</name>
<type>Track</type>
<trkseg>
<trkpt lat="53.1192530000" lon="-4.1222800000"><ele>113</ele><time>2016-10-15T08:46:52Z</time></trkpt>
<trkpt lat="53.1192520000" lon="-4.1222810000"><ele>113</ele><time>2016-10-15T08:46:53Z</time></trkpt>
<trkpt lat="53.1192520000" lon="-4.1222820000"><ele>113</ele><time>2016-10-15T08:46:54Z</time></trkpt>
<trkpt lat="53.1192520000" lon="-4.1222830000"><ele>113</ele><time>2016-10-15T08:46:55Z</time></trkpt>
<trkpt lat="53.1192520000" lon="-4.1222840000"><ele>113</ele><time>2016-10-15T08:46:56Z</time></trkpt>
<trkpt lat="53.1192520000" lon="-4.1222840000"><ele>113</ele><time>2016-10-15T08:46:57Z</time></trkpt>
<trkpt lat="53.1192530000" lon="-4.1222840000"><ele>113</ele><time>2016-10-15T08:46:58Z</time></trkpt>
<trkpt lat="53.1192530000" lon="-4.1222840000"><ele>113</ele><time>2016-10-15T08:46:59Z</time></trkpt>
<trkpt lat="53.1192540000" lon="-4.1222840000"><ele>113</ele><time>2016-10-15T08:47:00Z</time></trkpt>
<trkpt lat="53.1192540000" lon="-4.1222840000"><ele>113</ele><time>2016-10-15T08:47:01Z</time></trkpt>
<trkpt lat="53.1192540000" lon="-4.1222840000"><ele>113</ele><time>2016-10-15T08:47:02Z</time></trkpt>
<trkpt lat="53.1192550000" lon="-4.1222840000"><ele>113</ele><time>2016-10-15T08:47:03Z</time></trkpt>
<trkpt lat="53.1192550000" lon="-4.1222840000"><ele>113</ele><time>2016-10-15T08:47:04Z</time></trkpt>
<trkpt lat="53.1192550000" lon="-4.1222840000"><ele>113</ele><time>2016-10-15T08:47:05Z</time></trkpt>
<trkpt lat="53.1192550000" lon="-4.1222840000"><ele>113</ele><time>2016-10-15T08:47:06Z</time></trkpt>
<trkpt lat="53.1192550000" lon="-4.1222840000"><ele>113</ele><time>2016-10-15T08:47:07Z</time></trkpt>
<trkpt lat="53.1192550000" lon="-4.1222840000"><ele>113</ele><time>2016-10-15T08:47:08Z</time></trkpt>
<trkpt lat="53.1192550000" lon="-4.1222840000"><ele>113</ele><time>2016-10-15T08:47:09Z</time></trkpt>
<trkpt lat="53.1192550000" lon="-4.1222850000"><ele>113</ele><time>2016-10-15T08:47:10Z</time></trkpt>
<trkpt lat="53.1192550000" lon="-4.1222850000"><ele>113</ele><time>2016-10-15T08:47:11Z</time></trkpt>
<trkpt lat="53.1192540000" lon="-4.1222850000"><ele>113</ele><time>2016-10-15T08:47:12Z</time></trkpt>
<trkpt lat="53.1192540000" lon="-4.1222850000"><ele>113</ele><time>2016-10-15T08:47:13Z</time></trkpt>
<trkpt lat="53.1192540000" lon="-4.1222850000"><ele>114</ele><time>2016-10-15T08:47:14Z</time></trkpt>
<trkpt lat="53.1192530000" lon="-4.1222850000"><ele>114</ele><time>2016-10-15T08:47:15Z</time></trkpt>
<trkpt lat="53.1192530000" lon="-4.1222850000"><ele>114</ele><time>2016-10-15T08:47:16Z</time></trkpt>
<trkpt lat="53.1192520000" lon="-4.1222850000"><ele>114</ele><time>2016-10-15T08:47:17Z</time></trkpt>
<trkpt lat="53.1192500000" lon="-4.1222810000"><ele>113</ele><time>2016-10-15T08:47:34Z</time></trkpt>
<trkpt lat="53.1192500000" lon="-4.1222800000"><ele>113</ele><time>2016-10-15T08:47:35Z</time></trkpt>
<trkpt lat="53.1192500000" lon="-4.1222800000"><ele>113</ele><time>2016-10-15T08:47:36Z</time></trkpt>
<trkpt lat="53.1192490000" lon="-4.1222790000"><ele>113</ele><time>2016-10-15T08:47:37Z</time></trkpt>
<trkpt lat="53.1192490000" lon="-4.1222780000"><ele>113</ele><time>2016-10-15T08:47:38Z</time></trkpt>
<trkpt lat="53.1192490000" lon="-4.1222770000"><ele>113</ele><time>2016-10-15T08:47:39Z</time></trkpt>
<trkpt lat="53.1192480000" lon="-4.1222760000"><ele>112</ele><time>2016-10-15T08:47:40Z</time></trkpt>
<trkpt lat="53.1192480000" lon="-4.1222760000"><ele>112</ele><time>2016-10-15T08:47:41Z</time></trkpt>
<trkpt lat="53.1192480000" lon="-4.1222750000"><ele>112</ele><time>2016-10-15T08:47:42Z</time></trkpt>
<trkpt lat="53.1192480000" lon="-4.1222740000"><ele>112</ele><time>2016-10-15T08:47:43Z</time></trkpt>
<trkpt lat="53.1192470000" lon="-4.1222730000"><ele>112</ele><time>2016-10-15T08:47:44Z</time></trkpt>
<trkpt lat="53.1192470000" lon="-4.1222720000"><ele>112</ele><time>2016-10-15T08:47:45Z</time></trkpt>
<trkpt lat="53.1192470000" lon="-4.1222710000"><ele>112</ele><time>2016-10-15T08:47:46Z</time></trkpt>
<trkpt lat="53.1192470000" lon="-4.1222700000"><ele>112</ele><time>2016-10-15T08:47:47Z</time></trkpt>
<trkpt lat="53.1192470000" lon="-4.1222690000"><ele>112</ele><time>2016-10-15T08:47:48Z</time></trkpt>
<trkpt lat="53.1192470000" lon="-4.1222680000"><ele>111</ele><time>2016-10-15T08:47:49Z</time></trkpt>
<trkpt lat="53.1192470000" lon="-4.1222670000"><ele>111</ele><time>2016-10-15T08:47:50Z</time></trkpt>
<trkpt lat="53.1192480000" lon="-4.1222660000"><ele>111</ele><time>2016-10-15T08:47:51Z</time></trkpt>
<trkpt lat="53.1192480000" lon="-4.1222650000"><ele>111</ele><time>2016-10-15T08:47:52Z</time></trkpt>
<trkpt lat="53.1192480000" lon="-4.1222630000"><ele>111</ele><time>2016-10-15T08:47:53Z</time></trkpt>
<trkpt lat="53.1192480000" lon="-4.1222620000"><ele>111</ele><time>2016-10-15T08:47:54Z</time></trkpt>
<trkpt lat="53.1192480000" lon="-4.1222610000"><ele>110</ele><time>2016-10-15T08:47:55Z</time></trkpt>
<trkpt lat="53.1192480000" lon="-4.1222610000"><ele>110</ele><time>2016-10-15T08:47:56Z</time></trkpt>
<trkpt lat="53.1192480000" lon="-4.1222600000"><ele>110</ele><time>2016-10-15T08:47:57Z</time></trkpt>
<trkpt lat="53.1192490000" lon="-4.1222590000"><ele>110</ele><time>2016-10-15T08:47:58Z</time></trkpt>
<trkpt lat="53.1192490000" lon="-4.1222580000"><ele>110</ele><time>2016-10-15T08:47:59Z</time></trkpt>
<trkpt lat="53.1192480000" lon="-4.1222560000"><ele>110</ele><time>2016-10-15T08:48:00Z</time></trkpt>
<trkpt lat="53.1192480000" lon="-4.1222540000"><ele>110</ele><time>2016-10-15T08:48:01Z</time></trkpt>
<trkpt lat="53.1192480000" lon="-4.1222510000"><ele>110</ele><time>2016-10-15T08:48:02Z</time></trkpt>
<trkpt lat="53.1192480000" lon="-4.1222490000"><ele>110</ele><time>2016-10-15T08:48:03Z</time></trkpt>
<trkpt lat="53.1192480000" lon="-4.1222470000"><ele>110</ele><time>2016-10-15T08:48:04Z</time></trkpt>
<trkpt lat="53.1192480000" lon="-4.1222450000"><ele>110</ele><time>2016-10-15T08:48:05Z</time></trkpt>
<trkpt lat="53.1192490000" lon="-4.1222430000"><ele>111</ele><time>2016-10-15T08:48:06Z</time></trkpt>
<trkpt lat="53.1192490000" lon="-4.1222410000"><ele>111</ele><time>2016-10-15T08:48:07Z</time></trkpt>
<trkpt lat="53.1192490000" lon="-4.1222390000"><ele>111</ele><time>2016-10-15T08:48:08Z</time></trkpt>
<trkpt lat="53.1192490000" lon="-4.1222370000"><ele>111</ele><time>2016-10-15T08:48:09Z</time></trkpt>
<trkpt lat="53.1192490000" lon="-4.1222360000"><ele>111</ele><time>2016-10-15T08:48:10Z</time></trkpt>
<trkpt lat="53.1192490000" lon="-4.1222340000"><ele>111</ele><time>2016-10-15T08:48:11Z</time></trkpt>
<trkpt lat="53.1192490000" lon="-4.1222330000"><ele>112</ele><time>2016-10-15T08:48:12Z</time></trkpt>
<trkpt lat="53.1192500000" lon="-4.1222320000"><ele>112</ele><time>2016-10-15T08:48:13Z</time></trkpt>
<trkpt lat="53.1192500000" lon="-4.1222310000"><ele>112</ele><time>2016-10-15T08:48:14Z</time></trkpt>
<trkpt lat="53.1192500000" lon="-4.1222290000"><ele>112</ele><time>2016-10-15T08:48:15Z</time></trkpt>
<trkpt lat="53.1192500000" lon="-4.1222280000"><ele>112</ele><time>2016-10-15T08:48:16Z</time></trkpt>
<trkpt lat="53.1192510000" lon="-4.1222270000"><ele>113</ele><time>2016-10-15T08:48:17Z</time></trkpt>
<trkpt lat="53.1192510000" lon="-4.1222260000"><ele>113</ele><time>2016-10-15T08:48:18Z</time></trkpt>
<trkpt lat="53.1192510000" lon="-4.1222250000"><ele>113</ele><time>2016-10-15T08:48:19Z</time></trkpt>
<trkpt lat="53.1192520000" lon="-4.1222240000"><ele>113</ele><time>2016-10-15T08:48:20Z</time></trkpt>
<trkpt lat="53.1192520000" lon="-4.1222230000"><ele>114</ele><time>2016-10-15T08:48:21Z</time></trkpt>
<trkpt lat="53.1192520000" lon="-4.1222230000"><ele>114</ele><time>2016-10-15T08:48:22Z</time></trkpt>
<trkpt lat="53.1192530000" lon="-4.1222220000"><ele>114</ele><time>2016-10-15T08:48:23Z</time></trkpt>
<trkpt lat="53.1192530000" lon="-4.1222220000"><ele>114</ele><time>2016-10-15T08:48:24Z</time></trkpt>
<trkpt lat="53.1192540000" lon="-4.1222210000"><ele>114</ele><time>2016-10-15T08:48:25Z</time></trkpt>
<trkpt lat="53.1192540000" lon="-4.1222210000"><ele>114</ele><time>2016-10-15T08:48:26Z</time></trkpt>
<trkpt lat="53.1192550000" lon="-4.1222200000"><ele>114</ele><time>2016-10-15T08:48:27Z</time></trkpt>
<trkpt lat="53.1192550000" lon="-4.1222200000"><ele>114</ele><time>2016-10-15T08:48:28Z</time></trkpt>
<trkpt lat="53.1192560000" lon="-4.1222190000"><ele>114</ele><time>2016-10-15T08:48:29Z</time></trkpt>
<trkpt lat="53.1192560000" lon="-4.1222180000"><ele>114</ele><time>2016-10-15T08:48:31Z</time></trkpt>
<trkpt lat="53.1192570000" lon="-4.1222170000"><ele>114</ele></trkpt>
<trkpt lat="53.1192570000" lon="-4.1222170000"><ele>114</ele><time>2016-10-15T08:48:32Z</time></trkpt>
<trkpt lat="53.1192580000" lon="-4.1222160000"><ele>114</ele><time>2016-10-15T08:48:33Z</time></trkpt>
<trkpt lat="53.1192590000" lon="-4.1222160000"><ele>114</ele><time>2016-10-15T08:48:34Z</time></trkpt>
<trkpt lat="53.1192590000" lon="-4.1222160000"><ele>114</ele><time>2016-10-15T08:48:35Z</time></trkpt>
<trkpt lat="53.1192600000" lon="-4.1222160000"><ele>114</ele><time>2016-10-15T08:48:36Z</time></trkpt>
<trkpt lat="53.1192610000" lon="-4.1222160000"><ele>114</ele><time>2016-10-15T08:48:37Z</time></trkpt>
<trkpt lat="53.1192610000" lon="-4.1222160000"><ele>114</ele><time>2016-10-15T08:48:38Z</time></trkpt>
<trkpt lat="53.1192620000" lon="-4.1222160000"><ele>114</ele><time>2016-10-15T08:48:39Z</time></trkpt>
<trkpt lat="53.1192630000" lon="-4.1222160000"><ele>114</ele><time>2016-10-15T08:48:40Z</time></trkpt>
<trkpt lat="53.1192630000" lon="-4.1222170000"><ele>114</ele><time>2016-10-15T08:48:41Z</time></trkpt>
<trkpt lat="53.1192630000" lon="-4.1222180000"><ele>114</ele><time>2016-10-15T08:48:42Z</time></trkpt>
<trkpt lat="53.1192630000" lon="-4.1222200000"><ele>114</ele><time>2016-10-15T08:48:43Z</time></trkpt>
<trkpt lat="53.1192630000" lon="-4.1222210000"><ele>114</ele><time>2016-10-15T08:48:44Z</time></trkpt>
<trkpt lat="53.1192630000" lon="-4.1222220000"><ele>114</ele><time>2016-10-15T08:48:45Z</time></trkpt>
<trkpt lat="53.1192630000" lon="-4.1222220000"><ele>114</ele><time>2016-10-15T08:48:46Z</time></trkpt>
<trkpt lat="53.1192640000" lon="-4.1222220000"><ele>114</ele><time>2016-10-15T08:48:47Z</time></trkpt>
<trkpt lat="53.1192640000" lon="-4.1222220000"><ele>114</ele><time>2016-10-15T08:48:48Z</time></trkpt>
<trkpt lat="53.1192650000" lon="-4.1222210000"><ele>114</ele><time>2016-10-15T08:48:49Z</time></trkpt>
<trkpt lat="53.1192650000" lon="-4.1222210000"><ele>114</ele><time>2016-10-15T08:48:50Z</time></trkpt>
<trkpt lat="53.1192660000" lon="-4.1222210000"><ele>114</ele><time>2016-10-15T08:48:51Z</time></trkpt>
<trkpt lat="53.1192660000" lon="-4.1222200000"><ele>114</ele><time>2016-10-15T08:48:52Z</time></trkpt>
<trkpt lat="53.1192670000" lon="-4.1222200000"><ele>114</ele><time>2016-10-15T08:48:53Z</time></trkpt>
<trkpt lat="53.1192670000" lon="-4.1222200000"><ele>114</ele><time>2016-10-15T08:48:54Z</time></trkpt>
<trkpt lat="53.1192670000" lon="-4.1222200000"><ele>114</ele><time>2016-10-15T08:48:55Z</time></trkpt>
<trkpt lat="53.1192680000" lon="-4.1222200000"><ele>114</ele><time>2016-10-15T08:48:56Z</time></trkpt>
<trkpt lat="53.1192680000" lon="-4.1222200000"><ele>114</ele><time>2016-10-15T08:48:57Z</time></trkpt>
<trkpt lat="53.1192690000" lon="-4.1222200000"><ele>114</ele><time>2016-10-15T08:48:58Z</time></trkpt>
<trkpt lat="53.1192690000" lon="-4.1222190000"><ele>114</ele><time>2016-10-15T08:48:59Z</time></trkpt>
<trkpt lat="53.1192700000" lon="-4.1222190000"><ele>114</ele><time>2016-10-15T08:49:00Z</time></trkpt>
<trkpt lat="53.1192700000" lon="-4.1222190000"><ele>114</ele><time>2016-10-15T08:49:01Z</time></trkpt>
<trkpt lat="53.1192700000" lon="-4.1222190000"><ele>114</ele><time>2016-10-15T08:49:02Z</time></trkpt>
<trkpt lat="53.1192700000" lon="-4.1222190000"><ele>114</ele><time>2016-10-15T08:49:03Z</time></trkpt>
<trkpt lat="53.1192710000" lon="-4.1222190000"><ele>114</ele><time>2016-10-15T08:49:04Z</time></trkpt>
<trkpt lat="53.1192710000" lon="-4.1222190000"><ele>114</ele><time>2016-10-15T08:49:05Z</time></trkpt>
<trkpt lat="53.1192710000" lon="-4.1222190000"><ele>114</ele><time>2016-10-15T08:49:06Z</time></trkpt>
<trkpt lat="53.1192710000" lon="-4.1222190000"><ele>114</ele><time>2016-10-15T08:49:07Z</time></trkpt>
<trkpt lat="53.1192710000" lon="-4.1222190000"><ele>114</ele><time>2016-10-15T08:49:08Z</time></trkpt>
<trkpt lat="53.1192710000" lon="-4.1222190000"><ele>114</ele><time>2016-10-15T08:49:09Z</time></trkpt>
<trkpt lat="53.1192710000" lon="-4.1222190000"><ele>114</ele><time>2016-10-15T08:49:10Z</time></trkpt>
<trkpt lat="53.1192700000" lon="-4.1222190000"><ele>114</ele><time>2016-10-15T08:49:11Z</time></trkpt>
<trkpt lat="53.1192700000" lon="-4.1222190000"><ele>114</ele><time>2016-10-15T08:49:12Z</time></trkpt>
<trkpt lat="53.1192700000" lon="-4.1222180000"><ele>114</ele><time>2016-10-15T08:49:13Z</time></trkpt>
<trkpt lat="53.1192700000" lon="-4.1222180000"><ele>114</ele><time>2016-10-15T08:49:14Z</time></trkpt>
<trkpt lat="53.1192700000" lon="-4.1222180000"><ele>114</ele><time>2016-10-15T08:49:15Z</time></trkpt>
<trkpt lat="53.1192700000" lon="-4.1222180000"><ele>114</ele><time>2016-10-15T08:49:16Z</time></trkpt>
<trkpt lat="53.1192700000" lon="-4.1222190000"><ele>114</ele><time>2016-10-15T08:49:17Z</time></trkpt>
<trkpt lat="53.1192710000" lon="-4.1222190000"><ele>114</ele><time>2016-10-15T08:49:18Z</time></trkpt>
<trkpt lat="53.1192710000" lon="-4.1222190000"><ele>114</ele><time>2016-10-15T08:49:19Z</time></trkpt>
<trkpt lat="53.1192710000" lon="-4.1222190000"><ele>114</ele><time>2016-10-15T08:49:20Z</time></trkpt>
<trkpt lat="53.1192710000" lon="-4.1222200000"><ele>114</ele><time>2016-10-15T08:49:21Z</time></trkpt>
<trkpt lat="53.1192720000" lon="-4.1222200000"><ele>114</ele><time>2016-10-15T08:49:22Z</time></trkpt>
<trkpt lat="53.1192720000" lon="-4.1222210000"><ele>115</ele><time>2016-10-15T08:49:23Z</time></trkpt>
<trkpt lat="53.1192730000" lon="-4.1222210000"><ele>115</ele><time>2016-10-15T08:49:24Z</time></trkpt>
<trkpt lat="53.1192730000" lon="-4.1222220000"><ele>115</ele><time>2016-10-15T08:49:25Z</time></trkpt>
<trkpt lat="53.1192740000" lon="-4.1222230000"><ele>115</ele><time>2016-10-15T08:49:26Z</time></trkpt>
<trkpt lat="53.1192740000" lon="-4.1222230000"><ele>115</ele><time>2016-10-15T08:49:27Z</time></trkpt>
<trkpt lat="53.1192750000" lon="-4.1222230000"><ele>115</ele><time>2016-10-15T08:49:28Z</time></trkpt>
<trkpt lat="53.1192750000" lon="-4.1222230000"><ele>115</ele><time>2016-10-15T08:49:29Z</time></trkpt>
<trkpt lat="53.1192750000" lon="-4.1222230000"><ele>115</ele><time>2016-10-15T08:49:31Z</time></trkpt>
<trkpt lat="53.1192760000" lon="-4.1222230000"><ele>115</ele></trkpt>
<trkpt lat="53.1192760000" lon="-4.1222220000"><ele>116</ele><time>2016-10-15T08:49:32Z</time></trkpt>
<trkpt lat="53.1192760000" lon="-4.1222220000"><ele>116</ele><time>2016-10-15T08:49:33Z</time></trkpt>
<trkpt lat="53.1192760000" lon="-4.1222210000"><ele>116</ele><time>2016-10-15T08:49:34Z</time></trkpt>
<trkpt lat="53.1192760000" lon="-4.1222200000"><ele>116</ele><time>2016-10-15T08:49:35Z</time></trkpt>
<trkpt lat="53.1192760000" lon="-4.1222190000"><ele>116</ele><time>2016-10-15T08:49:36Z</time></trkpt>
<trkpt lat="53.1192760000" lon="-4.1222190000"><ele>116</ele><time>2016-10-15T08:49:37Z</time></trkpt>
<trkpt lat="53.1192760000" lon="-4.1222180000"><ele>116</ele><time>2016-10-15T08:49:38Z</time></trkpt>
<trkpt lat="53.1192760000" lon="-4.1222180000"><ele>116</ele><time>2016-10-15T08:49:39Z</time></trkpt>
<trkpt lat="53.1192760000" lon="-4.1222180000"><ele>116</ele><time>2016-10-15T08:49:40Z</time></trkpt>
<trkpt lat="53.1192760000" lon="-4.1222180000"><ele>116</ele><time>2016-10-15T08:49:41Z</time></trkpt>
<trkpt lat="53.1192750000" lon="-4.1222170000"><ele>116</ele><time>2016-10-15T08:49:42Z</time></trkpt>
<trkpt lat="53.1192750000" lon="-4.1222170000"><ele>116</ele><time>2016-10-15T08:49:43Z</time></trkpt>
<trkpt lat="53.1192750000" lon="-4.1222160000"><ele>116</ele><time>2016-10-15T08:49:44Z</time></trkpt>
<trkpt lat="53.1192740000" lon="-4.1222150000"><ele>116</ele><time>2016-10-15T08:49:45Z</time></trkpt>
<trkpt lat="53.1192740000" lon="-4.1222140000"><ele>116</ele><time>2016-10-15T08:49:46Z</time></trkpt>
<trkpt lat="53.1192730000" lon="-4.1222130000"><ele>116</ele><time>2016-10-15T08:49:47Z</time></trkpt>
<trkpt lat="53.1192720000" lon="-4.1222120000"><ele>116</ele><time>2016-10-15T08:49:48Z</time></trkpt>
<trkpt lat="53.1192720000" lon="-4.1222110000"><ele>116</ele><time>2016-10-15T08:49:49Z</time></trkpt>
<trkpt lat="53.1192710000" lon="-4.1222100000"><ele>116</ele><time>2016-10-15T08:49:50Z</time></trkpt>
<trkpt lat="53.1192710000" lon="-4.1222090000"><ele>116</ele><time>2016-10-15T08:49:51Z</time></trkpt>
<trkpt lat="53.1192700000" lon="-4.1222080000"><ele>116</ele><time>2016-10-15T08:49:52Z</time></trkpt>
<trkpt lat="53.1192700000" lon="-4.1222070000"><ele>116</ele><time>2016-10-15T08:49:53Z</time></trkpt>
<trkpt lat="53.1192690000" lon="-4.1222060000"><ele>116</ele><time>2016-10-15T08:49:54Z</time></trkpt>
<trkpt lat="53.1192680000" lon="-4.1222050000"><ele>115</ele><time>2016-10-15T08:49:55Z</time></trkpt>
<trkpt lat="53.1192670000" lon="-4.1222040000"><ele>115</ele><time>2016-10-15T08:49:56Z</time></trkpt>
<trkpt lat="53.1192660000" lon="-4.1222020000"><ele>115</ele><time>2016-10-15T08:49:57Z</time></trkpt>
<trkpt lat="53.1192650000" lon="-4.1222000000"><ele>115</ele><time>2016-10-15T08:49:58Z</time></trkpt>
<trkpt lat="53.1192630000" lon="-4.1221970000"><ele>115</ele><time>2016-10-15T08:49:59Z</time></trkpt>
<trkpt lat="53.1192620000" lon="-4.1221940000"><ele>115</ele><time>2016-10-15T08:50:00Z</time></trkpt>
<trkpt lat="53.1192600000" lon="-4.1221910000"><ele>115</ele><time>2016-10-15T08:50:01Z</time></trkpt>
<trkpt lat="53.1192570000" lon="-4.1221870000"><ele>115</ele><time>2016-10-15T08:50:02Z</time></trkpt>
<trkpt lat="53.1192550000" lon="-4.1221830000"><ele>115</ele><time>2016-10-15T08:50:03Z</time></trkpt>
<trkpt lat="53.1192520000" lon="-4.1221790000"><ele>115</ele><time>2016-10-15T08:50:04Z</time></trkpt>
<trkpt lat="53.1192480000" lon="-4.1221750000"><ele>115</ele><time>2016-10-15T08:50:05Z</time></trkpt>
<trkpt lat="53.1192450000" lon="-4.1221700000"><ele>115</ele><time>2016-10-15T08:50:06Z</time></trkpt>
<trkpt lat="53.1192410000" lon="-4.1221660000"><ele>115</ele><time>2016-10-15T08:50:07Z</time></trkpt>
<trkpt lat="53.1192370000" lon="-4.1221630000"><ele>115</ele><time>2016-10-15T08:50:08Z</time></trkpt>
<trkpt lat="53.1192330000" lon="-4.1221600000"><ele>115</ele><time>2016-10-15T08:50:09Z</time></trkpt>
<trkpt lat="53.1192290000" lon="-4.1221580000"><ele>115</ele><time>2016-10-15T08:50:10Z</time></trkpt>
<trkpt lat="53.1192240000" lon="-4.1221560000"><ele>115</ele><time>2016-10-15T08:50:11Z</time></trkpt>
<trkpt lat="53.1192190000" lon="-4.1221550000"><ele>115</ele><time>2016-10-15T08:50:12Z</time></trkpt>
<trkpt lat="53.1192150000" lon="-4.1221540000"><ele>115</ele><time>2016-10-15T08:50:13Z</time></trkpt>
<trkpt lat="53.1192090000" lon="-4.1221540000"><ele>115</ele><time>2016-10-15T08:50:14Z</time></trkpt>
<trkpt lat="53.1192040000" lon="-4.1221530000"><ele>115</ele><time>2016-10-15T08:50:15Z</time></trkpt>
<trkpt lat="53.1191980000" lon="-4.1221530000"><ele>115</ele><time>2016-10-15T08:50:16Z</time></trkpt>
<trkpt lat="53.1191930000" lon="-4.1221530000"><ele>115</ele><time>2016-10-15T08:50:17Z</time></trkpt>
<trkpt lat="53.1191860000" lon="-4.1221540000"><ele>115</ele><time>2016-10-15T08:50:18Z</time></trkpt>
<trkpt lat="53.1191800000" lon="-4.1221550000"><ele>114</ele><time>2016-10-15T08:50:19Z</time></trkpt>
<trkpt lat="53.1191740000" lon="-4.1221560000"><ele>114</ele><time>2016-10-15T08:50:20Z</time></trkpt>
<trkpt lat="53.1191670000" lon="-4.1221580000"><ele>114</ele><time>2016-10-15T08:50:21Z</time></trkpt>
<trkpt lat="53.1191600000" lon="-4.1221600000"><ele>114</ele><time>2016-10-15T08:50:22Z</time></trkpt>
<trkpt lat="53.1191530000" lon="-4.1221610000"><ele>114</ele><time>2016-10-15T08:50:23Z</time></trkpt>
<trkpt lat="53.1191460000" lon="-4.1221630000"><ele>114</ele><time>2016-10-15T08:50:24Z</time></trkpt>
<trkpt lat="53.1191390000" lon="-4.1221650000"><ele>114</ele><time>2016-10-15T08:50:25Z</time></trkpt>
<trkpt lat="53.1191310000" lon="-4.1221670000"><ele>114</ele><time>2016-10-15T08:50:26Z</time></trkpt>
<trkpt lat="53.1191240000" lon="-4.1221680000"><ele>113</ele><time>2016-10-15T08:50:27Z</time></trkpt>
<trkpt lat="53.1191160000" lon="-4.1221700000"><ele>113</ele><time>2016-10-15T08:50:28Z</time></trkpt>
<trkpt lat="53.1191090000" lon="-4.1221710000"><ele>113</ele><time>2016-10-15T08:50:29Z</time></trkpt>
<trkpt lat="53.1191020000" lon="-4.1221720000"><ele>113</ele><time>2016-10-15T08:50:31Z</time></trkpt>
<trkpt lat="53.1190940000" lon="-4.1221730000"><ele>113</ele></trkpt>
<trkpt lat="53.1190870000" lon="-4.1221740000"><ele>113</ele><time>2016-10-15T08:50:32Z</time></trkpt>
<trkpt lat="53.1190790000" lon="-4.1221750000"><ele>112</ele><time>2016-10-15T08:50:33Z</time></trkpt>
<trkpt lat="53.1190720000" lon="-4.1221760000"><ele>112</ele><time>2016-10-15T08:50:34Z</time></trkpt>
<trkpt lat="53.1190640000" lon="-4.1221770000"><ele>112</ele><time>2016-10-15T08:50:35Z</time></trkpt>
<trkpt lat="53.1190570000" lon="-4.1221770000"><ele>112</ele><time>2016-10-15T08:50:36Z</time></trkpt>
<trkpt lat="53.1190490000" lon="-4.1221780000"><ele>112</ele><time>2016-10-15T08:50:37Z</time></trkpt>
<trkpt lat="53.1190410000" lon="-4.1221790000"><ele>112</ele><time>2016-10-15T08:50:38Z</time></trkpt>
<trkpt lat="53.1190330000" lon="-4.1221790000"><ele>112</ele><time>2016-10-15T08:50:39Z</time></trkpt>
<trkpt lat="53.1190240000" lon="-4.1221800000"><ele>111</ele><time>2016-10-15T08:50:40Z</time></trkpt>
<trkpt lat="53.1190150000" lon="-4.1221810000"><ele>111</ele><time>2016-10-15T08:50:41Z</time></trkpt>
<trkpt lat="53.1190060000" lon="-4.1221820000"><ele>111</ele><time>2016-10-15T08:50:42Z</time></trkpt>
<trkpt lat="53.1189970000" lon="-4.1221820000"><ele>111</ele><time>2016-10-15T08:50:43Z</time></trkpt>
<trkpt lat="53.1188250000" lon="-4.1221880000"><ele>110</ele><time>2016-10-15T08:50:44Z</time></trkpt>
<trkpt lat="53.1188130000" lon="-4.1221870000"><ele>110</ele><time>2016-10-15T08:50:45Z</time></trkpt>
<trkpt lat="53.1188020000" lon="-4.1221850000"><ele>110</ele><time>2016-10-15T08:50:46Z</time></trkpt>
<trkpt lat="53.1187900000" lon="-4.1221820000"><ele>110</ele><time>2016-10-15T08:50:47Z</time></trkpt>
<trkpt lat="53.1187770000" lon="-4.1221860000"><ele>110</ele><time>2016-10-15T08:50:48Z</time></trkpt>
<trkpt lat="53.1187630000" lon="-4.1221950000"><ele>110</ele><time>2016-10-15T08:50:49Z</time></trkpt>
<trkpt lat="53.1187510000" lon="-4.1222080000"><ele>110</ele><time>2016-10-15T08:50:50Z</time></trkpt>
<trkpt lat="53.1187390000" lon="-4.1222180000"><ele>110</ele><time>2016-10-15T08:50:51Z</time></trkpt>
<trkpt lat="53.1187290000" lon="-4.1222280000"><ele>110</ele><time>2016-10-15T08:50:52Z</time></trkpt>
<trkpt lat="53.1187180000" lon="-4.1222360000"><ele>110</ele><time>2016-10-15T08:50:53Z</time></trkpt>
<trkpt lat="53.1187050000" lon="-4.1222390000"><ele>110</ele><time>2016-10-15T08:50:54Z</time></trkpt>
<trkpt lat="53.1186920000" lon="-4.1222370000"><ele>110</ele><time>2016-10-15T08:50:55Z</time></trkpt>
<trkpt lat="53.1186800000" lon="-4.1222440000"><ele>110</ele><time>2016-10-15T08:50:56Z</time></trkpt>
<trkpt lat="53.1186660000" lon="-4.1222550000"><ele>110</ele><time>2016-10-15T08:50:57Z</time></trkpt>
<trkpt lat="53.1186520000" lon="-4.1222690000"><ele>110</ele><time>2016-10-15T08:50:58Z</time></trkpt>
<trkpt lat="53.1186410000" lon="-4.1222850000"><ele>111</ele><time>2016-10-15T08:50:59Z</time></trkpt>
<trkpt lat="53.1186330000" lon="-4.1223000000"><ele>111</ele><time>2016-10-15T08:51:00Z</time></trkpt>
<trkpt lat="53.1186300000" lon="-4.1223090000"><ele>111</ele><time>2016-10-15T08:51:01Z</time></trkpt>
<trkpt lat="53.1186270000" lon="-4.1223130000"><ele>111</ele><time>2016-10-15T08:51:02Z</time></trkpt>
<trkpt lat="53.1186270000" lon="-4.1223130000"><ele>111</ele><time>2016-10-15T08:51:04Z</time></trkpt>
<trkpt lat="53.1186270000" lon="-4.1223130000"><ele>111</ele><time>2016-10-15T08:51:05Z</time></trkpt>
<trkpt lat="53.1186270000" lon="-4.1223130000"><ele>111</ele><time>2016-10-15T08:51:06Z</time></trkpt>
<trkpt lat="53.1186260000" lon="-4.1223130000"><ele>111</ele><time>2016-10-15T08:51:07Z</time></trkpt>
<trkpt lat="53.1186260000" lon="-4.1223130000"><ele>112</ele><time>2016-10-15T08:51:08Z</time></trkpt>
<trkpt lat="53.1186260000" lon="-4.1223130000"><ele>112</ele><time>2016-10-15T08:51:09Z</time></trkpt>
<trkpt lat="53.1186250000" lon="-4.1223130000"><ele>112</ele><time>2016-10-15T08:51:10Z</time></trkpt>
<trkpt lat="53.1186240000" lon="-4.1223120000"><ele>112</ele><time>2016-10-15T08:51:11Z</time></trkpt>
<trkpt lat="53.1186230000" lon="-4.1223110000"><ele>112</ele><time>2016-10-15T08:51:12Z</time></trkpt>
<trkpt lat="53.1186210000" lon="-4.1223090000"><ele>112</ele><time>2016-10-15T08:51:13Z</time></trkpt>
<trkpt lat="53.1186190000" lon="-4.1223070000"><ele>112</ele><time>2016-10-15T08:51:14Z</time></trkpt>
<trkpt lat="53.1186170000" lon="-4.1223040000"><ele>112</ele><time>2016-10-15T08:51:15Z</time></trkpt>
<trkpt lat="53.1186140000" lon="-4.1223000000"><ele>112</ele><time>2016-10-15T08:51:16Z</time></trkpt>
<trkpt lat="53.1186110000" lon="-4.1222970000"><ele>112</ele><time>2016-10-15T08:51:17Z</time></trkpt>
<trkpt lat="53.1186080000" lon="-4.1222920000"><ele>112</ele><time>2016-10-15T08:51:18Z</time></trkpt>
<trkpt lat="53.1186050000" lon="-4.1222870000"><ele>112</ele><time>2016-10-15T08:51:19Z</time></trkpt>
<trkpt lat="53.1186010000" lon="-4.1222810000"><ele>112</ele><time>2016-10-15T08:51:20Z</time></trkpt>
<trkpt lat="53.1185970000" lon="-4.1222750000"><ele>112</ele><time>2016-10-15T08:51:21Z</time></trkpt>
<trkpt lat="53.1185920000" lon="-4.1222680000"><ele>112</ele><time>2016-10-15T08:51:22Z</time></trkpt>
<trkpt lat="53.1185870000" lon="-4.1222610000"><ele>112</ele><time>2016-10-15T08:51:23Z</time></trkpt>
<trkpt lat="53.1185820000" lon="-4.1222540000"><ele>112</ele><time>2016-10-15T08:51:24Z</time></trkpt>
<trkpt lat="53.1185760000" lon="-4.1222460000"><ele>112</ele><time>2016-10-15T08:51:25Z</time></trkpt>
<trkpt lat="53.1185710000" lon="-4.1222380000"><ele>111</ele><time>2016-10-15T08:51:26Z</time></trkpt>
<trkpt lat="53.1185650000" lon="-4.1222300000"><ele>111</ele><time>2016-10-15T08:51:27Z</time></trkpt>
<trkpt lat="53.1185590000" lon="-4.1222220000"><ele>111</ele><time>2016-10-15T08:51:28Z</time></trkpt>
<trkpt lat="53.1185520000" lon="-4.1222140000"><ele>111</ele><time>2016-10-15T08:51:29Z</time></trkpt>
<trkpt lat="53.1185460000" lon="-4.1222050000"><ele>111</ele><time>2016-10-15T08:51:31Z</time></trkpt>
<trkpt lat="53.1185400000" lon="-4.1221970000"><ele>111</ele></trkpt>
<trkpt lat="53.1185340000" lon="-4.1221890000"><ele>111</ele><time>2016-10-15T08:51:32Z</time></trkpt>
<trkpt lat="53.1185280000" lon="-4.1221810000"><ele>111</ele><time>2016-10-15T08:51:33Z</time></trkpt>
<trkpt lat="53.1185220000" lon="-4.1221720000"><ele>110</ele><time>2016-10-15T08:51:34Z</time></trkpt>
<trkpt lat="53.1185160000" lon="-4.1221640000"><ele>110</ele><time>2016-10-15T08:51:35Z</time></trkpt>
<trkpt lat="53.1185090000" lon="-4.1221550000"><ele>110</ele><time>2016-10-15T08:51:36Z</time></trkpt>
<trkpt lat="53.1185030000" lon="-4.1221460000"><ele>110</ele><time>2016-10-15T08:51:37Z</time></trkpt>
<trkpt lat="53.1184960000" lon="-4.1221370000"><ele>110</ele><time>2016-10-15T08:51:38Z</time></trkpt>
<trkpt lat="53.1184880000" lon="-4.1221280000"><ele>110</ele><time>2016-10-15T08:51:39Z</time></trkpt>
<trkpt lat="53.1184810000" lon="-4.1221180000"><ele>110</ele><time>2016-10-15T08:51:40Z</time></trkpt>
<trkpt lat="53.1184730000" lon="-4.1221070000"><ele>110</ele><time>2016-10-15T08:51:41Z</time></trkpt>
<trkpt lat="53.1184660000" lon="-4.1220970000"><ele>110</ele><time>2016-10-15T08:51:42Z</time></trkpt>
<trkpt lat="53.1183360000" lon="-4.1219180000"><ele>110</ele><time>2016-10-15T08:51:43Z</time></trkpt>
<trkpt lat="53.1183260000" lon="-4.1219060000"><ele>110</ele><time>2016-10-15T08:51:44Z</time></trkpt>
<trkpt lat="53.1183160000" lon="-4.1218950000"><ele>110</ele><time>2016-10-15T08:51:45Z</time></trkpt>
<trkpt lat="53.1183060000" lon="-4.1218840000"><ele>110</ele><time>2016-10-15T08:51:46Z</time></trkpt>
<trkpt lat="53.1182970000" lon="-4.1218720000"><ele>110</ele><time>2016-10-15T08:51:47Z</time></trkpt>
<trkpt lat="53.1182970000" lon="-4.1218720000"><ele>110</ele><time>2016-10-15T08:51:48Z</time></trkpt>
<trkpt lat="53.1182970000" lon="-4.1218720000"><ele>110</ele><time>2016-10-15T08:51:49Z</time></trkpt>
<trkpt lat="53.1182970000" lon="-4.1218710000"><ele>110</ele><time>2016-10-15T08:51:50Z</time></trkpt>
<trkpt lat="53.1182970000" lon="-4.1218710000"><ele>110</ele><time>2016-10-15T08:51:51Z</time></trkpt>
<trkpt lat="53.1182960000" lon="-4.1218710000"><ele>110</ele><time>2016-10-15T08:51:52Z</time></trkpt>
<trkpt lat="53.1182960000" lon="-4.1218710000"><ele>110</ele><time>2016-10-15T08:51:53Z</time></trkpt>
<trkpt lat="53.1182960000" lon="-4.1218710000"><ele>110</ele><time>2016-10-15T08:51:54Z</time></trkpt>
<trkpt lat="53.1182960000" lon="-4.1218710000"><ele>110</ele><time>2016-10-15T08:51:55Z</time></trkpt>
<trkpt lat="53.1182950000" lon="-4.1218700000"><ele>110</ele><time>2016-10-15T08:51:56Z</time></trkpt>
<trkpt lat="53.1182950000" lon="-4.1218700000"><ele>110</ele><time>2016-10-15T08:51:57Z</time></trkpt>
<trkpt lat="53.1182950000" lon="-4.1218690000"><ele>110</ele><time>2016-10-15T08:51:58Z</time></trkpt>
<trkpt lat="53.1181980000" lon="-4.1217030000"><ele>110</ele><time>2016-10-15T08:51:59Z</time></trkpt>
<trkpt lat="53.1181900000" lon="-4.1216840000"><ele>110</ele><time>2016-10-15T08:52:00Z</time></trkpt>
<trkpt lat="53.1181800000" lon="-4.1216740000"><ele>110</ele><time>2016-10-15T08:52:01Z</time></trkpt>
<trkpt lat="53.1181770000" lon="-4.1216390000"><ele>111</ele><time>2016-10-15T08:52:02Z</time></trkpt>
<trkpt lat="53.1181690000" lon="-4.1216160000"><ele>111</ele><time>2016-10-15T08:52:03Z</time></trkpt>
<trkpt lat="53.1181570000" lon="-4.1216020000"><ele>111</ele><time>2016-10-15T08:52:04Z</time></trkpt>
<trkpt lat="53.1181440000" lon="-4.1215920000"><ele>111</ele><time>2016-10-15T08:52:05Z</time></trkpt>
<trkpt lat="53.1181290000" lon="-4.1215810000"><ele>111</ele><time>2016-10-15T08:52:06Z</time></trkpt>
<trkpt lat="53.1181150000" lon="-4.1215790000"><ele>111</ele><time>2016-10-15T08:52:07Z</time></trkpt>
<trkpt lat="53.1181070000" lon="-4.1215660000"><ele>112</ele><time>2016-10-15T08:52:08Z</time></trkpt>
<trkpt lat="53.1181010000" lon="-4.1215580000"><ele>112</ele><time>2016-10-15T08:52:09Z</time></trkpt>
<trkpt lat="53.1180890000" lon="-4.1215710000"><ele>112</ele><time>2016-10-15T08:52:10Z</time></trkpt>
<trkpt lat="53.1180670000" lon="-4.1215740000"><ele>110</ele><time>2016-10-15T08:52:21Z</time></trkpt>
<trkpt lat="53.1179390000" lon="-4.1215350000"><ele>110</ele><time>2016-10-15T08:52:23Z</time></trkpt>
<trkpt lat="53.1179270000" lon="-4.1215310000"><ele>110</ele><time>2016-10-15T08:52:24Z</time></trkpt>
<trkpt lat="53.1179140000" lon="-4.1215360000"><ele>109</ele><time>2016-10-15T08:52:25Z</time></trkpt>
<trkpt lat="53.1178990000" lon="-4.1215440000"><ele>109</ele><time>2016-10-15T08:52:26Z</time></trkpt>
<trkpt lat="53.1178880000" lon="-4.1215560000"><ele>109</ele><time>2016-10-15T08:52:27Z</time></trkpt>
<trkpt lat="53.1178810000" lon="-4.1215650000"><ele>109</ele><time>2016-10-15T08:52:28Z</time></trkpt>
<trkpt lat="53.1178760000" lon="-4.1215710000"><ele>109</ele><time>2016-10-15T08:52:29Z</time></trkpt>
<trkpt lat="53.1178760000" lon="-4.1215710000"><ele>109</ele><time>2016-10-15T08:52:31Z</time></trkpt>
<trkpt lat="53.1178570000" lon="-4.1216270000"><ele>109</ele><time>2016-10-15T08:52:32Z</time></trkpt>
<trkpt lat="53.1178550000" lon="-4.1216480000"><ele>109</ele><time>2016-10-15T08:52:33Z</time></trkpt>
<trkpt lat="53.1178550000" lon="-4.1216730000"><ele>109</ele><time>2016-10-15T08:52:34Z</time></trkpt>
<trkpt lat="53.1178580000" lon="-4.1216950000"><ele>109</ele><time>2016-10-15T08:52:35Z</time></trkpt>
<trkpt lat="53.1178600000" lon="-4.1217160000"><ele>109</ele><time>2016-10-15T08:52:36Z</time></trkpt>
<trkpt lat="53.1178630000" lon="-4.1217400000"><ele>109</ele><time>2016-10-15T08:52:37Z</time></trkpt>
<trkpt lat="53.1178660000" lon="-4.1217620000"><ele>108</ele><time>2016-10-15T08:52:38Z</time></trkpt>
<trkpt lat="53.1178730000" lon="-4.1217760000"><ele>108</ele><time>2016-10-15T08:52:39Z</time></trkpt>
<trkpt lat="53.1178800000" lon="-4.1218130000"><ele>109</ele><time>2016-10-15T08:52:51Z</time></trkpt>
<trkpt lat="53.1178810000" lon="-4.1218380000"><ele>109</ele><time>2016-10-15T08:52:55Z</time></trkpt>
<trkpt lat="53.1178810000" lon="-4.1218470000"><ele>109</ele><time>2016-10-15T08:52:56Z</time></trkpt>
<trkpt lat="53.1178820000" lon="-4.1218560000"><ele>109</ele><time>2016-10-15T08:52:57Z</time></trkpt>
<trkpt lat="53.1178820000" lon="-4.1218660000"><ele>110</ele><time>2016-10-15T08:52:58Z</time></trkpt>
<trkpt lat="53.1178830000" lon="-4.1218760000"><ele>110</ele><time>2016-10-15T08:52:59Z</time></trkpt>
<trkpt lat="53.1178830000" lon="-4.1218870000"><ele>110</ele><time>2016-10-15T08:53:00Z</time></trkpt>
<trkpt lat="53.1178840000" lon="-4.1218980000"><ele>110</ele><time>2016-10-15T08:53:01Z</time></trkpt>
<trkpt lat="53.1178850000" lon="-4.1219100000"><ele>110</ele><time>2016-10-15T08:53:02Z</time></trkpt>
<trkpt lat="53.1178850000" lon="-4.1219230000"><ele>110</ele><time>2016-10-15T08:53:03Z</time></trkpt>
<trkpt lat="53.1178860000" lon="-4.1219360000"><ele>110</ele><time>2016-10-15T08:53:04Z</time></trkpt>
<trkpt lat="53.1178870000" lon="-4.1219500000"><ele>110</ele><time>2016-10-15T08:53:05Z</time></trkpt>
<trkpt lat="53.1178890000" lon="-4.1219630000"><ele>110</ele><time>2016-10-15T08:53:06Z</time></trkpt>
<trkpt lat="53.1178910000" lon="-4.1219770000"><ele>110</ele><time>2016-10-15T08:53:07Z</time></trkpt>
<trkpt lat="53.1178930000" lon="-4.1219900000"><ele>110</ele><time>2016-10-15T08:53:08Z</time></trkpt>
<trkpt lat="53.1178960000" lon="-4.1220040000"><ele>110</ele><time>2016-10-15T08:53:09Z</time></trkpt>
<trkpt lat="53.1178990000" lon="-4.1220170000"><ele>110</ele><time>2016-10-15T08:53:10Z</time></trkpt>
<trkpt lat="53.1179020000" lon="-4.1220300000"><ele>110</ele><time>2016-10-15T08:53:11Z</time></trkpt>
<trkpt lat="53.1179050000" lon="-4.1220430000"><ele>111</ele><time>2016-10-15T08:53:12Z</time></trkpt>
<trkpt lat="53.1179080000" lon="-4.1220540000"><ele>111</ele><time>2016-10-15T08:53:13Z</time></trkpt>
<trkpt lat="53.1179120000" lon="-4.1220630000"><ele>111</ele><time>2016-10-15T08:53:14Z</time></trkpt>
<trkpt lat="53.1179670000" lon="-4.1221810000"><ele>111</ele><time>2016-10-15T08:53:15Z</time></trkpt>
<trkpt lat="53.1179700000" lon="-4.1221450000"><ele>111</ele><time>2016-10-15T08:53:16Z</time></trkpt>
<trkpt lat="53.1179710000" lon="-4.1221070000"><ele>111</ele><time>2016-10-15T08:53:17Z</time></trkpt>
<trkpt lat="53.1179690000" lon="-4.1220690000"><ele>112</ele><time>2016-10-15T08:53:18Z</time></trkpt>
<trkpt lat="53.1179630000" lon="-4.1220330000"><ele>112</ele><time>2016-10-15T08:53:19Z</time></trkpt>
<trkpt lat="53.1179520000" lon="-4.1219960000"><ele>112</ele><time>2016-10-15T08:53:20Z</time></trkpt>
<trkpt lat="53.1179420000" lon="-4.1219690000"><ele>112</ele><time>2016-10-15T08:53:21Z</time></trkpt>
<trkpt lat="53.1179320000" lon="-4.1219440000"><ele>112</ele><time>2016-10-15T08:53:22Z</time></trkpt>
<trkpt lat="53.1179240000" lon="-4.1219160000"><ele>112</ele><time>2016-10-15T08:53:23Z</time></trkpt>
<trkpt lat="53.1179170000" lon="-4.1218870000"><ele>112</ele><time>2016-10-15T08:53:24Z</time></trkpt>
<trkpt lat="53.1179090000" lon="-4.1218590000"><ele>112</ele><time>2016-10-15T08:53:25Z</time></trkpt>
<trkpt lat="53.1179010000" lon="-4.1218360000"><ele>112</ele><time>2016-10-15T08:53:26Z</time></trkpt>
<trkpt lat="53.1178900000" lon="-4.1218080000"><ele>112</ele><time>2016-10-15T08:53:27Z</time></trkpt>
<trkpt lat="53.1178800000" lon="-4.1217850000"><ele>112</ele><time>2016-10-15T08:53:28Z</time></trkpt>
<trkpt lat="53.1178700000" lon="-4.1217600000"><ele>112</ele><time>2016-10-15T08:53:29Z</time></trkpt>
<trkpt lat="53.1178610000" lon="-4.1217290000"><ele>112</ele><time>2016-10-15T08:53:31Z</time></trkpt>
<trkpt lat="53.1178550000" lon="-4.1217010000"><ele>112</ele></trkpt>
<trkpt lat="53.1178500000" lon="-4.1216730000"><ele>112</ele><time>2016-10-15T08:53:32Z</time></trkpt>
<trkpt lat="53.1178490000" lon="-4.1216480000"><ele>112</ele><time>2016-10-15T08:53:33Z</time></trkpt>
<trkpt lat="53.1178550000" lon="-4.1216280000"><ele>112</ele><time>2016-10-15T08:53:34Z</time></trkpt>
<trkpt lat="53.1178630000" lon="-4.1216110000"><ele>112</ele><time>2016-10-15T08:53:35Z</time></trkpt>
<trkpt lat="53.1178780000" lon="-4.1215980000"><ele>112</ele><time>2016-10-15T08:53:36Z</time></trkpt>
<trkpt lat="53.1178930000" lon="-4.1215920000"><ele>112</ele><time>2016-10-15T08:53:37Z</time></trkpt>
<trkpt lat="53.1179070000" lon="-4.1215870000"><ele>111</ele><time>2016-10-15T08:53:38Z</time></trkpt>
<trkpt lat="53.1179220000" lon="-4.1215860000"><ele>111</ele><time>2016-10-15T08:53:39Z</time></trkpt>
<trkpt lat="53.1179400000" lon="-4.1215880000"><ele>111</ele><time>2016-10-15T08:53:40Z</time></trkpt>
<trkpt lat="53.1179610000" lon="-4.1215880000"><ele>111</ele><time>2016-10-15T08:53:41Z</time></trkpt>
<trkpt lat="53.1179800000" lon="-4.1215870000"><ele>111</ele><time>2016-10-15T08:53:42Z</time></trkpt>
<trkpt lat="53.1180020000" lon="-4.1215840000"><ele>111</ele><time>2016-10-15T08:53:43Z</time></trkpt>
<trkpt lat="53.1180240000" lon="-4.1215830000"><ele>110</ele><time>2016-10-15T08:53:44Z</time></trkpt>
<trkpt lat="53.1180470000" lon="-4.1215840000"><ele>110</ele><time>2016-10-15T08:53:45Z</time></trkpt>
<trkpt lat="53.1180720000" lon="-4.1215850000"><ele>110</ele><time>2016-10-15T08:53:46Z</time></trkpt>
<trkpt lat="53.1180970000" lon="-4.1215870000"><ele>110</ele><time>2016-10-15T08:53:47Z</time></trkpt>
<trkpt lat="53.1181190000" lon="-4.1215900000"><ele>110</ele><time>2016-10-15T08:53:48Z</time></trkpt>
<trkpt lat="53.1181390000" lon="-4.1215950000"><ele>109</ele><time>2016-10-15T08:53:49Z</time></trkpt>
<trkpt lat="53.1181560000" lon="-4.1216040000"><ele>109</ele><time>2016-10-15T08:53:50Z</time></trkpt>
<trkpt lat="53.1181750000" lon="-4.1216140000"><ele>109</ele><time>2016-10-15T08:53:51Z</time></trkpt>
<trkpt lat="53.1181940000" lon="-4.1216260000"><ele>109</ele><time>2016-10-15T08:53:52Z</time></trkpt>
<trkpt lat="53.1182110000" lon="-4.1216380000"><ele>109</ele><time>2016-10-15T08:53:53Z</time></trkpt>
<trkpt lat="53.1182270000" lon="-4.1216500000"><ele>109</ele><time>2016-10-15T08:53:54Z</time></trkpt>
<trkpt lat="53.1182440000" lon="-4.1216630000"><ele>109</ele><time>2016-10-15T08:53:55Z</time></trkpt>
<trkpt lat="53.1182610000" lon="-4.1216790000"><ele>108</ele><time>2016-10-15T08:53:56Z</time></trkpt>
<trkpt lat="53.1182790000" lon="-4.1216940000"><ele>108</ele><time>2016-10-15T08:53:57Z</time></trkpt>
<trkpt lat="53.1182960000" lon="-4.1217070000"><ele>108</ele><time>2016-10-15T08:53:58Z</time></trkpt>
<trkpt lat="53.1183120000" lon="-4.1217220000"><ele>108</ele><time>2016-10-15T08:53:59Z</time></trkpt>
<trkpt lat="53.1183290000" lon="-4.1217370000"><ele>108</ele><time>2016-10-15T08:54:00Z</time></trkpt>
<trkpt lat="53.1183460000" lon="-4.1217490000"><ele>108</ele><time>2016-10-15T08:54:01Z</time></trkpt>
<trkpt lat="53.1183630000" lon="-4.1217610000"><ele>108</ele><time>2016-10-15T08:54:02Z</time></trkpt>
<trkpt lat="53.1183790000" lon="-4.1217740000"><ele>108</ele><time>2016-10-15T08:54:03Z</time></trkpt>
<trkpt lat="53.1183920000" lon="-4.1217890000"><ele>108</ele><time>2016-10-15T08:54:04Z</time></trkpt>
<trkpt lat="53.1184050000" lon="-4.1218040000"><ele>108</ele><time>2016-10-15T08:54:05Z</time></trkpt>
<trkpt lat="53.1184160000" lon="-4.1218200000"><ele>108</ele><time>2016-10-15T08:54:06Z</time></trkpt>
<trkpt lat="53.1184310000" lon="-4.1218360000"><ele>108</ele><time>2016-10-15T08:54:07Z</time></trkpt>
<trkpt lat="53.1184440000" lon="-4.1218530000"><ele>108</ele><time>2016-10-15T08:54:08Z</time></trkpt>
<trkpt lat="53.1184580000" lon="-4.1218720000"><ele>108</ele><time>2016-10-15T08:54:09Z</time></trkpt>
<trkpt lat="53.1184720000" lon="-4.1218890000"><ele>108</ele><time>2016-10-15T08:54:10Z</time></trkpt>
<trkpt lat="53.1184870000" lon="-4.1219050000"><ele>108</ele><time>2016-10-15T08:54:11Z</time></trkpt>
<trkpt lat="53.1185010000" lon="-4.1219190000"><ele>108</ele><time>2016-10-15T08:54:12Z</time></trkpt>
<trkpt lat="53.1185180000" lon="-4.1219340000"><ele>108</ele><time>2016-10-15T08:54:13Z</time></trkpt>
<trkpt lat="53.1185350000" lon="-4.1219490000"><ele>108</ele><time>2016-10-15T08:54:14Z</time></trkpt>
<trkpt lat="53.1185520000" lon="-4.1219620000"><ele>107</ele><time>2016-10-15T08:54:15Z</time></trkpt>
<trkpt lat="53.1185660000" lon="-4.1219750000"><ele>107</ele><time>2016-10-15T08:54:16Z</time></trkpt>
<trkpt lat="53.1185800000" lon="-4.1219870000"><ele>107</ele><time>2016-10-15T08:54:17Z</time></trkpt>
<trkpt lat="53.1185940000" lon="-4.1220000000"><ele>107</ele><time>2016-10-15T08:54:18Z</time></trkpt>
<trkpt lat="53.1186080000" lon="-4.1220160000"><ele>107</ele><time>2016-10-15T08:54:19Z</time></trkpt>
<trkpt lat="53.1186220000" lon="-4.1220320000"><ele>107</ele><time>2016-10-15T08:54:20Z</time></trkpt>
<trkpt lat="53.1186340000" lon="-4.1220470000"><ele>107</ele><time>2016-10-15T08:54:21Z</time></trkpt>
<trkpt lat="53.1186470000" lon="-4.1220620000"><ele>106</ele><time>2016-10-15T08:54:22Z</time></trkpt>
<trkpt lat="53.1186650000" lon="-4.1220750000"><ele>106</ele><time>2016-10-15T08:54:23Z</time></trkpt>
<trkpt lat="53.1186870000" lon="-4.1220870000"><ele>106</ele><time>2016-10-15T08:54:24Z</time></trkpt>
<trkpt lat="53.1187040000" lon="-4.1220990000"><ele>106</ele><time>2016-10-15T08:54:25Z</time></trkpt>
<trkpt lat="53.1187270000" lon="-4.1221100000"><ele>106</ele><time>2016-10-15T08:54:26Z</time></trkpt>
<trkpt lat="53.1187490000" lon="-4.1221220000"><ele>106</ele><time>2016-10-15T08:54:27Z</time></trkpt>
<trkpt lat="53.1187710000" lon="-4.1221300000"><ele>106</ele><time>2016-10-15T08:54:28Z</time></trkpt>
<trkpt lat="53.1187900000" lon="-4.1221350000"><ele>107</ele><time>2016-10-15T08:54:29Z</time></trkpt>
<trkpt lat="53.1188070000" lon="-4.1221420000"><ele>107</ele><time>2016-10-15T08:54:31Z</time></trkpt>
<trkpt lat="53.1188190000" lon="-4.1221460000"><ele>107</ele></trkpt>
<trkpt lat="53.1188310000" lon="-4.1221510000"><ele>107</ele><time>2016-10-15T08:54:32Z</time></trkpt>
<trkpt lat="53.1188370000" lon="-4.1221590000"><ele>107</ele><time>2016-10-15T08:54:33Z</time></trkpt>
<trkpt lat="53.1188410000" lon="-4.1221650000"><ele>107</ele><time>2016-10-15T08:54:34Z</time></trkpt>
<trkpt lat="53.1188410000" lon="-4.1221650000"><ele>107</ele><time>2016-10-15T08:54:36Z</time></trkpt>
<trkpt lat="53.1188730000" lon="-4.1221690000"><ele>107</ele><time>2016-10-15T08:54:37Z</time></trkpt>
<trkpt lat="53.1188850000" lon="-4.1221760000"><ele>107</ele><time>2016-10-15T08:54:38Z</time></trkpt>
<trkpt lat="53.1188960000" lon="-4.1221860000"><ele>107</ele><time>2016-10-15T08:54:39Z</time></trkpt>
<trkpt lat="53.1189180000" lon="-4.1221910000"><ele>107</ele><time>2016-10-15T08:54:40Z</time></trkpt>
<trkpt lat="53.1189400000" lon="-4.1221970000"><ele>107</ele><time>2016-10-15T08:54:41Z</time></trkpt>
<trkpt lat="53.1189590000" lon="-4.1222040000"><ele>107</ele><time>2016-10-15T08:54:42Z</time></trkpt>
<trkpt lat="53.1189750000" lon="-4.1222130000"><ele>107</ele><time>2016-10-15T08:54:43Z</time></trkpt>
<trkpt lat="53.1189910000" lon="-4.1222200000"><ele>107</ele><time>2016-10-15T08:54:44Z</time></trkpt>
<trkpt lat="53.1190100000" lon="-4.1222250000"><ele>107</ele><time>2016-10-15T08:54:45Z</time></trkpt>
<trkpt lat="53.1190450000" lon="-4.1222330000"><ele>107</ele><time>2016-10-15T08:54:47Z</time></trkpt>
<trkpt lat="53.1190660000" lon="-4.1222380000"><ele>107</ele><time>2016-10-15T08:54:48Z</time></trkpt>
<trkpt lat="53.1190950000" lon="-4.1222410000"><ele>107</ele><time>2016-10-15T08:54:50Z</time></trkpt>
<trkpt lat="53.1191190000" lon="-4.1222310000"><ele>107</ele><time>2016-10-15T08:54:52Z</time></trkpt>
<trkpt lat="53.1191310000" lon="-4.1222260000"><ele>107</ele><time>2016-10-15T08:54:54Z</time></trkpt>
<trkpt lat="53.1191310000" lon="-4.1222260000"><ele>107</ele><time>2016-10-15T08:54:55Z</time></trkpt>
<trkpt lat="53.1191710000" lon="-4.1222080000"><ele>107</ele><time>2016-10-15T08:54:56Z</time></trkpt>
<trkpt lat="53.1191880000" lon="-4.1222130000"><ele>107</ele><time>2016-10-15T08:54:57Z</time></trkpt>
<trkpt lat="53.1192100000" lon="-4.1222390000"><ele>107</ele><time>2016-10-15T08:54:59Z</time></trkpt>
<trkpt lat="53.1192190000" lon="-4.1222560000"><ele>107</ele><time>2016-10-15T08:55:02Z</time></trkpt>
<trkpt lat="53.1192190000" lon="-4.1222560000"><ele>107</ele><time>2016-10-15T08:55:03Z</time></trkpt>
<trkpt lat="53.1192200000" lon="-4.1222560000"><ele>107</ele><time>2016-10-15T08:55:04Z</time></trkpt>
<trkpt lat="53.1192200000" lon="-4.1222570000"><ele>107</ele><time>2016-10-15T08:55:05Z</time></trkpt>
<trkpt lat="53.1192200000" lon="-4.1222570000"><ele>107</ele><time>2016-10-15T08:55:06Z</time></trkpt>
<trkpt lat="53.1192210000" lon="-4.1222580000"><ele>107</ele><time>2016-10-15T08:55:07Z</time></trkpt>
<trkpt lat="53.1192210000" lon="-4.1222580000"><ele>107</ele><time>2016-10-15T08:55:08Z</time></trkpt>
<trkpt lat="53.1192210000" lon="-4.1222590000"><ele>107</ele><time>2016-10-15T08:55:09Z</time></trkpt>
<trkpt lat="53.1192220000" lon="-4.1222600000"><ele>107</ele><time>2016-10-15T08:55:10Z</time></trkpt>
<trkpt lat="53.1192220000" lon="-4.1222610000"><ele>107</ele><time>2016-10-15T08:55:11Z</time></trkpt>
<trkpt lat="53.1192210000" lon="-4.1222620000"><ele>107</ele><time>2016-10-15T08:55:12Z</time></trkpt>
<trkpt lat="53.1192210000" lon="-4.1222640000"><ele>107</ele><time>2016-10-15T08:55:13Z</time></trkpt>
<trkpt lat="53.1192200000" lon="-4.1222660000"><ele>107</ele><time>2016-10-15T08:55:14Z</time></trkpt>
<trkpt lat="53.1192180000" lon="-4.1222680000"><ele>107</ele><time>2016-10-15T08:55:15Z</time></trkpt>
<trkpt lat="53.1192160000" lon="-4.1222690000"><ele>107</ele><time>2016-10-15T08:55:16Z</time></trkpt>
<trkpt lat="53.1191600000" lon="-4.1223050000"><ele>107</ele><time>2016-10-15T08:55:17Z</time></trkpt>
<trkpt lat="53.1191480000" lon="-4.1223060000"><ele>107</ele><time>2016-10-15T08:55:18Z</time></trkpt>
<trkpt lat="53.1191380000" lon="-4.1223040000"><ele>108</ele><time>2016-10-15T08:55:19Z</time></trkpt>
<trkpt lat="53.1191380000" lon="-4.1223040000"><ele>108</ele><time>2016-10-15T08:55:22Z</time></trkpt>
<trkpt lat="53.1191380000" lon="-4.1223040000"><ele>108</ele><time>2016-10-15T08:55:23Z</time></trkpt>
<trkpt lat="53.1191380000" lon="-4.1223030000"><ele>108</ele><time>2016-10-15T08:55:24Z</time></trkpt>
<trkpt lat="53.1191380000" lon="-4.1223030000"><ele>108</ele><time>2016-10-15T08:55:25Z</time></trkpt>
<trkpt lat="53.1191380000" lon="-4.1223020000"><ele>108</ele><time>2016-10-15T08:55:26Z</time></trkpt>
<trkpt lat="53.1191060000" lon="-4.1222570000"><ele>108</ele><time>2016-10-15T08:55:27Z</time></trkpt>
<trkpt lat="53.1190890000" lon="-4.1222430000"><ele>108</ele><time>2016-10-15T08:55:28Z</time></trkpt>
<trkpt lat="53.1190710000" lon="-4.1222320000"><ele>108</ele><time>2016-10-15T08:55:29Z</time></trkpt>
<trkpt lat="53.1190530000" lon="-4.1222280000"><ele>108</ele><time>2016-10-15T08:55:31Z</time></trkpt>
<trkpt lat="53.1190360000" lon="-4.1222210000"><ele>109</ele></trkpt>
<trkpt lat="53.1190180000" lon="-4.1222090000"><ele>109</ele><time>2016-10-15T08:55:32Z</time></trkpt>
<trkpt lat="53.1190020000" lon="-4.1222000000"><ele>109</ele><time>2016-10-15T08:55:33Z</time></trkpt>
<trkpt lat="53.1189860000" lon="-4.1221940000"><ele>109</ele><time>2016-10-15T08:55:34Z</time></trkpt>
<trkpt lat="53.1189700000" lon="-4.1221880000"><ele>109</ele><time>2016-10-15T08:55:35Z</time></trkpt>
<trkpt lat="53.1189540000" lon="-4.1221810000"><ele>109</ele><time>2016-10-15T08:55:36Z</time></trkpt>
<trkpt lat="53.1189390000" lon="-4.1221720000"><ele>109</ele><time>2016-10-15T08:55:37Z</time></trkpt>
<trkpt lat="53.1189270000" lon="-4.1221670000"><ele>109</ele><time>2016-10-15T08:55:38Z</time></trkpt>
<trkpt lat="53.1189180000" lon="-4.1221630000"><ele>109</ele><time>2016-10-15T08:55:39Z</time></trkpt>
<trkpt lat="53.1189060000" lon="-4.1221620000"><ele>109</ele><time>2016-10-15T08:55:40Z</time></trkpt>
<trkpt lat="53.1188910000" lon="-4.1221680000"><ele>109</ele><time>2016-10-15T08:55:41Z</time></trkpt>
<trkpt lat="53.1188740000" lon="-4.1221700000"><ele>108</ele><time>2016-10-15T08:55:42Z</time></trkpt>
<trkpt lat="53.1188580000" lon="-4.1221710000"><ele>108</ele><time>2016-10-15T08:55:43Z</time></trkpt>
<trkpt lat="53.1188390000" lon="-4.1221680000"><ele>108</ele><time>2016-10-15T08:55:44Z</time></trkpt>
<trkpt lat="53.1188200000" lon="-4.1221630000"><ele>108</ele><time>2016-10-15T08:55:45Z</time></trkpt>
<trkpt lat="53.1188020000" lon="-4.1221570000"><ele>108</ele><time>2016-10-15T08:55:46Z</time></trkpt>
<trkpt lat="53.1187830000" lon="-4.1221560000"><ele>108</ele><time>2016-10-15T08:55:47Z</time></trkpt>
<trkpt lat="53.1187650000" lon="-4.1221500000"><ele>108</ele><time>2016-10-15T08:55:48Z</time></trkpt>
<trkpt lat="53.1187480000" lon="-4.1221350000"><ele>108</ele><time>2016-10-15T08:55:49Z</time></trkpt>
<trkpt lat="53.1187310000" lon="-4.1221190000"><ele>108</ele><time>2016-10-15T08:55:50Z</time></trkpt>
<trkpt lat="53.1187150000" lon="-4.1221070000"><ele>108</ele><time>2016-10-15T08:55:51Z</time></trkpt>
<trkpt lat="53.1186990000" lon="-4.1220910000"><ele>108</ele><time>2016-10-15T08:55:52Z</time></trkpt>
<trkpt lat="53.1186830000" lon="-4.1220740000"><ele>108</ele><time>2016-10-15T08:55:53Z</time></trkpt>
<trkpt lat="53.1186670000" lon="-4.1220580000"><ele>108</ele><time>2016-10-15T08:55:54Z</time></trkpt>
<trkpt lat="53.1186500000" lon="-4.1220400000"><ele>108</ele><time>2016-10-15T08:55:55Z</time></trkpt>
<trkpt lat="53.1186340000" lon="-4.1220200000"><ele>108</ele><time>2016-10-15T08:55:56Z</time></trkpt>
<trkpt lat="53.1186190000" lon="-4.1220010000"><ele>108</ele><time>2016-10-15T08:55:57Z</time></trkpt>
<trkpt lat="53.1186040000" lon="-4.1219840000"><ele>108</ele><time>2016-10-15T08:55:58Z</time></trkpt>
<trkpt lat="53.1185880000" lon="-4.1219730000"><ele>108</ele><time>2016-10-15T08:55:59Z</time></trkpt>
<trkpt lat="53.1185710000" lon="-4.1219650000"><ele>109</ele><time>2016-10-15T08:56:00Z</time></trkpt>
<trkpt lat="53.1185550000" lon="-4.1219600000"><ele>109</ele><time>2016-10-15T08:56:01Z</time></trkpt>
<trkpt lat="53.1185380000" lon="-4.1219630000"><ele>109</ele><time>2016-10-15T08:56:02Z</time></trkpt>
<trkpt lat="53.1185200000" lon="-4.1219680000"><ele>109</ele><time>2016-10-15T08:56:03Z</time></trkpt>
<trkpt lat="53.1185010000" lon="-4.1219710000"><ele>109</ele><time>2016-10-15T08:56:04Z</time></trkpt>
<trkpt lat="53.1184800000" lon="-4.1219760000"><ele>109</ele><time>2016-10-15T08:56:05Z</time></trkpt>
<trkpt lat="53.1184600000" lon="-4.1219790000"><ele>110</ele><time>2016-10-15T08:56:06Z</time></trkpt>
<trkpt lat="53.1184400000" lon="-4.1219820000"><ele>110</ele><time>2016-10-15T08:56:07Z</time></trkpt>
<trkpt lat="53.1184190000" lon="-4.1219850000"><ele>110</ele><time>2016-10-15T08:56:08Z</time></trkpt>
<trkpt lat="53.1184000000" lon="-4.1219790000"><ele>110</ele><time>2016-10-15T08:56:09Z</time></trkpt>
<trkpt lat="53.1183840000" lon="-4.1219680000"><ele>110</ele><time>2016-10-15T08:56:10Z</time></trkpt>
<trkpt lat="53.1183700000" lon="-4.1219580000"><ele>110</ele><time>2016-10-15T08:56:11Z</time></trkpt>
<trkpt lat="53.1183570000" lon="-4.1219490000"><ele>110</ele><time>2016-10-15T08:56:12Z</time></trkpt>
<trkpt lat="53.1183430000" lon="-4.1219390000"><ele>110</ele><time>2016-10-15T08:56:13Z</time></trkpt>
<trkpt lat="53.1183300000" lon="-4.1219280000"><ele>110</ele><time>2016-10-15T08:56:14Z</time></trkpt>
<trkpt lat="53.1183160000" lon="-4.1219150000"><ele>110</ele><time>2016-10-15T08:56:15Z</time></trkpt>
<trkpt lat="53.1183020000" lon="-4.1219000000"><ele>110</ele><time>2016-10-15T08:56:16Z</time></trkpt>
<trkpt lat="53.1182890000" lon="-4.1218870000"><ele>110</ele><time>2016-10-15T08:56:17Z</time></trkpt>
<trkpt lat="53.1182770000" lon="-4.1218760000"><ele>110</ele><time>2016-10-15T08:56:18Z</time></trkpt>
<trkpt lat="53.1182650000" lon="-4.1218620000"><ele>110</ele><time>2016-10-15T08:56:19Z</time></trkpt>
<trkpt lat="53.1182510000" lon="-4.1218460000"><ele>110</ele><time>2016-10-15T08:56:20Z</time></trkpt>
<trkpt lat="53.1182350000" lon="-4.1218240000"><ele>110</ele><time>2016-10-15T08:56:21Z</time></trkpt>
<trkpt lat="53.1182190000" lon="-4.1217980000"><ele>110</ele><time>2016-10-15T08:56:22Z</time></trkpt>
<trkpt lat="53.1182050000" lon="-4.1217800000"><ele>110</ele><time>2016-10-15T08:56:23Z</time></trkpt>
<trkpt lat="53.1181900000" lon="-4.1217630000"><ele>110</ele><time>2016-10-15T08:56:24Z</time></trkpt>
<trkpt lat="53.1181750000" lon="-4.1217480000"><ele>110</ele><time>2016-10-15T08:56:25Z</time></trkpt>
<trkpt lat="53.1181610000" lon="-4.1217320000"><ele>110</ele><time>2016-10-15T08:56:26Z</time></trkpt>
<trkpt lat="53.1181460000" lon="-4.1217150000"><ele>110</ele><time>2016-10-15T08:56:27Z</time></trkpt>
<trkpt lat="53.1181310000" lon="-4.1216950000"><ele>110</ele><time>2016-10-15T08:56:28Z</time></trkpt>
<trkpt lat="53.1181170000" lon="-4.1216780000"><ele>110</ele><time>2016-10-15T08:56:29Z</time></trkpt>
<trkpt lat="53.1181030000" lon="-4.1216610000"><ele>110</ele><time>2016-10-15T08:56:31Z</time></trkpt>
<trkpt lat="53.1180880000" lon="-4.1216430000"><ele>110</ele></trkpt>
<trkpt lat="53.1180740000" lon="-4.1216240000"><ele>110</ele><time>2016-10-15T08:56:32Z</time></trkpt>
<trkpt lat="53.1180610000" lon="-4.1216100000"><ele>110</ele><time>2016-10-15T08:56:33Z</time></trkpt>
<trkpt lat="53.1180490000" lon="-4.1216000000"><ele>110</ele><time>2016-10-15T08:56:34Z</time></trkpt>
<trkpt lat="53.1180370000" lon="-4.1215930000"><ele>110</ele><time>2016-10-15T08:56:35Z</time></trkpt>
<trkpt lat="53.1180220000" lon="-4.1215820000"><ele>110</ele><time>2016-10-15T08:56:36Z</time></trkpt>
<trkpt lat="53.1180050000" lon="-4.1215750000"><ele>110</ele><time>2016-10-15T08:56:37Z</time></trkpt>
<trkpt lat="53.1179860000" lon="-4.1215700000"><ele>110</ele><time>2016-10-15T08:56:38Z</time></trkpt>
<trkpt lat="53.1179670000" lon="-4.1215650000"><ele>110</ele><time>2016-10-15T08:56:39Z</time></trkpt>
<trkpt lat="53.1179510000" lon="-4.1215620000"><ele>110</ele><time>2016-10-15T08:56:40Z</time></trkpt>
<trkpt lat="53.1179330000" lon="-4.1215620000"><ele>110</ele><time>2016-10-15T08:56:41Z</time></trkpt>
<trkpt lat="53.1179140000" lon="-4.1215600000"><ele>110</ele><time>2016-10-15T08:56:42Z</time></trkpt>
<trkpt lat="53.1178970000" lon="-4.1215590000"><ele>110</ele><time>2016-10-15T08:56:43Z</time></trkpt>
<trkpt lat="53.1178830000" lon="-4.1215680000"><ele>111</ele><time>2016-10-15T08:56:44Z</time></trkpt>
<trkpt lat="53.1178710000" lon="-4.1215860000"><ele>111</ele><time>2016-10-15T08:56:45Z</time></trkpt>
<trkpt lat="53.1178610000" lon="-4.1216110000"><ele>111</ele><time>2016-10-15T08:56:46Z</time></trkpt>
<trkpt lat="53.1178520000" lon="-4.1216450000"><ele>111</ele><time>2016-10-15T08:56:47Z</time></trkpt>
<trkpt lat="53.1178420000" lon="-4.1216800000"><ele>111</ele><time>2016-10-15T08:56:48Z</time></trkpt>
<trkpt lat="53.1178320000" lon="-4.1217140000"><ele>111</ele><time>2016-10-15T08:56:49Z</time></trkpt>
<trkpt lat="53.1178280000" lon="-4.1217410000"><ele>111</ele><time>2016-10-15T08:56:50Z</time></trkpt>
<trkpt lat="53.1178250000" lon="-4.1217690000"><ele>111</ele><time>2016-10-15T08:56:51Z</time></trkpt>
<trkpt lat="53.1178220000" lon="-4.1217990000"><ele>111</ele><time>2016-10-15T08:56:52Z</time></trkpt>
<trkpt lat="53.1178220000" lon="-4.1218270000"><ele>111</ele><time>2016-10-15T08:56:53Z</time></trkpt>
<trkpt lat="53.1178210000" lon="-4.1218590000"><ele>112</ele><time>2016-10-15T08:56:54Z</time></trkpt>
<trkpt lat="53.1178220000" lon="-4.1218870000"><ele>112</ele><time>2016-10-15T08:56:55Z</time></trkpt>
<trkpt lat="53.1178240000" lon="-4.1219140000"><ele>112</ele><time>2016-10-15T08:56:56Z</time></trkpt>
<trkpt lat="53.1178270000" lon="-4.1219400000"><ele>112</ele><time>2016-10-15T08:56:57Z</time></trkpt>
<trkpt lat="53.1178350000" lon="-4.1219630000"><ele>112</ele><time>2016-10-15T08:56:58Z</time></trkpt>
<trkpt lat="53.1178400000" lon="-4.1219840000"><ele>111</ele><time>2016-10-15T08:56:59Z</time></trkpt>
<trkpt lat="53.1178440000" lon="-4.1220060000"><ele>111</ele><time>2016-10-15T08:57:00Z</time></trkpt>
<trkpt lat="53.1178500000" lon="-4.1220250000"><ele>111</ele><time>2016-10-15T08:57:01Z</time></trkpt>
<trkpt lat="53.1178580000" lon="-4.1220440000"><ele>111</ele><time>2016-10-15T08:57:02Z</time></trkpt>
<trkpt lat="53.1178660000" lon="-4.1220650000"><ele>111</ele><time>2016-10-15T08:57:03Z</time></trkpt>
<trkpt lat="53.1178770000" lon="-4.1220840000"><ele>111</ele><time>2016-10-15T08:57:04Z</time></trkpt>
<trkpt lat="53.1178870000" lon="-4.1221070000"><ele>110</ele><time>2016-10-15T08:57:05Z</time></trkpt>
<trkpt lat="53.1179000000" lon="-4.1221320000"><ele>110</ele><time>2016-10-15T08:57:06Z</time></trkpt>
<trkpt lat="53.1179130000" lon="-4.1221570000"><ele>110</ele><time>2016-10-15T08:57:07Z</time></trkpt>
<trkpt lat="53.1179240000" lon="-4.1221820000"><ele>110</ele><time>2016-10-15T08:57:08Z</time></trkpt>
<trkpt lat="53.1179280000" lon="-4.1222100000"><ele>110</ele><time>2016-10-15T08:57:09Z</time></trkpt>
<trkpt lat="53.1179360000" lon="-4.1222360000"><ele>110</ele><time>2016-10-15T08:57:10Z</time></trkpt>
<trkpt lat="53.1179440000" lon="-4.1222570000"><ele>110</ele><time>2016-10-15T08:57:11Z</time></trkpt>
<trkpt lat="53.1179540000" lon="-4.1222800000"><ele>110</ele><time>2016-10-15T08:57:12Z</time></trkpt>
<trkpt lat="53.1179630000" lon="-4.1223070000"><ele>110</ele><time>2016-10-15T08:57:13Z</time></trkpt>
<trkpt lat="53.1179720000" lon="-4.1223350000"><ele>110</ele><time>2016-10-15T08:57:14Z</time></trkpt>
<trkpt lat="53.1179790000" lon="-4.1223620000"><ele>110</ele><time>2016-10-15T08:57:15Z</time></trkpt>
<trkpt lat="53.1179860000" lon="-4.1223880000"><ele>110</ele><time>2016-10-15T08:57:16Z</time></trkpt>
<trkpt lat="53.1179950000" lon="-4.1224130000"><ele>110</ele><time>2016-10-15T08:57:17Z</time></trkpt>
<trkpt lat="53.1180040000" lon="-4.1224370000"><ele>110</ele><time>2016-10-15T08:57:18Z</time></trkpt>
<trkpt lat="53.1180130000" lon="-4.1224600000"><ele>110</ele><time>2016-10-15T08:57:19Z</time></trkpt>
<trkpt lat="53.1180210000" lon="-4.1224840000"><ele>110</ele><time>2016-10-15T08:57:20Z</time></trkpt>
<trkpt lat="53.1180300000" lon="-4.1225100000"><ele>109</ele><time>2016-10-15T08:57:21Z</time></trkpt>
<trkpt lat="53.1180390000" lon="-4.1225350000"><ele>109</ele><time>2016-10-15T08:57:22Z</time></trkpt>
<trkpt lat="53.1180500000" lon="-4.1225620000"><ele>109</ele><time>2016-10-15T08:57:23Z</time></trkpt>
<trkpt lat="53.1180570000" lon="-4.1225920000"><ele>109</ele><time>2016-10-15T08:57:24Z</time></trkpt>
<trkpt lat="53.1180610000" lon="-4.1226210000"><ele>109</ele><time>2016-10-15T08:57:25Z</time></trkpt>
<trkpt lat="53.1180680000" lon="-4.1226480000"><ele>109</ele><time>2016-10-15T08:57:26Z</time></trkpt>
<trkpt lat="53.1180730000" lon="-4.1226760000"><ele>109</ele><time>2016-10-15T08:57:27Z</time></trkpt>
<trkpt lat="53.1180800000" lon="-4.1227020000"><ele>109</ele><time>2016-10-15T08:57:28Z</time></trkpt>
<trkpt lat="53.1180860000" lon="-4.1227310000"><ele>109</ele><time>2016-10-15T08:57:29Z</time></trkpt>
<trkpt lat="53.1180930000" lon="-4.1227550000"><ele>109</ele><time>2016-10-15T08:57:31Z</time></trkpt>
<trkpt lat="53.1180990000" lon="-4.1227840000"><ele>109</ele></trkpt>
<trkpt lat="53.1181070000" lon="-4.1228110000"><ele>109</ele><time>2016-10-15T08:57:32Z</time></trkpt>
<trkpt lat="53.1181150000" lon="-4.1228390000"><ele>109</ele><time>2016-10-15T08:57:33Z</time></trkpt>
<trkpt lat="53.1181210000" lon="-4.1228650000"><ele>109</ele><time>2016-10-15T08:57:34Z</time></trkpt>
<trkpt lat="53.1181280000" lon="-4.1228890000"><ele>109</ele><time>2016-10-15T08:57:35Z</time></trkpt>
<trkpt lat="53.1181380000" lon="-4.1229100000"><ele>109</ele><time>2016-10-15T08:57:36Z</time></trkpt>
<trkpt lat="53.1181440000" lon="-4.1229350000"><ele>109</ele><time>2016-10-15T08:57:37Z</time></trkpt>
<trkpt lat="53.1181510000" lon="-4.1229580000"><ele>109</ele><time>2016-10-15T08:57:38Z</time></trkpt>
<trkpt lat="53.1181610000" lon="-4.1229770000"><ele>109</ele><time>2016-10-15T08:57:39Z</time></trkpt>
<trkpt lat="53.1181720000" lon="-4.1229930000"><ele>109</ele><time>2016-10-15T08:57:40Z</time></trkpt>
<trkpt lat="53.1181770000" lon="-4.1230120000"><ele>109</ele><time>2016-10-15T08:57:41Z</time></trkpt>
<trkpt lat="53.1181780000" lon="-4.1230360000"><ele>109</ele><time>2016-10-15T08:57:42Z</time></trkpt>
<trkpt lat="53.1181800000" lon="-4.1230630000"><ele>109</ele><time>2016-10-15T08:57:43Z</time></trkpt>
<trkpt lat="53.1181850000" lon="-4.1230870000"><ele>109</ele><time>2016-10-15T08:57:44Z</time></trkpt>
<trkpt lat="53.1181900000" lon="-4.1231070000"><ele>109</ele><time>2016-10-15T08:57:45Z</time></trkpt>
<trkpt lat="53.1181950000" lon="-4.1231350000"><ele>109</ele><time>2016-10-15T08:57:46Z</time></trkpt>
<trkpt lat="53.1182020000" lon="-4.1232130000"><ele>108</ele><time>2016-10-15T08:57:49Z</time></trkpt>
<trkpt lat="53.1182030000" lon="-4.1232690000"><ele>108</ele><time>2016-10-15T08:57:51Z</time></trkpt>
<trkpt lat="53.1182270000" lon="-4.1233160000"><ele>108</ele><time>2016-10-15T08:57:53Z</time></trkpt>
<trkpt lat="53.1182530000" lon="-4.1233510000"><ele>108</ele><time>2016-10-15T08:57:55Z</time></trkpt>
<trkpt lat="53.1182680000" lon="-4.1234000000"><ele>108</ele><time>2016-10-15T08:57:57Z</time></trkpt>
<trkpt lat="53.1182860000" lon="-4.1234390000"><ele>108</ele><time>2016-10-15T08:57:59Z</time></trkpt>
<trkpt lat="53.1183220000" lon="-4.1235040000"><ele>108</ele><time>2016-10-15T08:58:02Z</time></trkpt>
<trkpt lat="53.1183340000" lon="-4.1235570000"><ele>108</ele><time>2016-10-15T08:58:04Z</time></trkpt>
<trkpt lat="53.1183470000" lon="-4.1236090000"><ele>108</ele><time>2016-10-15T08:58:06Z</time></trkpt>
<trkpt lat="53.1183680000" lon="-4.1236390000"><ele>108</ele><time>2016-10-15T08:58:09Z</time></trkpt>
<trkpt lat="53.1183690000" lon="-4.1237250000"><ele>108</ele><time>2016-10-15T08:58:11Z</time></trkpt>
<trkpt lat="53.1183760000" lon="-4.1237640000"><ele>108</ele><time>2016-10-15T08:58:15Z</time></trkpt>
<trkpt lat="53.1184010000" lon="-4.1238450000"><ele>108</ele><time>2016-10-15T08:58:17Z</time></trkpt>
<trkpt lat="53.1184120000" lon="-4.1238850000"><ele>108</ele><time>2016-10-15T08:58:19Z</time></trkpt>
<trkpt lat="53.1184270000" lon="-4.1239180000"><ele>108</ele><time>2016-10-15T08:58:29Z</time></trkpt>
<trkpt lat="53.1184360000" lon="-4.1239610000"><ele>108</ele><time>2016-10-15T08:58:34Z</time></trkpt>
<trkpt lat="53.1184940000" lon="-4.1242730000"><ele>108</ele><time>2016-10-15T08:58:36Z</time></trkpt>
<trkpt lat="53.1184990000" lon="-4.1243190000"><ele>108</ele><time>2016-10-15T08:58:38Z</time></trkpt>
<trkpt lat="53.1185070000" lon="-4.1243350000"><ele>109</ele><time>2016-10-15T08:58:39Z</time></trkpt>
<trkpt lat="53.1185100000" lon="-4.1243560000"><ele>109</ele><time>2016-10-15T08:58:40Z</time></trkpt>
<trkpt lat="53.1185160000" lon="-4.1243730000"><ele>109</ele><time>2016-10-15T08:58:41Z</time></trkpt>
<trkpt lat="53.1185170000" lon="-4.1243970000"><ele>109</ele><time>2016-10-15T08:58:42Z</time></trkpt>
<trkpt lat="53.1185230000" lon="-4.1244180000"><ele>109</ele><time>2016-10-15T08:58:43Z</time></trkpt>
<trkpt lat="53.1185270000" lon="-4.1244420000"><ele>109</ele><time>2016-10-15T08:58:44Z</time></trkpt>
<trkpt lat="53.1185330000" lon="-4.1244650000"><ele>109</ele><time>2016-10-15T08:58:45Z</time></trkpt>
<trkpt lat="53.1185340000" lon="-4.1244920000"><ele>109</ele><time>2016-10-15T08:58:46Z</time></trkpt>
<trkpt lat="53.1185360000" lon="-4.1245170000"><ele>109</ele><time>2016-10-15T08:58:47Z</time></trkpt>
<trkpt lat="53.1185400000" lon="-4.1245440000"><ele>109</ele><time>2016-10-15T08:58:53Z</time></trkpt>
<trkpt lat="53.1185410000" lon="-4.1245460000"><ele>109</ele><time>2016-10-15T08:58:54Z</time></trkpt>
<trkpt lat="53.1185790000" lon="-4.1246970000"><ele>109</ele><time>2016-10-15T08:58:55Z</time></trkpt>
<trkpt lat="53.1185840000" lon="-4.1247220000"><ele>109</ele><time>2016-10-15T08:58:56Z</time></trkpt>
<trkpt lat="53.1185880000" lon="-4.1247480000"><ele>109</ele><time>2016-10-15T08:58:57Z</time></trkpt>
<trkpt lat="53.1185920000" lon="-4.1247750000"><ele>109</ele><time>2016-10-15T08:58:58Z</time></trkpt>
<trkpt lat="53.1186000000" lon="-4.1248020000"><ele>109</ele><time>2016-10-15T08:58:59Z</time></trkpt>
<trkpt lat="53.1186080000" lon="-4.1248260000"><ele>109</ele><time>2016-10-15T08:59:00Z</time></trkpt>
<trkpt lat="53.1186140000" lon="-4.1248500000"><ele>109</ele><time>2016-10-15T08:59:01Z</time></trkpt>
<trkpt lat="53.1186200000" lon="-4.1248740000"><ele>109</ele><time>2016-10-15T08:59:02Z</time></trkpt>
<trkpt lat="53.1186280000" lon="-4.1248960000"><ele>109</ele><time>2016-10-15T08:59:03Z</time></trkpt>
<trkpt lat="53.1186330000" lon="-4.1249180000"><ele>109</ele><time>2016-10-15T08:59:04Z</time></trkpt>
<trkpt lat="53.1186370000" lon="-4.1249420000"><ele>109</ele><time>2016-10-15T08:59:05Z</time></trkpt>
<trkpt lat="53.1186430000" lon="-4.1249640000"><ele>109</ele><time>2016-10-15T08:59:06Z</time></trkpt>
<trkpt lat="53.1186480000" lon="-4.1249870000"><ele>109</ele><time>2016-10-15T08:59:07Z</time></trkpt>
<trkpt lat="53.1186530000" lon="-4.1250110000"><ele>109</ele><time>2016-10-15T08:59:08Z</time></trkpt>
<trkpt lat="53.1186590000" lon="-4.1250310000"><ele>109</ele><time>2016-10-15T08:59:09Z</time></trkpt>
<trkpt lat="53.1186600000" lon="-4.1250540000"><ele>109</ele><time>2016-10-15T08:59:10Z</time></trkpt>
<trkpt lat="53.1186640000" lon="-4.1250710000"><ele>109</ele><time>2016-10-15T08:59:11Z</time></trkpt>
<trkpt lat="53.1186730000" lon="-4.1250820000"><ele>109</ele><time>2016-10-15T08:59:12Z</time></trkpt>
<trkpt lat="53.1186820000" lon="-4.1250970000"><ele>109</ele><time>2016-10-15T08:59:13Z</time></trkpt>
<trkpt lat="53.1186910000" lon="-4.1251130000"><ele>109</ele><time>2016-10-15T08:59:14Z</time></trkpt>
<trkpt lat="53.1186980000" lon="-4.1251320000"><ele>109</ele><time>2016-10-15T08:59:15Z</time></trkpt>
<trkpt lat="53.1187040000" lon="-4.1251530000"><ele>109</ele><time>2016-10-15T08:59:16Z</time></trkpt>
<trkpt lat="53.1187100000" lon="-4.1251740000"><ele>109</ele><time>2016-10-15T08:59:17Z</time></trkpt>
<trkpt lat="53.1187180000" lon="-4.1251940000"><ele>109</ele><time>2016-10-15T08:59:18Z</time></trkpt>
<trkpt lat="53.1187250000" lon="-4.1252140000"><ele>109</ele><time>2016-10-15T08:59:19Z</time></trkpt>
<trkpt lat="53.1187320000" lon="-4.1252340000"><ele>109</ele><time>2016-10-15T08:59:20Z</time></trkpt>
<trkpt lat="53.1187360000" lon="-4.1252530000"><ele>109</ele><time>2016-10-15T08:59:21Z</time></trkpt>
<trkpt lat="53.1187460000" lon="-4.1252870000"><ele>109</ele><time>2016-10-15T08:59:30Z</time></trkpt>
<trkpt lat="53.1188070000" lon="-4.1254750000"><ele>109</ele><time>2016-10-15T08:59:32Z</time></trkpt>
<trkpt lat="53.1188250000" lon="-4.1255140000"><ele>109</ele><time>2016-10-15T08:59:34Z</time></trkpt>
<trkpt lat="53.1188290000" lon="-4.1255350000"><ele>110</ele><time>2016-10-15T08:59:35Z</time></trkpt>
<trkpt lat="53.1188340000" lon="-4.1255590000"><ele>110</ele><time>2016-10-15T08:59:36Z</time></trkpt>
<trkpt lat="53.1188390000" lon="-4.1255850000"><ele>110</ele><time>2016-10-15T08:59:37Z</time></trkpt>
<trkpt lat="53.1188470000" lon="-4.1256060000"><ele>110</ele><time>2016-10-15T08:59:38Z</time></trkpt>
<trkpt lat="53.1188530000" lon="-4.1256270000"><ele>110</ele><time>2016-10-15T08:59:39Z</time></trkpt>
<trkpt lat="53.1188580000" lon="-4.1256460000"><ele>110</ele><time>2016-10-15T08:59:40Z</time></trkpt>
<trkpt lat="53.1188630000" lon="-4.1256650000"><ele>110</ele><time>2016-10-15T08:59:41Z</time></trkpt>
<trkpt lat="53.1188710000" lon="-4.1256820000"><ele>110</ele><time>2016-10-15T08:59:42Z</time></trkpt>
<trkpt lat="53.1188770000" lon="-4.1257010000"><ele>110</ele><time>2016-10-15T08:59:43Z</time></trkpt>
<trkpt lat="53.1188820000" lon="-4.1257200000"><ele>110</ele><time>2016-10-15T08:59:44Z</time></trkpt>
<trkpt lat="53.1188890000" lon="-4.1257350000"><ele>110</ele><time>2016-10-15T08:59:45Z</time></trkpt>
<trkpt lat="53.1188980000" lon="-4.1257510000"><ele>110</ele><time>2016-10-15T08:59:46Z</time></trkpt>
<trkpt lat="53.1189030000" lon="-4.1257670000"><ele>110</ele><time>2016-10-15T08:59:47Z</time></trkpt>
<trkpt lat="53.1189100000" lon="-4.1257800000"><ele>110</ele><time>2016-10-15T08:59:48Z</time></trkpt>
<trkpt lat="53.1189150000" lon="-4.1257930000"><ele>110</ele><time>2016-10-15T08:59:49Z</time></trkpt>
<trkpt lat="53.1189230000" lon="-4.1258090000"><ele>110</ele><time>2016-10-15T08:59:50Z</time></trkpt>
<trkpt lat="53.1189230000" lon="-4.1258090000"><ele>110</ele><time>2016-10-15T08:59:51Z</time></trkpt>
<trkpt lat="53.1189230000" lon="-4.1258100000"><ele>110</ele><time>2016-10-15T08:59:52Z</time></trkpt>
<trkpt lat="53.1189240000" lon="-4.1258100000"><ele>110</ele><time>2016-10-15T08:59:53Z</time></trkpt>
<trkpt lat="53.1189250000" lon="-4.1258110000"><ele>110</ele><time>2016-10-15T08:59:54Z</time></trkpt>
<trkpt lat="53.1189260000" lon="-4.1258120000"><ele>110</ele><time>2016-10-15T08:59:55Z</time></trkpt>
<trkpt lat="53.1189270000" lon="-4.1258140000"><ele>110</ele><time>2016-10-15T08:59:56Z</time></trkpt>
<trkpt lat="53.1189290000" lon="-4.1258160000"><ele>110</ele><time>2016-10-15T08:59:57Z</time></trkpt>
<trkpt lat="53.1189310000" lon="-4.1258190000"><ele>110</ele><time>2016-10-15T08:59:58Z</time></trkpt>
<trkpt lat="53.1189330000" lon="-4.1258220000"><ele>110</ele><time>2016-10-15T08:59:59Z</time></trkpt>
<trkpt lat="53.1189360000" lon="-4.1258260000"><ele>110</ele><time>2016-10-15T09:00:00Z</time></trkpt>
<trkpt lat="53.1189390000" lon="-4.1258310000"><ele>110</ele><time>2016-10-15T09:00:01Z</time></trkpt>
<trkpt lat="53.1189550000" lon="-4.1258540000"><ele>110</ele><time>2016-10-15T09:00:05Z</time></trkpt>
<trkpt lat="53.1190840000" lon="-4.1260440000"><ele>110</ele><time>2016-10-15T09:00:07Z</time></trkpt>
<trkpt lat="53.1191010000" lon="-4.1260750000"><ele>110</ele><time>2016-10-15T09:00:09Z</time></trkpt>
<trkpt lat="53.1190970000" lon="-4.1261120000"><ele>111</ele><time>2016-10-15T09:00:15Z</time></trkpt>
<trkpt lat="53.1190390000" lon="-4.1262270000"><ele>112</ele><time>2016-10-15T09:00:19Z</time></trkpt>
<trkpt lat="53.1190180000" lon="-4.1262630000"><ele>112</ele><time>2016-10-15T09:00:21Z</time></trkpt>
<trkpt lat="53.1190080000" lon="-4.1262840000"><ele>112</ele><time>2016-10-15T09:00:22Z</time></trkpt>
<trkpt lat="53.1189990000" lon="-4.1263030000"><ele>112</ele><time>2016-10-15T09:00:23Z</time></trkpt>
<trkpt lat="53.1189910000" lon="-4.1263200000"><ele>112</ele><time>2016-10-15T09:00:24Z</time></trkpt>
<trkpt lat="53.1189820000" lon="-4.1263400000"><ele>112</ele><time>2016-10-15T09:00:26Z</time></trkpt>
<trkpt lat="53.1189710000" lon="-4.1263610000"><ele>112</ele></trkpt>
<trkpt lat="53.1189580000" lon="-4.1263830000"><ele>112</ele><time>2016-10-15T09:00:27Z</time></trkpt>
<trkpt lat="53.1189460000" lon="-4.1264010000"><ele>112</ele><time>2016-10-15T09:00:28Z</time></trkpt>
<trkpt lat="53.1189360000" lon="-4.1264180000"><ele>112</ele><time>2016-10-15T09:00:29Z</time></trkpt>
<trkpt lat="53.1189270000" lon="-4.1264340000"><ele>112</ele><time>2016-10-15T09:00:30Z</time></trkpt>
<trkpt lat="53.1189190000" lon="-4.1264480000"><ele>112</ele><time>2016-10-15T09:00:31Z</time></trkpt>
<trkpt lat="53.1189100000" lon="-4.1264640000"><ele>112</ele><time>2016-10-15T09:00:32Z</time></trkpt>
<trkpt lat="53.1189060000" lon="-4.1264760000"><ele>112</ele><time>2016-10-15T09:00:33Z</time></trkpt>
<trkpt lat="53.1189000000" lon="-4.1264930000"><ele>112</ele><time>2016-10-15T09:00:34Z</time></trkpt>
<trkpt lat="53.1188930000" lon="-4.1265110000"><ele>113</ele><time>2016-10-15T09:00:35Z</time></trkpt>
<trkpt lat="53.1188850000" lon="-4.1265310000"><ele>113</ele><time>2016-10-15T09:00:36Z</time></trkpt>
<trkpt lat="53.1188780000" lon="-4.1265530000"><ele>113</ele><time>2016-10-15T09:00:37Z</time></trkpt>
<trkpt lat="53.1188720000" lon="-4.1265760000"><ele>113</ele><time>2016-10-15T09:00:38Z</time></trkpt>
<trkpt lat="53.1188680000" lon="-4.1265960000"><ele>113</ele><time>2016-10-15T09:00:39Z</time></trkpt>
<trkpt lat="53.1188600000" lon="-4.1266200000"><ele>113</ele><time>2016-10-15T09:00:40Z</time></trkpt>
<trkpt lat="53.1188540000" lon="-4.1266430000"><ele>114</ele><time>2016-10-15T09:00:41Z</time></trkpt>
<trkpt lat="53.1188480000" lon="-4.1266660000"><ele>114</ele><time>2016-10-15T09:00:42Z</time></trkpt>
<trkpt lat="53.1188420000" lon="-4.1266880000"><ele>114</ele><time>2016-10-15T09:00:43Z</time></trkpt>
<trkpt lat="53.1188380000" lon="-4.1267080000"><ele>114</ele><time>2016-10-15T09:00:44Z</time></trkpt>
<trkpt lat="53.1188340000" lon="-4.1267250000"><ele>115</ele><time>2016-10-15T09:00:45Z</time></trkpt>
<trkpt lat="53.1188300000" lon="-4.1267420000"><ele>115</ele><time>2016-10-15T09:00:46Z</time></trkpt>
<trkpt lat="53.1188260000" lon="-4.1267590000"><ele>115</ele><time>2016-10-15T09:00:47Z</time></trkpt>
<trkpt lat="53.1188250000" lon="-4.1267760000"><ele>116</ele><time>2016-10-15T09:00:48Z</time></trkpt>
<trkpt lat="53.1188190000" lon="-4.1267960000"><ele>116</ele><time>2016-10-15T09:00:49Z</time></trkpt>
<trkpt lat="53.1188110000" lon="-4.1268200000"><ele>116</ele><time>2016-10-15T09:00:50Z</time></trkpt>
<trkpt lat="53.1188020000" lon="-4.1268400000"><ele>117</ele><time>2016-10-15T09:00:51Z</time></trkpt>
<trkpt lat="53.1187970000" lon="-4.1268570000"><ele>117</ele><time>2016-10-15T09:00:52Z</time></trkpt>
<trkpt lat="53.1187900000" lon="-4.1268770000"><ele>117</ele><time>2016-10-15T09:00:53Z</time></trkpt>
<trkpt lat="53.1187820000" lon="-4.1268960000"><ele>118</ele><time>2016-10-15T09:00:54Z</time></trkpt>
<trkpt lat="53.1187740000" lon="-4.1269190000"><ele>118</ele><time>2016-10-15T09:00:55Z</time></trkpt>
<trkpt lat="53.1187700000" lon="-4.1269370000"><ele>118</ele><time>2016-10-15T09:00:56Z</time></trkpt>
<trkpt lat="53.1187650000" lon="-4.1269560000"><ele>118</ele><time>2016-10-15T09:00:57Z</time></trkpt>
<trkpt lat="53.1187600000" lon="-4.1269730000"><ele>118</ele><time>2016-10-15T09:00:58Z</time></trkpt>
<trkpt lat="53.1187540000" lon="-4.1269950000"><ele>118</ele><time>2016-10-15T09:00:59Z</time></trkpt>
<trkpt lat="53.1187480000" lon="-4.1270160000"><ele>119</ele><time>2016-10-15T09:01:00Z</time></trkpt>
<trkpt lat="53.1187470000" lon="-4.1270350000"><ele>119</ele><time>2016-10-15T09:01:01Z</time></trkpt>
<trkpt lat="53.1187450000" lon="-4.1270550000"><ele>119</ele><time>2016-10-15T09:01:02Z</time></trkpt>
<trkpt lat="53.1187430000" lon="-4.1270750000"><ele>119</ele><time>2016-10-15T09:01:03Z</time></trkpt>
<trkpt lat="53.1187410000" lon="-4.1270930000"><ele>119</ele><time>2016-10-15T09:01:04Z</time></trkpt>
<trkpt lat="53.1187410000" lon="-4.1270930000"><ele>119</ele><time>2016-10-15T09:01:05Z</time></trkpt>
<trkpt lat="53.1187410000" lon="-4.1270930000"><ele>119</ele><time>2016-10-15T09:01:06Z</time></trkpt>
<trkpt lat="53.1187410000" lon="-4.1270940000"><ele>119</ele><time>2016-10-15T09:01:07Z</time></trkpt>
<trkpt lat="53.1187400000" lon="-4.1271130000"><ele>119</ele><time>2016-10-15T09:01:13Z</time></trkpt>
<trkpt lat="53.1187400000" lon="-4.1271190000"><ele>120</ele><time>2016-10-15T09:01:14Z</time></trkpt>
<trkpt lat="53.1187400000" lon="-4.1271260000"><ele>120</ele><time>2016-10-15T09:01:15Z</time></trkpt>
<trkpt lat="53.1187400000" lon="-4.1271340000"><ele>120</ele><time>2016-10-15T09:01:16Z</time></trkpt>
<trkpt lat="53.1187400000" lon="-4.1271430000"><ele>120</ele><time>2016-10-15T09:01:17Z</time></trkpt>
<trkpt lat="53.1187390000" lon="-4.1271520000"><ele>120</ele><time>2016-10-15T09:01:18Z</time></trkpt>
<trkpt lat="53.1187390000" lon="-4.1271630000"><ele>120</ele><time>2016-10-15T09:01:19Z</time></trkpt>
<trkpt lat="53.1187380000" lon="-4.1271750000"><ele>120</ele><time>2016-10-15T09:01:20Z</time></trkpt>
<trkpt lat="53.1187370000" lon="-4.1271870000"><ele>120</ele><time>2016-10-15T09:01:21Z</time></trkpt>
<trkpt lat="53.1187360000" lon="-4.1272000000"><ele>120</ele><time>2016-10-15T09:01:22Z</time></trkpt>
<trkpt lat="53.1187360000" lon="-4.1272140000"><ele>121</ele><time>2016-10-15T09:01:23Z</time></trkpt>
<trkpt lat="53.1187350000" lon="-4.1272290000"><ele>121</ele><time>2016-10-15T09:01:24Z</time></trkpt>
<trkpt lat="53.1187330000" lon="-4.1272440000"><ele>121</ele><time>2016-10-15T09:01:26Z</time></trkpt>
<trkpt lat="53.1187080000" lon="-4.1275550000"><ele>121</ele></trkpt>
<trkpt lat="53.1187060000" lon="-4.1275710000"><ele>121</ele><time>2016-10-15T09:01:27Z</time></trkpt>
<trkpt lat="53.1187050000" lon="-4.1275910000"><ele>121</ele><time>2016-10-15T09:01:28Z</time></trkpt>
<trkpt lat="53.1187040000" lon="-4.1276130000"><ele>121</ele><time>2016-10-15T09:01:29Z</time></trkpt>
<trkpt lat="53.1187040000" lon="-4.1276320000"><ele>121</ele><time>2016-10-15T09:01:30Z</time></trkpt>
<trkpt lat="53.1187060000" lon="-4.1276530000"><ele>121</ele><time>2016-10-15T09:01:31Z</time></trkpt>
<trkpt lat="53.1187060000" lon="-4.1276730000"><ele>121</ele><time>2016-10-15T09:01:32Z</time></trkpt>
<trkpt lat="53.1187010000" lon="-4.1276940000"><ele>121</ele><time>2016-10-15T09:01:33Z</time></trkpt>
<trkpt lat="53.1186980000" lon="-4.1277190000"><ele>121</ele><time>2016-10-15T09:01:34Z</time></trkpt>
<trkpt lat="53.1186950000" lon="-4.1277400000"><ele>121</ele><time>2016-10-15T09:01:35Z</time></trkpt>
<trkpt lat="53.1186910000" lon="-4.1277610000"><ele>121</ele><time>2016-10-15T09:01:36Z</time></trkpt>
<trkpt lat="53.1186860000" lon="-4.1277790000"><ele>121</ele><time>2016-10-15T09:01:37Z</time></trkpt>
<trkpt lat="53.1186840000" lon="-4.1277960000"><ele>121</ele><time>2016-10-15T09:01:38Z</time></trkpt>
<trkpt lat="53.1186840000" lon="-4.1277960000"><ele>121</ele><time>2016-10-15T09:01:39Z</time></trkpt>
<trkpt lat="53.1186830000" lon="-4.1277960000"><ele>121</ele><time>2016-10-15T09:01:40Z</time></trkpt>
<trkpt lat="53.1186830000" lon="-4.1277970000"><ele>121</ele><time>2016-10-15T09:01:41Z</time></trkpt>
<trkpt lat="53.1186830000" lon="-4.1277990000"><ele>121</ele><time>2016-10-15T09:01:42Z</time></trkpt>
<trkpt lat="53.1186830000" lon="-4.1278000000"><ele>121</ele><time>2016-10-15T09:01:43Z</time></trkpt>
<trkpt lat="53.1186750000" lon="-4.1278330000"><ele>122</ele><time>2016-10-15T09:01:50Z</time></trkpt>
<trkpt lat="53.1186220000" lon="-4.1280520000"><ele>122</ele><time>2016-10-15T09:01:52Z</time></trkpt>
<trkpt lat="53.1186110000" lon="-4.1280850000"><ele>122</ele><time>2016-10-15T09:01:54Z</time></trkpt>
<trkpt lat="53.1185970000" lon="-4.1281250000"><ele>122</ele><time>2016-10-15T09:01:56Z</time></trkpt>
<trkpt lat="53.1185870000" lon="-4.1281620000"><ele>122</ele><time>2016-10-15T09:01:58Z</time></trkpt>
<trkpt lat="53.1185600000" lon="-4.1283400000"><ele>121</ele><time>2016-10-15T09:02:08Z</time></trkpt>
<trkpt lat="53.1185420000" lon="-4.1284010000"><ele>121</ele><time>2016-10-15T09:02:11Z</time></trkpt>
<trkpt lat="53.1185160000" lon="-4.1284930000"><ele>122</ele><time>2016-10-15T09:02:16Z</time></trkpt>
<trkpt lat="53.1184930000" lon="-4.1285560000"><ele>122</ele><time>2016-10-15T09:02:19Z</time></trkpt>
<trkpt lat="53.1184750000" lon="-4.1286280000"><ele>122</ele><time>2016-10-15T09:02:24Z</time></trkpt>
<trkpt lat="53.1184620000" lon="-4.1287120000"><ele>123</ele><time>2016-10-15T09:02:29Z</time></trkpt>
<trkpt lat="53.1184450000" lon="-4.1287650000"><ele>124</ele><time>2016-10-15T09:02:32Z</time></trkpt>
<trkpt lat="53.1184380000" lon="-4.1288190000"><ele>125</ele><time>2016-10-15T09:02:35Z</time></trkpt>
<trkpt lat="53.1184500000" lon="-4.1288710000"><ele>125</ele><time>2016-10-15T09:02:38Z</time></trkpt>
<trkpt lat="53.1184630000" lon="-4.1289030000"><ele>126</ele><time>2016-10-15T09:02:40Z</time></trkpt>
<trkpt lat="53.1184700000" lon="-4.1289260000"><ele>127</ele><time>2016-10-15T09:02:48Z</time></trkpt>
<trkpt lat="53.1184700000" lon="-4.1289290000"><ele>127</ele><time>2016-10-15T09:02:49Z</time></trkpt>
<trkpt lat="53.1184710000" lon="-4.1289320000"><ele>127</ele><time>2016-10-15T09:02:50Z</time></trkpt>
<trkpt lat="53.1184710000" lon="-4.1289360000"><ele>127</ele><time>2016-10-15T09:02:51Z</time></trkpt>
<trkpt lat="53.1184720000" lon="-4.1289410000"><ele>127</ele><time>2016-10-15T09:02:52Z</time></trkpt>
<trkpt lat="53.1184730000" lon="-4.1289460000"><ele>127</ele><time>2016-10-15T09:02:53Z</time></trkpt>
<trkpt lat="53.1184750000" lon="-4.1289520000"><ele>127</ele><time>2016-10-15T09:02:54Z</time></trkpt>
<trkpt lat="53.1184770000" lon="-4.1289580000"><ele>126</ele><time>2016-10-15T09:02:55Z</time></trkpt>
<trkpt lat="53.1184790000" lon="-4.1289650000"><ele>126</ele><time>2016-10-15T09:02:56Z</time></trkpt>
<trkpt lat="53.1184820000" lon="-4.1289720000"><ele>126</ele><time>2016-10-15T09:02:57Z</time></trkpt>
<trkpt lat="53.1184840000" lon="-4.1289810000"><ele>126</ele><time>2016-10-15T09:02:58Z</time></trkpt>
<trkpt lat="53.1184870000" lon="-4.1289890000"><ele>126</ele><time>2016-10-15T09:02:59Z</time></trkpt>
<trkpt lat="53.1184910000" lon="-4.1289980000"><ele>126</ele><time>2016-10-15T09:03:00Z</time></trkpt>
<trkpt lat="53.1184940000" lon="-4.1290070000"><ele>126</ele><time>2016-10-15T09:03:01Z</time></trkpt>
<trkpt lat="53.1184970000" lon="-4.1290160000"><ele>126</ele><time>2016-10-15T09:03:02Z</time></trkpt>
<trkpt lat="53.1185010000" lon="-4.1290260000"><ele>126</ele><time>2016-10-15T09:03:03Z</time></trkpt>
<trkpt lat="53.1185040000" lon="-4.1290360000"><ele>126</ele><time>2016-10-15T09:03:04Z</time></trkpt>
<trkpt lat="53.1185080000" lon="-4.1290460000"><ele>126</ele><time>2016-10-15T09:03:05Z</time></trkpt>
<trkpt lat="53.1185120000" lon="-4.1290570000"><ele>126</ele><time>2016-10-15T09:03:06Z</time></trkpt>
<trkpt lat="53.1185150000" lon="-4.1290670000"><ele>126</ele><time>2016-10-15T09:03:07Z</time></trkpt>
<trkpt lat="53.1185190000" lon="-4.1290770000"><ele>126</ele><time>2016-10-15T09:03:08Z</time></trkpt>
<trkpt lat="53.1185230000" lon="-4.1290870000"><ele>126</ele><time>2016-10-15T09:03:09Z</time></trkpt>
<trkpt lat="53.1185270000" lon="-4.1290960000"><ele>126</ele><time>2016-10-15T09:03:10Z</time></trkpt>
<trkpt lat="53.1185310000" lon="-4.1291060000"><ele>127</ele><time>2016-10-15T09:03:11Z</time></trkpt>
<trkpt lat="53.1185350000" lon="-4.1291170000"><ele>127</ele><time>2016-10-15T09:03:12Z</time></trkpt>
<trkpt lat="53.1185390000" lon="-4.1291280000"><ele>127</ele><time>2016-10-15T09:03:13Z</time></trkpt>
<trkpt lat="53.1185420000" lon="-4.1291390000"><ele>127</ele><time>2016-10-15T09:03:14Z</time></trkpt>
<trkpt lat="53.1185460000" lon="-4.1291500000"><ele>127</ele><time>2016-10-15T09:03:15Z</time></trkpt>
<trkpt lat="53.1185510000" lon="-4.1291610000"><ele>127</ele><time>2016-10-15T09:03:16Z</time></trkpt>
<trkpt lat="53.1185550000" lon="-4.1291720000"><ele>127</ele><time>2016-10-15T09:03:17Z</time></trkpt>
<trkpt lat="53.1185600000" lon="-4.1291830000"><ele>127</ele><time>2016-10-15T09:03:18Z</time></trkpt>
<trkpt lat="53.1185640000" lon="-4.1291920000"><ele>127</ele><time>2016-10-15T09:03:19Z</time></trkpt>
<trkpt lat="53.1185700000" lon="-4.1292030000"><ele>127</ele><time>2016-10-15T09:03:20Z</time></trkpt>
<trkpt lat="53.1185750000" lon="-4.1292140000"><ele>128</ele><time>2016-10-15T09:03:21Z</time></trkpt>
<trkpt lat="53.1185800000" lon="-4.1292250000"><ele>128</ele><time>2016-10-15T09:03:22Z</time></trkpt>
<trkpt lat="53.1185960000" lon="-4.1292590000"><ele>128</ele><time>2016-10-15T09:03:26Z</time></trkpt>
<trkpt lat="53.1187010000" lon="-4.1294800000"><ele>128</ele><time>2016-10-15T09:03:27Z</time></trkpt>
<trkpt lat="53.1187180000" lon="-4.1295120000"><ele>128</ele><time>2016-10-15T09:03:30Z</time></trkpt>
<trkpt lat="53.1187290000" lon="-4.1295370000"><ele>128</ele><time>2016-10-15T09:03:32Z</time></trkpt>
<trkpt lat="53.1187290000" lon="-4.1295370000"><ele>128</ele><time>2016-10-15T09:03:33Z</time></trkpt>
<trkpt lat="53.1187460000" lon="-4.1295590000"><ele>128</ele><time>2016-10-15T09:03:34Z</time></trkpt>
<trkpt lat="53.1187530000" lon="-4.1295730000"><ele>128</ele><time>2016-10-15T09:03:35Z</time></trkpt>
<trkpt lat="53.1187590000" lon="-4.1295860000"><ele>128</ele><time>2016-10-15T09:03:36Z</time></trkpt>
<trkpt lat="53.1187650000" lon="-4.1295990000"><ele>128</ele><time>2016-10-15T09:03:37Z</time></trkpt>
<trkpt lat="53.1187650000" lon="-4.1295990000"><ele>128</ele><time>2016-10-15T09:03:38Z</time></trkpt>
<trkpt lat="53.1187650000" lon="-4.1295990000"><ele>128</ele><time>2016-10-15T09:03:39Z</time></trkpt>
<trkpt lat="53.1187650000" lon="-4.1296000000"><ele>128</ele><time>2016-10-15T09:03:40Z</time></trkpt>
<trkpt lat="53.1187660000" lon="-4.1296000000"><ele>128</ele><time>2016-10-15T09:03:41Z</time></trkpt>
<trkpt lat="53.1187670000" lon="-4.1296010000"><ele>128</ele><time>2016-10-15T09:03:42Z</time></trkpt>
<trkpt lat="53.1187680000" lon="-4.1296030000"><ele>128</ele><time>2016-10-15T09:03:43Z</time></trkpt>
<trkpt lat="53.1187690000" lon="-4.1296050000"><ele>128</ele><time>2016-10-15T09:03:44Z</time></trkpt>
<trkpt lat="53.1187700000" lon="-4.1296070000"><ele>128</ele><time>2016-10-15T09:03:45Z</time></trkpt>
<trkpt lat="53.1187720000" lon="-4.1296100000"><ele>128</ele><time>2016-10-15T09:03:46Z</time></trkpt>
<trkpt lat="53.1187740000" lon="-4.1296140000"><ele>128</ele><time>2016-10-15T09:03:47Z</time></trkpt>
<trkpt lat="53.1187760000" lon="-4.1296190000"><ele>128</ele><time>2016-10-15T09:03:48Z</time></trkpt>
<trkpt lat="53.1187790000" lon="-4.1296240000"><ele>128</ele><time>2016-10-15T09:03:49Z</time></trkpt>
<trkpt lat="53.1187810000" lon="-4.1296300000"><ele>128</ele><time>2016-10-15T09:03:50Z</time></trkpt>
<trkpt lat="53.1187840000" lon="-4.1296370000"><ele>128</ele><time>2016-10-15T09:03:51Z</time></trkpt>
<trkpt lat="53.1187870000" lon="-4.1296440000"><ele>128</ele><time>2016-10-15T09:03:52Z</time></trkpt>
<trkpt lat="53.1187900000" lon="-4.1296520000"><ele>128</ele><time>2016-10-15T09:03:53Z</time></trkpt>
<trkpt lat="53.1187940000" lon="-4.1296610000"><ele>128</ele><time>2016-10-15T09:03:54Z</time></trkpt>
<trkpt lat="53.1187990000" lon="-4.1296690000"><ele>128</ele><time>2016-10-15T09:03:55Z</time></trkpt>
<trkpt lat="53.1188030000" lon="-4.1296790000"><ele>128</ele><time>2016-10-15T09:03:56Z</time></trkpt>
<trkpt lat="53.1188080000" lon="-4.1296890000"><ele>129</ele><time>2016-10-15T09:03:57Z</time></trkpt>
<trkpt lat="53.1188130000" lon="-4.1297000000"><ele>129</ele><time>2016-10-15T09:03:58Z</time></trkpt>
<trkpt lat="53.1188180000" lon="-4.1297110000"><ele>129</ele><time>2016-10-15T09:03:59Z</time></trkpt>
<trkpt lat="53.1188230000" lon="-4.1297230000"><ele>129</ele><time>2016-10-15T09:04:00Z</time></trkpt>
<trkpt lat="53.1188290000" lon="-4.1297350000"><ele>129</ele><time>2016-10-15T09:04:01Z</time></trkpt>
<trkpt lat="53.1188350000" lon="-4.1297470000"><ele>129</ele><time>2016-10-15T09:04:02Z</time></trkpt>
<trkpt lat="53.1188410000" lon="-4.1297600000"><ele>129</ele><time>2016-10-15T09:04:03Z</time></trkpt>
<trkpt lat="53.1188470000" lon="-4.1297730000"><ele>130</ele><time>2016-10-15T09:04:04Z</time></trkpt>
<trkpt lat="53.1189620000" lon="-4.1300130000"><ele>130</ele><time>2016-10-15T09:04:05Z</time></trkpt>
<trkpt lat="53.1189680000" lon="-4.1300280000"><ele>130</ele><time>2016-10-15T09:04:06Z</time></trkpt>
<trkpt lat="53.1189730000" lon="-4.1300460000"><ele>130</ele><time>2016-10-15T09:04:07Z</time></trkpt>
<trkpt lat="53.1189790000" lon="-4.1300630000"><ele>130</ele><time>2016-10-15T09:04:08Z</time></trkpt>
<trkpt lat="53.1189850000" lon="-4.1300790000"><ele>131</ele><time>2016-10-15T09:04:09Z</time></trkpt>
<trkpt lat="53.1189850000" lon="-4.1300790000"><ele>131</ele><time>2016-10-15T09:04:10Z</time></trkpt>
<trkpt lat="53.1189850000" lon="-4.1300790000"><ele>131</ele><time>2016-10-15T09:04:11Z</time></trkpt>
<trkpt lat="53.1189850000" lon="-4.1300800000"><ele>131</ele><time>2016-10-15T09:04:12Z</time></trkpt>
<trkpt lat="53.1189850000" lon="-4.1300810000"><ele>131</ele><time>2016-10-15T09:04:13Z</time></trkpt>
<trkpt lat="53.1189860000" lon="-4.1300830000"><ele>131</ele><time>2016-10-15T09:04:14Z</time></trkpt>
<trkpt lat="53.1189860000" lon="-4.1300850000"><ele>132</ele><time>2016-10-15T09:04:15Z</time></trkpt>
<trkpt lat="53.1189870000" lon="-4.1300880000"><ele>132</ele><time>2016-10-15T09:04:16Z</time></trkpt>
<trkpt lat="53.1189870000" lon="-4.1300920000"><ele>132</ele><time>2016-10-15T09:04:17Z</time></trkpt>
<trkpt lat="53.1189910000" lon="-4.1301330000"><ele>133</ele><time>2016-10-15T09:04:24Z</time></trkpt>
<trkpt lat="53.1189740000" lon="-4.1303910000"><ele>133</ele><time>2016-10-15T09:04:26Z</time></trkpt>
<trkpt lat="53.1189580000" lon="-4.1304140000"><ele>134</ele><time>2016-10-15T09:04:28Z</time></trkpt>
<trkpt lat="53.1189500000" lon="-4.1304250000"><ele>135</ele><time>2016-10-15T09:04:31Z</time></trkpt>
<trkpt lat="53.1189500000" lon="-4.1304250000"><ele>135</ele><time>2016-10-15T09:04:32Z</time></trkpt>
<trkpt lat="53.1189500000" lon="-4.1304260000"><ele>135</ele><time>2016-10-15T09:04:33Z</time></trkpt>
<trkpt lat="53.1189490000" lon="-4.1304260000"><ele>136</ele><time>2016-10-15T09:04:34Z</time></trkpt>
<trkpt lat="53.1189480000" lon="-4.1304280000"><ele>136</ele><time>2016-10-15T09:04:35Z</time></trkpt>
<trkpt lat="53.1189470000" lon="-4.1304290000"><ele>136</ele><time>2016-10-15T09:04:36Z</time></trkpt>
<trkpt lat="53.1189450000" lon="-4.1304320000"><ele>136</ele><time>2016-10-15T09:04:37Z</time></trkpt>
<trkpt lat="53.1189430000" lon="-4.1304340000"><ele>137</ele><time>2016-10-15T09:04:38Z</time></trkpt>
<trkpt lat="53.1189400000" lon="-4.1304370000"><ele>137</ele><time>2016-10-15T09:04:39Z</time></trkpt>
<trkpt lat="53.1189380000" lon="-4.1304410000"><ele>137</ele><time>2016-10-15T09:04:40Z</time></trkpt>
<trkpt lat="53.1189340000" lon="-4.1304440000"><ele>138</ele><time>2016-10-15T09:04:41Z</time></trkpt>
<trkpt lat="53.1189310000" lon="-4.1304490000"><ele>138</ele><time>2016-10-15T09:04:42Z</time></trkpt>
<trkpt lat="53.1189270000" lon="-4.1304530000"><ele>138</ele><time>2016-10-15T09:04:43Z</time></trkpt>
<trkpt lat="53.1189220000" lon="-4.1304580000"><ele>138</ele><time>2016-10-15T09:04:44Z</time></trkpt>
<trkpt lat="53.1189180000" lon="-4.1304630000"><ele>139</ele><time>2016-10-15T09:04:45Z</time></trkpt>
<trkpt lat="53.1189130000" lon="-4.1304690000"><ele>139</ele><time>2016-10-15T09:04:46Z</time></trkpt>
<trkpt lat="53.1189080000" lon="-4.1304750000"><ele>139</ele><time>2016-10-15T09:04:47Z</time></trkpt>
<trkpt lat="53.1189030000" lon="-4.1304810000"><ele>139</ele><time>2016-10-15T09:04:48Z</time></trkpt>
<trkpt lat="53.1188970000" lon="-4.1304870000"><ele>139</ele><time>2016-10-15T09:04:49Z</time></trkpt>
<trkpt lat="53.1188920000" lon="-4.1304940000"><ele>139</ele><time>2016-10-15T09:04:50Z</time></trkpt>
<trkpt lat="53.1188860000" lon="-4.1305010000"><ele>140</ele><time>2016-10-15T09:04:51Z</time></trkpt>
<trkpt lat="53.1188800000" lon="-4.1305090000"><ele>140</ele><time>2016-10-15T09:04:52Z</time></trkpt>
<trkpt lat="53.1188740000" lon="-4.1305160000"><ele>140</ele><time>2016-10-15T09:04:53Z</time></trkpt>
<trkpt lat="53.1188680000" lon="-4.1305240000"><ele>140</ele><time>2016-10-15T09:04:54Z</time></trkpt>
<trkpt lat="53.1188610000" lon="-4.1305330000"><ele>141</ele><time>2016-10-15T09:04:55Z</time></trkpt>
<trkpt lat="53.1188550000" lon="-4.1305420000"><ele>141</ele><time>2016-10-15T09:04:56Z</time></trkpt>
<trkpt lat="53.1188480000" lon="-4.1305520000"><ele>141</ele><time>2016-10-15T09:04:57Z</time></trkpt>
<trkpt lat="53.1188420000" lon="-4.1305610000"><ele>141</ele><time>2016-10-15T09:04:58Z</time></trkpt>
<trkpt lat="53.1188350000" lon="-4.1305720000"><ele>141</ele><time>2016-10-15T09:04:59Z</time></trkpt>
<trkpt lat="53.1188280000" lon="-4.1305820000"><ele>141</ele><time>2016-10-15T09:05:00Z</time></trkpt>
<trkpt lat="53.1187070000" lon="-4.1307660000"><ele>142</ele><time>2016-10-15T09:05:01Z</time></trkpt>
<trkpt lat="53.1186990000" lon="-4.1307810000"><ele>142</ele><time>2016-10-15T09:05:02Z</time></trkpt>
<trkpt lat="53.1186920000" lon="-4.1307980000"><ele>142</ele><time>2016-10-15T09:05:03Z</time></trkpt>
<trkpt lat="53.1186850000" lon="-4.1308150000"><ele>142</ele><time>2016-10-15T09:05:04Z</time></trkpt>
<trkpt lat="53.1186790000" lon="-4.1308310000"><ele>142</ele><time>2016-10-15T09:05:05Z</time></trkpt>
<trkpt lat="53.1186730000" lon="-4.1308460000"><ele>142</ele><time>2016-10-15T09:05:06Z</time></trkpt>
<trkpt lat="53.1186670000" lon="-4.1308630000"><ele>143</ele><time>2016-10-15T09:05:07Z</time></trkpt>
<trkpt lat="53.1186620000" lon="-4.1308770000"><ele>143</ele><time>2016-10-15T09:05:08Z</time></trkpt>
<trkpt lat="53.1186580000" lon="-4.1308910000"><ele>143</ele><time>2016-10-15T09:05:09Z</time></trkpt>
<trkpt lat="53.1186580000" lon="-4.1308910000"><ele>143</ele><time>2016-10-15T09:05:10Z</time></trkpt>
<trkpt lat="53.1186580000" lon="-4.1308910000"><ele>143</ele><time>2016-10-15T09:05:11Z</time></trkpt>
<trkpt lat="53.1186580000" lon="-4.1308920000"><ele>144</ele><time>2016-10-15T09:05:12Z</time></trkpt>
<trkpt lat="53.1186570000" lon="-4.1308930000"><ele>144</ele><time>2016-10-15T09:05:13Z</time></trkpt>
<trkpt lat="53.1186570000" lon="-4.1308950000"><ele>144</ele><time>2016-10-15T09:05:14Z</time></trkpt>
<trkpt lat="53.1186560000" lon="-4.1308970000"><ele>144</ele><time>2016-10-15T09:05:15Z</time></trkpt>
<trkpt lat="53.1186550000" lon="-4.1309000000"><ele>144</ele><time>2016-10-15T09:05:16Z</time></trkpt>
<trkpt lat="53.1186540000" lon="-4.1309040000"><ele>144</ele><time>2016-10-15T09:05:17Z</time></trkpt>
<trkpt lat="53.1186520000" lon="-4.1309080000"><ele>144</ele><time>2016-10-15T09:05:18Z</time></trkpt>
<trkpt lat="53.1186500000" lon="-4.1309140000"><ele>144</ele><time>2016-10-15T09:05:19Z</time></trkpt>
<trkpt lat="53.1186480000" lon="-4.1309200000"><ele>144</ele><time>2016-10-15T09:05:20Z</time></trkpt>
<trkpt lat="53.1186450000" lon="-4.1309270000"><ele>145</ele><time>2016-10-15T09:05:21Z</time></trkpt>
<trkpt lat="53.1186420000" lon="-4.1309340000"><ele>145</ele><time>2016-10-15T09:05:22Z</time></trkpt>
<trkpt lat="53.1186390000" lon="-4.1309430000"><ele>145</ele><time>2016-10-15T09:05:23Z</time></trkpt>
<trkpt lat="53.1186360000" lon="-4.1309520000"><ele>145</ele><time>2016-10-15T09:05:24Z</time></trkpt>
<trkpt lat="53.1186320000" lon="-4.1309620000"><ele>145</ele><time>2016-10-15T09:05:26Z</time></trkpt>
<trkpt lat="53.1186290000" lon="-4.1309730000"><ele>145</ele></trkpt>
<trkpt lat="53.1186250000" lon="-4.1309830000"><ele>145</ele><time>2016-10-15T09:05:27Z</time></trkpt>
<trkpt lat="53.1186210000" lon="-4.1309940000"><ele>145</ele><time>2016-10-15T09:05:28Z</time></trkpt>
<trkpt lat="53.1186170000" lon="-4.1310060000"><ele>145</ele><time>2016-10-15T09:05:29Z</time></trkpt>
<trkpt lat="53.1186130000" lon="-4.1310180000"><ele>146</ele><time>2016-10-15T09:05:30Z</time></trkpt>
<trkpt lat="53.1185280000" lon="-4.1312490000"><ele>146</ele><time>2016-10-15T09:05:31Z</time></trkpt>
<trkpt lat="53.1185200000" lon="-4.1312670000"><ele>146</ele><time>2016-10-15T09:05:32Z</time></trkpt>
<trkpt lat="53.1185130000" lon="-4.1312840000"><ele>146</ele><time>2016-10-15T09:05:33Z</time></trkpt>
<trkpt lat="53.1185070000" lon="-4.1313020000"><ele>146</ele><time>2016-10-15T09:05:34Z</time></trkpt>
<trkpt lat="53.1185010000" lon="-4.1313170000"><ele>146</ele><time>2016-10-15T09:05:35Z</time></trkpt>
<trkpt lat="53.1184930000" lon="-4.1313340000"><ele>146</ele><time>2016-10-15T09:05:36Z</time></trkpt>
<trkpt lat="53.1184870000" lon="-4.1313500000"><ele>146</ele><time>2016-10-15T09:05:37Z</time></trkpt>
<trkpt lat="53.1184820000" lon="-4.1313650000"><ele>146</ele><time>2016-10-15T09:05:38Z</time></trkpt>
<trkpt lat="53.1184820000" lon="-4.1313650000"><ele>146</ele><time>2016-10-15T09:05:39Z</time></trkpt>
<trkpt lat="53.1184820000" lon="-4.1313660000"><ele>146</ele><time>2016-10-15T09:05:40Z</time></trkpt>
<trkpt lat="53.1184820000" lon="-4.1313660000"><ele>146</ele><time>2016-10-15T09:05:41Z</time></trkpt>
<trkpt lat="53.1184810000" lon="-4.1313670000"><ele>146</ele><time>2016-10-15T09:05:42Z</time></trkpt>
<trkpt lat="53.1184810000" lon="-4.1313690000"><ele>146</ele><time>2016-10-15T09:05:43Z</time></trkpt>
<trkpt lat="53.1184800000" lon="-4.1313710000"><ele>146</ele><time>2016-10-15T09:05:44Z</time></trkpt>
<trkpt lat="53.1184790000" lon="-4.1313730000"><ele>146</ele><time>2016-10-15T09:05:45Z</time></trkpt>
<trkpt lat="53.1184780000" lon="-4.1313760000"><ele>146</ele><time>2016-10-15T09:05:46Z</time></trkpt>
<trkpt lat="53.1184760000" lon="-4.1313800000"><ele>146</ele><time>2016-10-15T09:05:47Z</time></trkpt>
<trkpt lat="53.1184750000" lon="-4.1313850000"><ele>146</ele><time>2016-10-15T09:05:48Z</time></trkpt>
<trkpt lat="53.1184730000" lon="-4.1313900000"><ele>146</ele><time>2016-10-15T09:05:49Z</time></trkpt>
<trkpt lat="53.1184710000" lon="-4.1313960000"><ele>146</ele><time>2016-10-15T09:05:50Z</time></trkpt>
<trkpt lat="53.1184690000" lon="-4.1314020000"><ele>146</ele><time>2016-10-15T09:05:51Z</time></trkpt>
<trkpt lat="53.1184670000" lon="-4.1314080000"><ele>146</ele><time>2016-10-15T09:05:52Z</time></trkpt>
<trkpt lat="53.1184650000" lon="-4.1314160000"><ele>146</ele><time>2016-10-15T09:05:53Z</time></trkpt>
<trkpt lat="53.1184620000" lon="-4.1314230000"><ele>146</ele><time>2016-10-15T09:05:54Z</time></trkpt>
<trkpt lat="53.1184590000" lon="-4.1314320000"><ele>146</ele><time>2016-10-15T09:05:55Z</time></trkpt>
<trkpt lat="53.1184560000" lon="-4.1314410000"><ele>146</ele><time>2016-10-15T09:05:56Z</time></trkpt>
<trkpt lat="53.1184530000" lon="-4.1314510000"><ele>146</ele><time>2016-10-15T09:05:57Z</time></trkpt>
<trkpt lat="53.1184490000" lon="-4.1314620000"><ele>146</ele><time>2016-10-15T09:05:58Z</time></trkpt>
<trkpt lat="53.1184460000" lon="-4.1314740000"><ele>146</ele><time>2016-10-15T09:05:59Z</time></trkpt>
<trkpt lat="53.1184420000" lon="-4.1314860000"><ele>147</ele><time>2016-10-15T09:06:00Z</time></trkpt>
<trkpt lat="53.1184380000" lon="-4.1314990000"><ele>147</ele><time>2016-10-15T09:06:01Z</time></trkpt>
<trkpt lat="53.1184330000" lon="-4.1315120000"><ele>147</ele><time>2016-10-15T09:06:02Z</time></trkpt>
<trkpt lat="53.1184290000" lon="-4.1315260000"><ele>147</ele><time>2016-10-15T09:06:03Z</time></trkpt>
<trkpt lat="53.1184250000" lon="-4.1315400000"><ele>147</ele><time>2016-10-15T09:06:04Z</time></trkpt>
<trkpt lat="53.1183430000" lon="-4.1318000000"><ele>147</ele><time>2016-10-15T09:06:05Z</time></trkpt>
<trkpt lat="53.1183410000" lon="-4.1318150000"><ele>147</ele><time>2016-10-15T09:06:06Z</time></trkpt>
<trkpt lat="53.1183390000" lon="-4.1318300000"><ele>147</ele><time>2016-10-15T09:06:07Z</time></trkpt>
<trkpt lat="53.1183340000" lon="-4.1318480000"><ele>147</ele><time>2016-10-15T09:06:08Z</time></trkpt>
<trkpt lat="53.1183340000" lon="-4.1318480000"><ele>147</ele><time>2016-10-15T09:06:09Z</time></trkpt>
<trkpt lat="53.1183330000" lon="-4.1318480000"><ele>148</ele><time>2016-10-15T09:06:10Z</time></trkpt>
<trkpt lat="53.1183330000" lon="-4.1318490000"><ele>148</ele><time>2016-10-15T09:06:11Z</time></trkpt>
<trkpt lat="53.1183330000" lon="-4.1318500000"><ele>148</ele><time>2016-10-15T09:06:12Z</time></trkpt>
<trkpt lat="53.1183330000" lon="-4.1318520000"><ele>148</ele><time>2016-10-15T09:06:13Z</time></trkpt>
<trkpt lat="53.1183320000" lon="-4.1318550000"><ele>148</ele><time>2016-10-15T09:06:14Z</time></trkpt>
<trkpt lat="53.1183310000" lon="-4.1318580000"><ele>148</ele><time>2016-10-15T09:06:15Z</time></trkpt>
<trkpt lat="53.1183310000" lon="-4.1318620000"><ele>148</ele><time>2016-10-15T09:06:16Z</time></trkpt>
<trkpt lat="53.1183300000" lon="-4.1318660000"><ele>148</ele><time>2016-10-15T09:06:17Z</time></trkpt>
<trkpt lat="53.1183290000" lon="-4.1318720000"><ele>149</ele><time>2016-10-15T09:06:18Z</time></trkpt>
<trkpt lat="53.1183280000" lon="-4.1318780000"><ele>149</ele><time>2016-10-15T09:06:19Z</time></trkpt>
<trkpt lat="53.1183270000" lon="-4.1318850000"><ele>149</ele><time>2016-10-15T09:06:20Z</time></trkpt>
<trkpt lat="53.1183260000" lon="-4.1318930000"><ele>149</ele><time>2016-10-15T09:06:21Z</time></trkpt>
<trkpt lat="53.1183250000" lon="-4.1319010000"><ele>149</ele><time>2016-10-15T09:06:22Z</time></trkpt>
<trkpt lat="53.1183230000" lon="-4.1319100000"><ele>149</ele><time>2016-10-15T09:06:23Z</time></trkpt>
<trkpt lat="53.1183220000" lon="-4.1319190000"><ele>149</ele><time>2016-10-15T09:06:24Z</time></trkpt>
<trkpt lat="53.1183200000" lon="-4.1319300000"><ele>149</ele><time>2016-10-15T09:06:26Z</time></trkpt>
<trkpt lat="53.1183190000" lon="-4.1319410000"><ele>150</ele></trkpt>
<trkpt lat="53.1183170000" lon="-4.1319520000"><ele>150</ele><time>2016-10-15T09:06:27Z</time></trkpt>
<trkpt lat="53.1183150000" lon="-4.1319640000"><ele>150</ele><time>2016-10-15T09:06:28Z</time></trkpt>
<trkpt lat="53.1183130000" lon="-4.1319770000"><ele>150</ele><time>2016-10-15T09:06:29Z</time></trkpt>
<trkpt lat="53.1183110000" lon="-4.1319900000"><ele>150</ele><time>2016-10-15T09:06:30Z</time></trkpt>
<trkpt lat="53.1183090000" lon="-4.1320040000"><ele>150</ele><time>2016-10-15T09:06:31Z</time></trkpt>
<trkpt lat="53.1183060000" lon="-4.1320190000"><ele>151</ele><time>2016-10-15T09:06:32Z</time></trkpt>
<trkpt lat="53.1183030000" lon="-4.1320350000"><ele>151</ele><time>2016-10-15T09:06:33Z</time></trkpt>
<trkpt lat="53.1182380000" lon="-4.1323490000"><ele>151</ele><time>2016-10-15T09:06:34Z</time></trkpt>
<trkpt lat="53.1182300000" lon="-4.1323740000"><ele>151</ele><time>2016-10-15T09:06:35Z</time></trkpt>
<trkpt lat="53.1182230000" lon="-4.1323990000"><ele>151</ele><time>2016-10-15T09:06:36Z</time></trkpt>
<trkpt lat="53.1182180000" lon="-4.1324210000"><ele>151</ele><time>2016-10-15T09:06:37Z</time></trkpt>
<trkpt lat="53.1182140000" lon="-4.1324410000"><ele>151</ele><time>2016-10-15T09:06:38Z</time></trkpt>
<trkpt lat="53.1182080000" lon="-4.1324590000"><ele>151</ele><time>2016-10-15T09:06:39Z</time></trkpt>
<trkpt lat="53.1182040000" lon="-4.1324770000"><ele>152</ele><time>2016-10-15T09:06:40Z</time></trkpt>
<trkpt lat="53.1182000000" lon="-4.1324940000"><ele>152</ele><time>2016-10-15T09:06:41Z</time></trkpt>
<trkpt lat="53.1181970000" lon="-4.1325120000"><ele>152</ele><time>2016-10-15T09:06:42Z</time></trkpt>
<trkpt lat="53.1181950000" lon="-4.1325300000"><ele>152</ele><time>2016-10-15T09:06:43Z</time></trkpt>
<trkpt lat="53.1181950000" lon="-4.1325300000"><ele>152</ele><time>2016-10-15T09:06:44Z</time></trkpt>
<trkpt lat="53.1181950000" lon="-4.1325310000"><ele>152</ele><time>2016-10-15T09:06:45Z</time></trkpt>
<trkpt lat="53.1181940000" lon="-4.1325320000"><ele>153</ele><time>2016-10-15T09:06:46Z</time></trkpt>
<trkpt lat="53.1181940000" lon="-4.1325330000"><ele>153</ele><time>2016-10-15T09:06:47Z</time></trkpt>
<trkpt lat="53.1181940000" lon="-4.1325350000"><ele>153</ele><time>2016-10-15T09:06:48Z</time></trkpt>
<trkpt lat="53.1181940000" lon="-4.1325370000"><ele>153</ele><time>2016-10-15T09:06:49Z</time></trkpt>
<trkpt lat="53.1181930000" lon="-4.1325390000"><ele>153</ele><time>2016-10-15T09:06:50Z</time></trkpt>
<trkpt lat="53.1181930000" lon="-4.1325420000"><ele>153</ele><time>2016-10-15T09:06:51Z</time></trkpt>
<trkpt lat="53.1181920000" lon="-4.1325460000"><ele>154</ele><time>2016-10-15T09:06:52Z</time></trkpt>
<trkpt lat="53.1181910000" lon="-4.1325500000"><ele>154</ele><time>2016-10-15T09:06:53Z</time></trkpt>
<trkpt lat="53.1181890000" lon="-4.1325550000"><ele>154</ele><time>2016-10-15T09:06:54Z</time></trkpt>
<trkpt lat="53.1181880000" lon="-4.1325610000"><ele>154</ele><time>2016-10-15T09:06:55Z</time></trkpt>
<trkpt lat="53.1181860000" lon="-4.1325680000"><ele>154</ele><time>2016-10-15T09:06:56Z</time></trkpt>
<trkpt lat="53.1181850000" lon="-4.1325750000"><ele>154</ele><time>2016-10-15T09:06:57Z</time></trkpt>
<trkpt lat="53.1181830000" lon="-4.1325830000"><ele>154</ele><time>2016-10-15T09:06:58Z</time></trkpt>
<trkpt lat="53.1181810000" lon="-4.1325920000"><ele>154</ele><time>2016-10-15T09:06:59Z</time></trkpt>
<trkpt lat="53.1181780000" lon="-4.1326010000"><ele>154</ele><time>2016-10-15T09:07:00Z</time></trkpt>
<trkpt lat="53.1181760000" lon="-4.1326110000"><ele>154</ele><time>2016-10-15T09:07:01Z</time></trkpt>
<trkpt lat="53.1181730000" lon="-4.1326220000"><ele>155</ele><time>2016-10-15T09:07:02Z</time></trkpt>
<trkpt lat="53.1181700000" lon="-4.1326330000"><ele>155</ele><time>2016-10-15T09:07:03Z</time></trkpt>
<trkpt lat="53.1181670000" lon="-4.1326460000"><ele>155</ele><time>2016-10-15T09:07:04Z</time></trkpt>
<trkpt lat="53.1181630000" lon="-4.1326580000"><ele>155</ele><time>2016-10-15T09:07:05Z</time></trkpt>
<trkpt lat="53.1181600000" lon="-4.1326720000"><ele>155</ele><time>2016-10-15T09:07:06Z</time></trkpt>
<trkpt lat="53.1181560000" lon="-4.1326850000"><ele>155</ele><time>2016-10-15T09:07:07Z</time></trkpt>
<trkpt lat="53.1181520000" lon="-4.1327000000"><ele>155</ele><time>2016-10-15T09:07:08Z</time></trkpt>
<trkpt lat="53.1181480000" lon="-4.1327140000"><ele>155</ele><time>2016-10-15T09:07:09Z</time></trkpt>
<trkpt lat="53.1181440000" lon="-4.1327290000"><ele>155</ele><time>2016-10-15T09:07:10Z</time></trkpt>
<trkpt lat="53.1180670000" lon="-4.1329970000"><ele>155</ele><time>2016-10-15T09:07:11Z</time></trkpt>
<trkpt lat="53.1180610000" lon="-4.1330160000"><ele>156</ele><time>2016-10-15T09:07:12Z</time></trkpt>
<trkpt lat="53.1180560000" lon="-4.1330330000"><ele>156</ele><time>2016-10-15T09:07:13Z</time></trkpt>
<trkpt lat="53.1180500000" lon="-4.1330530000"><ele>156</ele><time>2016-10-15T09:07:14Z</time></trkpt>
<trkpt lat="53.1180450000" lon="-4.1330730000"><ele>156</ele><time>2016-10-15T09:07:15Z</time></trkpt>
<trkpt lat="53.1180400000" lon="-4.1330920000"><ele>156</ele><time>2016-10-15T09:07:16Z</time></trkpt>
<trkpt lat="53.1180360000" lon="-4.1331100000"><ele>156</ele><time>2016-10-15T09:07:17Z</time></trkpt>
<trkpt lat="53.1180320000" lon="-4.1331270000"><ele>156</ele><time>2016-10-15T09:07:18Z</time></trkpt>
<trkpt lat="53.1180270000" lon="-4.1331460000"><ele>156</ele><time>2016-10-15T09:07:19Z</time></trkpt>
<trkpt lat="53.1180230000" lon="-4.1331630000"><ele>156</ele><time>2016-10-15T09:07:20Z</time></trkpt>
<trkpt lat="53.1180200000" lon="-4.1331810000"><ele>156</ele><time>2016-10-15T09:07:21Z</time></trkpt>
<trkpt lat="53.1180200000" lon="-4.1331810000"><ele>156</ele><time>2016-10-15T09:07:22Z</time></trkpt>
<trkpt lat="53.1180200000" lon="-4.1331810000"><ele>156</ele><time>2016-10-15T09:07:23Z</time></trkpt>
<trkpt lat="53.1180200000" lon="-4.1331820000"><ele>156</ele><time>2016-10-15T09:07:24Z</time></trkpt>
<trkpt lat="53.1180190000" lon="-4.1331840000"><ele>156</ele><time>2016-10-15T09:07:26Z</time></trkpt>
<trkpt lat="53.1180190000" lon="-4.1331860000"><ele>157</ele></trkpt>
<trkpt lat="53.1180190000" lon="-4.1331890000"><ele>157</ele><time>2016-10-15T09:07:27Z</time></trkpt>
<trkpt lat="53.1180180000" lon="-4.1331920000"><ele>157</ele><time>2016-10-15T09:07:28Z</time></trkpt>
<trkpt lat="53.1180170000" lon="-4.1331970000"><ele>157</ele><time>2016-10-15T09:07:29Z</time></trkpt>
<trkpt lat="53.1180160000" lon="-4.1332020000"><ele>157</ele><time>2016-10-15T09:07:30Z</time></trkpt>
<trkpt lat="53.1180150000" lon="-4.1332090000"><ele>157</ele><time>2016-10-15T09:07:31Z</time></trkpt>
<trkpt lat="53.1180140000" lon="-4.1332160000"><ele>157</ele><time>2016-10-15T09:07:32Z</time></trkpt>
<trkpt lat="53.1180130000" lon="-4.1332240000"><ele>157</ele><time>2016-10-15T09:07:33Z</time></trkpt>
<trkpt lat="53.1180110000" lon="-4.1332330000"><ele>157</ele><time>2016-10-15T09:07:34Z</time></trkpt>
<trkpt lat="53.1180100000" lon="-4.1332420000"><ele>157</ele><time>2016-10-15T09:07:35Z</time></trkpt>
<trkpt lat="53.1180080000" lon="-4.1332520000"><ele>157</ele><time>2016-10-15T09:07:36Z</time></trkpt>
<trkpt lat="53.1180060000" lon="-4.1332620000"><ele>157</ele><time>2016-10-15T09:07:37Z</time></trkpt>
<trkpt lat="53.1180030000" lon="-4.1332740000"><ele>157</ele><time>2016-10-15T09:07:38Z</time></trkpt>
<trkpt lat="53.1180010000" lon="-4.1332850000"><ele>157</ele><time>2016-10-15T09:07:39Z</time></trkpt>
<trkpt lat="53.1179980000" lon="-4.1332980000"><ele>157</ele><time>2016-10-15T09:07:40Z</time></trkpt>
<trkpt lat="53.1179950000" lon="-4.1333110000"><ele>157</ele><time>2016-10-15T09:07:41Z</time></trkpt>
<trkpt lat="53.1179920000" lon="-4.1333240000"><ele>157</ele><time>2016-10-15T09:07:42Z</time></trkpt>
<trkpt lat="53.1179890000" lon="-4.1333370000"><ele>158</ele><time>2016-10-15T09:07:43Z</time></trkpt>
<trkpt lat="53.1179860000" lon="-4.1333510000"><ele>158</ele><time>2016-10-15T09:07:44Z</time></trkpt>
<trkpt lat="53.1179820000" lon="-4.1333650000"><ele>158</ele><time>2016-10-15T09:07:45Z</time></trkpt>
<trkpt lat="53.1179790000" lon="-4.1333790000"><ele>158</ele><time>2016-10-15T09:07:46Z</time></trkpt>
<trkpt lat="53.1179750000" lon="-4.1333930000"><ele>158</ele><time>2016-10-15T09:07:47Z</time></trkpt>
<trkpt lat="53.1179710000" lon="-4.1334070000"><ele>158</ele><time>2016-10-15T09:07:48Z</time></trkpt>
<trkpt lat="53.1179670000" lon="-4.1334220000"><ele>159</ele><time>2016-10-15T09:07:49Z</time></trkpt>
<trkpt lat="53.1179630000" lon="-4.1334360000"><ele>159</ele><time>2016-10-15T09:07:50Z</time></trkpt>
<trkpt lat="53.1179590000" lon="-4.1334510000"><ele>159</ele><time>2016-10-15T09:07:51Z</time></trkpt>
<trkpt lat="53.1178840000" lon="-4.1336930000"><ele>159</ele><time>2016-10-15T09:07:52Z</time></trkpt>
<trkpt lat="53.1178770000" lon="-4.1337070000"><ele>159</ele><time>2016-10-15T09:07:53Z</time></trkpt>
<trkpt lat="53.1178710000" lon="-4.1337200000"><ele>159</ele><time>2016-10-15T09:07:54Z</time></trkpt>
<trkpt lat="53.1178650000" lon="-4.1337350000"><ele>159</ele><time>2016-10-15T09:07:55Z</time></trkpt>
<trkpt lat="53.1178580000" lon="-4.1337490000"><ele>160</ele><time>2016-10-15T09:07:56Z</time></trkpt>
<trkpt lat="53.1178580000" lon="-4.1337490000"><ele>160</ele><time>2016-10-15T09:07:57Z</time></trkpt>
<trkpt lat="53.1178580000" lon="-4.1337500000"><ele>160</ele><time>2016-10-15T09:07:58Z</time></trkpt>
<trkpt lat="53.1178580000" lon="-4.1337500000"><ele>160</ele><time>2016-10-15T09:07:59Z</time></trkpt>
<trkpt lat="53.1178570000" lon="-4.1337510000"><ele>160</ele><time>2016-10-15T09:08:00Z</time></trkpt>
<trkpt lat="53.1178560000" lon="-4.1337530000"><ele>160</ele><time>2016-10-15T09:08:01Z</time></trkpt>
<trkpt lat="53.1178550000" lon="-4.1337550000"><ele>161</ele><time>2016-10-15T09:08:02Z</time></trkpt>
<trkpt lat="53.1178540000" lon="-4.1337580000"><ele>161</ele><time>2016-10-15T09:08:03Z</time></trkpt>
<trkpt lat="53.1178520000" lon="-4.1337610000"><ele>161</ele><time>2016-10-15T09:08:04Z</time></trkpt>
<trkpt lat="53.1178500000" lon="-4.1337650000"><ele>161</ele><time>2016-10-15T09:08:05Z</time></trkpt>
<trkpt lat="53.1178480000" lon="-4.1337690000"><ele>161</ele><time>2016-10-15T09:08:06Z</time></trkpt>
<trkpt lat="53.1178460000" lon="-4.1337740000"><ele>161</ele><time>2016-10-15T09:08:07Z</time></trkpt>
<trkpt lat="53.1178430000" lon="-4.1337800000"><ele>162</ele><time>2016-10-15T09:08:08Z</time></trkpt>
<trkpt lat="53.1178410000" lon="-4.1337840000"><ele>162</ele><time>2016-10-15T09:08:09Z</time></trkpt>
<trkpt lat="53.1178380000" lon="-4.1337910000"><ele>162</ele><time>2016-10-15T09:08:10Z</time></trkpt>
<trkpt lat="53.1178350000" lon="-4.1337980000"><ele>162</ele><time>2016-10-15T09:08:11Z</time></trkpt>
<trkpt lat="53.1178310000" lon="-4.1338050000"><ele>162</ele><time>2016-10-15T09:08:12Z</time></trkpt>
<trkpt lat="53.1178280000" lon="-4.1338130000"><ele>162</ele><time>2016-10-15T09:08:13Z</time></trkpt>
<trkpt lat="53.1178240000" lon="-4.1338210000"><ele>162</ele><time>2016-10-15T09:08:14Z</time></trkpt>
<trkpt lat="53.1178200000" lon="-4.1338290000"><ele>162</ele><time>2016-10-15T09:08:15Z</time></trkpt>
<trkpt lat="53.1178160000" lon="-4.1338390000"><ele>162</ele><time>2016-10-15T09:08:16Z</time></trkpt>
<trkpt lat="53.1178120000" lon="-4.1338480000"><ele>163</ele><time>2016-10-15T09:08:17Z</time></trkpt>
<trkpt lat="53.1178080000" lon="-4.1338580000"><ele>163</ele><time>2016-10-15T09:08:18Z</time></trkpt>
<trkpt lat="53.1178030000" lon="-4.1338680000"><ele>163</ele><time>2016-10-15T09:08:19Z</time></trkpt>
<trkpt lat="53.1177990000" lon="-4.1338790000"><ele>163</ele><time>2016-10-15T09:08:20Z</time></trkpt>
<trkpt lat="53.1177940000" lon="-4.1338900000"><ele>163</ele><time>2016-10-15T09:08:21Z</time></trkpt>
<trkpt lat="53.1177890000" lon="-4.1339010000"><ele>163</ele><time>2016-10-15T09:08:22Z</time></trkpt>
<trkpt lat="53.1177840000" lon="-4.1339130000"><ele>163</ele><time>2016-10-15T09:08:23Z</time></trkpt>
<trkpt lat="53.1177790000" lon="-4.1339250000"><ele>163</ele><time>2016-10-15T09:08:24Z</time></trkpt>
<trkpt lat="53.1177740000" lon="-4.1339380000"><ele>163</ele><time>2016-10-15T09:08:26Z</time></trkpt>
<trkpt lat="53.1177690000" lon="-4.1339510000"><ele>163</ele></trkpt>
<trkpt lat="53.1177640000" lon="-4.1339630000"><ele>163</ele><time>2016-10-15T09:08:27Z</time></trkpt>
<trkpt lat="53.1177590000" lon="-4.1339760000"><ele>164</ele><time>2016-10-15T09:08:28Z</time></trkpt>
<trkpt lat="53.1177540000" lon="-4.1339890000"><ele>164</ele><time>2016-10-15T09:08:29Z</time></trkpt>
<trkpt lat="53.1177490000" lon="-4.1340020000"><ele>164</ele><time>2016-10-15T09:08:30Z</time></trkpt>
<trkpt lat="53.1176600000" lon="-4.1342310000"><ele>164</ele><time>2016-10-15T09:08:31Z</time></trkpt>
<trkpt lat="53.1176540000" lon="-4.1342460000"><ele>164</ele><time>2016-10-15T09:08:32Z</time></trkpt>
<trkpt lat="53.1176490000" lon="-4.1342590000"><ele>164</ele><time>2016-10-15T09:08:33Z</time></trkpt>
<trkpt lat="53.1176450000" lon="-4.1342700000"><ele>164</ele><time>2016-10-15T09:08:34Z</time></trkpt>
<trkpt lat="53.1176450000" lon="-4.1342700000"><ele>165</ele><time>2016-10-15T09:08:36Z</time></trkpt>
<trkpt lat="53.1176450000" lon="-4.1342710000"><ele>165</ele><time>2016-10-15T09:08:37Z</time></trkpt>
<trkpt lat="53.1176450000" lon="-4.1342720000"><ele>165</ele><time>2016-10-15T09:08:38Z</time></trkpt>
<trkpt lat="53.1176440000" lon="-4.1342730000"><ele>165</ele><time>2016-10-15T09:08:39Z</time></trkpt>
<trkpt lat="53.1176440000" lon="-4.1342750000"><ele>165</ele><time>2016-10-15T09:08:40Z</time></trkpt>
<trkpt lat="53.1176430000" lon="-4.1342780000"><ele>166</ele><time>2016-10-15T09:08:41Z</time></trkpt>
<trkpt lat="53.1176420000" lon="-4.1342810000"><ele>166</ele><time>2016-10-15T09:08:42Z</time></trkpt>
<trkpt lat="53.1176410000" lon="-4.1342850000"><ele>166</ele><time>2016-10-15T09:08:43Z</time></trkpt>
<trkpt lat="53.1176400000" lon="-4.1342900000"><ele>166</ele><time>2016-10-15T09:08:44Z</time></trkpt>
<trkpt lat="53.1176390000" lon="-4.1342960000"><ele>166</ele><time>2016-10-15T09:08:45Z</time></trkpt>
<trkpt lat="53.1176380000" lon="-4.1343020000"><ele>166</ele><time>2016-10-15T09:08:46Z</time></trkpt>
<trkpt lat="53.1176360000" lon="-4.1343090000"><ele>166</ele><time>2016-10-15T09:08:47Z</time></trkpt>
<trkpt lat="53.1176350000" lon="-4.1343170000"><ele>166</ele><time>2016-10-15T09:08:48Z</time></trkpt>
<trkpt lat="53.1176330000" lon="-4.1343250000"><ele>167</ele><time>2016-10-15T09:08:49Z</time></trkpt>
<trkpt lat="53.1176320000" lon="-4.1343350000"><ele>167</ele><time>2016-10-15T09:08:50Z</time></trkpt>
<trkpt lat="53.1176300000" lon="-4.1343440000"><ele>167</ele><time>2016-10-15T09:08:51Z</time></trkpt>
<trkpt lat="53.1176280000" lon="-4.1343550000"><ele>167</ele><time>2016-10-15T09:08:52Z</time></trkpt>
<trkpt lat="53.1176270000" lon="-4.1343650000"><ele>167</ele><time>2016-10-15T09:08:53Z</time></trkpt>
<trkpt lat="53.1176250000" lon="-4.1343760000"><ele>167</ele><time>2016-10-15T09:08:54Z</time></trkpt>
<trkpt lat="53.1176230000" lon="-4.1343880000"><ele>167</ele><time>2016-10-15T09:08:55Z</time></trkpt>
<trkpt lat="53.1176210000" lon="-4.1344000000"><ele>167</ele><time>2016-10-15T09:08:56Z</time></trkpt>
<trkpt lat="53.1176190000" lon="-4.1344120000"><ele>167</ele><time>2016-10-15T09:08:57Z</time></trkpt>
<trkpt lat="53.1176180000" lon="-4.1344250000"><ele>167</ele><time>2016-10-15T09:08:58Z</time></trkpt>
<trkpt lat="53.1176160000" lon="-4.1344360000"><ele>167</ele><time>2016-10-15T09:08:59Z</time></trkpt>
<trkpt lat="53.1176100000" lon="-4.1344750000"><ele>168</ele><time>2016-10-15T09:09:02Z</time></trkpt>
<trkpt lat="53.1176080000" lon="-4.1344900000"><ele>168</ele><time>2016-10-15T09:09:03Z</time></trkpt>
<trkpt lat="53.1175580000" lon="-4.1347900000"><ele>168</ele><time>2016-10-15T09:09:04Z</time></trkpt>
<trkpt lat="53.1175520000" lon="-4.1348120000"><ele>168</ele><time>2016-10-15T09:09:05Z</time></trkpt>
<trkpt lat="53.1175480000" lon="-4.1348310000"><ele>168</ele><time>2016-10-15T09:09:06Z</time></trkpt>
<trkpt lat="53.1175440000" lon="-4.1348530000"><ele>168</ele><time>2016-10-15T09:09:07Z</time></trkpt>
<trkpt lat="53.1175420000" lon="-4.1348720000"><ele>168</ele><time>2016-10-15T09:09:08Z</time></trkpt>
<trkpt lat="53.1175390000" lon="-4.1348900000"><ele>168</ele><time>2016-10-15T09:09:09Z</time></trkpt>
<trkpt lat="53.1175390000" lon="-4.1348900000"><ele>168</ele><time>2016-10-15T09:09:10Z</time></trkpt>
<trkpt lat="53.1175390000" lon="-4.1348900000"><ele>169</ele><time>2016-10-15T09:09:11Z</time></trkpt>
<trkpt lat="53.1175390000" lon="-4.1348910000"><ele>169</ele><time>2016-10-15T09:09:12Z</time></trkpt>
<trkpt lat="53.1175390000" lon="-4.1348920000"><ele>169</ele><time>2016-10-15T09:09:13Z</time></trkpt>
<trkpt lat="53.1175380000" lon="-4.1348940000"><ele>169</ele><time>2016-10-15T09:09:14Z</time></trkpt>
<trkpt lat="53.1175380000" lon="-4.1348970000"><ele>169</ele><time>2016-10-15T09:09:15Z</time></trkpt>
<trkpt lat="53.1175370000" lon="-4.1349010000"><ele>170</ele><time>2016-10-15T09:09:16Z</time></trkpt>
<trkpt lat="53.1175360000" lon="-4.1349050000"><ele>170</ele><time>2016-10-15T09:09:17Z</time></trkpt>
<trkpt lat="53.1175340000" lon="-4.1349100000"><ele>170</ele><time>2016-10-15T09:09:18Z</time></trkpt>
<trkpt lat="53.1175330000" lon="-4.1349160000"><ele>170</ele><time>2016-10-15T09:09:19Z</time></trkpt>
<trkpt lat="53.1175310000" lon="-4.1349230000"><ele>170</ele><time>2016-10-15T09:09:20Z</time></trkpt>
<trkpt lat="53.1175290000" lon="-4.1349310000"><ele>171</ele><time>2016-10-15T09:09:21Z</time></trkpt>
<trkpt lat="53.1175270000" lon="-4.1349390000"><ele>171</ele><time>2016-10-15T09:09:22Z</time></trkpt>
<trkpt lat="53.1175240000" lon="-4.1349480000"><ele>171</ele><time>2016-10-15T09:09:23Z</time></trkpt>
<trkpt lat="53.1175210000" lon="-4.1349580000"><ele>171</ele><time>2016-10-15T09:09:24Z</time></trkpt>
<trkpt lat="53.1175180000" lon="-4.1349680000"><ele>171</ele><time>2016-10-15T09:09:26Z</time></trkpt>
<trkpt lat="53.1175150000" lon="-4.1349790000"><ele>171</ele></trkpt>
<trkpt lat="53.1175120000" lon="-4.1349900000"><ele>171</ele><time>2016-10-15T09:09:27Z</time></trkpt>
<trkpt lat="53.1175090000" lon="-4.1350010000"><ele>171</ele><time>2016-10-15T09:09:28Z</time></trkpt>
<trkpt lat="53.1175050000" lon="-4.1350130000"><ele>171</ele><time>2016-10-15T09:09:29Z</time></trkpt>
<trkpt lat="53.1175010000" lon="-4.1350250000"><ele>171</ele><time>2016-10-15T09:09:30Z</time></trkpt>
<trkpt lat="53.1174980000" lon="-4.1350380000"><ele>172</ele><time>2016-10-15T09:09:31Z</time></trkpt>
<trkpt lat="53.1174930000" lon="-4.1350510000"><ele>172</ele><time>2016-10-15T09:09:32Z</time></trkpt>
<trkpt lat="53.1174890000" lon="-4.1350640000"><ele>172</ele><time>2016-10-15T09:09:33Z</time></trkpt>
<trkpt lat="53.1174850000" lon="-4.1350780000"><ele>172</ele><time>2016-10-15T09:09:34Z</time></trkpt>
<trkpt lat="53.1174810000" lon="-4.1350920000"><ele>172</ele><time>2016-10-15T09:09:35Z</time></trkpt>
<trkpt lat="53.1173970000" lon="-4.1353650000"><ele>172</ele><time>2016-10-15T09:09:36Z</time></trkpt>
<trkpt lat="53.1173930000" lon="-4.1353790000"><ele>172</ele><time>2016-10-15T09:09:37Z</time></trkpt>
<trkpt lat="53.1173870000" lon="-4.1353930000"><ele>172</ele><time>2016-10-15T09:09:38Z</time></trkpt>
<trkpt lat="53.1173870000" lon="-4.1353930000"><ele>173</ele><time>2016-10-15T09:09:39Z</time></trkpt>
<trkpt lat="53.1173870000" lon="-4.1353930000"><ele>173</ele><time>2016-10-15T09:09:40Z</time></trkpt>
<trkpt lat="53.1173870000" lon="-4.1353940000"><ele>173</ele><time>2016-10-15T09:09:41Z</time></trkpt>
<trkpt lat="53.1173860000" lon="-4.1353950000"><ele>173</ele><time>2016-10-15T09:09:42Z</time></trkpt>
<trkpt lat="53.1173860000" lon="-4.1353960000"><ele>173</ele><time>2016-10-15T09:09:43Z</time></trkpt>
<trkpt lat="53.1173850000" lon="-4.1353980000"><ele>173</ele><time>2016-10-15T09:09:44Z</time></trkpt>
<trkpt lat="53.1173840000" lon="-4.1354010000"><ele>174</ele><time>2016-10-15T09:09:45Z</time></trkpt>
<trkpt lat="53.1173820000" lon="-4.1354040000"><ele>174</ele><time>2016-10-15T09:09:46Z</time></trkpt>
<trkpt lat="53.1173810000" lon="-4.1354070000"><ele>174</ele><time>2016-10-15T09:09:47Z</time></trkpt>
<trkpt lat="53.1173790000" lon="-4.1354110000"><ele>174</ele><time>2016-10-15T09:09:48Z</time></trkpt>
<trkpt lat="53.1173770000" lon="-4.1354160000"><ele>174</ele><time>2016-10-15T09:09:49Z</time></trkpt>
<trkpt lat="53.1173750000" lon="-4.1354210000"><ele>175</ele><time>2016-10-15T09:09:50Z</time></trkpt>
<trkpt lat="53.1173720000" lon="-4.1354270000"><ele>175</ele><time>2016-10-15T09:09:51Z</time></trkpt>
<trkpt lat="53.1173700000" lon="-4.1354330000"><ele>175</ele><time>2016-10-15T09:09:52Z</time></trkpt>
<trkpt lat="53.1173670000" lon="-4.1354400000"><ele>175</ele><time>2016-10-15T09:09:53Z</time></trkpt>
<trkpt lat="53.1173640000" lon="-4.1354480000"><ele>176</ele><time>2016-10-15T09:09:54Z</time></trkpt>
<trkpt lat="53.1173600000" lon="-4.1354560000"><ele>176</ele><time>2016-10-15T09:09:55Z</time></trkpt>
<trkpt lat="53.1173570000" lon="-4.1354650000"><ele>176</ele><time>2016-10-15T09:09:56Z</time></trkpt>
<trkpt lat="53.1173530000" lon="-4.1354740000"><ele>176</ele><time>2016-10-15T09:09:57Z</time></trkpt>
<trkpt lat="53.1173490000" lon="-4.1354840000"><ele>177</ele><time>2016-10-15T09:09:58Z</time></trkpt>
<trkpt lat="53.1173450000" lon="-4.1354950000"><ele>177</ele><time>2016-10-15T09:09:59Z</time></trkpt>
<trkpt lat="53.1173400000" lon="-4.1355060000"><ele>177</ele><time>2016-10-15T09:10:00Z</time></trkpt>
<trkpt lat="53.1173360000" lon="-4.1355180000"><ele>177</ele><time>2016-10-15T09:10:01Z</time></trkpt>
<trkpt lat="53.1173310000" lon="-4.1355310000"><ele>177</ele><time>2016-10-15T09:10:02Z</time></trkpt>
<trkpt lat="53.1173260000" lon="-4.1355430000"><ele>178</ele><time>2016-10-15T09:10:03Z</time></trkpt>
<trkpt lat="53.1173210000" lon="-4.1355570000"><ele>178</ele><time>2016-10-15T09:10:04Z</time></trkpt>
<trkpt lat="53.1173160000" lon="-4.1355700000"><ele>178</ele><time>2016-10-15T09:10:05Z</time></trkpt>
<trkpt lat="53.1172190000" lon="-4.1358220000"><ele>178</ele><time>2016-10-15T09:10:06Z</time></trkpt>
<trkpt lat="53.1172120000" lon="-4.1358390000"><ele>178</ele><time>2016-10-15T09:10:07Z</time></trkpt>
<trkpt lat="53.1172040000" lon="-4.1358550000"><ele>179</ele><time>2016-10-15T09:10:08Z</time></trkpt>
<trkpt lat="53.1171960000" lon="-4.1358730000"><ele>179</ele><time>2016-10-15T09:10:09Z</time></trkpt>
<trkpt lat="53.1171910000" lon="-4.1358900000"><ele>179</ele><time>2016-10-15T09:10:10Z</time></trkpt>
<trkpt lat="53.1171840000" lon="-4.1359070000"><ele>179</ele><time>2016-10-15T09:10:11Z</time></trkpt>
<trkpt lat="53.1171770000" lon="-4.1359250000"><ele>180</ele><time>2016-10-15T09:10:12Z</time></trkpt>
<trkpt lat="53.1171700000" lon="-4.1359420000"><ele>180</ele><time>2016-10-15T09:10:13Z</time></trkpt>
<trkpt lat="53.1171650000" lon="-4.1359590000"><ele>180</ele><time>2016-10-15T09:10:14Z</time></trkpt>
<trkpt lat="53.1171590000" lon="-4.1359780000"><ele>180</ele><time>2016-10-15T09:10:15Z</time></trkpt>
<trkpt lat="53.1171520000" lon="-4.1359970000"><ele>180</ele><time>2016-10-15T09:10:16Z</time></trkpt>
<trkpt lat="53.1171460000" lon="-4.1360140000"><ele>181</ele><time>2016-10-15T09:10:17Z</time></trkpt>
<trkpt lat="53.1171380000" lon="-4.1360340000"><ele>181</ele><time>2016-10-15T09:10:18Z</time></trkpt>
<trkpt lat="53.1171300000" lon="-4.1360500000"><ele>181</ele><time>2016-10-15T09:10:19Z</time></trkpt>
<trkpt lat="53.1171220000" lon="-4.1360660000"><ele>181</ele><time>2016-10-15T09:10:20Z</time></trkpt>
<trkpt lat="53.1171140000" lon="-4.1360850000"><ele>181</ele><time>2016-10-15T09:10:21Z</time></trkpt>
<trkpt lat="53.1171080000" lon="-4.1360990000"><ele>182</ele><time>2016-10-15T09:10:22Z</time></trkpt>
<trkpt lat="53.1171010000" lon="-4.1361130000"><ele>182</ele><time>2016-10-15T09:10:23Z</time></trkpt>
<trkpt lat="53.1171010000" lon="-4.1361130000"><ele>182</ele><time>2016-10-15T09:10:24Z</time></trkpt>
<trkpt lat="53.1171010000" lon="-4.1361130000"><ele>182</ele><time>2016-10-15T09:10:26Z</time></trkpt>
<trkpt lat="53.1171010000" lon="-4.1361140000"><ele>182</ele></trkpt>
<trkpt lat="53.1171000000" lon="-4.1361150000"><ele>183</ele><time>2016-10-15T09:10:27Z</time></trkpt>
<trkpt lat="53.1170990000" lon="-4.1361170000"><ele>183</ele><time>2016-10-15T09:10:28Z</time></trkpt>
<trkpt lat="53.1170980000" lon="-4.1361180000"><ele>183</ele><time>2016-10-15T09:10:29Z</time></trkpt>
<trkpt lat="53.1170970000" lon="-4.1361210000"><ele>183</ele><time>2016-10-15T09:10:30Z</time></trkpt>
<trkpt lat="53.1170950000" lon="-4.1361230000"><ele>183</ele><time>2016-10-15T09:10:31Z</time></trkpt>
<trkpt lat="53.1170930000" lon="-4.1361260000"><ele>184</ele><time>2016-10-15T09:10:32Z</time></trkpt>
<trkpt lat="53.1170900000" lon="-4.1361300000"><ele>184</ele><time>2016-10-15T09:10:33Z</time></trkpt>
<trkpt lat="53.1170880000" lon="-4.1361350000"><ele>184</ele><time>2016-10-15T09:10:34Z</time></trkpt>
<trkpt lat="53.1170850000" lon="-4.1361400000"><ele>184</ele><time>2016-10-15T09:10:35Z</time></trkpt>
<trkpt lat="53.1170820000" lon="-4.1361460000"><ele>184</ele><time>2016-10-15T09:10:36Z</time></trkpt>
<trkpt lat="53.1170780000" lon="-4.1361530000"><ele>184</ele><time>2016-10-15T09:10:37Z</time></trkpt>
<trkpt lat="53.1170740000" lon="-4.1361600000"><ele>184</ele><time>2016-10-15T09:10:38Z</time></trkpt>
<trkpt lat="53.1170700000" lon="-4.1361680000"><ele>184</ele><time>2016-10-15T09:10:39Z</time></trkpt>
<trkpt lat="53.1170660000" lon="-4.1361760000"><ele>185</ele><time>2016-10-15T09:10:40Z</time></trkpt>
<trkpt lat="53.1170620000" lon="-4.1361840000"><ele>185</ele><time>2016-10-15T09:10:41Z</time></trkpt>
<trkpt lat="53.1170570000" lon="-4.1361920000"><ele>185</ele><time>2016-10-15T09:10:42Z</time></trkpt>
<trkpt lat="53.1170520000" lon="-4.1362010000"><ele>185</ele><time>2016-10-15T09:10:43Z</time></trkpt>
<trkpt lat="53.1170480000" lon="-4.1362110000"><ele>185</ele><time>2016-10-15T09:10:44Z</time></trkpt>
<trkpt lat="53.1170430000" lon="-4.1362210000"><ele>185</ele><time>2016-10-15T09:10:45Z</time></trkpt>
<trkpt lat="53.1170370000" lon="-4.1362310000"><ele>185</ele><time>2016-10-15T09:10:46Z</time></trkpt>
<trkpt lat="53.1170320000" lon="-4.1362420000"><ele>185</ele><time>2016-10-15T09:10:47Z</time></trkpt>
<trkpt lat="53.1170270000" lon="-4.1362530000"><ele>185</ele><time>2016-10-15T09:10:48Z</time></trkpt>
<trkpt lat="53.1170210000" lon="-4.1362640000"><ele>185</ele><time>2016-10-15T09:10:49Z</time></trkpt>
<trkpt lat="53.1170160000" lon="-4.1362750000"><ele>185</ele><time>2016-10-15T09:10:50Z</time></trkpt>
<trkpt lat="53.1170100000" lon="-4.1362870000"><ele>185</ele><time>2016-10-15T09:10:51Z</time></trkpt>
<trkpt lat="53.1170040000" lon="-4.1362990000"><ele>186</ele><time>2016-10-15T09:10:52Z</time></trkpt>
<trkpt lat="53.1169990000" lon="-4.1363110000"><ele>186</ele><time>2016-10-15T09:10:53Z</time></trkpt>
<trkpt lat="53.1169940000" lon="-4.1363240000"><ele>186</ele><time>2016-10-15T09:10:54Z</time></trkpt>
<trkpt lat="53.1169880000" lon="-4.1363360000"><ele>186</ele><time>2016-10-15T09:10:55Z</time></trkpt>
<trkpt lat="53.1169830000" lon="-4.1363490000"><ele>186</ele><time>2016-10-15T09:10:56Z</time></trkpt>
<trkpt lat="53.1169780000" lon="-4.1363610000"><ele>186</ele><time>2016-10-15T09:10:57Z</time></trkpt>
<trkpt lat="53.1169740000" lon="-4.1363730000"><ele>186</ele><time>2016-10-15T09:10:58Z</time></trkpt>
<trkpt lat="53.1169700000" lon="-4.1363860000"><ele>186</ele><time>2016-10-15T09:10:59Z</time></trkpt>
<trkpt lat="53.1169670000" lon="-4.1363980000"><ele>186</ele><time>2016-10-15T09:11:00Z</time></trkpt>
<trkpt lat="53.1169630000" lon="-4.1364110000"><ele>186</ele><time>2016-10-15T09:11:01Z</time></trkpt>
<trkpt lat="53.1169600000" lon="-4.1364240000"><ele>186</ele><time>2016-10-15T09:11:02Z</time></trkpt>
<trkpt lat="53.1169570000" lon="-4.1364380000"><ele>186</ele><time>2016-10-15T09:11:03Z</time></trkpt>
<trkpt lat="53.1169540000" lon="-4.1364520000"><ele>187</ele><time>2016-10-15T09:11:04Z</time></trkpt>
<trkpt lat="53.1169510000" lon="-4.1364660000"><ele>187</ele><time>2016-10-15T09:11:05Z</time></trkpt>
<trkpt lat="53.1169480000" lon="-4.1364800000"><ele>187</ele><time>2016-10-15T09:11:06Z</time></trkpt>
<trkpt lat="53.1168960000" lon="-4.1367510000"><ele>187</ele><time>2016-10-15T09:11:07Z</time></trkpt>
<trkpt lat="53.1168950000" lon="-4.1367730000"><ele>187</ele><time>2016-10-15T09:11:08Z</time></trkpt>
<trkpt lat="53.1168960000" lon="-4.1367930000"><ele>187</ele><time>2016-10-15T09:11:09Z</time></trkpt>
<trkpt lat="53.1168950000" lon="-4.1368140000"><ele>187</ele><time>2016-10-15T09:11:10Z</time></trkpt>
<trkpt lat="53.1168920000" lon="-4.1368370000"><ele>187</ele><time>2016-10-15T09:11:11Z</time></trkpt>
<trkpt lat="53.1168870000" lon="-4.1370340000"><ele>187</ele><time>2016-10-15T09:11:21Z</time></trkpt>
<trkpt lat="53.1168840000" lon="-4.1370860000"><ele>188</ele><time>2016-10-15T09:11:25Z</time></trkpt>
<trkpt lat="53.1168850000" lon="-4.1371290000"><ele>192</ele><time>2016-10-15T09:11:45Z</time></trkpt>
<trkpt lat="53.1168820000" lon="-4.1371790000"><ele>193</ele><time>2016-10-15T09:11:51Z</time></trkpt>
<trkpt lat="53.1168530000" lon="-4.1373610000"><ele>194</ele><time>2016-10-15T09:11:52Z</time></trkpt>
<trkpt lat="53.1168400000" lon="-4.1373900000"><ele>194</ele><time>2016-10-15T09:11:55Z</time></trkpt>
<trkpt lat="53.1168390000" lon="-4.1373910000"><ele>194</ele><time>2016-10-15T09:11:56Z</time></trkpt>
<trkpt lat="53.1168390000" lon="-4.1373910000"><ele>194</ele><time>2016-10-15T09:11:57Z</time></trkpt>
<trkpt lat="53.1168390000" lon="-4.1373920000"><ele>194</ele><time>2016-10-15T09:11:58Z</time></trkpt>
<trkpt lat="53.1168380000" lon="-4.1373930000"><ele>194</ele><time>2016-10-15T09:11:59Z</time></trkpt>
<trkpt lat="53.1168380000" lon="-4.1373950000"><ele>194</ele><time>2016-10-15T09:12:00Z</time></trkpt>
<trkpt lat="53.1168370000" lon="-4.1373970000"><ele>195</ele><time>2016-10-15T09:12:01Z</time></trkpt>
<trkpt lat="53.1168360000" lon="-4.1373990000"><ele>195</ele><time>2016-10-15T09:12:02Z</time></trkpt>
<trkpt lat="53.1168350000" lon="-4.1374030000"><ele>195</ele><time>2016-10-15T09:12:03Z</time></trkpt>
<trkpt lat="53.1168330000" lon="-4.1374060000"><ele>195</ele><time>2016-10-15T09:12:04Z</time></trkpt>
<trkpt lat="53.1168310000" lon="-4.1374110000"><ele>195</ele><time>2016-10-15T09:12:05Z</time></trkpt>
<trkpt lat="53.1168290000" lon="-4.1374160000"><ele>195</ele><time>2016-10-15T09:12:06Z</time></trkpt>
<trkpt lat="53.1168270000" lon="-4.1374220000"><ele>196</ele><time>2016-10-15T09:12:07Z</time></trkpt>
<trkpt lat="53.1168250000" lon="-4.1374280000"><ele>196</ele><time>2016-10-15T09:12:08Z</time></trkpt>
<trkpt lat="53.1168220000" lon="-4.1374350000"><ele>196</ele><time>2016-10-15T09:12:09Z</time></trkpt>
<trkpt lat="53.1168190000" lon="-4.1374430000"><ele>196</ele><time>2016-10-15T09:12:10Z</time></trkpt>
<trkpt lat="53.1168160000" lon="-4.1374510000"><ele>196</ele><time>2016-10-15T09:12:11Z</time></trkpt>
<trkpt lat="53.1168130000" lon="-4.1374590000"><ele>196</ele><time>2016-10-15T09:12:12Z</time></trkpt>
<trkpt lat="53.1168090000" lon="-4.1374670000"><ele>196</ele><time>2016-10-15T09:12:13Z</time></trkpt>
<trkpt lat="53.1168060000" lon="-4.1374760000"><ele>197</ele><time>2016-10-15T09:12:14Z</time></trkpt>
<trkpt lat="53.1168020000" lon="-4.1374860000"><ele>197</ele><time>2016-10-15T09:12:15Z</time></trkpt>
<trkpt lat="53.1167980000" lon="-4.1374950000"><ele>197</ele><time>2016-10-15T09:12:16Z</time></trkpt>
<trkpt lat="53.1167940000" lon="-4.1375050000"><ele>197</ele><time>2016-10-15T09:12:17Z</time></trkpt>
<trkpt lat="53.1167900000" lon="-4.1375150000"><ele>197</ele><time>2016-10-15T09:12:18Z</time></trkpt>
<trkpt lat="53.1167860000" lon="-4.1375240000"><ele>197</ele><time>2016-10-15T09:12:19Z</time></trkpt>
<trkpt lat="53.1167820000" lon="-4.1375340000"><ele>197</ele><time>2016-10-15T09:12:20Z</time></trkpt>
<trkpt lat="53.1167780000" lon="-4.1375450000"><ele>197</ele><time>2016-10-15T09:12:21Z</time></trkpt>
<trkpt lat="53.1167730000" lon="-4.1375550000"><ele>198</ele><time>2016-10-15T09:12:22Z</time></trkpt>
<trkpt lat="53.1167690000" lon="-4.1375650000"><ele>198</ele><time>2016-10-15T09:12:23Z</time></trkpt>
<trkpt lat="53.1167650000" lon="-4.1375760000"><ele>198</ele><time>2016-10-15T09:12:24Z</time></trkpt>
<trkpt lat="53.1167600000" lon="-4.1375870000"><ele>198</ele><time>2016-10-15T09:12:25Z</time></trkpt>
<trkpt lat="53.1167550000" lon="-4.1375980000"><ele>198</ele><time>2016-10-15T09:12:26Z</time></trkpt>
<trkpt lat="53.1167510000" lon="-4.1376090000"><ele>198</ele><time>2016-10-15T09:12:27Z</time></trkpt>
<trkpt lat="53.1167460000" lon="-4.1376210000"><ele>198</ele><time>2016-10-15T09:12:28Z</time></trkpt>
<trkpt lat="53.1167400000" lon="-4.1376330000"><ele>199</ele><time>2016-10-15T09:12:29Z</time></trkpt>
<trkpt lat="53.1167350000" lon="-4.1376450000"><ele>199</ele><time>2016-10-15T09:12:30Z</time></trkpt>
<trkpt lat="53.1167290000" lon="-4.1376560000"><ele>199</ele><time>2016-10-15T09:12:31Z</time></trkpt>
<trkpt lat="53.1167230000" lon="-4.1376680000"><ele>199</ele><time>2016-10-15T09:12:32Z</time></trkpt>
<trkpt lat="53.1167170000" lon="-4.1376800000"><ele>199</ele><time>2016-10-15T09:12:33Z</time></trkpt>
<trkpt lat="53.1167120000" lon="-4.1376910000"><ele>199</ele><time>2016-10-15T09:12:34Z</time></trkpt>
<trkpt lat="53.1167060000" lon="-4.1377020000"><ele>199</ele><time>2016-10-15T09:12:35Z</time></trkpt>
<trkpt lat="53.1167000000" lon="-4.1377130000"><ele>200</ele><time>2016-10-15T09:12:36Z</time></trkpt>
<trkpt lat="53.1166940000" lon="-4.1377240000"><ele>200</ele><time>2016-10-15T09:12:37Z</time></trkpt>
<trkpt lat="53.1166810000" lon="-4.1377460000"><ele>200</ele><time>2016-10-15T09:12:39Z</time></trkpt>
<trkpt lat="53.1165610000" lon="-4.1379270000"><ele>200</ele><time>2016-10-15T09:12:40Z</time></trkpt>
<trkpt lat="53.1165510000" lon="-4.1379280000"><ele>200</ele><time>2016-10-15T09:12:41Z</time></trkpt>
<trkpt lat="53.1165430000" lon="-4.1379330000"><ele>200</ele><time>2016-10-15T09:12:42Z</time></trkpt>
<trkpt lat="53.1165430000" lon="-4.1379330000"><ele>200</ele><time>2016-10-15T09:12:43Z</time></trkpt>
<trkpt lat="53.1165430000" lon="-4.1379330000"><ele>200</ele><time>2016-10-15T09:12:44Z</time></trkpt>
<trkpt lat="53.1165430000" lon="-4.1379330000"><ele>200</ele><time>2016-10-15T09:12:45Z</time></trkpt>
<trkpt lat="53.1165420000" lon="-4.1379330000"><ele>200</ele><time>2016-10-15T09:12:46Z</time></trkpt>
<trkpt lat="53.1165410000" lon="-4.1379330000"><ele>200</ele><time>2016-10-15T09:12:47Z</time></trkpt>
<trkpt lat="53.1165400000" lon="-4.1379340000"><ele>200</ele><time>2016-10-15T09:12:48Z</time></trkpt>
<trkpt lat="53.1165380000" lon="-4.1379340000"><ele>200</ele><time>2016-10-15T09:12:49Z</time></trkpt>
<trkpt lat="53.1165360000" lon="-4.1379350000"><ele>200</ele><time>2016-10-15T09:12:50Z</time></trkpt>
<trkpt lat="53.1165340000" lon="-4.1379350000"><ele>200</ele><time>2016-10-15T09:12:51Z</time></trkpt>
<trkpt lat="53.1165310000" lon="-4.1379360000"><ele>200</ele><time>2016-10-15T09:12:52Z</time></trkpt>
<trkpt lat="53.1165280000" lon="-4.1379370000"><ele>200</ele><time>2016-10-15T09:12:53Z</time></trkpt>
<trkpt lat="53.1165240000" lon="-4.1379390000"><ele>201</ele><time>2016-10-15T09:12:54Z</time></trkpt>
<trkpt lat="53.1165200000" lon="-4.1379400000"><ele>201</ele><time>2016-10-15T09:12:55Z</time></trkpt>
<trkpt lat="53.1165150000" lon="-4.1379420000"><ele>201</ele><time>2016-10-15T09:12:56Z</time></trkpt>
<trkpt lat="53.1165100000" lon="-4.1379440000"><ele>201</ele><time>2016-10-15T09:12:57Z</time></trkpt>
<trkpt lat="53.1165040000" lon="-4.1379450000"><ele>201</ele><time>2016-10-15T09:12:58Z</time></trkpt>
<trkpt lat="53.1164980000" lon="-4.1379470000"><ele>201</ele><time>2016-10-15T09:12:59Z</time></trkpt>
<trkpt lat="53.1164920000" lon="-4.1379480000"><ele>201</ele><time>2016-10-15T09:13:00Z</time></trkpt>
<trkpt lat="53.1164860000" lon="-4.1379480000"><ele>201</ele><time>2016-10-15T09:13:01Z</time></trkpt>
<trkpt lat="53.1164810000" lon="-4.1379480000"><ele>201</ele><time>2016-10-15T09:13:02Z</time></trkpt>
<trkpt lat="53.1164750000" lon="-4.1379480000"><ele>201</ele><time>2016-10-15T09:13:03Z</time></trkpt>
<trkpt lat="53.1164700000" lon="-4.1379480000"><ele>201</ele><time>2016-10-15T09:13:04Z</time></trkpt>
<trkpt lat="53.1164650000" lon="-4.1379480000"><ele>201</ele><time>2016-10-15T09:13:05Z</time></trkpt>
<trkpt lat="53.1164600000" lon="-4.1379480000"><ele>201</ele><time>2016-10-15T09:13:06Z</time></trkpt>
<trkpt lat="53.1164550000" lon="-4.1379480000"><ele>202</ele><time>2016-10-15T09:13:07Z</time></trkpt>
<trkpt lat="53.1164510000" lon="-4.1379490000"><ele>202</ele><time>2016-10-15T09:13:08Z</time></trkpt>
<trkpt lat="53.1164460000" lon="-4.1379500000"><ele>202</ele><time>2016-10-15T09:13:09Z</time></trkpt>
<trkpt lat="53.1164410000" lon="-4.1379520000"><ele>202</ele><time>2016-10-15T09:13:10Z</time></trkpt>
<trkpt lat="53.1164360000" lon="-4.1379540000"><ele>202</ele><time>2016-10-15T09:13:11Z</time></trkpt>
<trkpt lat="53.1164300000" lon="-4.1379560000"><ele>202</ele><time>2016-10-15T09:13:12Z</time></trkpt>
<trkpt lat="53.1164240000" lon="-4.1379580000"><ele>203</ele><time>2016-10-15T09:13:13Z</time></trkpt>
<trkpt lat="53.1164180000" lon="-4.1379610000"><ele>203</ele><time>2016-10-15T09:13:14Z</time></trkpt>
<trkpt lat="53.1164120000" lon="-4.1379640000"><ele>203</ele><time>2016-10-15T09:13:15Z</time></trkpt>
<trkpt lat="53.1164060000" lon="-4.1379660000"><ele>203</ele><time>2016-10-15T09:13:16Z</time></trkpt>
<trkpt lat="53.1163990000" lon="-4.1379690000"><ele>203</ele><time>2016-10-15T09:13:17Z</time></trkpt>
<trkpt lat="53.1163930000" lon="-4.1379720000"><ele>203</ele><time>2016-10-15T09:13:18Z</time></trkpt>
<trkpt lat="53.1163860000" lon="-4.1379750000"><ele>204</ele><time>2016-10-15T09:13:19Z</time></trkpt>
<trkpt lat="53.1163790000" lon="-4.1379780000"><ele>204</ele><time>2016-10-15T09:13:20Z</time></trkpt>
<trkpt lat="53.1163730000" lon="-4.1379820000"><ele>204</ele><time>2016-10-15T09:13:21Z</time></trkpt>
<trkpt lat="53.1163660000" lon="-4.1379850000"><ele>204</ele><time>2016-10-15T09:13:22Z</time></trkpt>
<trkpt lat="53.1163590000" lon="-4.1379890000"><ele>204</ele><time>2016-10-15T09:13:23Z</time></trkpt>
<trkpt lat="53.1163520000" lon="-4.1379930000"><ele>205</ele><time>2016-10-15T09:13:24Z</time></trkpt>
<trkpt lat="53.1163440000" lon="-4.1379970000"><ele>205</ele><time>2016-10-15T09:13:25Z</time></trkpt>
<trkpt lat="53.1163370000" lon="-4.1380020000"><ele>205</ele><time>2016-10-15T09:13:26Z</time></trkpt>
<trkpt lat="53.1163300000" lon="-4.1380060000"><ele>205</ele><time>2016-10-15T09:13:27Z</time></trkpt>
<trkpt lat="53.1163230000" lon="-4.1380110000"><ele>205</ele><time>2016-10-15T09:13:28Z</time></trkpt>
<trkpt lat="53.1163160000" lon="-4.1380160000"><ele>205</ele><time>2016-10-15T09:13:29Z</time></trkpt>
<trkpt lat="53.1163090000" lon="-4.1380210000"><ele>206</ele><time>2016-10-15T09:13:30Z</time></trkpt>
<trkpt lat="53.1163020000" lon="-4.1380260000"><ele>206</ele><time>2016-10-15T09:13:31Z</time></trkpt>
<trkpt lat="53.1162940000" lon="-4.1380320000"><ele>206</ele><time>2016-10-15T09:13:32Z</time></trkpt>
<trkpt lat="53.1162870000" lon="-4.1380380000"><ele>206</ele><time>2016-10-15T09:13:33Z</time></trkpt>
<trkpt lat="53.1162800000" lon="-4.1380450000"><ele>207</ele><time>2016-10-15T09:13:34Z</time></trkpt>
<trkpt lat="53.1162730000" lon="-4.1380510000"><ele>207</ele><time>2016-10-15T09:13:35Z</time></trkpt>
<trkpt lat="53.1162650000" lon="-4.1380580000"><ele>207</ele><time>2016-10-15T09:13:36Z</time></trkpt>
<trkpt lat="53.1162580000" lon="-4.1380650000"><ele>207</ele><time>2016-10-15T09:13:37Z</time></trkpt>
<trkpt lat="53.1162430000" lon="-4.1380800000"><ele>208</ele><time>2016-10-15T09:13:39Z</time></trkpt>
<trkpt lat="53.1162070000" lon="-4.1381140000"><ele>209</ele><time>2016-10-15T09:13:44Z</time></trkpt>
<trkpt lat="53.1160690000" lon="-4.1382270000"><ele>210</ele><time>2016-10-15T09:13:45Z</time></trkpt>
<trkpt lat="53.1160410000" lon="-4.1382300000"><ele>212</ele><time>2016-10-15T09:13:54Z</time></trkpt>
<trkpt lat="53.1160170000" lon="-4.1382460000"><ele>214</ele><time>2016-10-15T09:14:05Z</time></trkpt>
<trkpt lat="53.1159040000" lon="-4.1383370000"><ele>214</ele><time>2016-10-15T09:14:07Z</time></trkpt>
<trkpt lat="53.1158820000" lon="-4.1383600000"><ele>214</ele><time>2016-10-15T09:14:09Z</time></trkpt>
<trkpt lat="53.1158070000" lon="-4.1383950000"><ele>211</ele><time>2016-10-15T09:14:55Z</time></trkpt>
<trkpt lat="53.1157660000" lon="-4.1384470000"><ele>211</ele><time>2016-10-15T09:14:56Z</time></trkpt>
<trkpt lat="53.1157390000" lon="-4.1384530000"><ele>211</ele><time>2016-10-15T09:14:59Z</time></trkpt>
<trkpt lat="53.1157190000" lon="-4.1384600000"><ele>211</ele><time>2016-10-15T09:15:06Z</time></trkpt>
<trkpt lat="53.1156980000" lon="-4.1384680000"><ele>212</ele><time>2016-10-15T09:15:14Z</time></trkpt>
<trkpt lat="53.1155730000" lon="-4.1385300000"><ele>212</ele><time>2016-10-15T09:15:16Z</time></trkpt>
<trkpt lat="53.1155540000" lon="-4.1385460000"><ele>213</ele><time>2016-10-15T09:15:18Z</time></trkpt>
<trkpt lat="53.1155450000" lon="-4.1385520000"><ele>213</ele><time>2016-10-15T09:15:19Z</time></trkpt>
<trkpt lat="53.1155450000" lon="-4.1385520000"><ele>213</ele><time>2016-10-15T09:15:20Z</time></trkpt>
<trkpt lat="53.1155450000" lon="-4.1385520000"><ele>213</ele><time>2016-10-15T09:15:21Z</time></trkpt>
<trkpt lat="53.1155450000" lon="-4.1385520000"><ele>213</ele><time>2016-10-15T09:15:22Z</time></trkpt>
<trkpt lat="53.1155440000" lon="-4.1385530000"><ele>213</ele><time>2016-10-15T09:15:23Z</time></trkpt>
<trkpt lat="53.1155430000" lon="-4.1385530000"><ele>213</ele><time>2016-10-15T09:15:24Z</time></trkpt>
<trkpt lat="53.1155420000" lon="-4.1385540000"><ele>213</ele><time>2016-10-15T09:15:25Z</time></trkpt>
<trkpt lat="53.1155410000" lon="-4.1385560000"><ele>214</ele><time>2016-10-15T09:15:26Z</time></trkpt>
<trkpt lat="53.1155390000" lon="-4.1385580000"><ele>214</ele><time>2016-10-15T09:15:27Z</time></trkpt>
<trkpt lat="53.1155360000" lon="-4.1385600000"><ele>214</ele><time>2016-10-15T09:15:28Z</time></trkpt>
<trkpt lat="53.1155340000" lon="-4.1385620000"><ele>214</ele><time>2016-10-15T09:15:29Z</time></trkpt>
<trkpt lat="53.1155310000" lon="-4.1385640000"><ele>214</ele><time>2016-10-15T09:15:30Z</time></trkpt>
<trkpt lat="53.1155270000" lon="-4.1385670000"><ele>214</ele><time>2016-10-15T09:15:31Z</time></trkpt>
<trkpt lat="53.1155230000" lon="-4.1385700000"><ele>214</ele><time>2016-10-15T09:15:32Z</time></trkpt>
<trkpt lat="53.1155190000" lon="-4.1385730000"><ele>214</ele><time>2016-10-15T09:15:33Z</time></trkpt>
<trkpt lat="53.1155140000" lon="-4.1385770000"><ele>214</ele><time>2016-10-15T09:15:34Z</time></trkpt>
<trkpt lat="53.1155090000" lon="-4.1385810000"><ele>215</ele><time>2016-10-15T09:15:35Z</time></trkpt>
<trkpt lat="53.1154920000" lon="-4.1385950000"><ele>215</ele><time>2016-10-15T09:15:39Z</time></trkpt>
<trkpt lat="53.1154710000" lon="-4.1386100000"><ele>215</ele><time>2016-10-15T09:15:41Z</time></trkpt>
<trkpt lat="53.1153200000" lon="-4.1387240000"><ele>215</ele><time>2016-10-15T09:15:42Z</time></trkpt>
<trkpt lat="53.1152980000" lon="-4.1387380000"><ele>215</ele><time>2016-10-15T09:15:44Z</time></trkpt>
<trkpt lat="53.1152790000" lon="-4.1387470000"><ele>217</ele><time>2016-10-15T09:15:53Z</time></trkpt>
<trkpt lat="53.1151780000" lon="-4.1388270000"><ele>217</ele><time>2016-10-15T09:15:55Z</time></trkpt>
<trkpt lat="53.1151600000" lon="-4.1388520000"><ele>217</ele><time>2016-10-15T09:15:57Z</time></trkpt>
<trkpt lat="53.1151310000" lon="-4.1389110000"><ele>218</ele><time>2016-10-15T09:16:01Z</time></trkpt>
<trkpt lat="53.1151120000" lon="-4.1389380000"><ele>219</ele><time>2016-10-15T09:16:04Z</time></trkpt>
<trkpt lat="53.1150960000" lon="-4.1389590000"><ele>222</ele><time>2016-10-15T09:16:15Z</time></trkpt>
<trkpt lat="53.1150790000" lon="-4.1389800000"><ele>223</ele><time>2016-10-15T09:16:19Z</time></trkpt>
<trkpt lat="53.1150620000" lon="-4.1390020000"><ele>224</ele><time>2016-10-15T09:16:22Z</time></trkpt>
<trkpt lat="53.1149170000" lon="-4.1391870000"><ele>224</ele><time>2016-10-15T09:16:24Z</time></trkpt>
<trkpt lat="53.1149000000" lon="-4.1392010000"><ele>227</ele><time>2016-10-15T09:16:33Z</time></trkpt>
<trkpt lat="53.1148480000" lon="-4.1393140000"><ele>227</ele><time>2016-10-15T09:16:35Z</time></trkpt>
<trkpt lat="53.1148360000" lon="-4.1393530000"><ele>228</ele><time>2016-10-15T09:16:39Z</time></trkpt>
<trkpt lat="53.1148180000" lon="-4.1393860000"><ele>228</ele><time>2016-10-15T09:16:40Z</time></trkpt>
<trkpt lat="53.1148050000" lon="-4.1394210000"><ele>229</ele><time>2016-10-15T09:16:42Z</time></trkpt>
<trkpt lat="53.1147960000" lon="-4.1394520000"><ele>230</ele><time>2016-10-15T09:16:50Z</time></trkpt>
<trkpt lat="53.1147480000" lon="-4.1395520000"><ele>230</ele><time>2016-10-15T09:16:52Z</time></trkpt>
<trkpt lat="53.1147290000" lon="-4.1395890000"><ele>230</ele><time>2016-10-15T09:16:55Z</time></trkpt>
<trkpt lat="53.1147120000" lon="-4.1396160000"><ele>231</ele><time>2016-10-15T09:16:57Z</time></trkpt>
<trkpt lat="53.1146180000" lon="-4.1397050000"><ele>232</ele><time>2016-10-15T09:17:04Z</time></trkpt>
<trkpt lat="53.1145890000" lon="-4.1397230000"><ele>232</ele><time>2016-10-15T09:17:06Z</time></trkpt>
<trkpt lat="53.1145650000" lon="-4.1397310000"><ele>233</ele><time>2016-10-15T09:17:08Z</time></trkpt>
<trkpt lat="53.1145540000" lon="-4.1397350000"><ele>233</ele><time>2016-10-15T09:17:11Z</time></trkpt>
<trkpt lat="53.1145540000" lon="-4.1397350000"><ele>233</ele><time>2016-10-15T09:17:12Z</time></trkpt>
<trkpt lat="53.1145530000" lon="-4.1397350000"><ele>233</ele><time>2016-10-15T09:17:13Z</time></trkpt>
<trkpt lat="53.1145520000" lon="-4.1397360000"><ele>234</ele><time>2016-10-15T09:17:14Z</time></trkpt>
<trkpt lat="53.1145510000" lon="-4.1397370000"><ele>234</ele><time>2016-10-15T09:17:15Z</time></trkpt>
<trkpt lat="53.1145490000" lon="-4.1397380000"><ele>234</ele><time>2016-10-15T09:17:16Z</time></trkpt>
<trkpt lat="53.1145470000" lon="-4.1397400000"><ele>234</ele><time>2016-10-15T09:17:17Z</time></trkpt>
<trkpt lat="53.1145440000" lon="-4.1397420000"><ele>234</ele><time>2016-10-15T09:17:18Z</time></trkpt>
<trkpt lat="53.1145420000" lon="-4.1397440000"><ele>234</ele><time>2016-10-15T09:17:19Z</time></trkpt>
<trkpt lat="53.1145390000" lon="-4.1397460000"><ele>234</ele><time>2016-10-15T09:17:20Z</time></trkpt>
<trkpt lat="53.1145350000" lon="-4.1397500000"><ele>235</ele><time>2016-10-15T09:17:21Z</time></trkpt>
<trkpt lat="53.1145310000" lon="-4.1397530000"><ele>235</ele><time>2016-10-15T09:17:22Z</time></trkpt>
<trkpt lat="53.1145260000" lon="-4.1397580000"><ele>235</ele><time>2016-10-15T09:17:23Z</time></trkpt>
<trkpt lat="53.1145210000" lon="-4.1397630000"><ele>235</ele><time>2016-10-15T09:17:24Z</time></trkpt>
<trkpt lat="53.1145160000" lon="-4.1397680000"><ele>235</ele><time>2016-10-15T09:17:25Z</time></trkpt>
<trkpt lat="53.1145110000" lon="-4.1397740000"><ele>235</ele><time>2016-10-15T09:17:26Z</time></trkpt>
<trkpt lat="53.1145050000" lon="-4.1397800000"><ele>235</ele><time>2016-10-15T09:17:27Z</time></trkpt>
<trkpt lat="53.1144990000" lon="-4.1397870000"><ele>235</ele><time>2016-10-15T09:17:28Z</time></trkpt>
<trkpt lat="53.1144930000" lon="-4.1397940000"><ele>236</ele><time>2016-10-15T09:17:29Z</time></trkpt>
<trkpt lat="53.1144860000" lon="-4.1398020000"><ele>236</ele><time>2016-10-15T09:17:30Z</time></trkpt>
<trkpt lat="53.1144790000" lon="-4.1398100000"><ele>236</ele><time>2016-10-15T09:17:31Z</time></trkpt>
<trkpt lat="53.1144580000" lon="-4.1398360000"><ele>237</ele><time>2016-10-15T09:17:34Z</time></trkpt>
<trkpt lat="53.1144510000" lon="-4.1398450000"><ele>237</ele><time>2016-10-15T09:17:35Z</time></trkpt>
<trkpt lat="53.1143140000" lon="-4.1400210000"><ele>237</ele><time>2016-10-15T09:17:36Z</time></trkpt>
<trkpt lat="53.1143070000" lon="-4.1400290000"><ele>237</ele><time>2016-10-15T09:17:37Z</time></trkpt>
<trkpt lat="53.1142980000" lon="-4.1400380000"><ele>238</ele><time>2016-10-15T09:17:39Z</time></trkpt>
<trkpt lat="53.1142610000" lon="-4.1400790000"><ele>239</ele><time>2016-10-15T09:17:42Z</time></trkpt>
<trkpt lat="53.1142460000" lon="-4.1400990000"><ele>239</ele><time>2016-10-15T09:17:44Z</time></trkpt>
<trkpt lat="53.1142300000" lon="-4.1401260000"><ele>240</ele><time>2016-10-15T09:17:46Z</time></trkpt>
<trkpt lat="53.1142030000" lon="-4.1401660000"><ele>242</ele><time>2016-10-15T09:18:01Z</time></trkpt>
<trkpt lat="53.1141170000" lon="-4.1402790000"><ele>242</ele><time>2016-10-15T09:18:02Z</time></trkpt>
<trkpt lat="53.1140970000" lon="-4.1403070000"><ele>243</ele><time>2016-10-15T09:18:06Z</time></trkpt>
<trkpt lat="53.1140800000" lon="-4.1403300000"><ele>244</ele><time>2016-10-15T09:18:18Z</time></trkpt>
<trkpt lat="53.1140610000" lon="-4.1403490000"><ele>245</ele><time>2016-10-15T09:18:22Z</time></trkpt>
<trkpt lat="53.1140430000" lon="-4.1403660000"><ele>245</ele><time>2016-10-15T09:18:25Z</time></trkpt>
<trkpt lat="53.1140200000" lon="-4.1403870000"><ele>245</ele><time>2016-10-15T09:18:28Z</time></trkpt>
<trkpt lat="53.1138520000" lon="-4.1405430000"><ele>246</ele><time>2016-10-15T09:18:31Z</time></trkpt>
<trkpt lat="53.1138280000" lon="-4.1405780000"><ele>246</ele><time>2016-10-15T09:18:35Z</time></trkpt>
<trkpt lat="53.1138120000" lon="-4.1406090000"><ele>246</ele><time>2016-10-15T09:18:39Z</time></trkpt>
<trkpt lat="53.1137960000" lon="-4.1406300000"><ele>246</ele><time>2016-10-15T09:18:40Z</time></trkpt>
<trkpt lat="53.1137870000" lon="-4.1406450000"><ele>247</ele><time>2016-10-15T09:18:41Z</time></trkpt>
<trkpt lat="53.1137790000" lon="-4.1406590000"><ele>247</ele><time>2016-10-15T09:18:42Z</time></trkpt>
<trkpt lat="53.1137710000" lon="-4.1406710000"><ele>247</ele><time>2016-10-15T09:18:43Z</time></trkpt>
<trkpt lat="53.1137650000" lon="-4.1406800000"><ele>247</ele><time>2016-10-15T09:18:44Z</time></trkpt>
<trkpt lat="53.1137570000" lon="-4.1406900000"><ele>247</ele><time>2016-10-15T09:18:45Z</time></trkpt>
<trkpt lat="53.1137570000" lon="-4.1406900000"><ele>247</ele><time>2016-10-15T09:18:46Z</time></trkpt>
<trkpt lat="53.1137570000" lon="-4.1406900000"><ele>248</ele><time>2016-10-15T09:18:47Z</time></trkpt>
<trkpt lat="53.1137570000" lon="-4.1406910000"><ele>248</ele><time>2016-10-15T09:18:48Z</time></trkpt>
<trkpt lat="53.1137560000" lon="-4.1406910000"><ele>248</ele><time>2016-10-15T09:18:49Z</time></trkpt>
<trkpt lat="53.1137550000" lon="-4.1406920000"><ele>249</ele><time>2016-10-15T09:18:50Z</time></trkpt>
<trkpt lat="53.1137540000" lon="-4.1406930000"><ele>249</ele><time>2016-10-15T09:18:51Z</time></trkpt>
<trkpt lat="53.1137530000" lon="-4.1406950000"><ele>249</ele><time>2016-10-15T09:18:52Z</time></trkpt>
<trkpt lat="53.1137510000" lon="-4.1406970000"><ele>249</ele><time>2016-10-15T09:18:53Z</time></trkpt>
<trkpt lat="53.1137490000" lon="-4.1407000000"><ele>250</ele><time>2016-10-15T09:18:54Z</time></trkpt>
<trkpt lat="53.1137460000" lon="-4.1407030000"><ele>250</ele><time>2016-10-15T09:18:55Z</time></trkpt>
<trkpt lat="53.1137430000" lon="-4.1407060000"><ele>250</ele><time>2016-10-15T09:18:56Z</time></trkpt>
<trkpt lat="53.1137400000" lon="-4.1407100000"><ele>250</ele><time>2016-10-15T09:18:57Z</time></trkpt>
<trkpt lat="53.1137360000" lon="-4.1407140000"><ele>251</ele><time>2016-10-15T09:18:58Z</time></trkpt>
<trkpt lat="53.1137320000" lon="-4.1407180000"><ele>251</ele><time>2016-10-15T09:18:59Z</time></trkpt>
<trkpt lat="53.1137280000" lon="-4.1407220000"><ele>251</ele><time>2016-10-15T09:19:00Z</time></trkpt>
<trkpt lat="53.1137240000" lon="-4.1407260000"><ele>251</ele><time>2016-10-15T09:19:01Z</time></trkpt>
<trkpt lat="53.1137200000" lon="-4.1407300000"><ele>252</ele><time>2016-10-15T09:19:02Z</time></trkpt>
<trkpt lat="53.1137160000" lon="-4.1407350000"><ele>252</ele><time>2016-10-15T09:19:03Z</time></trkpt>
<trkpt lat="53.1137110000" lon="-4.1407400000"><ele>252</ele><time>2016-10-15T09:19:04Z</time></trkpt>
<trkpt lat="53.1137060000" lon="-4.1407450000"><ele>252</ele><time>2016-10-15T09:19:05Z</time></trkpt>
<trkpt lat="53.1137020000" lon="-4.1407510000"><ele>253</ele><time>2016-10-15T09:19:06Z</time></trkpt>
<trkpt lat="53.1136970000" lon="-4.1407560000"><ele>253</ele><time>2016-10-15T09:19:07Z</time></trkpt>
<trkpt lat="53.1136920000" lon="-4.1407620000"><ele>253</ele><time>2016-10-15T09:19:08Z</time></trkpt>
<trkpt lat="53.1136870000" lon="-4.1407680000"><ele>254</ele><time>2016-10-15T09:19:09Z</time></trkpt>
<trkpt lat="53.1136820000" lon="-4.1407740000"><ele>254</ele><time>2016-10-15T09:19:10Z</time></trkpt>
<trkpt lat="53.1136770000" lon="-4.1407800000"><ele>254</ele><time>2016-10-15T09:19:11Z</time></trkpt>
<trkpt lat="53.1136710000" lon="-4.1407870000"><ele>254</ele><time>2016-10-15T09:19:12Z</time></trkpt>
<trkpt lat="53.1136660000" lon="-4.1407930000"><ele>255</ele><time>2016-10-15T09:19:13Z</time></trkpt>
<trkpt lat="53.1136600000" lon="-4.1408000000"><ele>255</ele><time>2016-10-15T09:19:14Z</time></trkpt>
<trkpt lat="53.1136550000" lon="-4.1408070000"><ele>255</ele><time>2016-10-15T09:19:15Z</time></trkpt>
<trkpt lat="53.1136490000" lon="-4.1408140000"><ele>255</ele><time>2016-10-15T09:19:16Z</time></trkpt>
<trkpt lat="53.1136430000" lon="-4.1408210000"><ele>256</ele><time>2016-10-15T09:19:17Z</time></trkpt>
<trkpt lat="53.1136370000" lon="-4.1408280000"><ele>256</ele><time>2016-10-15T09:19:18Z</time></trkpt>
<trkpt lat="53.1136310000" lon="-4.1408360000"><ele>256</ele><time>2016-10-15T09:19:19Z</time></trkpt>
<trkpt lat="53.1136240000" lon="-4.1408440000"><ele>256</ele><time>2016-10-15T09:19:20Z</time></trkpt>
<trkpt lat="53.1136180000" lon="-4.1408520000"><ele>257</ele><time>2016-10-15T09:19:21Z</time></trkpt>
<trkpt lat="53.1136120000" lon="-4.1408600000"><ele>257</ele><time>2016-10-15T09:19:22Z</time></trkpt>
<trkpt lat="53.1136050000" lon="-4.1408690000"><ele>257</ele><time>2016-10-15T09:19:23Z</time></trkpt>
<trkpt lat="53.1135990000" lon="-4.1408780000"><ele>257</ele><time>2016-10-15T09:19:24Z</time></trkpt>
<trkpt lat="53.1135930000" lon="-4.1408880000"><ele>257</ele><time>2016-10-15T09:19:25Z</time></trkpt>
<trkpt lat="53.1135870000" lon="-4.1408970000"><ele>258</ele><time>2016-10-15T09:19:26Z</time></trkpt>
<trkpt lat="53.1135810000" lon="-4.1409070000"><ele>258</ele><time>2016-10-15T09:19:27Z</time></trkpt>
<trkpt lat="53.1135750000" lon="-4.1409170000"><ele>258</ele><time>2016-10-15T09:19:28Z</time></trkpt>
<trkpt lat="53.1135700000" lon="-4.1409270000"><ele>258</ele><time>2016-10-15T09:19:29Z</time></trkpt>
<trkpt lat="53.1135640000" lon="-4.1409380000"><ele>258</ele><time>2016-10-15T09:19:30Z</time></trkpt>
<trkpt lat="53.1135590000" lon="-4.1409490000"><ele>259</ele><time>2016-10-15T09:19:31Z</time></trkpt>
<trkpt lat="53.1135530000" lon="-4.1409610000"><ele>259</ele><time>2016-10-15T09:19:32Z</time></trkpt>
<trkpt lat="53.1135480000" lon="-4.1409720000"><ele>259</ele><time>2016-10-15T09:19:33Z</time></trkpt>
<trkpt lat="53.1135430000" lon="-4.1409840000"><ele>259</ele><time>2016-10-15T09:19:34Z</time></trkpt>
<trkpt lat="53.1135390000" lon="-4.1409960000"><ele>260</ele><time>2016-10-15T09:19:35Z</time></trkpt>
<trkpt lat="53.1135340000" lon="-4.1410070000"><ele>260</ele><time>2016-10-15T09:19:36Z</time></trkpt>
<trkpt lat="53.1135290000" lon="-4.1410180000"><ele>260</ele><time>2016-10-15T09:19:37Z</time></trkpt>
<trkpt lat="53.1135210000" lon="-4.1410410000"><ele>261</ele><time>2016-10-15T09:19:39Z</time></trkpt>
<trkpt lat="53.1135160000" lon="-4.1410520000"><ele>261</ele><time>2016-10-15T09:19:40Z</time></trkpt>
<trkpt lat="53.1135120000" lon="-4.1410630000"><ele>261</ele><time>2016-10-15T09:19:41Z</time></trkpt>
<trkpt lat="53.1135080000" lon="-4.1410750000"><ele>261</ele><time>2016-10-15T09:19:42Z</time></trkpt>
<trkpt lat="53.1135050000" lon="-4.1410860000"><ele>262</ele><time>2016-10-15T09:19:43Z</time></trkpt>
<trkpt lat="53.1135010000" lon="-4.1410980000"><ele>262</ele><time>2016-10-15T09:19:44Z</time></trkpt>
<trkpt lat="53.1134980000" lon="-4.1411100000"><ele>262</ele><time>2016-10-15T09:19:45Z</time></trkpt>
<trkpt lat="53.1134950000" lon="-4.1411220000"><ele>262</ele><time>2016-10-15T09:19:46Z</time></trkpt>
<trkpt lat="53.1134920000" lon="-4.1411350000"><ele>262</ele><time>2016-10-15T09:19:47Z</time></trkpt>
<trkpt lat="53.1134880000" lon="-4.1411470000"><ele>262</ele><time>2016-10-15T09:19:48Z</time></trkpt>
<trkpt lat="53.1134850000" lon="-4.1411600000"><ele>263</ele><time>2016-10-15T09:19:49Z</time></trkpt>
<trkpt lat="53.1134830000" lon="-4.1411730000"><ele>263</ele><time>2016-10-15T09:19:50Z</time></trkpt>
<trkpt lat="53.1134800000" lon="-4.1411870000"><ele>263</ele><time>2016-10-15T09:19:51Z</time></trkpt>
<trkpt lat="53.1134770000" lon="-4.1412010000"><ele>263</ele><time>2016-10-15T09:19:52Z</time></trkpt>
<trkpt lat="53.1134740000" lon="-4.1412150000"><ele>263</ele><time>2016-10-15T09:19:53Z</time></trkpt>
<trkpt lat="53.1134720000" lon="-4.1412280000"><ele>264</ele><time>2016-10-15T09:19:54Z</time></trkpt>
<trkpt lat="53.1134690000" lon="-4.1412420000"><ele>264</ele><time>2016-10-15T09:19:55Z</time></trkpt>
<trkpt lat="53.1134670000" lon="-4.1412560000"><ele>264</ele><time>2016-10-15T09:19:56Z</time></trkpt>
<trkpt lat="53.1134650000" lon="-4.1412700000"><ele>264</ele><time>2016-10-15T09:19:57Z</time></trkpt>
<trkpt lat="53.1134630000" lon="-4.1412840000"><ele>264</ele><time>2016-10-15T09:19:58Z</time></trkpt>
<trkpt lat="53.1134600000" lon="-4.1412980000"><ele>264</ele><time>2016-10-15T09:19:59Z</time></trkpt>
<trkpt lat="53.1134580000" lon="-4.1413130000"><ele>265</ele><time>2016-10-15T09:20:00Z</time></trkpt>
<trkpt lat="53.1134560000" lon="-4.1413280000"><ele>265</ele><time>2016-10-15T09:20:01Z</time></trkpt>
<trkpt lat="53.1134530000" lon="-4.1413420000"><ele>265</ele><time>2016-10-15T09:20:02Z</time></trkpt>
<trkpt lat="53.1134510000" lon="-4.1413570000"><ele>265</ele><time>2016-10-15T09:20:03Z</time></trkpt>
<trkpt lat="53.1134490000" lon="-4.1413720000"><ele>265</ele><time>2016-10-15T09:20:04Z</time></trkpt>
<trkpt lat="53.1134470000" lon="-4.1413870000"><ele>266</ele><time>2016-10-15T09:20:05Z</time></trkpt>
<trkpt lat="53.1134450000" lon="-4.1414020000"><ele>266</ele><time>2016-10-15T09:20:06Z</time></trkpt>
<trkpt lat="53.1134420000" lon="-4.1414170000"><ele>266</ele><time>2016-10-15T09:20:07Z</time></trkpt>
<trkpt lat="53.1134400000" lon="-4.1414320000"><ele>266</ele><time>2016-10-15T09:20:08Z</time></trkpt>
<trkpt lat="53.1133980000" lon="-4.1416990000"><ele>266</ele><time>2016-10-15T09:20:09Z</time></trkpt>
<trkpt lat="53.1133950000" lon="-4.1417180000"><ele>267</ele><time>2016-10-15T09:20:10Z</time></trkpt>
<trkpt lat="53.1133930000" lon="-4.1417330000"><ele>267</ele><time>2016-10-15T09:20:11Z</time></trkpt>
<trkpt lat="53.1133930000" lon="-4.1417470000"><ele>267</ele><time>2016-10-15T09:20:12Z</time></trkpt>
<trkpt lat="53.1133930000" lon="-4.1417470000"><ele>267</ele><time>2016-10-15T09:20:13Z</time></trkpt>
<trkpt lat="53.1133930000" lon="-4.1417480000"><ele>267</ele><time>2016-10-15T09:20:14Z</time></trkpt>
<trkpt lat="53.1133920000" lon="-4.1417480000"><ele>268</ele><time>2016-10-15T09:20:15Z</time></trkpt>
<trkpt lat="53.1133920000" lon="-4.1417490000"><ele>268</ele><time>2016-10-15T09:20:16Z</time></trkpt>
<trkpt lat="53.1133920000" lon="-4.1417510000"><ele>268</ele><time>2016-10-15T09:20:17Z</time></trkpt>
<trkpt lat="53.1133910000" lon="-4.1417530000"><ele>268</ele><time>2016-10-15T09:20:18Z</time></trkpt>
<trkpt lat="53.1133910000" lon="-4.1417560000"><ele>269</ele><time>2016-10-15T09:20:19Z</time></trkpt>
<trkpt lat="53.1133900000" lon="-4.1417600000"><ele>269</ele><time>2016-10-15T09:20:20Z</time></trkpt>
<trkpt lat="53.1133890000" lon="-4.1417640000"><ele>269</ele><time>2016-10-15T09:20:21Z</time></trkpt>
<trkpt lat="53.1133890000" lon="-4.1417690000"><ele>269</ele><time>2016-10-15T09:20:22Z</time></trkpt>
<trkpt lat="53.1133880000" lon="-4.1417750000"><ele>270</ele><time>2016-10-15T09:20:23Z</time></trkpt>
<trkpt lat="53.1133870000" lon="-4.1417810000"><ele>270</ele><time>2016-10-15T09:20:24Z</time></trkpt>
<trkpt lat="53.1133860000" lon="-4.1417880000"><ele>270</ele><time>2016-10-15T09:20:25Z</time></trkpt>
<trkpt lat="53.1133850000" lon="-4.1417950000"><ele>270</ele><time>2016-10-15T09:20:26Z</time></trkpt>
<trkpt lat="53.1133840000" lon="-4.1418040000"><ele>270</ele><time>2016-10-15T09:20:27Z</time></trkpt>
<trkpt lat="53.1133820000" lon="-4.1418130000"><ele>271</ele><time>2016-10-15T09:20:28Z</time></trkpt>
<trkpt lat="53.1133810000" lon="-4.1418220000"><ele>271</ele><time>2016-10-15T09:20:29Z</time></trkpt>
<trkpt lat="53.1133800000" lon="-4.1418320000"><ele>271</ele><time>2016-10-15T09:20:30Z</time></trkpt>
<trkpt lat="53.1133780000" lon="-4.1418430000"><ele>271</ele><time>2016-10-15T09:20:31Z</time></trkpt>
<trkpt lat="53.1133770000" lon="-4.1418540000"><ele>272</ele><time>2016-10-15T09:20:32Z</time></trkpt>
<trkpt lat="53.1133750000" lon="-4.1418660000"><ele>272</ele><time>2016-10-15T09:20:33Z</time></trkpt>
<trkpt lat="53.1133730000" lon="-4.1418780000"><ele>272</ele><time>2016-10-15T09:20:34Z</time></trkpt>
<trkpt lat="53.1133720000" lon="-4.1418910000"><ele>272</ele><time>2016-10-15T09:20:35Z</time></trkpt>
<trkpt lat="53.1133700000" lon="-4.1419040000"><ele>272</ele><time>2016-10-15T09:20:36Z</time></trkpt>
<trkpt lat="53.1133680000" lon="-4.1419180000"><ele>273</ele><time>2016-10-15T09:20:37Z</time></trkpt>
<trkpt lat="53.1133650000" lon="-4.1419460000"><ele>273</ele><time>2016-10-15T09:20:39Z</time></trkpt>
<trkpt lat="53.1133640000" lon="-4.1419600000"><ele>273</ele><time>2016-10-15T09:20:40Z</time></trkpt>
<trkpt lat="53.1133620000" lon="-4.1419740000"><ele>273</ele><time>2016-10-15T09:20:41Z</time></trkpt>
<trkpt lat="53.1133610000" lon="-4.1419890000"><ele>274</ele><time>2016-10-15T09:20:42Z</time></trkpt>
<trkpt lat="53.1133610000" lon="-4.1420030000"><ele>274</ele><time>2016-10-15T09:20:43Z</time></trkpt>
<trkpt lat="53.1133600000" lon="-4.1420180000"><ele>274</ele><time>2016-10-15T09:20:44Z</time></trkpt>
<trkpt lat="53.1133590000" lon="-4.1420320000"><ele>274</ele><time>2016-10-15T09:20:45Z</time></trkpt>
<trkpt lat="53.1133580000" lon="-4.1420470000"><ele>274</ele><time>2016-10-15T09:20:46Z</time></trkpt>
<trkpt lat="53.1133570000" lon="-4.1420610000"><ele>274</ele><time>2016-10-15T09:20:47Z</time></trkpt>
<trkpt lat="53.1133550000" lon="-4.1420740000"><ele>274</ele><time>2016-10-15T09:20:48Z</time></trkpt>
<trkpt lat="53.1133530000" lon="-4.1420880000"><ele>275</ele><time>2016-10-15T09:20:49Z</time></trkpt>
<trkpt lat="53.1133510000" lon="-4.1421010000"><ele>275</ele><time>2016-10-15T09:20:50Z</time></trkpt>
<trkpt lat="53.1133490000" lon="-4.1421140000"><ele>275</ele><time>2016-10-15T09:20:51Z</time></trkpt>
<trkpt lat="53.1133460000" lon="-4.1421260000"><ele>275</ele><time>2016-10-15T09:20:52Z</time></trkpt>
<trkpt lat="53.1133430000" lon="-4.1421390000"><ele>275</ele><time>2016-10-15T09:20:53Z</time></trkpt>
<trkpt lat="53.1133390000" lon="-4.1421520000"><ele>275</ele><time>2016-10-15T09:20:54Z</time></trkpt>
<trkpt lat="53.1133360000" lon="-4.1421660000"><ele>275</ele><time>2016-10-15T09:20:55Z</time></trkpt>
<trkpt lat="53.1133340000" lon="-4.1421790000"><ele>275</ele><time>2016-10-15T09:20:56Z</time></trkpt>
<trkpt lat="53.1133310000" lon="-4.1421930000"><ele>276</ele><time>2016-10-15T09:20:57Z</time></trkpt>
<trkpt lat="53.1133280000" lon="-4.1422070000"><ele>276</ele><time>2016-10-15T09:20:58Z</time></trkpt>
<trkpt lat="53.1133260000" lon="-4.1422210000"><ele>276</ele><time>2016-10-15T09:20:59Z</time></trkpt>
<trkpt lat="53.1133240000" lon="-4.1422350000"><ele>276</ele><time>2016-10-15T09:21:00Z</time></trkpt>
<trkpt lat="53.1133220000" lon="-4.1422490000"><ele>276</ele><time>2016-10-15T09:21:01Z</time></trkpt>
<trkpt lat="53.1133200000" lon="-4.1422630000"><ele>277</ele><time>2016-10-15T09:21:02Z</time></trkpt>
<trkpt lat="53.1133180000" lon="-4.1422770000"><ele>277</ele><time>2016-10-15T09:21:03Z</time></trkpt>
<trkpt lat="53.1133160000" lon="-4.1422910000"><ele>277</ele><time>2016-10-15T09:21:04Z</time></trkpt>
<trkpt lat="53.1133150000" lon="-4.1423050000"><ele>277</ele><time>2016-10-15T09:21:05Z</time></trkpt>
<trkpt lat="53.1133140000" lon="-4.1423190000"><ele>277</ele><time>2016-10-15T09:21:06Z</time></trkpt>
<trkpt lat="53.1133130000" lon="-4.1423320000"><ele>278</ele><time>2016-10-15T09:21:07Z</time></trkpt>
<trkpt lat="53.1133120000" lon="-4.1423460000"><ele>278</ele><time>2016-10-15T09:21:08Z</time></trkpt>
<trkpt lat="53.1133110000" lon="-4.1423600000"><ele>278</ele><time>2016-10-15T09:21:09Z</time></trkpt>
<trkpt lat="53.1133110000" lon="-4.1423730000"><ele>278</ele><time>2016-10-15T09:21:10Z</time></trkpt>
<trkpt lat="53.1133110000" lon="-4.1423860000"><ele>278</ele><time>2016-10-15T09:21:11Z</time></trkpt>
<trkpt lat="53.1133110000" lon="-4.1423990000"><ele>278</ele><time>2016-10-15T09:21:12Z</time></trkpt>
<trkpt lat="53.1133120000" lon="-4.1424130000"><ele>279</ele><time>2016-10-15T09:21:13Z</time></trkpt>
<trkpt lat="53.1133130000" lon="-4.1424260000"><ele>279</ele><time>2016-10-15T09:21:14Z</time></trkpt>
<trkpt lat="53.1133140000" lon="-4.1424380000"><ele>279</ele><time>2016-10-15T09:21:15Z</time></trkpt>
<trkpt lat="53.1133160000" lon="-4.1424500000"><ele>279</ele><time>2016-10-15T09:21:16Z</time></trkpt>
<trkpt lat="53.1133180000" lon="-4.1424620000"><ele>279</ele><time>2016-10-15T09:21:17Z</time></trkpt>
<trkpt lat="53.1133200000" lon="-4.1424740000"><ele>279</ele><time>2016-10-15T09:21:18Z</time></trkpt>
<trkpt lat="53.1133220000" lon="-4.1424860000"><ele>279</ele><time>2016-10-15T09:21:19Z</time></trkpt>
<trkpt lat="53.1133250000" lon="-4.1424970000"><ele>279</ele><time>2016-10-15T09:21:20Z</time></trkpt>
<trkpt lat="53.1133280000" lon="-4.1425080000"><ele>279</ele><time>2016-10-15T09:21:21Z</time></trkpt>
<trkpt lat="53.1133320000" lon="-4.1425190000"><ele>279</ele><time>2016-10-15T09:21:22Z</time></trkpt>
<trkpt lat="53.1133350000" lon="-4.1425300000"><ele>280</ele><time>2016-10-15T09:21:23Z</time></trkpt>
<trkpt lat="53.1133380000" lon="-4.1425400000"><ele>280</ele><time>2016-10-15T09:21:24Z</time></trkpt>
<trkpt lat="53.1133420000" lon="-4.1425500000"><ele>280</ele><time>2016-10-15T09:21:25Z</time></trkpt>
<trkpt lat="53.1133460000" lon="-4.1425590000"><ele>280</ele><time>2016-10-15T09:21:26Z</time></trkpt>
<trkpt lat="53.1133490000" lon="-4.1425680000"><ele>280</ele><time>2016-10-15T09:21:27Z</time></trkpt>
<trkpt lat="53.1133540000" lon="-4.1425770000"><ele>280</ele><time>2016-10-15T09:21:28Z</time></trkpt>
<trkpt lat="53.1133580000" lon="-4.1425860000"><ele>280</ele><time>2016-10-15T09:21:29Z</time></trkpt>
<trkpt lat="53.1133630000" lon="-4.1425940000"><ele>280</ele><time>2016-10-15T09:21:30Z</time></trkpt>
<trkpt lat="53.1133680000" lon="-4.1426030000"><ele>280</ele><time>2016-10-15T09:21:31Z</time></trkpt>
<trkpt lat="53.1133730000" lon="-4.1426110000"><ele>280</ele><time>2016-10-15T09:21:32Z</time></trkpt>
<trkpt lat="53.1133890000" lon="-4.1426330000"><ele>281</ele><time>2016-10-15T09:21:35Z</time></trkpt>
<trkpt lat="53.1135030000" lon="-4.1427610000"><ele>281</ele><time>2016-10-15T09:21:37Z</time></trkpt>
<trkpt lat="53.1135210000" lon="-4.1427640000"><ele>281</ele><time>2016-10-15T09:21:39Z</time></trkpt>
<trkpt lat="53.1135380000" lon="-4.1427740000"><ele>283</ele><time>2016-10-15T09:21:51Z</time></trkpt>
<trkpt lat="53.1135470000" lon="-4.1427790000"><ele>283</ele><time>2016-10-15T09:21:53Z</time></trkpt>
<trkpt lat="53.1135510000" lon="-4.1427810000"><ele>283</ele><time>2016-10-15T09:21:54Z</time></trkpt>
<trkpt lat="53.1135570000" lon="-4.1427840000"><ele>283</ele><time>2016-10-15T09:21:55Z</time></trkpt>
<trkpt lat="53.1135620000" lon="-4.1427870000"><ele>283</ele><time>2016-10-15T09:21:56Z</time></trkpt>
<trkpt lat="53.1135680000" lon="-4.1427900000"><ele>283</ele><time>2016-10-15T09:21:57Z</time></trkpt>
<trkpt lat="53.1135750000" lon="-4.1427930000"><ele>283</ele><time>2016-10-15T09:21:58Z</time></trkpt>
<trkpt lat="53.1135810000" lon="-4.1427960000"><ele>283</ele><time>2016-10-15T09:21:59Z</time></trkpt>
<trkpt lat="53.1135880000" lon="-4.1427990000"><ele>283</ele><time>2016-10-15T09:22:00Z</time></trkpt>
<trkpt lat="53.1135950000" lon="-4.1428020000"><ele>283</ele><time>2016-10-15T09:22:01Z</time></trkpt>
<trkpt lat="53.1136020000" lon="-4.1428050000"><ele>284</ele><time>2016-10-15T09:22:02Z</time></trkpt>
<trkpt lat="53.1136100000" lon="-4.1428080000"><ele>284</ele><time>2016-10-15T09:22:03Z</time></trkpt>
<trkpt lat="53.1136180000" lon="-4.1428120000"><ele>284</ele><time>2016-10-15T09:22:04Z</time></trkpt>
<trkpt lat="53.1136250000" lon="-4.1428150000"><ele>284</ele><time>2016-10-15T09:22:05Z</time></trkpt>
<trkpt lat="53.1136330000" lon="-4.1428190000"><ele>284</ele><time>2016-10-15T09:22:06Z</time></trkpt>
<trkpt lat="53.1136420000" lon="-4.1428220000"><ele>284</ele><time>2016-10-15T09:22:07Z</time></trkpt>
<trkpt lat="53.1136500000" lon="-4.1428250000"><ele>285</ele><time>2016-10-15T09:22:08Z</time></trkpt>
<trkpt lat="53.1136590000" lon="-4.1428280000"><ele>285</ele><time>2016-10-15T09:22:09Z</time></trkpt>
<trkpt lat="53.1136670000" lon="-4.1428310000"><ele>285</ele><time>2016-10-15T09:22:10Z</time></trkpt>
<trkpt lat="53.1136760000" lon="-4.1428340000"><ele>285</ele><time>2016-10-15T09:22:11Z</time></trkpt>
<trkpt lat="53.1136840000" lon="-4.1428380000"><ele>285</ele><time>2016-10-15T09:22:12Z</time></trkpt>
<trkpt lat="53.1136930000" lon="-4.1428410000"><ele>285</ele><time>2016-10-15T09:22:13Z</time></trkpt>
<trkpt lat="53.1137020000" lon="-4.1428440000"><ele>286</ele><time>2016-10-15T09:22:14Z</time></trkpt>
<trkpt lat="53.1137100000" lon="-4.1428480000"><ele>286</ele><time>2016-10-15T09:22:15Z</time></trkpt>
<trkpt lat="53.1137190000" lon="-4.1428510000"><ele>286</ele><time>2016-10-15T09:22:16Z</time></trkpt>
<trkpt lat="53.1137280000" lon="-4.1428550000"><ele>286</ele><time>2016-10-15T09:22:17Z</time></trkpt>
<trkpt lat="53.1137370000" lon="-4.1428580000"><ele>286</ele><time>2016-10-15T09:22:18Z</time></trkpt>
<trkpt lat="53.1137460000" lon="-4.1428620000"><ele>286</ele><time>2016-10-15T09:22:19Z</time></trkpt>
<trkpt lat="53.1137540000" lon="-4.1428660000"><ele>286</ele><time>2016-10-15T09:22:20Z</time></trkpt>
<trkpt lat="53.1137630000" lon="-4.1428700000"><ele>286</ele><time>2016-10-15T09:22:21Z</time></trkpt>
<trkpt lat="53.1137720000" lon="-4.1428730000"><ele>286</ele><time>2016-10-15T09:22:22Z</time></trkpt>
<trkpt lat="53.1137810000" lon="-4.1428770000"><ele>286</ele><time>2016-10-15T09:22:23Z</time></trkpt>
<trkpt lat="53.1137890000" lon="-4.1428810000"><ele>286</ele><time>2016-10-15T09:22:24Z</time></trkpt>
<trkpt lat="53.1137980000" lon="-4.1428850000"><ele>286</ele><time>2016-10-15T09:22:25Z</time></trkpt>
<trkpt lat="53.1138070000" lon="-4.1428890000"><ele>287</ele><time>2016-10-15T09:22:26Z</time></trkpt>
<trkpt lat="53.1138160000" lon="-4.1428930000"><ele>287</ele><time>2016-10-15T09:22:27Z</time></trkpt>
<trkpt lat="53.1138240000" lon="-4.1428970000"><ele>287</ele><time>2016-10-15T09:22:28Z</time></trkpt>
<trkpt lat="53.1138330000" lon="-4.1429000000"><ele>287</ele><time>2016-10-15T09:22:29Z</time></trkpt>
<trkpt lat="53.1138410000" lon="-4.1429050000"><ele>287</ele><time>2016-10-15T09:22:30Z</time></trkpt>
<trkpt lat="53.1138490000" lon="-4.1429080000"><ele>287</ele><time>2016-10-15T09:22:31Z</time></trkpt>
<trkpt lat="53.1138580000" lon="-4.1429120000"><ele>287</ele><time>2016-10-15T09:22:32Z</time></trkpt>
<trkpt lat="53.1138660000" lon="-4.1429160000"><ele>287</ele><time>2016-10-15T09:22:33Z</time></trkpt>
<trkpt lat="53.1138740000" lon="-4.1429200000"><ele>287</ele><time>2016-10-15T09:22:34Z</time></trkpt>
<trkpt lat="53.1138830000" lon="-4.1429240000"><ele>287</ele><time>2016-10-15T09:22:35Z</time></trkpt>
<trkpt lat="53.1138910000" lon="-4.1429280000"><ele>287</ele><time>2016-10-15T09:22:36Z</time></trkpt>
<trkpt lat="53.1138990000" lon="-4.1429320000"><ele>287</ele><time>2016-10-15T09:22:37Z</time></trkpt>
<trkpt lat="53.1139160000" lon="-4.1429400000"><ele>288</ele><time>2016-10-15T09:22:39Z</time></trkpt>
<trkpt lat="53.1139250000" lon="-4.1429440000"><ele>288</ele><time>2016-10-15T09:22:40Z</time></trkpt>
<trkpt lat="53.1139330000" lon="-4.1429480000"><ele>288</ele><time>2016-10-15T09:22:41Z</time></trkpt>
<trkpt lat="53.1139420000" lon="-4.1429520000"><ele>288</ele><time>2016-10-15T09:22:42Z</time></trkpt>
<trkpt lat="53.1139510000" lon="-4.1429560000"><ele>288</ele><time>2016-10-15T09:22:43Z</time></trkpt>
<trkpt lat="53.1139590000" lon="-4.1429600000"><ele>288</ele><time>2016-10-15T09:22:44Z</time></trkpt>
<trkpt lat="53.1139680000" lon="-4.1429650000"><ele>289</ele><time>2016-10-15T09:22:45Z</time></trkpt>
<trkpt lat="53.1139770000" lon="-4.1429690000"><ele>289</ele><time>2016-10-15T09:22:46Z</time></trkpt>
<trkpt lat="53.1139860000" lon="-4.1429740000"><ele>289</ele><time>2016-10-15T09:22:47Z</time></trkpt>
<trkpt lat="53.1139940000" lon="-4.1429790000"><ele>289</ele><time>2016-10-15T09:22:48Z</time></trkpt>
<trkpt lat="53.1140030000" lon="-4.1429830000"><ele>289</ele><time>2016-10-15T09:22:49Z</time></trkpt>
<trkpt lat="53.1140110000" lon="-4.1429880000"><ele>289</ele><time>2016-10-15T09:22:50Z</time></trkpt>
<trkpt lat="53.1140200000" lon="-4.1429920000"><ele>289</ele><time>2016-10-15T09:22:51Z</time></trkpt>
<trkpt lat="53.1140280000" lon="-4.1429970000"><ele>289</ele><time>2016-10-15T09:22:52Z</time></trkpt>
<trkpt lat="53.1140370000" lon="-4.1430010000"><ele>289</ele><time>2016-10-15T09:22:53Z</time></trkpt>
<trkpt lat="53.1140450000" lon="-4.1430060000"><ele>290</ele><time>2016-10-15T09:22:54Z</time></trkpt>
<trkpt lat="53.1140540000" lon="-4.1430100000"><ele>290</ele><time>2016-10-15T09:22:55Z</time></trkpt>
<trkpt lat="53.1140620000" lon="-4.1430140000"><ele>290</ele><time>2016-10-15T09:22:56Z</time></trkpt>
<trkpt lat="53.1140700000" lon="-4.1430180000"><ele>290</ele><time>2016-10-15T09:22:57Z</time></trkpt>
<trkpt lat="53.1140780000" lon="-4.1430220000"><ele>290</ele><time>2016-10-15T09:22:58Z</time></trkpt>
<trkpt lat="53.1140860000" lon="-4.1430260000"><ele>290</ele><time>2016-10-15T09:22:59Z</time></trkpt>
<trkpt lat="53.1140940000" lon="-4.1430300000"><ele>290</ele><time>2016-10-15T09:23:00Z</time></trkpt>
<trkpt lat="53.1141020000" lon="-4.1430330000"><ele>291</ele><time>2016-10-15T09:23:01Z</time></trkpt>
<trkpt lat="53.1141100000" lon="-4.1430370000"><ele>291</ele><time>2016-10-15T09:23:02Z</time></trkpt>
<trkpt lat="53.1141180000" lon="-4.1430410000"><ele>291</ele><time>2016-10-15T09:23:03Z</time></trkpt>
<trkpt lat="53.1141240000" lon="-4.1430440000"><ele>291</ele><time>2016-10-15T09:23:04Z</time></trkpt>
<trkpt lat="53.1141320000" lon="-4.1430470000"><ele>292</ele><time>2016-10-15T09:23:05Z</time></trkpt>
<trkpt lat="53.1141400000" lon="-4.1430510000"><ele>292</ele><time>2016-10-15T09:23:06Z</time></trkpt>
<trkpt lat="53.1141480000" lon="-4.1430550000"><ele>292</ele><time>2016-10-15T09:23:07Z</time></trkpt>
<trkpt lat="53.1141570000" lon="-4.1430580000"><ele>292</ele><time>2016-10-15T09:23:08Z</time></trkpt>
<trkpt lat="53.1141650000" lon="-4.1430620000"><ele>293</ele><time>2016-10-15T09:23:09Z</time></trkpt>
<trkpt lat="53.1141730000" lon="-4.1430660000"><ele>293</ele><time>2016-10-15T09:23:10Z</time></trkpt>
<trkpt lat="53.1141810000" lon="-4.1430690000"><ele>293</ele><time>2016-10-15T09:23:11Z</time></trkpt>
<trkpt lat="53.1141890000" lon="-4.1430730000"><ele>293</ele><time>2016-10-15T09:23:12Z</time></trkpt>
<trkpt lat="53.1141980000" lon="-4.1430770000"><ele>294</ele><time>2016-10-15T09:23:13Z</time></trkpt>
<trkpt lat="53.1142060000" lon="-4.1430800000"><ele>294</ele><time>2016-10-15T09:23:14Z</time></trkpt>
<trkpt lat="53.1142140000" lon="-4.1430830000"><ele>294</ele><time>2016-10-15T09:23:15Z</time></trkpt>
<trkpt lat="53.1142220000" lon="-4.1430860000"><ele>294</ele><time>2016-10-15T09:23:16Z</time></trkpt>
<trkpt lat="53.1142310000" lon="-4.1430900000"><ele>294</ele><time>2016-10-15T09:23:17Z</time></trkpt>
<trkpt lat="53.1142390000" lon="-4.1430930000"><ele>295</ele><time>2016-10-15T09:23:18Z</time></trkpt>
<trkpt lat="53.1142470000" lon="-4.1430960000"><ele>295</ele><time>2016-10-15T09:23:19Z</time></trkpt>
<trkpt lat="53.1142560000" lon="-4.1431000000"><ele>295</ele><time>2016-10-15T09:23:20Z</time></trkpt>
<trkpt lat="53.1142640000" lon="-4.1431040000"><ele>295</ele><time>2016-10-15T09:23:21Z</time></trkpt>
<trkpt lat="53.1142730000" lon="-4.1431070000"><ele>296</ele><time>2016-10-15T09:23:22Z</time></trkpt>
<trkpt lat="53.1142810000" lon="-4.1431110000"><ele>296</ele><time>2016-10-15T09:23:23Z</time></trkpt>
<trkpt lat="53.1142890000" lon="-4.1431140000"><ele>296</ele><time>2016-10-15T09:23:24Z</time></trkpt>
<trkpt lat="53.1142970000" lon="-4.1431180000"><ele>296</ele><time>2016-10-15T09:23:25Z</time></trkpt>
<trkpt lat="53.1143050000" lon="-4.1431210000"><ele>297</ele><time>2016-10-15T09:23:26Z</time></trkpt>
<trkpt lat="53.1143130000" lon="-4.1431240000"><ele>297</ele><time>2016-10-15T09:23:27Z</time></trkpt>
<trkpt lat="53.1143210000" lon="-4.1431280000"><ele>297</ele><time>2016-10-15T09:23:28Z</time></trkpt>
<trkpt lat="53.1143290000" lon="-4.1431310000"><ele>297</ele><time>2016-10-15T09:23:29Z</time></trkpt>
<trkpt lat="53.1143380000" lon="-4.1431330000"><ele>297</ele><time>2016-10-15T09:23:30Z</time></trkpt>
<trkpt lat="53.1143460000" lon="-4.1431360000"><ele>298</ele><time>2016-10-15T09:23:31Z</time></trkpt>
<trkpt lat="53.1143540000" lon="-4.1431390000"><ele>298</ele><time>2016-10-15T09:23:32Z</time></trkpt>
<trkpt lat="53.1143620000" lon="-4.1431410000"><ele>298</ele><time>2016-10-15T09:23:33Z</time></trkpt>
<trkpt lat="53.1143700000" lon="-4.1431430000"><ele>298</ele><time>2016-10-15T09:23:34Z</time></trkpt>
<trkpt lat="53.1143780000" lon="-4.1431450000"><ele>298</ele><time>2016-10-15T09:23:35Z</time></trkpt>
<trkpt lat="53.1143870000" lon="-4.1431470000"><ele>298</ele><time>2016-10-15T09:23:36Z</time></trkpt>
<trkpt lat="53.1143950000" lon="-4.1431500000"><ele>299</ele><time>2016-10-15T09:23:37Z</time></trkpt>
<trkpt lat="53.1144100000" lon="-4.1431540000"><ele>299</ele><time>2016-10-15T09:23:39Z</time></trkpt>
<trkpt lat="53.1144180000" lon="-4.1431560000"><ele>299</ele><time>2016-10-15T09:23:40Z</time></trkpt>
<trkpt lat="53.1144260000" lon="-4.1431580000"><ele>299</ele><time>2016-10-15T09:23:41Z</time></trkpt>
<trkpt lat="53.1144340000" lon="-4.1431600000"><ele>299</ele><time>2016-10-15T09:23:42Z</time></trkpt>
<trkpt lat="53.1144420000" lon="-4.1431630000"><ele>299</ele><time>2016-10-15T09:23:43Z</time></trkpt>
<trkpt lat="53.1144490000" lon="-4.1431650000"><ele>299</ele><time>2016-10-15T09:23:44Z</time></trkpt>
<trkpt lat="53.1144570000" lon="-4.1431670000"><ele>299</ele><time>2016-10-15T09:23:45Z</time></trkpt>
<trkpt lat="53.1144640000" lon="-4.1431690000"><ele>299</ele><time>2016-10-15T09:23:46Z</time></trkpt>
<trkpt lat="53.1144720000" lon="-4.1431720000"><ele>299</ele><time>2016-10-15T09:23:47Z</time></trkpt>
<trkpt lat="53.1144800000" lon="-4.1431740000"><ele>299</ele><time>2016-10-15T09:23:48Z</time></trkpt>
<trkpt lat="53.1144870000" lon="-4.1431760000"><ele>299</ele><time>2016-10-15T09:23:49Z</time></trkpt>
<trkpt lat="53.1144950000" lon="-4.1431790000"><ele>299</ele><time>2016-10-15T09:23:50Z</time></trkpt>
<trkpt lat="53.1145040000" lon="-4.1431820000"><ele>300</ele><time>2016-10-15T09:23:51Z</time></trkpt>
<trkpt lat="53.1145130000" lon="-4.1431840000"><ele>300</ele><time>2016-10-15T09:23:52Z</time></trkpt>
<trkpt lat="53.1146440000" lon="-4.1432240000"><ele>300</ele><time>2016-10-15T09:23:53Z</time></trkpt>
<trkpt lat="53.1146540000" lon="-4.1432270000"><ele>300</ele><time>2016-10-15T09:23:54Z</time></trkpt>
<trkpt lat="53.1146620000" lon="-4.1432310000"><ele>300</ele><time>2016-10-15T09:23:55Z</time></trkpt>
<trkpt lat="53.1146620000" lon="-4.1432310000"><ele>300</ele><time>2016-10-15T09:23:56Z</time></trkpt>
<trkpt lat="53.1146620000" lon="-4.1432310000"><ele>301</ele><time>2016-10-15T09:23:57Z</time></trkpt>
<trkpt lat="53.1146620000" lon="-4.1432310000"><ele>301</ele><time>2016-10-15T09:23:58Z</time></trkpt>
<trkpt lat="53.1146630000" lon="-4.1432320000"><ele>301</ele><time>2016-10-15T09:23:59Z</time></trkpt>
<trkpt lat="53.1146630000" lon="-4.1432320000"><ele>301</ele><time>2016-10-15T09:24:00Z</time></trkpt>
<trkpt lat="53.1146650000" lon="-4.1432320000"><ele>301</ele><time>2016-10-15T09:24:01Z</time></trkpt>
<trkpt lat="53.1146660000" lon="-4.1432330000"><ele>301</ele><time>2016-10-15T09:24:02Z</time></trkpt>
<trkpt lat="53.1146680000" lon="-4.1432340000"><ele>301</ele><time>2016-10-15T09:24:03Z</time></trkpt>
<trkpt lat="53.1146700000" lon="-4.1432360000"><ele>302</ele><time>2016-10-15T09:24:04Z</time></trkpt>
<trkpt lat="53.1146730000" lon="-4.1432380000"><ele>302</ele><time>2016-10-15T09:24:05Z</time></trkpt>
<trkpt lat="53.1146760000" lon="-4.1432400000"><ele>302</ele><time>2016-10-15T09:24:06Z</time></trkpt>
<trkpt lat="53.1146790000" lon="-4.1432430000"><ele>302</ele><time>2016-10-15T09:24:07Z</time></trkpt>
<trkpt lat="53.1146830000" lon="-4.1432460000"><ele>302</ele><time>2016-10-15T09:24:08Z</time></trkpt>
<trkpt lat="53.1146870000" lon="-4.1432490000"><ele>302</ele><time>2016-10-15T09:24:09Z</time></trkpt>
<trkpt lat="53.1146910000" lon="-4.1432520000"><ele>302</ele><time>2016-10-15T09:24:10Z</time></trkpt>
<trkpt lat="53.1146960000" lon="-4.1432560000"><ele>302</ele><time>2016-10-15T09:24:11Z</time></trkpt>
<trkpt lat="53.1147010000" lon="-4.1432590000"><ele>302</ele><time>2016-10-15T09:24:12Z</time></trkpt>
<trkpt lat="53.1147060000" lon="-4.1432630000"><ele>303</ele><time>2016-10-15T09:24:13Z</time></trkpt>
<trkpt lat="53.1147120000" lon="-4.1432670000"><ele>303</ele><time>2016-10-15T09:24:14Z</time></trkpt>
<trkpt lat="53.1147180000" lon="-4.1432700000"><ele>303</ele><time>2016-10-15T09:24:15Z</time></trkpt>
<trkpt lat="53.1147250000" lon="-4.1432740000"><ele>303</ele><time>2016-10-15T09:24:16Z</time></trkpt>
<trkpt lat="53.1147310000" lon="-4.1432780000"><ele>303</ele><time>2016-10-15T09:24:17Z</time></trkpt>
<trkpt lat="53.1147380000" lon="-4.1432820000"><ele>303</ele><time>2016-10-15T09:24:18Z</time></trkpt>
<trkpt lat="53.1147450000" lon="-4.1432860000"><ele>304</ele><time>2016-10-15T09:24:19Z</time></trkpt>
<trkpt lat="53.1147520000" lon="-4.1432900000"><ele>304</ele><time>2016-10-15T09:24:20Z</time></trkpt>
<trkpt lat="53.1147590000" lon="-4.1432950000"><ele>304</ele><time>2016-10-15T09:24:21Z</time></trkpt>
<trkpt lat="53.1147670000" lon="-4.1432990000"><ele>304</ele><time>2016-10-15T09:24:22Z</time></trkpt>
<trkpt lat="53.1147740000" lon="-4.1433040000"><ele>305</ele><time>2016-10-15T09:24:23Z</time></trkpt>
<trkpt lat="53.1147810000" lon="-4.1433080000"><ele>305</ele><time>2016-10-15T09:24:24Z</time></trkpt>
<trkpt lat="53.1147880000" lon="-4.1433130000"><ele>305</ele><time>2016-10-15T09:24:25Z</time></trkpt>
<trkpt lat="53.1147960000" lon="-4.1433180000"><ele>305</ele><time>2016-10-15T09:24:26Z</time></trkpt>
<trkpt lat="53.1148030000" lon="-4.1433230000"><ele>306</ele><time>2016-10-15T09:24:27Z</time></trkpt>
<trkpt lat="53.1148100000" lon="-4.1433280000"><ele>306</ele><time>2016-10-15T09:24:28Z</time></trkpt>
<trkpt lat="53.1148170000" lon="-4.1433340000"><ele>306</ele><time>2016-10-15T09:24:29Z</time></trkpt>
<trkpt lat="53.1148240000" lon="-4.1433390000"><ele>306</ele><time>2016-10-15T09:24:30Z</time></trkpt>
<trkpt lat="53.1148310000" lon="-4.1433450000"><ele>307</ele><time>2016-10-15T09:24:31Z</time></trkpt>
<trkpt lat="53.1148380000" lon="-4.1433500000"><ele>307</ele><time>2016-10-15T09:24:32Z</time></trkpt>
<trkpt lat="53.1148450000" lon="-4.1433550000"><ele>307</ele><time>2016-10-15T09:24:33Z</time></trkpt>
<trkpt lat="53.1148520000" lon="-4.1433600000"><ele>307</ele><time>2016-10-15T09:24:34Z</time></trkpt>
<trkpt lat="53.1148590000" lon="-4.1433650000"><ele>308</ele><time>2016-10-15T09:24:35Z</time></trkpt>
<trkpt lat="53.1148650000" lon="-4.1433700000"><ele>308</ele><time>2016-10-15T09:24:36Z</time></trkpt>
<trkpt lat="53.1148710000" lon="-4.1433750000"><ele>308</ele><time>2016-10-15T09:24:37Z</time></trkpt>
<trkpt lat="53.1148800000" lon="-4.1433840000"><ele>309</ele><time>2016-10-15T09:24:39Z</time></trkpt>
<trkpt lat="53.1148840000" lon="-4.1433880000"><ele>309</ele><time>2016-10-15T09:24:40Z</time></trkpt>
<trkpt lat="53.1148880000" lon="-4.1433910000"><ele>309</ele><time>2016-10-15T09:24:41Z</time></trkpt>
<trkpt lat="53.1148910000" lon="-4.1433940000"><ele>309</ele><time>2016-10-15T09:24:42Z</time></trkpt>
<trkpt lat="53.1148950000" lon="-4.1433970000"><ele>309</ele><time>2016-10-15T09:24:43Z</time></trkpt>
<trkpt lat="53.1148980000" lon="-4.1434010000"><ele>310</ele><time>2016-10-15T09:24:44Z</time></trkpt>
<trkpt lat="53.1149020000" lon="-4.1434040000"><ele>310</ele><time>2016-10-15T09:24:45Z</time></trkpt>
<trkpt lat="53.1149050000" lon="-4.1434060000"><ele>310</ele><time>2016-10-15T09:24:46Z</time></trkpt>
<trkpt lat="53.1149080000" lon="-4.1434090000"><ele>310</ele><time>2016-10-15T09:24:47Z</time></trkpt>
<trkpt lat="53.1149110000" lon="-4.1434110000"><ele>310</ele><time>2016-10-15T09:24:48Z</time></trkpt>
<trkpt lat="53.1149130000" lon="-4.1434130000"><ele>310</ele><time>2016-10-15T09:24:49Z</time></trkpt>
<trkpt lat="53.1149160000" lon="-4.1434150000"><ele>310</ele><time>2016-10-15T09:24:50Z</time></trkpt>
<trkpt lat="53.1149180000" lon="-4.1434170000"><ele>310</ele><time>2016-10-15T09:24:51Z</time></trkpt>
<trkpt lat="53.1149200000" lon="-4.1434180000"><ele>310</ele><time>2016-10-15T09:24:52Z</time></trkpt>
<trkpt lat="53.1149220000" lon="-4.1434190000"><ele>311</ele><time>2016-10-15T09:24:53Z</time></trkpt>
<trkpt lat="53.1149240000" lon="-4.1434200000"><ele>311</ele><time>2016-10-15T09:24:54Z</time></trkpt>
<trkpt lat="53.1149260000" lon="-4.1434200000"><ele>311</ele><time>2016-10-15T09:24:55Z</time></trkpt>
<trkpt lat="53.1149270000" lon="-4.1434200000"><ele>311</ele><time>2016-10-15T09:24:56Z</time></trkpt>
<trkpt lat="53.1149290000" lon="-4.1434200000"><ele>311</ele><time>2016-10-15T09:24:57Z</time></trkpt>
<trkpt lat="53.1149300000" lon="-4.1434200000"><ele>311</ele><time>2016-10-15T09:24:58Z</time></trkpt>
<trkpt lat="53.1149320000" lon="-4.1434200000"><ele>311</ele><time>2016-10-15T09:24:59Z</time></trkpt>
<trkpt lat="53.1149330000" lon="-4.1434200000"><ele>311</ele><time>2016-10-15T09:25:00Z</time></trkpt>
<trkpt lat="53.1149340000" lon="-4.1434200000"><ele>311</ele><time>2016-10-15T09:25:01Z</time></trkpt>
<trkpt lat="53.1149350000" lon="-4.1434200000"><ele>311</ele><time>2016-10-15T09:25:02Z</time></trkpt>
<trkpt lat="53.1149360000" lon="-4.1434200000"><ele>312</ele><time>2016-10-15T09:25:03Z</time></trkpt>
<trkpt lat="53.1149370000" lon="-4.1434200000"><ele>312</ele><time>2016-10-15T09:25:04Z</time></trkpt>
<trkpt lat="53.1149380000" lon="-4.1434190000"><ele>312</ele><time>2016-10-15T09:25:05Z</time></trkpt>
<trkpt lat="53.1149390000" lon="-4.1434190000"><ele>312</ele><time>2016-10-15T09:25:06Z</time></trkpt>
<trkpt lat="53.1149390000" lon="-4.1434190000"><ele>312</ele><time>2016-10-15T09:25:07Z</time></trkpt>
<trkpt lat="53.1149400000" lon="-4.1434190000"><ele>312</ele><time>2016-10-15T09:25:08Z</time></trkpt>
<trkpt lat="53.1149410000" lon="-4.1434190000"><ele>312</ele><time>2016-10-15T09:25:09Z</time></trkpt>
<trkpt lat="53.1149420000" lon="-4.1434190000"><ele>312</ele><time>2016-10-15T09:25:10Z</time></trkpt>
<trkpt lat="53.1149430000" lon="-4.1434180000"><ele>312</ele><time>2016-10-15T09:25:11Z</time></trkpt>
<trkpt lat="53.1149430000" lon="-4.1434180000"><ele>312</ele><time>2016-10-15T09:25:12Z</time></trkpt>
<trkpt lat="53.1149440000" lon="-4.1434180000"><ele>312</ele><time>2016-10-15T09:25:13Z</time></trkpt>
<trkpt lat="53.1149450000" lon="-4.1434170000"><ele>313</ele><time>2016-10-15T09:25:14Z</time></trkpt>
<trkpt lat="53.1149460000" lon="-4.1434170000"><ele>313</ele><time>2016-10-15T09:25:15Z</time></trkpt>
<trkpt lat="53.1149470000" lon="-4.1434170000"><ele>313</ele><time>2016-10-15T09:25:16Z</time></trkpt>
<trkpt lat="53.1149470000" lon="-4.1434170000"><ele>313</ele><time>2016-10-15T09:25:17Z</time></trkpt>
<trkpt lat="53.1149490000" lon="-4.1434170000"><ele>313</ele><time>2016-10-15T09:25:18Z</time></trkpt>
<trkpt lat="53.1149490000" lon="-4.1434170000"><ele>313</ele><time>2016-10-15T09:25:19Z</time></trkpt>
<trkpt lat="53.1149500000" lon="-4.1434170000"><ele>313</ele><time>2016-10-15T09:25:20Z</time></trkpt>
<trkpt lat="53.1149510000" lon="-4.1434170000"><ele>313</ele><time>2016-10-15T09:25:21Z</time></trkpt>
<trkpt lat="53.1149510000" lon="-4.1434170000"><ele>313</ele><time>2016-10-15T09:25:22Z</time></trkpt>
<trkpt lat="53.1149520000" lon="-4.1434170000"><ele>313</ele><time>2016-10-15T09:25:23Z</time></trkpt>
<trkpt lat="53.1149530000" lon="-4.1434170000"><ele>313</ele><time>2016-10-15T09:25:24Z</time></trkpt>
<trkpt lat="53.1149530000" lon="-4.1434180000"><ele>314</ele><time>2016-10-15T09:25:25Z</time></trkpt>
<trkpt lat="53.1149540000" lon="-4.1434180000"><ele>314</ele><time>2016-10-15T09:25:26Z</time></trkpt>
<trkpt lat="53.1149540000" lon="-4.1434190000"><ele>314</ele><time>2016-10-15T09:25:27Z</time></trkpt>
<trkpt lat="53.1149550000" lon="-4.1434190000"><ele>314</ele><time>2016-10-15T09:25:28Z</time></trkpt>
<trkpt lat="53.1149550000" lon="-4.1434200000"><ele>314</ele><time>2016-10-15T09:25:29Z</time></trkpt>
<trkpt lat="53.1149560000" lon="-4.1434200000"><ele>314</ele><time>2016-10-15T09:25:30Z</time></trkpt>
<trkpt lat="53.1149560000" lon="-4.1434210000"><ele>314</ele><time>2016-10-15T09:25:31Z</time></trkpt>
<trkpt lat="53.1149560000" lon="-4.1434210000"><ele>314</ele><time>2016-10-15T09:25:32Z</time></trkpt>
<trkpt lat="53.1149570000" lon="-4.1434220000"><ele>314</ele><time>2016-10-15T09:25:33Z</time></trkpt>
<trkpt lat="53.1149570000" lon="-4.1434230000"><ele>314</ele><time>2016-10-15T09:25:34Z</time></trkpt>
<trkpt lat="53.1149570000" lon="-4.1434240000"><ele>315</ele><time>2016-10-15T09:25:35Z</time></trkpt>
<trkpt lat="53.1149570000" lon="-4.1434250000"><ele>315</ele><time>2016-10-15T09:25:36Z</time></trkpt>
<trkpt lat="53.1149570000" lon="-4.1434270000"><ele>315</ele><time>2016-10-15T09:25:37Z</time></trkpt>
<trkpt lat="53.1149570000" lon="-4.1434290000"><ele>315</ele><time>2016-10-15T09:25:39Z</time></trkpt>
<trkpt lat="53.1149570000" lon="-4.1434300000"><ele>315</ele><time>2016-10-15T09:25:40Z</time></trkpt>
<trkpt lat="53.1149560000" lon="-4.1434310000"><ele>315</ele><time>2016-10-15T09:25:41Z</time></trkpt>
<trkpt lat="53.1149560000" lon="-4.1434320000"><ele>314</ele><time>2016-10-15T09:25:42Z</time></trkpt>
<trkpt lat="53.1149560000" lon="-4.1434330000"><ele>314</ele><time>2016-10-15T09:25:43Z</time></trkpt>
<trkpt lat="53.1149560000" lon="-4.1434340000"><ele>314</ele><time>2016-10-15T09:25:44Z</time></trkpt>
<trkpt lat="53.1149560000" lon="-4.1434340000"><ele>314</ele><time>2016-10-15T09:25:45Z</time></trkpt>
<trkpt lat="53.1149560000" lon="-4.1434350000"><ele>314</ele><time>2016-10-15T09:25:46Z</time></trkpt>
<trkpt lat="53.1149560000" lon="-4.1434360000"><ele>314</ele><time>2016-10-15T09:25:47Z</time></trkpt>
<trkpt lat="53.1149560000" lon="-4.1434360000"><ele>314</ele><time>2016-10-15T09:25:48Z</time></trkpt>
<trkpt lat="53.1149560000" lon="-4.1434370000"><ele>314</ele><time>2016-10-15T09:25:49Z</time></trkpt>
<trkpt lat="53.1149570000" lon="-4.1434380000"><ele>314</ele><time>2016-10-15T09:25:50Z</time></trkpt>
<trkpt lat="53.1149570000" lon="-4.1434390000"><ele>314</ele><time>2016-10-15T09:25:51Z</time></trkpt>
<trkpt lat="53.1149580000" lon="-4.1434400000"><ele>314</ele><time>2016-10-15T09:25:52Z</time></trkpt>
<trkpt lat="53.1149580000" lon="-4.1434410000"><ele>314</ele><time>2016-10-15T09:25:53Z</time></trkpt>
<trkpt lat="53.1149590000" lon="-4.1434420000"><ele>314</ele><time>2016-10-15T09:25:54Z</time></trkpt>
<trkpt lat="53.1149600000" lon="-4.1434430000"><ele>314</ele><time>2016-10-15T09:25:55Z</time></trkpt>
<trkpt lat="53.1149610000" lon="-4.1434440000"><ele>314</ele><time>2016-10-15T09:25:56Z</time></trkpt>
<trkpt lat="53.1149620000" lon="-4.1434450000"><ele>314</ele><time>2016-10-15T09:25:57Z</time></trkpt>
<trkpt lat="53.1149620000" lon="-4.1434460000"><ele>314</ele><time>2016-10-15T09:25:58Z</time></trkpt>
<trkpt lat="53.1149640000" lon="-4.1434470000"><ele>314</ele><time>2016-10-15T09:25:59Z</time></trkpt>
<trkpt lat="53.1149650000" lon="-4.1434490000"><ele>314</ele><time>2016-10-15T09:26:00Z</time></trkpt>
<trkpt lat="53.1149670000" lon="-4.1434510000"><ele>314</ele><time>2016-10-15T09:26:01Z</time></trkpt>
<trkpt lat="53.1149680000" lon="-4.1434530000"><ele>314</ele><time>2016-10-15T09:26:02Z</time></trkpt>
<trkpt lat="53.1149710000" lon="-4.1434560000"><ele>315</ele><time>2016-10-15T09:26:03Z</time></trkpt>
<trkpt lat="53.1149730000" lon="-4.1434590000"><ele>315</ele><time>2016-10-15T09:26:04Z</time></trkpt>
<trkpt lat="53.1149760000" lon="-4.1434630000"><ele>315</ele><time>2016-10-15T09:26:05Z</time></trkpt>
<trkpt lat="53.1149780000" lon="-4.1434660000"><ele>315</ele><time>2016-10-15T09:26:06Z</time></trkpt>
<trkpt lat="53.1149810000" lon="-4.1434690000"><ele>315</ele><time>2016-10-15T09:26:07Z</time></trkpt>
<trkpt lat="53.1149850000" lon="-4.1434730000"><ele>315</ele><time>2016-10-15T09:26:08Z</time></trkpt>
<trkpt lat="53.1149880000" lon="-4.1434760000"><ele>315</ele><time>2016-10-15T09:26:09Z</time></trkpt>
<trkpt lat="53.1149910000" lon="-4.1434790000"><ele>315</ele><time>2016-10-15T09:26:10Z</time></trkpt>
<trkpt lat="53.1149950000" lon="-4.1434820000"><ele>315</ele><time>2016-10-15T09:26:11Z</time></trkpt>
<trkpt lat="53.1149990000" lon="-4.1434850000"><ele>315</ele><time>2016-10-15T09:26:12Z</time></trkpt>
<trkpt lat="53.1150030000" lon="-4.1434880000"><ele>315</ele><time>2016-10-15T09:26:13Z</time></trkpt>
<trkpt lat="53.1150070000" lon="-4.1434900000"><ele>315</ele><time>2016-10-15T09:26:14Z</time></trkpt>
<trkpt lat="53.1150110000" lon="-4.1434930000"><ele>315</ele><time>2016-10-15T09:26:15Z</time></trkpt>
<trkpt lat="53.1150160000" lon="-4.1434950000"><ele>315</ele><time>2016-10-15T09:26:16Z</time></trkpt>
<trkpt lat="53.1150200000" lon="-4.1434970000"><ele>315</ele><time>2016-10-15T09:26:17Z</time></trkpt>
<trkpt lat="53.1150250000" lon="-4.1435000000"><ele>315</ele><time>2016-10-15T09:26:18Z</time></trkpt>
<trkpt lat="53.1150310000" lon="-4.1435020000"><ele>315</ele><time>2016-10-15T09:26:19Z</time></trkpt>
<trkpt lat="53.1150360000" lon="-4.1435050000"><ele>315</ele><time>2016-10-15T09:26:20Z</time></trkpt>
<trkpt lat="53.1150420000" lon="-4.1435070000"><ele>315</ele><time>2016-10-15T09:26:21Z</time></trkpt>
<trkpt lat="53.1150480000" lon="-4.1435100000"><ele>315</ele><time>2016-10-15T09:26:22Z</time></trkpt>
<trkpt lat="53.1150530000" lon="-4.1435130000"><ele>315</ele><time>2016-10-15T09:26:23Z</time></trkpt>
<trkpt lat="53.1150590000" lon="-4.1435160000"><ele>315</ele><time>2016-10-15T09:26:24Z</time></trkpt>
<trkpt lat="53.1150650000" lon="-4.1435190000"><ele>315</ele><time>2016-10-15T09:26:25Z</time></trkpt>
<trkpt lat="53.1150710000" lon="-4.1435230000"><ele>315</ele><time>2016-10-15T09:26:26Z</time></trkpt>
<trkpt lat="53.1150770000" lon="-4.1435270000"><ele>315</ele><time>2016-10-15T09:26:27Z</time></trkpt>
<trkpt lat="53.1150830000" lon="-4.1435310000"><ele>314</ele><time>2016-10-15T09:26:28Z</time></trkpt>
<trkpt lat="53.1150870000" lon="-4.1435340000"><ele>314</ele><time>2016-10-15T09:26:29Z</time></trkpt>
<trkpt lat="53.1150930000" lon="-4.1435390000"><ele>314</ele><time>2016-10-15T09:26:30Z</time></trkpt>
<trkpt lat="53.1150990000" lon="-4.1435440000"><ele>314</ele><time>2016-10-15T09:26:31Z</time></trkpt>
<trkpt lat="53.1151050000" lon="-4.1435490000"><ele>314</ele><time>2016-10-15T09:26:32Z</time></trkpt>
<trkpt lat="53.1151110000" lon="-4.1435550000"><ele>314</ele><time>2016-10-15T09:26:33Z</time></trkpt>
<trkpt lat="53.1151160000" lon="-4.1435600000"><ele>314</ele><time>2016-10-15T09:26:34Z</time></trkpt>
<trkpt lat="53.1151220000" lon="-4.1435660000"><ele>314</ele><time>2016-10-15T09:26:35Z</time></trkpt>
<trkpt lat="53.1151270000" lon="-4.1435730000"><ele>314</ele><time>2016-10-15T09:26:36Z</time></trkpt>
<trkpt lat="53.1151330000" lon="-4.1435800000"><ele>314</ele><time>2016-10-15T09:26:37Z</time></trkpt>
<trkpt lat="53.1151440000" lon="-4.1435960000"><ele>314</ele><time>2016-10-15T09:26:39Z</time></trkpt>
<trkpt lat="53.1151490000" lon="-4.1436040000"><ele>315</ele><time>2016-10-15T09:26:40Z</time></trkpt>
<trkpt lat="53.1151540000" lon="-4.1436130000"><ele>315</ele><time>2016-10-15T09:26:41Z</time></trkpt>
<trkpt lat="53.1151590000" lon="-4.1436230000"><ele>315</ele><time>2016-10-15T09:26:42Z</time></trkpt>
<trkpt lat="53.1151640000" lon="-4.1436330000"><ele>315</ele><time>2016-10-15T09:26:43Z</time></trkpt>
<trkpt lat="53.1151680000" lon="-4.1436430000"><ele>315</ele><time>2016-10-15T09:26:44Z</time></trkpt>
<trkpt lat="53.1151720000" lon="-4.1436540000"><ele>316</ele><time>2016-10-15T09:26:45Z</time></trkpt>
<trkpt lat="53.1151750000" lon="-4.1436640000"><ele>316</ele><time>2016-10-15T09:26:46Z</time></trkpt>
<trkpt lat="53.1151790000" lon="-4.1436760000"><ele>316</ele><time>2016-10-15T09:26:47Z</time></trkpt>
<trkpt lat="53.1151820000" lon="-4.1436870000"><ele>316</ele><time>2016-10-15T09:26:48Z</time></trkpt>
<trkpt lat="53.1151850000" lon="-4.1436990000"><ele>316</ele><time>2016-10-15T09:26:49Z</time></trkpt>
<trkpt lat="53.1151870000" lon="-4.1437100000"><ele>317</ele><time>2016-10-15T09:26:50Z</time></trkpt>
<trkpt lat="53.1151900000" lon="-4.1437220000"><ele>317</ele><time>2016-10-15T09:26:51Z</time></trkpt>
<trkpt lat="53.1151920000" lon="-4.1437330000"><ele>317</ele><time>2016-10-15T09:26:52Z</time></trkpt>
<trkpt lat="53.1151950000" lon="-4.1437440000"><ele>318</ele><time>2016-10-15T09:26:53Z</time></trkpt>
<trkpt lat="53.1151960000" lon="-4.1437550000"><ele>318</ele><time>2016-10-15T09:26:54Z</time></trkpt>
<trkpt lat="53.1151980000" lon="-4.1437660000"><ele>318</ele><time>2016-10-15T09:26:55Z</time></trkpt>
<trkpt lat="53.1152000000" lon="-4.1437780000"><ele>318</ele><time>2016-10-15T09:26:56Z</time></trkpt>
<trkpt lat="53.1152010000" lon="-4.1437890000"><ele>318</ele><time>2016-10-15T09:26:57Z</time></trkpt>
<trkpt lat="53.1152020000" lon="-4.1438000000"><ele>318</ele><time>2016-10-15T09:26:58Z</time></trkpt>
<trkpt lat="53.1152030000" lon="-4.1438100000"><ele>319</ele><time>2016-10-15T09:26:59Z</time></trkpt>
<trkpt lat="53.1152030000" lon="-4.1438210000"><ele>319</ele><time>2016-10-15T09:27:00Z</time></trkpt>
<trkpt lat="53.1152040000" lon="-4.1438330000"><ele>319</ele><time>2016-10-15T09:27:01Z</time></trkpt>
<trkpt lat="53.1152040000" lon="-4.1438450000"><ele>319</ele><time>2016-10-15T09:27:02Z</time></trkpt>
<trkpt lat="53.1152040000" lon="-4.1438570000"><ele>319</ele><time>2016-10-15T09:27:03Z</time></trkpt>
<trkpt lat="53.1152040000" lon="-4.1438690000"><ele>319</ele><time>2016-10-15T09:27:04Z</time></trkpt>
<trkpt lat="53.1152040000" lon="-4.1438810000"><ele>320</ele><time>2016-10-15T09:27:05Z</time></trkpt>
<trkpt lat="53.1152030000" lon="-4.1438930000"><ele>320</ele><time>2016-10-15T09:27:06Z</time></trkpt>
<trkpt lat="53.1152030000" lon="-4.1439050000"><ele>320</ele><time>2016-10-15T09:27:07Z</time></trkpt>
<trkpt lat="53.1152020000" lon="-4.1439170000"><ele>320</ele><time>2016-10-15T09:27:08Z</time></trkpt>
<trkpt lat="53.1152010000" lon="-4.1439300000"><ele>320</ele><time>2016-10-15T09:27:09Z</time></trkpt>
<trkpt lat="53.1152000000" lon="-4.1439430000"><ele>321</ele><time>2016-10-15T09:27:10Z</time></trkpt>
<trkpt lat="53.1151990000" lon="-4.1439560000"><ele>321</ele><time>2016-10-15T09:27:11Z</time></trkpt>
<trkpt lat="53.1151970000" lon="-4.1439690000"><ele>321</ele><time>2016-10-15T09:27:12Z</time></trkpt>
<trkpt lat="53.1151960000" lon="-4.1439820000"><ele>321</ele><time>2016-10-15T09:27:13Z</time></trkpt>
<trkpt lat="53.1151950000" lon="-4.1439950000"><ele>321</ele><time>2016-10-15T09:27:14Z</time></trkpt>
<trkpt lat="53.1151930000" lon="-4.1440090000"><ele>322</ele><time>2016-10-15T09:27:15Z</time></trkpt>
<trkpt lat="53.1151920000" lon="-4.1440220000"><ele>322</ele><time>2016-10-15T09:27:16Z</time></trkpt>
<trkpt lat="53.1151900000" lon="-4.1440360000"><ele>322</ele><time>2016-10-15T09:27:17Z</time></trkpt>
<trkpt lat="53.1151880000" lon="-4.1440490000"><ele>322</ele><time>2016-10-15T09:27:18Z</time></trkpt>
<trkpt lat="53.1151860000" lon="-4.1440620000"><ele>322</ele><time>2016-10-15T09:27:19Z</time></trkpt>
<trkpt lat="53.1151840000" lon="-4.1440760000"><ele>323</ele><time>2016-10-15T09:27:20Z</time></trkpt>
<trkpt lat="53.1151820000" lon="-4.1440890000"><ele>323</ele><time>2016-10-15T09:27:21Z</time></trkpt>
<trkpt lat="53.1151800000" lon="-4.1441020000"><ele>323</ele><time>2016-10-15T09:27:22Z</time></trkpt>
<trkpt lat="53.1151780000" lon="-4.1441150000"><ele>323</ele><time>2016-10-15T09:27:23Z</time></trkpt>
<trkpt lat="53.1151760000" lon="-4.1441290000"><ele>323</ele><time>2016-10-15T09:27:24Z</time></trkpt>
<trkpt lat="53.1151730000" lon="-4.1441420000"><ele>323</ele><time>2016-10-15T09:27:25Z</time></trkpt>
<trkpt lat="53.1151710000" lon="-4.1441550000"><ele>324</ele><time>2016-10-15T09:27:26Z</time></trkpt>
<trkpt lat="53.1151690000" lon="-4.1441690000"><ele>324</ele><time>2016-10-15T09:27:27Z</time></trkpt>
<trkpt lat="53.1151670000" lon="-4.1441830000"><ele>324</ele><time>2016-10-15T09:27:28Z</time></trkpt>
<trkpt lat="53.1151650000" lon="-4.1441970000"><ele>324</ele><time>2016-10-15T09:27:29Z</time></trkpt>
<trkpt lat="53.1151640000" lon="-4.1442110000"><ele>324</ele><time>2016-10-15T09:27:30Z</time></trkpt>
<trkpt lat="53.1151620000" lon="-4.1442250000"><ele>324</ele><time>2016-10-15T09:27:31Z</time></trkpt>
<trkpt lat="53.1151610000" lon="-4.1442390000"><ele>324</ele><time>2016-10-15T09:27:32Z</time></trkpt>
<trkpt lat="53.1151600000" lon="-4.1442540000"><ele>325</ele><time>2016-10-15T09:27:33Z</time></trkpt>
<trkpt lat="53.1151590000" lon="-4.1442680000"><ele>325</ele><time>2016-10-15T09:27:34Z</time></trkpt>
<trkpt lat="53.1151590000" lon="-4.1442820000"><ele>325</ele><time>2016-10-15T09:27:35Z</time></trkpt>
<trkpt lat="53.1151590000" lon="-4.1442970000"><ele>325</ele><time>2016-10-15T09:27:36Z</time></trkpt>
<trkpt lat="53.1151590000" lon="-4.1443110000"><ele>325</ele><time>2016-10-15T09:27:37Z</time></trkpt>
<trkpt lat="53.1151590000" lon="-4.1443390000"><ele>325</ele><time>2016-10-15T09:27:39Z</time></trkpt>
<trkpt lat="53.1151590000" lon="-4.1443530000"><ele>325</ele><time>2016-10-15T09:27:40Z</time></trkpt>
<trkpt lat="53.1151600000" lon="-4.1443670000"><ele>326</ele><time>2016-10-15T09:27:41Z</time></trkpt>
<trkpt lat="53.1151600000" lon="-4.1443810000"><ele>326</ele><time>2016-10-15T09:27:42Z</time></trkpt>
<trkpt lat="53.1151610000" lon="-4.1443950000"><ele>326</ele><time>2016-10-15T09:27:43Z</time></trkpt>
<trkpt lat="53.1151620000" lon="-4.1444100000"><ele>326</ele><time>2016-10-15T09:27:44Z</time></trkpt>
<trkpt lat="53.1151640000" lon="-4.1444240000"><ele>326</ele><time>2016-10-15T09:27:45Z</time></trkpt>
<trkpt lat="53.1151650000" lon="-4.1444380000"><ele>327</ele><time>2016-10-15T09:27:46Z</time></trkpt>
<trkpt lat="53.1151660000" lon="-4.1444530000"><ele>327</ele><time>2016-10-15T09:27:47Z</time></trkpt>
<trkpt lat="53.1151670000" lon="-4.1444670000"><ele>327</ele><time>2016-10-15T09:27:48Z</time></trkpt>
<trkpt lat="53.1151690000" lon="-4.1444810000"><ele>327</ele><time>2016-10-15T09:27:49Z</time></trkpt>
<trkpt lat="53.1151710000" lon="-4.1444960000"><ele>327</ele><time>2016-10-15T09:27:50Z</time></trkpt>
<trkpt lat="53.1151720000" lon="-4.1445110000"><ele>327</ele><time>2016-10-15T09:27:51Z</time></trkpt>
<trkpt lat="53.1151740000" lon="-4.1445260000"><ele>327</ele><time>2016-10-15T09:27:52Z</time></trkpt>
<trkpt lat="53.1152010000" lon="-4.1447550000"><ele>327</ele><time>2016-10-15T09:27:53Z</time></trkpt>
<trkpt lat="53.1152040000" lon="-4.1447730000"><ele>328</ele><time>2016-10-15T09:27:54Z</time></trkpt>
<trkpt lat="53.1152090000" lon="-4.1447920000"><ele>328</ele><time>2016-10-15T09:27:55Z</time></trkpt>
<trkpt lat="53.1152100000" lon="-4.1448100000"><ele>328</ele><time>2016-10-15T09:27:56Z</time></trkpt>
<trkpt lat="53.1152120000" lon="-4.1448280000"><ele>328</ele><time>2016-10-15T09:27:57Z</time></trkpt>
<trkpt lat="53.1152140000" lon="-4.1448460000"><ele>328</ele><time>2016-10-15T09:27:58Z</time></trkpt>
<trkpt lat="53.1152170000" lon="-4.1448610000"><ele>328</ele><time>2016-10-15T09:27:59Z</time></trkpt>
<trkpt lat="53.1152210000" lon="-4.1448760000"><ele>328</ele><time>2016-10-15T09:28:00Z</time></trkpt>
<trkpt lat="53.1152210000" lon="-4.1448760000"><ele>328</ele><time>2016-10-15T09:28:01Z</time></trkpt>
<trkpt lat="53.1152210000" lon="-4.1448770000"><ele>328</ele><time>2016-10-15T09:28:02Z</time></trkpt>
<trkpt lat="53.1152210000" lon="-4.1448770000"><ele>329</ele><time>2016-10-15T09:28:03Z</time></trkpt>
<trkpt lat="53.1152220000" lon="-4.1448790000"><ele>329</ele><time>2016-10-15T09:28:04Z</time></trkpt>
<trkpt lat="53.1152220000" lon="-4.1448810000"><ele>329</ele><time>2016-10-15T09:28:05Z</time></trkpt>
<trkpt lat="53.1152230000" lon="-4.1448840000"><ele>329</ele><time>2016-10-15T09:28:06Z</time></trkpt>
<trkpt lat="53.1152230000" lon="-4.1448880000"><ele>329</ele><time>2016-10-15T09:28:07Z</time></trkpt>
<trkpt lat="53.1152240000" lon="-4.1448920000"><ele>329</ele><time>2016-10-15T09:28:08Z</time></trkpt>
<trkpt lat="53.1152250000" lon="-4.1448980000"><ele>329</ele><time>2016-10-15T09:28:09Z</time></trkpt>
<trkpt lat="53.1152250000" lon="-4.1449040000"><ele>329</ele><time>2016-10-15T09:28:10Z</time></trkpt>
<trkpt lat="53.1152260000" lon="-4.1449110000"><ele>329</ele><time>2016-10-15T09:28:11Z</time></trkpt>
<trkpt lat="53.1152270000" lon="-4.1449160000"><ele>329</ele><time>2016-10-15T09:28:12Z</time></trkpt>
<trkpt lat="53.1152270000" lon="-4.1449250000"><ele>329</ele><time>2016-10-15T09:28:13Z</time></trkpt>
<trkpt lat="53.1152280000" lon="-4.1449350000"><ele>329</ele><time>2016-10-15T09:28:14Z</time></trkpt>
<trkpt lat="53.1152290000" lon="-4.1449450000"><ele>329</ele><time>2016-10-15T09:28:15Z</time></trkpt>
<trkpt lat="53.1152300000" lon="-4.1449550000"><ele>329</ele><time>2016-10-15T09:28:16Z</time></trkpt>
<trkpt lat="53.1152300000" lon="-4.1449660000"><ele>329</ele><time>2016-10-15T09:28:17Z</time></trkpt>
<trkpt lat="53.1152310000" lon="-4.1449770000"><ele>329</ele><time>2016-10-15T09:28:18Z</time></trkpt>
<trkpt lat="53.1152310000" lon="-4.1449890000"><ele>330</ele><time>2016-10-15T09:28:19Z</time></trkpt>
<trkpt lat="53.1152320000" lon="-4.1450010000"><ele>330</ele><time>2016-10-15T09:28:20Z</time></trkpt>
<trkpt lat="53.1152320000" lon="-4.1450130000"><ele>330</ele><time>2016-10-15T09:28:21Z</time></trkpt>
<trkpt lat="53.1152330000" lon="-4.1450250000"><ele>330</ele><time>2016-10-15T09:28:22Z</time></trkpt>
<trkpt lat="53.1152340000" lon="-4.1450380000"><ele>330</ele><time>2016-10-15T09:28:23Z</time></trkpt>
<trkpt lat="53.1152340000" lon="-4.1450510000"><ele>330</ele><time>2016-10-15T09:28:24Z</time></trkpt>
<trkpt lat="53.1152350000" lon="-4.1450640000"><ele>330</ele><time>2016-10-15T09:28:25Z</time></trkpt>
<trkpt lat="53.1152350000" lon="-4.1450770000"><ele>331</ele><time>2016-10-15T09:28:26Z</time></trkpt>
<trkpt lat="53.1152350000" lon="-4.1450900000"><ele>331</ele><time>2016-10-15T09:28:27Z</time></trkpt>
<trkpt lat="53.1152360000" lon="-4.1451030000"><ele>331</ele><time>2016-10-15T09:28:28Z</time></trkpt>
<trkpt lat="53.1152360000" lon="-4.1451170000"><ele>331</ele><time>2016-10-15T09:28:29Z</time></trkpt>
<trkpt lat="53.1152360000" lon="-4.1451300000"><ele>331</ele><time>2016-10-15T09:28:30Z</time></trkpt>
<trkpt lat="53.1152360000" lon="-4.1451440000"><ele>331</ele><time>2016-10-15T09:28:31Z</time></trkpt>
<trkpt lat="53.1152360000" lon="-4.1451580000"><ele>331</ele><time>2016-10-15T09:28:32Z</time></trkpt>
<trkpt lat="53.1152370000" lon="-4.1451710000"><ele>332</ele><time>2016-10-15T09:28:33Z</time></trkpt>
<trkpt lat="53.1152370000" lon="-4.1451850000"><ele>332</ele><time>2016-10-15T09:28:34Z</time></trkpt>
<trkpt lat="53.1152370000" lon="-4.1451990000"><ele>332</ele><time>2016-10-15T09:28:35Z</time></trkpt>
<trkpt lat="53.1152380000" lon="-4.1452130000"><ele>332</ele><time>2016-10-15T09:28:36Z</time></trkpt>
<trkpt lat="53.1152380000" lon="-4.1452280000"><ele>332</ele><time>2016-10-15T09:28:37Z</time></trkpt>
<trkpt lat="53.1152390000" lon="-4.1452560000"><ele>333</ele><time>2016-10-15T09:28:39Z</time></trkpt>
<trkpt lat="53.1152400000" lon="-4.1452710000"><ele>333</ele><time>2016-10-15T09:28:40Z</time></trkpt>
<trkpt lat="53.1152400000" lon="-4.1452850000"><ele>333</ele><time>2016-10-15T09:28:41Z</time></trkpt>
<trkpt lat="53.1152400000" lon="-4.1453000000"><ele>333</ele><time>2016-10-15T09:28:42Z</time></trkpt>
<trkpt lat="53.1152400000" lon="-4.1453140000"><ele>334</ele><time>2016-10-15T09:28:43Z</time></trkpt>
<trkpt lat="53.1152400000" lon="-4.1453290000"><ele>334</ele><time>2016-10-15T09:28:44Z</time></trkpt>
<trkpt lat="53.1152400000" lon="-4.1453430000"><ele>334</ele><time>2016-10-15T09:28:45Z</time></trkpt>
<trkpt lat="53.1152400000" lon="-4.1453580000"><ele>334</ele><time>2016-10-15T09:28:46Z</time></trkpt>
<trkpt lat="53.1152400000" lon="-4.1453730000"><ele>335</ele><time>2016-10-15T09:28:47Z</time></trkpt>
<trkpt lat="53.1152400000" lon="-4.1453880000"><ele>335</ele><time>2016-10-15T09:28:48Z</time></trkpt>
<trkpt lat="53.1152390000" lon="-4.1454040000"><ele>335</ele><time>2016-10-15T09:28:49Z</time></trkpt>
<trkpt lat="53.1152390000" lon="-4.1454190000"><ele>335</ele><time>2016-10-15T09:28:50Z</time></trkpt>
<trkpt lat="53.1152390000" lon="-4.1454330000"><ele>335</ele><time>2016-10-15T09:28:51Z</time></trkpt>
<trkpt lat="53.1152380000" lon="-4.1454480000"><ele>335</ele><time>2016-10-15T09:28:52Z</time></trkpt>
<trkpt lat="53.1152370000" lon="-4.1454630000"><ele>335</ele><time>2016-10-15T09:28:53Z</time></trkpt>
<trkpt lat="53.1152360000" lon="-4.1454780000"><ele>335</ele><time>2016-10-15T09:28:54Z</time></trkpt>
<trkpt lat="53.1152350000" lon="-4.1454930000"><ele>335</ele><time>2016-10-15T09:28:55Z</time></trkpt>
<trkpt lat="53.1152340000" lon="-4.1455080000"><ele>335</ele><time>2016-10-15T09:28:56Z</time></trkpt>
<trkpt lat="53.1152330000" lon="-4.1455230000"><ele>335</ele><time>2016-10-15T09:28:57Z</time></trkpt>
<trkpt lat="53.1152320000" lon="-4.1455380000"><ele>335</ele><time>2016-10-15T09:28:58Z</time></trkpt>
<trkpt lat="53.1152310000" lon="-4.1455530000"><ele>335</ele><time>2016-10-15T09:28:59Z</time></trkpt>
<trkpt lat="53.1152290000" lon="-4.1455680000"><ele>335</ele><time>2016-10-15T09:29:00Z</time></trkpt>
<trkpt lat="53.1152280000" lon="-4.1455830000"><ele>335</ele><time>2016-10-15T09:29:01Z</time></trkpt>
<trkpt lat="53.1152260000" lon="-4.1455990000"><ele>335</ele><time>2016-10-15T09:29:02Z</time></trkpt>
<trkpt lat="53.1152240000" lon="-4.1456140000"><ele>335</ele><time>2016-10-15T09:29:03Z</time></trkpt>
<trkpt lat="53.1152230000" lon="-4.1456290000"><ele>336</ele><time>2016-10-15T09:29:04Z</time></trkpt>
<trkpt lat="53.1152210000" lon="-4.1456440000"><ele>336</ele><time>2016-10-15T09:29:05Z</time></trkpt>
<trkpt lat="53.1152200000" lon="-4.1456590000"><ele>336</ele><time>2016-10-15T09:29:06Z</time></trkpt>
<trkpt lat="53.1152190000" lon="-4.1456740000"><ele>336</ele><time>2016-10-15T09:29:07Z</time></trkpt>
<trkpt lat="53.1152180000" lon="-4.1456890000"><ele>336</ele><time>2016-10-15T09:29:08Z</time></trkpt>
<trkpt lat="53.1152170000" lon="-4.1457050000"><ele>336</ele><time>2016-10-15T09:29:09Z</time></trkpt>
<trkpt lat="53.1152160000" lon="-4.1457200000"><ele>336</ele><time>2016-10-15T09:29:10Z</time></trkpt>
<trkpt lat="53.1152160000" lon="-4.1457340000"><ele>337</ele><time>2016-10-15T09:29:11Z</time></trkpt>
<trkpt lat="53.1152150000" lon="-4.1457490000"><ele>337</ele><time>2016-10-15T09:29:12Z</time></trkpt>
<trkpt lat="53.1152140000" lon="-4.1457640000"><ele>337</ele><time>2016-10-15T09:29:13Z</time></trkpt>
<trkpt lat="53.1152140000" lon="-4.1457790000"><ele>337</ele><time>2016-10-15T09:29:14Z</time></trkpt>
<trkpt lat="53.1152130000" lon="-4.1457930000"><ele>337</ele><time>2016-10-15T09:29:15Z</time></trkpt>
<trkpt lat="53.1152120000" lon="-4.1458080000"><ele>337</ele><time>2016-10-15T09:29:16Z</time></trkpt>
<trkpt lat="53.1152110000" lon="-4.1458220000"><ele>337</ele><time>2016-10-15T09:29:17Z</time></trkpt>
<trkpt lat="53.1152100000" lon="-4.1458360000"><ele>338</ele><time>2016-10-15T09:29:18Z</time></trkpt>
<trkpt lat="53.1152090000" lon="-4.1458500000"><ele>338</ele><time>2016-10-15T09:29:19Z</time></trkpt>
<trkpt lat="53.1152080000" lon="-4.1458650000"><ele>338</ele><time>2016-10-15T09:29:20Z</time></trkpt>
<trkpt lat="53.1152070000" lon="-4.1458790000"><ele>338</ele><time>2016-10-15T09:29:21Z</time></trkpt>
<trkpt lat="53.1152060000" lon="-4.1458920000"><ele>338</ele><time>2016-10-15T09:29:22Z</time></trkpt>
<trkpt lat="53.1152050000" lon="-4.1459060000"><ele>338</ele><time>2016-10-15T09:29:23Z</time></trkpt>
<trkpt lat="53.1152040000" lon="-4.1459200000"><ele>339</ele><time>2016-10-15T09:29:24Z</time></trkpt>
<trkpt lat="53.1152030000" lon="-4.1459340000"><ele>339</ele><time>2016-10-15T09:29:25Z</time></trkpt>
<trkpt lat="53.1152020000" lon="-4.1459470000"><ele>339</ele><time>2016-10-15T09:29:26Z</time></trkpt>
<trkpt lat="53.1152010000" lon="-4.1459610000"><ele>339</ele><time>2016-10-15T09:29:27Z</time></trkpt>
<trkpt lat="53.1152010000" lon="-4.1459750000"><ele>339</ele><time>2016-10-15T09:29:28Z</time></trkpt>
<trkpt lat="53.1152000000" lon="-4.1459890000"><ele>339</ele><time>2016-10-15T09:29:29Z</time></trkpt>
<trkpt lat="53.1151990000" lon="-4.1460030000"><ele>339</ele><time>2016-10-15T09:29:30Z</time></trkpt>
<trkpt lat="53.1151980000" lon="-4.1460180000"><ele>340</ele><time>2016-10-15T09:29:31Z</time></trkpt>
<trkpt lat="53.1151980000" lon="-4.1460320000"><ele>340</ele><time>2016-10-15T09:29:32Z</time></trkpt>
<trkpt lat="53.1151970000" lon="-4.1460460000"><ele>340</ele><time>2016-10-15T09:29:33Z</time></trkpt>
<trkpt lat="53.1151970000" lon="-4.1460610000"><ele>340</ele><time>2016-10-15T09:29:34Z</time></trkpt>
<trkpt lat="53.1151960000" lon="-4.1460750000"><ele>341</ele><time>2016-10-15T09:29:35Z</time></trkpt>
<trkpt lat="53.1151960000" lon="-4.1460900000"><ele>341</ele><time>2016-10-15T09:29:36Z</time></trkpt>
<trkpt lat="53.1151950000" lon="-4.1461040000"><ele>341</ele><time>2016-10-15T09:29:37Z</time></trkpt>
<trkpt lat="53.1151940000" lon="-4.1461340000"><ele>342</ele><time>2016-10-15T09:29:39Z</time></trkpt>
<trkpt lat="53.1151940000" lon="-4.1461490000"><ele>342</ele><time>2016-10-15T09:29:40Z</time></trkpt>
<trkpt lat="53.1151930000" lon="-4.1461630000"><ele>342</ele><time>2016-10-15T09:29:41Z</time></trkpt>
<trkpt lat="53.1151930000" lon="-4.1461780000"><ele>342</ele><time>2016-10-15T09:29:42Z</time></trkpt>
<trkpt lat="53.1151920000" lon="-4.1461930000"><ele>343</ele><time>2016-10-15T09:29:43Z</time></trkpt>
<trkpt lat="53.1151920000" lon="-4.1462080000"><ele>343</ele><time>2016-10-15T09:29:44Z</time></trkpt>
<trkpt lat="53.1151910000" lon="-4.1462240000"><ele>343</ele><time>2016-10-15T09:29:45Z</time></trkpt>
<trkpt lat="53.1151910000" lon="-4.1462400000"><ele>343</ele><time>2016-10-15T09:29:46Z</time></trkpt>
<trkpt lat="53.1151870000" lon="-4.1464750000"><ele>343</ele><time>2016-10-15T09:29:47Z</time></trkpt>
<trkpt lat="53.1151880000" lon="-4.1464920000"><ele>344</ele><time>2016-10-15T09:29:48Z</time></trkpt>
<trkpt lat="53.1151890000" lon="-4.1465080000"><ele>344</ele><time>2016-10-15T09:29:49Z</time></trkpt>
<trkpt lat="53.1151890000" lon="-4.1465080000"><ele>344</ele><time>2016-10-15T09:29:50Z</time></trkpt>
<trkpt lat="53.1151890000" lon="-4.1465080000"><ele>344</ele><time>2016-10-15T09:29:51Z</time></trkpt>
<trkpt lat="53.1151890000" lon="-4.1465090000"><ele>344</ele><time>2016-10-15T09:29:52Z</time></trkpt>
<trkpt lat="53.1151890000" lon="-4.1465100000"><ele>345</ele><time>2016-10-15T09:29:53Z</time></trkpt>
<trkpt lat="53.1151900000" lon="-4.1465120000"><ele>345</ele><time>2016-10-15T09:29:54Z</time></trkpt>
<trkpt lat="53.1151900000" lon="-4.1465150000"><ele>345</ele><time>2016-10-15T09:29:55Z</time></trkpt>
<trkpt lat="53.1151900000" lon="-4.1465190000"><ele>345</ele><time>2016-10-15T09:29:56Z</time></trkpt>
<trkpt lat="53.1151910000" lon="-4.1465230000"><ele>346</ele><time>2016-10-15T09:29:57Z</time></trkpt>
<trkpt lat="53.1151920000" lon="-4.1465280000"><ele>346</ele><time>2016-10-15T09:29:58Z</time></trkpt>
<trkpt lat="53.1151930000" lon="-4.1465340000"><ele>346</ele><time>2016-10-15T09:29:59Z</time></trkpt>
<trkpt lat="53.1151940000" lon="-4.1465410000"><ele>346</ele><time>2016-10-15T09:30:00Z</time></trkpt>
<trkpt lat="53.1151950000" lon="-4.1465490000"><ele>347</ele><time>2016-10-15T09:30:01Z</time></trkpt>
<trkpt lat="53.1151970000" lon="-4.1465580000"><ele>347</ele><time>2016-10-15T09:30:02Z</time></trkpt>
<trkpt lat="53.1151980000" lon="-4.1465680000"><ele>347</ele><time>2016-10-15T09:30:03Z</time></trkpt>
<trkpt lat="53.1152000000" lon="-4.1465780000"><ele>347</ele><time>2016-10-15T09:30:04Z</time></trkpt>
<trkpt lat="53.1152020000" lon="-4.1465890000"><ele>347</ele><time>2016-10-15T09:30:05Z</time></trkpt>
<trkpt lat="53.1152370000" lon="-4.1467950000"><ele>348</ele><time>2016-10-15T09:30:06Z</time></trkpt>
<trkpt lat="53.1152400000" lon="-4.1468120000"><ele>348</ele><time>2016-10-15T09:30:07Z</time></trkpt>
<trkpt lat="53.1152410000" lon="-4.1468300000"><ele>348</ele><time>2016-10-15T09:30:08Z</time></trkpt>
<trkpt lat="53.1152420000" lon="-4.1468460000"><ele>348</ele><time>2016-10-15T09:30:09Z</time></trkpt>
<trkpt lat="53.1152430000" lon="-4.1468620000"><ele>348</ele><time>2016-10-15T09:30:10Z</time></trkpt>
<trkpt lat="53.1152430000" lon="-4.1468770000"><ele>348</ele><time>2016-10-15T09:30:11Z</time></trkpt>
<trkpt lat="53.1152450000" lon="-4.1468940000"><ele>348</ele><time>2016-10-15T09:30:12Z</time></trkpt>
<trkpt lat="53.1152470000" lon="-4.1469110000"><ele>348</ele><time>2016-10-15T09:30:13Z</time></trkpt>
<trkpt lat="53.1152500000" lon="-4.1469280000"><ele>348</ele><time>2016-10-15T09:30:14Z</time></trkpt>
<trkpt lat="53.1152500000" lon="-4.1469280000"><ele>348</ele><time>2016-10-15T09:30:15Z</time></trkpt>
<trkpt lat="53.1152500000" lon="-4.1469280000"><ele>348</ele><time>2016-10-15T09:30:16Z</time></trkpt>
<trkpt lat="53.1152500000" lon="-4.1469290000"><ele>348</ele><time>2016-10-15T09:30:17Z</time></trkpt>
<trkpt lat="53.1152510000" lon="-4.1469310000"><ele>348</ele><time>2016-10-15T09:30:18Z</time></trkpt>
<trkpt lat="53.1152510000" lon="-4.1469330000"><ele>348</ele><time>2016-10-15T09:30:19Z</time></trkpt>
<trkpt lat="53.1152510000" lon="-4.1469360000"><ele>348</ele><time>2016-10-15T09:30:20Z</time></trkpt>
<trkpt lat="53.1152520000" lon="-4.1469390000"><ele>349</ele><time>2016-10-15T09:30:21Z</time></trkpt>
<trkpt lat="53.1152530000" lon="-4.1469440000"><ele>349</ele><time>2016-10-15T09:30:22Z</time></trkpt>
<trkpt lat="53.1152540000" lon="-4.1469490000"><ele>349</ele><time>2016-10-15T09:30:23Z</time></trkpt>
<trkpt lat="53.1152550000" lon="-4.1469550000"><ele>349</ele><time>2016-10-15T09:30:24Z</time></trkpt>
<trkpt lat="53.1152560000" lon="-4.1469620000"><ele>349</ele><time>2016-10-15T09:30:25Z</time></trkpt>
<trkpt lat="53.1152570000" lon="-4.1469690000"><ele>349</ele><time>2016-10-15T09:30:26Z</time></trkpt>
<trkpt lat="53.1152580000" lon="-4.1469780000"><ele>349</ele><time>2016-10-15T09:30:27Z</time></trkpt>
<trkpt lat="53.1152600000" lon="-4.1469860000"><ele>350</ele><time>2016-10-15T09:30:28Z</time></trkpt>
<trkpt lat="53.1152610000" lon="-4.1469960000"><ele>350</ele><time>2016-10-15T09:30:29Z</time></trkpt>
<trkpt lat="53.1152630000" lon="-4.1470060000"><ele>350</ele><time>2016-10-15T09:30:30Z</time></trkpt>
<trkpt lat="53.1152650000" lon="-4.1470160000"><ele>350</ele><time>2016-10-15T09:30:31Z</time></trkpt>
<trkpt lat="53.1152660000" lon="-4.1470270000"><ele>350</ele><time>2016-10-15T09:30:32Z</time></trkpt>
<trkpt lat="53.1152680000" lon="-4.1470380000"><ele>350</ele><time>2016-10-15T09:30:33Z</time></trkpt>
<trkpt lat="53.1152700000" lon="-4.1470500000"><ele>350</ele><time>2016-10-15T09:30:34Z</time></trkpt>
<trkpt lat="53.1152720000" lon="-4.1470620000"><ele>350</ele><time>2016-10-15T09:30:35Z</time></trkpt>
<trkpt lat="53.1152740000" lon="-4.1470750000"><ele>350</ele><time>2016-10-15T09:30:36Z</time></trkpt>
<trkpt lat="53.1152750000" lon="-4.1470880000"><ele>351</ele><time>2016-10-15T09:30:37Z</time></trkpt>
<trkpt lat="53.1152790000" lon="-4.1471140000"><ele>351</ele><time>2016-10-15T09:30:39Z</time></trkpt>
<trkpt lat="53.1152800000" lon="-4.1471270000"><ele>351</ele><time>2016-10-15T09:30:40Z</time></trkpt>
<trkpt lat="53.1152820000" lon="-4.1471410000"><ele>351</ele><time>2016-10-15T09:30:41Z</time></trkpt>
<trkpt lat="53.1152840000" lon="-4.1471550000"><ele>351</ele><time>2016-10-15T09:30:42Z</time></trkpt>
<trkpt lat="53.1152850000" lon="-4.1471690000"><ele>351</ele><time>2016-10-15T09:30:43Z</time></trkpt>
<trkpt lat="53.1152870000" lon="-4.1471830000"><ele>351</ele><time>2016-10-15T09:30:44Z</time></trkpt>
<trkpt lat="53.1152890000" lon="-4.1471970000"><ele>352</ele><time>2016-10-15T09:30:45Z</time></trkpt>
<trkpt lat="53.1152910000" lon="-4.1472120000"><ele>352</ele><time>2016-10-15T09:30:46Z</time></trkpt>
<trkpt lat="53.1152940000" lon="-4.1472260000"><ele>352</ele><time>2016-10-15T09:30:47Z</time></trkpt>
<trkpt lat="53.1152960000" lon="-4.1472410000"><ele>352</ele><time>2016-10-15T09:30:48Z</time></trkpt>
<trkpt lat="53.1152990000" lon="-4.1472560000"><ele>352</ele><time>2016-10-15T09:30:49Z</time></trkpt>
<trkpt lat="53.1153020000" lon="-4.1472710000"><ele>352</ele><time>2016-10-15T09:30:50Z</time></trkpt>
<trkpt lat="53.1153490000" lon="-4.1474880000"><ele>353</ele><time>2016-10-15T09:30:51Z</time></trkpt>
<trkpt lat="53.1153530000" lon="-4.1475020000"><ele>353</ele><time>2016-10-15T09:30:52Z</time></trkpt>
<trkpt lat="53.1153610000" lon="-4.1475170000"><ele>353</ele><time>2016-10-15T09:30:53Z</time></trkpt>
<trkpt lat="53.1153690000" lon="-4.1475330000"><ele>353</ele><time>2016-10-15T09:30:54Z</time></trkpt>
<trkpt lat="53.1153780000" lon="-4.1475510000"><ele>353</ele><time>2016-10-15T09:30:55Z</time></trkpt>
<trkpt lat="53.1153860000" lon="-4.1475690000"><ele>354</ele><time>2016-10-15T09:30:56Z</time></trkpt>
<trkpt lat="53.1153910000" lon="-4.1475870000"><ele>354</ele><time>2016-10-15T09:30:57Z</time></trkpt>
<trkpt lat="53.1153950000" lon="-4.1476040000"><ele>354</ele><time>2016-10-15T09:30:58Z</time></trkpt>
<trkpt lat="53.1153980000" lon="-4.1476210000"><ele>354</ele><time>2016-10-15T09:30:59Z</time></trkpt>
<trkpt lat="53.1154040000" lon="-4.1476390000"><ele>354</ele><time>2016-10-15T09:31:00Z</time></trkpt>
<trkpt lat="53.1154120000" lon="-4.1476570000"><ele>355</ele><time>2016-10-15T09:31:01Z</time></trkpt>
<trkpt lat="53.1154180000" lon="-4.1476750000"><ele>355</ele><time>2016-10-15T09:31:02Z</time></trkpt>
<trkpt lat="53.1154230000" lon="-4.1476950000"><ele>355</ele><time>2016-10-15T09:31:03Z</time></trkpt>
<trkpt lat="53.1154250000" lon="-4.1477140000"><ele>355</ele><time>2016-10-15T09:31:04Z</time></trkpt>
<trkpt lat="53.1154290000" lon="-4.1477340000"><ele>355</ele><time>2016-10-15T09:31:05Z</time></trkpt>
<trkpt lat="53.1154320000" lon="-4.1477540000"><ele>356</ele><time>2016-10-15T09:31:06Z</time></trkpt>
<trkpt lat="53.1154340000" lon="-4.1477730000"><ele>356</ele><time>2016-10-15T09:31:07Z</time></trkpt>
<trkpt lat="53.1154360000" lon="-4.1477920000"><ele>356</ele><time>2016-10-15T09:31:08Z</time></trkpt>
<trkpt lat="53.1154390000" lon="-4.1478120000"><ele>356</ele><time>2016-10-15T09:31:09Z</time></trkpt>
<trkpt lat="53.1154440000" lon="-4.1478310000"><ele>356</ele><time>2016-10-15T09:31:10Z</time></trkpt>
<trkpt lat="53.1154470000" lon="-4.1478500000"><ele>356</ele><time>2016-10-15T09:31:11Z</time></trkpt>
<trkpt lat="53.1154480000" lon="-4.1478670000"><ele>356</ele><time>2016-10-15T09:31:12Z</time></trkpt>
<trkpt lat="53.1154510000" lon="-4.1478850000"><ele>356</ele><time>2016-10-15T09:31:13Z</time></trkpt>
<trkpt lat="53.1154510000" lon="-4.1478850000"><ele>356</ele><time>2016-10-15T09:31:14Z</time></trkpt>
<trkpt lat="53.1154510000" lon="-4.1478850000"><ele>357</ele><time>2016-10-15T09:31:15Z</time></trkpt>
<trkpt lat="53.1154510000" lon="-4.1478860000"><ele>357</ele><time>2016-10-15T09:31:16Z</time></trkpt>
<trkpt lat="53.1154510000" lon="-4.1478880000"><ele>357</ele><time>2016-10-15T09:31:17Z</time></trkpt>
<trkpt lat="53.1154520000" lon="-4.1478900000"><ele>357</ele><time>2016-10-15T09:31:18Z</time></trkpt>
<trkpt lat="53.1154520000" lon="-4.1478930000"><ele>357</ele><time>2016-10-15T09:31:19Z</time></trkpt>
<trkpt lat="53.1154530000" lon="-4.1478960000"><ele>357</ele><time>2016-10-15T09:31:20Z</time></trkpt>
<trkpt lat="53.1154530000" lon="-4.1479010000"><ele>357</ele><time>2016-10-15T09:31:21Z</time></trkpt>
<trkpt lat="53.1154540000" lon="-4.1479050000"><ele>357</ele><time>2016-10-15T09:31:22Z</time></trkpt>
<trkpt lat="53.1154540000" lon="-4.1479110000"><ele>357</ele><time>2016-10-15T09:31:23Z</time></trkpt>
<trkpt lat="53.1154550000" lon="-4.1479160000"><ele>356</ele><time>2016-10-15T09:31:24Z</time></trkpt>
<trkpt lat="53.1154560000" lon="-4.1479230000"><ele>356</ele><time>2016-10-15T09:31:25Z</time></trkpt>
<trkpt lat="53.1154570000" lon="-4.1479310000"><ele>356</ele><time>2016-10-15T09:31:26Z</time></trkpt>
<trkpt lat="53.1154580000" lon="-4.1479400000"><ele>356</ele><time>2016-10-15T09:31:27Z</time></trkpt>
<trkpt lat="53.1154590000" lon="-4.1479490000"><ele>356</ele><time>2016-10-15T09:31:28Z</time></trkpt>
<trkpt lat="53.1154600000" lon="-4.1479600000"><ele>356</ele><time>2016-10-15T09:31:29Z</time></trkpt>
<trkpt lat="53.1154620000" lon="-4.1479700000"><ele>356</ele><time>2016-10-15T09:31:30Z</time></trkpt>
<trkpt lat="53.1154630000" lon="-4.1479820000"><ele>356</ele><time>2016-10-15T09:31:31Z</time></trkpt>
<trkpt lat="53.1154640000" lon="-4.1479940000"><ele>356</ele><time>2016-10-15T09:31:32Z</time></trkpt>
<trkpt lat="53.1154650000" lon="-4.1480070000"><ele>356</ele><time>2016-10-15T09:31:33Z</time></trkpt>
<trkpt lat="53.1154670000" lon="-4.1480210000"><ele>356</ele><time>2016-10-15T09:31:34Z</time></trkpt>
<trkpt lat="53.1154680000" lon="-4.1480340000"><ele>356</ele><time>2016-10-15T09:31:35Z</time></trkpt>
<trkpt lat="53.1154700000" lon="-4.1480490000"><ele>356</ele><time>2016-10-15T09:31:36Z</time></trkpt>
<trkpt lat="53.1154710000" lon="-4.1480640000"><ele>356</ele><time>2016-10-15T09:31:37Z</time></trkpt>
<trkpt lat="53.1154750000" lon="-4.1480910000"><ele>356</ele><time>2016-10-15T09:31:39Z</time></trkpt>
<trkpt lat="53.1154770000" lon="-4.1481070000"><ele>356</ele><time>2016-10-15T09:31:40Z</time></trkpt>
<trkpt lat="53.1154790000" lon="-4.1481220000"><ele>356</ele><time>2016-10-15T09:31:41Z</time></trkpt>
<trkpt lat="53.1154810000" lon="-4.1481380000"><ele>356</ele><time>2016-10-15T09:31:42Z</time></trkpt>
<trkpt lat="53.1154830000" lon="-4.1481540000"><ele>356</ele><time>2016-10-15T09:31:43Z</time></trkpt>
<trkpt lat="53.1155180000" lon="-4.1483960000"><ele>356</ele><time>2016-10-15T09:31:44Z</time></trkpt>
<trkpt lat="53.1155210000" lon="-4.1484120000"><ele>356</ele><time>2016-10-15T09:31:45Z</time></trkpt>
<trkpt lat="53.1155250000" lon="-4.1484290000"><ele>357</ele><time>2016-10-15T09:31:46Z</time></trkpt>
<trkpt lat="53.1155290000" lon="-4.1484480000"><ele>357</ele><time>2016-10-15T09:31:47Z</time></trkpt>
<trkpt lat="53.1155290000" lon="-4.1484480000"><ele>357</ele><time>2016-10-15T09:31:48Z</time></trkpt>
<trkpt lat="53.1155290000" lon="-4.1484480000"><ele>357</ele><time>2016-10-15T09:31:49Z</time></trkpt>
<trkpt lat="53.1155290000" lon="-4.1484490000"><ele>357</ele><time>2016-10-15T09:31:50Z</time></trkpt>
<trkpt lat="53.1155300000" lon="-4.1484510000"><ele>357</ele><time>2016-10-15T09:31:51Z</time></trkpt>
<trkpt lat="53.1155300000" lon="-4.1484530000"><ele>357</ele><time>2016-10-15T09:31:52Z</time></trkpt>
<trkpt lat="53.1155310000" lon="-4.1484560000"><ele>357</ele><time>2016-10-15T09:31:53Z</time></trkpt>
<trkpt lat="53.1155310000" lon="-4.1484600000"><ele>357</ele><time>2016-10-15T09:31:54Z</time></trkpt>
<trkpt lat="53.1155320000" lon="-4.1484650000"><ele>358</ele><time>2016-10-15T09:31:55Z</time></trkpt>
<trkpt lat="53.1155340000" lon="-4.1484710000"><ele>358</ele><time>2016-10-15T09:31:56Z</time></trkpt>
<trkpt lat="53.1155350000" lon="-4.1484780000"><ele>358</ele><time>2016-10-15T09:31:57Z</time></trkpt>
<trkpt lat="53.1155370000" lon="-4.1484850000"><ele>358</ele><time>2016-10-15T09:31:58Z</time></trkpt>
<trkpt lat="53.1155390000" lon="-4.1484940000"><ele>358</ele><time>2016-10-15T09:31:59Z</time></trkpt>
<trkpt lat="53.1155400000" lon="-4.1485040000"><ele>358</ele><time>2016-10-15T09:32:00Z</time></trkpt>
<trkpt lat="53.1155430000" lon="-4.1485140000"><ele>358</ele><time>2016-10-15T09:32:01Z</time></trkpt>
<trkpt lat="53.1155450000" lon="-4.1485250000"><ele>358</ele><time>2016-10-15T09:32:02Z</time></trkpt>
<trkpt lat="53.1155470000" lon="-4.1485370000"><ele>358</ele><time>2016-10-15T09:32:03Z</time></trkpt>
<trkpt lat="53.1155500000" lon="-4.1485500000"><ele>359</ele><time>2016-10-15T09:32:04Z</time></trkpt>
<trkpt lat="53.1155520000" lon="-4.1485630000"><ele>359</ele><time>2016-10-15T09:32:05Z</time></trkpt>
<trkpt lat="53.1155550000" lon="-4.1485770000"><ele>359</ele><time>2016-10-15T09:32:06Z</time></trkpt>
<trkpt lat="53.1155580000" lon="-4.1485910000"><ele>359</ele><time>2016-10-15T09:32:07Z</time></trkpt>
<trkpt lat="53.1155600000" lon="-4.1486060000"><ele>359</ele><time>2016-10-15T09:32:08Z</time></trkpt>
<trkpt lat="53.1155630000" lon="-4.1486210000"><ele>359</ele><time>2016-10-15T09:32:09Z</time></trkpt>
<trkpt lat="53.1156140000" lon="-4.1488620000"><ele>359</ele><time>2016-10-15T09:32:10Z</time></trkpt>
<trkpt lat="53.1156200000" lon="-4.1488790000"><ele>359</ele><time>2016-10-15T09:32:11Z</time></trkpt>
<trkpt lat="53.1156230000" lon="-4.1488960000"><ele>359</ele><time>2016-10-15T09:32:12Z</time></trkpt>
<trkpt lat="53.1156230000" lon="-4.1488960000"><ele>360</ele><time>2016-10-15T09:32:13Z</time></trkpt>
<trkpt lat="53.1156230000" lon="-4.1488960000"><ele>360</ele><time>2016-10-15T09:32:14Z</time></trkpt>
<trkpt lat="53.1156230000" lon="-4.1488970000"><ele>360</ele><time>2016-10-15T09:32:15Z</time></trkpt>
<trkpt lat="53.1156240000" lon="-4.1488990000"><ele>360</ele><time>2016-10-15T09:32:16Z</time></trkpt>
<trkpt lat="53.1156240000" lon="-4.1489010000"><ele>360</ele><time>2016-10-15T09:32:17Z</time></trkpt>
<trkpt lat="53.1156250000" lon="-4.1489040000"><ele>360</ele><time>2016-10-15T09:32:18Z</time></trkpt>
<trkpt lat="53.1156260000" lon="-4.1489080000"><ele>361</ele><time>2016-10-15T09:32:19Z</time></trkpt>
<trkpt lat="53.1156270000" lon="-4.1489120000"><ele>361</ele><time>2016-10-15T09:32:20Z</time></trkpt>
<trkpt lat="53.1156280000" lon="-4.1489180000"><ele>361</ele><time>2016-10-15T09:32:21Z</time></trkpt>
<trkpt lat="53.1156290000" lon="-4.1489240000"><ele>361</ele><time>2016-10-15T09:32:22Z</time></trkpt>
<trkpt lat="53.1156300000" lon="-4.1489310000"><ele>361</ele><time>2016-10-15T09:32:23Z</time></trkpt>
<trkpt lat="53.1156310000" lon="-4.1489390000"><ele>361</ele><time>2016-10-15T09:32:24Z</time></trkpt>
<trkpt lat="53.1156320000" lon="-4.1489480000"><ele>361</ele><time>2016-10-15T09:32:25Z</time></trkpt>
<trkpt lat="53.1156340000" lon="-4.1489550000"><ele>362</ele><time>2016-10-15T09:32:26Z</time></trkpt>
<trkpt lat="53.1156350000" lon="-4.1489630000"><ele>362</ele><time>2016-10-15T09:32:27Z</time></trkpt>
<trkpt lat="53.1156360000" lon="-4.1489710000"><ele>362</ele><time>2016-10-15T09:32:28Z</time></trkpt>
<trkpt lat="53.1156380000" lon="-4.1489810000"><ele>362</ele><time>2016-10-15T09:32:29Z</time></trkpt>
<trkpt lat="53.1156400000" lon="-4.1489920000"><ele>362</ele><time>2016-10-15T09:32:30Z</time></trkpt>
<trkpt lat="53.1156420000" lon="-4.1490040000"><ele>362</ele><time>2016-10-15T09:32:31Z</time></trkpt>
<trkpt lat="53.1156440000" lon="-4.1490170000"><ele>363</ele><time>2016-10-15T09:32:32Z</time></trkpt>
<trkpt lat="53.1156460000" lon="-4.1490290000"><ele>363</ele><time>2016-10-15T09:32:33Z</time></trkpt>
<trkpt lat="53.1156480000" lon="-4.1490410000"><ele>363</ele><time>2016-10-15T09:32:34Z</time></trkpt>
<trkpt lat="53.1156500000" lon="-4.1490530000"><ele>363</ele><time>2016-10-15T09:32:35Z</time></trkpt>
<trkpt lat="53.1156520000" lon="-4.1490650000"><ele>363</ele><time>2016-10-15T09:32:36Z</time></trkpt>
<trkpt lat="53.1156540000" lon="-4.1490750000"><ele>363</ele><time>2016-10-15T09:32:37Z</time></trkpt>
<trkpt lat="53.1156570000" lon="-4.1490920000"><ele>364</ele><time>2016-10-15T09:32:39Z</time></trkpt>
<trkpt lat="53.1156580000" lon="-4.1491000000"><ele>364</ele><time>2016-10-15T09:32:40Z</time></trkpt>
<trkpt lat="53.1156590000" lon="-4.1491080000"><ele>364</ele><time>2016-10-15T09:32:41Z</time></trkpt>
<trkpt lat="53.1156600000" lon="-4.1491170000"><ele>364</ele><time>2016-10-15T09:32:42Z</time></trkpt>
<trkpt lat="53.1156620000" lon="-4.1491250000"><ele>364</ele><time>2016-10-15T09:32:43Z</time></trkpt>
<trkpt lat="53.1156630000" lon="-4.1491320000"><ele>364</ele><time>2016-10-15T09:32:44Z</time></trkpt>
<trkpt lat="53.1156640000" lon="-4.1491390000"><ele>364</ele><time>2016-10-15T09:32:45Z</time></trkpt>
<trkpt lat="53.1156660000" lon="-4.1491450000"><ele>364</ele><time>2016-10-15T09:32:46Z</time></trkpt>
<trkpt lat="53.1156670000" lon="-4.1491510000"><ele>364</ele><time>2016-10-15T09:32:47Z</time></trkpt>
<trkpt lat="53.1156680000" lon="-4.1491560000"><ele>364</ele><time>2016-10-15T09:32:48Z</time></trkpt>
<trkpt lat="53.1156690000" lon="-4.1491600000"><ele>364</ele><time>2016-10-15T09:32:49Z</time></trkpt>
<trkpt lat="53.1156700000" lon="-4.1491640000"><ele>364</ele><time>2016-10-15T09:32:50Z</time></trkpt>
<trkpt lat="53.1156710000" lon="-4.1491670000"><ele>364</ele><time>2016-10-15T09:32:51Z</time></trkpt>
<trkpt lat="53.1156710000" lon="-4.1491700000"><ele>364</ele><time>2016-10-15T09:32:52Z</time></trkpt>
<trkpt lat="53.1156710000" lon="-4.1491730000"><ele>364</ele><time>2016-10-15T09:32:53Z</time></trkpt>
<trkpt lat="53.1156720000" lon="-4.1491760000"><ele>364</ele><time>2016-10-15T09:32:54Z</time></trkpt>
<trkpt lat="53.1156720000" lon="-4.1491780000"><ele>364</ele><time>2016-10-15T09:32:55Z</time></trkpt>
<trkpt lat="53.1156720000" lon="-4.1491810000"><ele>364</ele><time>2016-10-15T09:32:56Z</time></trkpt>
<trkpt lat="53.1156720000" lon="-4.1491830000"><ele>364</ele><time>2016-10-15T09:32:57Z</time></trkpt>
<trkpt lat="53.1156710000" lon="-4.1491860000"><ele>364</ele><time>2016-10-15T09:32:58Z</time></trkpt>
<trkpt lat="53.1156710000" lon="-4.1491890000"><ele>364</ele><time>2016-10-15T09:32:59Z</time></trkpt>
<trkpt lat="53.1156570000" lon="-4.1492440000"><ele>363</ele><time>2016-10-15T09:33:20Z</time></trkpt>
<trkpt lat="53.1156420000" lon="-4.1492820000"><ele>363</ele><time>2016-10-15T09:33:21Z</time></trkpt>
<trkpt lat="53.1156410000" lon="-4.1492870000"><ele>363</ele><time>2016-10-15T09:33:22Z</time></trkpt>
<trkpt lat="53.1156400000" lon="-4.1492890000"><ele>363</ele><time>2016-10-15T09:33:23Z</time></trkpt>
<trkpt lat="53.1156400000" lon="-4.1492890000"><ele>363</ele><time>2016-10-15T09:33:28Z</time></trkpt>
<trkpt lat="53.1156400000" lon="-4.1492890000"><ele>363</ele><time>2016-10-15T09:33:29Z</time></trkpt>
<trkpt lat="53.1156400000" lon="-4.1492890000"><ele>363</ele><time>2016-10-15T09:33:30Z</time></trkpt>
<trkpt lat="53.1156400000" lon="-4.1492900000"><ele>363</ele><time>2016-10-15T09:33:31Z</time></trkpt>
<trkpt lat="53.1156390000" lon="-4.1492910000"><ele>363</ele><time>2016-10-15T09:33:32Z</time></trkpt>
<trkpt lat="53.1156380000" lon="-4.1492930000"><ele>364</ele><time>2016-10-15T09:33:33Z</time></trkpt>
<trkpt lat="53.1156370000" lon="-4.1492940000"><ele>364</ele><time>2016-10-15T09:33:34Z</time></trkpt>
<trkpt lat="53.1156350000" lon="-4.1492960000"><ele>364</ele><time>2016-10-15T09:33:35Z</time></trkpt>
<trkpt lat="53.1156330000" lon="-4.1492980000"><ele>364</ele><time>2016-10-15T09:33:36Z</time></trkpt>
<trkpt lat="53.1156310000" lon="-4.1493010000"><ele>364</ele><time>2016-10-15T09:33:37Z</time></trkpt>
<trkpt lat="53.1156290000" lon="-4.1493030000"><ele>364</ele><time>2016-10-15T09:33:38Z</time></trkpt>
<trkpt lat="53.1156260000" lon="-4.1493060000"><ele>364</ele><time>2016-10-15T09:33:39Z</time></trkpt>
<trkpt lat="53.1156230000" lon="-4.1493100000"><ele>364</ele><time>2016-10-15T09:33:40Z</time></trkpt>
<trkpt lat="53.1156200000" lon="-4.1493130000"><ele>364</ele><time>2016-10-15T09:33:41Z</time></trkpt>
<trkpt lat="53.1156170000" lon="-4.1493170000"><ele>364</ele><time>2016-10-15T09:33:42Z</time></trkpt>
<trkpt lat="53.1156130000" lon="-4.1493210000"><ele>365</ele><time>2016-10-15T09:33:43Z</time></trkpt>
<trkpt lat="53.1156100000" lon="-4.1493260000"><ele>365</ele><time>2016-10-15T09:33:44Z</time></trkpt>
<trkpt lat="53.1156060000" lon="-4.1493310000"><ele>365</ele><time>2016-10-15T09:33:45Z</time></trkpt>
<trkpt lat="53.1156020000" lon="-4.1493360000"><ele>365</ele><time>2016-10-15T09:33:46Z</time></trkpt>
<trkpt lat="53.1155980000" lon="-4.1493420000"><ele>365</ele><time>2016-10-15T09:33:47Z</time></trkpt>
<trkpt lat="53.1155940000" lon="-4.1493480000"><ele>365</ele><time>2016-10-15T09:33:48Z</time></trkpt>
<trkpt lat="53.1155910000" lon="-4.1493540000"><ele>365</ele><time>2016-10-15T09:33:49Z</time></trkpt>
<trkpt lat="53.1155870000" lon="-4.1493600000"><ele>365</ele><time>2016-10-15T09:33:50Z</time></trkpt>
<trkpt lat="53.1155830000" lon="-4.1493670000"><ele>366</ele><time>2016-10-15T09:33:51Z</time></trkpt>
<trkpt lat="53.1155790000" lon="-4.1493740000"><ele>366</ele><time>2016-10-15T09:33:52Z</time></trkpt>
<trkpt lat="53.1155760000" lon="-4.1493800000"><ele>366</ele><time>2016-10-15T09:33:53Z</time></trkpt>
<trkpt lat="53.1155720000" lon="-4.1493870000"><ele>366</ele><time>2016-10-15T09:33:54Z</time></trkpt>
<trkpt lat="53.1155680000" lon="-4.1493930000"><ele>366</ele><time>2016-10-15T09:33:55Z</time></trkpt>
<trkpt lat="53.1155640000" lon="-4.1493990000"><ele>366</ele><time>2016-10-15T09:33:56Z</time></trkpt>
<trkpt lat="53.1155600000" lon="-4.1494060000"><ele>367</ele><time>2016-10-15T09:33:57Z</time></trkpt>
<trkpt lat="53.1155560000" lon="-4.1494130000"><ele>367</ele><time>2016-10-15T09:33:58Z</time></trkpt>
<trkpt lat="53.1155530000" lon="-4.1494200000"><ele>367</ele><time>2016-10-15T09:33:59Z</time></trkpt>
<trkpt lat="53.1155490000" lon="-4.1494280000"><ele>367</ele><time>2016-10-15T09:34:00Z</time></trkpt>
<trkpt lat="53.1155450000" lon="-4.1494350000"><ele>367</ele><time>2016-10-15T09:34:01Z</time></trkpt>
<trkpt lat="53.1155420000" lon="-4.1494420000"><ele>368</ele><time>2016-10-15T09:34:02Z</time></trkpt>
<trkpt lat="53.1155380000" lon="-4.1494490000"><ele>368</ele><time>2016-10-15T09:34:03Z</time></trkpt>
<trkpt lat="53.1155350000" lon="-4.1494560000"><ele>368</ele><time>2016-10-15T09:34:04Z</time></trkpt>
<trkpt lat="53.1155310000" lon="-4.1494620000"><ele>368</ele><time>2016-10-15T09:34:05Z</time></trkpt>
<trkpt lat="53.1155280000" lon="-4.1494690000"><ele>368</ele><time>2016-10-15T09:34:06Z</time></trkpt>
<trkpt lat="53.1155250000" lon="-4.1494760000"><ele>369</ele><time>2016-10-15T09:34:07Z</time></trkpt>
<trkpt lat="53.1155220000" lon="-4.1494830000"><ele>369</ele><time>2016-10-15T09:34:08Z</time></trkpt>
<trkpt lat="53.1155180000" lon="-4.1494900000"><ele>369</ele><time>2016-10-15T09:34:09Z</time></trkpt>
<trkpt lat="53.1155150000" lon="-4.1494970000"><ele>369</ele><time>2016-10-15T09:34:10Z</time></trkpt>
<trkpt lat="53.1155120000" lon="-4.1495050000"><ele>370</ele><time>2016-10-15T09:34:11Z</time></trkpt>
<trkpt lat="53.1155090000" lon="-4.1495120000"><ele>370</ele><time>2016-10-15T09:34:12Z</time></trkpt>
<trkpt lat="53.1155070000" lon="-4.1495200000"><ele>370</ele><time>2016-10-15T09:34:13Z</time></trkpt>
<trkpt lat="53.1155040000" lon="-4.1495270000"><ele>370</ele><time>2016-10-15T09:34:14Z</time></trkpt>
<trkpt lat="53.1155010000" lon="-4.1495350000"><ele>371</ele><time>2016-10-15T09:34:15Z</time></trkpt>
<trkpt lat="53.1154990000" lon="-4.1495430000"><ele>371</ele><time>2016-10-15T09:34:16Z</time></trkpt>
<trkpt lat="53.1154960000" lon="-4.1495510000"><ele>371</ele><time>2016-10-15T09:34:17Z</time></trkpt>
<trkpt lat="53.1154940000" lon="-4.1495590000"><ele>371</ele><time>2016-10-15T09:34:18Z</time></trkpt>
<trkpt lat="53.1154920000" lon="-4.1495670000"><ele>372</ele><time>2016-10-15T09:34:19Z</time></trkpt>
<trkpt lat="53.1154910000" lon="-4.1495750000"><ele>372</ele><time>2016-10-15T09:34:20Z</time></trkpt>
<trkpt lat="53.1154890000" lon="-4.1495840000"><ele>372</ele><time>2016-10-15T09:34:21Z</time></trkpt>
<trkpt lat="53.1154870000" lon="-4.1495920000"><ele>372</ele><time>2016-10-15T09:34:22Z</time></trkpt>
<trkpt lat="53.1154860000" lon="-4.1496010000"><ele>373</ele><time>2016-10-15T09:34:23Z</time></trkpt>
<trkpt lat="53.1154850000" lon="-4.1496100000"><ele>373</ele><time>2016-10-15T09:34:24Z</time></trkpt>
<trkpt lat="53.1154840000" lon="-4.1496190000"><ele>373</ele><time>2016-10-15T09:34:25Z</time></trkpt>
<trkpt lat="53.1154820000" lon="-4.1496290000"><ele>373</ele><time>2016-10-15T09:34:26Z</time></trkpt>
<trkpt lat="53.1154810000" lon="-4.1496380000"><ele>374</ele><time>2016-10-15T09:34:27Z</time></trkpt>
<trkpt lat="53.1154800000" lon="-4.1496480000"><ele>374</ele><time>2016-10-15T09:34:28Z</time></trkpt>
<trkpt lat="53.1154790000" lon="-4.1496580000"><ele>374</ele><time>2016-10-15T09:34:29Z</time></trkpt>
<trkpt lat="53.1154790000" lon="-4.1496680000"><ele>374</ele><time>2016-10-15T09:34:30Z</time></trkpt>
<trkpt lat="53.1154780000" lon="-4.1496770000"><ele>375</ele><time>2016-10-15T09:34:31Z</time></trkpt>
<trkpt lat="53.1154780000" lon="-4.1496870000"><ele>375</ele><time>2016-10-15T09:34:32Z</time></trkpt>
<trkpt lat="53.1154780000" lon="-4.1496960000"><ele>375</ele><time>2016-10-15T09:34:33Z</time></trkpt>
<trkpt lat="53.1154780000" lon="-4.1497060000"><ele>375</ele><time>2016-10-15T09:34:34Z</time></trkpt>
<trkpt lat="53.1154790000" lon="-4.1497160000"><ele>376</ele><time>2016-10-15T09:34:35Z</time></trkpt>
<trkpt lat="53.1154790000" lon="-4.1497260000"><ele>376</ele><time>2016-10-15T09:34:36Z</time></trkpt>
<trkpt lat="53.1154800000" lon="-4.1497360000"><ele>376</ele><time>2016-10-15T09:34:37Z</time></trkpt>
<trkpt lat="53.1154810000" lon="-4.1497470000"><ele>376</ele><time>2016-10-15T09:34:38Z</time></trkpt>
<trkpt lat="53.1154820000" lon="-4.1497580000"><ele>376</ele><time>2016-10-15T09:34:39Z</time></trkpt>
<trkpt lat="53.1154830000" lon="-4.1497680000"><ele>377</ele><time>2016-10-15T09:34:40Z</time></trkpt>
<trkpt lat="53.1154830000" lon="-4.1497790000"><ele>377</ele><time>2016-10-15T09:34:42Z</time></trkpt>
<trkpt lat="53.1154840000" lon="-4.1497900000"><ele>377</ele></trkpt>
<trkpt lat="53.1154850000" lon="-4.1498000000"><ele>377</ele><time>2016-10-15T09:34:43Z</time></trkpt>
<trkpt lat="53.1154850000" lon="-4.1498100000"><ele>377</ele><time>2016-10-15T09:34:44Z</time></trkpt>
<trkpt lat="53.1154860000" lon="-4.1498200000"><ele>378</ele><time>2016-10-15T09:34:45Z</time></trkpt>
<trkpt lat="53.1154860000" lon="-4.1498300000"><ele>378</ele><time>2016-10-15T09:34:46Z</time></trkpt>
<trkpt lat="53.1154870000" lon="-4.1498410000"><ele>378</ele><time>2016-10-15T09:34:47Z</time></trkpt>
<trkpt lat="53.1154870000" lon="-4.1498500000"><ele>378</ele><time>2016-10-15T09:34:48Z</time></trkpt>
<trkpt lat="53.1154880000" lon="-4.1498600000"><ele>378</ele><time>2016-10-15T09:34:49Z</time></trkpt>
<trkpt lat="53.1154880000" lon="-4.1498700000"><ele>378</ele><time>2016-10-15T09:34:50Z</time></trkpt>
<trkpt lat="53.1154880000" lon="-4.1498790000"><ele>378</ele><time>2016-10-15T09:34:51Z</time></trkpt>
<trkpt lat="53.1154890000" lon="-4.1498890000"><ele>379</ele><time>2016-10-15T09:34:52Z</time></trkpt>
<trkpt lat="53.1154890000" lon="-4.1498980000"><ele>379</ele><time>2016-10-15T09:34:53Z</time></trkpt>
<trkpt lat="53.1154890000" lon="-4.1499080000"><ele>379</ele><time>2016-10-15T09:34:54Z</time></trkpt>
<trkpt lat="53.1154880000" lon="-4.1499180000"><ele>379</ele><time>2016-10-15T09:34:55Z</time></trkpt>
<trkpt lat="53.1154880000" lon="-4.1499270000"><ele>379</ele><time>2016-10-15T09:34:56Z</time></trkpt>
<trkpt lat="53.1154880000" lon="-4.1499360000"><ele>379</ele><time>2016-10-15T09:34:57Z</time></trkpt>
<trkpt lat="53.1154870000" lon="-4.1499460000"><ele>379</ele><time>2016-10-15T09:34:58Z</time></trkpt>
<trkpt lat="53.1154860000" lon="-4.1499540000"><ele>379</ele><time>2016-10-15T09:34:59Z</time></trkpt>
<trkpt lat="53.1154850000" lon="-4.1499630000"><ele>380</ele><time>2016-10-15T09:35:00Z</time></trkpt>
<trkpt lat="53.1154830000" lon="-4.1499710000"><ele>380</ele><time>2016-10-15T09:35:01Z</time></trkpt>
<trkpt lat="53.1154810000" lon="-4.1499800000"><ele>380</ele><time>2016-10-15T09:35:02Z</time></trkpt>
<trkpt lat="53.1154790000" lon="-4.1499880000"><ele>380</ele><time>2016-10-15T09:35:03Z</time></trkpt>
<trkpt lat="53.1154780000" lon="-4.1499960000"><ele>380</ele><time>2016-10-15T09:35:04Z</time></trkpt>
<trkpt lat="53.1154760000" lon="-4.1500050000"><ele>381</ele><time>2016-10-15T09:35:05Z</time></trkpt>
<trkpt lat="53.1154740000" lon="-4.1500130000"><ele>381</ele><time>2016-10-15T09:35:06Z</time></trkpt>
<trkpt lat="53.1154720000" lon="-4.1500220000"><ele>381</ele><time>2016-10-15T09:35:07Z</time></trkpt>
<trkpt lat="53.1154700000" lon="-4.1500310000"><ele>381</ele><time>2016-10-15T09:35:08Z</time></trkpt>
<trkpt lat="53.1154680000" lon="-4.1500410000"><ele>381</ele><time>2016-10-15T09:35:09Z</time></trkpt>
<trkpt lat="53.1154660000" lon="-4.1500510000"><ele>382</ele><time>2016-10-15T09:35:10Z</time></trkpt>
<trkpt lat="53.1154640000" lon="-4.1500610000"><ele>382</ele><time>2016-10-15T09:35:11Z</time></trkpt>
<trkpt lat="53.1154620000" lon="-4.1500710000"><ele>382</ele><time>2016-10-15T09:35:12Z</time></trkpt>
<trkpt lat="53.1154610000" lon="-4.1500820000"><ele>382</ele><time>2016-10-15T09:35:13Z</time></trkpt>
<trkpt lat="53.1154590000" lon="-4.1500930000"><ele>383</ele><time>2016-10-15T09:35:14Z</time></trkpt>
<trkpt lat="53.1154580000" lon="-4.1501040000"><ele>383</ele><time>2016-10-15T09:35:15Z</time></trkpt>
<trkpt lat="53.1154570000" lon="-4.1501140000"><ele>383</ele><time>2016-10-15T09:35:16Z</time></trkpt>
<trkpt lat="53.1154560000" lon="-4.1501250000"><ele>383</ele><time>2016-10-15T09:35:17Z</time></trkpt>
<trkpt lat="53.1154550000" lon="-4.1501360000"><ele>383</ele><time>2016-10-15T09:35:18Z</time></trkpt>
<trkpt lat="53.1154540000" lon="-4.1501470000"><ele>384</ele><time>2016-10-15T09:35:19Z</time></trkpt>
<trkpt lat="53.1154530000" lon="-4.1501580000"><ele>384</ele><time>2016-10-15T09:35:20Z</time></trkpt>
<trkpt lat="53.1154530000" lon="-4.1501690000"><ele>384</ele><time>2016-10-15T09:35:21Z</time></trkpt>
<trkpt lat="53.1154520000" lon="-4.1501800000"><ele>384</ele><time>2016-10-15T09:35:22Z</time></trkpt>
<trkpt lat="53.1154520000" lon="-4.1501910000"><ele>385</ele><time>2016-10-15T09:35:23Z</time></trkpt>
<trkpt lat="53.1154510000" lon="-4.1502020000"><ele>385</ele><time>2016-10-15T09:35:24Z</time></trkpt>
<trkpt lat="53.1154500000" lon="-4.1502130000"><ele>385</ele><time>2016-10-15T09:35:25Z</time></trkpt>
<trkpt lat="53.1154500000" lon="-4.1502250000"><ele>385</ele><time>2016-10-15T09:35:26Z</time></trkpt>
<trkpt lat="53.1154490000" lon="-4.1502370000"><ele>385</ele><time>2016-10-15T09:35:27Z</time></trkpt>
<trkpt lat="53.1154480000" lon="-4.1502480000"><ele>385</ele><time>2016-10-15T09:35:28Z</time></trkpt>
<trkpt lat="53.1154480000" lon="-4.1502600000"><ele>386</ele><time>2016-10-15T09:35:29Z</time></trkpt>
<trkpt lat="53.1154470000" lon="-4.1502720000"><ele>386</ele><time>2016-10-15T09:35:30Z</time></trkpt>
<trkpt lat="53.1154460000" lon="-4.1502830000"><ele>386</ele><time>2016-10-15T09:35:31Z</time></trkpt>
<trkpt lat="53.1154460000" lon="-4.1502950000"><ele>386</ele><time>2016-10-15T09:35:32Z</time></trkpt>
<trkpt lat="53.1154450000" lon="-4.1503060000"><ele>386</ele><time>2016-10-15T09:35:33Z</time></trkpt>
<trkpt lat="53.1154450000" lon="-4.1503170000"><ele>387</ele><time>2016-10-15T09:35:34Z</time></trkpt>
<trkpt lat="53.1154440000" lon="-4.1503290000"><ele>387</ele><time>2016-10-15T09:35:35Z</time></trkpt>
<trkpt lat="53.1154430000" lon="-4.1503410000"><ele>387</ele><time>2016-10-15T09:35:36Z</time></trkpt>
<trkpt lat="53.1154420000" lon="-4.1503520000"><ele>387</ele><time>2016-10-15T09:35:37Z</time></trkpt>
<trkpt lat="53.1154420000" lon="-4.1503640000"><ele>387</ele><time>2016-10-15T09:35:38Z</time></trkpt>
<trkpt lat="53.1154410000" lon="-4.1503750000"><ele>387</ele><time>2016-10-15T09:35:39Z</time></trkpt>
<trkpt lat="53.1154400000" lon="-4.1503970000"><ele>388</ele><time>2016-10-15T09:35:42Z</time></trkpt>
<trkpt lat="53.1154390000" lon="-4.1504080000"><ele>388</ele></trkpt>
<trkpt lat="53.1154390000" lon="-4.1504190000"><ele>388</ele><time>2016-10-15T09:35:43Z</time></trkpt>
<trkpt lat="53.1154390000" lon="-4.1504300000"><ele>388</ele><time>2016-10-15T09:35:44Z</time></trkpt>
<trkpt lat="53.1154380000" lon="-4.1504410000"><ele>388</ele><time>2016-10-15T09:35:45Z</time></trkpt>
<trkpt lat="53.1154370000" lon="-4.1504520000"><ele>388</ele><time>2016-10-15T09:35:46Z</time></trkpt>
<trkpt lat="53.1154360000" lon="-4.1504630000"><ele>388</ele><time>2016-10-15T09:35:47Z</time></trkpt>
<trkpt lat="53.1154350000" lon="-4.1504750000"><ele>388</ele><time>2016-10-15T09:35:48Z</time></trkpt>
<trkpt lat="53.1154340000" lon="-4.1504860000"><ele>389</ele><time>2016-10-15T09:35:49Z</time></trkpt>
<trkpt lat="53.1154330000" lon="-4.1504970000"><ele>389</ele><time>2016-10-15T09:35:50Z</time></trkpt>
<trkpt lat="53.1154320000" lon="-4.1505090000"><ele>389</ele><time>2016-10-15T09:35:51Z</time></trkpt>
<trkpt lat="53.1154310000" lon="-4.1505200000"><ele>389</ele><time>2016-10-15T09:35:52Z</time></trkpt>
<trkpt lat="53.1154290000" lon="-4.1505320000"><ele>389</ele><time>2016-10-15T09:35:53Z</time></trkpt>
<trkpt lat="53.1154270000" lon="-4.1505430000"><ele>389</ele><time>2016-10-15T09:35:54Z</time></trkpt>
<trkpt lat="53.1154250000" lon="-4.1505550000"><ele>389</ele><time>2016-10-15T09:35:55Z</time></trkpt>
<trkpt lat="53.1154230000" lon="-4.1505670000"><ele>390</ele><time>2016-10-15T09:35:56Z</time></trkpt>
<trkpt lat="53.1154210000" lon="-4.1505790000"><ele>390</ele><time>2016-10-15T09:35:57Z</time></trkpt>
<trkpt lat="53.1154180000" lon="-4.1505910000"><ele>390</ele><time>2016-10-15T09:35:58Z</time></trkpt>
<trkpt lat="53.1154150000" lon="-4.1506020000"><ele>390</ele><time>2016-10-15T09:35:59Z</time></trkpt>
<trkpt lat="53.1154120000" lon="-4.1506140000"><ele>390</ele><time>2016-10-15T09:36:00Z</time></trkpt>
<trkpt lat="53.1154090000" lon="-4.1506260000"><ele>390</ele><time>2016-10-15T09:36:01Z</time></trkpt>
<trkpt lat="53.1154060000" lon="-4.1506370000"><ele>391</ele><time>2016-10-15T09:36:02Z</time></trkpt>
<trkpt lat="53.1154030000" lon="-4.1506490000"><ele>391</ele><time>2016-10-15T09:36:03Z</time></trkpt>
<trkpt lat="53.1154000000" lon="-4.1506600000"><ele>391</ele><time>2016-10-15T09:36:04Z</time></trkpt>
<trkpt lat="53.1153970000" lon="-4.1506720000"><ele>391</ele><time>2016-10-15T09:36:05Z</time></trkpt>
<trkpt lat="53.1153930000" lon="-4.1506830000"><ele>391</ele><time>2016-10-15T09:36:06Z</time></trkpt>
<trkpt lat="53.1153900000" lon="-4.1506950000"><ele>391</ele><time>2016-10-15T09:36:07Z</time></trkpt>
<trkpt lat="53.1153870000" lon="-4.1507060000"><ele>391</ele><time>2016-10-15T09:36:08Z</time></trkpt>
<trkpt lat="53.1153830000" lon="-4.1507180000"><ele>392</ele><time>2016-10-15T09:36:09Z</time></trkpt>
<trkpt lat="53.1153800000" lon="-4.1507290000"><ele>392</ele><time>2016-10-15T09:36:10Z</time></trkpt>
<trkpt lat="53.1153770000" lon="-4.1507410000"><ele>392</ele><time>2016-10-15T09:36:11Z</time></trkpt>
<trkpt lat="53.1153740000" lon="-4.1507520000"><ele>392</ele><time>2016-10-15T09:36:12Z</time></trkpt>
<trkpt lat="53.1153710000" lon="-4.1507640000"><ele>392</ele><time>2016-10-15T09:36:13Z</time></trkpt>
<trkpt lat="53.1153680000" lon="-4.1507750000"><ele>392</ele><time>2016-10-15T09:36:14Z</time></trkpt>
<trkpt lat="53.1153650000" lon="-4.1507870000"><ele>392</ele><time>2016-10-15T09:36:15Z</time></trkpt>
<trkpt lat="53.1153620000" lon="-4.1507990000"><ele>392</ele><time>2016-10-15T09:36:16Z</time></trkpt>
<trkpt lat="53.1153590000" lon="-4.1508100000"><ele>392</ele><time>2016-10-15T09:36:17Z</time></trkpt>
<trkpt lat="53.1153560000" lon="-4.1508220000"><ele>392</ele><time>2016-10-15T09:36:18Z</time></trkpt>
<trkpt lat="53.1153540000" lon="-4.1508310000"><ele>392</ele><time>2016-10-15T09:36:19Z</time></trkpt>
<trkpt lat="53.1153520000" lon="-4.1508400000"><ele>392</ele><time>2016-10-15T09:36:20Z</time></trkpt>
<trkpt lat="53.1153490000" lon="-4.1508490000"><ele>393</ele><time>2016-10-15T09:36:21Z</time></trkpt>
<trkpt lat="53.1153470000" lon="-4.1508570000"><ele>393</ele><time>2016-10-15T09:36:22Z</time></trkpt>
<trkpt lat="53.1153440000" lon="-4.1508660000"><ele>393</ele><time>2016-10-15T09:36:23Z</time></trkpt>
<trkpt lat="53.1153420000" lon="-4.1508750000"><ele>393</ele><time>2016-10-15T09:36:24Z</time></trkpt>
<trkpt lat="53.1153390000" lon="-4.1508860000"><ele>393</ele><time>2016-10-15T09:36:25Z</time></trkpt>
<trkpt lat="53.1153350000" lon="-4.1508960000"><ele>393</ele><time>2016-10-15T09:36:26Z</time></trkpt>
<trkpt lat="53.1153340000" lon="-4.1509020000"><ele>394</ele><time>2016-10-15T09:36:27Z</time></trkpt>
<trkpt lat="53.1153310000" lon="-4.1509100000"><ele>394</ele><time>2016-10-15T09:36:28Z</time></trkpt>
<trkpt lat="53.1153280000" lon="-4.1509180000"><ele>394</ele><time>2016-10-15T09:36:29Z</time></trkpt>
<trkpt lat="53.1153250000" lon="-4.1509270000"><ele>394</ele><time>2016-10-15T09:36:30Z</time></trkpt>
<trkpt lat="53.1153220000" lon="-4.1509350000"><ele>394</ele><time>2016-10-15T09:36:31Z</time></trkpt>
<trkpt lat="53.1153190000" lon="-4.1509430000"><ele>395</ele><time>2016-10-15T09:36:32Z</time></trkpt>
<trkpt lat="53.1153150000" lon="-4.1509510000"><ele>395</ele><time>2016-10-15T09:36:33Z</time></trkpt>
<trkpt lat="53.1153120000" lon="-4.1509600000"><ele>395</ele><time>2016-10-15T09:36:34Z</time></trkpt>
<trkpt lat="53.1153090000" lon="-4.1509680000"><ele>395</ele><time>2016-10-15T09:36:35Z</time></trkpt>
<trkpt lat="53.1153050000" lon="-4.1509770000"><ele>395</ele><time>2016-10-15T09:36:36Z</time></trkpt>
<trkpt lat="53.1153020000" lon="-4.1509860000"><ele>395</ele><time>2016-10-15T09:36:37Z</time></trkpt>
<trkpt lat="53.1152990000" lon="-4.1509950000"><ele>395</ele><time>2016-10-15T09:36:38Z</time></trkpt>
<trkpt lat="53.1152950000" lon="-4.1510030000"><ele>396</ele><time>2016-10-15T09:36:39Z</time></trkpt>
<trkpt lat="53.1152880000" lon="-4.1510200000"><ele>396</ele><time>2016-10-15T09:36:42Z</time></trkpt>
<trkpt lat="53.1152850000" lon="-4.1510290000"><ele>396</ele></trkpt>
<trkpt lat="53.1152810000" lon="-4.1510370000"><ele>396</ele><time>2016-10-15T09:36:43Z</time></trkpt>
<trkpt lat="53.1152780000" lon="-4.1510460000"><ele>396</ele><time>2016-10-15T09:36:44Z</time></trkpt>
<trkpt lat="53.1152750000" lon="-4.1510540000"><ele>396</ele><time>2016-10-15T09:36:45Z</time></trkpt>
<trkpt lat="53.1152710000" lon="-4.1510630000"><ele>396</ele><time>2016-10-15T09:36:46Z</time></trkpt>
<trkpt lat="53.1152680000" lon="-4.1510710000"><ele>396</ele><time>2016-10-15T09:36:47Z</time></trkpt>
<trkpt lat="53.1152660000" lon="-4.1510790000"><ele>396</ele><time>2016-10-15T09:36:48Z</time></trkpt>
<trkpt lat="53.1152630000" lon="-4.1510880000"><ele>396</ele><time>2016-10-15T09:36:49Z</time></trkpt>
<trkpt lat="53.1152590000" lon="-4.1511000000"><ele>397</ele><time>2016-10-15T09:36:50Z</time></trkpt>
<trkpt lat="53.1152560000" lon="-4.1511110000"><ele>397</ele><time>2016-10-15T09:36:51Z</time></trkpt>
<trkpt lat="53.1152520000" lon="-4.1511230000"><ele>397</ele><time>2016-10-15T09:36:52Z</time></trkpt>
<trkpt lat="53.1152490000" lon="-4.1511340000"><ele>397</ele><time>2016-10-15T09:36:53Z</time></trkpt>
<trkpt lat="53.1152450000" lon="-4.1511450000"><ele>397</ele><time>2016-10-15T09:36:54Z</time></trkpt>
<trkpt lat="53.1152420000" lon="-4.1511560000"><ele>397</ele><time>2016-10-15T09:36:55Z</time></trkpt>
<trkpt lat="53.1152380000" lon="-4.1511670000"><ele>398</ele><time>2016-10-15T09:36:56Z</time></trkpt>
<trkpt lat="53.1152340000" lon="-4.1511770000"><ele>398</ele><time>2016-10-15T09:36:57Z</time></trkpt>
<trkpt lat="53.1152310000" lon="-4.1511870000"><ele>398</ele><time>2016-10-15T09:36:58Z</time></trkpt>
<trkpt lat="53.1152270000" lon="-4.1511970000"><ele>398</ele><time>2016-10-15T09:36:59Z</time></trkpt>
<trkpt lat="53.1152220000" lon="-4.1512070000"><ele>398</ele><time>2016-10-15T09:37:00Z</time></trkpt>
<trkpt lat="53.1152180000" lon="-4.1512170000"><ele>398</ele><time>2016-10-15T09:37:01Z</time></trkpt>
<trkpt lat="53.1152140000" lon="-4.1512260000"><ele>398</ele><time>2016-10-15T09:37:02Z</time></trkpt>
<trkpt lat="53.1152090000" lon="-4.1512350000"><ele>398</ele><time>2016-10-15T09:37:03Z</time></trkpt>
<trkpt lat="53.1152040000" lon="-4.1512440000"><ele>399</ele><time>2016-10-15T09:37:04Z</time></trkpt>
<trkpt lat="53.1152000000" lon="-4.1512520000"><ele>399</ele><time>2016-10-15T09:37:05Z</time></trkpt>
<trkpt lat="53.1151950000" lon="-4.1512600000"><ele>399</ele><time>2016-10-15T09:37:06Z</time></trkpt>
<trkpt lat="53.1151900000" lon="-4.1512680000"><ele>399</ele><time>2016-10-15T09:37:07Z</time></trkpt>
<trkpt lat="53.1151870000" lon="-4.1512730000"><ele>399</ele><time>2016-10-15T09:37:08Z</time></trkpt>
<trkpt lat="53.1151820000" lon="-4.1512810000"><ele>399</ele><time>2016-10-15T09:37:09Z</time></trkpt>
<trkpt lat="53.1151770000" lon="-4.1512880000"><ele>399</ele><time>2016-10-15T09:37:10Z</time></trkpt>
<trkpt lat="53.1151730000" lon="-4.1512960000"><ele>400</ele><time>2016-10-15T09:37:11Z</time></trkpt>
<trkpt lat="53.1151680000" lon="-4.1513040000"><ele>400</ele><time>2016-10-15T09:37:12Z</time></trkpt>
<trkpt lat="53.1151630000" lon="-4.1513120000"><ele>400</ele><time>2016-10-15T09:37:13Z</time></trkpt>
<trkpt lat="53.1151580000" lon="-4.1513200000"><ele>400</ele><time>2016-10-15T09:37:14Z</time></trkpt>
<trkpt lat="53.1151540000" lon="-4.1513290000"><ele>400</ele><time>2016-10-15T09:37:15Z</time></trkpt>
<trkpt lat="53.1151490000" lon="-4.1513380000"><ele>400</ele><time>2016-10-15T09:37:16Z</time></trkpt>
<trkpt lat="53.1151450000" lon="-4.1513470000"><ele>400</ele><time>2016-10-15T09:37:17Z</time></trkpt>
<trkpt lat="53.1151400000" lon="-4.1513560000"><ele>401</ele><time>2016-10-15T09:37:18Z</time></trkpt>
<trkpt lat="53.1151360000" lon="-4.1513660000"><ele>401</ele><time>2016-10-15T09:37:19Z</time></trkpt>
<trkpt lat="53.1151310000" lon="-4.1513750000"><ele>401</ele><time>2016-10-15T09:37:20Z</time></trkpt>
<trkpt lat="53.1151270000" lon="-4.1513850000"><ele>401</ele><time>2016-10-15T09:37:21Z</time></trkpt>
<trkpt lat="53.1151230000" lon="-4.1513960000"><ele>401</ele><time>2016-10-15T09:37:22Z</time></trkpt>
<trkpt lat="53.1151190000" lon="-4.1514070000"><ele>401</ele><time>2016-10-15T09:37:23Z</time></trkpt>
<trkpt lat="53.1151150000" lon="-4.1514180000"><ele>401</ele><time>2016-10-15T09:37:24Z</time></trkpt>
<trkpt lat="53.1151110000" lon="-4.1514300000"><ele>402</ele><time>2016-10-15T09:37:25Z</time></trkpt>
<trkpt lat="53.1151070000" lon="-4.1514410000"><ele>402</ele><time>2016-10-15T09:37:26Z</time></trkpt>
<trkpt lat="53.1151040000" lon="-4.1514530000"><ele>402</ele><time>2016-10-15T09:37:27Z</time></trkpt>
<trkpt lat="53.1151000000" lon="-4.1514650000"><ele>402</ele><time>2016-10-15T09:37:28Z</time></trkpt>
<trkpt lat="53.1150970000" lon="-4.1514770000"><ele>402</ele><time>2016-10-15T09:37:29Z</time></trkpt>
<trkpt lat="53.1150940000" lon="-4.1514900000"><ele>402</ele><time>2016-10-15T09:37:30Z</time></trkpt>
<trkpt lat="53.1150900000" lon="-4.1515030000"><ele>403</ele><time>2016-10-15T09:37:31Z</time></trkpt>
<trkpt lat="53.1150870000" lon="-4.1515160000"><ele>403</ele><time>2016-10-15T09:37:32Z</time></trkpt>
<trkpt lat="53.1150840000" lon="-4.1515290000"><ele>403</ele><time>2016-10-15T09:37:33Z</time></trkpt>
<trkpt lat="53.1150810000" lon="-4.1515430000"><ele>403</ele><time>2016-10-15T09:37:34Z</time></trkpt>
<trkpt lat="53.1150770000" lon="-4.1515560000"><ele>403</ele><time>2016-10-15T09:37:35Z</time></trkpt>
<trkpt lat="53.1150740000" lon="-4.1515700000"><ele>404</ele><time>2016-10-15T09:37:36Z</time></trkpt>
<trkpt lat="53.1150700000" lon="-4.1515840000"><ele>404</ele><time>2016-10-15T09:37:37Z</time></trkpt>
<trkpt lat="53.1150670000" lon="-4.1515980000"><ele>404</ele><time>2016-10-15T09:37:38Z</time></trkpt>
<trkpt lat="53.1150630000" lon="-4.1516130000"><ele>404</ele><time>2016-10-15T09:37:39Z</time></trkpt>
<trkpt lat="53.1150560000" lon="-4.1516420000"><ele>405</ele><time>2016-10-15T09:37:42Z</time></trkpt>
<trkpt lat="53.1150100000" lon="-4.1518230000"><ele>405</ele></trkpt>
<trkpt lat="53.1150070000" lon="-4.1518410000"><ele>405</ele><time>2016-10-15T09:37:43Z</time></trkpt>
<trkpt lat="53.1150040000" lon="-4.1518580000"><ele>405</ele><time>2016-10-15T09:37:44Z</time></trkpt>
<trkpt lat="53.1150010000" lon="-4.1518750000"><ele>405</ele><time>2016-10-15T09:37:45Z</time></trkpt>
<trkpt lat="53.1150000000" lon="-4.1518910000"><ele>405</ele><time>2016-10-15T09:37:46Z</time></trkpt>
<trkpt lat="53.1150010000" lon="-4.1519090000"><ele>406</ele><time>2016-10-15T09:37:47Z</time></trkpt>
<trkpt lat="53.1150010000" lon="-4.1519180000"><ele>406</ele><time>2016-10-15T09:37:48Z</time></trkpt>
<trkpt lat="53.1150010000" lon="-4.1519180000"><ele>406</ele><time>2016-10-15T09:37:51Z</time></trkpt>
<trkpt lat="53.1150010000" lon="-4.1519190000"><ele>406</ele><time>2016-10-15T09:37:52Z</time></trkpt>
<trkpt lat="53.1150000000" lon="-4.1519200000"><ele>406</ele><time>2016-10-15T09:37:53Z</time></trkpt>
<trkpt lat="53.1150000000" lon="-4.1519210000"><ele>407</ele><time>2016-10-15T09:37:54Z</time></trkpt>
<trkpt lat="53.1149990000" lon="-4.1519240000"><ele>407</ele><time>2016-10-15T09:37:55Z</time></trkpt>
<trkpt lat="53.1149980000" lon="-4.1519260000"><ele>407</ele><time>2016-10-15T09:37:56Z</time></trkpt>
<trkpt lat="53.1149960000" lon="-4.1519300000"><ele>407</ele><time>2016-10-15T09:37:57Z</time></trkpt>
<trkpt lat="53.1149940000" lon="-4.1519340000"><ele>407</ele><time>2016-10-15T09:37:58Z</time></trkpt>
<trkpt lat="53.1149920000" lon="-4.1519400000"><ele>407</ele><time>2016-10-15T09:37:59Z</time></trkpt>
<trkpt lat="53.1149900000" lon="-4.1519450000"><ele>407</ele><time>2016-10-15T09:38:00Z</time></trkpt>
<trkpt lat="53.1149870000" lon="-4.1519520000"><ele>407</ele><time>2016-10-15T09:38:01Z</time></trkpt>
<trkpt lat="53.1149850000" lon="-4.1519600000"><ele>407</ele><time>2016-10-15T09:38:02Z</time></trkpt>
<trkpt lat="53.1149820000" lon="-4.1519680000"><ele>408</ele><time>2016-10-15T09:38:03Z</time></trkpt>
<trkpt lat="53.1149790000" lon="-4.1519770000"><ele>408</ele><time>2016-10-15T09:38:04Z</time></trkpt>
<trkpt lat="53.1149760000" lon="-4.1519870000"><ele>408</ele><time>2016-10-15T09:38:05Z</time></trkpt>
<trkpt lat="53.1149720000" lon="-4.1519980000"><ele>408</ele><time>2016-10-15T09:38:06Z</time></trkpt>
<trkpt lat="53.1149690000" lon="-4.1520070000"><ele>408</ele><time>2016-10-15T09:38:07Z</time></trkpt>
<trkpt lat="53.1149660000" lon="-4.1520180000"><ele>408</ele><time>2016-10-15T09:38:08Z</time></trkpt>
<trkpt lat="53.1149620000" lon="-4.1520310000"><ele>409</ele><time>2016-10-15T09:38:09Z</time></trkpt>
<trkpt lat="53.1149570000" lon="-4.1520440000"><ele>409</ele><time>2016-10-15T09:38:10Z</time></trkpt>
<trkpt lat="53.1149530000" lon="-4.1520570000"><ele>409</ele><time>2016-10-15T09:38:11Z</time></trkpt>
<trkpt lat="53.1148780000" lon="-4.1522810000"><ele>409</ele><time>2016-10-15T09:38:12Z</time></trkpt>
<trkpt lat="53.1148720000" lon="-4.1522980000"><ele>409</ele><time>2016-10-15T09:38:13Z</time></trkpt>
<trkpt lat="53.1148660000" lon="-4.1523130000"><ele>410</ele><time>2016-10-15T09:38:14Z</time></trkpt>
<trkpt lat="53.1148660000" lon="-4.1523130000"><ele>410</ele><time>2016-10-15T09:38:15Z</time></trkpt>
<trkpt lat="53.1148660000" lon="-4.1523130000"><ele>410</ele><time>2016-10-15T09:38:16Z</time></trkpt>
<trkpt lat="53.1148650000" lon="-4.1523140000"><ele>410</ele><time>2016-10-15T09:38:17Z</time></trkpt>
<trkpt lat="53.1148650000" lon="-4.1523160000"><ele>410</ele><time>2016-10-15T09:38:18Z</time></trkpt>
<trkpt lat="53.1148640000" lon="-4.1523170000"><ele>410</ele><time>2016-10-15T09:38:19Z</time></trkpt>
<trkpt lat="53.1148620000" lon="-4.1523200000"><ele>410</ele><time>2016-10-15T09:38:20Z</time></trkpt>
<trkpt lat="53.1148600000" lon="-4.1523240000"><ele>411</ele><time>2016-10-15T09:38:21Z</time></trkpt>
<trkpt lat="53.1148570000" lon="-4.1523290000"><ele>411</ele><time>2016-10-15T09:38:22Z</time></trkpt>
<trkpt lat="53.1148540000" lon="-4.1523360000"><ele>411</ele><time>2016-10-15T09:38:23Z</time></trkpt>
<trkpt lat="53.1148510000" lon="-4.1523430000"><ele>411</ele><time>2016-10-15T09:38:24Z</time></trkpt>
<trkpt lat="53.1148470000" lon="-4.1523510000"><ele>411</ele><time>2016-10-15T09:38:25Z</time></trkpt>
<trkpt lat="53.1148430000" lon="-4.1523590000"><ele>411</ele><time>2016-10-15T09:38:26Z</time></trkpt>
<trkpt lat="53.1148390000" lon="-4.1523690000"><ele>411</ele><time>2016-10-15T09:38:27Z</time></trkpt>
<trkpt lat="53.1148340000" lon="-4.1523790000"><ele>412</ele><time>2016-10-15T09:38:28Z</time></trkpt>
<trkpt lat="53.1148290000" lon="-4.1523900000"><ele>412</ele><time>2016-10-15T09:38:29Z</time></trkpt>
<trkpt lat="53.1148240000" lon="-4.1524010000"><ele>412</ele><time>2016-10-15T09:38:30Z</time></trkpt>
<trkpt lat="53.1148190000" lon="-4.1524130000"><ele>412</ele><time>2016-10-15T09:38:31Z</time></trkpt>
<trkpt lat="53.1148140000" lon="-4.1524260000"><ele>412</ele><time>2016-10-15T09:38:32Z</time></trkpt>
<trkpt lat="53.1148090000" lon="-4.1524380000"><ele>412</ele><time>2016-10-15T09:38:33Z</time></trkpt>
<trkpt lat="53.1148030000" lon="-4.1524510000"><ele>412</ele><time>2016-10-15T09:38:34Z</time></trkpt>
<trkpt lat="53.1147250000" lon="-4.1526230000"><ele>412</ele><time>2016-10-15T09:38:35Z</time></trkpt>
<trkpt lat="53.1147180000" lon="-4.1526350000"><ele>412</ele><time>2016-10-15T09:38:36Z</time></trkpt>
<trkpt lat="53.1147100000" lon="-4.1526490000"><ele>412</ele><time>2016-10-15T09:38:37Z</time></trkpt>
<trkpt lat="53.1147030000" lon="-4.1526630000"><ele>413</ele><time>2016-10-15T09:38:38Z</time></trkpt>
<trkpt lat="53.1146950000" lon="-4.1526760000"><ele>413</ele><time>2016-10-15T09:38:39Z</time></trkpt>
<trkpt lat="53.1146950000" lon="-4.1526770000"><ele>413</ele><time>2016-10-15T09:38:42Z</time></trkpt>
<trkpt lat="53.1146950000" lon="-4.1526770000"><ele>413</ele></trkpt>
<trkpt lat="53.1146940000" lon="-4.1526790000"><ele>413</ele><time>2016-10-15T09:38:43Z</time></trkpt>
<trkpt lat="53.1146930000" lon="-4.1526810000"><ele>413</ele><time>2016-10-15T09:38:44Z</time></trkpt>
<trkpt lat="53.1146910000" lon="-4.1526830000"><ele>413</ele><time>2016-10-15T09:38:45Z</time></trkpt>
<trkpt lat="53.1146890000" lon="-4.1526870000"><ele>413</ele><time>2016-10-15T09:38:46Z</time></trkpt>
<trkpt lat="53.1146870000" lon="-4.1526910000"><ele>413</ele><time>2016-10-15T09:38:47Z</time></trkpt>
<trkpt lat="53.1146840000" lon="-4.1526960000"><ele>414</ele><time>2016-10-15T09:38:48Z</time></trkpt>
<trkpt lat="53.1146810000" lon="-4.1527030000"><ele>414</ele><time>2016-10-15T09:38:49Z</time></trkpt>
<trkpt lat="53.1146780000" lon="-4.1527100000"><ele>414</ele><time>2016-10-15T09:38:50Z</time></trkpt>
<trkpt lat="53.1146740000" lon="-4.1527180000"><ele>414</ele><time>2016-10-15T09:38:51Z</time></trkpt>
<trkpt lat="53.1146700000" lon="-4.1527270000"><ele>414</ele><time>2016-10-15T09:38:52Z</time></trkpt>
<trkpt lat="53.1146670000" lon="-4.1527350000"><ele>414</ele><time>2016-10-15T09:38:53Z</time></trkpt>
<trkpt lat="53.1146630000" lon="-4.1527430000"><ele>414</ele><time>2016-10-15T09:38:54Z</time></trkpt>
<trkpt lat="53.1145900000" lon="-4.1529200000"><ele>414</ele><time>2016-10-15T09:38:55Z</time></trkpt>
<trkpt lat="53.1145830000" lon="-4.1529370000"><ele>414</ele><time>2016-10-15T09:38:56Z</time></trkpt>
<trkpt lat="53.1145760000" lon="-4.1529530000"><ele>414</ele><time>2016-10-15T09:38:57Z</time></trkpt>
<trkpt lat="53.1145700000" lon="-4.1529680000"><ele>414</ele><time>2016-10-15T09:38:58Z</time></trkpt>
<trkpt lat="53.1145640000" lon="-4.1529840000"><ele>414</ele><time>2016-10-15T09:38:59Z</time></trkpt>
<trkpt lat="53.1145590000" lon="-4.1530000000"><ele>414</ele><time>2016-10-15T09:39:00Z</time></trkpt>
<trkpt lat="53.1145540000" lon="-4.1530150000"><ele>414</ele><time>2016-10-15T09:39:01Z</time></trkpt>
<trkpt lat="53.1145540000" lon="-4.1530150000"><ele>415</ele><time>2016-10-15T09:39:02Z</time></trkpt>
<trkpt lat="53.1145540000" lon="-4.1530160000"><ele>415</ele><time>2016-10-15T09:39:03Z</time></trkpt>
<trkpt lat="53.1145540000" lon="-4.1530170000"><ele>415</ele><time>2016-10-15T09:39:04Z</time></trkpt>
<trkpt lat="53.1145530000" lon="-4.1530180000"><ele>415</ele><time>2016-10-15T09:39:05Z</time></trkpt>
<trkpt lat="53.1145530000" lon="-4.1530210000"><ele>415</ele><time>2016-10-15T09:39:06Z</time></trkpt>
<trkpt lat="53.1145520000" lon="-4.1530250000"><ele>415</ele><time>2016-10-15T09:39:07Z</time></trkpt>
<trkpt lat="53.1145500000" lon="-4.1530290000"><ele>415</ele><time>2016-10-15T09:39:08Z</time></trkpt>
<trkpt lat="53.1145490000" lon="-4.1530350000"><ele>415</ele><time>2016-10-15T09:39:09Z</time></trkpt>
<trkpt lat="53.1145470000" lon="-4.1530410000"><ele>415</ele><time>2016-10-15T09:39:10Z</time></trkpt>
<trkpt lat="53.1145440000" lon="-4.1530490000"><ele>415</ele><time>2016-10-15T09:39:11Z</time></trkpt>
<trkpt lat="53.1145420000" lon="-4.1530580000"><ele>415</ele><time>2016-10-15T09:39:12Z</time></trkpt>
<trkpt lat="53.1145390000" lon="-4.1530670000"><ele>415</ele><time>2016-10-15T09:39:13Z</time></trkpt>
<trkpt lat="53.1145350000" lon="-4.1530780000"><ele>415</ele><time>2016-10-15T09:39:14Z</time></trkpt>
<trkpt lat="53.1145320000" lon="-4.1530900000"><ele>415</ele><time>2016-10-15T09:39:15Z</time></trkpt>
<trkpt lat="53.1145280000" lon="-4.1531020000"><ele>415</ele><time>2016-10-15T09:39:16Z</time></trkpt>
<trkpt lat="53.1145240000" lon="-4.1531150000"><ele>415</ele><time>2016-10-15T09:39:17Z</time></trkpt>
<trkpt lat="53.1145190000" lon="-4.1531280000"><ele>415</ele><time>2016-10-15T09:39:18Z</time></trkpt>
<trkpt lat="53.1145150000" lon="-4.1531420000"><ele>416</ele><time>2016-10-15T09:39:19Z</time></trkpt>
<trkpt lat="53.1144470000" lon="-4.1533410000"><ele>416</ele><time>2016-10-15T09:39:20Z</time></trkpt>
<trkpt lat="53.1144390000" lon="-4.1533530000"><ele>416</ele><time>2016-10-15T09:39:21Z</time></trkpt>
<trkpt lat="53.1144300000" lon="-4.1533660000"><ele>416</ele><time>2016-10-15T09:39:22Z</time></trkpt>
<trkpt lat="53.1144210000" lon="-4.1533800000"><ele>416</ele><time>2016-10-15T09:39:23Z</time></trkpt>
<trkpt lat="53.1144130000" lon="-4.1533950000"><ele>416</ele><time>2016-10-15T09:39:24Z</time></trkpt>
<trkpt lat="53.1144050000" lon="-4.1534090000"><ele>416</ele><time>2016-10-15T09:39:25Z</time></trkpt>
<trkpt lat="53.1143970000" lon="-4.1534250000"><ele>416</ele><time>2016-10-15T09:39:26Z</time></trkpt>
<trkpt lat="53.1143880000" lon="-4.1534410000"><ele>416</ele><time>2016-10-15T09:39:27Z</time></trkpt>
<trkpt lat="53.1143800000" lon="-4.1534550000"><ele>417</ele><time>2016-10-15T09:39:28Z</time></trkpt>
<trkpt lat="53.1143720000" lon="-4.1534700000"><ele>417</ele><time>2016-10-15T09:39:29Z</time></trkpt>
<trkpt lat="53.1143650000" lon="-4.1534840000"><ele>417</ele><time>2016-10-15T09:39:30Z</time></trkpt>
<trkpt lat="53.1143580000" lon="-4.1534990000"><ele>417</ele><time>2016-10-15T09:39:31Z</time></trkpt>
<trkpt lat="53.1143520000" lon="-4.1535150000"><ele>417</ele><time>2016-10-15T09:39:32Z</time></trkpt>
<trkpt lat="53.1143520000" lon="-4.1535150000"><ele>417</ele><time>2016-10-15T09:39:33Z</time></trkpt>
<trkpt lat="53.1143520000" lon="-4.1535160000"><ele>417</ele><time>2016-10-15T09:39:34Z</time></trkpt>
<trkpt lat="53.1143520000" lon="-4.1535170000"><ele>418</ele><time>2016-10-15T09:39:35Z</time></trkpt>
<trkpt lat="53.1143510000" lon="-4.1535190000"><ele>418</ele><time>2016-10-15T09:39:36Z</time></trkpt>
<trkpt lat="53.1143510000" lon="-4.1535220000"><ele>418</ele><time>2016-10-15T09:39:37Z</time></trkpt>
<trkpt lat="53.1143500000" lon="-4.1535260000"><ele>418</ele><time>2016-10-15T09:39:38Z</time></trkpt>
<trkpt lat="53.1143490000" lon="-4.1535310000"><ele>418</ele><time>2016-10-15T09:39:39Z</time></trkpt>
<trkpt lat="53.1143460000" lon="-4.1535460000"><ele>418</ele><time>2016-10-15T09:39:42Z</time></trkpt>
<trkpt lat="53.1143450000" lon="-4.1535540000"><ele>419</ele></trkpt>
<trkpt lat="53.1143430000" lon="-4.1535640000"><ele>419</ele><time>2016-10-15T09:39:43Z</time></trkpt>
<trkpt lat="53.1143400000" lon="-4.1535750000"><ele>419</ele><time>2016-10-15T09:39:44Z</time></trkpt>
<trkpt lat="53.1143380000" lon="-4.1535860000"><ele>419</ele><time>2016-10-15T09:39:45Z</time></trkpt>
<trkpt lat="53.1143340000" lon="-4.1535970000"><ele>419</ele><time>2016-10-15T09:39:46Z</time></trkpt>
<trkpt lat="53.1143310000" lon="-4.1536090000"><ele>419</ele><time>2016-10-15T09:39:47Z</time></trkpt>
<trkpt lat="53.1143280000" lon="-4.1536220000"><ele>419</ele><time>2016-10-15T09:39:48Z</time></trkpt>
<trkpt lat="53.1143240000" lon="-4.1536340000"><ele>420</ele><time>2016-10-15T09:39:49Z</time></trkpt>
<trkpt lat="53.1143200000" lon="-4.1536480000"><ele>420</ele><time>2016-10-15T09:39:50Z</time></trkpt>
<trkpt lat="53.1143160000" lon="-4.1536610000"><ele>420</ele><time>2016-10-15T09:39:51Z</time></trkpt>
<trkpt lat="53.1143120000" lon="-4.1536750000"><ele>420</ele><time>2016-10-15T09:39:52Z</time></trkpt>
<trkpt lat="53.1143080000" lon="-4.1536890000"><ele>420</ele><time>2016-10-15T09:39:53Z</time></trkpt>
<trkpt lat="53.1143040000" lon="-4.1537030000"><ele>421</ele><time>2016-10-15T09:39:54Z</time></trkpt>
<trkpt lat="53.1142550000" lon="-4.1538900000"><ele>421</ele><time>2016-10-15T09:39:55Z</time></trkpt>
<trkpt lat="53.1142510000" lon="-4.1539080000"><ele>421</ele><time>2016-10-15T09:39:56Z</time></trkpt>
<trkpt lat="53.1142460000" lon="-4.1539230000"><ele>421</ele><time>2016-10-15T09:39:57Z</time></trkpt>
<trkpt lat="53.1142400000" lon="-4.1539370000"><ele>421</ele><time>2016-10-15T09:39:58Z</time></trkpt>
<trkpt lat="53.1142330000" lon="-4.1539510000"><ele>422</ele><time>2016-10-15T09:39:59Z</time></trkpt>
<trkpt lat="53.1142260000" lon="-4.1539660000"><ele>422</ele><time>2016-10-15T09:40:00Z</time></trkpt>
<trkpt lat="53.1142200000" lon="-4.1539820000"><ele>422</ele><time>2016-10-15T09:40:01Z</time></trkpt>
<trkpt lat="53.1142130000" lon="-4.1539980000"><ele>422</ele><time>2016-10-15T09:40:02Z</time></trkpt>
<trkpt lat="53.1142050000" lon="-4.1540120000"><ele>422</ele><time>2016-10-15T09:40:03Z</time></trkpt>
<trkpt lat="53.1141980000" lon="-4.1540250000"><ele>423</ele><time>2016-10-15T09:40:04Z</time></trkpt>
<trkpt lat="53.1141910000" lon="-4.1540400000"><ele>423</ele><time>2016-10-15T09:40:05Z</time></trkpt>
<trkpt lat="53.1141850000" lon="-4.1540550000"><ele>423</ele><time>2016-10-15T09:40:06Z</time></trkpt>
<trkpt lat="53.1141800000" lon="-4.1540710000"><ele>423</ele><time>2016-10-15T09:40:07Z</time></trkpt>
<trkpt lat="53.1141760000" lon="-4.1540850000"><ele>423</ele><time>2016-10-15T09:40:08Z</time></trkpt>
<trkpt lat="53.1141760000" lon="-4.1540850000"><ele>423</ele><time>2016-10-15T09:40:09Z</time></trkpt>
<trkpt lat="53.1141760000" lon="-4.1540860000"><ele>424</ele><time>2016-10-15T09:40:10Z</time></trkpt>
<trkpt lat="53.1141750000" lon="-4.1540870000"><ele>424</ele><time>2016-10-15T09:40:11Z</time></trkpt>
<trkpt lat="53.1141750000" lon="-4.1540880000"><ele>424</ele><time>2016-10-15T09:40:12Z</time></trkpt>
<trkpt lat="53.1141740000" lon="-4.1540910000"><ele>424</ele><time>2016-10-15T09:40:13Z</time></trkpt>
<trkpt lat="53.1141720000" lon="-4.1540940000"><ele>424</ele><time>2016-10-15T09:40:14Z</time></trkpt>
<trkpt lat="53.1141700000" lon="-4.1540980000"><ele>424</ele><time>2016-10-15T09:40:15Z</time></trkpt>
<trkpt lat="53.1141670000" lon="-4.1541030000"><ele>425</ele><time>2016-10-15T09:40:16Z</time></trkpt>
<trkpt lat="53.1141640000" lon="-4.1541090000"><ele>425</ele><time>2016-10-15T09:40:17Z</time></trkpt>
<trkpt lat="53.1141600000" lon="-4.1541160000"><ele>425</ele><time>2016-10-15T09:40:18Z</time></trkpt>
<trkpt lat="53.1141560000" lon="-4.1541230000"><ele>425</ele><time>2016-10-15T09:40:19Z</time></trkpt>
<trkpt lat="53.1141520000" lon="-4.1541310000"><ele>425</ele><time>2016-10-15T09:40:20Z</time></trkpt>
<trkpt lat="53.1141470000" lon="-4.1541400000"><ele>425</ele><time>2016-10-15T09:40:21Z</time></trkpt>
<trkpt lat="53.1141420000" lon="-4.1541500000"><ele>425</ele><time>2016-10-15T09:40:22Z</time></trkpt>
<trkpt lat="53.1141360000" lon="-4.1541600000"><ele>425</ele><time>2016-10-15T09:40:23Z</time></trkpt>
<trkpt lat="53.1141310000" lon="-4.1541700000"><ele>426</ele><time>2016-10-15T09:40:24Z</time></trkpt>
<trkpt lat="53.1141250000" lon="-4.1541810000"><ele>426</ele><time>2016-10-15T09:40:25Z</time></trkpt>
<trkpt lat="53.1141190000" lon="-4.1541920000"><ele>426</ele><time>2016-10-15T09:40:26Z</time></trkpt>
<trkpt lat="53.1141140000" lon="-4.1542040000"><ele>426</ele><time>2016-10-15T09:40:27Z</time></trkpt>
<trkpt lat="53.1141080000" lon="-4.1542160000"><ele>426</ele><time>2016-10-15T09:40:28Z</time></trkpt>
<trkpt lat="53.1141020000" lon="-4.1542290000"><ele>426</ele><time>2016-10-15T09:40:29Z</time></trkpt>
<trkpt lat="53.1140200000" lon="-4.1543990000"><ele>426</ele><time>2016-10-15T09:40:30Z</time></trkpt>
<trkpt lat="53.1140140000" lon="-4.1544150000"><ele>426</ele><time>2016-10-15T09:40:31Z</time></trkpt>
<trkpt lat="53.1140080000" lon="-4.1544330000"><ele>426</ele><time>2016-10-15T09:40:32Z</time></trkpt>
<trkpt lat="53.1140010000" lon="-4.1544500000"><ele>426</ele><time>2016-10-15T09:40:33Z</time></trkpt>
<trkpt lat="53.1139930000" lon="-4.1544680000"><ele>426</ele><time>2016-10-15T09:40:34Z</time></trkpt>
<trkpt lat="53.1139860000" lon="-4.1544870000"><ele>426</ele><time>2016-10-15T09:40:35Z</time></trkpt>
<trkpt lat="53.1139790000" lon="-4.1545050000"><ele>426</ele><time>2016-10-15T09:40:36Z</time></trkpt>
<trkpt lat="53.1139730000" lon="-4.1545210000"><ele>427</ele><time>2016-10-15T09:40:37Z</time></trkpt>
<trkpt lat="53.1139650000" lon="-4.1545370000"><ele>427</ele><time>2016-10-15T09:40:38Z</time></trkpt>
<trkpt lat="53.1139570000" lon="-4.1545550000"><ele>427</ele><time>2016-10-15T09:40:39Z</time></trkpt>
<trkpt lat="53.1139460000" lon="-4.1545910000"><ele>427</ele><time>2016-10-15T09:40:42Z</time></trkpt>
<trkpt lat="53.1139400000" lon="-4.1546070000"><ele>427</ele></trkpt>
<trkpt lat="53.1139330000" lon="-4.1546200000"><ele>427</ele><time>2016-10-15T09:40:43Z</time></trkpt>
<trkpt lat="53.1139330000" lon="-4.1546200000"><ele>427</ele><time>2016-10-15T09:40:44Z</time></trkpt>
<trkpt lat="53.1139330000" lon="-4.1546210000"><ele>427</ele><time>2016-10-15T09:40:45Z</time></trkpt>
<trkpt lat="53.1139330000" lon="-4.1546220000"><ele>428</ele><time>2016-10-15T09:40:46Z</time></trkpt>
<trkpt lat="53.1139320000" lon="-4.1546230000"><ele>428</ele><time>2016-10-15T09:40:47Z</time></trkpt>
<trkpt lat="53.1139310000" lon="-4.1546250000"><ele>428</ele><time>2016-10-15T09:40:48Z</time></trkpt>
<trkpt lat="53.1139290000" lon="-4.1546280000"><ele>428</ele><time>2016-10-15T09:40:49Z</time></trkpt>
<trkpt lat="53.1139280000" lon="-4.1546310000"><ele>428</ele><time>2016-10-15T09:40:50Z</time></trkpt>
<trkpt lat="53.1139260000" lon="-4.1546350000"><ele>428</ele><time>2016-10-15T09:40:51Z</time></trkpt>
<trkpt lat="53.1139230000" lon="-4.1546410000"><ele>428</ele><time>2016-10-15T09:40:52Z</time></trkpt>
<trkpt lat="53.1139200000" lon="-4.1546470000"><ele>428</ele><time>2016-10-15T09:40:53Z</time></trkpt>
<trkpt lat="53.1139170000" lon="-4.1546530000"><ele>428</ele><time>2016-10-15T09:40:54Z</time></trkpt>
<trkpt lat="53.1139130000" lon="-4.1546610000"><ele>429</ele><time>2016-10-15T09:40:55Z</time></trkpt>
<trkpt lat="53.1139100000" lon="-4.1546690000"><ele>429</ele><time>2016-10-15T09:40:56Z</time></trkpt>
<trkpt lat="53.1139050000" lon="-4.1546780000"><ele>429</ele><time>2016-10-15T09:40:57Z</time></trkpt>
<trkpt lat="53.1139010000" lon="-4.1546870000"><ele>429</ele><time>2016-10-15T09:40:58Z</time></trkpt>
<trkpt lat="53.1138960000" lon="-4.1546970000"><ele>429</ele><time>2016-10-15T09:40:59Z</time></trkpt>
<trkpt lat="53.1138900000" lon="-4.1547080000"><ele>429</ele><time>2016-10-15T09:41:00Z</time></trkpt>
<trkpt lat="53.1138850000" lon="-4.1547190000"><ele>429</ele><time>2016-10-15T09:41:01Z</time></trkpt>
<trkpt lat="53.1138790000" lon="-4.1547300000"><ele>429</ele><time>2016-10-15T09:41:02Z</time></trkpt>
<trkpt lat="53.1138730000" lon="-4.1547410000"><ele>429</ele><time>2016-10-15T09:41:03Z</time></trkpt>
<trkpt lat="53.1138670000" lon="-4.1547530000"><ele>429</ele><time>2016-10-15T09:41:04Z</time></trkpt>
<trkpt lat="53.1138600000" lon="-4.1547650000"><ele>430</ele><time>2016-10-15T09:41:05Z</time></trkpt>
<trkpt lat="53.1137570000" lon="-4.1549550000"><ele>430</ele><time>2016-10-15T09:41:06Z</time></trkpt>
<trkpt lat="53.1137490000" lon="-4.1549670000"><ele>430</ele><time>2016-10-15T09:41:07Z</time></trkpt>
<trkpt lat="53.1137410000" lon="-4.1549780000"><ele>430</ele><time>2016-10-15T09:41:08Z</time></trkpt>
<trkpt lat="53.1137410000" lon="-4.1549780000"><ele>430</ele><time>2016-10-15T09:41:09Z</time></trkpt>
<trkpt lat="53.1137410000" lon="-4.1549780000"><ele>430</ele><time>2016-10-15T09:41:10Z</time></trkpt>
<trkpt lat="53.1137400000" lon="-4.1549790000"><ele>430</ele><time>2016-10-15T09:41:11Z</time></trkpt>
<trkpt lat="53.1137390000" lon="-4.1549800000"><ele>431</ele><time>2016-10-15T09:41:12Z</time></trkpt>
<trkpt lat="53.1137380000" lon="-4.1549820000"><ele>431</ele><time>2016-10-15T09:41:13Z</time></trkpt>
<trkpt lat="53.1137370000" lon="-4.1549840000"><ele>431</ele><time>2016-10-15T09:41:14Z</time></trkpt>
<trkpt lat="53.1137350000" lon="-4.1549870000"><ele>431</ele><time>2016-10-15T09:41:15Z</time></trkpt>
<trkpt lat="53.1137330000" lon="-4.1549910000"><ele>431</ele><time>2016-10-15T09:41:16Z</time></trkpt>
<trkpt lat="53.1137310000" lon="-4.1549950000"><ele>431</ele><time>2016-10-15T09:41:17Z</time></trkpt>
<trkpt lat="53.1137280000" lon="-4.1550010000"><ele>431</ele><time>2016-10-15T09:41:18Z</time></trkpt>
<trkpt lat="53.1137250000" lon="-4.1550060000"><ele>431</ele><time>2016-10-15T09:41:19Z</time></trkpt>
<trkpt lat="53.1137210000" lon="-4.1550130000"><ele>432</ele><time>2016-10-15T09:41:20Z</time></trkpt>
<trkpt lat="53.1137170000" lon="-4.1550200000"><ele>432</ele><time>2016-10-15T09:41:21Z</time></trkpt>
<trkpt lat="53.1137130000" lon="-4.1550280000"><ele>432</ele><time>2016-10-15T09:41:22Z</time></trkpt>
<trkpt lat="53.1137090000" lon="-4.1550370000"><ele>432</ele><time>2016-10-15T09:41:23Z</time></trkpt>
<trkpt lat="53.1137040000" lon="-4.1550460000"><ele>432</ele><time>2016-10-15T09:41:24Z</time></trkpt>
<trkpt lat="53.1136990000" lon="-4.1550560000"><ele>432</ele><time>2016-10-15T09:41:25Z</time></trkpt>
<trkpt lat="53.1136940000" lon="-4.1550660000"><ele>432</ele><time>2016-10-15T09:41:26Z</time></trkpt>
<trkpt lat="53.1136880000" lon="-4.1550770000"><ele>432</ele><time>2016-10-15T09:41:27Z</time></trkpt>
<trkpt lat="53.1136830000" lon="-4.1550870000"><ele>433</ele><time>2016-10-15T09:41:28Z</time></trkpt>
<trkpt lat="53.1136780000" lon="-4.1550980000"><ele>433</ele><time>2016-10-15T09:41:29Z</time></trkpt>
<trkpt lat="53.1136720000" lon="-4.1551090000"><ele>433</ele><time>2016-10-15T09:41:30Z</time></trkpt>
<trkpt lat="53.1136660000" lon="-4.1551200000"><ele>433</ele><time>2016-10-15T09:41:31Z</time></trkpt>
<trkpt lat="53.1136610000" lon="-4.1551310000"><ele>433</ele><time>2016-10-15T09:41:32Z</time></trkpt>
<trkpt lat="53.1136550000" lon="-4.1551410000"><ele>433</ele><time>2016-10-15T09:41:33Z</time></trkpt>
<trkpt lat="53.1136490000" lon="-4.1551530000"><ele>433</ele><time>2016-10-15T09:41:34Z</time></trkpt>
<trkpt lat="53.1136430000" lon="-4.1551640000"><ele>433</ele><time>2016-10-15T09:41:35Z</time></trkpt>
<trkpt lat="53.1136370000" lon="-4.1551760000"><ele>434</ele><time>2016-10-15T09:41:36Z</time></trkpt>
<trkpt lat="53.1135490000" lon="-4.1553580000"><ele>434</ele><time>2016-10-15T09:41:37Z</time></trkpt>
<trkpt lat="53.1135440000" lon="-4.1553740000"><ele>434</ele><time>2016-10-15T09:41:38Z</time></trkpt>
<trkpt lat="53.1135380000" lon="-4.1553900000"><ele>434</ele><time>2016-10-15T09:41:39Z</time></trkpt>
<trkpt lat="53.1135300000" lon="-4.1554210000"><ele>434</ele><time>2016-10-15T09:41:42Z</time></trkpt>
<trkpt lat="53.1135300000" lon="-4.1554210000"><ele>434</ele></trkpt>
<trkpt lat="53.1135290000" lon="-4.1554220000"><ele>435</ele><time>2016-10-15T09:41:43Z</time></trkpt>
<trkpt lat="53.1135290000" lon="-4.1554220000"><ele>435</ele><time>2016-10-15T09:41:44Z</time></trkpt>
<trkpt lat="53.1135280000" lon="-4.1554240000"><ele>435</ele><time>2016-10-15T09:41:45Z</time></trkpt>
<trkpt lat="53.1135280000" lon="-4.1554250000"><ele>435</ele><time>2016-10-15T09:41:46Z</time></trkpt>
<trkpt lat="53.1135260000" lon="-4.1554270000"><ele>435</ele><time>2016-10-15T09:41:47Z</time></trkpt>
<trkpt lat="53.1135250000" lon="-4.1554300000"><ele>435</ele><time>2016-10-15T09:41:48Z</time></trkpt>
<trkpt lat="53.1135230000" lon="-4.1554340000"><ele>436</ele><time>2016-10-15T09:41:49Z</time></trkpt>
<trkpt lat="53.1135210000" lon="-4.1554380000"><ele>436</ele><time>2016-10-15T09:41:50Z</time></trkpt>
<trkpt lat="53.1135180000" lon="-4.1554430000"><ele>436</ele><time>2016-10-15T09:41:51Z</time></trkpt>
<trkpt lat="53.1135150000" lon="-4.1554480000"><ele>436</ele><time>2016-10-15T09:41:52Z</time></trkpt>
<trkpt lat="53.1135120000" lon="-4.1554540000"><ele>436</ele><time>2016-10-15T09:41:53Z</time></trkpt>
<trkpt lat="53.1135090000" lon="-4.1554610000"><ele>436</ele><time>2016-10-15T09:41:54Z</time></trkpt>
<trkpt lat="53.1135050000" lon="-4.1554680000"><ele>437</ele><time>2016-10-15T09:41:55Z</time></trkpt>
<trkpt lat="53.1135010000" lon="-4.1554760000"><ele>437</ele><time>2016-10-15T09:41:56Z</time></trkpt>
<trkpt lat="53.1134970000" lon="-4.1554840000"><ele>437</ele><time>2016-10-15T09:41:57Z</time></trkpt>
<trkpt lat="53.1134920000" lon="-4.1554930000"><ele>437</ele><time>2016-10-15T09:41:58Z</time></trkpt>
<trkpt lat="53.1134880000" lon="-4.1555030000"><ele>437</ele><time>2016-10-15T09:41:59Z</time></trkpt>
<trkpt lat="53.1134830000" lon="-4.1555120000"><ele>437</ele><time>2016-10-15T09:42:00Z</time></trkpt>
<trkpt lat="53.1134780000" lon="-4.1555220000"><ele>437</ele><time>2016-10-15T09:42:01Z</time></trkpt>
<trkpt lat="53.1134730000" lon="-4.1555320000"><ele>437</ele><time>2016-10-15T09:42:02Z</time></trkpt>
<trkpt lat="53.1134670000" lon="-4.1555430000"><ele>438</ele><time>2016-10-15T09:42:03Z</time></trkpt>
<trkpt lat="53.1134620000" lon="-4.1555540000"><ele>438</ele><time>2016-10-15T09:42:04Z</time></trkpt>
<trkpt lat="53.1134560000" lon="-4.1555650000"><ele>438</ele><time>2016-10-15T09:42:05Z</time></trkpt>
<trkpt lat="53.1134500000" lon="-4.1555760000"><ele>438</ele><time>2016-10-15T09:42:06Z</time></trkpt>
<trkpt lat="53.1134450000" lon="-4.1555870000"><ele>438</ele><time>2016-10-15T09:42:07Z</time></trkpt>
<trkpt lat="53.1134390000" lon="-4.1555990000"><ele>438</ele><time>2016-10-15T09:42:08Z</time></trkpt>
<trkpt lat="53.1134330000" lon="-4.1556100000"><ele>438</ele><time>2016-10-15T09:42:09Z</time></trkpt>
<trkpt lat="53.1134260000" lon="-4.1556210000"><ele>438</ele><time>2016-10-15T09:42:10Z</time></trkpt>
<trkpt lat="53.1134200000" lon="-4.1556320000"><ele>438</ele><time>2016-10-15T09:42:11Z</time></trkpt>
<trkpt lat="53.1134130000" lon="-4.1556430000"><ele>439</ele><time>2016-10-15T09:42:12Z</time></trkpt>
<trkpt lat="53.1134070000" lon="-4.1556540000"><ele>439</ele><time>2016-10-15T09:42:13Z</time></trkpt>
<trkpt lat="53.1133060000" lon="-4.1558130000"><ele>439</ele><time>2016-10-15T09:42:14Z</time></trkpt>
<trkpt lat="53.1132980000" lon="-4.1558210000"><ele>439</ele><time>2016-10-15T09:42:15Z</time></trkpt>
<trkpt lat="53.1132900000" lon="-4.1558310000"><ele>439</ele><time>2016-10-15T09:42:16Z</time></trkpt>
<trkpt lat="53.1132840000" lon="-4.1558410000"><ele>439</ele><time>2016-10-15T09:42:17Z</time></trkpt>
<trkpt lat="53.1132840000" lon="-4.1558410000"><ele>439</ele><time>2016-10-15T09:42:18Z</time></trkpt>
<trkpt lat="53.1132830000" lon="-4.1558420000"><ele>439</ele><time>2016-10-15T09:42:19Z</time></trkpt>
<trkpt lat="53.1132830000" lon="-4.1558420000"><ele>439</ele><time>2016-10-15T09:42:20Z</time></trkpt>
<trkpt lat="53.1132820000" lon="-4.1558430000"><ele>439</ele><time>2016-10-15T09:42:21Z</time></trkpt>
<trkpt lat="53.1132820000" lon="-4.1558450000"><ele>439</ele><time>2016-10-15T09:42:22Z</time></trkpt>
<trkpt lat="53.1132800000" lon="-4.1558480000"><ele>440</ele><time>2016-10-15T09:42:23Z</time></trkpt>
<trkpt lat="53.1132790000" lon="-4.1558510000"><ele>440</ele><time>2016-10-15T09:42:24Z</time></trkpt>
<trkpt lat="53.1132780000" lon="-4.1558550000"><ele>440</ele><time>2016-10-15T09:42:25Z</time></trkpt>
<trkpt lat="53.1132760000" lon="-4.1558600000"><ele>440</ele><time>2016-10-15T09:42:26Z</time></trkpt>
<trkpt lat="53.1132740000" lon="-4.1558660000"><ele>440</ele><time>2016-10-15T09:42:27Z</time></trkpt>
<trkpt lat="53.1132720000" lon="-4.1558730000"><ele>440</ele><time>2016-10-15T09:42:28Z</time></trkpt>
<trkpt lat="53.1132690000" lon="-4.1558800000"><ele>441</ele><time>2016-10-15T09:42:29Z</time></trkpt>
<trkpt lat="53.1132670000" lon="-4.1558880000"><ele>441</ele><time>2016-10-15T09:42:30Z</time></trkpt>
<trkpt lat="53.1132640000" lon="-4.1558970000"><ele>441</ele><time>2016-10-15T09:42:31Z</time></trkpt>
<trkpt lat="53.1132600000" lon="-4.1559070000"><ele>441</ele><time>2016-10-15T09:42:32Z</time></trkpt>
<trkpt lat="53.1131930000" lon="-4.1560750000"><ele>441</ele><time>2016-10-15T09:42:33Z</time></trkpt>
<trkpt lat="53.1131830000" lon="-4.1560880000"><ele>441</ele><time>2016-10-15T09:42:34Z</time></trkpt>
<trkpt lat="53.1131740000" lon="-4.1561010000"><ele>441</ele><time>2016-10-15T09:42:35Z</time></trkpt>
<trkpt lat="53.1131660000" lon="-4.1561120000"><ele>441</ele><time>2016-10-15T09:42:36Z</time></trkpt>
<trkpt lat="53.1131570000" lon="-4.1561230000"><ele>441</ele><time>2016-10-15T09:42:37Z</time></trkpt>
<trkpt lat="53.1131480000" lon="-4.1561320000"><ele>441</ele><time>2016-10-15T09:42:38Z</time></trkpt>
<trkpt lat="53.1131390000" lon="-4.1561440000"><ele>442</ele><time>2016-10-15T09:42:39Z</time></trkpt>
<trkpt lat="53.1131220000" lon="-4.1561630000"><ele>442</ele><time>2016-10-15T09:42:42Z</time></trkpt>
<trkpt lat="53.1131220000" lon="-4.1561630000"><ele>442</ele></trkpt>
<trkpt lat="53.1131220000" lon="-4.1561630000"><ele>442</ele><time>2016-10-15T09:42:43Z</time></trkpt>
<trkpt lat="53.1131220000" lon="-4.1561630000"><ele>442</ele><time>2016-10-15T09:42:44Z</time></trkpt>
<trkpt lat="53.1131210000" lon="-4.1561640000"><ele>443</ele><time>2016-10-15T09:42:45Z</time></trkpt>
<trkpt lat="53.1131200000" lon="-4.1561650000"><ele>443</ele><time>2016-10-15T09:42:46Z</time></trkpt>
<trkpt lat="53.1131190000" lon="-4.1561670000"><ele>443</ele><time>2016-10-15T09:42:47Z</time></trkpt>
<trkpt lat="53.1131170000" lon="-4.1561690000"><ele>443</ele><time>2016-10-15T09:42:48Z</time></trkpt>
<trkpt lat="53.1131150000" lon="-4.1561720000"><ele>443</ele><time>2016-10-15T09:42:49Z</time></trkpt>
<trkpt lat="53.1131120000" lon="-4.1561750000"><ele>443</ele><time>2016-10-15T09:42:50Z</time></trkpt>
<trkpt lat="53.1131080000" lon="-4.1561790000"><ele>444</ele><time>2016-10-15T09:42:51Z</time></trkpt>
<trkpt lat="53.1130220000" lon="-4.1562820000"><ele>444</ele><time>2016-10-15T09:42:52Z</time></trkpt>
<trkpt lat="53.1130120000" lon="-4.1562910000"><ele>444</ele><time>2016-10-15T09:42:53Z</time></trkpt>
<trkpt lat="53.1130040000" lon="-4.1563010000"><ele>444</ele><time>2016-10-15T09:42:54Z</time></trkpt>
<trkpt lat="53.1129960000" lon="-4.1563110000"><ele>444</ele><time>2016-10-15T09:42:55Z</time></trkpt>
<trkpt lat="53.1129880000" lon="-4.1563220000"><ele>445</ele><time>2016-10-15T09:42:56Z</time></trkpt>
<trkpt lat="53.1129880000" lon="-4.1563220000"><ele>445</ele><time>2016-10-15T09:42:57Z</time></trkpt>
<trkpt lat="53.1129880000" lon="-4.1563230000"><ele>445</ele><time>2016-10-15T09:42:58Z</time></trkpt>
<trkpt lat="53.1129870000" lon="-4.1563230000"><ele>445</ele><time>2016-10-15T09:42:59Z</time></trkpt>
<trkpt lat="53.1129870000" lon="-4.1563230000"><ele>445</ele><time>2016-10-15T09:43:00Z</time></trkpt>
<trkpt lat="53.1129870000" lon="-4.1563240000"><ele>445</ele><time>2016-10-15T09:43:01Z</time></trkpt>
<trkpt lat="53.1129860000" lon="-4.1563240000"><ele>445</ele><time>2016-10-15T09:43:02Z</time></trkpt>
<trkpt lat="53.1129850000" lon="-4.1563250000"><ele>445</ele><time>2016-10-15T09:43:03Z</time></trkpt>
<trkpt lat="53.1129840000" lon="-4.1563270000"><ele>445</ele><time>2016-10-15T09:43:04Z</time></trkpt>
<trkpt lat="53.1129820000" lon="-4.1563300000"><ele>445</ele><time>2016-10-15T09:43:05Z</time></trkpt>
<trkpt lat="53.1129800000" lon="-4.1563330000"><ele>445</ele><time>2016-10-15T09:43:06Z</time></trkpt>
<trkpt lat="53.1129770000" lon="-4.1563380000"><ele>445</ele><time>2016-10-15T09:43:07Z</time></trkpt>
<trkpt lat="53.1129730000" lon="-4.1563420000"><ele>445</ele><time>2016-10-15T09:43:08Z</time></trkpt>
<trkpt lat="53.1129690000" lon="-4.1563480000"><ele>445</ele><time>2016-10-15T09:43:09Z</time></trkpt>
<trkpt lat="53.1129650000" lon="-4.1563540000"><ele>445</ele><time>2016-10-15T09:43:10Z</time></trkpt>
<trkpt lat="53.1129600000" lon="-4.1563610000"><ele>445</ele><time>2016-10-15T09:43:11Z</time></trkpt>
<trkpt lat="53.1129540000" lon="-4.1563680000"><ele>445</ele><time>2016-10-15T09:43:12Z</time></trkpt>
<trkpt lat="53.1129480000" lon="-4.1563760000"><ele>445</ele><time>2016-10-15T09:43:13Z</time></trkpt>
<trkpt lat="53.1129420000" lon="-4.1563850000"><ele>446</ele><time>2016-10-15T09:43:14Z</time></trkpt>
<trkpt lat="53.1129350000" lon="-4.1563940000"><ele>446</ele><time>2016-10-15T09:43:15Z</time></trkpt>
<trkpt lat="53.1129280000" lon="-4.1564030000"><ele>446</ele><time>2016-10-15T09:43:16Z</time></trkpt>
<trkpt lat="53.1129210000" lon="-4.1564130000"><ele>446</ele><time>2016-10-15T09:43:17Z</time></trkpt>
<trkpt lat="53.1129130000" lon="-4.1564230000"><ele>446</ele><time>2016-10-15T09:43:18Z</time></trkpt>
<trkpt lat="53.1127820000" lon="-4.1565970000"><ele>446</ele><time>2016-10-15T09:43:19Z</time></trkpt>
<trkpt lat="53.1127720000" lon="-4.1566080000"><ele>446</ele><time>2016-10-15T09:43:20Z</time></trkpt>
<trkpt lat="53.1127600000" lon="-4.1566210000"><ele>446</ele><time>2016-10-15T09:43:21Z</time></trkpt>
<trkpt lat="53.1127480000" lon="-4.1566320000"><ele>446</ele><time>2016-10-15T09:43:22Z</time></trkpt>
<trkpt lat="53.1127350000" lon="-4.1566450000"><ele>446</ele><time>2016-10-15T09:43:23Z</time></trkpt>
<trkpt lat="53.1127220000" lon="-4.1566570000"><ele>447</ele><time>2016-10-15T09:43:24Z</time></trkpt>
<trkpt lat="53.1127100000" lon="-4.1566670000"><ele>447</ele><time>2016-10-15T09:43:25Z</time></trkpt>
<trkpt lat="53.1126980000" lon="-4.1566770000"><ele>447</ele><time>2016-10-15T09:43:26Z</time></trkpt>
<trkpt lat="53.1126860000" lon="-4.1566890000"><ele>447</ele><time>2016-10-15T09:43:27Z</time></trkpt>
<trkpt lat="53.1126760000" lon="-4.1567010000"><ele>447</ele><time>2016-10-15T09:43:28Z</time></trkpt>
<trkpt lat="53.1126650000" lon="-4.1567130000"><ele>447</ele><time>2016-10-15T09:43:29Z</time></trkpt>
<trkpt lat="53.1126540000" lon="-4.1567240000"><ele>447</ele><time>2016-10-15T09:43:30Z</time></trkpt>
<trkpt lat="53.1126430000" lon="-4.1567350000"><ele>447</ele><time>2016-10-15T09:43:31Z</time></trkpt>
<trkpt lat="53.1126320000" lon="-4.1567460000"><ele>447</ele><time>2016-10-15T09:43:32Z</time></trkpt>
<trkpt lat="53.1126190000" lon="-4.1567590000"><ele>447</ele><time>2016-10-15T09:43:33Z</time></trkpt>
<trkpt lat="53.1126070000" lon="-4.1567710000"><ele>447</ele><time>2016-10-15T09:43:34Z</time></trkpt>
<trkpt lat="53.1125960000" lon="-4.1567830000"><ele>448</ele><time>2016-10-15T09:43:35Z</time></trkpt>
<trkpt lat="53.1125860000" lon="-4.1567930000"><ele>448</ele><time>2016-10-15T09:43:36Z</time></trkpt>
<trkpt lat="53.1125770000" lon="-4.1568020000"><ele>448</ele><time>2016-10-15T09:43:37Z</time></trkpt>
<trkpt lat="53.1125670000" lon="-4.1568120000"><ele>448</ele><time>2016-10-15T09:43:38Z</time></trkpt>
<trkpt lat="53.1125550000" lon="-4.1568240000"><ele>448</ele><time>2016-10-15T09:43:39Z</time></trkpt>
<trkpt lat="53.1125330000" lon="-4.1568390000"><ele>448</ele><time>2016-10-15T09:43:42Z</time></trkpt>
<trkpt lat="53.1125220000" lon="-4.1568490000"><ele>448</ele></trkpt>
<trkpt lat="53.1125090000" lon="-4.1568600000"><ele>448</ele><time>2016-10-15T09:43:43Z</time></trkpt>
<trkpt lat="53.1124970000" lon="-4.1568700000"><ele>448</ele><time>2016-10-15T09:43:44Z</time></trkpt>
<trkpt lat="53.1124850000" lon="-4.1568800000"><ele>448</ele><time>2016-10-15T09:43:45Z</time></trkpt>
<trkpt lat="53.1124740000" lon="-4.1568900000"><ele>448</ele><time>2016-10-15T09:43:46Z</time></trkpt>
<trkpt lat="53.1124630000" lon="-4.1568980000"><ele>448</ele><time>2016-10-15T09:43:47Z</time></trkpt>
<trkpt lat="53.1124510000" lon="-4.1569060000"><ele>448</ele><time>2016-10-15T09:43:48Z</time></trkpt>
<trkpt lat="53.1124390000" lon="-4.1569130000"><ele>448</ele><time>2016-10-15T09:43:49Z</time></trkpt>
<trkpt lat="53.1124270000" lon="-4.1569180000"><ele>448</ele><time>2016-10-15T09:43:50Z</time></trkpt>
<trkpt lat="53.1124160000" lon="-4.1569240000"><ele>448</ele><time>2016-10-15T09:43:51Z</time></trkpt>
<trkpt lat="53.1124060000" lon="-4.1569330000"><ele>448</ele><time>2016-10-15T09:43:52Z</time></trkpt>
<trkpt lat="53.1123930000" lon="-4.1569420000"><ele>448</ele><time>2016-10-15T09:43:53Z</time></trkpt>
<trkpt lat="53.1123800000" lon="-4.1569500000"><ele>448</ele><time>2016-10-15T09:43:54Z</time></trkpt>
<trkpt lat="53.1123670000" lon="-4.1569570000"><ele>448</ele><time>2016-10-15T09:43:55Z</time></trkpt>
<trkpt lat="53.1123540000" lon="-4.1569620000"><ele>448</ele><time>2016-10-15T09:43:56Z</time></trkpt>
<trkpt lat="53.1123430000" lon="-4.1569660000"><ele>448</ele><time>2016-10-15T09:43:57Z</time></trkpt>
<trkpt lat="53.1123300000" lon="-4.1569700000"><ele>448</ele><time>2016-10-15T09:43:58Z</time></trkpt>
<trkpt lat="53.1123170000" lon="-4.1569740000"><ele>448</ele><time>2016-10-15T09:43:59Z</time></trkpt>
<trkpt lat="53.1123040000" lon="-4.1569760000"><ele>448</ele><time>2016-10-15T09:44:00Z</time></trkpt>
<trkpt lat="53.1122910000" lon="-4.1569790000"><ele>448</ele><time>2016-10-15T09:44:01Z</time></trkpt>
<trkpt lat="53.1122780000" lon="-4.1569800000"><ele>448</ele><time>2016-10-15T09:44:02Z</time></trkpt>
<trkpt lat="53.1122640000" lon="-4.1569820000"><ele>448</ele><time>2016-10-15T09:44:03Z</time></trkpt>
<trkpt lat="53.1122510000" lon="-4.1569830000"><ele>448</ele><time>2016-10-15T09:44:04Z</time></trkpt>
<trkpt lat="53.1122370000" lon="-4.1569840000"><ele>448</ele><time>2016-10-15T09:44:05Z</time></trkpt>
<trkpt lat="53.1122230000" lon="-4.1569820000"><ele>448</ele><time>2016-10-15T09:44:06Z</time></trkpt>
<trkpt lat="53.1122090000" lon="-4.1569810000"><ele>448</ele><time>2016-10-15T09:44:07Z</time></trkpt>
<trkpt lat="53.1121960000" lon="-4.1569800000"><ele>448</ele><time>2016-10-15T09:44:08Z</time></trkpt>
<trkpt lat="53.1121830000" lon="-4.1569810000"><ele>448</ele><time>2016-10-15T09:44:09Z</time></trkpt>
<trkpt lat="53.1121700000" lon="-4.1569820000"><ele>448</ele><time>2016-10-15T09:44:10Z</time></trkpt>
<trkpt lat="53.1121570000" lon="-4.1569830000"><ele>448</ele><time>2016-10-15T09:44:11Z</time></trkpt>
<trkpt lat="53.1121460000" lon="-4.1569820000"><ele>448</ele><time>2016-10-15T09:44:12Z</time></trkpt>
<trkpt lat="53.1121350000" lon="-4.1569800000"><ele>448</ele><time>2016-10-15T09:44:13Z</time></trkpt>
<trkpt lat="53.1121260000" lon="-4.1569770000"><ele>448</ele><time>2016-10-15T09:44:14Z</time></trkpt>
<trkpt lat="53.1121170000" lon="-4.1569740000"><ele>448</ele><time>2016-10-15T09:44:15Z</time></trkpt>
<trkpt lat="53.1121170000" lon="-4.1569740000"><ele>448</ele><time>2016-10-15T09:44:17Z</time></trkpt>
<trkpt lat="53.1121170000" lon="-4.1569740000"><ele>448</ele><time>2016-10-15T09:44:18Z</time></trkpt>
<trkpt lat="53.1121170000" lon="-4.1569740000"><ele>448</ele><time>2016-10-15T09:44:19Z</time></trkpt>
<trkpt lat="53.1121160000" lon="-4.1569740000"><ele>448</ele><time>2016-10-15T09:44:20Z</time></trkpt>
<trkpt lat="53.1120450000" lon="-4.1569700000"><ele>448</ele><time>2016-10-15T09:44:21Z</time></trkpt>
<trkpt lat="53.1120340000" lon="-4.1569690000"><ele>448</ele><time>2016-10-15T09:44:22Z</time></trkpt>
<trkpt lat="53.1120220000" lon="-4.1569690000"><ele>448</ele><time>2016-10-15T09:44:23Z</time></trkpt>
<trkpt lat="53.1120110000" lon="-4.1569690000"><ele>448</ele><time>2016-10-15T09:44:24Z</time></trkpt>
<trkpt lat="53.1120020000" lon="-4.1569690000"><ele>448</ele><time>2016-10-15T09:44:25Z</time></trkpt>
<trkpt lat="53.1119920000" lon="-4.1569670000"><ele>449</ele><time>2016-10-15T09:44:26Z</time></trkpt>
<trkpt lat="53.1119810000" lon="-4.1569650000"><ele>449</ele><time>2016-10-15T09:44:27Z</time></trkpt>
<trkpt lat="53.1119810000" lon="-4.1569650000"><ele>449</ele><time>2016-10-15T09:44:29Z</time></trkpt>
<trkpt lat="53.1119810000" lon="-4.1569650000"><ele>449</ele><time>2016-10-15T09:44:30Z</time></trkpt>
<trkpt lat="53.1119260000" lon="-4.1569950000"><ele>449</ele><time>2016-10-15T09:44:31Z</time></trkpt>
<trkpt lat="53.1119120000" lon="-4.1570010000"><ele>449</ele><time>2016-10-15T09:44:32Z</time></trkpt>
<trkpt lat="53.1118980000" lon="-4.1570040000"><ele>449</ele><time>2016-10-15T09:44:33Z</time></trkpt>
<trkpt lat="53.1118850000" lon="-4.1570070000"><ele>449</ele><time>2016-10-15T09:44:34Z</time></trkpt>
<trkpt lat="53.1118710000" lon="-4.1570120000"><ele>449</ele><time>2016-10-15T09:44:35Z</time></trkpt>
<trkpt lat="53.1118570000" lon="-4.1570150000"><ele>450</ele><time>2016-10-15T09:44:36Z</time></trkpt>
<trkpt lat="53.1118440000" lon="-4.1570180000"><ele>450</ele><time>2016-10-15T09:44:37Z</time></trkpt>
<trkpt lat="53.1118300000" lon="-4.1570220000"><ele>450</ele><time>2016-10-15T09:44:38Z</time></trkpt>
<trkpt lat="53.1118170000" lon="-4.1570250000"><ele>450</ele><time>2016-10-15T09:44:39Z</time></trkpt>
<trkpt lat="53.1117870000" lon="-4.1570380000"><ele>450</ele><time>2016-10-15T09:44:42Z</time></trkpt>
<trkpt lat="53.1117720000" lon="-4.1570480000"><ele>450</ele></trkpt>
<trkpt lat="53.1117590000" lon="-4.1570550000"><ele>450</ele><time>2016-10-15T09:44:43Z</time></trkpt>
<trkpt lat="53.1117460000" lon="-4.1570600000"><ele>450</ele><time>2016-10-15T09:44:44Z</time></trkpt>
<trkpt lat="53.1117360000" lon="-4.1570630000"><ele>450</ele><time>2016-10-15T09:44:45Z</time></trkpt>
<trkpt lat="53.1117240000" lon="-4.1570690000"><ele>450</ele><time>2016-10-15T09:44:46Z</time></trkpt>
<trkpt lat="53.1117120000" lon="-4.1570740000"><ele>451</ele><time>2016-10-15T09:44:47Z</time></trkpt>
<trkpt lat="53.1116990000" lon="-4.1570820000"><ele>451</ele><time>2016-10-15T09:44:48Z</time></trkpt>
<trkpt lat="53.1116880000" lon="-4.1570880000"><ele>451</ele><time>2016-10-15T09:44:49Z</time></trkpt>
<trkpt lat="53.1116760000" lon="-4.1570980000"><ele>451</ele><time>2016-10-15T09:44:50Z</time></trkpt>
<trkpt lat="53.1116640000" lon="-4.1571090000"><ele>451</ele><time>2016-10-15T09:44:51Z</time></trkpt>
<trkpt lat="53.1116530000" lon="-4.1571170000"><ele>451</ele><time>2016-10-15T09:44:52Z</time></trkpt>
<trkpt lat="53.1116410000" lon="-4.1571230000"><ele>451</ele><time>2016-10-15T09:44:53Z</time></trkpt>
<trkpt lat="53.1116290000" lon="-4.1571310000"><ele>451</ele><time>2016-10-15T09:44:54Z</time></trkpt>
<trkpt lat="53.1116180000" lon="-4.1571390000"><ele>451</ele><time>2016-10-15T09:44:55Z</time></trkpt>
<trkpt lat="53.1116070000" lon="-4.1571450000"><ele>451</ele><time>2016-10-15T09:44:56Z</time></trkpt>
<trkpt lat="53.1115960000" lon="-4.1571500000"><ele>451</ele><time>2016-10-15T09:44:57Z</time></trkpt>
<trkpt lat="53.1115960000" lon="-4.1571510000"><ele>451</ele><time>2016-10-15T09:44:59Z</time></trkpt>
<trkpt lat="53.1115960000" lon="-4.1571510000"><ele>451</ele><time>2016-10-15T09:45:00Z</time></trkpt>
<trkpt lat="53.1115950000" lon="-4.1571510000"><ele>451</ele><time>2016-10-15T09:45:01Z</time></trkpt>
<trkpt lat="53.1115940000" lon="-4.1571520000"><ele>451</ele><time>2016-10-15T09:45:02Z</time></trkpt>
<trkpt lat="53.1115920000" lon="-4.1571520000"><ele>451</ele><time>2016-10-15T09:45:03Z</time></trkpt>
<trkpt lat="53.1115900000" lon="-4.1571530000"><ele>451</ele><time>2016-10-15T09:45:04Z</time></trkpt>
<trkpt lat="53.1115880000" lon="-4.1571540000"><ele>451</ele><time>2016-10-15T09:45:05Z</time></trkpt>
<trkpt lat="53.1115850000" lon="-4.1571560000"><ele>451</ele><time>2016-10-15T09:45:06Z</time></trkpt>
<trkpt lat="53.1115820000" lon="-4.1571570000"><ele>451</ele><time>2016-10-15T09:45:07Z</time></trkpt>
<trkpt lat="53.1115780000" lon="-4.1571590000"><ele>451</ele><time>2016-10-15T09:45:08Z</time></trkpt>
<trkpt lat="53.1115730000" lon="-4.1571610000"><ele>451</ele><time>2016-10-15T09:45:09Z</time></trkpt>
<trkpt lat="53.1115680000" lon="-4.1571630000"><ele>451</ele><time>2016-10-15T09:45:10Z</time></trkpt>
<trkpt lat="53.1115630000" lon="-4.1571660000"><ele>451</ele><time>2016-10-15T09:45:11Z</time></trkpt>
<trkpt lat="53.1115570000" lon="-4.1571690000"><ele>451</ele><time>2016-10-15T09:45:12Z</time></trkpt>
<trkpt lat="53.1115500000" lon="-4.1571720000"><ele>451</ele><time>2016-10-15T09:45:13Z</time></trkpt>
<trkpt lat="53.1115430000" lon="-4.1571770000"><ele>451</ele><time>2016-10-15T09:45:14Z</time></trkpt>
<trkpt lat="53.1114130000" lon="-4.1572570000"><ele>451</ele><time>2016-10-15T09:45:15Z</time></trkpt>
<trkpt lat="53.1114030000" lon="-4.1572600000"><ele>451</ele><time>2016-10-15T09:45:16Z</time></trkpt>
<trkpt lat="53.1113910000" lon="-4.1572620000"><ele>451</ele><time>2016-10-15T09:45:17Z</time></trkpt>
<trkpt lat="53.1113800000" lon="-4.1572640000"><ele>451</ele><time>2016-10-15T09:45:18Z</time></trkpt>
<trkpt lat="53.1113680000" lon="-4.1572690000"><ele>451</ele><time>2016-10-15T09:45:19Z</time></trkpt>
<trkpt lat="53.1113560000" lon="-4.1572750000"><ele>452</ele><time>2016-10-15T09:45:20Z</time></trkpt>
<trkpt lat="53.1113440000" lon="-4.1572790000"><ele>452</ele><time>2016-10-15T09:45:21Z</time></trkpt>
<trkpt lat="53.1113310000" lon="-4.1572830000"><ele>452</ele><time>2016-10-15T09:45:22Z</time></trkpt>
<trkpt lat="53.1113200000" lon="-4.1572890000"><ele>452</ele><time>2016-10-15T09:45:23Z</time></trkpt>
<trkpt lat="53.1113100000" lon="-4.1572950000"><ele>452</ele><time>2016-10-15T09:45:24Z</time></trkpt>
<trkpt lat="53.1112990000" lon="-4.1573030000"><ele>452</ele><time>2016-10-15T09:45:25Z</time></trkpt>
<trkpt lat="53.1112880000" lon="-4.1573130000"><ele>452</ele><time>2016-10-15T09:45:26Z</time></trkpt>
<trkpt lat="53.1112780000" lon="-4.1573230000"><ele>452</ele><time>2016-10-15T09:45:27Z</time></trkpt>
<trkpt lat="53.1112670000" lon="-4.1573300000"><ele>452</ele><time>2016-10-15T09:45:28Z</time></trkpt>
<trkpt lat="53.1112550000" lon="-4.1573350000"><ele>452</ele><time>2016-10-15T09:45:29Z</time></trkpt>
<trkpt lat="53.1112440000" lon="-4.1573370000"><ele>452</ele><time>2016-10-15T09:45:30Z</time></trkpt>
<trkpt lat="53.1112330000" lon="-4.1573400000"><ele>452</ele><time>2016-10-15T09:45:31Z</time></trkpt>
<trkpt lat="53.1112210000" lon="-4.1573440000"><ele>452</ele><time>2016-10-15T09:45:32Z</time></trkpt>
<trkpt lat="53.1112110000" lon="-4.1573490000"><ele>452</ele><time>2016-10-15T09:45:33Z</time></trkpt>
<trkpt lat="53.1112110000" lon="-4.1573490000"><ele>453</ele><time>2016-10-15T09:45:34Z</time></trkpt>
<trkpt lat="53.1112110000" lon="-4.1573490000"><ele>453</ele><time>2016-10-15T09:45:35Z</time></trkpt>
<trkpt lat="53.1112110000" lon="-4.1573490000"><ele>453</ele><time>2016-10-15T09:45:36Z</time></trkpt>
<trkpt lat="53.1112100000" lon="-4.1573490000"><ele>453</ele><time>2016-10-15T09:45:37Z</time></trkpt>
<trkpt lat="53.1112090000" lon="-4.1573490000"><ele>453</ele><time>2016-10-15T09:45:38Z</time></trkpt>
<trkpt lat="53.1112080000" lon="-4.1573500000"><ele>453</ele><time>2016-10-15T09:45:39Z</time></trkpt>
<trkpt lat="53.1112040000" lon="-4.1573520000"><ele>453</ele><time>2016-10-15T09:45:42Z</time></trkpt>
<trkpt lat="53.1112010000" lon="-4.1573530000"><ele>453</ele></trkpt>
<trkpt lat="53.1111980000" lon="-4.1573550000"><ele>454</ele><time>2016-10-15T09:45:43Z</time></trkpt>
<trkpt lat="53.1111940000" lon="-4.1573570000"><ele>454</ele><time>2016-10-15T09:45:44Z</time></trkpt>
<trkpt lat="53.1111900000" lon="-4.1573580000"><ele>454</ele><time>2016-10-15T09:45:45Z</time></trkpt>
<trkpt lat="53.1111860000" lon="-4.1573600000"><ele>454</ele><time>2016-10-15T09:45:46Z</time></trkpt>
<trkpt lat="53.1111820000" lon="-4.1573630000"><ele>454</ele><time>2016-10-15T09:45:47Z</time></trkpt>
<trkpt lat="53.1111770000" lon="-4.1573650000"><ele>454</ele><time>2016-10-15T09:45:48Z</time></trkpt>
<trkpt lat="53.1111720000" lon="-4.1573680000"><ele>455</ele><time>2016-10-15T09:45:49Z</time></trkpt>
<trkpt lat="53.1111670000" lon="-4.1573710000"><ele>455</ele><time>2016-10-15T09:45:50Z</time></trkpt>
<trkpt lat="53.1111610000" lon="-4.1573750000"><ele>455</ele><time>2016-10-15T09:45:51Z</time></trkpt>
<trkpt lat="53.1111540000" lon="-4.1573800000"><ele>455</ele><time>2016-10-15T09:45:52Z</time></trkpt>
<trkpt lat="53.1111470000" lon="-4.1573850000"><ele>455</ele><time>2016-10-15T09:45:53Z</time></trkpt>
<trkpt lat="53.1111390000" lon="-4.1573900000"><ele>456</ele><time>2016-10-15T09:45:54Z</time></trkpt>
<trkpt lat="53.1111310000" lon="-4.1573950000"><ele>456</ele><time>2016-10-15T09:45:55Z</time></trkpt>
<trkpt lat="53.1111230000" lon="-4.1573990000"><ele>456</ele><time>2016-10-15T09:45:56Z</time></trkpt>
<trkpt lat="53.1111150000" lon="-4.1574030000"><ele>456</ele><time>2016-10-15T09:45:57Z</time></trkpt>
<trkpt lat="53.1111060000" lon="-4.1574080000"><ele>456</ele><time>2016-10-15T09:45:58Z</time></trkpt>
<trkpt lat="53.1110970000" lon="-4.1574120000"><ele>457</ele><time>2016-10-15T09:45:59Z</time></trkpt>
<trkpt lat="53.1110880000" lon="-4.1574160000"><ele>457</ele><time>2016-10-15T09:46:00Z</time></trkpt>
<trkpt lat="53.1109420000" lon="-4.1574860000"><ele>457</ele><time>2016-10-15T09:46:01Z</time></trkpt>
<trkpt lat="53.1109320000" lon="-4.1574870000"><ele>457</ele><time>2016-10-15T09:46:02Z</time></trkpt>
<trkpt lat="53.1109220000" lon="-4.1574880000"><ele>457</ele><time>2016-10-15T09:46:03Z</time></trkpt>
<trkpt lat="53.1109220000" lon="-4.1574880000"><ele>457</ele><time>2016-10-15T09:46:04Z</time></trkpt>
<trkpt lat="53.1109220000" lon="-4.1574880000"><ele>458</ele><time>2016-10-15T09:46:05Z</time></trkpt>
<trkpt lat="53.1109220000" lon="-4.1574880000"><ele>458</ele><time>2016-10-15T09:46:06Z</time></trkpt>
<trkpt lat="53.1109210000" lon="-4.1574880000"><ele>458</ele><time>2016-10-15T09:46:07Z</time></trkpt>
<trkpt lat="53.1109190000" lon="-4.1574890000"><ele>458</ele><time>2016-10-15T09:46:08Z</time></trkpt>
<trkpt lat="53.1109180000" lon="-4.1574890000"><ele>458</ele><time>2016-10-15T09:46:09Z</time></trkpt>
<trkpt lat="53.1109150000" lon="-4.1574900000"><ele>458</ele><time>2016-10-15T09:46:10Z</time></trkpt>
<trkpt lat="53.1109120000" lon="-4.1574910000"><ele>459</ele><time>2016-10-15T09:46:11Z</time></trkpt>
<trkpt lat="53.1109090000" lon="-4.1574920000"><ele>459</ele><time>2016-10-15T09:46:12Z</time></trkpt>
<trkpt lat="53.1109050000" lon="-4.1574930000"><ele>459</ele><time>2016-10-15T09:46:13Z</time></trkpt>
<trkpt lat="53.1109010000" lon="-4.1574940000"><ele>459</ele><time>2016-10-15T09:46:14Z</time></trkpt>
<trkpt lat="53.1108960000" lon="-4.1574960000"><ele>459</ele><time>2016-10-15T09:46:15Z</time></trkpt>
<trkpt lat="53.1108900000" lon="-4.1574980000"><ele>459</ele><time>2016-10-15T09:46:16Z</time></trkpt>
<trkpt lat="53.1108840000" lon="-4.1575000000"><ele>459</ele><time>2016-10-15T09:46:17Z</time></trkpt>
<trkpt lat="53.1107610000" lon="-4.1575400000"><ele>459</ele><time>2016-10-15T09:46:18Z</time></trkpt>
<trkpt lat="53.1107480000" lon="-4.1575420000"><ele>459</ele><time>2016-10-15T09:46:19Z</time></trkpt>
<trkpt lat="53.1107370000" lon="-4.1575440000"><ele>459</ele><time>2016-10-15T09:46:20Z</time></trkpt>
<trkpt lat="53.1107240000" lon="-4.1575470000"><ele>459</ele><time>2016-10-15T09:46:21Z</time></trkpt>
<trkpt lat="53.1107130000" lon="-4.1575470000"><ele>459</ele><time>2016-10-15T09:46:22Z</time></trkpt>
<trkpt lat="53.1107020000" lon="-4.1575500000"><ele>459</ele><time>2016-10-15T09:46:23Z</time></trkpt>
<trkpt lat="53.1106890000" lon="-4.1575550000"><ele>459</ele><time>2016-10-15T09:46:24Z</time></trkpt>
<trkpt lat="53.1106770000" lon="-4.1575600000"><ele>459</ele><time>2016-10-15T09:46:25Z</time></trkpt>
<trkpt lat="53.1106650000" lon="-4.1575650000"><ele>459</ele><time>2016-10-15T09:46:26Z</time></trkpt>
<trkpt lat="53.1106530000" lon="-4.1575690000"><ele>459</ele><time>2016-10-15T09:46:27Z</time></trkpt>
<trkpt lat="53.1106430000" lon="-4.1575770000"><ele>460</ele><time>2016-10-15T09:46:28Z</time></trkpt>
<trkpt lat="53.1106430000" lon="-4.1575770000"><ele>460</ele><time>2016-10-15T09:46:29Z</time></trkpt>
<trkpt lat="53.1106430000" lon="-4.1575770000"><ele>460</ele><time>2016-10-15T09:46:30Z</time></trkpt>
<trkpt lat="53.1106420000" lon="-4.1575780000"><ele>460</ele><time>2016-10-15T09:46:31Z</time></trkpt>
<trkpt lat="53.1106410000" lon="-4.1575780000"><ele>460</ele><time>2016-10-15T09:46:32Z</time></trkpt>
<trkpt lat="53.1106400000" lon="-4.1575800000"><ele>460</ele><time>2016-10-15T09:46:33Z</time></trkpt>
<trkpt lat="53.1105800000" lon="-4.1576440000"><ele>460</ele><time>2016-10-15T09:46:34Z</time></trkpt>
<trkpt lat="53.1105710000" lon="-4.1576570000"><ele>460</ele><time>2016-10-15T09:46:35Z</time></trkpt>
<trkpt lat="53.1105620000" lon="-4.1576680000"><ele>460</ele><time>2016-10-15T09:46:36Z</time></trkpt>
<trkpt lat="53.1105540000" lon="-4.1576770000"><ele>460</ele><time>2016-10-15T09:46:37Z</time></trkpt>
<trkpt lat="53.1105460000" lon="-4.1576900000"><ele>460</ele><time>2016-10-15T09:46:38Z</time></trkpt>
<trkpt lat="53.1105380000" lon="-4.1577040000"><ele>461</ele><time>2016-10-15T09:46:39Z</time></trkpt>
<trkpt lat="53.1105380000" lon="-4.1577050000"><ele>461</ele><time>2016-10-15T09:46:42Z</time></trkpt>
<trkpt lat="53.1104990000" lon="-4.1577270000"><ele>461</ele></trkpt>
<trkpt lat="53.1104860000" lon="-4.1577260000"><ele>461</ele><time>2016-10-15T09:46:43Z</time></trkpt>
<trkpt lat="53.1104720000" lon="-4.1577240000"><ele>461</ele><time>2016-10-15T09:46:44Z</time></trkpt>
<trkpt lat="53.1104590000" lon="-4.1577220000"><ele>461</ele><time>2016-10-15T09:46:45Z</time></trkpt>
<trkpt lat="53.1104470000" lon="-4.1577180000"><ele>461</ele><time>2016-10-15T09:46:46Z</time></trkpt>
<trkpt lat="53.1104340000" lon="-4.1577130000"><ele>462</ele><time>2016-10-15T09:46:47Z</time></trkpt>
<trkpt lat="53.1104230000" lon="-4.1577070000"><ele>462</ele><time>2016-10-15T09:46:48Z</time></trkpt>
<trkpt lat="53.1104120000" lon="-4.1577030000"><ele>462</ele><time>2016-10-15T09:46:49Z</time></trkpt>
<trkpt lat="53.1104030000" lon="-4.1577040000"><ele>462</ele><time>2016-10-15T09:46:50Z</time></trkpt>
<trkpt lat="53.1104020000" lon="-4.1577040000"><ele>462</ele><time>2016-10-15T09:46:52Z</time></trkpt>
<trkpt lat="53.1104020000" lon="-4.1577040000"><ele>462</ele><time>2016-10-15T09:46:53Z</time></trkpt>
<trkpt lat="53.1104020000" lon="-4.1577040000"><ele>462</ele><time>2016-10-15T09:46:54Z</time></trkpt>
<trkpt lat="53.1103500000" lon="-4.1576920000"><ele>462</ele><time>2016-10-15T09:46:55Z</time></trkpt>
<trkpt lat="53.1103390000" lon="-4.1576860000"><ele>462</ele><time>2016-10-15T09:46:56Z</time></trkpt>
<trkpt lat="53.1103260000" lon="-4.1576810000"><ele>462</ele><time>2016-10-15T09:46:57Z</time></trkpt>
<trkpt lat="53.1103120000" lon="-4.1576770000"><ele>462</ele><time>2016-10-15T09:46:58Z</time></trkpt>
<trkpt lat="53.1103010000" lon="-4.1576710000"><ele>462</ele><time>2016-10-15T09:46:59Z</time></trkpt>
<trkpt lat="53.1102890000" lon="-4.1576650000"><ele>462</ele><time>2016-10-15T09:47:00Z</time></trkpt>
<trkpt lat="53.1102780000" lon="-4.1576600000"><ele>462</ele><time>2016-10-15T09:47:01Z</time></trkpt>
<trkpt lat="53.1102670000" lon="-4.1576530000"><ele>462</ele><time>2016-10-15T09:47:02Z</time></trkpt>
<trkpt lat="53.1102560000" lon="-4.1576460000"><ele>462</ele><time>2016-10-15T09:47:03Z</time></trkpt>
<trkpt lat="53.1102460000" lon="-4.1576400000"><ele>462</ele><time>2016-10-15T09:47:04Z</time></trkpt>
<trkpt lat="53.1102340000" lon="-4.1576340000"><ele>462</ele><time>2016-10-15T09:47:05Z</time></trkpt>
<trkpt lat="53.1102220000" lon="-4.1576320000"><ele>462</ele><time>2016-10-15T09:47:06Z</time></trkpt>
<trkpt lat="53.1102110000" lon="-4.1576300000"><ele>462</ele><time>2016-10-15T09:47:07Z</time></trkpt>
<trkpt lat="53.1102010000" lon="-4.1576310000"><ele>462</ele><time>2016-10-15T09:47:08Z</time></trkpt>
<trkpt lat="53.1101680000" lon="-4.1576450000"><ele>462</ele><time>2016-10-15T09:47:10Z</time></trkpt>
<trkpt lat="53.1101390000" lon="-4.1576450000"><ele>463</ele><time>2016-10-15T09:47:12Z</time></trkpt>
<trkpt lat="53.1101130000" lon="-4.1576370000"><ele>463</ele><time>2016-10-15T09:47:14Z</time></trkpt>
<trkpt lat="53.1101010000" lon="-4.1576310000"><ele>464</ele><time>2016-10-15T09:47:19Z</time></trkpt>
<trkpt lat="53.1101000000" lon="-4.1576300000"><ele>464</ele><time>2016-10-15T09:47:20Z</time></trkpt>
<trkpt lat="53.1100990000" lon="-4.1576300000"><ele>464</ele><time>2016-10-15T09:47:21Z</time></trkpt>
<trkpt lat="53.1100970000" lon="-4.1576280000"><ele>465</ele><time>2016-10-15T09:47:22Z</time></trkpt>
<trkpt lat="53.1100950000" lon="-4.1576260000"><ele>465</ele><time>2016-10-15T09:47:23Z</time></trkpt>
<trkpt lat="53.1100930000" lon="-4.1576240000"><ele>465</ele><time>2016-10-15T09:47:24Z</time></trkpt>
<trkpt lat="53.1100900000" lon="-4.1576210000"><ele>465</ele><time>2016-10-15T09:47:25Z</time></trkpt>
<trkpt lat="53.1100870000" lon="-4.1576180000"><ele>465</ele><time>2016-10-15T09:47:26Z</time></trkpt>
<trkpt lat="53.1099940000" lon="-4.1575350000"><ele>465</ele><time>2016-10-15T09:47:27Z</time></trkpt>
<trkpt lat="53.1099810000" lon="-4.1575370000"><ele>465</ele><time>2016-10-15T09:47:28Z</time></trkpt>
<trkpt lat="53.1099690000" lon="-4.1575380000"><ele>465</ele><time>2016-10-15T09:47:29Z</time></trkpt>
<trkpt lat="53.1099580000" lon="-4.1575390000"><ele>466</ele><time>2016-10-15T09:47:30Z</time></trkpt>
<trkpt lat="53.1099490000" lon="-4.1575400000"><ele>466</ele><time>2016-10-15T09:47:31Z</time></trkpt>
<trkpt lat="53.1099400000" lon="-4.1575440000"><ele>466</ele><time>2016-10-15T09:47:32Z</time></trkpt>
<trkpt lat="53.1099400000" lon="-4.1575440000"><ele>466</ele><time>2016-10-15T09:47:33Z</time></trkpt>
<trkpt lat="53.1099400000" lon="-4.1575450000"><ele>466</ele><time>2016-10-15T09:47:34Z</time></trkpt>
<trkpt lat="53.1099390000" lon="-4.1575450000"><ele>466</ele><time>2016-10-15T09:47:35Z</time></trkpt>
<trkpt lat="53.1099380000" lon="-4.1575450000"><ele>466</ele><time>2016-10-15T09:47:36Z</time></trkpt>
<trkpt lat="53.1099380000" lon="-4.1575450000"><ele>466</ele><time>2016-10-15T09:47:37Z</time></trkpt>
<trkpt lat="53.1099370000" lon="-4.1575460000"><ele>466</ele><time>2016-10-15T09:47:38Z</time></trkpt>
<trkpt lat="53.1099350000" lon="-4.1575460000"><ele>466</ele><time>2016-10-15T09:47:39Z</time></trkpt>
<trkpt lat="53.1099320000" lon="-4.1575470000"><ele>466</ele><time>2016-10-15T09:47:42Z</time></trkpt>
<trkpt lat="53.1098300000" lon="-4.1575590000"><ele>466</ele></trkpt>
<trkpt lat="53.1098200000" lon="-4.1575570000"><ele>466</ele><time>2016-10-15T09:47:43Z</time></trkpt>
<trkpt lat="53.1098090000" lon="-4.1575550000"><ele>466</ele><time>2016-10-15T09:47:44Z</time></trkpt>
<trkpt lat="53.1098090000" lon="-4.1575550000"><ele>466</ele><time>2016-10-15T09:47:46Z</time></trkpt>
<trkpt lat="53.1098090000" lon="-4.1575550000"><ele>466</ele><time>2016-10-15T09:47:47Z</time></trkpt>
<trkpt lat="53.1098080000" lon="-4.1575550000"><ele>466</ele><time>2016-10-15T09:47:48Z</time></trkpt>
<trkpt lat="53.1097530000" lon="-4.1575520000"><ele>466</ele><time>2016-10-15T09:47:49Z</time></trkpt>
<trkpt lat="53.1097450000" lon="-4.1575610000"><ele>466</ele><time>2016-10-15T09:47:50Z</time></trkpt>
<trkpt lat="53.1097330000" lon="-4.1575630000"><ele>466</ele><time>2016-10-15T09:47:51Z</time></trkpt>
<trkpt lat="53.1097230000" lon="-4.1575670000"><ele>466</ele><time>2016-10-15T09:47:52Z</time></trkpt>
<trkpt lat="53.1097150000" lon="-4.1575700000"><ele>466</ele><time>2016-10-15T09:47:53Z</time></trkpt>
<trkpt lat="53.1097050000" lon="-4.1575710000"><ele>466</ele><time>2016-10-15T09:47:54Z</time></trkpt>
<trkpt lat="53.1097050000" lon="-4.1575710000"><ele>466</ele><time>2016-10-15T09:47:55Z</time></trkpt>
<trkpt lat="53.1097050000" lon="-4.1575710000"><ele>466</ele><time>2016-10-15T09:47:56Z</time></trkpt>
<trkpt lat="53.1097050000" lon="-4.1575710000"><ele>466</ele><time>2016-10-15T09:47:57Z</time></trkpt>
<trkpt lat="53.1096920000" lon="-4.1575680000"><ele>466</ele><time>2016-10-15T09:48:05Z</time></trkpt>
<trkpt lat="53.1096900000" lon="-4.1575680000"><ele>466</ele><time>2016-10-15T09:48:06Z</time></trkpt>
<trkpt lat="53.1096860000" lon="-4.1575670000"><ele>466</ele><time>2016-10-15T09:48:07Z</time></trkpt>
<trkpt lat="53.1096830000" lon="-4.1575670000"><ele>467</ele><time>2016-10-15T09:48:08Z</time></trkpt>
<trkpt lat="53.1096790000" lon="-4.1575660000"><ele>467</ele><time>2016-10-15T09:48:09Z</time></trkpt>
<trkpt lat="53.1096750000" lon="-4.1575650000"><ele>467</ele><time>2016-10-15T09:48:10Z</time></trkpt>
<trkpt lat="53.1096700000" lon="-4.1575650000"><ele>467</ele><time>2016-10-15T09:48:11Z</time></trkpt>
<trkpt lat="53.1096650000" lon="-4.1575640000"><ele>467</ele><time>2016-10-15T09:48:12Z</time></trkpt>
<trkpt lat="53.1096590000" lon="-4.1575630000"><ele>467</ele><time>2016-10-15T09:48:13Z</time></trkpt>
<trkpt lat="53.1096530000" lon="-4.1575630000"><ele>467</ele><time>2016-10-15T09:48:14Z</time></trkpt>
<trkpt lat="53.1096470000" lon="-4.1575620000"><ele>467</ele><time>2016-10-15T09:48:15Z</time></trkpt>
<trkpt lat="53.1096400000" lon="-4.1575610000"><ele>467</ele><time>2016-10-15T09:48:16Z</time></trkpt>
<trkpt lat="53.1096330000" lon="-4.1575600000"><ele>468</ele><time>2016-10-15T09:48:17Z</time></trkpt>
<trkpt lat="53.1096260000" lon="-4.1575600000"><ele>468</ele><time>2016-10-15T09:48:18Z</time></trkpt>
<trkpt lat="53.1096180000" lon="-4.1575590000"><ele>468</ele><time>2016-10-15T09:48:19Z</time></trkpt>
<trkpt lat="53.1096110000" lon="-4.1575580000"><ele>468</ele><time>2016-10-15T09:48:20Z</time></trkpt>
<trkpt lat="53.1096030000" lon="-4.1575570000"><ele>468</ele><time>2016-10-15T09:48:21Z</time></trkpt>
<trkpt lat="53.1095950000" lon="-4.1575570000"><ele>468</ele><time>2016-10-15T09:48:22Z</time></trkpt>
<trkpt lat="53.1095870000" lon="-4.1575560000"><ele>468</ele><time>2016-10-15T09:48:23Z</time></trkpt>
<trkpt lat="53.1095790000" lon="-4.1575560000"><ele>468</ele><time>2016-10-15T09:48:24Z</time></trkpt>
<trkpt lat="53.1095700000" lon="-4.1575560000"><ele>468</ele><time>2016-10-15T09:48:25Z</time></trkpt>
<trkpt lat="53.1095610000" lon="-4.1575560000"><ele>468</ele><time>2016-10-15T09:48:26Z</time></trkpt>
<trkpt lat="53.1095530000" lon="-4.1575560000"><ele>468</ele><time>2016-10-15T09:48:27Z</time></trkpt>
<trkpt lat="53.1095440000" lon="-4.1575570000"><ele>468</ele><time>2016-10-15T09:48:28Z</time></trkpt>
<trkpt lat="53.1095350000" lon="-4.1575580000"><ele>469</ele><time>2016-10-15T09:48:29Z</time></trkpt>
<trkpt lat="53.1095260000" lon="-4.1575590000"><ele>469</ele><time>2016-10-15T09:48:30Z</time></trkpt>
<trkpt lat="53.1095170000" lon="-4.1575600000"><ele>469</ele><time>2016-10-15T09:48:31Z</time></trkpt>
<trkpt lat="53.1095080000" lon="-4.1575610000"><ele>469</ele><time>2016-10-15T09:48:32Z</time></trkpt>
<trkpt lat="53.1094990000" lon="-4.1575630000"><ele>469</ele><time>2016-10-15T09:48:33Z</time></trkpt>
<trkpt lat="53.1094900000" lon="-4.1575640000"><ele>469</ele><time>2016-10-15T09:48:34Z</time></trkpt>
<trkpt lat="53.1094810000" lon="-4.1575660000"><ele>469</ele><time>2016-10-15T09:48:35Z</time></trkpt>
<trkpt lat="53.1094720000" lon="-4.1575680000"><ele>469</ele><time>2016-10-15T09:48:36Z</time></trkpt>
<trkpt lat="53.1094630000" lon="-4.1575690000"><ele>470</ele><time>2016-10-15T09:48:37Z</time></trkpt>
<trkpt lat="53.1094540000" lon="-4.1575710000"><ele>470</ele><time>2016-10-15T09:48:38Z</time></trkpt>
<trkpt lat="53.1094440000" lon="-4.1575730000"><ele>470</ele><time>2016-10-15T09:48:39Z</time></trkpt>
<trkpt lat="53.1094260000" lon="-4.1575770000"><ele>470</ele><time>2016-10-15T09:48:42Z</time></trkpt>
<trkpt lat="53.1092850000" lon="-4.1576060000"><ele>470</ele></trkpt>
<trkpt lat="53.1092760000" lon="-4.1576070000"><ele>471</ele><time>2016-10-15T09:48:43Z</time></trkpt>
<trkpt lat="53.1092650000" lon="-4.1576060000"><ele>471</ele><time>2016-10-15T09:48:44Z</time></trkpt>
<trkpt lat="53.1092650000" lon="-4.1576060000"><ele>471</ele><time>2016-10-15T09:48:45Z</time></trkpt>
<trkpt lat="53.1092650000" lon="-4.1576060000"><ele>471</ele><time>2016-10-15T09:48:46Z</time></trkpt>
<trkpt lat="53.1092650000" lon="-4.1576060000"><ele>471</ele><time>2016-10-15T09:48:47Z</time></trkpt>
<trkpt lat="53.1092640000" lon="-4.1576060000"><ele>471</ele><time>2016-10-15T09:48:48Z</time></trkpt>
<trkpt lat="53.1092630000" lon="-4.1576060000"><ele>472</ele><time>2016-10-15T09:48:49Z</time></trkpt>
<trkpt lat="53.1092620000" lon="-4.1576060000"><ele>472</ele><time>2016-10-15T09:48:50Z</time></trkpt>
<trkpt lat="53.1092600000" lon="-4.1576060000"><ele>472</ele><time>2016-10-15T09:48:51Z</time></trkpt>
<trkpt lat="53.1092580000" lon="-4.1576060000"><ele>472</ele><time>2016-10-15T09:48:52Z</time></trkpt>
<trkpt lat="53.1092550000" lon="-4.1576060000"><ele>472</ele><time>2016-10-15T09:48:53Z</time></trkpt>
<trkpt lat="53.1092530000" lon="-4.1576060000"><ele>473</ele><time>2016-10-15T09:48:54Z</time></trkpt>
<trkpt lat="53.1092490000" lon="-4.1576060000"><ele>473</ele><time>2016-10-15T09:48:55Z</time></trkpt>
<trkpt lat="53.1092450000" lon="-4.1576050000"><ele>473</ele><time>2016-10-15T09:48:56Z</time></trkpt>
<trkpt lat="53.1092410000" lon="-4.1576050000"><ele>473</ele><time>2016-10-15T09:48:57Z</time></trkpt>
<trkpt lat="53.1092370000" lon="-4.1576050000"><ele>474</ele><time>2016-10-15T09:48:58Z</time></trkpt>
<trkpt lat="53.1092320000" lon="-4.1576040000"><ele>474</ele><time>2016-10-15T09:48:59Z</time></trkpt>
<trkpt lat="53.1092270000" lon="-4.1576040000"><ele>474</ele><time>2016-10-15T09:49:00Z</time></trkpt>
<trkpt lat="53.1092210000" lon="-4.1576040000"><ele>474</ele><time>2016-10-15T09:49:01Z</time></trkpt>
<trkpt lat="53.1092150000" lon="-4.1576040000"><ele>474</ele><time>2016-10-15T09:49:02Z</time></trkpt>
<trkpt lat="53.1092090000" lon="-4.1576040000"><ele>475</ele><time>2016-10-15T09:49:03Z</time></trkpt>
<trkpt lat="53.1092020000" lon="-4.1576040000"><ele>475</ele><time>2016-10-15T09:49:04Z</time></trkpt>
<trkpt lat="53.1091960000" lon="-4.1576050000"><ele>475</ele><time>2016-10-15T09:49:05Z</time></trkpt>
<trkpt lat="53.1091890000" lon="-4.1576050000"><ele>475</ele><time>2016-10-15T09:49:06Z</time></trkpt>
<trkpt lat="53.1091820000" lon="-4.1576060000"><ele>475</ele><time>2016-10-15T09:49:07Z</time></trkpt>
<trkpt lat="53.1091740000" lon="-4.1576070000"><ele>475</ele><time>2016-10-15T09:49:08Z</time></trkpt>
<trkpt lat="53.1091670000" lon="-4.1576080000"><ele>476</ele><time>2016-10-15T09:49:09Z</time></trkpt>
<trkpt lat="53.1091600000" lon="-4.1576090000"><ele>476</ele><time>2016-10-15T09:49:10Z</time></trkpt>
<trkpt lat="53.1091530000" lon="-4.1576110000"><ele>476</ele><time>2016-10-15T09:49:11Z</time></trkpt>
<trkpt lat="53.1091450000" lon="-4.1576120000"><ele>476</ele><time>2016-10-15T09:49:12Z</time></trkpt>
<trkpt lat="53.1091380000" lon="-4.1576130000"><ele>476</ele><time>2016-10-15T09:49:13Z</time></trkpt>
<trkpt lat="53.1091300000" lon="-4.1576140000"><ele>476</ele><time>2016-10-15T09:49:14Z</time></trkpt>
<trkpt lat="53.1091220000" lon="-4.1576150000"><ele>476</ele><time>2016-10-15T09:49:15Z</time></trkpt>
<trkpt lat="53.1091150000" lon="-4.1576160000"><ele>476</ele><time>2016-10-15T09:49:16Z</time></trkpt>
<trkpt lat="53.1091070000" lon="-4.1576170000"><ele>476</ele><time>2016-10-15T09:49:17Z</time></trkpt>
<trkpt lat="53.1090990000" lon="-4.1576170000"><ele>477</ele><time>2016-10-15T09:49:18Z</time></trkpt>
<trkpt lat="53.1090910000" lon="-4.1576170000"><ele>477</ele><time>2016-10-15T09:49:19Z</time></trkpt>
<trkpt lat="53.1090840000" lon="-4.1576180000"><ele>477</ele><time>2016-10-15T09:49:20Z</time></trkpt>
<trkpt lat="53.1090760000" lon="-4.1576180000"><ele>477</ele><time>2016-10-15T09:49:21Z</time></trkpt>
<trkpt lat="53.1090690000" lon="-4.1576180000"><ele>478</ele><time>2016-10-15T09:49:22Z</time></trkpt>
<trkpt lat="53.1090610000" lon="-4.1576180000"><ele>478</ele><time>2016-10-15T09:49:23Z</time></trkpt>
<trkpt lat="53.1090530000" lon="-4.1576180000"><ele>478</ele><time>2016-10-15T09:49:24Z</time></trkpt>
<trkpt lat="53.1090460000" lon="-4.1576170000"><ele>478</ele><time>2016-10-15T09:49:25Z</time></trkpt>
<trkpt lat="53.1090380000" lon="-4.1576170000"><ele>479</ele><time>2016-10-15T09:49:26Z</time></trkpt>
<trkpt lat="53.1090300000" lon="-4.1576170000"><ele>479</ele><time>2016-10-15T09:49:27Z</time></trkpt>
<trkpt lat="53.1090230000" lon="-4.1576170000"><ele>479</ele><time>2016-10-15T09:49:28Z</time></trkpt>
<trkpt lat="53.1090190000" lon="-4.1576170000"><ele>479</ele><time>2016-10-15T09:49:29Z</time></trkpt>
<trkpt lat="53.1090110000" lon="-4.1576170000"><ele>480</ele><time>2016-10-15T09:49:30Z</time></trkpt>
<trkpt lat="53.1090030000" lon="-4.1576170000"><ele>480</ele><time>2016-10-15T09:49:31Z</time></trkpt>
<trkpt lat="53.1089950000" lon="-4.1576180000"><ele>480</ele><time>2016-10-15T09:49:32Z</time></trkpt>
<trkpt lat="53.1089870000" lon="-4.1576180000"><ele>480</ele><time>2016-10-15T09:49:33Z</time></trkpt>
<trkpt lat="53.1089780000" lon="-4.1576190000"><ele>481</ele><time>2016-10-15T09:49:34Z</time></trkpt>
<trkpt lat="53.1089700000" lon="-4.1576200000"><ele>481</ele><time>2016-10-15T09:49:35Z</time></trkpt>
<trkpt lat="53.1089620000" lon="-4.1576210000"><ele>481</ele><time>2016-10-15T09:49:36Z</time></trkpt>
<trkpt lat="53.1089540000" lon="-4.1576220000"><ele>481</ele><time>2016-10-15T09:49:37Z</time></trkpt>
<trkpt lat="53.1089460000" lon="-4.1576220000"><ele>482</ele><time>2016-10-15T09:49:38Z</time></trkpt>
<trkpt lat="53.1089370000" lon="-4.1576230000"><ele>482</ele><time>2016-10-15T09:49:39Z</time></trkpt>
<trkpt lat="53.1089210000" lon="-4.1576230000"><ele>482</ele><time>2016-10-15T09:49:42Z</time></trkpt>
<trkpt lat="53.1089130000" lon="-4.1576230000"><ele>482</ele></trkpt>
<trkpt lat="53.1089040000" lon="-4.1576230000"><ele>483</ele><time>2016-10-15T09:49:43Z</time></trkpt>
<trkpt lat="53.1088960000" lon="-4.1576230000"><ele>483</ele><time>2016-10-15T09:49:44Z</time></trkpt>
<trkpt lat="53.1088870000" lon="-4.1576230000"><ele>483</ele><time>2016-10-15T09:49:45Z</time></trkpt>
<trkpt lat="53.1088790000" lon="-4.1576230000"><ele>483</ele><time>2016-10-15T09:49:46Z</time></trkpt>
<trkpt lat="53.1088700000" lon="-4.1576230000"><ele>483</ele><time>2016-10-15T09:49:47Z</time></trkpt>
<trkpt lat="53.1088610000" lon="-4.1576220000"><ele>484</ele><time>2016-10-15T09:49:48Z</time></trkpt>
<trkpt lat="53.1088520000" lon="-4.1576220000"><ele>484</ele><time>2016-10-15T09:49:49Z</time></trkpt>
<trkpt lat="53.1088440000" lon="-4.1576220000"><ele>484</ele><time>2016-10-15T09:49:50Z</time></trkpt>
<trkpt lat="53.1088350000" lon="-4.1576210000"><ele>484</ele><time>2016-10-15T09:49:51Z</time></trkpt>
<trkpt lat="53.1088260000" lon="-4.1576190000"><ele>484</ele><time>2016-10-15T09:49:52Z</time></trkpt>
<trkpt lat="53.1088180000" lon="-4.1576180000"><ele>484</ele><time>2016-10-15T09:49:53Z</time></trkpt>
<trkpt lat="53.1088090000" lon="-4.1576160000"><ele>485</ele><time>2016-10-15T09:49:54Z</time></trkpt>
<trkpt lat="53.1088010000" lon="-4.1576150000"><ele>485</ele><time>2016-10-15T09:49:55Z</time></trkpt>
<trkpt lat="53.1087920000" lon="-4.1576130000"><ele>485</ele><time>2016-10-15T09:49:56Z</time></trkpt>
<trkpt lat="53.1087840000" lon="-4.1576110000"><ele>485</ele><time>2016-10-15T09:49:57Z</time></trkpt>
<trkpt lat="53.1087750000" lon="-4.1576100000"><ele>485</ele><time>2016-10-15T09:49:58Z</time></trkpt>
<trkpt lat="53.1087670000" lon="-4.1576080000"><ele>486</ele><time>2016-10-15T09:49:59Z</time></trkpt>
<trkpt lat="53.1087580000" lon="-4.1576060000"><ele>486</ele><time>2016-10-15T09:50:00Z</time></trkpt>
<trkpt lat="53.1087490000" lon="-4.1576040000"><ele>486</ele><time>2016-10-15T09:50:01Z</time></trkpt>
<trkpt lat="53.1087410000" lon="-4.1576010000"><ele>486</ele><time>2016-10-15T09:50:02Z</time></trkpt>
<trkpt lat="53.1087320000" lon="-4.1575990000"><ele>486</ele><time>2016-10-15T09:50:03Z</time></trkpt>
<trkpt lat="53.1087230000" lon="-4.1575970000"><ele>486</ele><time>2016-10-15T09:50:04Z</time></trkpt>
<trkpt lat="53.1087150000" lon="-4.1575950000"><ele>487</ele><time>2016-10-15T09:50:05Z</time></trkpt>
<trkpt lat="53.1087070000" lon="-4.1575930000"><ele>487</ele><time>2016-10-15T09:50:06Z</time></trkpt>
<trkpt lat="53.1086980000" lon="-4.1575910000"><ele>487</ele><time>2016-10-15T09:50:07Z</time></trkpt>
<trkpt lat="53.1086900000" lon="-4.1575880000"><ele>487</ele><time>2016-10-15T09:50:08Z</time></trkpt>
<trkpt lat="53.1086820000" lon="-4.1575860000"><ele>487</ele><time>2016-10-15T09:50:09Z</time></trkpt>
<trkpt lat="53.1086730000" lon="-4.1575840000"><ele>488</ele><time>2016-10-15T09:50:10Z</time></trkpt>
<trkpt lat="53.1086650000" lon="-4.1575820000"><ele>488</ele><time>2016-10-15T09:50:11Z</time></trkpt>
<trkpt lat="53.1086570000" lon="-4.1575810000"><ele>488</ele><time>2016-10-15T09:50:12Z</time></trkpt>
<trkpt lat="53.1086480000" lon="-4.1575790000"><ele>488</ele><time>2016-10-15T09:50:13Z</time></trkpt>
<trkpt lat="53.1086400000" lon="-4.1575770000"><ele>488</ele><time>2016-10-15T09:50:14Z</time></trkpt>
<trkpt lat="53.1086310000" lon="-4.1575760000"><ele>489</ele><time>2016-10-15T09:50:15Z</time></trkpt>
<trkpt lat="53.1086230000" lon="-4.1575750000"><ele>489</ele><time>2016-10-15T09:50:16Z</time></trkpt>
<trkpt lat="53.1086140000" lon="-4.1575750000"><ele>489</ele><time>2016-10-15T09:50:17Z</time></trkpt>
<trkpt lat="53.1086060000" lon="-4.1575750000"><ele>489</ele><time>2016-10-15T09:50:18Z</time></trkpt>
<trkpt lat="53.1085970000" lon="-4.1575740000"><ele>490</ele><time>2016-10-15T09:50:19Z</time></trkpt>
<trkpt lat="53.1085880000" lon="-4.1575740000"><ele>490</ele><time>2016-10-15T09:50:20Z</time></trkpt>
<trkpt lat="53.1085790000" lon="-4.1575730000"><ele>490</ele><time>2016-10-15T09:50:21Z</time></trkpt>
<trkpt lat="53.1085700000" lon="-4.1575730000"><ele>490</ele><time>2016-10-15T09:50:22Z</time></trkpt>
<trkpt lat="53.1085610000" lon="-4.1575730000"><ele>490</ele><time>2016-10-15T09:50:23Z</time></trkpt>
<trkpt lat="53.1085520000" lon="-4.1575730000"><ele>490</ele><time>2016-10-15T09:50:24Z</time></trkpt>
<trkpt lat="53.1085430000" lon="-4.1575730000"><ele>491</ele><time>2016-10-15T09:50:25Z</time></trkpt>
<trkpt lat="53.1085330000" lon="-4.1575730000"><ele>491</ele><time>2016-10-15T09:50:26Z</time></trkpt>
<trkpt lat="53.1085240000" lon="-4.1575730000"><ele>491</ele><time>2016-10-15T09:50:27Z</time></trkpt>
<trkpt lat="53.1085150000" lon="-4.1575730000"><ele>491</ele><time>2016-10-15T09:50:28Z</time></trkpt>
<trkpt lat="53.1085060000" lon="-4.1575730000"><ele>491</ele><time>2016-10-15T09:50:29Z</time></trkpt>
<trkpt lat="53.1084960000" lon="-4.1575740000"><ele>491</ele><time>2016-10-15T09:50:30Z</time></trkpt>
<trkpt lat="53.1084870000" lon="-4.1575750000"><ele>492</ele><time>2016-10-15T09:50:31Z</time></trkpt>
<trkpt lat="53.1083430000" lon="-4.1575970000"><ele>492</ele><time>2016-10-15T09:50:32Z</time></trkpt>
<trkpt lat="53.1083330000" lon="-4.1576010000"><ele>492</ele><time>2016-10-15T09:50:33Z</time></trkpt>
<trkpt lat="53.1083240000" lon="-4.1576010000"><ele>492</ele><time>2016-10-15T09:50:34Z</time></trkpt>
<trkpt lat="53.1083240000" lon="-4.1576010000"><ele>492</ele><time>2016-10-15T09:50:35Z</time></trkpt>
<trkpt lat="53.1083240000" lon="-4.1576010000"><ele>492</ele><time>2016-10-15T09:50:36Z</time></trkpt>
<trkpt lat="53.1083230000" lon="-4.1576020000"><ele>493</ele><time>2016-10-15T09:50:37Z</time></trkpt>
<trkpt lat="53.1083220000" lon="-4.1576020000"><ele>493</ele><time>2016-10-15T09:50:38Z</time></trkpt>
<trkpt lat="53.1083210000" lon="-4.1576020000"><ele>493</ele><time>2016-10-15T09:50:39Z</time></trkpt>
<trkpt lat="53.1083170000" lon="-4.1576040000"><ele>493</ele><time>2016-10-15T09:50:42Z</time></trkpt>
<trkpt lat="53.1083150000" lon="-4.1576040000"><ele>493</ele></trkpt>
<trkpt lat="53.1083110000" lon="-4.1576050000"><ele>493</ele><time>2016-10-15T09:50:43Z</time></trkpt>
<trkpt lat="53.1083080000" lon="-4.1576060000"><ele>494</ele><time>2016-10-15T09:50:44Z</time></trkpt>
<trkpt lat="53.1083040000" lon="-4.1576070000"><ele>494</ele><time>2016-10-15T09:50:45Z</time></trkpt>
<trkpt lat="53.1083000000" lon="-4.1576080000"><ele>494</ele><time>2016-10-15T09:50:46Z</time></trkpt>
<trkpt lat="53.1082950000" lon="-4.1576090000"><ele>494</ele><time>2016-10-15T09:50:47Z</time></trkpt>
<trkpt lat="53.1082890000" lon="-4.1576100000"><ele>494</ele><time>2016-10-15T09:50:48Z</time></trkpt>
<trkpt lat="53.1082840000" lon="-4.1576110000"><ele>495</ele><time>2016-10-15T09:50:49Z</time></trkpt>
<trkpt lat="53.1082780000" lon="-4.1576120000"><ele>495</ele><time>2016-10-15T09:50:50Z</time></trkpt>
<trkpt lat="53.1082720000" lon="-4.1576130000"><ele>495</ele><time>2016-10-15T09:50:51Z</time></trkpt>
<trkpt lat="53.1082650000" lon="-4.1576140000"><ele>495</ele><time>2016-10-15T09:50:52Z</time></trkpt>
<trkpt lat="53.1082580000" lon="-4.1576150000"><ele>495</ele><time>2016-10-15T09:50:53Z</time></trkpt>
<trkpt lat="53.1082510000" lon="-4.1576150000"><ele>496</ele><time>2016-10-15T09:50:54Z</time></trkpt>
<trkpt lat="53.1082440000" lon="-4.1576160000"><ele>496</ele><time>2016-10-15T09:50:55Z</time></trkpt>
<trkpt lat="53.1082370000" lon="-4.1576170000"><ele>496</ele><time>2016-10-15T09:50:56Z</time></trkpt>
<trkpt lat="53.1082290000" lon="-4.1576170000"><ele>496</ele><time>2016-10-15T09:50:57Z</time></trkpt>
<trkpt lat="53.1082210000" lon="-4.1576180000"><ele>496</ele><time>2016-10-15T09:50:58Z</time></trkpt>
<trkpt lat="53.1082120000" lon="-4.1576190000"><ele>497</ele><time>2016-10-15T09:50:59Z</time></trkpt>
<trkpt lat="53.1082040000" lon="-4.1576190000"><ele>497</ele><time>2016-10-15T09:51:00Z</time></trkpt>
<trkpt lat="53.1081950000" lon="-4.1576210000"><ele>497</ele><time>2016-10-15T09:51:01Z</time></trkpt>
<trkpt lat="53.1081860000" lon="-4.1576220000"><ele>497</ele><time>2016-10-15T09:51:02Z</time></trkpt>
<trkpt lat="53.1081770000" lon="-4.1576240000"><ele>497</ele><time>2016-10-15T09:51:03Z</time></trkpt>
<trkpt lat="53.1081680000" lon="-4.1576250000"><ele>498</ele><time>2016-10-15T09:51:04Z</time></trkpt>
<trkpt lat="53.1081590000" lon="-4.1576270000"><ele>498</ele><time>2016-10-15T09:51:05Z</time></trkpt>
<trkpt lat="53.1081500000" lon="-4.1576300000"><ele>498</ele><time>2016-10-15T09:51:06Z</time></trkpt>
<trkpt lat="53.1080090000" lon="-4.1576700000"><ele>498</ele><time>2016-10-15T09:51:07Z</time></trkpt>
<trkpt lat="53.1080000000" lon="-4.1576770000"><ele>498</ele><time>2016-10-15T09:51:08Z</time></trkpt>
<trkpt lat="53.1079920000" lon="-4.1576830000"><ele>498</ele><time>2016-10-15T09:51:09Z</time></trkpt>
<trkpt lat="53.1079910000" lon="-4.1576830000"><ele>499</ele><time>2016-10-15T09:51:10Z</time></trkpt>
<trkpt lat="53.1079910000" lon="-4.1576830000"><ele>499</ele><time>2016-10-15T09:51:11Z</time></trkpt>
<trkpt lat="53.1079910000" lon="-4.1576830000"><ele>499</ele><time>2016-10-15T09:51:12Z</time></trkpt>
<trkpt lat="53.1079900000" lon="-4.1576830000"><ele>499</ele><time>2016-10-15T09:51:13Z</time></trkpt>
<trkpt lat="53.1079890000" lon="-4.1576830000"><ele>499</ele><time>2016-10-15T09:51:14Z</time></trkpt>
<trkpt lat="53.1079870000" lon="-4.1576830000"><ele>500</ele><time>2016-10-15T09:51:15Z</time></trkpt>
<trkpt lat="53.1079860000" lon="-4.1576830000"><ele>500</ele><time>2016-10-15T09:51:16Z</time></trkpt>
<trkpt lat="53.1079830000" lon="-4.1576820000"><ele>500</ele><time>2016-10-15T09:51:17Z</time></trkpt>
<trkpt lat="53.1079810000" lon="-4.1576810000"><ele>500</ele><time>2016-10-15T09:51:18Z</time></trkpt>
<trkpt lat="53.1079780000" lon="-4.1576800000"><ele>500</ele><time>2016-10-15T09:51:19Z</time></trkpt>
<trkpt lat="53.1079750000" lon="-4.1576790000"><ele>500</ele><time>2016-10-15T09:51:20Z</time></trkpt>
<trkpt lat="53.1079710000" lon="-4.1576780000"><ele>501</ele><time>2016-10-15T09:51:21Z</time></trkpt>
<trkpt lat="53.1079670000" lon="-4.1576770000"><ele>501</ele><time>2016-10-15T09:51:22Z</time></trkpt>
<trkpt lat="53.1079620000" lon="-4.1576770000"><ele>501</ele><time>2016-10-15T09:51:23Z</time></trkpt>
<trkpt lat="53.1079570000" lon="-4.1576760000"><ele>501</ele><time>2016-10-15T09:51:24Z</time></trkpt>
<trkpt lat="53.1079520000" lon="-4.1576760000"><ele>501</ele><time>2016-10-15T09:51:25Z</time></trkpt>
<trkpt lat="53.1079460000" lon="-4.1576760000"><ele>501</ele><time>2016-10-15T09:51:26Z</time></trkpt>
<trkpt lat="53.1079400000" lon="-4.1576760000"><ele>502</ele><time>2016-10-15T09:51:27Z</time></trkpt>
<trkpt lat="53.1079340000" lon="-4.1576760000"><ele>502</ele><time>2016-10-15T09:51:28Z</time></trkpt>
<trkpt lat="53.1079270000" lon="-4.1576760000"><ele>502</ele><time>2016-10-15T09:51:29Z</time></trkpt>
<trkpt lat="53.1079200000" lon="-4.1576750000"><ele>502</ele><time>2016-10-15T09:51:30Z</time></trkpt>
<trkpt lat="53.1079140000" lon="-4.1576750000"><ele>502</ele><time>2016-10-15T09:51:31Z</time></trkpt>
<trkpt lat="53.1079070000" lon="-4.1576740000"><ele>503</ele><time>2016-10-15T09:51:32Z</time></trkpt>
<trkpt lat="53.1078990000" lon="-4.1576730000"><ele>503</ele><time>2016-10-15T09:51:33Z</time></trkpt>
<trkpt lat="53.1078920000" lon="-4.1576720000"><ele>503</ele><time>2016-10-15T09:51:34Z</time></trkpt>
<trkpt lat="53.1078850000" lon="-4.1576710000"><ele>503</ele><time>2016-10-15T09:51:35Z</time></trkpt>
<trkpt lat="53.1078770000" lon="-4.1576700000"><ele>504</ele><time>2016-10-15T09:51:36Z</time></trkpt>
<trkpt lat="53.1078690000" lon="-4.1576700000"><ele>504</ele><time>2016-10-15T09:51:37Z</time></trkpt>
<trkpt lat="53.1078620000" lon="-4.1576690000"><ele>504</ele><time>2016-10-15T09:51:38Z</time></trkpt>
<trkpt lat="53.1078540000" lon="-4.1576690000"><ele>504</ele><time>2016-10-15T09:51:39Z</time></trkpt>
<trkpt lat="53.1078380000" lon="-4.1576700000"><ele>505</ele><time>2016-10-15T09:51:42Z</time></trkpt>
<trkpt lat="53.1078290000" lon="-4.1576710000"><ele>505</ele></trkpt>
<trkpt lat="53.1078210000" lon="-4.1576720000"><ele>505</ele><time>2016-10-15T09:51:43Z</time></trkpt>
<trkpt lat="53.1078130000" lon="-4.1576740000"><ele>505</ele><time>2016-10-15T09:51:44Z</time></trkpt>
<trkpt lat="53.1078050000" lon="-4.1576760000"><ele>505</ele><time>2016-10-15T09:51:45Z</time></trkpt>
<trkpt lat="53.1077960000" lon="-4.1576770000"><ele>506</ele><time>2016-10-15T09:51:46Z</time></trkpt>
<trkpt lat="53.1077880000" lon="-4.1576790000"><ele>506</ele><time>2016-10-15T09:51:47Z</time></trkpt>
<trkpt lat="53.1077800000" lon="-4.1576810000"><ele>506</ele><time>2016-10-15T09:51:48Z</time></trkpt>
<trkpt lat="53.1077710000" lon="-4.1576820000"><ele>506</ele><time>2016-10-15T09:51:49Z</time></trkpt>
<trkpt lat="53.1077630000" lon="-4.1576840000"><ele>506</ele><time>2016-10-15T09:51:50Z</time></trkpt>
<trkpt lat="53.1077540000" lon="-4.1576850000"><ele>506</ele><time>2016-10-15T09:51:51Z</time></trkpt>
<trkpt lat="53.1077460000" lon="-4.1576860000"><ele>507</ele><time>2016-10-15T09:51:52Z</time></trkpt>
<trkpt lat="53.1077370000" lon="-4.1576870000"><ele>507</ele><time>2016-10-15T09:51:53Z</time></trkpt>
<trkpt lat="53.1077280000" lon="-4.1576870000"><ele>507</ele><time>2016-10-15T09:51:54Z</time></trkpt>
<trkpt lat="53.1077200000" lon="-4.1576880000"><ele>507</ele><time>2016-10-15T09:51:55Z</time></trkpt>
<trkpt lat="53.1077110000" lon="-4.1576880000"><ele>507</ele><time>2016-10-15T09:51:56Z</time></trkpt>
<trkpt lat="53.1077020000" lon="-4.1576870000"><ele>507</ele><time>2016-10-15T09:51:57Z</time></trkpt>
<trkpt lat="53.1076930000" lon="-4.1576860000"><ele>507</ele><time>2016-10-15T09:51:58Z</time></trkpt>
<trkpt lat="53.1076840000" lon="-4.1576860000"><ele>508</ele><time>2016-10-15T09:51:59Z</time></trkpt>
<trkpt lat="53.1076740000" lon="-4.1576850000"><ele>508</ele><time>2016-10-15T09:52:00Z</time></trkpt>
<trkpt lat="53.1075260000" lon="-4.1576690000"><ele>508</ele><time>2016-10-15T09:52:01Z</time></trkpt>
<trkpt lat="53.1075150000" lon="-4.1576660000"><ele>508</ele><time>2016-10-15T09:52:02Z</time></trkpt>
<trkpt lat="53.1075050000" lon="-4.1576620000"><ele>508</ele><time>2016-10-15T09:52:03Z</time></trkpt>
<trkpt lat="53.1075040000" lon="-4.1576620000"><ele>508</ele><time>2016-10-15T09:52:04Z</time></trkpt>
<trkpt lat="53.1075040000" lon="-4.1576620000"><ele>508</ele><time>2016-10-15T09:52:05Z</time></trkpt>
<trkpt lat="53.1075040000" lon="-4.1576620000"><ele>509</ele><time>2016-10-15T09:52:06Z</time></trkpt>
<trkpt lat="53.1075030000" lon="-4.1576610000"><ele>509</ele><time>2016-10-15T09:52:07Z</time></trkpt>
<trkpt lat="53.1075020000" lon="-4.1576610000"><ele>509</ele><time>2016-10-15T09:52:08Z</time></trkpt>
<trkpt lat="53.1075000000" lon="-4.1576610000"><ele>509</ele><time>2016-10-15T09:52:09Z</time></trkpt>
<trkpt lat="53.1074980000" lon="-4.1576600000"><ele>509</ele><time>2016-10-15T09:52:10Z</time></trkpt>
<trkpt lat="53.1074960000" lon="-4.1576600000"><ele>509</ele><time>2016-10-15T09:52:11Z</time></trkpt>
<trkpt lat="53.1074930000" lon="-4.1576590000"><ele>510</ele><time>2016-10-15T09:52:12Z</time></trkpt>
<trkpt lat="53.1074890000" lon="-4.1576580000"><ele>510</ele><time>2016-10-15T09:52:13Z</time></trkpt>
<trkpt lat="53.1074860000" lon="-4.1576580000"><ele>510</ele><time>2016-10-15T09:52:14Z</time></trkpt>
<trkpt lat="53.1074810000" lon="-4.1576570000"><ele>510</ele><time>2016-10-15T09:52:15Z</time></trkpt>
<trkpt lat="53.1074770000" lon="-4.1576560000"><ele>511</ele><time>2016-10-15T09:52:16Z</time></trkpt>
<trkpt lat="53.1074710000" lon="-4.1576540000"><ele>511</ele><time>2016-10-15T09:52:17Z</time></trkpt>
<trkpt lat="53.1074660000" lon="-4.1576530000"><ele>511</ele><time>2016-10-15T09:52:18Z</time></trkpt>
<trkpt lat="53.1074590000" lon="-4.1576510000"><ele>511</ele><time>2016-10-15T09:52:19Z</time></trkpt>
<trkpt lat="53.1074520000" lon="-4.1576490000"><ele>511</ele><time>2016-10-15T09:52:20Z</time></trkpt>
<trkpt lat="53.1074450000" lon="-4.1576470000"><ele>512</ele><time>2016-10-15T09:52:21Z</time></trkpt>
<trkpt lat="53.1073090000" lon="-4.1576010000"><ele>512</ele><time>2016-10-15T09:52:22Z</time></trkpt>
<trkpt lat="53.1072970000" lon="-4.1575930000"><ele>512</ele><time>2016-10-15T09:52:23Z</time></trkpt>
<trkpt lat="53.1072860000" lon="-4.1575860000"><ele>512</ele><time>2016-10-15T09:52:24Z</time></trkpt>
<trkpt lat="53.1072750000" lon="-4.1575770000"><ele>512</ele><time>2016-10-15T09:52:25Z</time></trkpt>
<trkpt lat="53.1072630000" lon="-4.1575690000"><ele>512</ele><time>2016-10-15T09:52:26Z</time></trkpt>
<trkpt lat="53.1072520000" lon="-4.1575630000"><ele>512</ele><time>2016-10-15T09:52:27Z</time></trkpt>
<trkpt lat="53.1072410000" lon="-4.1575560000"><ele>513</ele><time>2016-10-15T09:52:28Z</time></trkpt>
<trkpt lat="53.1072300000" lon="-4.1575450000"><ele>513</ele><time>2016-10-15T09:52:29Z</time></trkpt>
<trkpt lat="53.1072210000" lon="-4.1575350000"><ele>513</ele><time>2016-10-15T09:52:30Z</time></trkpt>
<trkpt lat="53.1072120000" lon="-4.1575260000"><ele>513</ele><time>2016-10-15T09:52:31Z</time></trkpt>
<trkpt lat="53.1071990000" lon="-4.1575190000"><ele>513</ele><time>2016-10-15T09:52:32Z</time></trkpt>
<trkpt lat="53.1071860000" lon="-4.1575120000"><ele>513</ele><time>2016-10-15T09:52:33Z</time></trkpt>
<trkpt lat="53.1071730000" lon="-4.1575050000"><ele>513</ele><time>2016-10-15T09:52:34Z</time></trkpt>
<trkpt lat="53.1071620000" lon="-4.1574990000"><ele>513</ele><time>2016-10-15T09:52:35Z</time></trkpt>
<trkpt lat="53.1071500000" lon="-4.1574930000"><ele>513</ele><time>2016-10-15T09:52:36Z</time></trkpt>
<trkpt lat="53.1071400000" lon="-4.1574890000"><ele>513</ele><time>2016-10-15T09:52:37Z</time></trkpt>
<trkpt lat="53.1071300000" lon="-4.1574840000"><ele>513</ele><time>2016-10-15T09:52:38Z</time></trkpt>
<trkpt lat="53.1071200000" lon="-4.1574810000"><ele>513</ele><time>2016-10-15T09:52:39Z</time></trkpt>
<trkpt lat="53.1071010000" lon="-4.1574750000"><ele>513</ele><time>2016-10-15T09:52:42Z</time></trkpt>
<trkpt lat="53.1071000000" lon="-4.1574750000"><ele>513</ele></trkpt>
<trkpt lat="53.1071000000" lon="-4.1574750000"><ele>513</ele><time>2016-10-15T09:52:43Z</time></trkpt>
<trkpt lat="53.1071000000" lon="-4.1574750000"><ele>513</ele><time>2016-10-15T09:52:44Z</time></trkpt>
<trkpt lat="53.1070990000" lon="-4.1574740000"><ele>513</ele><time>2016-10-15T09:52:45Z</time></trkpt>
<trkpt lat="53.1070980000" lon="-4.1574740000"><ele>513</ele><time>2016-10-15T09:52:46Z</time></trkpt>
<trkpt lat="53.1070960000" lon="-4.1574730000"><ele>514</ele><time>2016-10-15T09:52:47Z</time></trkpt>
<trkpt lat="53.1070940000" lon="-4.1574730000"><ele>514</ele><time>2016-10-15T09:52:48Z</time></trkpt>
<trkpt lat="53.1070920000" lon="-4.1574720000"><ele>514</ele><time>2016-10-15T09:52:49Z</time></trkpt>
<trkpt lat="53.1070890000" lon="-4.1574710000"><ele>514</ele><time>2016-10-15T09:52:50Z</time></trkpt>
<trkpt lat="53.1070850000" lon="-4.1574700000"><ele>514</ele><time>2016-10-15T09:52:51Z</time></trkpt>
<trkpt lat="53.1070810000" lon="-4.1574690000"><ele>515</ele><time>2016-10-15T09:52:52Z</time></trkpt>
<trkpt lat="53.1070770000" lon="-4.1574670000"><ele>515</ele><time>2016-10-15T09:52:53Z</time></trkpt>
<trkpt lat="53.1070720000" lon="-4.1574660000"><ele>515</ele><time>2016-10-15T09:52:54Z</time></trkpt>
<trkpt lat="53.1070660000" lon="-4.1574640000"><ele>515</ele><time>2016-10-15T09:52:55Z</time></trkpt>
<trkpt lat="53.1070610000" lon="-4.1574620000"><ele>515</ele><time>2016-10-15T09:52:56Z</time></trkpt>
<trkpt lat="53.1070550000" lon="-4.1574600000"><ele>516</ele><time>2016-10-15T09:52:57Z</time></trkpt>
<trkpt lat="53.1070480000" lon="-4.1574580000"><ele>516</ele><time>2016-10-15T09:52:58Z</time></trkpt>
<trkpt lat="53.1070410000" lon="-4.1574550000"><ele>516</ele><time>2016-10-15T09:52:59Z</time></trkpt>
<trkpt lat="53.1070340000" lon="-4.1574530000"><ele>516</ele><time>2016-10-15T09:53:00Z</time></trkpt>
<trkpt lat="53.1070260000" lon="-4.1574500000"><ele>516</ele><time>2016-10-15T09:53:01Z</time></trkpt>
<trkpt lat="53.1070180000" lon="-4.1574470000"><ele>517</ele><time>2016-10-15T09:53:02Z</time></trkpt>
<trkpt lat="53.1070100000" lon="-4.1574440000"><ele>517</ele><time>2016-10-15T09:53:03Z</time></trkpt>
<trkpt lat="53.1070020000" lon="-4.1574410000"><ele>517</ele><time>2016-10-15T09:53:04Z</time></trkpt>
<trkpt lat="53.1069930000" lon="-4.1574370000"><ele>517</ele><time>2016-10-15T09:53:05Z</time></trkpt>
<trkpt lat="53.1069840000" lon="-4.1574340000"><ele>517</ele><time>2016-10-15T09:53:06Z</time></trkpt>
<trkpt lat="53.1069750000" lon="-4.1574300000"><ele>517</ele><time>2016-10-15T09:53:07Z</time></trkpt>
<trkpt lat="53.1069660000" lon="-4.1574260000"><ele>517</ele><time>2016-10-15T09:53:08Z</time></trkpt>
<trkpt lat="53.1069560000" lon="-4.1574220000"><ele>517</ele><time>2016-10-15T09:53:09Z</time></trkpt>
<trkpt lat="53.1069470000" lon="-4.1574180000"><ele>518</ele><time>2016-10-15T09:53:10Z</time></trkpt>
<trkpt lat="53.1067850000" lon="-4.1573550000"><ele>518</ele><time>2016-10-15T09:53:11Z</time></trkpt>
<trkpt lat="53.1067740000" lon="-4.1573520000"><ele>518</ele><time>2016-10-15T09:53:12Z</time></trkpt>
<trkpt lat="53.1067640000" lon="-4.1573470000"><ele>518</ele><time>2016-10-15T09:53:13Z</time></trkpt>
<trkpt lat="53.1067530000" lon="-4.1573400000"><ele>518</ele><time>2016-10-15T09:53:14Z</time></trkpt>
<trkpt lat="53.1067530000" lon="-4.1573400000"><ele>518</ele><time>2016-10-15T09:53:15Z</time></trkpt>
<trkpt lat="53.1067530000" lon="-4.1573400000"><ele>518</ele><time>2016-10-15T09:53:16Z</time></trkpt>
<trkpt lat="53.1067520000" lon="-4.1573390000"><ele>518</ele><time>2016-10-15T09:53:17Z</time></trkpt>
<trkpt lat="53.1067520000" lon="-4.1573390000"><ele>518</ele><time>2016-10-15T09:53:18Z</time></trkpt>
<trkpt lat="53.1067500000" lon="-4.1573380000"><ele>518</ele><time>2016-10-15T09:53:19Z</time></trkpt>
<trkpt lat="53.1067490000" lon="-4.1573370000"><ele>518</ele><time>2016-10-15T09:53:20Z</time></trkpt>
<trkpt lat="53.1067470000" lon="-4.1573360000"><ele>519</ele><time>2016-10-15T09:53:21Z</time></trkpt>
<trkpt lat="53.1067440000" lon="-4.1573340000"><ele>519</ele><time>2016-10-15T09:53:22Z</time></trkpt>
<trkpt lat="53.1067410000" lon="-4.1573330000"><ele>519</ele><time>2016-10-15T09:53:23Z</time></trkpt>
<trkpt lat="53.1067380000" lon="-4.1573300000"><ele>519</ele><time>2016-10-15T09:53:24Z</time></trkpt>
<trkpt lat="53.1067350000" lon="-4.1573270000"><ele>519</ele><time>2016-10-15T09:53:25Z</time></trkpt>
<trkpt lat="53.1067300000" lon="-4.1573240000"><ele>519</ele><time>2016-10-15T09:53:26Z</time></trkpt>
<trkpt lat="53.1067260000" lon="-4.1573200000"><ele>519</ele><time>2016-10-15T09:53:27Z</time></trkpt>
<trkpt lat="53.1067210000" lon="-4.1573170000"><ele>520</ele><time>2016-10-15T09:53:28Z</time></trkpt>
<trkpt lat="53.1067160000" lon="-4.1573130000"><ele>520</ele><time>2016-10-15T09:53:29Z</time></trkpt>
<trkpt lat="53.1067110000" lon="-4.1573080000"><ele>520</ele><time>2016-10-15T09:53:30Z</time></trkpt>
<trkpt lat="53.1067060000" lon="-4.1573040000"><ele>520</ele><time>2016-10-15T09:53:31Z</time></trkpt>
<trkpt lat="53.1067000000" lon="-4.1573000000"><ele>521</ele><time>2016-10-15T09:53:32Z</time></trkpt>
<trkpt lat="53.1066950000" lon="-4.1572950000"><ele>521</ele><time>2016-10-15T09:53:33Z</time></trkpt>
<trkpt lat="53.1066890000" lon="-4.1572900000"><ele>521</ele><time>2016-10-15T09:53:34Z</time></trkpt>
<trkpt lat="53.1066830000" lon="-4.1572860000"><ele>521</ele><time>2016-10-15T09:53:35Z</time></trkpt>
<trkpt lat="53.1066770000" lon="-4.1572810000"><ele>521</ele><time>2016-10-15T09:53:36Z</time></trkpt>
<trkpt lat="53.1066710000" lon="-4.1572760000"><ele>522</ele><time>2016-10-15T09:53:37Z</time></trkpt>
<trkpt lat="53.1066650000" lon="-4.1572720000"><ele>522</ele><time>2016-10-15T09:53:38Z</time></trkpt>
<trkpt lat="53.1066590000" lon="-4.1572690000"><ele>522</ele><time>2016-10-15T09:53:39Z</time></trkpt>
<trkpt lat="53.1066450000" lon="-4.1572630000"><ele>522</ele><time>2016-10-15T09:53:42Z</time></trkpt>
<trkpt lat="53.1066380000" lon="-4.1572610000"><ele>523</ele></trkpt>
<trkpt lat="53.1066310000" lon="-4.1572590000"><ele>523</ele><time>2016-10-15T09:53:43Z</time></trkpt>
<trkpt lat="53.1066230000" lon="-4.1572580000"><ele>523</ele><time>2016-10-15T09:53:44Z</time></trkpt>
<trkpt lat="53.1066160000" lon="-4.1572560000"><ele>523</ele><time>2016-10-15T09:53:45Z</time></trkpt>
<trkpt lat="53.1066090000" lon="-4.1572550000"><ele>523</ele><time>2016-10-15T09:53:46Z</time></trkpt>
<trkpt lat="53.1066020000" lon="-4.1572540000"><ele>523</ele><time>2016-10-15T09:53:47Z</time></trkpt>
<trkpt lat="53.1065950000" lon="-4.1572520000"><ele>524</ele><time>2016-10-15T09:53:48Z</time></trkpt>
<trkpt lat="53.1065880000" lon="-4.1572510000"><ele>524</ele><time>2016-10-15T09:53:49Z</time></trkpt>
<trkpt lat="53.1065810000" lon="-4.1572500000"><ele>524</ele><time>2016-10-15T09:53:50Z</time></trkpt>
<trkpt lat="53.1065740000" lon="-4.1572490000"><ele>524</ele><time>2016-10-15T09:53:51Z</time></trkpt>
<trkpt lat="53.1065670000" lon="-4.1572480000"><ele>524</ele><time>2016-10-15T09:53:52Z</time></trkpt>
<trkpt lat="53.1065600000" lon="-4.1572470000"><ele>525</ele><time>2016-10-15T09:53:53Z</time></trkpt>
<trkpt lat="53.1065540000" lon="-4.1572450000"><ele>525</ele><time>2016-10-15T09:53:54Z</time></trkpt>
<trkpt lat="53.1065470000" lon="-4.1572430000"><ele>525</ele><time>2016-10-15T09:53:55Z</time></trkpt>
<trkpt lat="53.1065400000" lon="-4.1572410000"><ele>525</ele><time>2016-10-15T09:53:56Z</time></trkpt>
<trkpt lat="53.1065340000" lon="-4.1572390000"><ele>525</ele><time>2016-10-15T09:53:57Z</time></trkpt>
<trkpt lat="53.1065270000" lon="-4.1572380000"><ele>526</ele><time>2016-10-15T09:53:58Z</time></trkpt>
<trkpt lat="53.1065210000" lon="-4.1572360000"><ele>526</ele><time>2016-10-15T09:53:59Z</time></trkpt>
<trkpt lat="53.1065140000" lon="-4.1572350000"><ele>526</ele><time>2016-10-15T09:54:00Z</time></trkpt>
<trkpt lat="53.1065080000" lon="-4.1572330000"><ele>526</ele><time>2016-10-15T09:54:01Z</time></trkpt>
<trkpt lat="53.1065010000" lon="-4.1572320000"><ele>527</ele><time>2016-10-15T09:54:02Z</time></trkpt>
<trkpt lat="53.1064940000" lon="-4.1572300000"><ele>527</ele><time>2016-10-15T09:54:03Z</time></trkpt>
<trkpt lat="53.1064870000" lon="-4.1572290000"><ele>527</ele><time>2016-10-15T09:54:04Z</time></trkpt>
<trkpt lat="53.1064810000" lon="-4.1572270000"><ele>527</ele><time>2016-10-15T09:54:05Z</time></trkpt>
<trkpt lat="53.1064740000" lon="-4.1572250000"><ele>527</ele><time>2016-10-15T09:54:06Z</time></trkpt>
<trkpt lat="53.1064670000" lon="-4.1572230000"><ele>527</ele><time>2016-10-15T09:54:07Z</time></trkpt>
<trkpt lat="53.1064590000" lon="-4.1572210000"><ele>527</ele><time>2016-10-15T09:54:08Z</time></trkpt>
<trkpt lat="53.1064520000" lon="-4.1572190000"><ele>528</ele><time>2016-10-15T09:54:09Z</time></trkpt>
<trkpt lat="53.1064450000" lon="-4.1572170000"><ele>528</ele><time>2016-10-15T09:54:10Z</time></trkpt>
<trkpt lat="53.1064370000" lon="-4.1572160000"><ele>528</ele><time>2016-10-15T09:54:11Z</time></trkpt>
<trkpt lat="53.1064300000" lon="-4.1572140000"><ele>528</ele><time>2016-10-15T09:54:12Z</time></trkpt>
<trkpt lat="53.1064220000" lon="-4.1572130000"><ele>528</ele><time>2016-10-15T09:54:13Z</time></trkpt>
<trkpt lat="53.1064140000" lon="-4.1572110000"><ele>529</ele><time>2016-10-15T09:54:14Z</time></trkpt>
<trkpt lat="53.1064070000" lon="-4.1572100000"><ele>529</ele><time>2016-10-15T09:54:15Z</time></trkpt>
<trkpt lat="53.1063990000" lon="-4.1572090000"><ele>529</ele><time>2016-10-15T09:54:16Z</time></trkpt>
<trkpt lat="53.1063910000" lon="-4.1572090000"><ele>529</ele><time>2016-10-15T09:54:17Z</time></trkpt>
<trkpt lat="53.1063830000" lon="-4.1572080000"><ele>529</ele><time>2016-10-15T09:54:18Z</time></trkpt>
<trkpt lat="53.1063750000" lon="-4.1572070000"><ele>530</ele><time>2016-10-15T09:54:19Z</time></trkpt>
<trkpt lat="53.1063670000" lon="-4.1572060000"><ele>530</ele><time>2016-10-15T09:54:20Z</time></trkpt>
<trkpt lat="53.1063590000" lon="-4.1572050000"><ele>530</ele><time>2016-10-15T09:54:21Z</time></trkpt>
<trkpt lat="53.1063510000" lon="-4.1572030000"><ele>530</ele><time>2016-10-15T09:54:22Z</time></trkpt>
<trkpt lat="53.1063430000" lon="-4.1572020000"><ele>531</ele><time>2016-10-15T09:54:23Z</time></trkpt>
<trkpt lat="53.1063350000" lon="-4.1572010000"><ele>531</ele><time>2016-10-15T09:54:24Z</time></trkpt>
<trkpt lat="53.1063260000" lon="-4.1572000000"><ele>531</ele><time>2016-10-15T09:54:25Z</time></trkpt>
<trkpt lat="53.1063180000" lon="-4.1571990000"><ele>531</ele><time>2016-10-15T09:54:26Z</time></trkpt>
<trkpt lat="53.1063100000" lon="-4.1571970000"><ele>531</ele><time>2016-10-15T09:54:27Z</time></trkpt>
<trkpt lat="53.1063010000" lon="-4.1571960000"><ele>532</ele><time>2016-10-15T09:54:28Z</time></trkpt>
<trkpt lat="53.1062930000" lon="-4.1571940000"><ele>532</ele><time>2016-10-15T09:54:29Z</time></trkpt>
<trkpt lat="53.1062840000" lon="-4.1571930000"><ele>532</ele><time>2016-10-15T09:54:30Z</time></trkpt>
<trkpt lat="53.1062760000" lon="-4.1571910000"><ele>532</ele><time>2016-10-15T09:54:31Z</time></trkpt>
<trkpt lat="53.1062670000" lon="-4.1571900000"><ele>532</ele><time>2016-10-15T09:54:32Z</time></trkpt>
<trkpt lat="53.1062580000" lon="-4.1571880000"><ele>532</ele><time>2016-10-15T09:54:33Z</time></trkpt>
<trkpt lat="53.1062500000" lon="-4.1571860000"><ele>532</ele><time>2016-10-15T09:54:34Z</time></trkpt>
<trkpt lat="53.1062410000" lon="-4.1571850000"><ele>533</ele><time>2016-10-15T09:54:35Z</time></trkpt>
<trkpt lat="53.1062320000" lon="-4.1571830000"><ele>533</ele><time>2016-10-15T09:54:36Z</time></trkpt>
<trkpt lat="53.1062240000" lon="-4.1571820000"><ele>533</ele><time>2016-10-15T09:54:37Z</time></trkpt>
<trkpt lat="53.1062150000" lon="-4.1571810000"><ele>533</ele><time>2016-10-15T09:54:38Z</time></trkpt>
<trkpt lat="53.1062070000" lon="-4.1571800000"><ele>533</ele><time>2016-10-15T09:54:39Z</time></trkpt>
<trkpt lat="53.1061900000" lon="-4.1571780000"><ele>533</ele><time>2016-10-15T09:54:42Z</time></trkpt>
<trkpt lat="53.1060540000" lon="-4.1571600000"><ele>534</ele></trkpt>
<trkpt lat="53.1060430000" lon="-4.1571610000"><ele>534</ele><time>2016-10-15T09:54:43Z</time></trkpt>
<trkpt lat="53.1060310000" lon="-4.1571620000"><ele>534</ele><time>2016-10-15T09:54:44Z</time></trkpt>
<trkpt lat="53.1060310000" lon="-4.1571620000"><ele>534</ele><time>2016-10-15T09:54:45Z</time></trkpt>
<trkpt lat="53.1060310000" lon="-4.1571620000"><ele>534</ele><time>2016-10-15T09:54:46Z</time></trkpt>
<trkpt lat="53.1060300000" lon="-4.1571620000"><ele>534</ele><time>2016-10-15T09:54:47Z</time></trkpt>
<trkpt lat="53.1060290000" lon="-4.1571620000"><ele>534</ele><time>2016-10-15T09:54:48Z</time></trkpt>
<trkpt lat="53.1060280000" lon="-4.1571620000"><ele>534</ele><time>2016-10-15T09:54:49Z</time></trkpt>
<trkpt lat="53.1060260000" lon="-4.1571620000"><ele>534</ele><time>2016-10-15T09:54:50Z</time></trkpt>
<trkpt lat="53.1060240000" lon="-4.1571620000"><ele>534</ele><time>2016-10-15T09:54:51Z</time></trkpt>
<trkpt lat="53.1060210000" lon="-4.1571610000"><ele>534</ele><time>2016-10-15T09:54:52Z</time></trkpt>
<trkpt lat="53.1060180000" lon="-4.1571610000"><ele>534</ele><time>2016-10-15T09:54:53Z</time></trkpt>
<trkpt lat="53.1060140000" lon="-4.1571610000"><ele>534</ele><time>2016-10-15T09:54:54Z</time></trkpt>
<trkpt lat="53.1060100000" lon="-4.1571600000"><ele>534</ele><time>2016-10-15T09:54:55Z</time></trkpt>
<trkpt lat="53.1060050000" lon="-4.1571600000"><ele>535</ele><time>2016-10-15T09:54:56Z</time></trkpt>
<trkpt lat="53.1060000000" lon="-4.1571600000"><ele>535</ele><time>2016-10-15T09:54:57Z</time></trkpt>
<trkpt lat="53.1059950000" lon="-4.1571600000"><ele>535</ele><time>2016-10-15T09:54:58Z</time></trkpt>
<trkpt lat="53.1059890000" lon="-4.1571600000"><ele>535</ele><time>2016-10-15T09:54:59Z</time></trkpt>
<trkpt lat="53.1059820000" lon="-4.1571600000"><ele>535</ele><time>2016-10-15T09:55:00Z</time></trkpt>
<trkpt lat="53.1059760000" lon="-4.1571600000"><ele>536</ele><time>2016-10-15T09:55:01Z</time></trkpt>
<trkpt lat="53.1059690000" lon="-4.1571600000"><ele>536</ele><time>2016-10-15T09:55:02Z</time></trkpt>
<trkpt lat="53.1059610000" lon="-4.1571600000"><ele>536</ele><time>2016-10-15T09:55:03Z</time></trkpt>
<trkpt lat="53.1059540000" lon="-4.1571590000"><ele>536</ele><time>2016-10-15T09:55:04Z</time></trkpt>
<trkpt lat="53.1059460000" lon="-4.1571590000"><ele>536</ele><time>2016-10-15T09:55:05Z</time></trkpt>
<trkpt lat="53.1059370000" lon="-4.1571590000"><ele>536</ele><time>2016-10-15T09:55:06Z</time></trkpt>
<trkpt lat="53.1059290000" lon="-4.1571590000"><ele>537</ele><time>2016-10-15T09:55:07Z</time></trkpt>
<trkpt lat="53.1059210000" lon="-4.1571590000"><ele>537</ele><time>2016-10-15T09:55:08Z</time></trkpt>
<trkpt lat="53.1059120000" lon="-4.1571590000"><ele>537</ele><time>2016-10-15T09:55:09Z</time></trkpt>
<trkpt lat="53.1059040000" lon="-4.1571590000"><ele>537</ele><time>2016-10-15T09:55:10Z</time></trkpt>
<trkpt lat="53.1058950000" lon="-4.1571580000"><ele>537</ele><time>2016-10-15T09:55:11Z</time></trkpt>
<trkpt lat="53.1058860000" lon="-4.1571570000"><ele>537</ele><time>2016-10-15T09:55:12Z</time></trkpt>
<trkpt lat="53.1058780000" lon="-4.1571560000"><ele>538</ele><time>2016-10-15T09:55:13Z</time></trkpt>
<trkpt lat="53.1058690000" lon="-4.1571550000"><ele>538</ele><time>2016-10-15T09:55:14Z</time></trkpt>
<trkpt lat="53.1058600000" lon="-4.1571550000"><ele>538</ele><time>2016-10-15T09:55:15Z</time></trkpt>
<trkpt lat="53.1058520000" lon="-4.1571540000"><ele>538</ele><time>2016-10-15T09:55:16Z</time></trkpt>
<trkpt lat="53.1058430000" lon="-4.1571540000"><ele>538</ele><time>2016-10-15T09:55:17Z</time></trkpt>
<trkpt lat="53.1058340000" lon="-4.1571540000"><ele>539</ele><time>2016-10-15T09:55:18Z</time></trkpt>
<trkpt lat="53.1058250000" lon="-4.1571540000"><ele>539</ele><time>2016-10-15T09:55:19Z</time></trkpt>
<trkpt lat="53.1058170000" lon="-4.1571540000"><ele>539</ele><time>2016-10-15T09:55:20Z</time></trkpt>
<trkpt lat="53.1058080000" lon="-4.1571530000"><ele>539</ele><time>2016-10-15T09:55:21Z</time></trkpt>
<trkpt lat="53.1057990000" lon="-4.1571530000"><ele>539</ele><time>2016-10-15T09:55:22Z</time></trkpt>
<trkpt lat="53.1057900000" lon="-4.1571530000"><ele>539</ele><time>2016-10-15T09:55:23Z</time></trkpt>
<trkpt lat="53.1057810000" lon="-4.1571520000"><ele>540</ele><time>2016-10-15T09:55:24Z</time></trkpt>
<trkpt lat="53.1057720000" lon="-4.1571520000"><ele>540</ele><time>2016-10-15T09:55:25Z</time></trkpt>
<trkpt lat="53.1057620000" lon="-4.1571520000"><ele>540</ele><time>2016-10-15T09:55:26Z</time></trkpt>
<trkpt lat="53.1057530000" lon="-4.1571510000"><ele>540</ele><time>2016-10-15T09:55:27Z</time></trkpt>
<trkpt lat="53.1057440000" lon="-4.1571500000"><ele>540</ele><time>2016-10-15T09:55:28Z</time></trkpt>
<trkpt lat="53.1057350000" lon="-4.1571500000"><ele>540</ele><time>2016-10-15T09:55:29Z</time></trkpt>
<trkpt lat="53.1057260000" lon="-4.1571490000"><ele>540</ele><time>2016-10-15T09:55:30Z</time></trkpt>
<trkpt lat="53.1057160000" lon="-4.1571490000"><ele>540</ele><time>2016-10-15T09:55:31Z</time></trkpt>
<trkpt lat="53.1057070000" lon="-4.1571490000"><ele>541</ele><time>2016-10-15T09:55:32Z</time></trkpt>
<trkpt lat="53.1056980000" lon="-4.1571480000"><ele>541</ele><time>2016-10-15T09:55:33Z</time></trkpt>
<trkpt lat="53.1056890000" lon="-4.1571480000"><ele>541</ele><time>2016-10-15T09:55:34Z</time></trkpt>
<trkpt lat="53.1056800000" lon="-4.1571470000"><ele>541</ele><time>2016-10-15T09:55:35Z</time></trkpt>
<trkpt lat="53.1055370000" lon="-4.1571350000"><ele>541</ele><time>2016-10-15T09:55:36Z</time></trkpt>
<trkpt lat="53.1055290000" lon="-4.1571330000"><ele>541</ele><time>2016-10-15T09:55:37Z</time></trkpt>
<trkpt lat="53.1055180000" lon="-4.1571320000"><ele>541</ele><time>2016-10-15T09:55:38Z</time></trkpt>
<trkpt lat="53.1055180000" lon="-4.1571320000"><ele>542</ele><time>2016-10-15T09:55:39Z</time></trkpt>
<trkpt lat="53.1055180000" lon="-4.1571320000"><ele>542</ele><time>2016-10-15T09:55:42Z</time></trkpt>
<trkpt lat="53.1055170000" lon="-4.1571320000"><ele>542</ele></trkpt>
<trkpt lat="53.1055150000" lon="-4.1571320000"><ele>542</ele><time>2016-10-15T09:55:43Z</time></trkpt>
<trkpt lat="53.1055140000" lon="-4.1571320000"><ele>542</ele><time>2016-10-15T09:55:44Z</time></trkpt>
<trkpt lat="53.1055110000" lon="-4.1571320000"><ele>542</ele><time>2016-10-15T09:55:45Z</time></trkpt>
<trkpt lat="53.1055090000" lon="-4.1571320000"><ele>542</ele><time>2016-10-15T09:55:46Z</time></trkpt>
<trkpt lat="53.1055050000" lon="-4.1571320000"><ele>542</ele><time>2016-10-15T09:55:47Z</time></trkpt>
<trkpt lat="53.1055010000" lon="-4.1571330000"><ele>542</ele><time>2016-10-15T09:55:48Z</time></trkpt>
<trkpt lat="53.1054970000" lon="-4.1571330000"><ele>542</ele><time>2016-10-15T09:55:49Z</time></trkpt>
<trkpt lat="53.1054920000" lon="-4.1571340000"><ele>542</ele><time>2016-10-15T09:55:50Z</time></trkpt>
<trkpt lat="53.1054860000" lon="-4.1571350000"><ele>542</ele><time>2016-10-15T09:55:51Z</time></trkpt>
<trkpt lat="53.1054800000" lon="-4.1571360000"><ele>542</ele><time>2016-10-15T09:55:52Z</time></trkpt>
<trkpt lat="53.1054740000" lon="-4.1571370000"><ele>542</ele><time>2016-10-15T09:55:53Z</time></trkpt>
<trkpt lat="53.1054670000" lon="-4.1571380000"><ele>542</ele><time>2016-10-15T09:55:54Z</time></trkpt>
<trkpt lat="53.1054600000" lon="-4.1571390000"><ele>542</ele><time>2016-10-15T09:55:55Z</time></trkpt>
<trkpt lat="53.1054520000" lon="-4.1571410000"><ele>542</ele><time>2016-10-15T09:55:56Z</time></trkpt>
<trkpt lat="53.1054440000" lon="-4.1571420000"><ele>543</ele><time>2016-10-15T09:55:57Z</time></trkpt>
<trkpt lat="53.1054360000" lon="-4.1571440000"><ele>543</ele><time>2016-10-15T09:55:58Z</time></trkpt>
<trkpt lat="53.1054280000" lon="-4.1571460000"><ele>543</ele><time>2016-10-15T09:55:59Z</time></trkpt>
<trkpt lat="53.1054190000" lon="-4.1571480000"><ele>543</ele><time>2016-10-15T09:56:00Z</time></trkpt>
<trkpt lat="53.1054100000" lon="-4.1571500000"><ele>543</ele><time>2016-10-15T09:56:01Z</time></trkpt>
<trkpt lat="53.1054010000" lon="-4.1571520000"><ele>543</ele><time>2016-10-15T09:56:02Z</time></trkpt>
<trkpt lat="53.1053910000" lon="-4.1571540000"><ele>543</ele><time>2016-10-15T09:56:03Z</time></trkpt>
<trkpt lat="53.1053820000" lon="-4.1571570000"><ele>544</ele><time>2016-10-15T09:56:04Z</time></trkpt>
<trkpt lat="53.1052350000" lon="-4.1571870000"><ele>544</ele><time>2016-10-15T09:56:05Z</time></trkpt>
<trkpt lat="53.1052250000" lon="-4.1571890000"><ele>544</ele><time>2016-10-15T09:56:06Z</time></trkpt>
<trkpt lat="53.1052150000" lon="-4.1571900000"><ele>544</ele><time>2016-10-15T09:56:07Z</time></trkpt>
<trkpt lat="53.1052040000" lon="-4.1571910000"><ele>544</ele><time>2016-10-15T09:56:08Z</time></trkpt>
<trkpt lat="53.1052040000" lon="-4.1571910000"><ele>544</ele><time>2016-10-15T09:56:09Z</time></trkpt>
<trkpt lat="53.1052040000" lon="-4.1571910000"><ele>545</ele><time>2016-10-15T09:56:10Z</time></trkpt>
<trkpt lat="53.1052040000" lon="-4.1571910000"><ele>545</ele><time>2016-10-15T09:56:11Z</time></trkpt>
<trkpt lat="53.1052030000" lon="-4.1571910000"><ele>545</ele><time>2016-10-15T09:56:12Z</time></trkpt>
<trkpt lat="53.1052010000" lon="-4.1571920000"><ele>545</ele><time>2016-10-15T09:56:13Z</time></trkpt>
<trkpt lat="53.1052000000" lon="-4.1571920000"><ele>545</ele><time>2016-10-15T09:56:14Z</time></trkpt>
<trkpt lat="53.1051970000" lon="-4.1571920000"><ele>545</ele><time>2016-10-15T09:56:15Z</time></trkpt>
<trkpt lat="53.1051940000" lon="-4.1571930000"><ele>545</ele><time>2016-10-15T09:56:16Z</time></trkpt>
<trkpt lat="53.1051910000" lon="-4.1571930000"><ele>546</ele><time>2016-10-15T09:56:17Z</time></trkpt>
<trkpt lat="53.1050970000" lon="-4.1572110000"><ele>546</ele><time>2016-10-15T09:56:18Z</time></trkpt>
<trkpt lat="53.1050860000" lon="-4.1572150000"><ele>546</ele><time>2016-10-15T09:56:19Z</time></trkpt>
<trkpt lat="53.1050750000" lon="-4.1572200000"><ele>546</ele><time>2016-10-15T09:56:20Z</time></trkpt>
<trkpt lat="53.1050630000" lon="-4.1572240000"><ele>546</ele><time>2016-10-15T09:56:21Z</time></trkpt>
<trkpt lat="53.1050520000" lon="-4.1572270000"><ele>546</ele><time>2016-10-15T09:56:22Z</time></trkpt>
<trkpt lat="53.1050400000" lon="-4.1572280000"><ele>546</ele><time>2016-10-15T09:56:23Z</time></trkpt>
<trkpt lat="53.1050310000" lon="-4.1572290000"><ele>546</ele><time>2016-10-15T09:56:24Z</time></trkpt>
<trkpt lat="53.1050230000" lon="-4.1572300000"><ele>546</ele><time>2016-10-15T09:56:25Z</time></trkpt>
<trkpt lat="53.1050230000" lon="-4.1572300000"><ele>546</ele><time>2016-10-15T09:56:26Z</time></trkpt>
<trkpt lat="53.1050230000" lon="-4.1572300000"><ele>547</ele><time>2016-10-15T09:56:27Z</time></trkpt>
<trkpt lat="53.1050220000" lon="-4.1572300000"><ele>547</ele><time>2016-10-15T09:56:28Z</time></trkpt>
<trkpt lat="53.1050210000" lon="-4.1572310000"><ele>547</ele><time>2016-10-15T09:56:29Z</time></trkpt>
<trkpt lat="53.1050200000" lon="-4.1572310000"><ele>547</ele><time>2016-10-15T09:56:30Z</time></trkpt>
<trkpt lat="53.1050190000" lon="-4.1572310000"><ele>547</ele><time>2016-10-15T09:56:31Z</time></trkpt>
<trkpt lat="53.1050170000" lon="-4.1572310000"><ele>548</ele><time>2016-10-15T09:56:32Z</time></trkpt>
<trkpt lat="53.1050150000" lon="-4.1572310000"><ele>548</ele><time>2016-10-15T09:56:33Z</time></trkpt>
<trkpt lat="53.1050120000" lon="-4.1572310000"><ele>548</ele><time>2016-10-15T09:56:34Z</time></trkpt>
<trkpt lat="53.1050090000" lon="-4.1572310000"><ele>548</ele><time>2016-10-15T09:56:35Z</time></trkpt>
<trkpt lat="53.1050050000" lon="-4.1572310000"><ele>548</ele><time>2016-10-15T09:56:36Z</time></trkpt>
<trkpt lat="53.1050010000" lon="-4.1572310000"><ele>549</ele><time>2016-10-15T09:56:37Z</time></trkpt>
<trkpt lat="53.1049960000" lon="-4.1572310000"><ele>549</ele><time>2016-10-15T09:56:38Z</time></trkpt>
<trkpt lat="53.1049910000" lon="-4.1572310000"><ele>549</ele><time>2016-10-15T09:56:39Z</time></trkpt>
<trkpt lat="53.1049790000" lon="-4.1572310000"><ele>549</ele><time>2016-10-15T09:56:42Z</time></trkpt>
<trkpt lat="53.1049720000" lon="-4.1572310000"><ele>550</ele></trkpt>
<trkpt lat="53.1049660000" lon="-4.1572310000"><ele>550</ele><time>2016-10-15T09:56:43Z</time></trkpt>
<trkpt lat="53.1049580000" lon="-4.1572310000"><ele>550</ele><time>2016-10-15T09:56:44Z</time></trkpt>
<trkpt lat="53.1049510000" lon="-4.1572310000"><ele>550</ele><time>2016-10-15T09:56:45Z</time></trkpt>
<trkpt lat="53.1049430000" lon="-4.1572310000"><ele>550</ele><time>2016-10-15T09:56:46Z</time></trkpt>
<trkpt lat="53.1049360000" lon="-4.1572310000"><ele>551</ele><time>2016-10-15T09:56:47Z</time></trkpt>
<trkpt lat="53.1049280000" lon="-4.1572300000"><ele>551</ele><time>2016-10-15T09:56:48Z</time></trkpt>
<trkpt lat="53.1049210000" lon="-4.1572300000"><ele>551</ele><time>2016-10-15T09:56:49Z</time></trkpt>
<trkpt lat="53.1049140000" lon="-4.1572290000"><ele>551</ele><time>2016-10-15T09:56:50Z</time></trkpt>
<trkpt lat="53.1049070000" lon="-4.1572290000"><ele>551</ele><time>2016-10-15T09:56:51Z</time></trkpt>
<trkpt lat="53.1049000000" lon="-4.1572290000"><ele>551</ele><time>2016-10-15T09:56:52Z</time></trkpt>
<trkpt lat="53.1048930000" lon="-4.1572290000"><ele>552</ele><time>2016-10-15T09:56:53Z</time></trkpt>
<trkpt lat="53.1048850000" lon="-4.1572290000"><ele>552</ele><time>2016-10-15T09:56:54Z</time></trkpt>
<trkpt lat="53.1048770000" lon="-4.1572280000"><ele>552</ele><time>2016-10-15T09:56:55Z</time></trkpt>
<trkpt lat="53.1048700000" lon="-4.1572280000"><ele>552</ele><time>2016-10-15T09:56:56Z</time></trkpt>
<trkpt lat="53.1048620000" lon="-4.1572280000"><ele>552</ele><time>2016-10-15T09:56:57Z</time></trkpt>
<trkpt lat="53.1048530000" lon="-4.1572280000"><ele>552</ele><time>2016-10-15T09:56:58Z</time></trkpt>
<trkpt lat="53.1048450000" lon="-4.1572280000"><ele>553</ele><time>2016-10-15T09:56:59Z</time></trkpt>
<trkpt lat="53.1048370000" lon="-4.1572280000"><ele>553</ele><time>2016-10-15T09:57:00Z</time></trkpt>
<trkpt lat="53.1048290000" lon="-4.1572290000"><ele>553</ele><time>2016-10-15T09:57:01Z</time></trkpt>
<trkpt lat="53.1048230000" lon="-4.1572290000"><ele>553</ele><time>2016-10-15T09:57:02Z</time></trkpt>
<trkpt lat="53.1048170000" lon="-4.1572290000"><ele>553</ele><time>2016-10-15T09:57:03Z</time></trkpt>
<trkpt lat="53.1048120000" lon="-4.1572300000"><ele>553</ele><time>2016-10-15T09:57:04Z</time></trkpt>
<trkpt lat="53.1048080000" lon="-4.1572310000"><ele>553</ele><time>2016-10-15T09:57:05Z</time></trkpt>
<trkpt lat="53.1048050000" lon="-4.1572310000"><ele>554</ele><time>2016-10-15T09:57:06Z</time></trkpt>
<trkpt lat="53.1048020000" lon="-4.1572320000"><ele>554</ele><time>2016-10-15T09:57:07Z</time></trkpt>
<trkpt lat="53.1048000000" lon="-4.1572320000"><ele>554</ele><time>2016-10-15T09:57:08Z</time></trkpt>
<trkpt lat="53.1047990000" lon="-4.1572330000"><ele>554</ele><time>2016-10-15T09:57:09Z</time></trkpt>
<trkpt lat="53.1047980000" lon="-4.1572340000"><ele>554</ele><time>2016-10-15T09:57:10Z</time></trkpt>
<trkpt lat="53.1047970000" lon="-4.1572350000"><ele>554</ele><time>2016-10-15T09:57:11Z</time></trkpt>
<trkpt lat="53.1047970000" lon="-4.1572360000"><ele>554</ele><time>2016-10-15T09:57:12Z</time></trkpt>
<trkpt lat="53.1047970000" lon="-4.1572370000"><ele>554</ele><time>2016-10-15T09:57:13Z</time></trkpt>
<trkpt lat="53.1047980000" lon="-4.1572380000"><ele>554</ele><time>2016-10-15T09:57:14Z</time></trkpt>
<trkpt lat="53.1047980000" lon="-4.1572390000"><ele>554</ele><time>2016-10-15T09:57:15Z</time></trkpt>
<trkpt lat="53.1047990000" lon="-4.1572390000"><ele>554</ele><time>2016-10-15T09:57:16Z</time></trkpt>
<trkpt lat="53.1047990000" lon="-4.1572400000"><ele>554</ele><time>2016-10-15T09:57:17Z</time></trkpt>
<trkpt lat="53.1047990000" lon="-4.1572410000"><ele>554</ele><time>2016-10-15T09:57:18Z</time></trkpt>
<trkpt lat="53.1048000000" lon="-4.1572420000"><ele>554</ele><time>2016-10-15T09:57:19Z</time></trkpt>
<trkpt lat="53.1048000000" lon="-4.1572420000"><ele>554</ele><time>2016-10-15T09:57:20Z</time></trkpt>
<trkpt lat="53.1048000000" lon="-4.1572430000"><ele>554</ele><time>2016-10-15T09:57:21Z</time></trkpt>
<trkpt lat="53.1048010000" lon="-4.1572430000"><ele>554</ele><time>2016-10-15T09:57:22Z</time></trkpt>
<trkpt lat="53.1048010000" lon="-4.1572440000"><ele>554</ele><time>2016-10-15T09:57:23Z</time></trkpt>
<trkpt lat="53.1048010000" lon="-4.1572440000"><ele>554</ele><time>2016-10-15T09:57:24Z</time></trkpt>
<trkpt lat="53.1048010000" lon="-4.1572450000"><ele>554</ele><time>2016-10-15T09:57:25Z</time></trkpt>
<trkpt lat="53.1048010000" lon="-4.1572450000"><ele>554</ele><time>2016-10-15T09:57:26Z</time></trkpt>
<trkpt lat="53.1048010000" lon="-4.1572450000"><ele>554</ele><time>2016-10-15T09:57:27Z</time></trkpt>
<trkpt lat="53.1048000000" lon="-4.1572460000"><ele>554</ele><time>2016-10-15T09:57:28Z</time></trkpt>
<trkpt lat="53.1047990000" lon="-4.1572460000"><ele>554</ele><time>2016-10-15T09:57:29Z</time></trkpt>
<trkpt lat="53.1047970000" lon="-4.1572460000"><ele>554</ele><time>2016-10-15T09:57:30Z</time></trkpt>
<trkpt lat="53.1047960000" lon="-4.1572460000"><ele>554</ele><time>2016-10-15T09:57:31Z</time></trkpt>
<trkpt lat="53.1047950000" lon="-4.1572460000"><ele>554</ele><time>2016-10-15T09:57:32Z</time></trkpt>
<trkpt lat="53.1047940000" lon="-4.1572460000"><ele>554</ele><time>2016-10-15T09:57:33Z</time></trkpt>
<trkpt lat="53.1047930000" lon="-4.1572460000"><ele>554</ele><time>2016-10-15T09:57:34Z</time></trkpt>
<trkpt lat="53.1047920000" lon="-4.1572460000"><ele>554</ele><time>2016-10-15T09:57:35Z</time></trkpt>
<trkpt lat="53.1047910000" lon="-4.1572460000"><ele>554</ele><time>2016-10-15T09:57:36Z</time></trkpt>
<trkpt lat="53.1047900000" lon="-4.1572460000"><ele>554</ele><time>2016-10-15T09:57:37Z</time></trkpt>
<trkpt lat="53.1047890000" lon="-4.1572460000"><ele>554</ele><time>2016-10-15T09:57:38Z</time></trkpt>
<trkpt lat="53.1047880000" lon="-4.1572460000"><ele>554</ele><time>2016-10-15T09:57:39Z</time></trkpt>
<trkpt lat="53.1047870000" lon="-4.1572460000"><ele>554</ele><time>2016-10-15T09:57:42Z</time></trkpt>
<trkpt lat="53.1047860000" lon="-4.1572460000"><ele>554</ele></trkpt>
<trkpt lat="53.1047860000" lon="-4.1572460000"><ele>554</ele><time>2016-10-15T09:57:43Z</time></trkpt>
<trkpt lat="53.1047640000" lon="-4.1572470000"><ele>554</ele><time>2016-10-15T09:58:03Z</time></trkpt>
<trkpt lat="53.1047600000" lon="-4.1572470000"><ele>554</ele><time>2016-10-15T09:58:04Z</time></trkpt>
<trkpt lat="53.1046700000" lon="-4.1572460000"><ele>554</ele><time>2016-10-15T09:58:05Z</time></trkpt>
<trkpt lat="53.1046570000" lon="-4.1572460000"><ele>554</ele><time>2016-10-15T09:58:06Z</time></trkpt>
<trkpt lat="53.1046430000" lon="-4.1572450000"><ele>554</ele><time>2016-10-15T09:58:07Z</time></trkpt>
<trkpt lat="53.1046300000" lon="-4.1572440000"><ele>554</ele><time>2016-10-15T09:58:08Z</time></trkpt>
<trkpt lat="53.1046160000" lon="-4.1572430000"><ele>554</ele><time>2016-10-15T09:58:09Z</time></trkpt>
<trkpt lat="53.1046030000" lon="-4.1572430000"><ele>554</ele><time>2016-10-15T09:58:10Z</time></trkpt>
<trkpt lat="53.1045890000" lon="-4.1572440000"><ele>554</ele><time>2016-10-15T09:58:11Z</time></trkpt>
<trkpt lat="53.1045750000" lon="-4.1572430000"><ele>554</ele><time>2016-10-15T09:58:12Z</time></trkpt>
<trkpt lat="53.1045620000" lon="-4.1572400000"><ele>554</ele><time>2016-10-15T09:58:13Z</time></trkpt>
<trkpt lat="53.1045500000" lon="-4.1572370000"><ele>554</ele><time>2016-10-15T09:58:14Z</time></trkpt>
<trkpt lat="53.1045390000" lon="-4.1572360000"><ele>554</ele><time>2016-10-15T09:58:15Z</time></trkpt>
<trkpt lat="53.1045270000" lon="-4.1572360000"><ele>554</ele><time>2016-10-15T09:58:16Z</time></trkpt>
<trkpt lat="53.1045140000" lon="-4.1572320000"><ele>554</ele><time>2016-10-15T09:58:17Z</time></trkpt>
<trkpt lat="53.1045010000" lon="-4.1572280000"><ele>554</ele><time>2016-10-15T09:58:18Z</time></trkpt>
<trkpt lat="53.1044890000" lon="-4.1572240000"><ele>554</ele><time>2016-10-15T09:58:19Z</time></trkpt>
<trkpt lat="53.1044770000" lon="-4.1572210000"><ele>554</ele><time>2016-10-15T09:58:20Z</time></trkpt>
<trkpt lat="53.1044660000" lon="-4.1572190000"><ele>554</ele><time>2016-10-15T09:58:21Z</time></trkpt>
<trkpt lat="53.1044550000" lon="-4.1572150000"><ele>554</ele><time>2016-10-15T09:58:22Z</time></trkpt>
<trkpt lat="53.1044440000" lon="-4.1572080000"><ele>554</ele><time>2016-10-15T09:58:23Z</time></trkpt>
<trkpt lat="53.1044340000" lon="-4.1571980000"><ele>554</ele><time>2016-10-15T09:58:24Z</time></trkpt>
<trkpt lat="53.1044240000" lon="-4.1571870000"><ele>554</ele><time>2016-10-15T09:58:25Z</time></trkpt>
<trkpt lat="53.1044150000" lon="-4.1571760000"><ele>554</ele><time>2016-10-15T09:58:26Z</time></trkpt>
<trkpt lat="53.1044060000" lon="-4.1571660000"><ele>554</ele><time>2016-10-15T09:58:27Z</time></trkpt>
<trkpt lat="53.1044060000" lon="-4.1571660000"><ele>554</ele><time>2016-10-15T09:58:28Z</time></trkpt>
<trkpt lat="53.1044050000" lon="-4.1571660000"><ele>554</ele><time>2016-10-15T09:58:29Z</time></trkpt>
<trkpt lat="53.1044050000" lon="-4.1571660000"><ele>554</ele><time>2016-10-15T09:58:30Z</time></trkpt>
<trkpt lat="53.1044040000" lon="-4.1571660000"><ele>555</ele><time>2016-10-15T09:58:31Z</time></trkpt>
<trkpt lat="53.1044030000" lon="-4.1571650000"><ele>555</ele><time>2016-10-15T09:58:32Z</time></trkpt>
<trkpt lat="53.1044010000" lon="-4.1571650000"><ele>555</ele><time>2016-10-15T09:58:33Z</time></trkpt>
<trkpt lat="53.1043980000" lon="-4.1571640000"><ele>555</ele><time>2016-10-15T09:58:34Z</time></trkpt>
<trkpt lat="53.1043950000" lon="-4.1571640000"><ele>555</ele><time>2016-10-15T09:58:35Z</time></trkpt>
<trkpt lat="53.1043920000" lon="-4.1571630000"><ele>555</ele><time>2016-10-15T09:58:36Z</time></trkpt>
<trkpt lat="53.1043880000" lon="-4.1571620000"><ele>555</ele><time>2016-10-15T09:58:37Z</time></trkpt>
<trkpt lat="53.1043840000" lon="-4.1571610000"><ele>555</ele><time>2016-10-15T09:58:38Z</time></trkpt>
<trkpt lat="53.1043790000" lon="-4.1571600000"><ele>555</ele><time>2016-10-15T09:58:39Z</time></trkpt>
<trkpt lat="53.1043690000" lon="-4.1571580000"><ele>555</ele><time>2016-10-15T09:58:42Z</time></trkpt>
<trkpt lat="53.1043620000" lon="-4.1571560000"><ele>555</ele></trkpt>
<trkpt lat="53.1043560000" lon="-4.1571550000"><ele>555</ele><time>2016-10-15T09:58:43Z</time></trkpt>
<trkpt lat="53.1043490000" lon="-4.1571530000"><ele>555</ele><time>2016-10-15T09:58:44Z</time></trkpt>
<trkpt lat="53.1043410000" lon="-4.1571520000"><ele>555</ele><time>2016-10-15T09:58:45Z</time></trkpt>
<trkpt lat="53.1043330000" lon="-4.1571510000"><ele>556</ele><time>2016-10-15T09:58:46Z</time></trkpt>
<trkpt lat="53.1043240000" lon="-4.1571490000"><ele>556</ele><time>2016-10-15T09:58:47Z</time></trkpt>
<trkpt lat="53.1043150000" lon="-4.1571490000"><ele>556</ele><time>2016-10-15T09:58:48Z</time></trkpt>
<trkpt lat="53.1043060000" lon="-4.1571480000"><ele>556</ele><time>2016-10-15T09:58:49Z</time></trkpt>
<trkpt lat="53.1042970000" lon="-4.1571470000"><ele>556</ele><time>2016-10-15T09:58:50Z</time></trkpt>
<trkpt lat="53.1042880000" lon="-4.1571470000"><ele>556</ele><time>2016-10-15T09:58:51Z</time></trkpt>
<trkpt lat="53.1041280000" lon="-4.1571470000"><ele>556</ele><time>2016-10-15T09:58:52Z</time></trkpt>
<trkpt lat="53.1041160000" lon="-4.1571500000"><ele>556</ele><time>2016-10-15T09:58:53Z</time></trkpt>
<trkpt lat="53.1041060000" lon="-4.1571510000"><ele>556</ele><time>2016-10-15T09:58:54Z</time></trkpt>
<trkpt lat="53.1040960000" lon="-4.1571520000"><ele>556</ele><time>2016-10-15T09:58:55Z</time></trkpt>
<trkpt lat="53.1040960000" lon="-4.1571520000"><ele>556</ele><time>2016-10-15T09:58:56Z</time></trkpt>
<trkpt lat="53.1040960000" lon="-4.1571520000"><ele>557</ele><time>2016-10-15T09:58:57Z</time></trkpt>
<trkpt lat="53.1040950000" lon="-4.1571520000"><ele>557</ele><time>2016-10-15T09:58:58Z</time></trkpt>
<trkpt lat="53.1040950000" lon="-4.1571520000"><ele>557</ele><time>2016-10-15T09:58:59Z</time></trkpt>
<trkpt lat="53.1040930000" lon="-4.1571520000"><ele>557</ele><time>2016-10-15T09:59:00Z</time></trkpt>
<trkpt lat="53.1040920000" lon="-4.1571530000"><ele>557</ele><time>2016-10-15T09:59:01Z</time></trkpt>
<trkpt lat="53.1040900000" lon="-4.1571530000"><ele>557</ele><time>2016-10-15T09:59:02Z</time></trkpt>
<trkpt lat="53.1040880000" lon="-4.1571530000"><ele>557</ele><time>2016-10-15T09:59:03Z</time></trkpt>
<trkpt lat="53.1040850000" lon="-4.1571540000"><ele>557</ele><time>2016-10-15T09:59:04Z</time></trkpt>
<trkpt lat="53.1040810000" lon="-4.1571540000"><ele>557</ele><time>2016-10-15T09:59:05Z</time></trkpt>
<trkpt lat="53.1040770000" lon="-4.1571550000"><ele>558</ele><time>2016-10-15T09:59:06Z</time></trkpt>
<trkpt lat="53.1040730000" lon="-4.1571550000"><ele>558</ele><time>2016-10-15T09:59:07Z</time></trkpt>
<trkpt lat="53.1040680000" lon="-4.1571560000"><ele>558</ele><time>2016-10-15T09:59:08Z</time></trkpt>
<trkpt lat="53.1040620000" lon="-4.1571570000"><ele>558</ele><time>2016-10-15T09:59:09Z</time></trkpt>
<trkpt lat="53.1040560000" lon="-4.1571570000"><ele>558</ele><time>2016-10-15T09:59:10Z</time></trkpt>
<trkpt lat="53.1040500000" lon="-4.1571580000"><ele>558</ele><time>2016-10-15T09:59:11Z</time></trkpt>
<trkpt lat="53.1040430000" lon="-4.1571590000"><ele>558</ele><time>2016-10-15T09:59:12Z</time></trkpt>
<trkpt lat="53.1040350000" lon="-4.1571590000"><ele>559</ele><time>2016-10-15T09:59:13Z</time></trkpt>
<trkpt lat="53.1040280000" lon="-4.1571600000"><ele>559</ele><time>2016-10-15T09:59:14Z</time></trkpt>
<trkpt lat="53.1040200000" lon="-4.1571610000"><ele>559</ele><time>2016-10-15T09:59:15Z</time></trkpt>
<trkpt lat="53.1040120000" lon="-4.1571620000"><ele>559</ele><time>2016-10-15T09:59:16Z</time></trkpt>
<trkpt lat="53.1040040000" lon="-4.1571620000"><ele>559</ele><time>2016-10-15T09:59:17Z</time></trkpt>
<trkpt lat="53.1039950000" lon="-4.1571620000"><ele>559</ele><time>2016-10-15T09:59:18Z</time></trkpt>
<trkpt lat="53.1039860000" lon="-4.1571620000"><ele>559</ele><time>2016-10-15T09:59:19Z</time></trkpt>
<trkpt lat="53.1039770000" lon="-4.1571610000"><ele>559</ele><time>2016-10-15T09:59:20Z</time></trkpt>
<trkpt lat="53.1039680000" lon="-4.1571600000"><ele>559</ele><time>2016-10-15T09:59:21Z</time></trkpt>
<trkpt lat="53.1039590000" lon="-4.1571590000"><ele>560</ele><time>2016-10-15T09:59:22Z</time></trkpt>
<trkpt lat="53.1039500000" lon="-4.1571570000"><ele>560</ele><time>2016-10-15T09:59:23Z</time></trkpt>
<trkpt lat="53.1038060000" lon="-4.1571190000"><ele>560</ele><time>2016-10-15T09:59:24Z</time></trkpt>
<trkpt lat="53.1037980000" lon="-4.1571100000"><ele>560</ele><time>2016-10-15T09:59:25Z</time></trkpt>
<trkpt lat="53.1037900000" lon="-4.1571020000"><ele>560</ele><time>2016-10-15T09:59:26Z</time></trkpt>
<trkpt lat="53.1037820000" lon="-4.1570940000"><ele>560</ele><time>2016-10-15T09:59:27Z</time></trkpt>
<trkpt lat="53.1037820000" lon="-4.1570940000"><ele>560</ele><time>2016-10-15T09:59:28Z</time></trkpt>
<trkpt lat="53.1037820000" lon="-4.1570940000"><ele>560</ele><time>2016-10-15T09:59:29Z</time></trkpt>
<trkpt lat="53.1037810000" lon="-4.1570930000"><ele>561</ele><time>2016-10-15T09:59:30Z</time></trkpt>
<trkpt lat="53.1037810000" lon="-4.1570920000"><ele>561</ele><time>2016-10-15T09:59:31Z</time></trkpt>
<trkpt lat="53.1037800000" lon="-4.1570910000"><ele>561</ele><time>2016-10-15T09:59:32Z</time></trkpt>
<trkpt lat="53.1037780000" lon="-4.1570900000"><ele>561</ele><time>2016-10-15T09:59:33Z</time></trkpt>
<trkpt lat="53.1037770000" lon="-4.1570880000"><ele>561</ele><time>2016-10-15T09:59:34Z</time></trkpt>
<trkpt lat="53.1037750000" lon="-4.1570850000"><ele>561</ele><time>2016-10-15T09:59:35Z</time></trkpt>
<trkpt lat="53.1037720000" lon="-4.1570820000"><ele>562</ele><time>2016-10-15T09:59:36Z</time></trkpt>
<trkpt lat="53.1037700000" lon="-4.1570790000"><ele>562</ele><time>2016-10-15T09:59:37Z</time></trkpt>
<trkpt lat="53.1037670000" lon="-4.1570750000"><ele>562</ele><time>2016-10-15T09:59:38Z</time></trkpt>
<trkpt lat="53.1037630000" lon="-4.1570710000"><ele>562</ele><time>2016-10-15T09:59:39Z</time></trkpt>
<trkpt lat="53.1037550000" lon="-4.1570620000"><ele>562</ele><time>2016-10-15T09:59:42Z</time></trkpt>
<trkpt lat="53.1037510000" lon="-4.1570560000"><ele>562</ele></trkpt>
<trkpt lat="53.1037460000" lon="-4.1570510000"><ele>563</ele><time>2016-10-15T09:59:43Z</time></trkpt>
<trkpt lat="53.1037410000" lon="-4.1570460000"><ele>563</ele><time>2016-10-15T09:59:44Z</time></trkpt>
<trkpt lat="53.1037360000" lon="-4.1570400000"><ele>563</ele><time>2016-10-15T09:59:45Z</time></trkpt>
<trkpt lat="53.1037300000" lon="-4.1570340000"><ele>563</ele><time>2016-10-15T09:59:46Z</time></trkpt>
<trkpt lat="53.1037240000" lon="-4.1570290000"><ele>563</ele><time>2016-10-15T09:59:47Z</time></trkpt>
<trkpt lat="53.1037180000" lon="-4.1570230000"><ele>563</ele><time>2016-10-15T09:59:48Z</time></trkpt>
<trkpt lat="53.1037120000" lon="-4.1570180000"><ele>563</ele><time>2016-10-15T09:59:49Z</time></trkpt>
<trkpt lat="53.1037060000" lon="-4.1570130000"><ele>563</ele><time>2016-10-15T09:59:50Z</time></trkpt>
<trkpt lat="53.1036990000" lon="-4.1570080000"><ele>564</ele><time>2016-10-15T09:59:51Z</time></trkpt>
<trkpt lat="53.1036930000" lon="-4.1570040000"><ele>564</ele><time>2016-10-15T09:59:52Z</time></trkpt>
<trkpt lat="53.1036860000" lon="-4.1570000000"><ele>564</ele><time>2016-10-15T09:59:53Z</time></trkpt>
<trkpt lat="53.1036790000" lon="-4.1569960000"><ele>564</ele><time>2016-10-15T09:59:54Z</time></trkpt>
<trkpt lat="53.1036720000" lon="-4.1569920000"><ele>564</ele><time>2016-10-15T09:59:55Z</time></trkpt>
<trkpt lat="53.1036650000" lon="-4.1569890000"><ele>564</ele><time>2016-10-15T09:59:56Z</time></trkpt>
<trkpt lat="53.1036580000" lon="-4.1569870000"><ele>564</ele><time>2016-10-15T09:59:57Z</time></trkpt>
<trkpt lat="53.1036510000" lon="-4.1569840000"><ele>564</ele><time>2016-10-15T09:59:58Z</time></trkpt>
<trkpt lat="53.1036440000" lon="-4.1569820000"><ele>565</ele><time>2016-10-15T09:59:59Z</time></trkpt>
<trkpt lat="53.1036370000" lon="-4.1569790000"><ele>565</ele><time>2016-10-15T10:00:00Z</time></trkpt>
<trkpt lat="53.1036290000" lon="-4.1569770000"><ele>565</ele><time>2016-10-15T10:00:01Z</time></trkpt>
<trkpt lat="53.1036220000" lon="-4.1569760000"><ele>565</ele><time>2016-10-15T10:00:02Z</time></trkpt>
<trkpt lat="53.1036150000" lon="-4.1569740000"><ele>565</ele><time>2016-10-15T10:00:03Z</time></trkpt>
<trkpt lat="53.1036080000" lon="-4.1569730000"><ele>565</ele><time>2016-10-15T10:00:04Z</time></trkpt>
<trkpt lat="53.1036010000" lon="-4.1569720000"><ele>566</ele><time>2016-10-15T10:00:05Z</time></trkpt>
<trkpt lat="53.1035940000" lon="-4.1569710000"><ele>566</ele><time>2016-10-15T10:00:06Z</time></trkpt>
<trkpt lat="53.1035870000" lon="-4.1569700000"><ele>566</ele><time>2016-10-15T10:00:07Z</time></trkpt>
<trkpt lat="53.1035800000" lon="-4.1569690000"><ele>566</ele><time>2016-10-15T10:00:08Z</time></trkpt>
<trkpt lat="53.1035730000" lon="-4.1569680000"><ele>566</ele><time>2016-10-15T10:00:09Z</time></trkpt>
<trkpt lat="53.1035670000" lon="-4.1569680000"><ele>566</ele><time>2016-10-15T10:00:10Z</time></trkpt>
<trkpt lat="53.1035600000" lon="-4.1569670000"><ele>567</ele><time>2016-10-15T10:00:11Z</time></trkpt>
<trkpt lat="53.1035530000" lon="-4.1569660000"><ele>567</ele><time>2016-10-15T10:00:12Z</time></trkpt>
<trkpt lat="53.1035460000" lon="-4.1569660000"><ele>567</ele><time>2016-10-15T10:00:13Z</time></trkpt>
<trkpt lat="53.1035390000" lon="-4.1569650000"><ele>567</ele><time>2016-10-15T10:00:14Z</time></trkpt>
<trkpt lat="53.1035320000" lon="-4.1569650000"><ele>567</ele><time>2016-10-15T10:00:15Z</time></trkpt>
<trkpt lat="53.1035260000" lon="-4.1569650000"><ele>567</ele><time>2016-10-15T10:00:16Z</time></trkpt>
<trkpt lat="53.1035190000" lon="-4.1569650000"><ele>568</ele><time>2016-10-15T10:00:17Z</time></trkpt>
<trkpt lat="53.1035110000" lon="-4.1569640000"><ele>568</ele><time>2016-10-15T10:00:18Z</time></trkpt>
<trkpt lat="53.1035040000" lon="-4.1569640000"><ele>568</ele><time>2016-10-15T10:00:19Z</time></trkpt>
<trkpt lat="53.1034970000" lon="-4.1569630000"><ele>568</ele><time>2016-10-15T10:00:20Z</time></trkpt>
<trkpt lat="53.1034890000" lon="-4.1569620000"><ele>568</ele><time>2016-10-15T10:00:21Z</time></trkpt>
<trkpt lat="53.1034820000" lon="-4.1569610000"><ele>568</ele><time>2016-10-15T10:00:22Z</time></trkpt>
<trkpt lat="53.1034740000" lon="-4.1569600000"><ele>569</ele><time>2016-10-15T10:00:23Z</time></trkpt>
<trkpt lat="53.1034660000" lon="-4.1569600000"><ele>569</ele><time>2016-10-15T10:00:24Z</time></trkpt>
<trkpt lat="53.1034590000" lon="-4.1569590000"><ele>569</ele><time>2016-10-15T10:00:25Z</time></trkpt>
<trkpt lat="53.1034510000" lon="-4.1569580000"><ele>569</ele><time>2016-10-15T10:00:26Z</time></trkpt>
<trkpt lat="53.1034430000" lon="-4.1569570000"><ele>569</ele><time>2016-10-15T10:00:27Z</time></trkpt>
<trkpt lat="53.1034350000" lon="-4.1569570000"><ele>569</ele><time>2016-10-15T10:00:28Z</time></trkpt>
<trkpt lat="53.1034270000" lon="-4.1569570000"><ele>569</ele><time>2016-10-15T10:00:29Z</time></trkpt>
<trkpt lat="53.1034190000" lon="-4.1569560000"><ele>570</ele><time>2016-10-15T10:00:30Z</time></trkpt>
<trkpt lat="53.1034110000" lon="-4.1569560000"><ele>570</ele><time>2016-10-15T10:00:31Z</time></trkpt>
<trkpt lat="53.1034030000" lon="-4.1569560000"><ele>570</ele><time>2016-10-15T10:00:32Z</time></trkpt>
<trkpt lat="53.1033950000" lon="-4.1569560000"><ele>570</ele><time>2016-10-15T10:00:33Z</time></trkpt>
<trkpt lat="53.1033870000" lon="-4.1569560000"><ele>570</ele><time>2016-10-15T10:00:34Z</time></trkpt>
<trkpt lat="53.1033790000" lon="-4.1569560000"><ele>571</ele><time>2016-10-15T10:00:35Z</time></trkpt>
<trkpt lat="53.1033710000" lon="-4.1569560000"><ele>571</ele><time>2016-10-15T10:00:36Z</time></trkpt>
<trkpt lat="53.1033630000" lon="-4.1569570000"><ele>571</ele><time>2016-10-15T10:00:37Z</time></trkpt>
<trkpt lat="53.1033550000" lon="-4.1569580000"><ele>571</ele><time>2016-10-15T10:00:38Z</time></trkpt>
<trkpt lat="53.1033470000" lon="-4.1569580000"><ele>571</ele><time>2016-10-15T10:00:39Z</time></trkpt>
<trkpt lat="53.1033310000" lon="-4.1569600000"><ele>572</ele><time>2016-10-15T10:00:42Z</time></trkpt>
<trkpt lat="53.1033230000" lon="-4.1569600000"><ele>572</ele></trkpt>
<trkpt lat="53.1033150000" lon="-4.1569610000"><ele>572</ele><time>2016-10-15T10:00:43Z</time></trkpt>
<trkpt lat="53.1033070000" lon="-4.1569620000"><ele>573</ele><time>2016-10-15T10:00:44Z</time></trkpt>
<trkpt lat="53.1033000000" lon="-4.1569620000"><ele>573</ele><time>2016-10-15T10:00:45Z</time></trkpt>
<trkpt lat="53.1032920000" lon="-4.1569630000"><ele>573</ele><time>2016-10-15T10:00:46Z</time></trkpt>
<trkpt lat="53.1032840000" lon="-4.1569630000"><ele>573</ele><time>2016-10-15T10:00:47Z</time></trkpt>
<trkpt lat="53.1032750000" lon="-4.1569640000"><ele>574</ele><time>2016-10-15T10:00:48Z</time></trkpt>
<trkpt lat="53.1032670000" lon="-4.1569650000"><ele>574</ele><time>2016-10-15T10:00:49Z</time></trkpt>
<trkpt lat="53.1032590000" lon="-4.1569660000"><ele>574</ele><time>2016-10-15T10:00:50Z</time></trkpt>
<trkpt lat="53.1032510000" lon="-4.1569660000"><ele>574</ele><time>2016-10-15T10:00:51Z</time></trkpt>
<trkpt lat="53.1032430000" lon="-4.1569670000"><ele>575</ele><time>2016-10-15T10:00:52Z</time></trkpt>
<trkpt lat="53.1032360000" lon="-4.1569680000"><ele>575</ele><time>2016-10-15T10:00:53Z</time></trkpt>
<trkpt lat="53.1032280000" lon="-4.1569690000"><ele>575</ele><time>2016-10-15T10:00:54Z</time></trkpt>
<trkpt lat="53.1032200000" lon="-4.1569700000"><ele>575</ele><time>2016-10-15T10:00:55Z</time></trkpt>
<trkpt lat="53.1032120000" lon="-4.1569710000"><ele>576</ele><time>2016-10-15T10:00:56Z</time></trkpt>
<trkpt lat="53.1032040000" lon="-4.1569720000"><ele>576</ele><time>2016-10-15T10:00:57Z</time></trkpt>
<trkpt lat="53.1031960000" lon="-4.1569720000"><ele>576</ele><time>2016-10-15T10:00:58Z</time></trkpt>
<trkpt lat="53.1031870000" lon="-4.1569730000"><ele>576</ele><time>2016-10-15T10:00:59Z</time></trkpt>
<trkpt lat="53.1031790000" lon="-4.1569740000"><ele>577</ele><time>2016-10-15T10:01:00Z</time></trkpt>
<trkpt lat="53.1031710000" lon="-4.1569750000"><ele>577</ele><time>2016-10-15T10:01:01Z</time></trkpt>
<trkpt lat="53.1031630000" lon="-4.1569760000"><ele>577</ele><time>2016-10-15T10:01:02Z</time></trkpt>
<trkpt lat="53.1031550000" lon="-4.1569780000"><ele>577</ele><time>2016-10-15T10:01:03Z</time></trkpt>
<trkpt lat="53.1031470000" lon="-4.1569790000"><ele>577</ele><time>2016-10-15T10:01:04Z</time></trkpt>
<trkpt lat="53.1031400000" lon="-4.1569800000"><ele>578</ele><time>2016-10-15T10:01:05Z</time></trkpt>
<trkpt lat="53.1031320000" lon="-4.1569810000"><ele>578</ele><time>2016-10-15T10:01:06Z</time></trkpt>
<trkpt lat="53.1031240000" lon="-4.1569810000"><ele>578</ele><time>2016-10-15T10:01:07Z</time></trkpt>
<trkpt lat="53.1031160000" lon="-4.1569820000"><ele>578</ele><time>2016-10-15T10:01:08Z</time></trkpt>
<trkpt lat="53.1031080000" lon="-4.1569830000"><ele>578</ele><time>2016-10-15T10:01:09Z</time></trkpt>
<trkpt lat="53.1031000000" lon="-4.1569830000"><ele>579</ele><time>2016-10-15T10:01:10Z</time></trkpt>
<trkpt lat="53.1030930000" lon="-4.1569840000"><ele>579</ele><time>2016-10-15T10:01:11Z</time></trkpt>
<trkpt lat="53.1030850000" lon="-4.1569840000"><ele>579</ele><time>2016-10-15T10:01:12Z</time></trkpt>
<trkpt lat="53.1030770000" lon="-4.1569840000"><ele>579</ele><time>2016-10-15T10:01:13Z</time></trkpt>
<trkpt lat="53.1030690000" lon="-4.1569850000"><ele>579</ele><time>2016-10-15T10:01:14Z</time></trkpt>
<trkpt lat="53.1030610000" lon="-4.1569850000"><ele>580</ele><time>2016-10-15T10:01:15Z</time></trkpt>
<trkpt lat="53.1030530000" lon="-4.1569860000"><ele>580</ele><time>2016-10-15T10:01:16Z</time></trkpt>
<trkpt lat="53.1030450000" lon="-4.1569870000"><ele>580</ele><time>2016-10-15T10:01:17Z</time></trkpt>
<trkpt lat="53.1030370000" lon="-4.1569870000"><ele>580</ele><time>2016-10-15T10:01:18Z</time></trkpt>
<trkpt lat="53.1030290000" lon="-4.1569880000"><ele>580</ele><time>2016-10-15T10:01:19Z</time></trkpt>
<trkpt lat="53.1030210000" lon="-4.1569880000"><ele>581</ele><time>2016-10-15T10:01:20Z</time></trkpt>
<trkpt lat="53.1030130000" lon="-4.1569880000"><ele>581</ele><time>2016-10-15T10:01:21Z</time></trkpt>
<trkpt lat="53.1030050000" lon="-4.1569880000"><ele>581</ele><time>2016-10-15T10:01:22Z</time></trkpt>
<trkpt lat="53.1029970000" lon="-4.1569880000"><ele>581</ele><time>2016-10-15T10:01:23Z</time></trkpt>
<trkpt lat="53.1029890000" lon="-4.1569870000"><ele>582</ele><time>2016-10-15T10:01:24Z</time></trkpt>
<trkpt lat="53.1029810000" lon="-4.1569860000"><ele>582</ele><time>2016-10-15T10:01:25Z</time></trkpt>
<trkpt lat="53.1029740000" lon="-4.1569860000"><ele>582</ele><time>2016-10-15T10:01:26Z</time></trkpt>
<trkpt lat="53.1029660000" lon="-4.1569850000"><ele>582</ele><time>2016-10-15T10:01:27Z</time></trkpt>
<trkpt lat="53.1029600000" lon="-4.1569840000"><ele>582</ele><time>2016-10-15T10:01:28Z</time></trkpt>
<trkpt lat="53.1029520000" lon="-4.1569830000"><ele>583</ele><time>2016-10-15T10:01:29Z</time></trkpt>
<trkpt lat="53.1029440000" lon="-4.1569810000"><ele>583</ele><time>2016-10-15T10:01:30Z</time></trkpt>
<trkpt lat="53.1029370000" lon="-4.1569800000"><ele>583</ele><time>2016-10-15T10:01:31Z</time></trkpt>
<trkpt lat="53.1029290000" lon="-4.1569780000"><ele>583</ele><time>2016-10-15T10:01:32Z</time></trkpt>
<trkpt lat="53.1029220000" lon="-4.1569770000"><ele>583</ele><time>2016-10-15T10:01:33Z</time></trkpt>
<trkpt lat="53.1029140000" lon="-4.1569750000"><ele>584</ele><time>2016-10-15T10:01:34Z</time></trkpt>
<trkpt lat="53.1029070000" lon="-4.1569730000"><ele>584</ele><time>2016-10-15T10:01:35Z</time></trkpt>
<trkpt lat="53.1028990000" lon="-4.1569720000"><ele>584</ele><time>2016-10-15T10:01:36Z</time></trkpt>
<trkpt lat="53.1028920000" lon="-4.1569710000"><ele>584</ele><time>2016-10-15T10:01:37Z</time></trkpt>
<trkpt lat="53.1028850000" lon="-4.1569700000"><ele>584</ele><time>2016-10-15T10:01:38Z</time></trkpt>
<trkpt lat="53.1028770000" lon="-4.1569680000"><ele>584</ele><time>2016-10-15T10:01:39Z</time></trkpt>
<trkpt lat="53.1028630000" lon="-4.1569660000"><ele>585</ele><time>2016-10-15T10:01:42Z</time></trkpt>
<trkpt lat="53.1028550000" lon="-4.1569640000"><ele>585</ele></trkpt>
<trkpt lat="53.1028480000" lon="-4.1569630000"><ele>585</ele><time>2016-10-15T10:01:43Z</time></trkpt>
<trkpt lat="53.1028410000" lon="-4.1569620000"><ele>585</ele><time>2016-10-15T10:01:44Z</time></trkpt>
<trkpt lat="53.1028330000" lon="-4.1569600000"><ele>586</ele><time>2016-10-15T10:01:45Z</time></trkpt>
<trkpt lat="53.1028260000" lon="-4.1569580000"><ele>586</ele><time>2016-10-15T10:01:46Z</time></trkpt>
<trkpt lat="53.1028190000" lon="-4.1569570000"><ele>586</ele><time>2016-10-15T10:01:47Z</time></trkpt>
<trkpt lat="53.1028120000" lon="-4.1569550000"><ele>586</ele><time>2016-10-15T10:01:48Z</time></trkpt>
<trkpt lat="53.1028050000" lon="-4.1569530000"><ele>586</ele><time>2016-10-15T10:01:49Z</time></trkpt>
<trkpt lat="53.1027980000" lon="-4.1569520000"><ele>587</ele><time>2016-10-15T10:01:50Z</time></trkpt>
<trkpt lat="53.1027910000" lon="-4.1569500000"><ele>587</ele><time>2016-10-15T10:01:51Z</time></trkpt>
<trkpt lat="53.1027840000" lon="-4.1569480000"><ele>587</ele><time>2016-10-15T10:01:52Z</time></trkpt>
<trkpt lat="53.1027770000" lon="-4.1569460000"><ele>587</ele><time>2016-10-15T10:01:53Z</time></trkpt>
<trkpt lat="53.1027700000" lon="-4.1569440000"><ele>587</ele><time>2016-10-15T10:01:54Z</time></trkpt>
<trkpt lat="53.1027630000" lon="-4.1569420000"><ele>588</ele><time>2016-10-15T10:01:55Z</time></trkpt>
<trkpt lat="53.1027550000" lon="-4.1569400000"><ele>588</ele><time>2016-10-15T10:01:56Z</time></trkpt>
<trkpt lat="53.1027480000" lon="-4.1569380000"><ele>588</ele><time>2016-10-15T10:01:57Z</time></trkpt>
<trkpt lat="53.1027410000" lon="-4.1569370000"><ele>588</ele><time>2016-10-15T10:01:58Z</time></trkpt>
<trkpt lat="53.1027340000" lon="-4.1569360000"><ele>588</ele><time>2016-10-15T10:01:59Z</time></trkpt>
<trkpt lat="53.1027270000" lon="-4.1569340000"><ele>588</ele><time>2016-10-15T10:02:00Z</time></trkpt>
<trkpt lat="53.1027200000" lon="-4.1569330000"><ele>589</ele><time>2016-10-15T10:02:01Z</time></trkpt>
<trkpt lat="53.1027130000" lon="-4.1569310000"><ele>589</ele><time>2016-10-15T10:02:02Z</time></trkpt>
<trkpt lat="53.1027060000" lon="-4.1569300000"><ele>589</ele><time>2016-10-15T10:02:03Z</time></trkpt>
<trkpt lat="53.1027000000" lon="-4.1569290000"><ele>589</ele><time>2016-10-15T10:02:04Z</time></trkpt>
<trkpt lat="53.1026930000" lon="-4.1569290000"><ele>589</ele><time>2016-10-15T10:02:05Z</time></trkpt>
<trkpt lat="53.1026860000" lon="-4.1569290000"><ele>589</ele><time>2016-10-15T10:02:06Z</time></trkpt>
<trkpt lat="53.1026790000" lon="-4.1569300000"><ele>590</ele><time>2016-10-15T10:02:07Z</time></trkpt>
<trkpt lat="53.1026720000" lon="-4.1569300000"><ele>590</ele><time>2016-10-15T10:02:08Z</time></trkpt>
<trkpt lat="53.1026660000" lon="-4.1569300000"><ele>590</ele><time>2016-10-15T10:02:09Z</time></trkpt>
<trkpt lat="53.1026590000" lon="-4.1569300000"><ele>590</ele><time>2016-10-15T10:02:10Z</time></trkpt>
<trkpt lat="53.1026520000" lon="-4.1569300000"><ele>590</ele><time>2016-10-15T10:02:11Z</time></trkpt>
<trkpt lat="53.1026450000" lon="-4.1569300000"><ele>591</ele><time>2016-10-15T10:02:12Z</time></trkpt>
<trkpt lat="53.1026380000" lon="-4.1569300000"><ele>591</ele><time>2016-10-15T10:02:13Z</time></trkpt>
<trkpt lat="53.1026310000" lon="-4.1569300000"><ele>591</ele><time>2016-10-15T10:02:14Z</time></trkpt>
<trkpt lat="53.1026240000" lon="-4.1569300000"><ele>591</ele><time>2016-10-15T10:02:15Z</time></trkpt>
<trkpt lat="53.1026180000" lon="-4.1569290000"><ele>591</ele><time>2016-10-15T10:02:16Z</time></trkpt>
<trkpt lat="53.1026110000" lon="-4.1569290000"><ele>591</ele><time>2016-10-15T10:02:17Z</time></trkpt>
<trkpt lat="53.1026040000" lon="-4.1569280000"><ele>592</ele><time>2016-10-15T10:02:18Z</time></trkpt>
<trkpt lat="53.1025970000" lon="-4.1569270000"><ele>592</ele><time>2016-10-15T10:02:19Z</time></trkpt>
<trkpt lat="53.1025900000" lon="-4.1569270000"><ele>592</ele><time>2016-10-15T10:02:20Z</time></trkpt>
<trkpt lat="53.1025830000" lon="-4.1569260000"><ele>592</ele><time>2016-10-15T10:02:21Z</time></trkpt>
<trkpt lat="53.1025760000" lon="-4.1569260000"><ele>592</ele><time>2016-10-15T10:02:22Z</time></trkpt>
<trkpt lat="53.1025690000" lon="-4.1569260000"><ele>593</ele><time>2016-10-15T10:02:23Z</time></trkpt>
<trkpt lat="53.1025620000" lon="-4.1569260000"><ele>593</ele><time>2016-10-15T10:02:24Z</time></trkpt>
<trkpt lat="53.1025550000" lon="-4.1569260000"><ele>593</ele><time>2016-10-15T10:02:25Z</time></trkpt>
<trkpt lat="53.1025480000" lon="-4.1569260000"><ele>593</ele><time>2016-10-15T10:02:26Z</time></trkpt>
<trkpt lat="53.1025410000" lon="-4.1569260000"><ele>593</ele><time>2016-10-15T10:02:27Z</time></trkpt>
<trkpt lat="53.1025340000" lon="-4.1569250000"><ele>594</ele><time>2016-10-15T10:02:28Z</time></trkpt>
<trkpt lat="53.1025270000" lon="-4.1569250000"><ele>594</ele><time>2016-10-15T10:02:29Z</time></trkpt>
<trkpt lat="53.1025200000" lon="-4.1569240000"><ele>594</ele><time>2016-10-15T10:02:30Z</time></trkpt>
<trkpt lat="53.1025130000" lon="-4.1569230000"><ele>594</ele><time>2016-10-15T10:02:31Z</time></trkpt>
<trkpt lat="53.1025060000" lon="-4.1569220000"><ele>595</ele><time>2016-10-15T10:02:32Z</time></trkpt>
<trkpt lat="53.1024990000" lon="-4.1569210000"><ele>595</ele><time>2016-10-15T10:02:33Z</time></trkpt>
<trkpt lat="53.1024920000" lon="-4.1569210000"><ele>595</ele><time>2016-10-15T10:02:34Z</time></trkpt>
<trkpt lat="53.1024850000" lon="-4.1569210000"><ele>595</ele><time>2016-10-15T10:02:35Z</time></trkpt>
<trkpt lat="53.1024780000" lon="-4.1569200000"><ele>595</ele><time>2016-10-15T10:02:36Z</time></trkpt>
<trkpt lat="53.1024710000" lon="-4.1569200000"><ele>596</ele><time>2016-10-15T10:02:37Z</time></trkpt>
<trkpt lat="53.1024640000" lon="-4.1569190000"><ele>596</ele><time>2016-10-15T10:02:38Z</time></trkpt>
<trkpt lat="53.1024570000" lon="-4.1569180000"><ele>596</ele><time>2016-10-15T10:02:39Z</time></trkpt>
<trkpt lat="53.1024440000" lon="-4.1569160000"><ele>597</ele><time>2016-10-15T10:02:42Z</time></trkpt>
<trkpt lat="53.1024370000" lon="-4.1569160000"><ele>597</ele></trkpt>
<trkpt lat="53.1024300000" lon="-4.1569150000"><ele>597</ele><time>2016-10-15T10:02:43Z</time></trkpt>
<trkpt lat="53.1024230000" lon="-4.1569140000"><ele>598</ele><time>2016-10-15T10:02:44Z</time></trkpt>
<trkpt lat="53.1024160000" lon="-4.1569140000"><ele>598</ele><time>2016-10-15T10:02:45Z</time></trkpt>
<trkpt lat="53.1024090000" lon="-4.1569130000"><ele>598</ele><time>2016-10-15T10:02:46Z</time></trkpt>
<trkpt lat="53.1024020000" lon="-4.1569120000"><ele>598</ele><time>2016-10-15T10:02:47Z</time></trkpt>
<trkpt lat="53.1023950000" lon="-4.1569110000"><ele>599</ele><time>2016-10-15T10:02:48Z</time></trkpt>
<trkpt lat="53.1023880000" lon="-4.1569100000"><ele>599</ele><time>2016-10-15T10:02:49Z</time></trkpt>
<trkpt lat="53.1023810000" lon="-4.1569090000"><ele>599</ele><time>2016-10-15T10:02:50Z</time></trkpt>
<trkpt lat="53.1023740000" lon="-4.1569090000"><ele>599</ele><time>2016-10-15T10:02:51Z</time></trkpt>
<trkpt lat="53.1023670000" lon="-4.1569080000"><ele>600</ele><time>2016-10-15T10:02:52Z</time></trkpt>
<trkpt lat="53.1023600000" lon="-4.1569070000"><ele>600</ele><time>2016-10-15T10:02:53Z</time></trkpt>
<trkpt lat="53.1023530000" lon="-4.1569070000"><ele>600</ele><time>2016-10-15T10:02:54Z</time></trkpt>
<trkpt lat="53.1023460000" lon="-4.1569060000"><ele>600</ele><time>2016-10-15T10:02:55Z</time></trkpt>
<trkpt lat="53.1023380000" lon="-4.1569060000"><ele>600</ele><time>2016-10-15T10:02:56Z</time></trkpt>
<trkpt lat="53.1023310000" lon="-4.1569050000"><ele>601</ele><time>2016-10-15T10:02:57Z</time></trkpt>
<trkpt lat="53.1023240000" lon="-4.1569050000"><ele>601</ele><time>2016-10-15T10:02:58Z</time></trkpt>
<trkpt lat="53.1023180000" lon="-4.1569030000"><ele>601</ele><time>2016-10-15T10:02:59Z</time></trkpt>
<trkpt lat="53.1023110000" lon="-4.1569020000"><ele>601</ele><time>2016-10-15T10:03:00Z</time></trkpt>
<trkpt lat="53.1023050000" lon="-4.1569010000"><ele>601</ele><time>2016-10-15T10:03:01Z</time></trkpt>
<trkpt lat="53.1022980000" lon="-4.1568990000"><ele>602</ele><time>2016-10-15T10:03:02Z</time></trkpt>
<trkpt lat="53.1022920000" lon="-4.1568980000"><ele>602</ele><time>2016-10-15T10:03:03Z</time></trkpt>
<trkpt lat="53.1022850000" lon="-4.1568970000"><ele>602</ele><time>2016-10-15T10:03:04Z</time></trkpt>
<trkpt lat="53.1022790000" lon="-4.1568950000"><ele>602</ele><time>2016-10-15T10:03:05Z</time></trkpt>
<trkpt lat="53.1022730000" lon="-4.1568940000"><ele>602</ele><time>2016-10-15T10:03:06Z</time></trkpt>
<trkpt lat="53.1022670000" lon="-4.1568920000"><ele>602</ele><time>2016-10-15T10:03:07Z</time></trkpt>
<trkpt lat="53.1022610000" lon="-4.1568910000"><ele>602</ele><time>2016-10-15T10:03:08Z</time></trkpt>
<trkpt lat="53.1022550000" lon="-4.1568900000"><ele>603</ele><time>2016-10-15T10:03:09Z</time></trkpt>
<trkpt lat="53.1022490000" lon="-4.1568890000"><ele>603</ele><time>2016-10-15T10:03:10Z</time></trkpt>
<trkpt lat="53.1022440000" lon="-4.1568880000"><ele>603</ele><time>2016-10-15T10:03:11Z</time></trkpt>
<trkpt lat="53.1022380000" lon="-4.1568870000"><ele>603</ele><time>2016-10-15T10:03:12Z</time></trkpt>
<trkpt lat="53.1022320000" lon="-4.1568860000"><ele>603</ele><time>2016-10-15T10:03:13Z</time></trkpt>
<trkpt lat="53.1022250000" lon="-4.1568860000"><ele>603</ele><time>2016-10-15T10:03:14Z</time></trkpt>
<trkpt lat="53.1022190000" lon="-4.1568860000"><ele>604</ele><time>2016-10-15T10:03:15Z</time></trkpt>
<trkpt lat="53.1022130000" lon="-4.1568860000"><ele>604</ele><time>2016-10-15T10:03:16Z</time></trkpt>
<trkpt lat="53.1022070000" lon="-4.1568850000"><ele>604</ele><time>2016-10-15T10:03:17Z</time></trkpt>
<trkpt lat="53.1022010000" lon="-4.1568850000"><ele>604</ele><time>2016-10-15T10:03:18Z</time></trkpt>
<trkpt lat="53.1021950000" lon="-4.1568840000"><ele>604</ele><time>2016-10-15T10:03:19Z</time></trkpt>
<trkpt lat="53.1021890000" lon="-4.1568840000"><ele>605</ele><time>2016-10-15T10:03:20Z</time></trkpt>
<trkpt lat="53.1021820000" lon="-4.1568830000"><ele>605</ele><time>2016-10-15T10:03:21Z</time></trkpt>
<trkpt lat="53.1021760000" lon="-4.1568820000"><ele>605</ele><time>2016-10-15T10:03:22Z</time></trkpt>
<trkpt lat="53.1021700000" lon="-4.1568810000"><ele>605</ele><time>2016-10-15T10:03:23Z</time></trkpt>
<trkpt lat="53.1021640000" lon="-4.1568810000"><ele>605</ele><time>2016-10-15T10:03:24Z</time></trkpt>
<trkpt lat="53.1021580000" lon="-4.1568800000"><ele>606</ele><time>2016-10-15T10:03:25Z</time></trkpt>
<trkpt lat="53.1021520000" lon="-4.1568790000"><ele>606</ele><time>2016-10-15T10:03:26Z</time></trkpt>
<trkpt lat="53.1021460000" lon="-4.1568780000"><ele>606</ele><time>2016-10-15T10:03:27Z</time></trkpt>
<trkpt lat="53.1021390000" lon="-4.1568770000"><ele>606</ele><time>2016-10-15T10:03:28Z</time></trkpt>
<trkpt lat="53.1021340000" lon="-4.1568770000"><ele>607</ele><time>2016-10-15T10:03:29Z</time></trkpt>
<trkpt lat="53.1021280000" lon="-4.1568760000"><ele>607</ele><time>2016-10-15T10:03:30Z</time></trkpt>
<trkpt lat="53.1021210000" lon="-4.1568750000"><ele>607</ele><time>2016-10-15T10:03:31Z</time></trkpt>
<trkpt lat="53.1021150000" lon="-4.1568740000"><ele>607</ele><time>2016-10-15T10:03:32Z</time></trkpt>
<trkpt lat="53.1021080000" lon="-4.1568730000"><ele>607</ele><time>2016-10-15T10:03:33Z</time></trkpt>
<trkpt lat="53.1021010000" lon="-4.1568730000"><ele>608</ele><time>2016-10-15T10:03:34Z</time></trkpt>
<trkpt lat="53.1020950000" lon="-4.1568720000"><ele>608</ele><time>2016-10-15T10:03:35Z</time></trkpt>
<trkpt lat="53.1020880000" lon="-4.1568720000"><ele>608</ele><time>2016-10-15T10:03:36Z</time></trkpt>
<trkpt lat="53.1020810000" lon="-4.1568720000"><ele>608</ele><time>2016-10-15T10:03:37Z</time></trkpt>
<trkpt lat="53.1020740000" lon="-4.1568710000"><ele>609</ele><time>2016-10-15T10:03:38Z</time></trkpt>
<trkpt lat="53.1020670000" lon="-4.1568710000"><ele>609</ele><time>2016-10-15T10:03:39Z</time></trkpt>
<trkpt lat="53.1020530000" lon="-4.1568690000"><ele>609</ele><time>2016-10-15T10:03:42Z</time></trkpt>
<trkpt lat="53.1020460000" lon="-4.1568680000"><ele>610</ele></trkpt>
<trkpt lat="53.1020390000" lon="-4.1568670000"><ele>610</ele><time>2016-10-15T10:03:43Z</time></trkpt>
<trkpt lat="53.1020330000" lon="-4.1568660000"><ele>610</ele><time>2016-10-15T10:03:44Z</time></trkpt>
<trkpt lat="53.1020260000" lon="-4.1568650000"><ele>611</ele><time>2016-10-15T10:03:45Z</time></trkpt>
<trkpt lat="53.1020190000" lon="-4.1568640000"><ele>611</ele><time>2016-10-15T10:03:46Z</time></trkpt>
<trkpt lat="53.1020120000" lon="-4.1568630000"><ele>611</ele><time>2016-10-15T10:03:47Z</time></trkpt>
<trkpt lat="53.1020050000" lon="-4.1568620000"><ele>611</ele><time>2016-10-15T10:03:48Z</time></trkpt>
<trkpt lat="53.1019980000" lon="-4.1568600000"><ele>611</ele><time>2016-10-15T10:03:49Z</time></trkpt>
<trkpt lat="53.1019910000" lon="-4.1568590000"><ele>612</ele><time>2016-10-15T10:03:50Z</time></trkpt>
<trkpt lat="53.1019840000" lon="-4.1568570000"><ele>612</ele><time>2016-10-15T10:03:51Z</time></trkpt>
<trkpt lat="53.1019770000" lon="-4.1568560000"><ele>612</ele><time>2016-10-15T10:03:52Z</time></trkpt>
<trkpt lat="53.1019710000" lon="-4.1568540000"><ele>612</ele><time>2016-10-15T10:03:53Z</time></trkpt>
<trkpt lat="53.1019640000" lon="-4.1568520000"><ele>613</ele><time>2016-10-15T10:03:54Z</time></trkpt>
<trkpt lat="53.1019570000" lon="-4.1568500000"><ele>613</ele><time>2016-10-15T10:03:55Z</time></trkpt>
<trkpt lat="53.1019510000" lon="-4.1568480000"><ele>613</ele><time>2016-10-15T10:03:56Z</time></trkpt>
<trkpt lat="53.1019440000" lon="-4.1568460000"><ele>613</ele><time>2016-10-15T10:03:57Z</time></trkpt>
<trkpt lat="53.1019370000" lon="-4.1568430000"><ele>613</ele><time>2016-10-15T10:03:58Z</time></trkpt>
<trkpt lat="53.1019310000" lon="-4.1568410000"><ele>614</ele><time>2016-10-15T10:03:59Z</time></trkpt>
<trkpt lat="53.1019240000" lon="-4.1568390000"><ele>614</ele><time>2016-10-15T10:04:00Z</time></trkpt>
<trkpt lat="53.1019170000" lon="-4.1568360000"><ele>614</ele><time>2016-10-15T10:04:01Z</time></trkpt>
<trkpt lat="53.1019110000" lon="-4.1568330000"><ele>614</ele><time>2016-10-15T10:04:02Z</time></trkpt>
<trkpt lat="53.1019050000" lon="-4.1568300000"><ele>614</ele><time>2016-10-15T10:04:03Z</time></trkpt>
<trkpt lat="53.1018980000" lon="-4.1568270000"><ele>614</ele><time>2016-10-15T10:04:04Z</time></trkpt>
<trkpt lat="53.1018920000" lon="-4.1568240000"><ele>615</ele><time>2016-10-15T10:04:05Z</time></trkpt>
<trkpt lat="53.1018860000" lon="-4.1568210000"><ele>615</ele><time>2016-10-15T10:04:06Z</time></trkpt>
<trkpt lat="53.1018790000" lon="-4.1568180000"><ele>615</ele><time>2016-10-15T10:04:07Z</time></trkpt>
<trkpt lat="53.1018730000" lon="-4.1568140000"><ele>615</ele><time>2016-10-15T10:04:08Z</time></trkpt>
<trkpt lat="53.1018670000" lon="-4.1568100000"><ele>615</ele><time>2016-10-15T10:04:09Z</time></trkpt>
<trkpt lat="53.1018600000" lon="-4.1568060000"><ele>615</ele><time>2016-10-15T10:04:10Z</time></trkpt>
<trkpt lat="53.1018540000" lon="-4.1568020000"><ele>616</ele><time>2016-10-15T10:04:11Z</time></trkpt>
<trkpt lat="53.1018480000" lon="-4.1567980000"><ele>616</ele><time>2016-10-15T10:04:12Z</time></trkpt>
<trkpt lat="53.1018410000" lon="-4.1567930000"><ele>616</ele><time>2016-10-15T10:04:13Z</time></trkpt>
<trkpt lat="53.1018350000" lon="-4.1567890000"><ele>616</ele><time>2016-10-15T10:04:14Z</time></trkpt>
<trkpt lat="53.1018290000" lon="-4.1567850000"><ele>616</ele><time>2016-10-15T10:04:15Z</time></trkpt>
<trkpt lat="53.1018230000" lon="-4.1567800000"><ele>617</ele><time>2016-10-15T10:04:16Z</time></trkpt>
<trkpt lat="53.1018170000" lon="-4.1567760000"><ele>617</ele><time>2016-10-15T10:04:17Z</time></trkpt>
<trkpt lat="53.1018100000" lon="-4.1567710000"><ele>617</ele><time>2016-10-15T10:04:18Z</time></trkpt>
<trkpt lat="53.1018040000" lon="-4.1567670000"><ele>617</ele><time>2016-10-15T10:04:19Z</time></trkpt>
<trkpt lat="53.1017980000" lon="-4.1567620000"><ele>617</ele><time>2016-10-15T10:04:20Z</time></trkpt>
<trkpt lat="53.1017910000" lon="-4.1567580000"><ele>618</ele><time>2016-10-15T10:04:21Z</time></trkpt>
<trkpt lat="53.1017850000" lon="-4.1567530000"><ele>618</ele><time>2016-10-15T10:04:22Z</time></trkpt>
<trkpt lat="53.1017780000" lon="-4.1567490000"><ele>618</ele><time>2016-10-15T10:04:23Z</time></trkpt>
<trkpt lat="53.1017720000" lon="-4.1567440000"><ele>618</ele><time>2016-10-15T10:04:24Z</time></trkpt>
<trkpt lat="53.1017650000" lon="-4.1567390000"><ele>618</ele><time>2016-10-15T10:04:25Z</time></trkpt>
<trkpt lat="53.1017580000" lon="-4.1567350000"><ele>619</ele><time>2016-10-15T10:04:26Z</time></trkpt>
<trkpt lat="53.1017520000" lon="-4.1567300000"><ele>619</ele><time>2016-10-15T10:04:27Z</time></trkpt>
<trkpt lat="53.1017450000" lon="-4.1567260000"><ele>619</ele><time>2016-10-15T10:04:28Z</time></trkpt>
<trkpt lat="53.1017380000" lon="-4.1567210000"><ele>619</ele><time>2016-10-15T10:04:29Z</time></trkpt>
<trkpt lat="53.1017320000" lon="-4.1567170000"><ele>619</ele><time>2016-10-15T10:04:30Z</time></trkpt>
<trkpt lat="53.1017250000" lon="-4.1567120000"><ele>620</ele><time>2016-10-15T10:04:31Z</time></trkpt>
<trkpt lat="53.1017180000" lon="-4.1567080000"><ele>620</ele><time>2016-10-15T10:04:32Z</time></trkpt>
<trkpt lat="53.1017110000" lon="-4.1567040000"><ele>620</ele><time>2016-10-15T10:04:33Z</time></trkpt>
<trkpt lat="53.1017050000" lon="-4.1567010000"><ele>620</ele><time>2016-10-15T10:04:34Z</time></trkpt>
<trkpt lat="53.1016980000" lon="-4.1566970000"><ele>621</ele><time>2016-10-15T10:04:35Z</time></trkpt>
<trkpt lat="53.1016910000" lon="-4.1566930000"><ele>621</ele><time>2016-10-15T10:04:36Z</time></trkpt>
<trkpt lat="53.1016850000" lon="-4.1566900000"><ele>621</ele><time>2016-10-15T10:04:37Z</time></trkpt>
<trkpt lat="53.1016780000" lon="-4.1566860000"><ele>621</ele><time>2016-10-15T10:04:38Z</time></trkpt>
<trkpt lat="53.1016720000" lon="-4.1566820000"><ele>622</ele><time>2016-10-15T10:04:39Z</time></trkpt>
<trkpt lat="53.1016590000" lon="-4.1566750000"><ele>622</ele><time>2016-10-15T10:04:42Z</time></trkpt>
<trkpt lat="53.1016530000" lon="-4.1566720000"><ele>622</ele></trkpt>
<trkpt lat="53.1016460000" lon="-4.1566680000"><ele>623</ele><time>2016-10-15T10:04:43Z</time></trkpt>
<trkpt lat="53.1016400000" lon="-4.1566640000"><ele>623</ele><time>2016-10-15T10:04:44Z</time></trkpt>
<trkpt lat="53.1016340000" lon="-4.1566600000"><ele>623</ele><time>2016-10-15T10:04:45Z</time></trkpt>
<trkpt lat="53.1016270000" lon="-4.1566560000"><ele>623</ele><time>2016-10-15T10:04:46Z</time></trkpt>
<trkpt lat="53.1016210000" lon="-4.1566530000"><ele>624</ele><time>2016-10-15T10:04:47Z</time></trkpt>
<trkpt lat="53.1016150000" lon="-4.1566490000"><ele>624</ele><time>2016-10-15T10:04:48Z</time></trkpt>
<trkpt lat="53.1016090000" lon="-4.1566460000"><ele>624</ele><time>2016-10-15T10:04:49Z</time></trkpt>
<trkpt lat="53.1016030000" lon="-4.1566430000"><ele>624</ele><time>2016-10-15T10:04:50Z</time></trkpt>
<trkpt lat="53.1015970000" lon="-4.1566400000"><ele>625</ele><time>2016-10-15T10:04:51Z</time></trkpt>
<trkpt lat="53.1015910000" lon="-4.1566370000"><ele>625</ele><time>2016-10-15T10:04:52Z</time></trkpt>
<trkpt lat="53.1015850000" lon="-4.1566340000"><ele>625</ele><time>2016-10-15T10:04:53Z</time></trkpt>
<trkpt lat="53.1015790000" lon="-4.1566310000"><ele>625</ele><time>2016-10-15T10:04:54Z</time></trkpt>
<trkpt lat="53.1015730000" lon="-4.1566280000"><ele>626</ele><time>2016-10-15T10:04:55Z</time></trkpt>
<trkpt lat="53.1015670000" lon="-4.1566240000"><ele>626</ele><time>2016-10-15T10:04:56Z</time></trkpt>
<trkpt lat="53.1015610000" lon="-4.1566210000"><ele>626</ele><time>2016-10-15T10:04:57Z</time></trkpt>
<trkpt lat="53.1015540000" lon="-4.1566180000"><ele>626</ele><time>2016-10-15T10:04:58Z</time></trkpt>
<trkpt lat="53.1015480000" lon="-4.1566150000"><ele>627</ele><time>2016-10-15T10:04:59Z</time></trkpt>
<trkpt lat="53.1015420000" lon="-4.1566120000"><ele>627</ele><time>2016-10-15T10:05:00Z</time></trkpt>
<trkpt lat="53.1015350000" lon="-4.1566090000"><ele>627</ele><time>2016-10-15T10:05:01Z</time></trkpt>
<trkpt lat="53.1015290000" lon="-4.1566060000"><ele>627</ele><time>2016-10-15T10:05:02Z</time></trkpt>
<trkpt lat="53.1015230000" lon="-4.1566030000"><ele>627</ele><time>2016-10-15T10:05:03Z</time></trkpt>
<trkpt lat="53.1015170000" lon="-4.1566000000"><ele>628</ele><time>2016-10-15T10:05:04Z</time></trkpt>
<trkpt lat="53.1015100000" lon="-4.1565980000"><ele>628</ele><time>2016-10-15T10:05:05Z</time></trkpt>
<trkpt lat="53.1015040000" lon="-4.1565950000"><ele>628</ele><time>2016-10-15T10:05:06Z</time></trkpt>
<trkpt lat="53.1014970000" lon="-4.1565930000"><ele>628</ele><time>2016-10-15T10:05:07Z</time></trkpt>
<trkpt lat="53.1014900000" lon="-4.1565910000"><ele>628</ele><time>2016-10-15T10:05:08Z</time></trkpt>
<trkpt lat="53.1014840000" lon="-4.1565890000"><ele>629</ele><time>2016-10-15T10:05:09Z</time></trkpt>
<trkpt lat="53.1014770000" lon="-4.1565880000"><ele>629</ele><time>2016-10-15T10:05:10Z</time></trkpt>
<trkpt lat="53.1014700000" lon="-4.1565860000"><ele>629</ele><time>2016-10-15T10:05:11Z</time></trkpt>
<trkpt lat="53.1014630000" lon="-4.1565850000"><ele>629</ele><time>2016-10-15T10:05:12Z</time></trkpt>
<trkpt lat="53.1014570000" lon="-4.1565840000"><ele>629</ele><time>2016-10-15T10:05:13Z</time></trkpt>
<trkpt lat="53.1014500000" lon="-4.1565830000"><ele>630</ele><time>2016-10-15T10:05:14Z</time></trkpt>
<trkpt lat="53.1014440000" lon="-4.1565830000"><ele>630</ele><time>2016-10-15T10:05:15Z</time></trkpt>
<trkpt lat="53.1014370000" lon="-4.1565820000"><ele>630</ele><time>2016-10-15T10:05:16Z</time></trkpt>
<trkpt lat="53.1014310000" lon="-4.1565810000"><ele>630</ele><time>2016-10-15T10:05:17Z</time></trkpt>
<trkpt lat="53.1014240000" lon="-4.1565800000"><ele>630</ele><time>2016-10-15T10:05:18Z</time></trkpt>
<trkpt lat="53.1014180000" lon="-4.1565790000"><ele>630</ele><time>2016-10-15T10:05:19Z</time></trkpt>
<trkpt lat="53.1014120000" lon="-4.1565780000"><ele>630</ele><time>2016-10-15T10:05:20Z</time></trkpt>
<trkpt lat="53.1014060000" lon="-4.1565770000"><ele>631</ele><time>2016-10-15T10:05:21Z</time></trkpt>
<trkpt lat="53.1013990000" lon="-4.1565770000"><ele>631</ele><time>2016-10-15T10:05:22Z</time></trkpt>
<trkpt lat="53.1013930000" lon="-4.1565760000"><ele>631</ele><time>2016-10-15T10:05:23Z</time></trkpt>
<trkpt lat="53.1013870000" lon="-4.1565760000"><ele>631</ele><time>2016-10-15T10:05:24Z</time></trkpt>
<trkpt lat="53.1013800000" lon="-4.1565760000"><ele>632</ele><time>2016-10-15T10:05:25Z</time></trkpt>
<trkpt lat="53.1013740000" lon="-4.1565750000"><ele>632</ele><time>2016-10-15T10:05:26Z</time></trkpt>
<trkpt lat="53.1013670000" lon="-4.1565750000"><ele>632</ele><time>2016-10-15T10:05:27Z</time></trkpt>
<trkpt lat="53.1013610000" lon="-4.1565750000"><ele>632</ele><time>2016-10-15T10:05:28Z</time></trkpt>
<trkpt lat="53.1013540000" lon="-4.1565750000"><ele>632</ele><time>2016-10-15T10:05:29Z</time></trkpt>
<trkpt lat="53.1013480000" lon="-4.1565740000"><ele>633</ele><time>2016-10-15T10:05:30Z</time></trkpt>
<trkpt lat="53.1013410000" lon="-4.1565730000"><ele>633</ele><time>2016-10-15T10:05:31Z</time></trkpt>
<trkpt lat="53.1013350000" lon="-4.1565720000"><ele>633</ele><time>2016-10-15T10:05:32Z</time></trkpt>
<trkpt lat="53.1013280000" lon="-4.1565710000"><ele>633</ele><time>2016-10-15T10:05:33Z</time></trkpt>
<trkpt lat="53.1013220000" lon="-4.1565700000"><ele>633</ele><time>2016-10-15T10:05:34Z</time></trkpt>
<trkpt lat="53.1013150000" lon="-4.1565680000"><ele>633</ele><time>2016-10-15T10:05:35Z</time></trkpt>
<trkpt lat="53.1013080000" lon="-4.1565660000"><ele>634</ele><time>2016-10-15T10:05:36Z</time></trkpt>
<trkpt lat="53.1013020000" lon="-4.1565640000"><ele>634</ele><time>2016-10-15T10:05:37Z</time></trkpt>
<trkpt lat="53.1012950000" lon="-4.1565620000"><ele>634</ele><time>2016-10-15T10:05:38Z</time></trkpt>
<trkpt lat="53.1012880000" lon="-4.1565600000"><ele>634</ele><time>2016-10-15T10:05:39Z</time></trkpt>
<trkpt lat="53.1012750000" lon="-4.1565550000"><ele>634</ele><time>2016-10-15T10:05:42Z</time></trkpt>
<trkpt lat="53.1012690000" lon="-4.1565520000"><ele>635</ele></trkpt>
<trkpt lat="53.1012630000" lon="-4.1565490000"><ele>635</ele><time>2016-10-15T10:05:43Z</time></trkpt>
<trkpt lat="53.1012580000" lon="-4.1565450000"><ele>635</ele><time>2016-10-15T10:05:44Z</time></trkpt>
<trkpt lat="53.1012520000" lon="-4.1565420000"><ele>635</ele><time>2016-10-15T10:05:45Z</time></trkpt>
<trkpt lat="53.1012460000" lon="-4.1565380000"><ele>635</ele><time>2016-10-15T10:05:46Z</time></trkpt>
<trkpt lat="53.1012410000" lon="-4.1565350000"><ele>636</ele><time>2016-10-15T10:05:47Z</time></trkpt>
<trkpt lat="53.1012350000" lon="-4.1565320000"><ele>636</ele><time>2016-10-15T10:05:48Z</time></trkpt>
<trkpt lat="53.1012290000" lon="-4.1565290000"><ele>636</ele><time>2016-10-15T10:05:49Z</time></trkpt>
<trkpt lat="53.1012240000" lon="-4.1565260000"><ele>636</ele><time>2016-10-15T10:05:50Z</time></trkpt>
<trkpt lat="53.1012180000" lon="-4.1565240000"><ele>636</ele><time>2016-10-15T10:05:51Z</time></trkpt>
<trkpt lat="53.1012120000" lon="-4.1565210000"><ele>637</ele><time>2016-10-15T10:05:52Z</time></trkpt>
<trkpt lat="53.1012070000" lon="-4.1565180000"><ele>637</ele><time>2016-10-15T10:05:53Z</time></trkpt>
<trkpt lat="53.1012010000" lon="-4.1565160000"><ele>637</ele><time>2016-10-15T10:05:54Z</time></trkpt>
<trkpt lat="53.1011950000" lon="-4.1565130000"><ele>637</ele><time>2016-10-15T10:05:55Z</time></trkpt>
<trkpt lat="53.1011900000" lon="-4.1565100000"><ele>637</ele><time>2016-10-15T10:05:56Z</time></trkpt>
<trkpt lat="53.1011840000" lon="-4.1565070000"><ele>637</ele><time>2016-10-15T10:05:57Z</time></trkpt>
<trkpt lat="53.1011780000" lon="-4.1565040000"><ele>638</ele><time>2016-10-15T10:05:58Z</time></trkpt>
<trkpt lat="53.1011730000" lon="-4.1565010000"><ele>638</ele><time>2016-10-15T10:05:59Z</time></trkpt>
<trkpt lat="53.1011670000" lon="-4.1564980000"><ele>638</ele><time>2016-10-15T10:06:00Z</time></trkpt>
<trkpt lat="53.1011610000" lon="-4.1564950000"><ele>638</ele><time>2016-10-15T10:06:01Z</time></trkpt>
<trkpt lat="53.1011550000" lon="-4.1564920000"><ele>638</ele><time>2016-10-15T10:06:02Z</time></trkpt>
<trkpt lat="53.1011500000" lon="-4.1564890000"><ele>638</ele><time>2016-10-15T10:06:03Z</time></trkpt>
<trkpt lat="53.1011440000" lon="-4.1564870000"><ele>638</ele><time>2016-10-15T10:06:04Z</time></trkpt>
<trkpt lat="53.1011380000" lon="-4.1564840000"><ele>638</ele><time>2016-10-15T10:06:05Z</time></trkpt>
<trkpt lat="53.1011330000" lon="-4.1564810000"><ele>639</ele><time>2016-10-15T10:06:06Z</time></trkpt>
<trkpt lat="53.1011270000" lon="-4.1564780000"><ele>639</ele><time>2016-10-15T10:06:07Z</time></trkpt>
<trkpt lat="53.1011220000" lon="-4.1564750000"><ele>639</ele><time>2016-10-15T10:06:08Z</time></trkpt>
<trkpt lat="53.1011160000" lon="-4.1564720000"><ele>639</ele><time>2016-10-15T10:06:09Z</time></trkpt>
<trkpt lat="53.1011100000" lon="-4.1564700000"><ele>639</ele><time>2016-10-15T10:06:10Z</time></trkpt>
<trkpt lat="53.1011050000" lon="-4.1564670000"><ele>640</ele><time>2016-10-15T10:06:11Z</time></trkpt>
<trkpt lat="53.1010990000" lon="-4.1564640000"><ele>640</ele><time>2016-10-15T10:06:12Z</time></trkpt>
<trkpt lat="53.1010930000" lon="-4.1564620000"><ele>640</ele><time>2016-10-15T10:06:13Z</time></trkpt>
<trkpt lat="53.1010870000" lon="-4.1564590000"><ele>640</ele><time>2016-10-15T10:06:14Z</time></trkpt>
<trkpt lat="53.1010810000" lon="-4.1564550000"><ele>641</ele><time>2016-10-15T10:06:15Z</time></trkpt>
<trkpt lat="53.1010750000" lon="-4.1564510000"><ele>641</ele><time>2016-10-15T10:06:16Z</time></trkpt>
<trkpt lat="53.1010690000" lon="-4.1564470000"><ele>641</ele><time>2016-10-15T10:06:17Z</time></trkpt>
<trkpt lat="53.1010630000" lon="-4.1564440000"><ele>641</ele><time>2016-10-15T10:06:18Z</time></trkpt>
<trkpt lat="53.1010570000" lon="-4.1564400000"><ele>641</ele><time>2016-10-15T10:06:19Z</time></trkpt>
<trkpt lat="53.1010500000" lon="-4.1564360000"><ele>642</ele><time>2016-10-15T10:06:20Z</time></trkpt>
<trkpt lat="53.1010440000" lon="-4.1564330000"><ele>642</ele><time>2016-10-15T10:06:21Z</time></trkpt>
<trkpt lat="53.1010380000" lon="-4.1564300000"><ele>642</ele><time>2016-10-15T10:06:22Z</time></trkpt>
<trkpt lat="53.1010310000" lon="-4.1564260000"><ele>642</ele><time>2016-10-15T10:06:23Z</time></trkpt>
<trkpt lat="53.1010240000" lon="-4.1564230000"><ele>642</ele><time>2016-10-15T10:06:24Z</time></trkpt>
<trkpt lat="53.1010180000" lon="-4.1564200000"><ele>643</ele><time>2016-10-15T10:06:25Z</time></trkpt>
<trkpt lat="53.1010110000" lon="-4.1564170000"><ele>643</ele><time>2016-10-15T10:06:26Z</time></trkpt>
<trkpt lat="53.1010050000" lon="-4.1564140000"><ele>643</ele><time>2016-10-15T10:06:27Z</time></trkpt>
<trkpt lat="53.1009990000" lon="-4.1564120000"><ele>643</ele><time>2016-10-15T10:06:28Z</time></trkpt>
<trkpt lat="53.1009930000" lon="-4.1564090000"><ele>643</ele><time>2016-10-15T10:06:29Z</time></trkpt>
<trkpt lat="53.1009870000" lon="-4.1564060000"><ele>644</ele><time>2016-10-15T10:06:30Z</time></trkpt>
<trkpt lat="53.1009800000" lon="-4.1564040000"><ele>644</ele><time>2016-10-15T10:06:31Z</time></trkpt>
<trkpt lat="53.1009740000" lon="-4.1564010000"><ele>644</ele><time>2016-10-15T10:06:32Z</time></trkpt>
<trkpt lat="53.1009680000" lon="-4.1563990000"><ele>644</ele><time>2016-10-15T10:06:33Z</time></trkpt>
<trkpt lat="53.1009620000" lon="-4.1563970000"><ele>644</ele><time>2016-10-15T10:06:34Z</time></trkpt>
<trkpt lat="53.1009560000" lon="-4.1563940000"><ele>645</ele><time>2016-10-15T10:06:35Z</time></trkpt>
<trkpt lat="53.1009500000" lon="-4.1563920000"><ele>645</ele><time>2016-10-15T10:06:36Z</time></trkpt>
<trkpt lat="53.1009430000" lon="-4.1563900000"><ele>645</ele><time>2016-10-15T10:06:37Z</time></trkpt>
<trkpt lat="53.1009370000" lon="-4.1563890000"><ele>645</ele><time>2016-10-15T10:06:38Z</time></trkpt>
<trkpt lat="53.1009310000" lon="-4.1563870000"><ele>645</ele><time>2016-10-15T10:06:39Z</time></trkpt>
<trkpt lat="53.1009190000" lon="-4.1563860000"><ele>646</ele><time>2016-10-15T10:06:42Z</time></trkpt>
<trkpt lat="53.1009130000" lon="-4.1563850000"><ele>646</ele></trkpt>
<trkpt lat="53.1009080000" lon="-4.1563850000"><ele>646</ele><time>2016-10-15T10:06:43Z</time></trkpt>
<trkpt lat="53.1009020000" lon="-4.1563840000"><ele>646</ele><time>2016-10-15T10:06:44Z</time></trkpt>
<trkpt lat="53.1008960000" lon="-4.1563840000"><ele>646</ele><time>2016-10-15T10:06:45Z</time></trkpt>
<trkpt lat="53.1008910000" lon="-4.1563840000"><ele>647</ele><time>2016-10-15T10:06:46Z</time></trkpt>
<trkpt lat="53.1008850000" lon="-4.1563840000"><ele>647</ele><time>2016-10-15T10:06:47Z</time></trkpt>
<trkpt lat="53.1008800000" lon="-4.1563840000"><ele>647</ele><time>2016-10-15T10:06:48Z</time></trkpt>
<trkpt lat="53.1008740000" lon="-4.1563840000"><ele>647</ele><time>2016-10-15T10:06:49Z</time></trkpt>
<trkpt lat="53.1008690000" lon="-4.1563850000"><ele>648</ele><time>2016-10-15T10:06:50Z</time></trkpt>
<trkpt lat="53.1008630000" lon="-4.1563850000"><ele>648</ele><time>2016-10-15T10:06:51Z</time></trkpt>
<trkpt lat="53.1008580000" lon="-4.1563860000"><ele>648</ele><time>2016-10-15T10:06:52Z</time></trkpt>
<trkpt lat="53.1008530000" lon="-4.1563880000"><ele>648</ele><time>2016-10-15T10:06:53Z</time></trkpt>
<trkpt lat="53.1008470000" lon="-4.1563890000"><ele>649</ele><time>2016-10-15T10:06:54Z</time></trkpt>
<trkpt lat="53.1008420000" lon="-4.1563910000"><ele>649</ele><time>2016-10-15T10:06:55Z</time></trkpt>
<trkpt lat="53.1008370000" lon="-4.1563930000"><ele>649</ele><time>2016-10-15T10:06:56Z</time></trkpt>
<trkpt lat="53.1008320000" lon="-4.1563940000"><ele>649</ele><time>2016-10-15T10:06:57Z</time></trkpt>
<trkpt lat="53.1008270000" lon="-4.1563960000"><ele>649</ele><time>2016-10-15T10:06:58Z</time></trkpt>
<trkpt lat="53.1008220000" lon="-4.1563970000"><ele>650</ele><time>2016-10-15T10:06:59Z</time></trkpt>
<trkpt lat="53.1008170000" lon="-4.1563990000"><ele>650</ele><time>2016-10-15T10:07:00Z</time></trkpt>
<trkpt lat="53.1008120000" lon="-4.1564000000"><ele>650</ele><time>2016-10-15T10:07:01Z</time></trkpt>
<trkpt lat="53.1008060000" lon="-4.1564010000"><ele>650</ele><time>2016-10-15T10:07:02Z</time></trkpt>
<trkpt lat="53.1008010000" lon="-4.1564020000"><ele>650</ele><time>2016-10-15T10:07:03Z</time></trkpt>
<trkpt lat="53.1007960000" lon="-4.1564040000"><ele>651</ele><time>2016-10-15T10:07:04Z</time></trkpt>
<trkpt lat="53.1007910000" lon="-4.1564060000"><ele>651</ele><time>2016-10-15T10:07:05Z</time></trkpt>
<trkpt lat="53.1007860000" lon="-4.1564080000"><ele>651</ele><time>2016-10-15T10:07:06Z</time></trkpt>
<trkpt lat="53.1007810000" lon="-4.1564100000"><ele>651</ele><time>2016-10-15T10:07:07Z</time></trkpt>
<trkpt lat="53.1007750000" lon="-4.1564130000"><ele>651</ele><time>2016-10-15T10:07:08Z</time></trkpt>
<trkpt lat="53.1007700000" lon="-4.1564150000"><ele>652</ele><time>2016-10-15T10:07:09Z</time></trkpt>
<trkpt lat="53.1007650000" lon="-4.1564180000"><ele>652</ele><time>2016-10-15T10:07:10Z</time></trkpt>
<trkpt lat="53.1007590000" lon="-4.1564210000"><ele>652</ele><time>2016-10-15T10:07:11Z</time></trkpt>
<trkpt lat="53.1007540000" lon="-4.1564240000"><ele>652</ele><time>2016-10-15T10:07:12Z</time></trkpt>
<trkpt lat="53.1007480000" lon="-4.1564280000"><ele>653</ele><time>2016-10-15T10:07:13Z</time></trkpt>
<trkpt lat="53.1007430000" lon="-4.1564300000"><ele>653</ele><time>2016-10-15T10:07:14Z</time></trkpt>
<trkpt lat="53.1007370000" lon="-4.1564330000"><ele>653</ele><time>2016-10-15T10:07:15Z</time></trkpt>
<trkpt lat="53.1007320000" lon="-4.1564360000"><ele>653</ele><time>2016-10-15T10:07:16Z</time></trkpt>
<trkpt lat="53.1007260000" lon="-4.1564380000"><ele>654</ele><time>2016-10-15T10:07:17Z</time></trkpt>
<trkpt lat="53.1007210000" lon="-4.1564410000"><ele>654</ele><time>2016-10-15T10:07:18Z</time></trkpt>
<trkpt lat="53.1007150000" lon="-4.1564440000"><ele>654</ele><time>2016-10-15T10:07:19Z</time></trkpt>
<trkpt lat="53.1007090000" lon="-4.1564470000"><ele>654</ele><time>2016-10-15T10:07:20Z</time></trkpt>
<trkpt lat="53.1007030000" lon="-4.1564490000"><ele>655</ele><time>2016-10-15T10:07:21Z</time></trkpt>
<trkpt lat="53.1006980000" lon="-4.1564530000"><ele>655</ele><time>2016-10-15T10:07:22Z</time></trkpt>
<trkpt lat="53.1006920000" lon="-4.1564560000"><ele>655</ele><time>2016-10-15T10:07:23Z</time></trkpt>
<trkpt lat="53.1006870000" lon="-4.1564590000"><ele>655</ele><time>2016-10-15T10:07:24Z</time></trkpt>
<trkpt lat="53.1006810000" lon="-4.1564620000"><ele>656</ele><time>2016-10-15T10:07:25Z</time></trkpt>
<trkpt lat="53.1006760000" lon="-4.1564660000"><ele>656</ele><time>2016-10-15T10:07:26Z</time></trkpt>
<trkpt lat="53.1006710000" lon="-4.1564700000"><ele>656</ele><time>2016-10-15T10:07:27Z</time></trkpt>
<trkpt lat="53.1006660000" lon="-4.1564730000"><ele>656</ele><time>2016-10-15T10:07:28Z</time></trkpt>
<trkpt lat="53.1006600000" lon="-4.1564770000"><ele>657</ele><time>2016-10-15T10:07:29Z</time></trkpt>
<trkpt lat="53.1006550000" lon="-4.1564800000"><ele>657</ele><time>2016-10-15T10:07:30Z</time></trkpt>
<trkpt lat="53.1006510000" lon="-4.1564830000"><ele>657</ele><time>2016-10-15T10:07:31Z</time></trkpt>
<trkpt lat="53.1006470000" lon="-4.1564860000"><ele>657</ele><time>2016-10-15T10:07:32Z</time></trkpt>
<trkpt lat="53.1006430000" lon="-4.1564880000"><ele>657</ele><time>2016-10-15T10:07:33Z</time></trkpt>
<trkpt lat="53.1006390000" lon="-4.1564900000"><ele>657</ele><time>2016-10-15T10:07:34Z</time></trkpt>
<trkpt lat="53.1006360000" lon="-4.1564920000"><ele>657</ele><time>2016-10-15T10:07:35Z</time></trkpt>
<trkpt lat="53.1006320000" lon="-4.1564930000"><ele>658</ele><time>2016-10-15T10:07:36Z</time></trkpt>
<trkpt lat="53.1006280000" lon="-4.1564950000"><ele>658</ele><time>2016-10-15T10:07:37Z</time></trkpt>
<trkpt lat="53.1006240000" lon="-4.1564970000"><ele>658</ele><time>2016-10-15T10:07:38Z</time></trkpt>
<trkpt lat="53.1006190000" lon="-4.1564990000"><ele>658</ele><time>2016-10-15T10:07:39Z</time></trkpt>
<trkpt lat="53.1006110000" lon="-4.1565030000"><ele>658</ele><time>2016-10-15T10:07:42Z</time></trkpt>
<trkpt lat="53.1006060000" lon="-4.1565050000"><ele>658</ele></trkpt>
<trkpt lat="53.1006020000" lon="-4.1565070000"><ele>658</ele><time>2016-10-15T10:07:43Z</time></trkpt>
<trkpt lat="53.1005970000" lon="-4.1565080000"><ele>658</ele><time>2016-10-15T10:07:44Z</time></trkpt>
<trkpt lat="53.1005930000" lon="-4.1565100000"><ele>658</ele><time>2016-10-15T10:07:45Z</time></trkpt>
<trkpt lat="53.1005880000" lon="-4.1565120000"><ele>659</ele><time>2016-10-15T10:07:46Z</time></trkpt>
<trkpt lat="53.1005830000" lon="-4.1565130000"><ele>659</ele><time>2016-10-15T10:07:47Z</time></trkpt>
<trkpt lat="53.1005780000" lon="-4.1565150000"><ele>659</ele><time>2016-10-15T10:07:48Z</time></trkpt>
<trkpt lat="53.1005730000" lon="-4.1565160000"><ele>659</ele><time>2016-10-15T10:07:49Z</time></trkpt>
<trkpt lat="53.1005680000" lon="-4.1565180000"><ele>659</ele><time>2016-10-15T10:07:50Z</time></trkpt>
<trkpt lat="53.1005620000" lon="-4.1565200000"><ele>659</ele><time>2016-10-15T10:07:51Z</time></trkpt>
<trkpt lat="53.1005570000" lon="-4.1565220000"><ele>659</ele><time>2016-10-15T10:07:52Z</time></trkpt>
<trkpt lat="53.1005510000" lon="-4.1565240000"><ele>659</ele><time>2016-10-15T10:07:53Z</time></trkpt>
<trkpt lat="53.1005450000" lon="-4.1565260000"><ele>660</ele><time>2016-10-15T10:07:54Z</time></trkpt>
<trkpt lat="53.1005400000" lon="-4.1565290000"><ele>660</ele><time>2016-10-15T10:07:55Z</time></trkpt>
<trkpt lat="53.1005340000" lon="-4.1565310000"><ele>660</ele><time>2016-10-15T10:07:56Z</time></trkpt>
<trkpt lat="53.1005290000" lon="-4.1565340000"><ele>660</ele><time>2016-10-15T10:07:57Z</time></trkpt>
<trkpt lat="53.1005230000" lon="-4.1565370000"><ele>660</ele><time>2016-10-15T10:07:58Z</time></trkpt>
<trkpt lat="53.1005180000" lon="-4.1565400000"><ele>660</ele><time>2016-10-15T10:07:59Z</time></trkpt>
<trkpt lat="53.1005120000" lon="-4.1565440000"><ele>660</ele><time>2016-10-15T10:08:00Z</time></trkpt>
<trkpt lat="53.1005070000" lon="-4.1565480000"><ele>661</ele><time>2016-10-15T10:08:01Z</time></trkpt>
<trkpt lat="53.1005020000" lon="-4.1565530000"><ele>661</ele><time>2016-10-15T10:08:02Z</time></trkpt>
<trkpt lat="53.1004960000" lon="-4.1565570000"><ele>661</ele><time>2016-10-15T10:08:03Z</time></trkpt>
<trkpt lat="53.1004910000" lon="-4.1565620000"><ele>661</ele><time>2016-10-15T10:08:04Z</time></trkpt>
<trkpt lat="53.1004860000" lon="-4.1565670000"><ele>661</ele><time>2016-10-15T10:08:05Z</time></trkpt>
<trkpt lat="53.1004810000" lon="-4.1565720000"><ele>662</ele><time>2016-10-15T10:08:06Z</time></trkpt>
<trkpt lat="53.1004760000" lon="-4.1565770000"><ele>662</ele><time>2016-10-15T10:08:07Z</time></trkpt>
<trkpt lat="53.1004710000" lon="-4.1565820000"><ele>662</ele><time>2016-10-15T10:08:08Z</time></trkpt>
<trkpt lat="53.1004670000" lon="-4.1565880000"><ele>662</ele><time>2016-10-15T10:08:09Z</time></trkpt>
<trkpt lat="53.1004620000" lon="-4.1565940000"><ele>662</ele><time>2016-10-15T10:08:10Z</time></trkpt>
<trkpt lat="53.1004580000" lon="-4.1566000000"><ele>663</ele><time>2016-10-15T10:08:11Z</time></trkpt>
<trkpt lat="53.1004530000" lon="-4.1566060000"><ele>663</ele><time>2016-10-15T10:08:12Z</time></trkpt>
<trkpt lat="53.1004480000" lon="-4.1566130000"><ele>663</ele><time>2016-10-15T10:08:13Z</time></trkpt>
<trkpt lat="53.1004440000" lon="-4.1566190000"><ele>663</ele><time>2016-10-15T10:08:14Z</time></trkpt>
<trkpt lat="53.1004390000" lon="-4.1566250000"><ele>663</ele><time>2016-10-15T10:08:15Z</time></trkpt>
<trkpt lat="53.1004340000" lon="-4.1566310000"><ele>664</ele><time>2016-10-15T10:08:16Z</time></trkpt>
<trkpt lat="53.1004290000" lon="-4.1566370000"><ele>664</ele><time>2016-10-15T10:08:17Z</time></trkpt>
<trkpt lat="53.1004250000" lon="-4.1566430000"><ele>664</ele><time>2016-10-15T10:08:18Z</time></trkpt>
<trkpt lat="53.1004200000" lon="-4.1566490000"><ele>664</ele><time>2016-10-15T10:08:19Z</time></trkpt>
<trkpt lat="53.1004140000" lon="-4.1566550000"><ele>664</ele><time>2016-10-15T10:08:20Z</time></trkpt>
<trkpt lat="53.1004090000" lon="-4.1566610000"><ele>664</ele><time>2016-10-15T10:08:21Z</time></trkpt>
<trkpt lat="53.1004040000" lon="-4.1566660000"><ele>664</ele><time>2016-10-15T10:08:22Z</time></trkpt>
<trkpt lat="53.1003980000" lon="-4.1566710000"><ele>665</ele><time>2016-10-15T10:08:23Z</time></trkpt>
<trkpt lat="53.1003930000" lon="-4.1566760000"><ele>665</ele><time>2016-10-15T10:08:24Z</time></trkpt>
<trkpt lat="53.1003870000" lon="-4.1566800000"><ele>665</ele><time>2016-10-15T10:08:25Z</time></trkpt>
<trkpt lat="53.1003810000" lon="-4.1566840000"><ele>665</ele><time>2016-10-15T10:08:26Z</time></trkpt>
<trkpt lat="53.1003760000" lon="-4.1566870000"><ele>665</ele><time>2016-10-15T10:08:27Z</time></trkpt>
<trkpt lat="53.1003700000" lon="-4.1566890000"><ele>665</ele><time>2016-10-15T10:08:28Z</time></trkpt>
<trkpt lat="53.1003630000" lon="-4.1566910000"><ele>665</ele><time>2016-10-15T10:08:29Z</time></trkpt>
<trkpt lat="53.1003570000" lon="-4.1566930000"><ele>666</ele><time>2016-10-15T10:08:30Z</time></trkpt>
<trkpt lat="53.1003510000" lon="-4.1566940000"><ele>666</ele><time>2016-10-15T10:08:31Z</time></trkpt>
<trkpt lat="53.1003440000" lon="-4.1566960000"><ele>666</ele><time>2016-10-15T10:08:32Z</time></trkpt>
<trkpt lat="53.1003380000" lon="-4.1566970000"><ele>666</ele><time>2016-10-15T10:08:33Z</time></trkpt>
<trkpt lat="53.1003310000" lon="-4.1566990000"><ele>666</ele><time>2016-10-15T10:08:34Z</time></trkpt>
<trkpt lat="53.1003240000" lon="-4.1567000000"><ele>666</ele><time>2016-10-15T10:08:35Z</time></trkpt>
<trkpt lat="53.1003170000" lon="-4.1567020000"><ele>666</ele><time>2016-10-15T10:08:36Z</time></trkpt>
<trkpt lat="53.1003100000" lon="-4.1567040000"><ele>666</ele><time>2016-10-15T10:08:37Z</time></trkpt>
<trkpt lat="53.1003030000" lon="-4.1567060000"><ele>667</ele><time>2016-10-15T10:08:38Z</time></trkpt>
<trkpt lat="53.1002960000" lon="-4.1567080000"><ele>667</ele><time>2016-10-15T10:08:39Z</time></trkpt>
<trkpt lat="53.1002820000" lon="-4.1567120000"><ele>667</ele><time>2016-10-15T10:08:42Z</time></trkpt>
<trkpt lat="53.1002740000" lon="-4.1567150000"><ele>667</ele></trkpt>
<trkpt lat="53.1002670000" lon="-4.1567170000"><ele>667</ele><time>2016-10-15T10:08:43Z</time></trkpt>
<trkpt lat="53.1002590000" lon="-4.1567200000"><ele>668</ele><time>2016-10-15T10:08:44Z</time></trkpt>
<trkpt lat="53.1002520000" lon="-4.1567220000"><ele>668</ele><time>2016-10-15T10:08:45Z</time></trkpt>
<trkpt lat="53.1002440000" lon="-4.1567250000"><ele>668</ele><time>2016-10-15T10:08:46Z</time></trkpt>
<trkpt lat="53.1002370000" lon="-4.1567280000"><ele>668</ele><time>2016-10-15T10:08:47Z</time></trkpt>
<trkpt lat="53.1002300000" lon="-4.1567300000"><ele>669</ele><time>2016-10-15T10:08:48Z</time></trkpt>
<trkpt lat="53.1002220000" lon="-4.1567330000"><ele>669</ele><time>2016-10-15T10:08:49Z</time></trkpt>
<trkpt lat="53.1002150000" lon="-4.1567350000"><ele>669</ele><time>2016-10-15T10:08:50Z</time></trkpt>
<trkpt lat="53.1002080000" lon="-4.1567380000"><ele>669</ele><time>2016-10-15T10:08:51Z</time></trkpt>
<trkpt lat="53.1002010000" lon="-4.1567410000"><ele>669</ele><time>2016-10-15T10:08:52Z</time></trkpt>
<trkpt lat="53.1001960000" lon="-4.1567420000"><ele>669</ele><time>2016-10-15T10:08:53Z</time></trkpt>
<trkpt lat="53.1001910000" lon="-4.1567440000"><ele>669</ele><time>2016-10-15T10:08:54Z</time></trkpt>
<trkpt lat="53.1001860000" lon="-4.1567460000"><ele>670</ele><time>2016-10-15T10:08:55Z</time></trkpt>
<trkpt lat="53.1001830000" lon="-4.1567470000"><ele>670</ele><time>2016-10-15T10:08:56Z</time></trkpt>
<trkpt lat="53.1001780000" lon="-4.1567490000"><ele>670</ele><time>2016-10-15T10:08:57Z</time></trkpt>
<trkpt lat="53.1001730000" lon="-4.1567520000"><ele>670</ele><time>2016-10-15T10:08:58Z</time></trkpt>
<trkpt lat="53.1001670000" lon="-4.1567540000"><ele>670</ele><time>2016-10-15T10:08:59Z</time></trkpt>
<trkpt lat="53.1001620000" lon="-4.1567560000"><ele>670</ele><time>2016-10-15T10:09:00Z</time></trkpt>
<trkpt lat="53.1001570000" lon="-4.1567570000"><ele>671</ele><time>2016-10-15T10:09:01Z</time></trkpt>
<trkpt lat="53.1001520000" lon="-4.1567590000"><ele>671</ele><time>2016-10-15T10:09:02Z</time></trkpt>
<trkpt lat="53.1001470000" lon="-4.1567600000"><ele>671</ele><time>2016-10-15T10:09:03Z</time></trkpt>
<trkpt lat="53.1001410000" lon="-4.1567610000"><ele>671</ele><time>2016-10-15T10:09:04Z</time></trkpt>
<trkpt lat="53.1001360000" lon="-4.1567630000"><ele>671</ele><time>2016-10-15T10:09:05Z</time></trkpt>
<trkpt lat="53.1001310000" lon="-4.1567640000"><ele>671</ele><time>2016-10-15T10:09:06Z</time></trkpt>
<trkpt lat="53.1001260000" lon="-4.1567660000"><ele>671</ele><time>2016-10-15T10:09:07Z</time></trkpt>
<trkpt lat="53.1001210000" lon="-4.1567670000"><ele>671</ele><time>2016-10-15T10:09:08Z</time></trkpt>
<trkpt lat="53.1001150000" lon="-4.1567690000"><ele>671</ele><time>2016-10-15T10:09:09Z</time></trkpt>
<trkpt lat="53.1001100000" lon="-4.1567710000"><ele>671</ele><time>2016-10-15T10:09:10Z</time></trkpt>
<trkpt lat="53.1001050000" lon="-4.1567730000"><ele>671</ele><time>2016-10-15T10:09:11Z</time></trkpt>
<trkpt lat="53.1001000000" lon="-4.1567750000"><ele>671</ele><time>2016-10-15T10:09:12Z</time></trkpt>
<trkpt lat="53.1000950000" lon="-4.1567770000"><ele>671</ele><time>2016-10-15T10:09:13Z</time></trkpt>
<trkpt lat="53.1000900000" lon="-4.1567790000"><ele>672</ele><time>2016-10-15T10:09:14Z</time></trkpt>
<trkpt lat="53.1000850000" lon="-4.1567810000"><ele>672</ele><time>2016-10-15T10:09:15Z</time></trkpt>
<trkpt lat="53.1000790000" lon="-4.1567830000"><ele>672</ele><time>2016-10-15T10:09:16Z</time></trkpt>
<trkpt lat="53.1000740000" lon="-4.1567850000"><ele>672</ele><time>2016-10-15T10:09:17Z</time></trkpt>
<trkpt lat="53.1000690000" lon="-4.1567860000"><ele>672</ele><time>2016-10-15T10:09:18Z</time></trkpt>
<trkpt lat="53.1000630000" lon="-4.1567880000"><ele>672</ele><time>2016-10-15T10:09:19Z</time></trkpt>
<trkpt lat="53.1000580000" lon="-4.1567890000"><ele>672</ele><time>2016-10-15T10:09:20Z</time></trkpt>
<trkpt lat="53.1000530000" lon="-4.1567910000"><ele>672</ele><time>2016-10-15T10:09:21Z</time></trkpt>
<trkpt lat="53.1000450000" lon="-4.1567940000"><ele>672</ele><time>2016-10-15T10:09:22Z</time></trkpt>
<trkpt lat="53.1000370000" lon="-4.1567970000"><ele>672</ele><time>2016-10-15T10:09:23Z</time></trkpt>
<trkpt lat="53.1000290000" lon="-4.1568000000"><ele>672</ele><time>2016-10-15T10:09:24Z</time></trkpt>
<trkpt lat="53.1000210000" lon="-4.1568040000"><ele>673</ele><time>2016-10-15T10:09:25Z</time></trkpt>
<trkpt lat="53.1000120000" lon="-4.1568080000"><ele>673</ele><time>2016-10-15T10:09:26Z</time></trkpt>
<trkpt lat="53.1000040000" lon="-4.1568110000"><ele>673</ele><time>2016-10-15T10:09:27Z</time></trkpt>
<trkpt lat="53.0999960000" lon="-4.1568160000"><ele>673</ele><time>2016-10-15T10:09:28Z</time></trkpt>
<trkpt lat="53.0999870000" lon="-4.1568200000"><ele>673</ele><time>2016-10-15T10:09:29Z</time></trkpt>
<trkpt lat="53.0999790000" lon="-4.1568230000"><ele>673</ele><time>2016-10-15T10:09:30Z</time></trkpt>
<trkpt lat="53.0999700000" lon="-4.1568270000"><ele>674</ele><time>2016-10-15T10:09:31Z</time></trkpt>
<trkpt lat="53.0999620000" lon="-4.1568310000"><ele>674</ele><time>2016-10-15T10:09:32Z</time></trkpt>
<trkpt lat="53.0999530000" lon="-4.1568350000"><ele>674</ele><time>2016-10-15T10:09:33Z</time></trkpt>
<trkpt lat="53.0999450000" lon="-4.1568390000"><ele>674</ele><time>2016-10-15T10:09:34Z</time></trkpt>
<trkpt lat="53.0999370000" lon="-4.1568420000"><ele>674</ele><time>2016-10-15T10:09:35Z</time></trkpt>
<trkpt lat="53.0999290000" lon="-4.1568460000"><ele>674</ele><time>2016-10-15T10:09:36Z</time></trkpt>
<trkpt lat="53.0999210000" lon="-4.1568500000"><ele>674</ele><time>2016-10-15T10:09:37Z</time></trkpt>
<trkpt lat="53.0999130000" lon="-4.1568540000"><ele>675</ele><time>2016-10-15T10:09:38Z</time></trkpt>
<trkpt lat="53.0999050000" lon="-4.1568570000"><ele>675</ele><time>2016-10-15T10:09:39Z</time></trkpt>
<trkpt lat="53.0998900000" lon="-4.1568640000"><ele>675</ele><time>2016-10-15T10:09:42Z</time></trkpt>
<trkpt lat="53.0998820000" lon="-4.1568680000"><ele>675</ele></trkpt>
<trkpt lat="53.0998750000" lon="-4.1568710000"><ele>675</ele><time>2016-10-15T10:09:43Z</time></trkpt>
<trkpt lat="53.0998670000" lon="-4.1568750000"><ele>675</ele><time>2016-10-15T10:09:44Z</time></trkpt>
<trkpt lat="53.0998600000" lon="-4.1568780000"><ele>676</ele><time>2016-10-15T10:09:45Z</time></trkpt>
<trkpt lat="53.0998530000" lon="-4.1568810000"><ele>676</ele><time>2016-10-15T10:09:46Z</time></trkpt>
<trkpt lat="53.0998450000" lon="-4.1568840000"><ele>676</ele><time>2016-10-15T10:09:47Z</time></trkpt>
<trkpt lat="53.0998380000" lon="-4.1568870000"><ele>676</ele><time>2016-10-15T10:09:48Z</time></trkpt>
<trkpt lat="53.0998310000" lon="-4.1568900000"><ele>676</ele><time>2016-10-15T10:09:49Z</time></trkpt>
<trkpt lat="53.0998240000" lon="-4.1568930000"><ele>676</ele><time>2016-10-15T10:09:50Z</time></trkpt>
<trkpt lat="53.0998170000" lon="-4.1568960000"><ele>676</ele><time>2016-10-15T10:09:51Z</time></trkpt>
<trkpt lat="53.0998100000" lon="-4.1568990000"><ele>676</ele><time>2016-10-15T10:09:52Z</time></trkpt>
<trkpt lat="53.0998030000" lon="-4.1569020000"><ele>676</ele><time>2016-10-15T10:09:53Z</time></trkpt>
<trkpt lat="53.0997950000" lon="-4.1569050000"><ele>677</ele><time>2016-10-15T10:09:54Z</time></trkpt>
<trkpt lat="53.0997880000" lon="-4.1569080000"><ele>677</ele><time>2016-10-15T10:09:55Z</time></trkpt>
<trkpt lat="53.0997810000" lon="-4.1569120000"><ele>677</ele><time>2016-10-15T10:09:56Z</time></trkpt>
<trkpt lat="53.0997740000" lon="-4.1569150000"><ele>677</ele><time>2016-10-15T10:09:57Z</time></trkpt>
<trkpt lat="53.0997670000" lon="-4.1569180000"><ele>677</ele><time>2016-10-15T10:09:58Z</time></trkpt>
<trkpt lat="53.0997600000" lon="-4.1569210000"><ele>677</ele><time>2016-10-15T10:09:59Z</time></trkpt>
<trkpt lat="53.0997530000" lon="-4.1569240000"><ele>678</ele><time>2016-10-15T10:10:00Z</time></trkpt>
<trkpt lat="53.0997460000" lon="-4.1569270000"><ele>678</ele><time>2016-10-15T10:10:01Z</time></trkpt>
<trkpt lat="53.0997390000" lon="-4.1569310000"><ele>678</ele><time>2016-10-15T10:10:02Z</time></trkpt>
<trkpt lat="53.0997320000" lon="-4.1569340000"><ele>678</ele><time>2016-10-15T10:10:03Z</time></trkpt>
<trkpt lat="53.0997250000" lon="-4.1569370000"><ele>678</ele><time>2016-10-15T10:10:04Z</time></trkpt>
<trkpt lat="53.0997180000" lon="-4.1569400000"><ele>679</ele><time>2016-10-15T10:10:05Z</time></trkpt>
<trkpt lat="53.0997120000" lon="-4.1569420000"><ele>679</ele><time>2016-10-15T10:10:06Z</time></trkpt>
<trkpt lat="53.0997050000" lon="-4.1569450000"><ele>679</ele><time>2016-10-15T10:10:07Z</time></trkpt>
<trkpt lat="53.0996990000" lon="-4.1569480000"><ele>679</ele><time>2016-10-15T10:10:08Z</time></trkpt>
<trkpt lat="53.0996920000" lon="-4.1569500000"><ele>679</ele><time>2016-10-15T10:10:09Z</time></trkpt>
<trkpt lat="53.0996860000" lon="-4.1569520000"><ele>679</ele><time>2016-10-15T10:10:10Z</time></trkpt>
<trkpt lat="53.0996790000" lon="-4.1569540000"><ele>679</ele><time>2016-10-15T10:10:11Z</time></trkpt>
<trkpt lat="53.0996730000" lon="-4.1569550000"><ele>680</ele><time>2016-10-15T10:10:12Z</time></trkpt>
<trkpt lat="53.0996670000" lon="-4.1569570000"><ele>680</ele><time>2016-10-15T10:10:13Z</time></trkpt>
<trkpt lat="53.0996600000" lon="-4.1569590000"><ele>680</ele><time>2016-10-15T10:10:14Z</time></trkpt>
<trkpt lat="53.0996540000" lon="-4.1569610000"><ele>680</ele><time>2016-10-15T10:10:15Z</time></trkpt>
<trkpt lat="53.0996480000" lon="-4.1569630000"><ele>680</ele><time>2016-10-15T10:10:16Z</time></trkpt>
<trkpt lat="53.0996420000" lon="-4.1569650000"><ele>681</ele><time>2016-10-15T10:10:17Z</time></trkpt>
<trkpt lat="53.0996360000" lon="-4.1569670000"><ele>681</ele><time>2016-10-15T10:10:18Z</time></trkpt>
<trkpt lat="53.0996300000" lon="-4.1569690000"><ele>681</ele><time>2016-10-15T10:10:19Z</time></trkpt>
<trkpt lat="53.0996240000" lon="-4.1569710000"><ele>681</ele><time>2016-10-15T10:10:20Z</time></trkpt>
<trkpt lat="53.0996180000" lon="-4.1569730000"><ele>681</ele><time>2016-10-15T10:10:21Z</time></trkpt>
<trkpt lat="53.0996120000" lon="-4.1569750000"><ele>682</ele><time>2016-10-15T10:10:22Z</time></trkpt>
<trkpt lat="53.0996060000" lon="-4.1569770000"><ele>682</ele><time>2016-10-15T10:10:23Z</time></trkpt>
<trkpt lat="53.0996000000" lon="-4.1569800000"><ele>682</ele><time>2016-10-15T10:10:24Z</time></trkpt>
<trkpt lat="53.0995940000" lon="-4.1569820000"><ele>682</ele><time>2016-10-15T10:10:25Z</time></trkpt>
<trkpt lat="53.0995880000" lon="-4.1569850000"><ele>682</ele><time>2016-10-15T10:10:26Z</time></trkpt>
<trkpt lat="53.0995820000" lon="-4.1569870000"><ele>683</ele><time>2016-10-15T10:10:27Z</time></trkpt>
<trkpt lat="53.0995760000" lon="-4.1569900000"><ele>683</ele><time>2016-10-15T10:10:28Z</time></trkpt>
<trkpt lat="53.0995690000" lon="-4.1569930000"><ele>683</ele><time>2016-10-15T10:10:29Z</time></trkpt>
<trkpt lat="53.0995630000" lon="-4.1569960000"><ele>683</ele><time>2016-10-15T10:10:30Z</time></trkpt>
<trkpt lat="53.0995560000" lon="-4.1569990000"><ele>683</ele><time>2016-10-15T10:10:31Z</time></trkpt>
<trkpt lat="53.0995500000" lon="-4.1570020000"><ele>683</ele><time>2016-10-15T10:10:32Z</time></trkpt>
<trkpt lat="53.0995430000" lon="-4.1570050000"><ele>684</ele><time>2016-10-15T10:10:33Z</time></trkpt>
<trkpt lat="53.0995360000" lon="-4.1570080000"><ele>684</ele><time>2016-10-15T10:10:34Z</time></trkpt>
<trkpt lat="53.0995290000" lon="-4.1570110000"><ele>684</ele><time>2016-10-15T10:10:35Z</time></trkpt>
<trkpt lat="53.0995220000" lon="-4.1570140000"><ele>684</ele><time>2016-10-15T10:10:36Z</time></trkpt>
<trkpt lat="53.0995140000" lon="-4.1570170000"><ele>684</ele><time>2016-10-15T10:10:37Z</time></trkpt>
<trkpt lat="53.0995070000" lon="-4.1570190000"><ele>685</ele><time>2016-10-15T10:10:38Z</time></trkpt>
<trkpt lat="53.0995000000" lon="-4.1570220000"><ele>685</ele><time>2016-10-15T10:10:39Z</time></trkpt>
<trkpt lat="53.0994840000" lon="-4.1570270000"><ele>685</ele><time>2016-10-15T10:10:42Z</time></trkpt>
<trkpt lat="53.0994770000" lon="-4.1570290000"><ele>685</ele></trkpt>
<trkpt lat="53.0994690000" lon="-4.1570320000"><ele>685</ele><time>2016-10-15T10:10:43Z</time></trkpt>
<trkpt lat="53.0994610000" lon="-4.1570350000"><ele>686</ele><time>2016-10-15T10:10:44Z</time></trkpt>
<trkpt lat="53.0994530000" lon="-4.1570370000"><ele>686</ele><time>2016-10-15T10:10:45Z</time></trkpt>
<trkpt lat="53.0994450000" lon="-4.1570390000"><ele>686</ele><time>2016-10-15T10:10:46Z</time></trkpt>
<trkpt lat="53.0994370000" lon="-4.1570420000"><ele>686</ele><time>2016-10-15T10:10:47Z</time></trkpt>
<trkpt lat="53.0994300000" lon="-4.1570440000"><ele>686</ele><time>2016-10-15T10:10:48Z</time></trkpt>
<trkpt lat="53.0994220000" lon="-4.1570470000"><ele>686</ele><time>2016-10-15T10:10:49Z</time></trkpt>
<trkpt lat="53.0994140000" lon="-4.1570500000"><ele>687</ele><time>2016-10-15T10:10:50Z</time></trkpt>
<trkpt lat="53.0994070000" lon="-4.1570530000"><ele>687</ele><time>2016-10-15T10:10:51Z</time></trkpt>
<trkpt lat="53.0993990000" lon="-4.1570570000"><ele>687</ele><time>2016-10-15T10:10:52Z</time></trkpt>
<trkpt lat="53.0993920000" lon="-4.1570600000"><ele>687</ele><time>2016-10-15T10:10:53Z</time></trkpt>
<trkpt lat="53.0993840000" lon="-4.1570630000"><ele>687</ele><time>2016-10-15T10:10:54Z</time></trkpt>
<trkpt lat="53.0993770000" lon="-4.1570660000"><ele>687</ele><time>2016-10-15T10:10:55Z</time></trkpt>
<trkpt lat="53.0993700000" lon="-4.1570690000"><ele>688</ele><time>2016-10-15T10:10:56Z</time></trkpt>
<trkpt lat="53.0993630000" lon="-4.1570710000"><ele>688</ele><time>2016-10-15T10:10:57Z</time></trkpt>
<trkpt lat="53.0993560000" lon="-4.1570730000"><ele>688</ele><time>2016-10-15T10:10:58Z</time></trkpt>
<trkpt lat="53.0993480000" lon="-4.1570750000"><ele>688</ele><time>2016-10-15T10:10:59Z</time></trkpt>
<trkpt lat="53.0993430000" lon="-4.1570770000"><ele>688</ele><time>2016-10-15T10:11:00Z</time></trkpt>
<trkpt lat="53.0993360000" lon="-4.1570790000"><ele>688</ele><time>2016-10-15T10:11:01Z</time></trkpt>
<trkpt lat="53.0993280000" lon="-4.1570810000"><ele>688</ele><time>2016-10-15T10:11:02Z</time></trkpt>
<trkpt lat="53.0993210000" lon="-4.1570840000"><ele>689</ele><time>2016-10-15T10:11:03Z</time></trkpt>
<trkpt lat="53.0993140000" lon="-4.1570870000"><ele>689</ele><time>2016-10-15T10:11:04Z</time></trkpt>
<trkpt lat="53.0993070000" lon="-4.1570900000"><ele>689</ele><time>2016-10-15T10:11:05Z</time></trkpt>
<trkpt lat="53.0992990000" lon="-4.1570940000"><ele>689</ele><time>2016-10-15T10:11:06Z</time></trkpt>
<trkpt lat="53.0992920000" lon="-4.1570970000"><ele>689</ele><time>2016-10-15T10:11:07Z</time></trkpt>
<trkpt lat="53.0992840000" lon="-4.1571000000"><ele>689</ele><time>2016-10-15T10:11:08Z</time></trkpt>
<trkpt lat="53.0992770000" lon="-4.1571030000"><ele>690</ele><time>2016-10-15T10:11:09Z</time></trkpt>
<trkpt lat="53.0992690000" lon="-4.1571060000"><ele>690</ele><time>2016-10-15T10:11:10Z</time></trkpt>
<trkpt lat="53.0992620000" lon="-4.1571090000"><ele>690</ele><time>2016-10-15T10:11:11Z</time></trkpt>
<trkpt lat="53.0992540000" lon="-4.1571130000"><ele>690</ele><time>2016-10-15T10:11:12Z</time></trkpt>
<trkpt lat="53.0992460000" lon="-4.1571160000"><ele>691</ele><time>2016-10-15T10:11:13Z</time></trkpt>
<trkpt lat="53.0992380000" lon="-4.1571200000"><ele>691</ele><time>2016-10-15T10:11:14Z</time></trkpt>
<trkpt lat="53.0992310000" lon="-4.1571230000"><ele>691</ele><time>2016-10-15T10:11:15Z</time></trkpt>
<trkpt lat="53.0992220000" lon="-4.1571270000"><ele>691</ele><time>2016-10-15T10:11:16Z</time></trkpt>
<trkpt lat="53.0992140000" lon="-4.1571310000"><ele>692</ele><time>2016-10-15T10:11:17Z</time></trkpt>
<trkpt lat="53.0992060000" lon="-4.1571360000"><ele>692</ele><time>2016-10-15T10:11:18Z</time></trkpt>
<trkpt lat="53.0991980000" lon="-4.1571400000"><ele>692</ele><time>2016-10-15T10:11:19Z</time></trkpt>
<trkpt lat="53.0991900000" lon="-4.1571440000"><ele>692</ele><time>2016-10-15T10:11:20Z</time></trkpt>
<trkpt lat="53.0991820000" lon="-4.1571480000"><ele>693</ele><time>2016-10-15T10:11:21Z</time></trkpt>
<trkpt lat="53.0991740000" lon="-4.1571520000"><ele>693</ele><time>2016-10-15T10:11:22Z</time></trkpt>
<trkpt lat="53.0991660000" lon="-4.1571560000"><ele>693</ele><time>2016-10-15T10:11:23Z</time></trkpt>
<trkpt lat="53.0991580000" lon="-4.1571600000"><ele>693</ele><time>2016-10-15T10:11:24Z</time></trkpt>
<trkpt lat="53.0991500000" lon="-4.1571640000"><ele>694</ele><time>2016-10-15T10:11:25Z</time></trkpt>
<trkpt lat="53.0991410000" lon="-4.1571680000"><ele>694</ele><time>2016-10-15T10:11:26Z</time></trkpt>
<trkpt lat="53.0991330000" lon="-4.1571720000"><ele>694</ele><time>2016-10-15T10:11:27Z</time></trkpt>
<trkpt lat="53.0991250000" lon="-4.1571760000"><ele>694</ele><time>2016-10-15T10:11:28Z</time></trkpt>
<trkpt lat="53.0991160000" lon="-4.1571800000"><ele>695</ele><time>2016-10-15T10:11:29Z</time></trkpt>
<trkpt lat="53.0991080000" lon="-4.1571830000"><ele>695</ele><time>2016-10-15T10:11:30Z</time></trkpt>
<trkpt lat="53.0991000000" lon="-4.1571870000"><ele>695</ele><time>2016-10-15T10:11:31Z</time></trkpt>
<trkpt lat="53.0990920000" lon="-4.1571910000"><ele>695</ele><time>2016-10-15T10:11:32Z</time></trkpt>
<trkpt lat="53.0990840000" lon="-4.1571940000"><ele>696</ele><time>2016-10-15T10:11:33Z</time></trkpt>
<trkpt lat="53.0990760000" lon="-4.1571970000"><ele>696</ele><time>2016-10-15T10:11:34Z</time></trkpt>
<trkpt lat="53.0990680000" lon="-4.1572000000"><ele>696</ele><time>2016-10-15T10:11:35Z</time></trkpt>
<trkpt lat="53.0990600000" lon="-4.1572040000"><ele>696</ele><time>2016-10-15T10:11:36Z</time></trkpt>
<trkpt lat="53.0990520000" lon="-4.1572070000"><ele>697</ele><time>2016-10-15T10:11:37Z</time></trkpt>
<trkpt lat="53.0990440000" lon="-4.1572100000"><ele>697</ele><time>2016-10-15T10:11:38Z</time></trkpt>
<trkpt lat="53.0990370000" lon="-4.1572140000"><ele>697</ele><time>2016-10-15T10:11:39Z</time></trkpt>
<trkpt lat="53.0990210000" lon="-4.1572200000"><ele>698</ele><time>2016-10-15T10:11:42Z</time></trkpt>
<trkpt lat="53.0990140000" lon="-4.1572230000"><ele>698</ele></trkpt>
<trkpt lat="53.0990060000" lon="-4.1572260000"><ele>698</ele><time>2016-10-15T10:11:43Z</time></trkpt>
<trkpt lat="53.0989990000" lon="-4.1572290000"><ele>698</ele><time>2016-10-15T10:11:44Z</time></trkpt>
<trkpt lat="53.0989920000" lon="-4.1572320000"><ele>699</ele><time>2016-10-15T10:11:45Z</time></trkpt>
<trkpt lat="53.0989850000" lon="-4.1572350000"><ele>699</ele><time>2016-10-15T10:11:46Z</time></trkpt>
<trkpt lat="53.0989770000" lon="-4.1572390000"><ele>699</ele><time>2016-10-15T10:11:47Z</time></trkpt>
<trkpt lat="53.0989700000" lon="-4.1572420000"><ele>699</ele><time>2016-10-15T10:11:48Z</time></trkpt>
<trkpt lat="53.0989630000" lon="-4.1572450000"><ele>700</ele><time>2016-10-15T10:11:49Z</time></trkpt>
<trkpt lat="53.0989560000" lon="-4.1572470000"><ele>700</ele><time>2016-10-15T10:11:50Z</time></trkpt>
<trkpt lat="53.0989490000" lon="-4.1572500000"><ele>700</ele><time>2016-10-15T10:11:51Z</time></trkpt>
<trkpt lat="53.0989420000" lon="-4.1572530000"><ele>700</ele><time>2016-10-15T10:11:52Z</time></trkpt>
<trkpt lat="53.0989360000" lon="-4.1572570000"><ele>700</ele><time>2016-10-15T10:11:53Z</time></trkpt>
<trkpt lat="53.0989290000" lon="-4.1572600000"><ele>700</ele><time>2016-10-15T10:11:54Z</time></trkpt>
<trkpt lat="53.0989230000" lon="-4.1572640000"><ele>701</ele><time>2016-10-15T10:11:55Z</time></trkpt>
<trkpt lat="53.0989160000" lon="-4.1572670000"><ele>701</ele><time>2016-10-15T10:11:56Z</time></trkpt>
<trkpt lat="53.0989090000" lon="-4.1572690000"><ele>701</ele><time>2016-10-15T10:11:57Z</time></trkpt>
<trkpt lat="53.0989030000" lon="-4.1572720000"><ele>701</ele><time>2016-10-15T10:11:58Z</time></trkpt>
<trkpt lat="53.0988960000" lon="-4.1572750000"><ele>701</ele><time>2016-10-15T10:11:59Z</time></trkpt>
<trkpt lat="53.0988900000" lon="-4.1572780000"><ele>701</ele><time>2016-10-15T10:12:00Z</time></trkpt>
<trkpt lat="53.0988830000" lon="-4.1572810000"><ele>702</ele><time>2016-10-15T10:12:01Z</time></trkpt>
<trkpt lat="53.0988770000" lon="-4.1572840000"><ele>702</ele><time>2016-10-15T10:12:02Z</time></trkpt>
<trkpt lat="53.0988700000" lon="-4.1572870000"><ele>702</ele><time>2016-10-15T10:12:03Z</time></trkpt>
<trkpt lat="53.0988630000" lon="-4.1572900000"><ele>702</ele><time>2016-10-15T10:12:04Z</time></trkpt>
<trkpt lat="53.0988570000" lon="-4.1572930000"><ele>703</ele><time>2016-10-15T10:12:05Z</time></trkpt>
<trkpt lat="53.0988510000" lon="-4.1572960000"><ele>703</ele><time>2016-10-15T10:12:06Z</time></trkpt>
<trkpt lat="53.0988440000" lon="-4.1572990000"><ele>703</ele><time>2016-10-15T10:12:07Z</time></trkpt>
<trkpt lat="53.0988380000" lon="-4.1573030000"><ele>703</ele><time>2016-10-15T10:12:08Z</time></trkpt>
<trkpt lat="53.0988310000" lon="-4.1573050000"><ele>703</ele><time>2016-10-15T10:12:09Z</time></trkpt>
<trkpt lat="53.0988240000" lon="-4.1573080000"><ele>704</ele><time>2016-10-15T10:12:10Z</time></trkpt>
<trkpt lat="53.0988170000" lon="-4.1573110000"><ele>704</ele><time>2016-10-15T10:12:11Z</time></trkpt>
<trkpt lat="53.0988110000" lon="-4.1573130000"><ele>704</ele><time>2016-10-15T10:12:12Z</time></trkpt>
<trkpt lat="53.0988040000" lon="-4.1573150000"><ele>704</ele><time>2016-10-15T10:12:13Z</time></trkpt>
<trkpt lat="53.0987970000" lon="-4.1573180000"><ele>704</ele><time>2016-10-15T10:12:14Z</time></trkpt>
<trkpt lat="53.0987900000" lon="-4.1573210000"><ele>705</ele><time>2016-10-15T10:12:15Z</time></trkpt>
<trkpt lat="53.0987830000" lon="-4.1573240000"><ele>705</ele><time>2016-10-15T10:12:16Z</time></trkpt>
<trkpt lat="53.0987760000" lon="-4.1573270000"><ele>705</ele><time>2016-10-15T10:12:17Z</time></trkpt>
<trkpt lat="53.0987690000" lon="-4.1573300000"><ele>705</ele><time>2016-10-15T10:12:18Z</time></trkpt>
<trkpt lat="53.0987620000" lon="-4.1573320000"><ele>705</ele><time>2016-10-15T10:12:19Z</time></trkpt>
<trkpt lat="53.0987550000" lon="-4.1573350000"><ele>706</ele><time>2016-10-15T10:12:20Z</time></trkpt>
<trkpt lat="53.0987480000" lon="-4.1573380000"><ele>706</ele><time>2016-10-15T10:12:21Z</time></trkpt>
<trkpt lat="53.0987410000" lon="-4.1573410000"><ele>706</ele><time>2016-10-15T10:12:22Z</time></trkpt>
<trkpt lat="53.0987340000" lon="-4.1573450000"><ele>706</ele><time>2016-10-15T10:12:23Z</time></trkpt>
<trkpt lat="53.0987270000" lon="-4.1573490000"><ele>707</ele><time>2016-10-15T10:12:24Z</time></trkpt>
<trkpt lat="53.0987200000" lon="-4.1573530000"><ele>707</ele><time>2016-10-15T10:12:25Z</time></trkpt>
<trkpt lat="53.0987130000" lon="-4.1573570000"><ele>707</ele><time>2016-10-15T10:12:26Z</time></trkpt>
<trkpt lat="53.0987060000" lon="-4.1573610000"><ele>707</ele><time>2016-10-15T10:12:27Z</time></trkpt>
<trkpt lat="53.0987000000" lon="-4.1573650000"><ele>708</ele><time>2016-10-15T10:12:28Z</time></trkpt>
<trkpt lat="53.0986930000" lon="-4.1573690000"><ele>708</ele><time>2016-10-15T10:12:29Z</time></trkpt>
<trkpt lat="53.0986860000" lon="-4.1573730000"><ele>708</ele><time>2016-10-15T10:12:30Z</time></trkpt>
<trkpt lat="53.0986800000" lon="-4.1573770000"><ele>708</ele><time>2016-10-15T10:12:31Z</time></trkpt>
<trkpt lat="53.0986730000" lon="-4.1573810000"><ele>709</ele><time>2016-10-15T10:12:32Z</time></trkpt>
<trkpt lat="53.0986660000" lon="-4.1573850000"><ele>709</ele><time>2016-10-15T10:12:33Z</time></trkpt>
<trkpt lat="53.0986600000" lon="-4.1573890000"><ele>709</ele><time>2016-10-15T10:12:34Z</time></trkpt>
<trkpt lat="53.0986530000" lon="-4.1573920000"><ele>709</ele><time>2016-10-15T10:12:35Z</time></trkpt>
<trkpt lat="53.0986460000" lon="-4.1573960000"><ele>710</ele><time>2016-10-15T10:12:36Z</time></trkpt>
<trkpt lat="53.0986390000" lon="-4.1574000000"><ele>710</ele><time>2016-10-15T10:12:37Z</time></trkpt>
<trkpt lat="53.0986330000" lon="-4.1574040000"><ele>710</ele><time>2016-10-15T10:12:38Z</time></trkpt>
<trkpt lat="53.0986260000" lon="-4.1574080000"><ele>710</ele><time>2016-10-15T10:12:39Z</time></trkpt>
<trkpt lat="53.0986120000" lon="-4.1574160000"><ele>711</ele><time>2016-10-15T10:12:42Z</time></trkpt>
<trkpt lat="53.0986050000" lon="-4.1574200000"><ele>711</ele></trkpt>
<trkpt lat="53.0985970000" lon="-4.1574250000"><ele>711</ele><time>2016-10-15T10:12:43Z</time></trkpt>
<trkpt lat="53.0985900000" lon="-4.1574290000"><ele>711</ele><time>2016-10-15T10:12:44Z</time></trkpt>
<trkpt lat="53.0985830000" lon="-4.1574330000"><ele>712</ele><time>2016-10-15T10:12:45Z</time></trkpt>
<trkpt lat="53.0985760000" lon="-4.1574380000"><ele>712</ele><time>2016-10-15T10:12:46Z</time></trkpt>
<trkpt lat="53.0985680000" lon="-4.1574430000"><ele>712</ele><time>2016-10-15T10:12:47Z</time></trkpt>
<trkpt lat="53.0985600000" lon="-4.1574470000"><ele>712</ele><time>2016-10-15T10:12:48Z</time></trkpt>
<trkpt lat="53.0985530000" lon="-4.1574520000"><ele>713</ele><time>2016-10-15T10:12:49Z</time></trkpt>
<trkpt lat="53.0985460000" lon="-4.1574560000"><ele>713</ele><time>2016-10-15T10:12:50Z</time></trkpt>
<trkpt lat="53.0985380000" lon="-4.1574610000"><ele>713</ele><time>2016-10-15T10:12:51Z</time></trkpt>
<trkpt lat="53.0985310000" lon="-4.1574660000"><ele>713</ele><time>2016-10-15T10:12:52Z</time></trkpt>
<trkpt lat="53.0985230000" lon="-4.1574710000"><ele>713</ele><time>2016-10-15T10:12:53Z</time></trkpt>
<trkpt lat="53.0985150000" lon="-4.1574750000"><ele>713</ele><time>2016-10-15T10:12:54Z</time></trkpt>
<trkpt lat="53.0985070000" lon="-4.1574800000"><ele>714</ele><time>2016-10-15T10:12:55Z</time></trkpt>
<trkpt lat="53.0985000000" lon="-4.1574850000"><ele>714</ele><time>2016-10-15T10:12:56Z</time></trkpt>
<trkpt lat="53.0984920000" lon="-4.1574900000"><ele>714</ele><time>2016-10-15T10:12:57Z</time></trkpt>
<trkpt lat="53.0984840000" lon="-4.1574950000"><ele>714</ele><time>2016-10-15T10:12:58Z</time></trkpt>
<trkpt lat="53.0984760000" lon="-4.1574990000"><ele>714</ele><time>2016-10-15T10:12:59Z</time></trkpt>
<trkpt lat="53.0984680000" lon="-4.1575050000"><ele>715</ele><time>2016-10-15T10:13:00Z</time></trkpt>
<trkpt lat="53.0984600000" lon="-4.1575100000"><ele>715</ele><time>2016-10-15T10:13:01Z</time></trkpt>
<trkpt lat="53.0984510000" lon="-4.1575150000"><ele>715</ele><time>2016-10-15T10:13:02Z</time></trkpt>
<trkpt lat="53.0984430000" lon="-4.1575200000"><ele>715</ele><time>2016-10-15T10:13:03Z</time></trkpt>
<trkpt lat="53.0984350000" lon="-4.1575250000"><ele>715</ele><time>2016-10-15T10:13:04Z</time></trkpt>
<trkpt lat="53.0984260000" lon="-4.1575300000"><ele>715</ele><time>2016-10-15T10:13:05Z</time></trkpt>
<trkpt lat="53.0984180000" lon="-4.1575350000"><ele>716</ele><time>2016-10-15T10:13:06Z</time></trkpt>
<trkpt lat="53.0984100000" lon="-4.1575410000"><ele>716</ele><time>2016-10-15T10:13:07Z</time></trkpt>
<trkpt lat="53.0984020000" lon="-4.1575460000"><ele>716</ele><time>2016-10-15T10:13:08Z</time></trkpt>
<trkpt lat="53.0983930000" lon="-4.1575510000"><ele>716</ele><time>2016-10-15T10:13:09Z</time></trkpt>
<trkpt lat="53.0983850000" lon="-4.1575570000"><ele>716</ele><time>2016-10-15T10:13:10Z</time></trkpt>
<trkpt lat="53.0983770000" lon="-4.1575620000"><ele>717</ele><time>2016-10-15T10:13:11Z</time></trkpt>
<trkpt lat="53.0983690000" lon="-4.1575670000"><ele>717</ele><time>2016-10-15T10:13:12Z</time></trkpt>
<trkpt lat="53.0983610000" lon="-4.1575720000"><ele>717</ele><time>2016-10-15T10:13:13Z</time></trkpt>
<trkpt lat="53.0983540000" lon="-4.1575780000"><ele>717</ele><time>2016-10-15T10:13:14Z</time></trkpt>
<trkpt lat="53.0983460000" lon="-4.1575830000"><ele>717</ele><time>2016-10-15T10:13:15Z</time></trkpt>
<trkpt lat="53.0983380000" lon="-4.1575870000"><ele>717</ele><time>2016-10-15T10:13:16Z</time></trkpt>
<trkpt lat="53.0983310000" lon="-4.1575920000"><ele>718</ele><time>2016-10-15T10:13:17Z</time></trkpt>
<trkpt lat="53.0983240000" lon="-4.1575970000"><ele>718</ele><time>2016-10-15T10:13:18Z</time></trkpt>
<trkpt lat="53.0983160000" lon="-4.1576020000"><ele>718</ele><time>2016-10-15T10:13:19Z</time></trkpt>
<trkpt lat="53.0983090000" lon="-4.1576070000"><ele>718</ele><time>2016-10-15T10:13:20Z</time></trkpt>
<trkpt lat="53.0983010000" lon="-4.1576110000"><ele>718</ele><time>2016-10-15T10:13:21Z</time></trkpt>
<trkpt lat="53.0982940000" lon="-4.1576150000"><ele>718</ele><time>2016-10-15T10:13:22Z</time></trkpt>
<trkpt lat="53.0982870000" lon="-4.1576190000"><ele>718</ele><time>2016-10-15T10:13:23Z</time></trkpt>
<trkpt lat="53.0982800000" lon="-4.1576230000"><ele>719</ele><time>2016-10-15T10:13:24Z</time></trkpt>
<trkpt lat="53.0982730000" lon="-4.1576260000"><ele>719</ele><time>2016-10-15T10:13:25Z</time></trkpt>
<trkpt lat="53.0982660000" lon="-4.1576300000"><ele>719</ele><time>2016-10-15T10:13:26Z</time></trkpt>
<trkpt lat="53.0982590000" lon="-4.1576340000"><ele>719</ele><time>2016-10-15T10:13:27Z</time></trkpt>
<trkpt lat="53.0982510000" lon="-4.1576380000"><ele>719</ele><time>2016-10-15T10:13:28Z</time></trkpt>
<trkpt lat="53.0982440000" lon="-4.1576420000"><ele>719</ele><time>2016-10-15T10:13:29Z</time></trkpt>
<trkpt lat="53.0982360000" lon="-4.1576460000"><ele>719</ele><time>2016-10-15T10:13:30Z</time></trkpt>
<trkpt lat="53.0982290000" lon="-4.1576500000"><ele>719</ele><time>2016-10-15T10:13:31Z</time></trkpt>
<trkpt lat="53.0982210000" lon="-4.1576540000"><ele>720</ele><time>2016-10-15T10:13:32Z</time></trkpt>
<trkpt lat="53.0982130000" lon="-4.1576580000"><ele>720</ele><time>2016-10-15T10:13:33Z</time></trkpt>
<trkpt lat="53.0982060000" lon="-4.1576630000"><ele>720</ele><time>2016-10-15T10:13:34Z</time></trkpt>
<trkpt lat="53.0981980000" lon="-4.1576680000"><ele>720</ele><time>2016-10-15T10:13:35Z</time></trkpt>
<trkpt lat="53.0981900000" lon="-4.1576730000"><ele>720</ele><time>2016-10-15T10:13:36Z</time></trkpt>
<trkpt lat="53.0981820000" lon="-4.1576780000"><ele>721</ele><time>2016-10-15T10:13:37Z</time></trkpt>
<trkpt lat="53.0981740000" lon="-4.1576830000"><ele>721</ele><time>2016-10-15T10:13:38Z</time></trkpt>
<trkpt lat="53.0981660000" lon="-4.1576890000"><ele>721</ele><time>2016-10-15T10:13:39Z</time></trkpt>
<trkpt lat="53.0981500000" lon="-4.1576990000"><ele>721</ele><time>2016-10-15T10:13:42Z</time></trkpt>
<trkpt lat="53.0980230000" lon="-4.1577760000"><ele>721</ele></trkpt>
<trkpt lat="53.0980150000" lon="-4.1577800000"><ele>722</ele><time>2016-10-15T10:13:43Z</time></trkpt>
<trkpt lat="53.0980080000" lon="-4.1577850000"><ele>722</ele><time>2016-10-15T10:13:44Z</time></trkpt>
<trkpt lat="53.0980080000" lon="-4.1577850000"><ele>722</ele><time>2016-10-15T10:13:45Z</time></trkpt>
<trkpt lat="53.0980080000" lon="-4.1577850000"><ele>722</ele><time>2016-10-15T10:13:46Z</time></trkpt>
<trkpt lat="53.0980080000" lon="-4.1577850000"><ele>722</ele><time>2016-10-15T10:13:47Z</time></trkpt>
<trkpt lat="53.0980070000" lon="-4.1577860000"><ele>722</ele><time>2016-10-15T10:13:48Z</time></trkpt>
<trkpt lat="53.0980060000" lon="-4.1577860000"><ele>722</ele><time>2016-10-15T10:13:49Z</time></trkpt>
<trkpt lat="53.0980050000" lon="-4.1577870000"><ele>722</ele><time>2016-10-15T10:13:50Z</time></trkpt>
<trkpt lat="53.0980040000" lon="-4.1577880000"><ele>722</ele><time>2016-10-15T10:13:51Z</time></trkpt>
<trkpt lat="53.0980020000" lon="-4.1577900000"><ele>723</ele><time>2016-10-15T10:13:52Z</time></trkpt>
<trkpt lat="53.0979990000" lon="-4.1577910000"><ele>723</ele><time>2016-10-15T10:13:53Z</time></trkpt>
<trkpt lat="53.0979960000" lon="-4.1577930000"><ele>723</ele><time>2016-10-15T10:13:54Z</time></trkpt>
<trkpt lat="53.0979930000" lon="-4.1577960000"><ele>723</ele><time>2016-10-15T10:13:55Z</time></trkpt>
<trkpt lat="53.0979900000" lon="-4.1577980000"><ele>723</ele><time>2016-10-15T10:13:56Z</time></trkpt>
<trkpt lat="53.0979860000" lon="-4.1578010000"><ele>724</ele><time>2016-10-15T10:13:57Z</time></trkpt>
<trkpt lat="53.0979820000" lon="-4.1578030000"><ele>724</ele><time>2016-10-15T10:13:58Z</time></trkpt>
<trkpt lat="53.0979770000" lon="-4.1578070000"><ele>724</ele><time>2016-10-15T10:13:59Z</time></trkpt>
<trkpt lat="53.0979720000" lon="-4.1578100000"><ele>724</ele><time>2016-10-15T10:14:00Z</time></trkpt>
<trkpt lat="53.0979670000" lon="-4.1578130000"><ele>724</ele><time>2016-10-15T10:14:01Z</time></trkpt>
<trkpt lat="53.0979610000" lon="-4.1578160000"><ele>724</ele><time>2016-10-15T10:14:02Z</time></trkpt>
<trkpt lat="53.0979550000" lon="-4.1578200000"><ele>725</ele><time>2016-10-15T10:14:03Z</time></trkpt>
<trkpt lat="53.0979480000" lon="-4.1578230000"><ele>725</ele><time>2016-10-15T10:14:04Z</time></trkpt>
<trkpt lat="53.0979420000" lon="-4.1578270000"><ele>725</ele><time>2016-10-15T10:14:05Z</time></trkpt>
<trkpt lat="53.0979350000" lon="-4.1578300000"><ele>725</ele><time>2016-10-15T10:14:06Z</time></trkpt>
<trkpt lat="53.0979280000" lon="-4.1578330000"><ele>725</ele><time>2016-10-15T10:14:07Z</time></trkpt>
<trkpt lat="53.0979210000" lon="-4.1578370000"><ele>725</ele><time>2016-10-15T10:14:08Z</time></trkpt>
<trkpt lat="53.0979130000" lon="-4.1578400000"><ele>725</ele><time>2016-10-15T10:14:09Z</time></trkpt>
<trkpt lat="53.0979070000" lon="-4.1578430000"><ele>726</ele><time>2016-10-15T10:14:10Z</time></trkpt>
<trkpt lat="53.0979000000" lon="-4.1578470000"><ele>726</ele><time>2016-10-15T10:14:11Z</time></trkpt>
<trkpt lat="53.0978940000" lon="-4.1578500000"><ele>726</ele><time>2016-10-15T10:14:12Z</time></trkpt>
<trkpt lat="53.0978880000" lon="-4.1578530000"><ele>726</ele><time>2016-10-15T10:14:13Z</time></trkpt>
<trkpt lat="53.0978830000" lon="-4.1578550000"><ele>726</ele><time>2016-10-15T10:14:14Z</time></trkpt>
<trkpt lat="53.0978770000" lon="-4.1578580000"><ele>727</ele><time>2016-10-15T10:14:15Z</time></trkpt>
<trkpt lat="53.0978720000" lon="-4.1578600000"><ele>727</ele><time>2016-10-15T10:14:16Z</time></trkpt>
<trkpt lat="53.0978660000" lon="-4.1578630000"><ele>727</ele><time>2016-10-15T10:14:17Z</time></trkpt>
<trkpt lat="53.0978600000" lon="-4.1578660000"><ele>727</ele><time>2016-10-15T10:14:18Z</time></trkpt>
<trkpt lat="53.0978550000" lon="-4.1578680000"><ele>727</ele><time>2016-10-15T10:14:19Z</time></trkpt>
<trkpt lat="53.0978500000" lon="-4.1578700000"><ele>727</ele><time>2016-10-15T10:14:20Z</time></trkpt>
<trkpt lat="53.0978440000" lon="-4.1578720000"><ele>728</ele><time>2016-10-15T10:14:21Z</time></trkpt>
<trkpt lat="53.0978400000" lon="-4.1578740000"><ele>728</ele><time>2016-10-15T10:14:22Z</time></trkpt>
<trkpt lat="53.0978350000" lon="-4.1578750000"><ele>728</ele><time>2016-10-15T10:14:23Z</time></trkpt>
<trkpt lat="53.0978290000" lon="-4.1578770000"><ele>728</ele><time>2016-10-15T10:14:24Z</time></trkpt>
<trkpt lat="53.0978040000" lon="-4.1578860000"><ele>728</ele><time>2016-10-15T10:14:28Z</time></trkpt>
<trkpt lat="53.0977830000" lon="-4.1578950000"><ele>728</ele><time>2016-10-15T10:14:31Z</time></trkpt>
<trkpt lat="53.0977590000" lon="-4.1579040000"><ele>729</ele><time>2016-10-15T10:14:34Z</time></trkpt>
<trkpt lat="53.0975900000" lon="-4.1579840000"><ele>729</ele><time>2016-10-15T10:14:36Z</time></trkpt>
<trkpt lat="53.0975650000" lon="-4.1580070000"><ele>729</ele><time>2016-10-15T10:14:38Z</time></trkpt>
<trkpt lat="53.0975440000" lon="-4.1580240000"><ele>730</ele><time>2016-10-15T10:14:40Z</time></trkpt>
<trkpt lat="53.0975120000" lon="-4.1580520000"><ele>730</ele><time>2016-10-15T10:14:43Z</time></trkpt>
<trkpt lat="53.0974900000" lon="-4.1580700000"><ele>730</ele><time>2016-10-15T10:14:45Z</time></trkpt>
<trkpt lat="53.0974610000" lon="-4.1580770000"><ele>731</ele><time>2016-10-15T10:14:47Z</time></trkpt>
<trkpt lat="53.0974470000" lon="-4.1580800000"><ele>731</ele><time>2016-10-15T10:14:48Z</time></trkpt>
<trkpt lat="53.0974350000" lon="-4.1580850000"><ele>731</ele><time>2016-10-15T10:14:49Z</time></trkpt>
<trkpt lat="53.0974240000" lon="-4.1580950000"><ele>731</ele><time>2016-10-15T10:14:50Z</time></trkpt>
<trkpt lat="53.0974140000" lon="-4.1581080000"><ele>731</ele><time>2016-10-15T10:14:51Z</time></trkpt>
<trkpt lat="53.0974050000" lon="-4.1581170000"><ele>732</ele><time>2016-10-15T10:14:52Z</time></trkpt>
<trkpt lat="53.0973960000" lon="-4.1581290000"><ele>732</ele><time>2016-10-15T10:14:53Z</time></trkpt>
<trkpt lat="53.0973900000" lon="-4.1581440000"><ele>732</ele><time>2016-10-15T10:14:54Z</time></trkpt>
<trkpt lat="53.0973820000" lon="-4.1581580000"><ele>732</ele><time>2016-10-15T10:14:55Z</time></trkpt>
<trkpt lat="53.0973750000" lon="-4.1581690000"><ele>732</ele><time>2016-10-15T10:14:56Z</time></trkpt>
<trkpt lat="53.0973660000" lon="-4.1581770000"><ele>732</ele><time>2016-10-15T10:14:57Z</time></trkpt>
<trkpt lat="53.0973660000" lon="-4.1581770000"><ele>732</ele><time>2016-10-15T10:14:58Z</time></trkpt>
<trkpt lat="53.0973650000" lon="-4.1581770000"><ele>732</ele><time>2016-10-15T10:14:59Z</time></trkpt>
<trkpt lat="53.0973650000" lon="-4.1581780000"><ele>733</ele><time>2016-10-15T10:15:00Z</time></trkpt>
<trkpt lat="53.0973640000" lon="-4.1581780000"><ele>733</ele><time>2016-10-15T10:15:01Z</time></trkpt>
<trkpt lat="53.0973630000" lon="-4.1581790000"><ele>733</ele><time>2016-10-15T10:15:02Z</time></trkpt>
<trkpt lat="53.0973620000" lon="-4.1581800000"><ele>733</ele><time>2016-10-15T10:15:03Z</time></trkpt>
<trkpt lat="53.0972900000" lon="-4.1582300000"><ele>733</ele><time>2016-10-15T10:15:04Z</time></trkpt>
<trkpt lat="53.0972790000" lon="-4.1582380000"><ele>733</ele><time>2016-10-15T10:15:05Z</time></trkpt>
<trkpt lat="53.0972680000" lon="-4.1582440000"><ele>733</ele><time>2016-10-15T10:15:06Z</time></trkpt>
<trkpt lat="53.0972580000" lon="-4.1582480000"><ele>733</ele><time>2016-10-15T10:15:07Z</time></trkpt>
<trkpt lat="53.0972460000" lon="-4.1582550000"><ele>733</ele><time>2016-10-15T10:15:08Z</time></trkpt>
<trkpt lat="53.0972360000" lon="-4.1582620000"><ele>734</ele><time>2016-10-15T10:15:09Z</time></trkpt>
<trkpt lat="53.0972270000" lon="-4.1582700000"><ele>734</ele><time>2016-10-15T10:15:10Z</time></trkpt>
<trkpt lat="53.0972270000" lon="-4.1582700000"><ele>734</ele><time>2016-10-15T10:15:11Z</time></trkpt>
<trkpt lat="53.0972100000" lon="-4.1582940000"><ele>734</ele><time>2016-10-15T10:15:12Z</time></trkpt>
<trkpt lat="53.0972000000" lon="-4.1583060000"><ele>734</ele><time>2016-10-15T10:15:13Z</time></trkpt>
<trkpt lat="53.0971900000" lon="-4.1583170000"><ele>734</ele><time>2016-10-15T10:15:14Z</time></trkpt>
<trkpt lat="53.0971820000" lon="-4.1583250000"><ele>734</ele><time>2016-10-15T10:15:15Z</time></trkpt>
<trkpt lat="53.0971740000" lon="-4.1583340000"><ele>734</ele><time>2016-10-15T10:15:16Z</time></trkpt>
<trkpt lat="53.0971740000" lon="-4.1583340000"><ele>734</ele><time>2016-10-15T10:15:17Z</time></trkpt>
<trkpt lat="53.0971740000" lon="-4.1583340000"><ele>734</ele><time>2016-10-15T10:15:18Z</time></trkpt>
<trkpt lat="53.0971740000" lon="-4.1583350000"><ele>734</ele><time>2016-10-15T10:15:19Z</time></trkpt>
<trkpt lat="53.0971730000" lon="-4.1583360000"><ele>735</ele><time>2016-10-15T10:15:20Z</time></trkpt>
<trkpt lat="53.0971730000" lon="-4.1583370000"><ele>735</ele><time>2016-10-15T10:15:21Z</time></trkpt>
<trkpt lat="53.0971720000" lon="-4.1583380000"><ele>735</ele><time>2016-10-15T10:15:22Z</time></trkpt>
<trkpt lat="53.0971710000" lon="-4.1583410000"><ele>735</ele><time>2016-10-15T10:15:23Z</time></trkpt>
<trkpt lat="53.0971700000" lon="-4.1583430000"><ele>735</ele><time>2016-10-15T10:15:24Z</time></trkpt>
<trkpt lat="53.0971690000" lon="-4.1583450000"><ele>735</ele><time>2016-10-15T10:15:25Z</time></trkpt>
<trkpt lat="53.0971680000" lon="-4.1583480000"><ele>735</ele><time>2016-10-15T10:15:26Z</time></trkpt>
<trkpt lat="53.0971660000" lon="-4.1583510000"><ele>735</ele><time>2016-10-15T10:15:27Z</time></trkpt>
<trkpt lat="53.0971650000" lon="-4.1583530000"><ele>735</ele><time>2016-10-15T10:15:28Z</time></trkpt>
<trkpt lat="53.0971640000" lon="-4.1583560000"><ele>735</ele><time>2016-10-15T10:15:29Z</time></trkpt>
<trkpt lat="53.0971620000" lon="-4.1583590000"><ele>735</ele><time>2016-10-15T10:15:30Z</time></trkpt>
<trkpt lat="53.0971600000" lon="-4.1583620000"><ele>735</ele><time>2016-10-15T10:15:31Z</time></trkpt>
<trkpt lat="53.0971590000" lon="-4.1583660000"><ele>735</ele><time>2016-10-15T10:15:32Z</time></trkpt>
<trkpt lat="53.0971570000" lon="-4.1583690000"><ele>735</ele><time>2016-10-15T10:15:33Z</time></trkpt>
<trkpt lat="53.0971550000" lon="-4.1583720000"><ele>735</ele><time>2016-10-15T10:15:34Z</time></trkpt>
<trkpt lat="53.0971530000" lon="-4.1583760000"><ele>735</ele><time>2016-10-15T10:15:35Z</time></trkpt>
<trkpt lat="53.0971510000" lon="-4.1583790000"><ele>736</ele><time>2016-10-15T10:15:36Z</time></trkpt>
<trkpt lat="53.0971500000" lon="-4.1583820000"><ele>736</ele><time>2016-10-15T10:15:37Z</time></trkpt>
<trkpt lat="53.0971480000" lon="-4.1583840000"><ele>736</ele><time>2016-10-15T10:15:38Z</time></trkpt>
<trkpt lat="53.0971470000" lon="-4.1583870000"><ele>736</ele><time>2016-10-15T10:15:39Z</time></trkpt>
<trkpt lat="53.0971450000" lon="-4.1583890000"><ele>736</ele><time>2016-10-15T10:15:40Z</time></trkpt>
<trkpt lat="53.0971430000" lon="-4.1583940000"><ele>736</ele><time>2016-10-15T10:15:43Z</time></trkpt>
<trkpt lat="53.0971420000" lon="-4.1583950000"><ele>736</ele></trkpt>
<trkpt lat="53.0971410000" lon="-4.1583970000"><ele>736</ele><time>2016-10-15T10:15:44Z</time></trkpt>
<trkpt lat="53.0971400000" lon="-4.1583980000"><ele>736</ele><time>2016-10-15T10:15:45Z</time></trkpt>
<trkpt lat="53.0971390000" lon="-4.1584000000"><ele>736</ele><time>2016-10-15T10:15:46Z</time></trkpt>
<trkpt lat="53.0971380000" lon="-4.1584010000"><ele>736</ele><time>2016-10-15T10:15:47Z</time></trkpt>
<trkpt lat="53.0971370000" lon="-4.1584020000"><ele>736</ele><time>2016-10-15T10:15:48Z</time></trkpt>
<trkpt lat="53.0971360000" lon="-4.1584030000"><ele>736</ele><time>2016-10-15T10:15:49Z</time></trkpt>
<trkpt lat="53.0971350000" lon="-4.1584040000"><ele>736</ele><time>2016-10-15T10:15:50Z</time></trkpt>
<trkpt lat="53.0971340000" lon="-4.1584050000"><ele>736</ele><time>2016-10-15T10:15:51Z</time></trkpt>
<trkpt lat="53.0971340000" lon="-4.1584050000"><ele>736</ele><time>2016-10-15T10:15:52Z</time></trkpt>
<trkpt lat="53.0971330000" lon="-4.1584060000"><ele>736</ele><time>2016-10-15T10:15:53Z</time></trkpt>
<trkpt lat="53.0971320000" lon="-4.1584070000"><ele>736</ele><time>2016-10-15T10:15:54Z</time></trkpt>
<trkpt lat="53.0971320000" lon="-4.1584080000"><ele>736</ele><time>2016-10-15T10:15:55Z</time></trkpt>
<trkpt lat="53.0971310000" lon="-4.1584080000"><ele>736</ele><time>2016-10-15T10:15:56Z</time></trkpt>
<trkpt lat="53.0971300000" lon="-4.1584090000"><ele>736</ele><time>2016-10-15T10:15:57Z</time></trkpt>
<trkpt lat="53.0971290000" lon="-4.1584100000"><ele>736</ele><time>2016-10-15T10:15:58Z</time></trkpt>
<trkpt lat="53.0971290000" lon="-4.1584110000"><ele>736</ele><time>2016-10-15T10:15:59Z</time></trkpt>
<trkpt lat="53.0971280000" lon="-4.1584110000"><ele>736</ele><time>2016-10-15T10:16:00Z</time></trkpt>
<trkpt lat="53.0971270000" lon="-4.1584120000"><ele>737</ele><time>2016-10-15T10:16:01Z</time></trkpt>
<trkpt lat="53.0971260000" lon="-4.1584130000"><ele>737</ele><time>2016-10-15T10:16:02Z</time></trkpt>
<trkpt lat="53.0971250000" lon="-4.1584140000"><ele>737</ele><time>2016-10-15T10:16:03Z</time></trkpt>
<trkpt lat="53.0971240000" lon="-4.1584150000"><ele>737</ele><time>2016-10-15T10:16:04Z</time></trkpt>
<trkpt lat="53.0971240000" lon="-4.1584160000"><ele>737</ele><time>2016-10-15T10:16:05Z</time></trkpt>
<trkpt lat="53.0971230000" lon="-4.1584170000"><ele>737</ele><time>2016-10-15T10:16:06Z</time></trkpt>
<trkpt lat="53.0971220000" lon="-4.1584170000"><ele>737</ele><time>2016-10-15T10:16:07Z</time></trkpt>
<trkpt lat="53.0971210000" lon="-4.1584180000"><ele>737</ele><time>2016-10-15T10:16:08Z</time></trkpt>
<trkpt lat="53.0971210000" lon="-4.1584180000"><ele>737</ele><time>2016-10-15T10:16:09Z</time></trkpt>
<trkpt lat="53.0971200000" lon="-4.1584190000"><ele>737</ele><time>2016-10-15T10:16:10Z</time></trkpt>
<trkpt lat="53.0971190000" lon="-4.1584190000"><ele>737</ele><time>2016-10-15T10:16:11Z</time></trkpt>
<trkpt lat="53.0971190000" lon="-4.1584200000"><ele>737</ele><time>2016-10-15T10:16:12Z</time></trkpt>
<trkpt lat="53.0971180000" lon="-4.1584200000"><ele>737</ele><time>2016-10-15T10:16:13Z</time></trkpt>
<trkpt lat="53.0971180000" lon="-4.1584200000"><ele>736</ele><time>2016-10-15T10:16:14Z</time></trkpt>
<trkpt lat="53.0971180000" lon="-4.1584200000"><ele>736</ele><time>2016-10-15T10:16:15Z</time></trkpt>
<trkpt lat="53.0971170000" lon="-4.1584210000"><ele>736</ele><time>2016-10-15T10:16:16Z</time></trkpt>
<trkpt lat="53.0971170000" lon="-4.1584210000"><ele>736</ele><time>2016-10-15T10:16:17Z</time></trkpt>
<trkpt lat="53.0971170000" lon="-4.1584210000"><ele>736</ele><time>2016-10-15T10:16:18Z</time></trkpt>
<trkpt lat="53.0971170000" lon="-4.1584210000"><ele>736</ele><time>2016-10-15T10:16:19Z</time></trkpt>
<trkpt lat="53.0971160000" lon="-4.1584210000"><ele>736</ele><time>2016-10-15T10:16:20Z</time></trkpt>
<trkpt lat="53.0971160000" lon="-4.1584200000"><ele>736</ele><time>2016-10-15T10:16:21Z</time></trkpt>
<trkpt lat="53.0971160000" lon="-4.1584200000"><ele>735</ele><time>2016-10-15T10:16:22Z</time></trkpt>
<trkpt lat="53.0971160000" lon="-4.1584200000"><ele>735</ele><time>2016-10-15T10:16:23Z</time></trkpt>
<trkpt lat="53.0971150000" lon="-4.1584190000"><ele>735</ele><time>2016-10-15T10:16:24Z</time></trkpt>
<trkpt lat="53.0971150000" lon="-4.1584190000"><ele>735</ele><time>2016-10-15T10:16:25Z</time></trkpt>
<trkpt lat="53.0971140000" lon="-4.1584190000"><ele>735</ele><time>2016-10-15T10:16:26Z</time></trkpt>
<trkpt lat="53.0971130000" lon="-4.1584190000"><ele>735</ele><time>2016-10-15T10:16:27Z</time></trkpt>
<trkpt lat="53.0971110000" lon="-4.1584180000"><ele>735</ele><time>2016-10-15T10:16:28Z</time></trkpt>
<trkpt lat="53.0971100000" lon="-4.1584170000"><ele>735</ele><time>2016-10-15T10:16:29Z</time></trkpt>
<trkpt lat="53.0971080000" lon="-4.1584160000"><ele>735</ele><time>2016-10-15T10:16:30Z</time></trkpt>
<trkpt lat="53.0971060000" lon="-4.1584150000"><ele>735</ele><time>2016-10-15T10:16:31Z</time></trkpt>
<trkpt lat="53.0971040000" lon="-4.1584140000"><ele>735</ele><time>2016-10-15T10:16:32Z</time></trkpt>
<trkpt lat="53.0971020000" lon="-4.1584130000"><ele>735</ele><time>2016-10-15T10:16:33Z</time></trkpt>
<trkpt lat="53.0970990000" lon="-4.1584130000"><ele>735</ele><time>2016-10-15T10:16:34Z</time></trkpt>
<trkpt lat="53.0970960000" lon="-4.1584120000"><ele>735</ele><time>2016-10-15T10:16:35Z</time></trkpt>
<trkpt lat="53.0970930000" lon="-4.1584130000"><ele>735</ele><time>2016-10-15T10:16:36Z</time></trkpt>
<trkpt lat="53.0970900000" lon="-4.1584130000"><ele>735</ele><time>2016-10-15T10:16:37Z</time></trkpt>
<trkpt lat="53.0970870000" lon="-4.1584140000"><ele>735</ele><time>2016-10-15T10:16:38Z</time></trkpt>
<trkpt lat="53.0970850000" lon="-4.1584150000"><ele>735</ele><time>2016-10-15T10:16:39Z</time></trkpt>
<trkpt lat="53.0970830000" lon="-4.1584150000"><ele>735</ele><time>2016-10-15T10:16:40Z</time></trkpt>
<trkpt lat="53.0970790000" lon="-4.1584150000"><ele>734</ele><time>2016-10-15T10:16:43Z</time></trkpt>
<trkpt lat="53.0970780000" lon="-4.1584150000"><ele>734</ele></trkpt>
<trkpt lat="53.0970770000" lon="-4.1584140000"><ele>734</ele><time>2016-10-15T10:16:44Z</time></trkpt>
<trkpt lat="53.0970760000" lon="-4.1584140000"><ele>734</ele><time>2016-10-15T10:16:45Z</time></trkpt>
<trkpt lat="53.0970750000" lon="-4.1584130000"><ele>734</ele><time>2016-10-15T10:16:46Z</time></trkpt>
<trkpt lat="53.0970750000" lon="-4.1584120000"><ele>734</ele><time>2016-10-15T10:16:47Z</time></trkpt>
<trkpt lat="53.0970740000" lon="-4.1584110000"><ele>734</ele><time>2016-10-15T10:16:48Z</time></trkpt>
<trkpt lat="53.0970740000" lon="-4.1584100000"><ele>734</ele><time>2016-10-15T10:16:49Z</time></trkpt>
<trkpt lat="53.0970730000" lon="-4.1584090000"><ele>734</ele><time>2016-10-15T10:16:50Z</time></trkpt>
<trkpt lat="53.0970730000" lon="-4.1584070000"><ele>734</ele><time>2016-10-15T10:16:51Z</time></trkpt>
<trkpt lat="53.0970730000" lon="-4.1584060000"><ele>734</ele><time>2016-10-15T10:16:52Z</time></trkpt>
<trkpt lat="53.0970730000" lon="-4.1584050000"><ele>734</ele><time>2016-10-15T10:16:53Z</time></trkpt>
<trkpt lat="53.0970720000" lon="-4.1584040000"><ele>734</ele><time>2016-10-15T10:16:54Z</time></trkpt>
<trkpt lat="53.0970720000" lon="-4.1584030000"><ele>734</ele><time>2016-10-15T10:16:55Z</time></trkpt>
<trkpt lat="53.0970710000" lon="-4.1584030000"><ele>734</ele><time>2016-10-15T10:16:56Z</time></trkpt>
<trkpt lat="53.0970700000" lon="-4.1584040000"><ele>734</ele><time>2016-10-15T10:16:57Z</time></trkpt>
<trkpt lat="53.0970690000" lon="-4.1584050000"><ele>734</ele><time>2016-10-15T10:16:58Z</time></trkpt>
<trkpt lat="53.0970680000" lon="-4.1584060000"><ele>733</ele><time>2016-10-15T10:16:59Z</time></trkpt>
<trkpt lat="53.0970680000" lon="-4.1584070000"><ele>733</ele><time>2016-10-15T10:17:00Z</time></trkpt>
<trkpt lat="53.0970670000" lon="-4.1584080000"><ele>733</ele><time>2016-10-15T10:17:01Z</time></trkpt>
<trkpt lat="53.0970660000" lon="-4.1584090000"><ele>733</ele><time>2016-10-15T10:17:02Z</time></trkpt>
<trkpt lat="53.0970650000" lon="-4.1584090000"><ele>733</ele><time>2016-10-15T10:17:03Z</time></trkpt>
<trkpt lat="53.0970640000" lon="-4.1584100000"><ele>733</ele><time>2016-10-15T10:17:04Z</time></trkpt>
<trkpt lat="53.0970640000" lon="-4.1584100000"><ele>733</ele><time>2016-10-15T10:17:05Z</time></trkpt>
<trkpt lat="53.0970560000" lon="-4.1584360000"><ele>731</ele><time>2016-10-15T10:27:17Z</time></trkpt>
<trkpt lat="53.0970560000" lon="-4.1584370000"><ele>731</ele><time>2016-10-15T10:27:18Z</time></trkpt>
<trkpt lat="53.0970560000" lon="-4.1584370000"><ele>731</ele><time>2016-10-15T10:27:19Z</time></trkpt>
<trkpt lat="53.0970560000" lon="-4.1584380000"><ele>731</ele><time>2016-10-15T10:27:20Z</time></trkpt>
<trkpt lat="53.0970560000" lon="-4.1584390000"><ele>731</ele><time>2016-10-15T10:27:21Z</time></trkpt>
<trkpt lat="53.0970560000" lon="-4.1584390000"><ele>731</ele><time>2016-10-15T10:27:22Z</time></trkpt>
<trkpt lat="53.0970560000" lon="-4.1584390000"><ele>731</ele><time>2016-10-15T10:27:23Z</time></trkpt>
<trkpt lat="53.0970550000" lon="-4.1584400000"><ele>731</ele><time>2016-10-15T10:27:24Z</time></trkpt>
<trkpt lat="53.0970550000" lon="-4.1584400000"><ele>731</ele><time>2016-10-15T10:27:25Z</time></trkpt>
<trkpt lat="53.0970550000" lon="-4.1584400000"><ele>731</ele><time>2016-10-15T10:27:26Z</time></trkpt>
<trkpt lat="53.0970540000" lon="-4.1584410000"><ele>731</ele><time>2016-10-15T10:27:27Z</time></trkpt>
<trkpt lat="53.0970540000" lon="-4.1584410000"><ele>731</ele><time>2016-10-15T10:27:28Z</time></trkpt>
<trkpt lat="53.0970540000" lon="-4.1584410000"><ele>731</ele><time>2016-10-15T10:27:29Z</time></trkpt>
<trkpt lat="53.0970530000" lon="-4.1584410000"><ele>731</ele><time>2016-10-15T10:27:30Z</time></trkpt>
<trkpt lat="53.0970530000" lon="-4.1584410000"><ele>731</ele><time>2016-10-15T10:27:31Z</time></trkpt>
<trkpt lat="53.0970530000" lon="-4.1584410000"><ele>731</ele><time>2016-10-15T10:27:32Z</time></trkpt>
<trkpt lat="53.0970530000" lon="-4.1584410000"><ele>731</ele><time>2016-10-15T10:27:33Z</time></trkpt>
<trkpt lat="53.0970530000" lon="-4.1584400000"><ele>731</ele><time>2016-10-15T10:27:34Z</time></trkpt>
<trkpt lat="53.0970530000" lon="-4.1584420000"><ele>731</ele><time>2016-10-15T10:27:43Z</time></trkpt>
<trkpt lat="53.0970530000" lon="-4.1584420000"><ele>731</ele></trkpt>
<trkpt lat="53.0970530000" lon="-4.1584420000"><ele>731</ele><time>2016-10-15T10:27:44Z</time></trkpt>
<trkpt lat="53.0970530000" lon="-4.1584420000"><ele>731</ele><time>2016-10-15T10:27:45Z</time></trkpt>
<trkpt lat="53.0970530000" lon="-4.1584420000"><ele>731</ele><time>2016-10-15T10:27:46Z</time></trkpt>
<trkpt lat="53.0970530000" lon="-4.1584410000"><ele>731</ele><time>2016-10-15T10:27:47Z</time></trkpt>
<trkpt lat="53.0970530000" lon="-4.1584410000"><ele>731</ele><time>2016-10-15T10:27:48Z</time></trkpt>
<trkpt lat="53.0970530000" lon="-4.1584410000"><ele>731</ele><time>2016-10-15T10:27:49Z</time></trkpt>
<trkpt lat="53.0970530000" lon="-4.1584400000"><ele>731</ele><time>2016-10-15T10:27:50Z</time></trkpt>
<trkpt lat="53.0970530000" lon="-4.1584400000"><ele>731</ele><time>2016-10-15T10:27:51Z</time></trkpt>
<trkpt lat="53.0970530000" lon="-4.1584400000"><ele>731</ele><time>2016-10-15T10:27:52Z</time></trkpt>
<trkpt lat="53.0970530000" lon="-4.1584390000"><ele>731</ele><time>2016-10-15T10:27:53Z</time></trkpt>
<trkpt lat="53.0970530000" lon="-4.1584390000"><ele>731</ele><time>2016-10-15T10:27:54Z</time></trkpt>
<trkpt lat="53.0970530000" lon="-4.1584380000"><ele>731</ele><time>2016-10-15T10:27:55Z</time></trkpt>
<trkpt lat="53.0970530000" lon="-4.1584380000"><ele>731</ele><time>2016-10-15T10:27:56Z</time></trkpt>
<trkpt lat="53.0970530000" lon="-4.1584380000"><ele>731</ele><time>2016-10-15T10:27:57Z</time></trkpt>
<trkpt lat="53.0970530000" lon="-4.1584370000"><ele>731</ele><time>2016-10-15T10:27:58Z</time></trkpt>
<trkpt lat="53.0970530000" lon="-4.1584370000"><ele>732</ele><time>2016-10-15T10:27:59Z</time></trkpt>
<trkpt lat="53.0970530000" lon="-4.1584360000"><ele>732</ele><time>2016-10-15T10:28:00Z</time></trkpt>
<trkpt lat="53.0970530000" lon="-4.1584360000"><ele>732</ele><time>2016-10-15T10:28:01Z</time></trkpt>
<trkpt lat="53.0970530000" lon="-4.1584350000"><ele>732</ele><time>2016-10-15T10:28:02Z</time></trkpt>
<trkpt lat="53.0970530000" lon="-4.1584340000"><ele>732</ele><time>2016-10-15T10:28:03Z</time></trkpt>
<trkpt lat="53.0970530000" lon="-4.1584340000"><ele>732</ele><time>2016-10-15T10:28:04Z</time></trkpt>
<trkpt lat="53.0970530000" lon="-4.1584330000"><ele>732</ele><time>2016-10-15T10:28:05Z</time></trkpt>
<trkpt lat="53.0970530000" lon="-4.1584320000"><ele>732</ele><time>2016-10-15T10:28:06Z</time></trkpt>
<trkpt lat="53.0970540000" lon="-4.1584310000"><ele>732</ele><time>2016-10-15T10:28:07Z</time></trkpt>
<trkpt lat="53.0970540000" lon="-4.1584300000"><ele>732</ele><time>2016-10-15T10:28:08Z</time></trkpt>
<trkpt lat="53.0970540000" lon="-4.1584290000"><ele>732</ele><time>2016-10-15T10:28:09Z</time></trkpt>
<trkpt lat="53.0970620000" lon="-4.1583790000"><ele>732</ele><time>2016-10-15T10:28:58Z</time></trkpt>
<trkpt lat="53.0970700000" lon="-4.1583780000"><ele>732</ele><time>2016-10-15T10:28:59Z</time></trkpt>
<trkpt lat="53.0970710000" lon="-4.1583790000"><ele>732</ele><time>2016-10-15T10:29:00Z</time></trkpt>
<trkpt lat="53.0970710000" lon="-4.1583790000"><ele>733</ele><time>2016-10-15T10:29:04Z</time></trkpt>
<trkpt lat="53.0970710000" lon="-4.1583800000"><ele>733</ele><time>2016-10-15T10:29:05Z</time></trkpt>
<trkpt lat="53.0970710000" lon="-4.1583800000"><ele>733</ele><time>2016-10-15T10:29:06Z</time></trkpt>
<trkpt lat="53.0970710000" lon="-4.1583800000"><ele>733</ele><time>2016-10-15T10:29:07Z</time></trkpt>
<trkpt lat="53.0970700000" lon="-4.1583810000"><ele>733</ele><time>2016-10-15T10:29:08Z</time></trkpt>
<trkpt lat="53.0970700000" lon="-4.1583810000"><ele>733</ele><time>2016-10-15T10:29:09Z</time></trkpt>
<trkpt lat="53.0970700000" lon="-4.1583820000"><ele>733</ele><time>2016-10-15T10:29:10Z</time></trkpt>
<trkpt lat="53.0970690000" lon="-4.1583820000"><ele>734</ele><time>2016-10-15T10:29:11Z</time></trkpt>
<trkpt lat="53.0970680000" lon="-4.1583830000"><ele>734</ele><time>2016-10-15T10:29:12Z</time></trkpt>
<trkpt lat="53.0970670000" lon="-4.1583840000"><ele>734</ele><time>2016-10-15T10:29:13Z</time></trkpt>
<trkpt lat="53.0970660000" lon="-4.1583850000"><ele>734</ele><time>2016-10-15T10:29:14Z</time></trkpt>
<trkpt lat="53.0970650000" lon="-4.1583860000"><ele>734</ele><time>2016-10-15T10:29:15Z</time></trkpt>
<trkpt lat="53.0970640000" lon="-4.1583870000"><ele>734</ele><time>2016-10-15T10:29:16Z</time></trkpt>
<trkpt lat="53.0970640000" lon="-4.1583880000"><ele>734</ele><time>2016-10-15T10:29:17Z</time></trkpt>
<trkpt lat="53.0970630000" lon="-4.1583880000"><ele>734</ele><time>2016-10-15T10:29:18Z</time></trkpt>
<trkpt lat="53.0970620000" lon="-4.1583890000"><ele>734</ele><time>2016-10-15T10:29:19Z</time></trkpt>
<trkpt lat="53.0970610000" lon="-4.1583900000"><ele>734</ele><time>2016-10-15T10:29:20Z</time></trkpt>
<trkpt lat="53.0970600000" lon="-4.1583900000"><ele>734</ele><time>2016-10-15T10:29:21Z</time></trkpt>
<trkpt lat="53.0970440000" lon="-4.1584000000"><ele>730</ele><time>2016-10-15T10:30:24Z</time></trkpt>
<trkpt lat="53.0970440000" lon="-4.1584000000"><ele>730</ele><time>2016-10-15T10:30:25Z</time></trkpt>
<trkpt lat="53.0970440000" lon="-4.1584010000"><ele>730</ele><time>2016-10-15T10:30:26Z</time></trkpt>
<trkpt lat="53.0970440000" lon="-4.1584010000"><ele>730</ele><time>2016-10-15T10:30:27Z</time></trkpt>
<trkpt lat="53.0970440000" lon="-4.1584020000"><ele>730</ele><time>2016-10-15T10:30:28Z</time></trkpt>
<trkpt lat="53.0970440000" lon="-4.1584020000"><ele>730</ele><time>2016-10-15T10:30:29Z</time></trkpt>
<trkpt lat="53.0970450000" lon="-4.1584030000"><ele>731</ele><time>2016-10-15T10:30:30Z</time></trkpt>
<trkpt lat="53.0970450000" lon="-4.1584030000"><ele>731</ele><time>2016-10-15T10:30:31Z</time></trkpt>
<trkpt lat="53.0970450000" lon="-4.1584040000"><ele>731</ele><time>2016-10-15T10:30:32Z</time></trkpt>
<trkpt lat="53.0970450000" lon="-4.1584050000"><ele>731</ele><time>2016-10-15T10:30:33Z</time></trkpt>
<trkpt lat="53.0970460000" lon="-4.1584050000"><ele>731</ele><time>2016-10-15T10:30:34Z</time></trkpt>
<trkpt lat="53.0970460000" lon="-4.1584060000"><ele>731</ele><time>2016-10-15T10:30:35Z</time></trkpt>
<trkpt lat="53.0970460000" lon="-4.1584060000"><ele>731</ele><time>2016-10-15T10:30:36Z</time></trkpt>
<trkpt lat="53.0970470000" lon="-4.1584070000"><ele>731</ele><time>2016-10-15T10:30:37Z</time></trkpt>
<trkpt lat="53.0970470000" lon="-4.1584070000"><ele>731</ele><time>2016-10-15T10:30:38Z</time></trkpt>
<trkpt lat="53.0970480000" lon="-4.1584080000"><ele>731</ele><time>2016-10-15T10:30:39Z</time></trkpt>
<trkpt lat="53.0970490000" lon="-4.1584080000"><ele>731</ele><time>2016-10-15T10:30:41Z</time></trkpt>
<trkpt lat="53.0970500000" lon="-4.1584080000"><ele>731</ele><time>2016-10-15T10:30:42Z</time></trkpt>
<trkpt lat="53.0970510000" lon="-4.1584080000"><ele>731</ele><time>2016-10-15T10:30:43Z</time></trkpt>
<trkpt lat="53.0970510000" lon="-4.1584080000"><ele>731</ele><time>2016-10-15T10:30:44Z</time></trkpt>
<trkpt lat="53.0970520000" lon="-4.1584080000"><ele>731</ele><time>2016-10-15T10:30:45Z</time></trkpt>
<trkpt lat="53.0970530000" lon="-4.1584080000"><ele>731</ele><time>2016-10-15T10:30:46Z</time></trkpt>
<trkpt lat="53.0970530000" lon="-4.1584080000"><ele>732</ele><time>2016-10-15T10:30:47Z</time></trkpt>
<trkpt lat="53.0970540000" lon="-4.1584080000"><ele>732</ele><time>2016-10-15T10:30:48Z</time></trkpt>
<trkpt lat="53.0970540000" lon="-4.1584090000"><ele>732</ele><time>2016-10-15T10:30:49Z</time></trkpt>
<trkpt lat="53.0970550000" lon="-4.1584090000"><ele>732</ele><time>2016-10-15T10:30:50Z</time></trkpt>
<trkpt lat="53.0970550000" lon="-4.1584090000"><ele>732</ele><time>2016-10-15T10:30:51Z</time></trkpt>
<trkpt lat="53.0970550000" lon="-4.1584090000"><ele>732</ele><time>2016-10-15T10:30:52Z</time></trkpt>
<trkpt lat="53.0970560000" lon="-4.1584090000"><ele>732</ele><time>2016-10-15T10:30:53Z</time></trkpt>
<trkpt lat="53.0970560000" lon="-4.1584090000"><ele>732</ele><time>2016-10-15T10:30:54Z</time></trkpt>
<trkpt lat="53.0970560000" lon="-4.1584100000"><ele>732</ele><time>2016-10-15T10:30:55Z</time></trkpt>
<trkpt lat="53.0970570000" lon="-4.1584100000"><ele>732</ele><time>2016-10-15T10:30:56Z</time></trkpt>
<trkpt lat="53.0970570000" lon="-4.1584110000"><ele>732</ele><time>2016-10-15T10:30:57Z</time></trkpt>
<trkpt lat="53.0970570000" lon="-4.1584110000"><ele>733</ele><time>2016-10-15T10:30:58Z</time></trkpt>
<trkpt lat="53.0970570000" lon="-4.1584120000"><ele>733</ele><time>2016-10-15T10:30:59Z</time></trkpt>
<trkpt lat="53.0970640000" lon="-4.1584190000"><ele>734</ele><time>2016-10-15T10:31:15Z</time></trkpt>
<trkpt lat="53.0970640000" lon="-4.1584190000"><ele>734</ele><time>2016-10-15T10:31:16Z</time></trkpt>
<trkpt lat="53.0970640000" lon="-4.1584180000"><ele>734</ele><time>2016-10-15T10:31:17Z</time></trkpt>
<trkpt lat="53.0970630000" lon="-4.1584170000"><ele>734</ele><time>2016-10-15T10:31:19Z</time></trkpt>
<trkpt lat="53.0970620000" lon="-4.1584170000"><ele>734</ele><time>2016-10-15T10:31:20Z</time></trkpt>
<trkpt lat="53.0970620000" lon="-4.1584160000"><ele>734</ele><time>2016-10-15T10:31:21Z</time></trkpt>
<trkpt lat="53.0970600000" lon="-4.1584140000"><ele>734</ele><time>2016-10-15T10:31:26Z</time></trkpt>
<trkpt lat="53.0970590000" lon="-4.1584130000"><ele>734</ele><time>2016-10-15T10:31:27Z</time></trkpt>
<trkpt lat="53.0970590000" lon="-4.1584130000"><ele>734</ele><time>2016-10-15T10:31:28Z</time></trkpt>
<trkpt lat="53.0970590000" lon="-4.1584130000"><ele>734</ele><time>2016-10-15T10:31:29Z</time></trkpt>
<trkpt lat="53.0970590000" lon="-4.1584130000"><ele>734</ele><time>2016-10-15T10:31:30Z</time></trkpt>
<trkpt lat="53.0970590000" lon="-4.1584140000"><ele>734</ele><time>2016-10-15T10:31:31Z</time></trkpt>
<trkpt lat="53.0970590000" lon="-4.1584140000"><ele>734</ele><time>2016-10-15T10:31:32Z</time></trkpt>
<trkpt lat="53.0970590000" lon="-4.1584140000"><ele>734</ele><time>2016-10-15T10:31:33Z</time></trkpt>
<trkpt lat="53.0970590000" lon="-4.1584150000"><ele>734</ele><time>2016-10-15T10:31:34Z</time></trkpt>
<trkpt lat="53.0970590000" lon="-4.1584150000"><ele>734</ele><time>2016-10-15T10:31:35Z</time></trkpt>
<trkpt lat="53.0970590000" lon="-4.1584150000"><ele>734</ele><time>2016-10-15T10:31:36Z</time></trkpt>
<trkpt lat="53.0970580000" lon="-4.1584160000"><ele>734</ele><time>2016-10-15T10:31:37Z</time></trkpt>
<trkpt lat="53.0970580000" lon="-4.1584160000"><ele>734</ele><time>2016-10-15T10:31:38Z</time></trkpt>
<trkpt lat="53.0970580000" lon="-4.1584160000"><ele>734</ele><time>2016-10-15T10:31:39Z</time></trkpt>
<trkpt lat="53.0970570000" lon="-4.1584170000"><ele>734</ele><time>2016-10-15T10:31:41Z</time></trkpt>
<trkpt lat="53.0970570000" lon="-4.1584170000"><ele>734</ele><time>2016-10-15T10:31:42Z</time></trkpt>
<trkpt lat="53.0970540000" lon="-4.1584200000"><ele>733</ele><time>2016-10-15T10:31:47Z</time></trkpt>
<trkpt lat="53.0970530000" lon="-4.1584210000"><ele>733</ele><time>2016-10-15T10:31:48Z</time></trkpt>
<trkpt lat="53.0970530000" lon="-4.1584220000"><ele>733</ele><time>2016-10-15T10:31:49Z</time></trkpt>
<trkpt lat="53.0970520000" lon="-4.1584220000"><ele>733</ele><time>2016-10-15T10:31:50Z</time></trkpt>
<trkpt lat="53.0970510000" lon="-4.1584230000"><ele>733</ele><time>2016-10-15T10:31:51Z</time></trkpt>
<trkpt lat="53.0970510000" lon="-4.1584240000"><ele>733</ele><time>2016-10-15T10:31:52Z</time></trkpt>
<trkpt lat="53.0970510000" lon="-4.1584240000"><ele>732</ele><time>2016-10-15T10:31:53Z</time></trkpt>
<trkpt lat="53.0970500000" lon="-4.1584250000"><ele>732</ele><time>2016-10-15T10:31:54Z</time></trkpt>
<trkpt lat="53.0970500000" lon="-4.1584260000"><ele>732</ele><time>2016-10-15T10:31:55Z</time></trkpt>
<trkpt lat="53.0970500000" lon="-4.1584270000"><ele>732</ele><time>2016-10-15T10:31:56Z</time></trkpt>
<trkpt lat="53.0970490000" lon="-4.1584270000"><ele>732</ele><time>2016-10-15T10:31:57Z</time></trkpt>
<trkpt lat="53.0970490000" lon="-4.1584280000"><ele>732</ele><time>2016-10-15T10:31:58Z</time></trkpt>
<trkpt lat="53.0970490000" lon="-4.1584290000"><ele>732</ele><time>2016-10-15T10:31:59Z</time></trkpt>
<trkpt lat="53.0970490000" lon="-4.1584290000"><ele>732</ele><time>2016-10-15T10:32:00Z</time></trkpt>
<trkpt lat="53.0970480000" lon="-4.1584300000"><ele>732</ele><time>2016-10-15T10:32:01Z</time></trkpt>
<trkpt lat="53.0970480000" lon="-4.1584300000"><ele>732</ele><time>2016-10-15T10:32:02Z</time></trkpt>
<trkpt lat="53.0970480000" lon="-4.1584310000"><ele>732</ele><time>2016-10-15T10:32:03Z</time></trkpt>
<trkpt lat="53.0970470000" lon="-4.1584310000"><ele>732</ele><time>2016-10-15T10:32:04Z</time></trkpt>
<trkpt lat="53.0970470000" lon="-4.1584320000"><ele>732</ele><time>2016-10-15T10:32:05Z</time></trkpt>
<trkpt lat="53.0970470000" lon="-4.1584320000"><ele>732</ele><time>2016-10-15T10:32:06Z</time></trkpt>
<trkpt lat="53.0970470000" lon="-4.1584330000"><ele>732</ele><time>2016-10-15T10:32:07Z</time></trkpt>
<trkpt lat="53.0970470000" lon="-4.1584330000"><ele>732</ele><time>2016-10-15T10:32:08Z</time></trkpt>
<trkpt lat="53.0970470000" lon="-4.1584340000"><ele>732</ele><time>2016-10-15T10:32:09Z</time></trkpt>
<trkpt lat="53.0970470000" lon="-4.1584340000"><ele>732</ele><time>2016-10-15T10:32:10Z</time></trkpt>
<trkpt lat="53.0970470000" lon="-4.1584350000"><ele>732</ele><time>2016-10-15T10:32:11Z</time></trkpt>
<trkpt lat="53.0970470000" lon="-4.1584350000"><ele>732</ele><time>2016-10-15T10:32:12Z</time></trkpt>
<trkpt lat="53.0970460000" lon="-4.1584350000"><ele>732</ele><time>2016-10-15T10:32:13Z</time></trkpt>
<trkpt lat="53.0970460000" lon="-4.1584350000"><ele>732</ele><time>2016-10-15T10:32:14Z</time></trkpt>
<trkpt lat="53.0970490000" lon="-4.1584230000"><ele>732</ele><time>2016-10-15T10:33:02Z</time></trkpt>
<trkpt lat="53.0970490000" lon="-4.1584230000"><ele>732</ele><time>2016-10-15T10:33:03Z</time></trkpt>
<trkpt lat="53.0970500000" lon="-4.1584230000"><ele>732</ele><time>2016-10-15T10:33:04Z</time></trkpt>
<trkpt lat="53.0970500000" lon="-4.1584230000"><ele>732</ele><time>2016-10-15T10:33:05Z</time></trkpt>
<trkpt lat="53.0970510000" lon="-4.1584230000"><ele>732</ele><time>2016-10-15T10:33:06Z</time></trkpt>
<trkpt lat="53.0970510000" lon="-4.1584230000"><ele>733</ele><time>2016-10-15T10:33:07Z</time></trkpt>
<trkpt lat="53.0970510000" lon="-4.1584230000"><ele>733</ele><time>2016-10-15T10:33:08Z</time></trkpt>
<trkpt lat="53.0970510000" lon="-4.1584230000"><ele>733</ele><time>2016-10-15T10:33:09Z</time></trkpt>
<trkpt lat="53.0970510000" lon="-4.1584230000"><ele>733</ele><time>2016-10-15T10:33:10Z</time></trkpt>
<trkpt lat="53.0970510000" lon="-4.1584230000"><ele>733</ele><time>2016-10-15T10:33:11Z</time></trkpt>
<trkpt lat="53.0970510000" lon="-4.1584220000"><ele>733</ele><time>2016-10-15T10:33:12Z</time></trkpt>
<trkpt lat="53.0970510000" lon="-4.1584220000"><ele>733</ele><time>2016-10-15T10:33:13Z</time></trkpt>
<trkpt lat="53.0970510000" lon="-4.1584220000"><ele>733</ele><time>2016-10-15T10:33:14Z</time></trkpt>
<trkpt lat="53.0970510000" lon="-4.1584220000"><ele>733</ele><time>2016-10-15T10:33:15Z</time></trkpt>
<trkpt lat="53.0970510000" lon="-4.1584220000"><ele>733</ele><time>2016-10-15T10:33:16Z</time></trkpt>
<trkpt lat="53.0970510000" lon="-4.1584220000"><ele>733</ele><time>2016-10-15T10:33:17Z</time></trkpt>
<trkpt lat="53.0970510000" lon="-4.1584210000"><ele>733</ele><time>2016-10-15T10:33:18Z</time></trkpt>
<trkpt lat="53.0970510000" lon="-4.1584210000"><ele>733</ele><time>2016-10-15T10:33:19Z</time></trkpt>
<trkpt lat="53.0970510000" lon="-4.1584210000"><ele>733</ele><time>2016-10-15T10:33:20Z</time></trkpt>
<trkpt lat="53.0970510000" lon="-4.1584200000"><ele>733</ele><time>2016-10-15T10:33:21Z</time></trkpt>
<trkpt lat="53.0970510000" lon="-4.1584200000"><ele>733</ele><time>2016-10-15T10:33:22Z</time></trkpt>
<trkpt lat="53.0970520000" lon="-4.1584190000"><ele>733</ele><time>2016-10-15T10:33:23Z</time></trkpt>
<trkpt lat="53.0970520000" lon="-4.1584190000"><ele>733</ele><time>2016-10-15T10:33:24Z</time></trkpt>
<trkpt lat="53.0970520000" lon="-4.1584180000"><ele>733</ele><time>2016-10-15T10:33:25Z</time></trkpt>
<trkpt lat="53.0970520000" lon="-4.1584180000"><ele>733</ele><time>2016-10-15T10:33:26Z</time></trkpt>
<trkpt lat="53.0970520000" lon="-4.1584180000"><ele>733</ele><time>2016-10-15T10:33:27Z</time></trkpt>
<trkpt lat="53.0970520000" lon="-4.1584170000"><ele>733</ele><time>2016-10-15T10:33:28Z</time></trkpt>
<trkpt lat="53.0970520000" lon="-4.1584170000"><ele>733</ele><time>2016-10-15T10:33:29Z</time></trkpt>
<trkpt lat="53.0970520000" lon="-4.1584160000"><ele>732</ele><time>2016-10-15T10:33:30Z</time></trkpt>
<trkpt lat="53.0970520000" lon="-4.1584160000"><ele>732</ele><time>2016-10-15T10:33:31Z</time></trkpt>
<trkpt lat="53.0970520000" lon="-4.1584160000"><ele>732</ele><time>2016-10-15T10:33:32Z</time></trkpt>
<trkpt lat="53.0970510000" lon="-4.1584150000"><ele>732</ele><time>2016-10-15T10:33:33Z</time></trkpt>
<trkpt lat="53.0970510000" lon="-4.1584150000"><ele>732</ele><time>2016-10-15T10:33:34Z</time></trkpt>
<trkpt lat="53.0970510000" lon="-4.1584150000"><ele>732</ele><time>2016-10-15T10:33:35Z</time></trkpt>
<trkpt lat="53.0970500000" lon="-4.1584150000"><ele>732</ele><time>2016-10-15T10:33:36Z</time></trkpt>
<trkpt lat="53.0970500000" lon="-4.1584150000"><ele>732</ele><time>2016-10-15T10:33:37Z</time></trkpt>
<trkpt lat="53.0970500000" lon="-4.1584150000"><ele>732</ele><time>2016-10-15T10:33:38Z</time></trkpt>
<trkpt lat="53.0970490000" lon="-4.1584150000"><ele>732</ele><time>2016-10-15T10:33:40Z</time></trkpt>
<trkpt lat="53.0970490000" lon="-4.1584150000"><ele>731</ele></trkpt>
<trkpt lat="53.0970480000" lon="-4.1584150000"><ele>731</ele><time>2016-10-15T10:33:41Z</time></trkpt>
<trkpt lat="53.0970480000" lon="-4.1584160000"><ele>731</ele><time>2016-10-15T10:33:42Z</time></trkpt>
<trkpt lat="53.0970470000" lon="-4.1584160000"><ele>731</ele><time>2016-10-15T10:33:43Z</time></trkpt>
<trkpt lat="53.0970470000" lon="-4.1584160000"><ele>731</ele><time>2016-10-15T10:33:44Z</time></trkpt>
<trkpt lat="53.0970460000" lon="-4.1584160000"><ele>731</ele><time>2016-10-15T10:33:45Z</time></trkpt>
<trkpt lat="53.0970460000" lon="-4.1584160000"><ele>731</ele><time>2016-10-15T10:33:46Z</time></trkpt>
<trkpt lat="53.0970460000" lon="-4.1584160000"><ele>731</ele><time>2016-10-15T10:33:47Z</time></trkpt>
<trkpt lat="53.0970450000" lon="-4.1584160000"><ele>731</ele><time>2016-10-15T10:33:48Z</time></trkpt>
<trkpt lat="53.0970440000" lon="-4.1584160000"><ele>731</ele><time>2016-10-15T10:33:49Z</time></trkpt>
<trkpt lat="53.0970440000" lon="-4.1584160000"><ele>731</ele><time>2016-10-15T10:33:50Z</time></trkpt>
<trkpt lat="53.0970430000" lon="-4.1584160000"><ele>731</ele><time>2016-10-15T10:33:51Z</time></trkpt>
<trkpt lat="53.0970420000" lon="-4.1584160000"><ele>731</ele><time>2016-10-15T10:33:52Z</time></trkpt>
<trkpt lat="53.0970420000" lon="-4.1584160000"><ele>731</ele><time>2016-10-15T10:33:53Z</time></trkpt>
<trkpt lat="53.0970410000" lon="-4.1584150000"><ele>731</ele><time>2016-10-15T10:33:54Z</time></trkpt>
<trkpt lat="53.0970400000" lon="-4.1584150000"><ele>731</ele><time>2016-10-15T10:33:55Z</time></trkpt>
<trkpt lat="53.0970400000" lon="-4.1584150000"><ele>731</ele><time>2016-10-15T10:33:56Z</time></trkpt>
<trkpt lat="53.0970390000" lon="-4.1584150000"><ele>731</ele><time>2016-10-15T10:33:57Z</time></trkpt>
<trkpt lat="53.0970380000" lon="-4.1584150000"><ele>731</ele><time>2016-10-15T10:33:58Z</time></trkpt>
<trkpt lat="53.0970380000" lon="-4.1584150000"><ele>731</ele><time>2016-10-15T10:33:59Z</time></trkpt>
<trkpt lat="53.0970380000" lon="-4.1584140000"><ele>731</ele><time>2016-10-15T10:34:00Z</time></trkpt>
<trkpt lat="53.0970370000" lon="-4.1584140000"><ele>731</ele><time>2016-10-15T10:34:01Z</time></trkpt>
<trkpt lat="53.0970370000" lon="-4.1584140000"><ele>731</ele><time>2016-10-15T10:34:02Z</time></trkpt>
<trkpt lat="53.0970370000" lon="-4.1584140000"><ele>731</ele><time>2016-10-15T10:34:03Z</time></trkpt>
<trkpt lat="53.0970370000" lon="-4.1584140000"><ele>731</ele><time>2016-10-15T10:34:04Z</time></trkpt>
<trkpt lat="53.0970370000" lon="-4.1584130000"><ele>731</ele><time>2016-10-15T10:34:05Z</time></trkpt>
<trkpt lat="53.0970370000" lon="-4.1584130000"><ele>731</ele><time>2016-10-15T10:34:06Z</time></trkpt>
<trkpt lat="53.0970380000" lon="-4.1584130000"><ele>731</ele><time>2016-10-15T10:34:07Z</time></trkpt>
<trkpt lat="53.0970380000" lon="-4.1584130000"><ele>731</ele><time>2016-10-15T10:34:08Z</time></trkpt>
<trkpt lat="53.0970380000" lon="-4.1584130000"><ele>731</ele><time>2016-10-15T10:34:09Z</time></trkpt>
<trkpt lat="53.0970380000" lon="-4.1584130000"><ele>731</ele><time>2016-10-15T10:34:10Z</time></trkpt>
<trkpt lat="53.0970420000" lon="-4.1584040000"><ele>730</ele><time>2016-10-15T10:34:40Z</time></trkpt>
<trkpt lat="53.0970430000" lon="-4.1584030000"><ele>730</ele></trkpt>
<trkpt lat="53.0970440000" lon="-4.1584020000"><ele>730</ele><time>2016-10-15T10:34:41Z</time></trkpt>
<trkpt lat="53.0970450000" lon="-4.1584010000"><ele>730</ele><time>2016-10-15T10:34:42Z</time></trkpt>
<trkpt lat="53.0970460000" lon="-4.1584000000"><ele>730</ele><time>2016-10-15T10:34:43Z</time></trkpt>
<trkpt lat="53.0970470000" lon="-4.1583980000"><ele>730</ele><time>2016-10-15T10:34:44Z</time></trkpt>
<trkpt lat="53.0970480000" lon="-4.1583970000"><ele>730</ele><time>2016-10-15T10:34:45Z</time></trkpt>
<trkpt lat="53.0970490000" lon="-4.1583960000"><ele>730</ele><time>2016-10-15T10:34:46Z</time></trkpt>
<trkpt lat="53.0970510000" lon="-4.1583950000"><ele>730</ele><time>2016-10-15T10:34:47Z</time></trkpt>
<trkpt lat="53.0970520000" lon="-4.1583940000"><ele>731</ele><time>2016-10-15T10:34:48Z</time></trkpt>
<trkpt lat="53.0970540000" lon="-4.1583940000"><ele>731</ele><time>2016-10-15T10:34:49Z</time></trkpt>
<trkpt lat="53.0970550000" lon="-4.1583930000"><ele>731</ele><time>2016-10-15T10:34:50Z</time></trkpt>
<trkpt lat="53.0970560000" lon="-4.1583920000"><ele>731</ele><time>2016-10-15T10:34:51Z</time></trkpt>
<trkpt lat="53.0970570000" lon="-4.1583910000"><ele>731</ele><time>2016-10-15T10:34:52Z</time></trkpt>
<trkpt lat="53.0970580000" lon="-4.1583900000"><ele>731</ele><time>2016-10-15T10:34:53Z</time></trkpt>
<trkpt lat="53.0970590000" lon="-4.1583880000"><ele>731</ele><time>2016-10-15T10:34:54Z</time></trkpt>
<trkpt lat="53.0970600000" lon="-4.1583880000"><ele>731</ele><time>2016-10-15T10:34:55Z</time></trkpt>
<trkpt lat="53.0970610000" lon="-4.1583870000"><ele>731</ele><time>2016-10-15T10:34:56Z</time></trkpt>
<trkpt lat="53.0970610000" lon="-4.1583860000"><ele>731</ele><time>2016-10-15T10:34:57Z</time></trkpt>
<trkpt lat="53.0970620000" lon="-4.1583850000"><ele>731</ele><time>2016-10-15T10:34:58Z</time></trkpt>
<trkpt lat="53.0970630000" lon="-4.1583850000"><ele>731</ele><time>2016-10-15T10:34:59Z</time></trkpt>
<trkpt lat="53.0970630000" lon="-4.1583840000"><ele>732</ele><time>2016-10-15T10:35:00Z</time></trkpt>
<trkpt lat="53.0970640000" lon="-4.1583840000"><ele>732</ele><time>2016-10-15T10:35:01Z</time></trkpt>
<trkpt lat="53.0970640000" lon="-4.1583840000"><ele>732</ele><time>2016-10-15T10:35:02Z</time></trkpt>
<trkpt lat="53.0970640000" lon="-4.1583830000"><ele>732</ele><time>2016-10-15T10:35:03Z</time></trkpt>
<trkpt lat="53.0970640000" lon="-4.1583830000"><ele>732</ele><time>2016-10-15T10:35:04Z</time></trkpt>
<trkpt lat="53.0970650000" lon="-4.1583830000"><ele>732</ele><time>2016-10-15T10:35:05Z</time></trkpt>
<trkpt lat="53.0970650000" lon="-4.1583830000"><ele>732</ele><time>2016-10-15T10:35:06Z</time></trkpt>
<trkpt lat="53.0970660000" lon="-4.1583820000"><ele>732</ele><time>2016-10-15T10:35:07Z</time></trkpt>
<trkpt lat="53.0970660000" lon="-4.1583820000"><ele>732</ele><time>2016-10-15T10:35:08Z</time></trkpt>
<trkpt lat="53.0970660000" lon="-4.1583820000"><ele>732</ele><time>2016-10-15T10:35:09Z</time></trkpt>
<trkpt lat="53.0970660000" lon="-4.1583820000"><ele>732</ele><time>2016-10-15T10:35:10Z</time></trkpt>
<trkpt lat="53.0970660000" lon="-4.1583820000"><ele>732</ele><time>2016-10-15T10:35:11Z</time></trkpt>
<trkpt lat="53.0970660000" lon="-4.1583810000"><ele>732</ele><time>2016-10-15T10:35:12Z</time></trkpt>
<trkpt lat="53.0970660000" lon="-4.1583810000"><ele>732</ele><time>2016-10-15T10:35:13Z</time></trkpt>
<trkpt lat="53.0970660000" lon="-4.1583810000"><ele>732</ele><time>2016-10-15T10:35:14Z</time></trkpt>
<trkpt lat="53.0970660000" lon="-4.1583810000"><ele>732</ele><time>2016-10-15T10:35:15Z</time></trkpt>
<trkpt lat="53.0970660000" lon="-4.1583810000"><ele>732</ele><time>2016-10-15T10:35:16Z</time></trkpt>
<trkpt lat="53.0970660000" lon="-4.1583810000"><ele>732</ele><time>2016-10-15T10:35:17Z</time></trkpt>
<trkpt lat="53.0970670000" lon="-4.1583810000"><ele>732</ele><time>2016-10-15T10:35:18Z</time></trkpt>
<trkpt lat="53.0970670000" lon="-4.1583810000"><ele>732</ele><time>2016-10-15T10:35:19Z</time></trkpt>
<trkpt lat="53.0970670000" lon="-4.1583810000"><ele>732</ele><time>2016-10-15T10:35:20Z</time></trkpt>
<trkpt lat="53.0970680000" lon="-4.1583810000"><ele>732</ele><time>2016-10-15T10:35:21Z</time></trkpt>
<trkpt lat="53.0970680000" lon="-4.1583810000"><ele>732</ele><time>2016-10-15T10:35:22Z</time></trkpt>
<trkpt lat="53.0970690000" lon="-4.1583810000"><ele>732</ele><time>2016-10-15T10:35:23Z</time></trkpt>
<trkpt lat="53.0970700000" lon="-4.1583810000"><ele>732</ele><time>2016-10-15T10:35:24Z</time></trkpt>
<trkpt lat="53.0970710000" lon="-4.1583820000"><ele>732</ele><time>2016-10-15T10:35:25Z</time></trkpt>
<trkpt lat="53.0970720000" lon="-4.1583830000"><ele>732</ele><time>2016-10-15T10:35:26Z</time></trkpt>
<trkpt lat="53.0970730000" lon="-4.1583840000"><ele>732</ele><time>2016-10-15T10:35:27Z</time></trkpt>
<trkpt lat="53.0970740000" lon="-4.1583860000"><ele>732</ele><time>2016-10-15T10:35:28Z</time></trkpt>
<trkpt lat="53.0970760000" lon="-4.1583870000"><ele>732</ele><time>2016-10-15T10:35:29Z</time></trkpt>
<trkpt lat="53.0970760000" lon="-4.1583880000"><ele>732</ele><time>2016-10-15T10:35:30Z</time></trkpt>
<trkpt lat="53.0970770000" lon="-4.1583890000"><ele>732</ele><time>2016-10-15T10:35:31Z</time></trkpt>
<trkpt lat="53.0970780000" lon="-4.1583900000"><ele>732</ele><time>2016-10-15T10:35:32Z</time></trkpt>
<trkpt lat="53.0970780000" lon="-4.1583910000"><ele>732</ele><time>2016-10-15T10:35:33Z</time></trkpt>
<trkpt lat="53.0970790000" lon="-4.1583920000"><ele>732</ele><time>2016-10-15T10:35:34Z</time></trkpt>
<trkpt lat="53.0970790000" lon="-4.1583930000"><ele>732</ele><time>2016-10-15T10:35:35Z</time></trkpt>
<trkpt lat="53.0970790000" lon="-4.1583940000"><ele>732</ele><time>2016-10-15T10:35:36Z</time></trkpt>
<trkpt lat="53.0970790000" lon="-4.1583950000"><ele>731</ele><time>2016-10-15T10:35:37Z</time></trkpt>
<trkpt lat="53.0970790000" lon="-4.1583950000"><ele>731</ele><time>2016-10-15T10:35:38Z</time></trkpt>
<trkpt lat="53.0970790000" lon="-4.1583950000"><ele>731</ele><time>2016-10-15T10:35:40Z</time></trkpt>
<trkpt lat="53.0970790000" lon="-4.1583950000"><ele>731</ele></trkpt>
<trkpt lat="53.0970790000" lon="-4.1583960000"><ele>731</ele><time>2016-10-15T10:35:41Z</time></trkpt>
<trkpt lat="53.0970790000" lon="-4.1583960000"><ele>731</ele><time>2016-10-15T10:35:43Z</time></trkpt>
<trkpt lat="53.0970790000" lon="-4.1583960000"><ele>731</ele><time>2016-10-15T10:35:44Z</time></trkpt>
<trkpt lat="53.0970790000" lon="-4.1583950000"><ele>731</ele><time>2016-10-15T10:35:45Z</time></trkpt>
<trkpt lat="53.0970790000" lon="-4.1583950000"><ele>731</ele><time>2016-10-15T10:35:46Z</time></trkpt>
<trkpt lat="53.0970790000" lon="-4.1583950000"><ele>731</ele><time>2016-10-15T10:35:47Z</time></trkpt>
<trkpt lat="53.0970790000" lon="-4.1583950000"><ele>731</ele><time>2016-10-15T10:35:48Z</time></trkpt>
<trkpt lat="53.0970790000" lon="-4.1583940000"><ele>731</ele><time>2016-10-15T10:35:49Z</time></trkpt>
<trkpt lat="53.0970790000" lon="-4.1583940000"><ele>731</ele><time>2016-10-15T10:35:50Z</time></trkpt>
<trkpt lat="53.0970790000" lon="-4.1583930000"><ele>731</ele><time>2016-10-15T10:35:51Z</time></trkpt>
<trkpt lat="53.0970790000" lon="-4.1583930000"><ele>731</ele><time>2016-10-15T10:35:52Z</time></trkpt>
<trkpt lat="53.0970790000" lon="-4.1583920000"><ele>731</ele><time>2016-10-15T10:35:53Z</time></trkpt>
<trkpt lat="53.0970790000" lon="-4.1583920000"><ele>731</ele><time>2016-10-15T10:35:54Z</time></trkpt>
<trkpt lat="53.0970790000" lon="-4.1583910000"><ele>731</ele><time>2016-10-15T10:35:55Z</time></trkpt>
<trkpt lat="53.0970800000" lon="-4.1583900000"><ele>731</ele><time>2016-10-15T10:35:56Z</time></trkpt>
<trkpt lat="53.0970800000" lon="-4.1583900000"><ele>731</ele><time>2016-10-15T10:35:57Z</time></trkpt>
<trkpt lat="53.0970800000" lon="-4.1583890000"><ele>731</ele><time>2016-10-15T10:35:58Z</time></trkpt>
<trkpt lat="53.0970800000" lon="-4.1583890000"><ele>731</ele><time>2016-10-15T10:35:59Z</time></trkpt>
<trkpt lat="53.0970800000" lon="-4.1583880000"><ele>731</ele><time>2016-10-15T10:36:00Z</time></trkpt>
<trkpt lat="53.0970800000" lon="-4.1583870000"><ele>731</ele><time>2016-10-15T10:36:01Z</time></trkpt>
<trkpt lat="53.0970800000" lon="-4.1583860000"><ele>731</ele><time>2016-10-15T10:36:02Z</time></trkpt>
<trkpt lat="53.0970800000" lon="-4.1583860000"><ele>731</ele><time>2016-10-15T10:36:03Z</time></trkpt>
<trkpt lat="53.0970800000" lon="-4.1583850000"><ele>731</ele><time>2016-10-15T10:36:04Z</time></trkpt>
<trkpt lat="53.0970800000" lon="-4.1583840000"><ele>731</ele><time>2016-10-15T10:36:05Z</time></trkpt>
<trkpt lat="53.0970800000" lon="-4.1583840000"><ele>731</ele><time>2016-10-15T10:36:06Z</time></trkpt>
<trkpt lat="53.0970800000" lon="-4.1583830000"><ele>731</ele><time>2016-10-15T10:36:07Z</time></trkpt>
<trkpt lat="53.0970800000" lon="-4.1583820000"><ele>731</ele><time>2016-10-15T10:36:08Z</time></trkpt>
<trkpt lat="53.0970800000" lon="-4.1583810000"><ele>731</ele><time>2016-10-15T10:36:09Z</time></trkpt>
<trkpt lat="53.0970800000" lon="-4.1583810000"><ele>731</ele><time>2016-10-15T10:36:10Z</time></trkpt>
<trkpt lat="53.0970790000" lon="-4.1583800000"><ele>731</ele><time>2016-10-15T10:36:11Z</time></trkpt>
<trkpt lat="53.0970790000" lon="-4.1583790000"><ele>731</ele><time>2016-10-15T10:36:12Z</time></trkpt>
<trkpt lat="53.0970790000" lon="-4.1583790000"><ele>731</ele><time>2016-10-15T10:36:13Z</time></trkpt>
<trkpt lat="53.0970790000" lon="-4.1583780000"><ele>731</ele><time>2016-10-15T10:36:14Z</time></trkpt>
<trkpt lat="53.0970790000" lon="-4.1583780000"><ele>731</ele><time>2016-10-15T10:36:15Z</time></trkpt>
<trkpt lat="53.0970790000" lon="-4.1583770000"><ele>731</ele><time>2016-10-15T10:36:16Z</time></trkpt>
<trkpt lat="53.0970790000" lon="-4.1583770000"><ele>731</ele><time>2016-10-15T10:36:17Z</time></trkpt>
<trkpt lat="53.0970800000" lon="-4.1583770000"><ele>731</ele><time>2016-10-15T10:36:18Z</time></trkpt>
<trkpt lat="53.0970800000" lon="-4.1583760000"><ele>731</ele><time>2016-10-15T10:36:19Z</time></trkpt>
<trkpt lat="53.0970800000" lon="-4.1583760000"><ele>731</ele><time>2016-10-15T10:36:20Z</time></trkpt>
<trkpt lat="53.0970800000" lon="-4.1583760000"><ele>731</ele><time>2016-10-15T10:36:21Z</time></trkpt>
<trkpt lat="53.0970800000" lon="-4.1583760000"><ele>731</ele><time>2016-10-15T10:36:22Z</time></trkpt>
<trkpt lat="53.0970800000" lon="-4.1583740000"><ele>731</ele><time>2016-10-15T10:36:27Z</time></trkpt>
<trkpt lat="53.0970800000" lon="-4.1583740000"><ele>731</ele><time>2016-10-15T10:36:28Z</time></trkpt>
<trkpt lat="53.0970790000" lon="-4.1583740000"><ele>731</ele><time>2016-10-15T10:36:29Z</time></trkpt>
<trkpt lat="53.0970790000" lon="-4.1583740000"><ele>731</ele><time>2016-10-15T10:36:30Z</time></trkpt>
<trkpt lat="53.0970790000" lon="-4.1583730000"><ele>731</ele><time>2016-10-15T10:36:31Z</time></trkpt>
<trkpt lat="53.0970790000" lon="-4.1583730000"><ele>731</ele><time>2016-10-15T10:36:32Z</time></trkpt>
<trkpt lat="53.0970790000" lon="-4.1583720000"><ele>731</ele><time>2016-10-15T10:36:33Z</time></trkpt>
<trkpt lat="53.0970780000" lon="-4.1583710000"><ele>731</ele><time>2016-10-15T10:36:34Z</time></trkpt>
<trkpt lat="53.0970780000" lon="-4.1583700000"><ele>731</ele><time>2016-10-15T10:36:35Z</time></trkpt>
<trkpt lat="53.0970770000" lon="-4.1583690000"><ele>731</ele><time>2016-10-15T10:36:36Z</time></trkpt>
<trkpt lat="53.0970760000" lon="-4.1583670000"><ele>731</ele><time>2016-10-15T10:36:37Z</time></trkpt>
<trkpt lat="53.0970760000" lon="-4.1583660000"><ele>731</ele><time>2016-10-15T10:36:38Z</time></trkpt>
<trkpt lat="53.0970750000" lon="-4.1583650000"><ele>731</ele><time>2016-10-15T10:36:40Z</time></trkpt>
<trkpt lat="53.0970750000" lon="-4.1583650000"><ele>731</ele></trkpt>
<trkpt lat="53.0970740000" lon="-4.1583640000"><ele>731</ele><time>2016-10-15T10:36:41Z</time></trkpt>
<trkpt lat="53.0970740000" lon="-4.1583640000"><ele>731</ele><time>2016-10-15T10:36:42Z</time></trkpt>
<trkpt lat="53.0970730000" lon="-4.1583630000"><ele>731</ele><time>2016-10-15T10:36:43Z</time></trkpt>
<trkpt lat="53.0970730000" lon="-4.1583630000"><ele>731</ele><time>2016-10-15T10:36:44Z</time></trkpt>
<trkpt lat="53.0970720000" lon="-4.1583630000"><ele>731</ele><time>2016-10-15T10:36:45Z</time></trkpt>
<trkpt lat="53.0970720000" lon="-4.1583620000"><ele>731</ele><time>2016-10-15T10:36:46Z</time></trkpt>
<trkpt lat="53.0970710000" lon="-4.1583620000"><ele>731</ele><time>2016-10-15T10:36:47Z</time></trkpt>
<trkpt lat="53.0970710000" lon="-4.1583610000"><ele>731</ele><time>2016-10-15T10:36:48Z</time></trkpt>
<trkpt lat="53.0970700000" lon="-4.1583590000"><ele>731</ele><time>2016-10-15T10:36:49Z</time></trkpt>
<trkpt lat="53.0970680000" lon="-4.1583580000"><ele>731</ele><time>2016-10-15T10:36:50Z</time></trkpt>
<trkpt lat="53.0970660000" lon="-4.1583560000"><ele>731</ele><time>2016-10-15T10:36:51Z</time></trkpt>
<trkpt lat="53.0970650000" lon="-4.1583540000"><ele>731</ele><time>2016-10-15T10:36:52Z</time></trkpt>
<trkpt lat="53.0970630000" lon="-4.1583530000"><ele>731</ele><time>2016-10-15T10:36:53Z</time></trkpt>
<trkpt lat="53.0970620000" lon="-4.1583510000"><ele>731</ele><time>2016-10-15T10:36:54Z</time></trkpt>
<trkpt lat="53.0970610000" lon="-4.1583500000"><ele>731</ele><time>2016-10-15T10:36:55Z</time></trkpt>
<trkpt lat="53.0970600000" lon="-4.1583480000"><ele>731</ele><time>2016-10-15T10:36:56Z</time></trkpt>
<trkpt lat="53.0970590000" lon="-4.1583470000"><ele>731</ele><time>2016-10-15T10:36:57Z</time></trkpt>
<trkpt lat="53.0970590000" lon="-4.1583470000"><ele>731</ele><time>2016-10-15T10:36:58Z</time></trkpt>
<trkpt lat="53.0970580000" lon="-4.1583460000"><ele>731</ele><time>2016-10-15T10:36:59Z</time></trkpt>
<trkpt lat="53.0970570000" lon="-4.1583450000"><ele>731</ele><time>2016-10-15T10:37:00Z</time></trkpt>
<trkpt lat="53.0970570000" lon="-4.1583440000"><ele>731</ele><time>2016-10-15T10:37:01Z</time></trkpt>
<trkpt lat="53.0970560000" lon="-4.1583440000"><ele>731</ele><time>2016-10-15T10:37:02Z</time></trkpt>
<trkpt lat="53.0970560000" lon="-4.1583430000"><ele>731</ele><time>2016-10-15T10:37:03Z</time></trkpt>
<trkpt lat="53.0970560000" lon="-4.1583420000"><ele>731</ele><time>2016-10-15T10:37:04Z</time></trkpt>
<trkpt lat="53.0970560000" lon="-4.1583410000"><ele>731</ele><time>2016-10-15T10:37:05Z</time></trkpt>
<trkpt lat="53.0970550000" lon="-4.1583410000"><ele>731</ele><time>2016-10-15T10:37:06Z</time></trkpt>
<trkpt lat="53.0970550000" lon="-4.1583400000"><ele>731</ele><time>2016-10-15T10:37:07Z</time></trkpt>
<trkpt lat="53.0970550000" lon="-4.1583400000"><ele>731</ele><time>2016-10-15T10:37:08Z</time></trkpt>
<trkpt lat="53.0970550000" lon="-4.1583390000"><ele>731</ele><time>2016-10-15T10:37:09Z</time></trkpt>
<trkpt lat="53.0970550000" lon="-4.1583390000"><ele>731</ele><time>2016-10-15T10:37:10Z</time></trkpt>
<trkpt lat="53.0970550000" lon="-4.1583380000"><ele>731</ele><time>2016-10-15T10:37:11Z</time></trkpt>
<trkpt lat="53.0970540000" lon="-4.1583370000"><ele>731</ele><time>2016-10-15T10:37:12Z</time></trkpt>
<trkpt lat="53.0970540000" lon="-4.1583360000"><ele>731</ele><time>2016-10-15T10:37:13Z</time></trkpt>
<trkpt lat="53.0970540000" lon="-4.1583350000"><ele>732</ele><time>2016-10-15T10:37:14Z</time></trkpt>
<trkpt lat="53.0970540000" lon="-4.1583340000"><ele>732</ele><time>2016-10-15T10:37:15Z</time></trkpt>
<trkpt lat="53.0970540000" lon="-4.1583330000"><ele>732</ele><time>2016-10-15T10:37:16Z</time></trkpt>
<trkpt lat="53.0970540000" lon="-4.1583320000"><ele>732</ele><time>2016-10-15T10:37:17Z</time></trkpt>
<trkpt lat="53.0970540000" lon="-4.1583320000"><ele>732</ele><time>2016-10-15T10:37:18Z</time></trkpt>
<trkpt lat="53.0970540000" lon="-4.1583310000"><ele>732</ele><time>2016-10-15T10:37:19Z</time></trkpt>
<trkpt lat="53.0970550000" lon="-4.1583310000"><ele>732</ele><time>2016-10-15T10:37:20Z</time></trkpt>
<trkpt lat="53.0970550000" lon="-4.1583300000"><ele>732</ele><time>2016-10-15T10:37:21Z</time></trkpt>
<trkpt lat="53.0970550000" lon="-4.1583300000"><ele>732</ele><time>2016-10-15T10:37:22Z</time></trkpt>
<trkpt lat="53.0970560000" lon="-4.1583300000"><ele>732</ele><time>2016-10-15T10:37:23Z</time></trkpt>
<trkpt lat="53.0970570000" lon="-4.1583300000"><ele>732</ele><time>2016-10-15T10:37:24Z</time></trkpt>
<trkpt lat="53.0970580000" lon="-4.1583300000"><ele>732</ele><time>2016-10-15T10:37:25Z</time></trkpt>
<trkpt lat="53.0970590000" lon="-4.1583300000"><ele>732</ele><time>2016-10-15T10:37:26Z</time></trkpt>
<trkpt lat="53.0970600000" lon="-4.1583300000"><ele>732</ele><time>2016-10-15T10:37:27Z</time></trkpt>
<trkpt lat="53.0970610000" lon="-4.1583300000"><ele>732</ele><time>2016-10-15T10:37:28Z</time></trkpt>
<trkpt lat="53.0970620000" lon="-4.1583310000"><ele>732</ele><time>2016-10-15T10:37:29Z</time></trkpt>
<trkpt lat="53.0970630000" lon="-4.1583310000"><ele>731</ele><time>2016-10-15T10:37:30Z</time></trkpt>
<trkpt lat="53.0970640000" lon="-4.1583320000"><ele>731</ele><time>2016-10-15T10:37:31Z</time></trkpt>
<trkpt lat="53.0970650000" lon="-4.1583320000"><ele>731</ele><time>2016-10-15T10:37:32Z</time></trkpt>
<trkpt lat="53.0970660000" lon="-4.1583330000"><ele>731</ele><time>2016-10-15T10:37:33Z</time></trkpt>
<trkpt lat="53.0970670000" lon="-4.1583330000"><ele>731</ele><time>2016-10-15T10:37:34Z</time></trkpt>
<trkpt lat="53.0970680000" lon="-4.1583340000"><ele>731</ele><time>2016-10-15T10:37:35Z</time></trkpt>
<trkpt lat="53.0970680000" lon="-4.1583340000"><ele>731</ele><time>2016-10-15T10:37:36Z</time></trkpt>
<trkpt lat="53.0970680000" lon="-4.1583340000"><ele>731</ele><time>2016-10-15T10:37:37Z</time></trkpt>
<trkpt lat="53.0970690000" lon="-4.1583340000"><ele>731</ele><time>2016-10-15T10:37:38Z</time></trkpt>
<trkpt lat="53.0970690000" lon="-4.1583340000"><ele>731</ele><time>2016-10-15T10:37:40Z</time></trkpt>
<trkpt lat="53.0970690000" lon="-4.1583350000"><ele>731</ele></trkpt>
<trkpt lat="53.0970690000" lon="-4.1583350000"><ele>731</ele><time>2016-10-15T10:37:41Z</time></trkpt>
<trkpt lat="53.0970690000" lon="-4.1583350000"><ele>731</ele><time>2016-10-15T10:37:42Z</time></trkpt>
<trkpt lat="53.0970690000" lon="-4.1583350000"><ele>731</ele><time>2016-10-15T10:37:43Z</time></trkpt>
<trkpt lat="53.0970690000" lon="-4.1583350000"><ele>731</ele><time>2016-10-15T10:37:44Z</time></trkpt>
<trkpt lat="53.0970680000" lon="-4.1583350000"><ele>731</ele><time>2016-10-15T10:37:45Z</time></trkpt>
<trkpt lat="53.0970670000" lon="-4.1583340000"><ele>731</ele><time>2016-10-15T10:37:46Z</time></trkpt>
<trkpt lat="53.0970650000" lon="-4.1583340000"><ele>731</ele><time>2016-10-15T10:37:47Z</time></trkpt>
<trkpt lat="53.0970630000" lon="-4.1583320000"><ele>731</ele><time>2016-10-15T10:37:48Z</time></trkpt>
<trkpt lat="53.0970600000" lon="-4.1583300000"><ele>731</ele><time>2016-10-15T10:37:49Z</time></trkpt>
<trkpt lat="53.0970570000" lon="-4.1583280000"><ele>731</ele><time>2016-10-15T10:37:50Z</time></trkpt>
<trkpt lat="53.0970540000" lon="-4.1583250000"><ele>731</ele><time>2016-10-15T10:37:51Z</time></trkpt>
<trkpt lat="53.0970490000" lon="-4.1583210000"><ele>731</ele><time>2016-10-15T10:37:52Z</time></trkpt>
<trkpt lat="53.0970450000" lon="-4.1583170000"><ele>731</ele><time>2016-10-15T10:37:53Z</time></trkpt>
<trkpt lat="53.0970400000" lon="-4.1583120000"><ele>731</ele><time>2016-10-15T10:37:54Z</time></trkpt>
<trkpt lat="53.0970350000" lon="-4.1583060000"><ele>731</ele><time>2016-10-15T10:37:55Z</time></trkpt>
<trkpt lat="53.0970290000" lon="-4.1583010000"><ele>731</ele><time>2016-10-15T10:37:56Z</time></trkpt>
<trkpt lat="53.0970230000" lon="-4.1582950000"><ele>731</ele><time>2016-10-15T10:37:57Z</time></trkpt>
<trkpt lat="53.0970170000" lon="-4.1582880000"><ele>731</ele><time>2016-10-15T10:37:58Z</time></trkpt>
<trkpt lat="53.0970110000" lon="-4.1582810000"><ele>731</ele><time>2016-10-15T10:37:59Z</time></trkpt>
<trkpt lat="53.0970040000" lon="-4.1582740000"><ele>731</ele><time>2016-10-15T10:38:00Z</time></trkpt>
<trkpt lat="53.0969050000" lon="-4.1581650000"><ele>731</ele><time>2016-10-15T10:38:01Z</time></trkpt>
<trkpt lat="53.0968950000" lon="-4.1581540000"><ele>731</ele><time>2016-10-15T10:38:02Z</time></trkpt>
<trkpt lat="53.0968870000" lon="-4.1581420000"><ele>731</ele><time>2016-10-15T10:38:03Z</time></trkpt>
<trkpt lat="53.0968780000" lon="-4.1581310000"><ele>731</ele><time>2016-10-15T10:38:04Z</time></trkpt>
<trkpt lat="53.0968700000" lon="-4.1581210000"><ele>731</ele><time>2016-10-15T10:38:05Z</time></trkpt>
<trkpt lat="53.0968620000" lon="-4.1581110000"><ele>731</ele><time>2016-10-15T10:38:06Z</time></trkpt>
<trkpt lat="53.0968540000" lon="-4.1581020000"><ele>731</ele><time>2016-10-15T10:38:07Z</time></trkpt>
<trkpt lat="53.0968450000" lon="-4.1580920000"><ele>731</ele><time>2016-10-15T10:38:08Z</time></trkpt>
<trkpt lat="53.0968450000" lon="-4.1580920000"><ele>731</ele><time>2016-10-15T10:38:09Z</time></trkpt>
<trkpt lat="53.0968450000" lon="-4.1580910000"><ele>731</ele><time>2016-10-15T10:38:10Z</time></trkpt>
<trkpt lat="53.0968450000" lon="-4.1580910000"><ele>731</ele><time>2016-10-15T10:38:11Z</time></trkpt>
<trkpt lat="53.0968440000" lon="-4.1580900000"><ele>731</ele><time>2016-10-15T10:38:12Z</time></trkpt>
<trkpt lat="53.0968430000" lon="-4.1580890000"><ele>731</ele><time>2016-10-15T10:38:13Z</time></trkpt>
<trkpt lat="53.0968410000" lon="-4.1580870000"><ele>731</ele><time>2016-10-15T10:38:14Z</time></trkpt>
<trkpt lat="53.0968390000" lon="-4.1580850000"><ele>731</ele><time>2016-10-15T10:38:15Z</time></trkpt>
<trkpt lat="53.0968370000" lon="-4.1580820000"><ele>731</ele><time>2016-10-15T10:38:16Z</time></trkpt>
<trkpt lat="53.0968350000" lon="-4.1580790000"><ele>731</ele><time>2016-10-15T10:38:17Z</time></trkpt>
<trkpt lat="53.0968310000" lon="-4.1580760000"><ele>731</ele><time>2016-10-15T10:38:18Z</time></trkpt>
<trkpt lat="53.0968280000" lon="-4.1580720000"><ele>731</ele><time>2016-10-15T10:38:19Z</time></trkpt>
<trkpt lat="53.0968240000" lon="-4.1580670000"><ele>731</ele><time>2016-10-15T10:38:20Z</time></trkpt>
<trkpt lat="53.0968200000" lon="-4.1580620000"><ele>730</ele><time>2016-10-15T10:38:21Z</time></trkpt>
<trkpt lat="53.0968150000" lon="-4.1580560000"><ele>730</ele><time>2016-10-15T10:38:22Z</time></trkpt>
<trkpt lat="53.0968100000" lon="-4.1580500000"><ele>730</ele><time>2016-10-15T10:38:23Z</time></trkpt>
<trkpt lat="53.0968040000" lon="-4.1580430000"><ele>730</ele><time>2016-10-15T10:38:24Z</time></trkpt>
<trkpt lat="53.0967990000" lon="-4.1580360000"><ele>730</ele><time>2016-10-15T10:38:25Z</time></trkpt>
<trkpt lat="53.0967930000" lon="-4.1580280000"><ele>730</ele><time>2016-10-15T10:38:26Z</time></trkpt>
<trkpt lat="53.0967860000" lon="-4.1580200000"><ele>730</ele><time>2016-10-15T10:38:27Z</time></trkpt>
<trkpt lat="53.0967800000" lon="-4.1580120000"><ele>730</ele><time>2016-10-15T10:38:28Z</time></trkpt>
<trkpt lat="53.0967730000" lon="-4.1580030000"><ele>730</ele><time>2016-10-15T10:38:29Z</time></trkpt>
<trkpt lat="53.0967660000" lon="-4.1579940000"><ele>730</ele><time>2016-10-15T10:38:30Z</time></trkpt>
<trkpt lat="53.0966530000" lon="-4.1578420000"><ele>730</ele><time>2016-10-15T10:38:31Z</time></trkpt>
<trkpt lat="53.0966420000" lon="-4.1578280000"><ele>730</ele><time>2016-10-15T10:38:32Z</time></trkpt>
<trkpt lat="53.0966320000" lon="-4.1578150000"><ele>729</ele><time>2016-10-15T10:38:33Z</time></trkpt>
<trkpt lat="53.0966220000" lon="-4.1578030000"><ele>729</ele><time>2016-10-15T10:38:34Z</time></trkpt>
<trkpt lat="53.0966130000" lon="-4.1577930000"><ele>729</ele><time>2016-10-15T10:38:35Z</time></trkpt>
<trkpt lat="53.0966050000" lon="-4.1577850000"><ele>729</ele><time>2016-10-15T10:38:36Z</time></trkpt>
<trkpt lat="53.0965980000" lon="-4.1577790000"><ele>729</ele><time>2016-10-15T10:38:37Z</time></trkpt>
<trkpt lat="53.0965980000" lon="-4.1577790000"><ele>728</ele><time>2016-10-15T10:38:38Z</time></trkpt>
<trkpt lat="53.0965980000" lon="-4.1577790000"><ele>728</ele><time>2016-10-15T10:38:40Z</time></trkpt>
<trkpt lat="53.0965970000" lon="-4.1577790000"><ele>728</ele></trkpt>
<trkpt lat="53.0965960000" lon="-4.1577780000"><ele>728</ele><time>2016-10-15T10:38:41Z</time></trkpt>
<trkpt lat="53.0965950000" lon="-4.1577770000"><ele>727</ele><time>2016-10-15T10:38:42Z</time></trkpt>
<trkpt lat="53.0965940000" lon="-4.1577750000"><ele>727</ele><time>2016-10-15T10:38:43Z</time></trkpt>
<trkpt lat="53.0965920000" lon="-4.1577720000"><ele>727</ele><time>2016-10-15T10:38:44Z</time></trkpt>
<trkpt lat="53.0965900000" lon="-4.1577690000"><ele>727</ele><time>2016-10-15T10:38:45Z</time></trkpt>
<trkpt lat="53.0965870000" lon="-4.1577650000"><ele>726</ele><time>2016-10-15T10:38:46Z</time></trkpt>
<trkpt lat="53.0965840000" lon="-4.1577610000"><ele>726</ele><time>2016-10-15T10:38:47Z</time></trkpt>
<trkpt lat="53.0965800000" lon="-4.1577560000"><ele>726</ele><time>2016-10-15T10:38:48Z</time></trkpt>
<trkpt lat="53.0965760000" lon="-4.1577510000"><ele>726</ele><time>2016-10-15T10:38:49Z</time></trkpt>
<trkpt lat="53.0965710000" lon="-4.1577450000"><ele>725</ele><time>2016-10-15T10:38:50Z</time></trkpt>
<trkpt lat="53.0965660000" lon="-4.1577380000"><ele>725</ele><time>2016-10-15T10:38:51Z</time></trkpt>
<trkpt lat="53.0964610000" lon="-4.1576060000"><ele>725</ele><time>2016-10-15T10:38:52Z</time></trkpt>
<trkpt lat="53.0964500000" lon="-4.1575930000"><ele>725</ele><time>2016-10-15T10:38:53Z</time></trkpt>
<trkpt lat="53.0964400000" lon="-4.1575810000"><ele>724</ele><time>2016-10-15T10:38:54Z</time></trkpt>
<trkpt lat="53.0964320000" lon="-4.1575690000"><ele>724</ele><time>2016-10-15T10:38:55Z</time></trkpt>
<trkpt lat="53.0964220000" lon="-4.1575560000"><ele>724</ele><time>2016-10-15T10:38:56Z</time></trkpt>
<trkpt lat="53.0964130000" lon="-4.1575440000"><ele>724</ele><time>2016-10-15T10:38:57Z</time></trkpt>
<trkpt lat="53.0964040000" lon="-4.1575310000"><ele>723</ele><time>2016-10-15T10:38:58Z</time></trkpt>
<trkpt lat="53.0963930000" lon="-4.1575200000"><ele>723</ele><time>2016-10-15T10:38:59Z</time></trkpt>
<trkpt lat="53.0963830000" lon="-4.1575070000"><ele>723</ele><time>2016-10-15T10:39:00Z</time></trkpt>
<trkpt lat="53.0963740000" lon="-4.1574940000"><ele>723</ele><time>2016-10-15T10:39:01Z</time></trkpt>
<trkpt lat="53.0963650000" lon="-4.1574810000"><ele>723</ele><time>2016-10-15T10:39:02Z</time></trkpt>
<trkpt lat="53.0963550000" lon="-4.1574700000"><ele>722</ele><time>2016-10-15T10:39:03Z</time></trkpt>
<trkpt lat="53.0963450000" lon="-4.1574580000"><ele>722</ele><time>2016-10-15T10:39:04Z</time></trkpt>
<trkpt lat="53.0963360000" lon="-4.1574460000"><ele>722</ele><time>2016-10-15T10:39:05Z</time></trkpt>
<trkpt lat="53.0963260000" lon="-4.1574360000"><ele>722</ele><time>2016-10-15T10:39:06Z</time></trkpt>
<trkpt lat="53.0963160000" lon="-4.1574230000"><ele>722</ele><time>2016-10-15T10:39:07Z</time></trkpt>
<trkpt lat="53.0963080000" lon="-4.1574120000"><ele>721</ele><time>2016-10-15T10:39:08Z</time></trkpt>
<trkpt lat="53.0963010000" lon="-4.1573980000"><ele>721</ele><time>2016-10-15T10:39:09Z</time></trkpt>
<trkpt lat="53.0963010000" lon="-4.1573980000"><ele>721</ele><time>2016-10-15T10:39:10Z</time></trkpt>
<trkpt lat="53.0963010000" lon="-4.1573980000"><ele>721</ele><time>2016-10-15T10:39:11Z</time></trkpt>
<trkpt lat="53.0963010000" lon="-4.1573970000"><ele>721</ele><time>2016-10-15T10:39:12Z</time></trkpt>
<trkpt lat="53.0963010000" lon="-4.1573960000"><ele>720</ele><time>2016-10-15T10:39:13Z</time></trkpt>
<trkpt lat="53.0963010000" lon="-4.1573950000"><ele>720</ele><time>2016-10-15T10:39:14Z</time></trkpt>
<trkpt lat="53.0963000000" lon="-4.1573940000"><ele>720</ele><time>2016-10-15T10:39:15Z</time></trkpt>
<trkpt lat="53.0963000000" lon="-4.1573930000"><ele>720</ele><time>2016-10-15T10:39:16Z</time></trkpt>
<trkpt lat="53.0963000000" lon="-4.1573920000"><ele>720</ele><time>2016-10-15T10:39:17Z</time></trkpt>
<trkpt lat="53.0963000000" lon="-4.1573910000"><ele>720</ele><time>2016-10-15T10:39:18Z</time></trkpt>
<trkpt lat="53.0963000000" lon="-4.1573900000"><ele>720</ele><time>2016-10-15T10:39:19Z</time></trkpt>
<trkpt lat="53.0962990000" lon="-4.1573880000"><ele>720</ele><time>2016-10-15T10:39:20Z</time></trkpt>
<trkpt lat="53.0962990000" lon="-4.1573860000"><ele>720</ele><time>2016-10-15T10:39:21Z</time></trkpt>
<trkpt lat="53.0962980000" lon="-4.1573840000"><ele>720</ele><time>2016-10-15T10:39:22Z</time></trkpt>
<trkpt lat="53.0962980000" lon="-4.1573830000"><ele>720</ele><time>2016-10-15T10:39:23Z</time></trkpt>
<trkpt lat="53.0962970000" lon="-4.1573810000"><ele>720</ele><time>2016-10-15T10:39:24Z</time></trkpt>
<trkpt lat="53.0962970000" lon="-4.1573790000"><ele>720</ele><time>2016-10-15T10:39:25Z</time></trkpt>
<trkpt lat="53.0962960000" lon="-4.1573770000"><ele>720</ele><time>2016-10-15T10:39:26Z</time></trkpt>
<trkpt lat="53.0962950000" lon="-4.1573760000"><ele>720</ele><time>2016-10-15T10:39:27Z</time></trkpt>
<trkpt lat="53.0962940000" lon="-4.1573740000"><ele>720</ele><time>2016-10-15T10:39:28Z</time></trkpt>
<trkpt lat="53.0962940000" lon="-4.1573730000"><ele>719</ele><time>2016-10-15T10:39:29Z</time></trkpt>
<trkpt lat="53.0962930000" lon="-4.1573720000"><ele>719</ele><time>2016-10-15T10:39:30Z</time></trkpt>
<trkpt lat="53.0962920000" lon="-4.1573710000"><ele>719</ele><time>2016-10-15T10:39:31Z</time></trkpt>
<trkpt lat="53.0962910000" lon="-4.1573700000"><ele>719</ele><time>2016-10-15T10:39:32Z</time></trkpt>
<trkpt lat="53.0962890000" lon="-4.1573680000"><ele>719</ele><time>2016-10-15T10:39:33Z</time></trkpt>
<trkpt lat="53.0962880000" lon="-4.1573660000"><ele>719</ele><time>2016-10-15T10:39:34Z</time></trkpt>
<trkpt lat="53.0962850000" lon="-4.1573640000"><ele>719</ele><time>2016-10-15T10:39:35Z</time></trkpt>
<trkpt lat="53.0962820000" lon="-4.1573610000"><ele>718</ele><time>2016-10-15T10:39:36Z</time></trkpt>
<trkpt lat="53.0962790000" lon="-4.1573570000"><ele>718</ele><time>2016-10-15T10:39:37Z</time></trkpt>
<trkpt lat="53.0962760000" lon="-4.1573530000"><ele>718</ele><time>2016-10-15T10:39:38Z</time></trkpt>
<trkpt lat="53.0962720000" lon="-4.1573480000"><ele>718</ele><time>2016-10-15T10:39:40Z</time></trkpt>
<trkpt lat="53.0962690000" lon="-4.1573430000"><ele>718</ele></trkpt>
<trkpt lat="53.0962650000" lon="-4.1573370000"><ele>717</ele><time>2016-10-15T10:39:41Z</time></trkpt>
<trkpt lat="53.0962610000" lon="-4.1573320000"><ele>717</ele><time>2016-10-15T10:39:42Z</time></trkpt>
<trkpt lat="53.0962560000" lon="-4.1573250000"><ele>717</ele><time>2016-10-15T10:39:43Z</time></trkpt>
<trkpt lat="53.0962520000" lon="-4.1573190000"><ele>717</ele><time>2016-10-15T10:39:44Z</time></trkpt>
<trkpt lat="53.0962480000" lon="-4.1573120000"><ele>716</ele><time>2016-10-15T10:39:45Z</time></trkpt>
<trkpt lat="53.0962430000" lon="-4.1573060000"><ele>716</ele><time>2016-10-15T10:39:46Z</time></trkpt>
<trkpt lat="53.0962400000" lon="-4.1573010000"><ele>716</ele><time>2016-10-15T10:39:47Z</time></trkpt>
<trkpt lat="53.0962370000" lon="-4.1572960000"><ele>715</ele><time>2016-10-15T10:39:48Z</time></trkpt>
<trkpt lat="53.0962320000" lon="-4.1572890000"><ele>715</ele><time>2016-10-15T10:39:49Z</time></trkpt>
<trkpt lat="53.0962280000" lon="-4.1572830000"><ele>715</ele><time>2016-10-15T10:39:50Z</time></trkpt>
<trkpt lat="53.0962240000" lon="-4.1572770000"><ele>714</ele><time>2016-10-15T10:39:51Z</time></trkpt>
<trkpt lat="53.0962200000" lon="-4.1572710000"><ele>714</ele><time>2016-10-15T10:39:52Z</time></trkpt>
<trkpt lat="53.0962160000" lon="-4.1572660000"><ele>714</ele><time>2016-10-15T10:39:53Z</time></trkpt>
<trkpt lat="53.0962120000" lon="-4.1572600000"><ele>714</ele><time>2016-10-15T10:39:54Z</time></trkpt>
<trkpt lat="53.0962070000" lon="-4.1572540000"><ele>713</ele><time>2016-10-15T10:39:55Z</time></trkpt>
<trkpt lat="53.0962030000" lon="-4.1572470000"><ele>713</ele><time>2016-10-15T10:39:56Z</time></trkpt>
<trkpt lat="53.0961980000" lon="-4.1572400000"><ele>713</ele><time>2016-10-15T10:39:57Z</time></trkpt>
<trkpt lat="53.0961940000" lon="-4.1572340000"><ele>713</ele><time>2016-10-15T10:39:58Z</time></trkpt>
<trkpt lat="53.0961890000" lon="-4.1572260000"><ele>713</ele><time>2016-10-15T10:39:59Z</time></trkpt>
<trkpt lat="53.0961840000" lon="-4.1572180000"><ele>712</ele><time>2016-10-15T10:40:00Z</time></trkpt>
<trkpt lat="53.0961800000" lon="-4.1572100000"><ele>712</ele><time>2016-10-15T10:40:01Z</time></trkpt>
<trkpt lat="53.0961750000" lon="-4.1572010000"><ele>712</ele><time>2016-10-15T10:40:02Z</time></trkpt>
<trkpt lat="53.0961700000" lon="-4.1571930000"><ele>712</ele><time>2016-10-15T10:40:03Z</time></trkpt>
<trkpt lat="53.0961660000" lon="-4.1571840000"><ele>711</ele><time>2016-10-15T10:40:04Z</time></trkpt>
<trkpt lat="53.0961620000" lon="-4.1571760000"><ele>711</ele><time>2016-10-15T10:40:05Z</time></trkpt>
<trkpt lat="53.0961570000" lon="-4.1571680000"><ele>711</ele><time>2016-10-15T10:40:06Z</time></trkpt>
<trkpt lat="53.0961530000" lon="-4.1571600000"><ele>711</ele><time>2016-10-15T10:40:07Z</time></trkpt>
<trkpt lat="53.0961490000" lon="-4.1571520000"><ele>711</ele><time>2016-10-15T10:40:08Z</time></trkpt>
<trkpt lat="53.0961450000" lon="-4.1571440000"><ele>710</ele><time>2016-10-15T10:40:09Z</time></trkpt>
<trkpt lat="53.0961420000" lon="-4.1571370000"><ele>710</ele><time>2016-10-15T10:40:10Z</time></trkpt>
<trkpt lat="53.0961380000" lon="-4.1571300000"><ele>710</ele><time>2016-10-15T10:40:11Z</time></trkpt>
<trkpt lat="53.0961350000" lon="-4.1571230000"><ele>710</ele><time>2016-10-15T10:40:12Z</time></trkpt>
<trkpt lat="53.0961320000" lon="-4.1571160000"><ele>710</ele><time>2016-10-15T10:40:13Z</time></trkpt>
<trkpt lat="53.0961290000" lon="-4.1571100000"><ele>709</ele><time>2016-10-15T10:40:14Z</time></trkpt>
<trkpt lat="53.0961260000" lon="-4.1571040000"><ele>709</ele><time>2016-10-15T10:40:15Z</time></trkpt>
<trkpt lat="53.0961230000" lon="-4.1570980000"><ele>709</ele><time>2016-10-15T10:40:16Z</time></trkpt>
<trkpt lat="53.0961200000" lon="-4.1570930000"><ele>709</ele><time>2016-10-15T10:40:17Z</time></trkpt>
<trkpt lat="53.0961180000" lon="-4.1570870000"><ele>709</ele><time>2016-10-15T10:40:18Z</time></trkpt>
<trkpt lat="53.0961160000" lon="-4.1570820000"><ele>709</ele><time>2016-10-15T10:40:19Z</time></trkpt>
<trkpt lat="53.0961130000" lon="-4.1570770000"><ele>709</ele><time>2016-10-15T10:40:20Z</time></trkpt>
<trkpt lat="53.0961110000" lon="-4.1570720000"><ele>709</ele><time>2016-10-15T10:40:21Z</time></trkpt>
<trkpt lat="53.0961100000" lon="-4.1570670000"><ele>709</ele><time>2016-10-15T10:40:22Z</time></trkpt>
<trkpt lat="53.0961080000" lon="-4.1570630000"><ele>709</ele><time>2016-10-15T10:40:23Z</time></trkpt>
<trkpt lat="53.0961080000" lon="-4.1570620000"><ele>709</ele><time>2016-10-15T10:40:24Z</time></trkpt>
<trkpt lat="53.0961060000" lon="-4.1570590000"><ele>709</ele><time>2016-10-15T10:40:25Z</time></trkpt>
<trkpt lat="53.0961050000" lon="-4.1570550000"><ele>709</ele><time>2016-10-15T10:40:26Z</time></trkpt>
<trkpt lat="53.0961040000" lon="-4.1570510000"><ele>709</ele><time>2016-10-15T10:40:27Z</time></trkpt>
<trkpt lat="53.0961020000" lon="-4.1570470000"><ele>709</ele><time>2016-10-15T10:40:28Z</time></trkpt>
<trkpt lat="53.0961010000" lon="-4.1570440000"><ele>709</ele><time>2016-10-15T10:40:29Z</time></trkpt>
<trkpt lat="53.0960990000" lon="-4.1570410000"><ele>709</ele><time>2016-10-15T10:40:30Z</time></trkpt>
<trkpt lat="53.0960980000" lon="-4.1570380000"><ele>709</ele><time>2016-10-15T10:40:31Z</time></trkpt>
<trkpt lat="53.0960960000" lon="-4.1570350000"><ele>709</ele><time>2016-10-15T10:40:32Z</time></trkpt>
<trkpt lat="53.0960940000" lon="-4.1570330000"><ele>709</ele><time>2016-10-15T10:40:33Z</time></trkpt>
<trkpt lat="53.0960920000" lon="-4.1570310000"><ele>709</ele><time>2016-10-15T10:40:34Z</time></trkpt>
<trkpt lat="53.0960900000" lon="-4.1570290000"><ele>709</ele><time>2016-10-15T10:40:35Z</time></trkpt>
<trkpt lat="53.0960880000" lon="-4.1570270000"><ele>709</ele><time>2016-10-15T10:40:36Z</time></trkpt>
<trkpt lat="53.0960860000" lon="-4.1570260000"><ele>709</ele><time>2016-10-15T10:40:37Z</time></trkpt>
<trkpt lat="53.0960850000" lon="-4.1570240000"><ele>709</ele><time>2016-10-15T10:40:38Z</time></trkpt>
<trkpt lat="53.0960830000" lon="-4.1570230000"><ele>709</ele><time>2016-10-15T10:40:40Z</time></trkpt>
<trkpt lat="53.0960810000" lon="-4.1570220000"><ele>709</ele></trkpt>
<trkpt lat="53.0960790000" lon="-4.1570200000"><ele>709</ele><time>2016-10-15T10:40:41Z</time></trkpt>
<trkpt lat="53.0960780000" lon="-4.1570190000"><ele>709</ele><time>2016-10-15T10:40:42Z</time></trkpt>
<trkpt lat="53.0960760000" lon="-4.1570180000"><ele>709</ele><time>2016-10-15T10:40:43Z</time></trkpt>
<trkpt lat="53.0960750000" lon="-4.1570170000"><ele>709</ele><time>2016-10-15T10:40:44Z</time></trkpt>
<trkpt lat="53.0960740000" lon="-4.1570160000"><ele>709</ele><time>2016-10-15T10:40:45Z</time></trkpt>
<trkpt lat="53.0960720000" lon="-4.1570150000"><ele>709</ele><time>2016-10-15T10:40:46Z</time></trkpt>
<trkpt lat="53.0960710000" lon="-4.1570140000"><ele>709</ele><time>2016-10-15T10:40:47Z</time></trkpt>
<trkpt lat="53.0960700000" lon="-4.1570130000"><ele>709</ele><time>2016-10-15T10:40:48Z</time></trkpt>
<trkpt lat="53.0960680000" lon="-4.1570110000"><ele>708</ele><time>2016-10-15T10:40:49Z</time></trkpt>
<trkpt lat="53.0960670000" lon="-4.1570100000"><ele>708</ele><time>2016-10-15T10:40:50Z</time></trkpt>
<trkpt lat="53.0960650000" lon="-4.1570090000"><ele>708</ele><time>2016-10-15T10:40:51Z</time></trkpt>
<trkpt lat="53.0960640000" lon="-4.1570070000"><ele>708</ele><time>2016-10-15T10:40:52Z</time></trkpt>
<trkpt lat="53.0960610000" lon="-4.1570060000"><ele>708</ele><time>2016-10-15T10:40:53Z</time></trkpt>
<trkpt lat="53.0960580000" lon="-4.1570050000"><ele>708</ele><time>2016-10-15T10:40:54Z</time></trkpt>
<trkpt lat="53.0960550000" lon="-4.1570050000"><ele>708</ele><time>2016-10-15T10:40:55Z</time></trkpt>
<trkpt lat="53.0960510000" lon="-4.1570040000"><ele>708</ele><time>2016-10-15T10:40:56Z</time></trkpt>
<trkpt lat="53.0960470000" lon="-4.1570040000"><ele>708</ele><time>2016-10-15T10:40:57Z</time></trkpt>
<trkpt lat="53.0960420000" lon="-4.1570040000"><ele>707</ele><time>2016-10-15T10:40:58Z</time></trkpt>
<trkpt lat="53.0960380000" lon="-4.1570040000"><ele>707</ele><time>2016-10-15T10:40:59Z</time></trkpt>
<trkpt lat="53.0960330000" lon="-4.1570040000"><ele>707</ele><time>2016-10-15T10:41:00Z</time></trkpt>
<trkpt lat="53.0960290000" lon="-4.1570040000"><ele>707</ele><time>2016-10-15T10:41:01Z</time></trkpt>
<trkpt lat="53.0960240000" lon="-4.1570030000"><ele>707</ele><time>2016-10-15T10:41:02Z</time></trkpt>
<trkpt lat="53.0960190000" lon="-4.1570030000"><ele>707</ele><time>2016-10-15T10:41:03Z</time></trkpt>
<trkpt lat="53.0960150000" lon="-4.1570030000"><ele>707</ele><time>2016-10-15T10:41:04Z</time></trkpt>
<trkpt lat="53.0960110000" lon="-4.1570020000"><ele>706</ele><time>2016-10-15T10:41:05Z</time></trkpt>
<trkpt lat="53.0960070000" lon="-4.1570020000"><ele>706</ele><time>2016-10-15T10:41:06Z</time></trkpt>
<trkpt lat="53.0960040000" lon="-4.1570010000"><ele>706</ele><time>2016-10-15T10:41:07Z</time></trkpt>
<trkpt lat="53.0960000000" lon="-4.1570000000"><ele>706</ele><time>2016-10-15T10:41:08Z</time></trkpt>
<trkpt lat="53.0959960000" lon="-4.1569990000"><ele>706</ele><time>2016-10-15T10:41:09Z</time></trkpt>
<trkpt lat="53.0959920000" lon="-4.1569990000"><ele>706</ele><time>2016-10-15T10:41:10Z</time></trkpt>
<trkpt lat="53.0959870000" lon="-4.1569980000"><ele>706</ele><time>2016-10-15T10:41:11Z</time></trkpt>
<trkpt lat="53.0959020000" lon="-4.1569960000"><ele>706</ele><time>2016-10-15T10:41:12Z</time></trkpt>
<trkpt lat="53.0958960000" lon="-4.1569970000"><ele>706</ele><time>2016-10-15T10:41:13Z</time></trkpt>
<trkpt lat="53.0958970000" lon="-4.1569960000"><ele>706</ele><time>2016-10-15T10:41:14Z</time></trkpt>
<trkpt lat="53.0958970000" lon="-4.1569960000"><ele>706</ele><time>2016-10-15T10:41:16Z</time></trkpt>
<trkpt lat="53.0958970000" lon="-4.1569960000"><ele>706</ele><time>2016-10-15T10:41:17Z</time></trkpt>
<trkpt lat="53.0958970000" lon="-4.1569960000"><ele>706</ele><time>2016-10-15T10:41:18Z</time></trkpt>
<trkpt lat="53.0958980000" lon="-4.1569960000"><ele>706</ele><time>2016-10-15T10:41:19Z</time></trkpt>
<trkpt lat="53.0958990000" lon="-4.1569960000"><ele>706</ele><time>2016-10-15T10:41:20Z</time></trkpt>
<trkpt lat="53.0958990000" lon="-4.1569960000"><ele>706</ele><time>2016-10-15T10:41:21Z</time></trkpt>
<trkpt lat="53.0959000000" lon="-4.1569960000"><ele>706</ele><time>2016-10-15T10:41:22Z</time></trkpt>
<trkpt lat="53.0959010000" lon="-4.1569960000"><ele>706</ele><time>2016-10-15T10:41:23Z</time></trkpt>
<trkpt lat="53.0959010000" lon="-4.1569960000"><ele>706</ele><time>2016-10-15T10:41:24Z</time></trkpt>
<trkpt lat="53.0959020000" lon="-4.1569950000"><ele>706</ele><time>2016-10-15T10:41:25Z</time></trkpt>
<trkpt lat="53.0959020000" lon="-4.1569950000"><ele>706</ele><time>2016-10-15T10:41:26Z</time></trkpt>
<trkpt lat="53.0959010000" lon="-4.1569950000"><ele>705</ele><time>2016-10-15T10:41:27Z</time></trkpt>
<trkpt lat="53.0959000000" lon="-4.1569940000"><ele>705</ele><time>2016-10-15T10:41:28Z</time></trkpt>
<trkpt lat="53.0958990000" lon="-4.1569940000"><ele>705</ele><time>2016-10-15T10:41:29Z</time></trkpt>
<trkpt lat="53.0958980000" lon="-4.1569930000"><ele>705</ele><time>2016-10-15T10:41:30Z</time></trkpt>
<trkpt lat="53.0958960000" lon="-4.1569930000"><ele>705</ele><time>2016-10-15T10:41:31Z</time></trkpt>
<trkpt lat="53.0958940000" lon="-4.1569920000"><ele>705</ele><time>2016-10-15T10:41:32Z</time></trkpt>
<trkpt lat="53.0958930000" lon="-4.1569900000"><ele>705</ele><time>2016-10-15T10:41:33Z</time></trkpt>
<trkpt lat="53.0958910000" lon="-4.1569890000"><ele>705</ele><time>2016-10-15T10:41:34Z</time></trkpt>
<trkpt lat="53.0958890000" lon="-4.1569880000"><ele>704</ele><time>2016-10-15T10:41:35Z</time></trkpt>
<trkpt lat="53.0958880000" lon="-4.1569870000"><ele>704</ele><time>2016-10-15T10:41:36Z</time></trkpt>
<trkpt lat="53.0958860000" lon="-4.1569860000"><ele>704</ele><time>2016-10-15T10:41:37Z</time></trkpt>
<trkpt lat="53.0958840000" lon="-4.1569840000"><ele>704</ele><time>2016-10-15T10:41:38Z</time></trkpt>
<trkpt lat="53.0958820000" lon="-4.1569830000"><ele>704</ele><time>2016-10-15T10:41:40Z</time></trkpt>
<trkpt lat="53.0958790000" lon="-4.1569810000"><ele>704</ele></trkpt>
<trkpt lat="53.0958760000" lon="-4.1569800000"><ele>704</ele><time>2016-10-15T10:41:41Z</time></trkpt>
<trkpt lat="53.0958720000" lon="-4.1569780000"><ele>704</ele><time>2016-10-15T10:41:42Z</time></trkpt>
<trkpt lat="53.0958670000" lon="-4.1569760000"><ele>704</ele><time>2016-10-15T10:41:43Z</time></trkpt>
<trkpt lat="53.0958630000" lon="-4.1569750000"><ele>704</ele><time>2016-10-15T10:41:44Z</time></trkpt>
<trkpt lat="53.0957770000" lon="-4.1569520000"><ele>704</ele><time>2016-10-15T10:41:45Z</time></trkpt>
<trkpt lat="53.0957660000" lon="-4.1569520000"><ele>703</ele><time>2016-10-15T10:41:46Z</time></trkpt>
<trkpt lat="53.0957550000" lon="-4.1569510000"><ele>703</ele><time>2016-10-15T10:41:47Z</time></trkpt>
<trkpt lat="53.0957420000" lon="-4.1569480000"><ele>703</ele><time>2016-10-15T10:41:48Z</time></trkpt>
<trkpt lat="53.0957280000" lon="-4.1569460000"><ele>703</ele><time>2016-10-15T10:41:49Z</time></trkpt>
<trkpt lat="53.0957190000" lon="-4.1569430000"><ele>703</ele><time>2016-10-15T10:41:50Z</time></trkpt>
<trkpt lat="53.0957110000" lon="-4.1569390000"><ele>703</ele><time>2016-10-15T10:41:51Z</time></trkpt>
<trkpt lat="53.0957110000" lon="-4.1569390000"><ele>702</ele><time>2016-10-15T10:41:52Z</time></trkpt>
<trkpt lat="53.0957110000" lon="-4.1569390000"><ele>702</ele><time>2016-10-15T10:41:53Z</time></trkpt>
<trkpt lat="53.0957100000" lon="-4.1569390000"><ele>702</ele><time>2016-10-15T10:41:54Z</time></trkpt>
<trkpt lat="53.0957090000" lon="-4.1569380000"><ele>702</ele><time>2016-10-15T10:41:55Z</time></trkpt>
<trkpt lat="53.0957070000" lon="-4.1569380000"><ele>701</ele><time>2016-10-15T10:41:56Z</time></trkpt>
<trkpt lat="53.0956430000" lon="-4.1569010000"><ele>701</ele><time>2016-10-15T10:41:57Z</time></trkpt>
<trkpt lat="53.0956340000" lon="-4.1568920000"><ele>701</ele><time>2016-10-15T10:41:58Z</time></trkpt>
<trkpt lat="53.0956240000" lon="-4.1568820000"><ele>701</ele><time>2016-10-15T10:41:59Z</time></trkpt>
<trkpt lat="53.0956130000" lon="-4.1568750000"><ele>700</ele><time>2016-10-15T10:42:00Z</time></trkpt>
<trkpt lat="53.0956000000" lon="-4.1568690000"><ele>700</ele><time>2016-10-15T10:42:01Z</time></trkpt>
<trkpt lat="53.0955890000" lon="-4.1568620000"><ele>700</ele><time>2016-10-15T10:42:02Z</time></trkpt>
<trkpt lat="53.0955770000" lon="-4.1568540000"><ele>700</ele><time>2016-10-15T10:42:03Z</time></trkpt>
<trkpt lat="53.0955650000" lon="-4.1568490000"><ele>700</ele><time>2016-10-15T10:42:04Z</time></trkpt>
<trkpt lat="53.0955540000" lon="-4.1568430000"><ele>699</ele><time>2016-10-15T10:42:05Z</time></trkpt>
<trkpt lat="53.0955440000" lon="-4.1568370000"><ele>699</ele><time>2016-10-15T10:42:06Z</time></trkpt>
<trkpt lat="53.0955350000" lon="-4.1568310000"><ele>699</ele><time>2016-10-15T10:42:07Z</time></trkpt>
<trkpt lat="53.0955270000" lon="-4.1568240000"><ele>699</ele><time>2016-10-15T10:42:08Z</time></trkpt>
<trkpt lat="53.0955270000" lon="-4.1568240000"><ele>698</ele><time>2016-10-15T10:42:09Z</time></trkpt>
<trkpt lat="53.0955270000" lon="-4.1568240000"><ele>698</ele><time>2016-10-15T10:42:10Z</time></trkpt>
<trkpt lat="53.0955260000" lon="-4.1568230000"><ele>698</ele><time>2016-10-15T10:42:11Z</time></trkpt>
<trkpt lat="53.0955260000" lon="-4.1568230000"><ele>698</ele><time>2016-10-15T10:42:12Z</time></trkpt>
<trkpt lat="53.0955250000" lon="-4.1568220000"><ele>698</ele><time>2016-10-15T10:42:13Z</time></trkpt>
<trkpt lat="53.0955230000" lon="-4.1568210000"><ele>698</ele><time>2016-10-15T10:42:14Z</time></trkpt>
<trkpt lat="53.0955210000" lon="-4.1568200000"><ele>698</ele><time>2016-10-15T10:42:15Z</time></trkpt>
<trkpt lat="53.0955190000" lon="-4.1568180000"><ele>697</ele><time>2016-10-15T10:42:16Z</time></trkpt>
<trkpt lat="53.0955150000" lon="-4.1568160000"><ele>697</ele><time>2016-10-15T10:42:17Z</time></trkpt>
<trkpt lat="53.0955110000" lon="-4.1568130000"><ele>697</ele><time>2016-10-15T10:42:18Z</time></trkpt>
<trkpt lat="53.0955060000" lon="-4.1568110000"><ele>697</ele><time>2016-10-15T10:42:19Z</time></trkpt>
<trkpt lat="53.0954050000" lon="-4.1567490000"><ele>697</ele><time>2016-10-15T10:42:20Z</time></trkpt>
<trkpt lat="53.0953930000" lon="-4.1567430000"><ele>696</ele><time>2016-10-15T10:42:21Z</time></trkpt>
<trkpt lat="53.0953810000" lon="-4.1567380000"><ele>696</ele><time>2016-10-15T10:42:22Z</time></trkpt>
<trkpt lat="53.0953690000" lon="-4.1567350000"><ele>696</ele><time>2016-10-15T10:42:23Z</time></trkpt>
<trkpt lat="53.0953600000" lon="-4.1567330000"><ele>696</ele><time>2016-10-15T10:42:24Z</time></trkpt>
<trkpt lat="53.0953500000" lon="-4.1567290000"><ele>696</ele><time>2016-10-15T10:42:25Z</time></trkpt>
<trkpt lat="53.0953390000" lon="-4.1567250000"><ele>695</ele><time>2016-10-15T10:42:26Z</time></trkpt>
<trkpt lat="53.0953300000" lon="-4.1567200000"><ele>695</ele><time>2016-10-15T10:42:27Z</time></trkpt>
<trkpt lat="53.0953300000" lon="-4.1567200000"><ele>695</ele><time>2016-10-15T10:42:28Z</time></trkpt>
<trkpt lat="53.0953290000" lon="-4.1567200000"><ele>695</ele><time>2016-10-15T10:42:29Z</time></trkpt>
<trkpt lat="53.0953290000" lon="-4.1567200000"><ele>695</ele><time>2016-10-15T10:42:30Z</time></trkpt>
<trkpt lat="53.0953280000" lon="-4.1567190000"><ele>694</ele><time>2016-10-15T10:42:31Z</time></trkpt>
<trkpt lat="53.0953260000" lon="-4.1567190000"><ele>694</ele><time>2016-10-15T10:42:32Z</time></trkpt>
<trkpt lat="53.0953240000" lon="-4.1567190000"><ele>694</ele><time>2016-10-15T10:42:33Z</time></trkpt>
<trkpt lat="53.0953220000" lon="-4.1567180000"><ele>694</ele><time>2016-10-15T10:42:34Z</time></trkpt>
<trkpt lat="53.0952380000" lon="-4.1566940000"><ele>694</ele><time>2016-10-15T10:42:35Z</time></trkpt>
<trkpt lat="53.0952260000" lon="-4.1566880000"><ele>693</ele><time>2016-10-15T10:42:36Z</time></trkpt>
<trkpt lat="53.0952150000" lon="-4.1566810000"><ele>693</ele><time>2016-10-15T10:42:37Z</time></trkpt>
<trkpt lat="53.0952040000" lon="-4.1566720000"><ele>693</ele><time>2016-10-15T10:42:38Z</time></trkpt>
<trkpt lat="53.0951940000" lon="-4.1566640000"><ele>693</ele><time>2016-10-15T10:42:40Z</time></trkpt>
<trkpt lat="53.0951820000" lon="-4.1566560000"><ele>692</ele></trkpt>
<trkpt lat="53.0951700000" lon="-4.1566490000"><ele>692</ele><time>2016-10-15T10:42:41Z</time></trkpt>
<trkpt lat="53.0951590000" lon="-4.1566400000"><ele>692</ele><time>2016-10-15T10:42:42Z</time></trkpt>
<trkpt lat="53.0951460000" lon="-4.1566300000"><ele>692</ele><time>2016-10-15T10:42:43Z</time></trkpt>
<trkpt lat="53.0951340000" lon="-4.1566220000"><ele>691</ele><time>2016-10-15T10:42:44Z</time></trkpt>
<trkpt lat="53.0951230000" lon="-4.1566140000"><ele>691</ele><time>2016-10-15T10:42:45Z</time></trkpt>
<trkpt lat="53.0951140000" lon="-4.1566070000"><ele>691</ele><time>2016-10-15T10:42:46Z</time></trkpt>
<trkpt lat="53.0951040000" lon="-4.1565990000"><ele>691</ele><time>2016-10-15T10:42:47Z</time></trkpt>
<trkpt lat="53.0950940000" lon="-4.1565910000"><ele>690</ele><time>2016-10-15T10:42:48Z</time></trkpt>
<trkpt lat="53.0950840000" lon="-4.1565830000"><ele>690</ele><time>2016-10-15T10:42:49Z</time></trkpt>
<trkpt lat="53.0950840000" lon="-4.1565830000"><ele>690</ele><time>2016-10-15T10:42:50Z</time></trkpt>
<trkpt lat="53.0950840000" lon="-4.1565830000"><ele>690</ele><time>2016-10-15T10:42:51Z</time></trkpt>
<trkpt lat="53.0950830000" lon="-4.1565830000"><ele>689</ele><time>2016-10-15T10:42:52Z</time></trkpt>
<trkpt lat="53.0950830000" lon="-4.1565820000"><ele>689</ele><time>2016-10-15T10:42:53Z</time></trkpt>
<trkpt lat="53.0950810000" lon="-4.1565810000"><ele>689</ele><time>2016-10-15T10:42:54Z</time></trkpt>
<trkpt lat="53.0950800000" lon="-4.1565790000"><ele>688</ele><time>2016-10-15T10:42:55Z</time></trkpt>
<trkpt lat="53.0950780000" lon="-4.1565780000"><ele>688</ele><time>2016-10-15T10:42:56Z</time></trkpt>
<trkpt lat="53.0950750000" lon="-4.1565750000"><ele>688</ele><time>2016-10-15T10:42:57Z</time></trkpt>
<trkpt lat="53.0950720000" lon="-4.1565730000"><ele>687</ele><time>2016-10-15T10:42:58Z</time></trkpt>
<trkpt lat="53.0950680000" lon="-4.1565710000"><ele>687</ele><time>2016-10-15T10:42:59Z</time></trkpt>
<trkpt lat="53.0950630000" lon="-4.1565690000"><ele>687</ele><time>2016-10-15T10:43:00Z</time></trkpt>
<trkpt lat="53.0950580000" lon="-4.1565680000"><ele>686</ele><time>2016-10-15T10:43:01Z</time></trkpt>
<trkpt lat="53.0950530000" lon="-4.1565670000"><ele>686</ele><time>2016-10-15T10:43:02Z</time></trkpt>
<trkpt lat="53.0950470000" lon="-4.1565660000"><ele>686</ele><time>2016-10-15T10:43:03Z</time></trkpt>
<trkpt lat="53.0950410000" lon="-4.1565650000"><ele>686</ele><time>2016-10-15T10:43:04Z</time></trkpt>
<trkpt lat="53.0950340000" lon="-4.1565650000"><ele>685</ele><time>2016-10-15T10:43:05Z</time></trkpt>
<trkpt lat="53.0950270000" lon="-4.1565640000"><ele>685</ele><time>2016-10-15T10:43:06Z</time></trkpt>
<trkpt lat="53.0950200000" lon="-4.1565630000"><ele>685</ele><time>2016-10-15T10:43:07Z</time></trkpt>
<trkpt lat="53.0950130000" lon="-4.1565630000"><ele>684</ele><time>2016-10-15T10:43:08Z</time></trkpt>
<trkpt lat="53.0950090000" lon="-4.1565620000"><ele>684</ele><time>2016-10-15T10:43:09Z</time></trkpt>
<trkpt lat="53.0950050000" lon="-4.1565610000"><ele>684</ele><time>2016-10-15T10:43:10Z</time></trkpt>
<trkpt lat="53.0950000000" lon="-4.1565600000"><ele>684</ele><time>2016-10-15T10:43:11Z</time></trkpt>
<trkpt lat="53.0949930000" lon="-4.1565590000"><ele>683</ele><time>2016-10-15T10:43:12Z</time></trkpt>
<trkpt lat="53.0949860000" lon="-4.1565570000"><ele>683</ele><time>2016-10-15T10:43:13Z</time></trkpt>
<trkpt lat="53.0949790000" lon="-4.1565560000"><ele>683</ele><time>2016-10-15T10:43:14Z</time></trkpt>
<trkpt lat="53.0949700000" lon="-4.1565530000"><ele>683</ele><time>2016-10-15T10:43:15Z</time></trkpt>
<trkpt lat="53.0949600000" lon="-4.1565510000"><ele>683</ele><time>2016-10-15T10:43:16Z</time></trkpt>
<trkpt lat="53.0949510000" lon="-4.1565480000"><ele>682</ele><time>2016-10-15T10:43:17Z</time></trkpt>
<trkpt lat="53.0948010000" lon="-4.1564950000"><ele>682</ele><time>2016-10-15T10:43:18Z</time></trkpt>
<trkpt lat="53.0947900000" lon="-4.1564870000"><ele>682</ele><time>2016-10-15T10:43:19Z</time></trkpt>
<trkpt lat="53.0947770000" lon="-4.1564780000"><ele>682</ele><time>2016-10-15T10:43:20Z</time></trkpt>
<trkpt lat="53.0947650000" lon="-4.1564680000"><ele>681</ele><time>2016-10-15T10:43:21Z</time></trkpt>
<trkpt lat="53.0947540000" lon="-4.1564590000"><ele>681</ele><time>2016-10-15T10:43:22Z</time></trkpt>
<trkpt lat="53.0947420000" lon="-4.1564510000"><ele>681</ele><time>2016-10-15T10:43:23Z</time></trkpt>
<trkpt lat="53.0947300000" lon="-4.1564420000"><ele>680</ele><time>2016-10-15T10:43:24Z</time></trkpt>
<trkpt lat="53.0947200000" lon="-4.1564350000"><ele>680</ele><time>2016-10-15T10:43:25Z</time></trkpt>
<trkpt lat="53.0947110000" lon="-4.1564300000"><ele>680</ele><time>2016-10-15T10:43:26Z</time></trkpt>
<trkpt lat="53.0946990000" lon="-4.1564240000"><ele>680</ele><time>2016-10-15T10:43:27Z</time></trkpt>
<trkpt lat="53.0946990000" lon="-4.1564240000"><ele>679</ele><time>2016-10-15T10:43:28Z</time></trkpt>
<trkpt lat="53.0946980000" lon="-4.1564240000"><ele>679</ele><time>2016-10-15T10:43:29Z</time></trkpt>
<trkpt lat="53.0946980000" lon="-4.1564240000"><ele>679</ele><time>2016-10-15T10:43:30Z</time></trkpt>
<trkpt lat="53.0946970000" lon="-4.1564230000"><ele>679</ele><time>2016-10-15T10:43:31Z</time></trkpt>
<trkpt lat="53.0946950000" lon="-4.1564220000"><ele>678</ele><time>2016-10-15T10:43:32Z</time></trkpt>
<trkpt lat="53.0946930000" lon="-4.1564210000"><ele>678</ele><time>2016-10-15T10:43:33Z</time></trkpt>
<trkpt lat="53.0946190000" lon="-4.1563870000"><ele>678</ele><time>2016-10-15T10:43:34Z</time></trkpt>
<trkpt lat="53.0946060000" lon="-4.1563850000"><ele>677</ele><time>2016-10-15T10:43:35Z</time></trkpt>
<trkpt lat="53.0945940000" lon="-4.1563830000"><ele>677</ele><time>2016-10-15T10:43:36Z</time></trkpt>
<trkpt lat="53.0945840000" lon="-4.1563780000"><ele>677</ele><time>2016-10-15T10:43:37Z</time></trkpt>
<trkpt lat="53.0945740000" lon="-4.1563710000"><ele>677</ele><time>2016-10-15T10:43:38Z</time></trkpt>
<trkpt lat="53.0945650000" lon="-4.1563640000"><ele>676</ele><time>2016-10-15T10:43:40Z</time></trkpt>
<trkpt lat="53.0945540000" lon="-4.1563580000"><ele>676</ele></trkpt>
<trkpt lat="53.0945540000" lon="-4.1563580000"><ele>676</ele><time>2016-10-15T10:43:41Z</time></trkpt>
<trkpt lat="53.0945540000" lon="-4.1563570000"><ele>675</ele><time>2016-10-15T10:43:42Z</time></trkpt>
<trkpt lat="53.0945540000" lon="-4.1563570000"><ele>675</ele><time>2016-10-15T10:43:43Z</time></trkpt>
<trkpt lat="53.0945530000" lon="-4.1563570000"><ele>675</ele><time>2016-10-15T10:43:44Z</time></trkpt>
<trkpt lat="53.0945520000" lon="-4.1563560000"><ele>674</ele><time>2016-10-15T10:43:45Z</time></trkpt>
<trkpt lat="53.0945500000" lon="-4.1563560000"><ele>674</ele><time>2016-10-15T10:43:46Z</time></trkpt>
<trkpt lat="53.0945480000" lon="-4.1563550000"><ele>674</ele><time>2016-10-15T10:43:47Z</time></trkpt>
<trkpt lat="53.0945450000" lon="-4.1563530000"><ele>673</ele><time>2016-10-15T10:43:48Z</time></trkpt>
<trkpt lat="53.0945420000" lon="-4.1563520000"><ele>673</ele><time>2016-10-15T10:43:49Z</time></trkpt>
<trkpt lat="53.0945380000" lon="-4.1563500000"><ele>673</ele><time>2016-10-15T10:43:50Z</time></trkpt>
<trkpt lat="53.0945340000" lon="-4.1563470000"><ele>672</ele><time>2016-10-15T10:43:51Z</time></trkpt>
<trkpt lat="53.0945290000" lon="-4.1563440000"><ele>672</ele><time>2016-10-15T10:43:52Z</time></trkpt>
<trkpt lat="53.0945230000" lon="-4.1563410000"><ele>672</ele><time>2016-10-15T10:43:53Z</time></trkpt>
<trkpt lat="53.0945180000" lon="-4.1563370000"><ele>671</ele><time>2016-10-15T10:43:54Z</time></trkpt>
<trkpt lat="53.0945120000" lon="-4.1563330000"><ele>671</ele><time>2016-10-15T10:43:55Z</time></trkpt>
<trkpt lat="53.0945050000" lon="-4.1563290000"><ele>671</ele><time>2016-10-15T10:43:56Z</time></trkpt>
<trkpt lat="53.0944990000" lon="-4.1563230000"><ele>670</ele><time>2016-10-15T10:43:57Z</time></trkpt>
<trkpt lat="53.0944920000" lon="-4.1563180000"><ele>670</ele><time>2016-10-15T10:43:58Z</time></trkpt>
<trkpt lat="53.0944850000" lon="-4.1563120000"><ele>670</ele><time>2016-10-15T10:43:59Z</time></trkpt>
<trkpt lat="53.0944780000" lon="-4.1563050000"><ele>669</ele><time>2016-10-15T10:44:00Z</time></trkpt>
<trkpt lat="53.0944710000" lon="-4.1562980000"><ele>669</ele><time>2016-10-15T10:44:01Z</time></trkpt>
<trkpt lat="53.0944640000" lon="-4.1562910000"><ele>669</ele><time>2016-10-15T10:44:02Z</time></trkpt>
<trkpt lat="53.0944560000" lon="-4.1562830000"><ele>668</ele><time>2016-10-15T10:44:03Z</time></trkpt>
<trkpt lat="53.0944490000" lon="-4.1562750000"><ele>668</ele><time>2016-10-15T10:44:04Z</time></trkpt>
<trkpt lat="53.0944420000" lon="-4.1562670000"><ele>668</ele><time>2016-10-15T10:44:05Z</time></trkpt>
<trkpt lat="53.0944350000" lon="-4.1562580000"><ele>668</ele><time>2016-10-15T10:44:06Z</time></trkpt>
<trkpt lat="53.0944270000" lon="-4.1562490000"><ele>667</ele><time>2016-10-15T10:44:07Z</time></trkpt>
<trkpt lat="53.0943150000" lon="-4.1561230000"><ele>667</ele><time>2016-10-15T10:44:08Z</time></trkpt>
<trkpt lat="53.0943030000" lon="-4.1561170000"><ele>667</ele><time>2016-10-15T10:44:09Z</time></trkpt>
<trkpt lat="53.0942900000" lon="-4.1561110000"><ele>666</ele><time>2016-10-15T10:44:10Z</time></trkpt>
<trkpt lat="53.0942800000" lon="-4.1561040000"><ele>666</ele><time>2016-10-15T10:44:11Z</time></trkpt>
<trkpt lat="53.0942700000" lon="-4.1560970000"><ele>666</ele><time>2016-10-15T10:44:12Z</time></trkpt>
<trkpt lat="53.0942600000" lon="-4.1560900000"><ele>666</ele><time>2016-10-15T10:44:13Z</time></trkpt>
<trkpt lat="53.0942510000" lon="-4.1560850000"><ele>665</ele><time>2016-10-15T10:44:14Z</time></trkpt>
<trkpt lat="53.0942510000" lon="-4.1560850000"><ele>665</ele><time>2016-10-15T10:44:15Z</time></trkpt>
<trkpt lat="53.0942510000" lon="-4.1560850000"><ele>665</ele><time>2016-10-15T10:44:16Z</time></trkpt>
<trkpt lat="53.0942510000" lon="-4.1560850000"><ele>665</ele><time>2016-10-15T10:44:17Z</time></trkpt>
<trkpt lat="53.0942510000" lon="-4.1560840000"><ele>665</ele><time>2016-10-15T10:44:18Z</time></trkpt>
<trkpt lat="53.0942510000" lon="-4.1560840000"><ele>665</ele><time>2016-10-15T10:44:19Z</time></trkpt>
<trkpt lat="53.0942500000" lon="-4.1560840000"><ele>665</ele><time>2016-10-15T10:44:20Z</time></trkpt>
<trkpt lat="53.0942500000" lon="-4.1560840000"><ele>664</ele><time>2016-10-15T10:44:21Z</time></trkpt>
<trkpt lat="53.0942480000" lon="-4.1560830000"><ele>664</ele><time>2016-10-15T10:44:22Z</time></trkpt>
<trkpt lat="53.0942460000" lon="-4.1560810000"><ele>664</ele><time>2016-10-15T10:44:23Z</time></trkpt>
<trkpt lat="53.0942450000" lon="-4.1560790000"><ele>664</ele><time>2016-10-15T10:44:24Z</time></trkpt>
<trkpt lat="53.0941870000" lon="-4.1560250000"><ele>664</ele><time>2016-10-15T10:44:25Z</time></trkpt>
<trkpt lat="53.0941790000" lon="-4.1560110000"><ele>664</ele><time>2016-10-15T10:44:26Z</time></trkpt>
<trkpt lat="53.0941730000" lon="-4.1559970000"><ele>663</ele><time>2016-10-15T10:44:27Z</time></trkpt>
<trkpt lat="53.0941730000" lon="-4.1559970000"><ele>663</ele><time>2016-10-15T10:44:28Z</time></trkpt>
<trkpt lat="53.0941720000" lon="-4.1559970000"><ele>663</ele><time>2016-10-15T10:44:29Z</time></trkpt>
<trkpt lat="53.0941720000" lon="-4.1559960000"><ele>663</ele><time>2016-10-15T10:44:30Z</time></trkpt>
<trkpt lat="53.0941710000" lon="-4.1559950000"><ele>663</ele><time>2016-10-15T10:44:31Z</time></trkpt>
<trkpt lat="53.0941700000" lon="-4.1559940000"><ele>663</ele><time>2016-10-15T10:44:32Z</time></trkpt>
<trkpt lat="53.0941690000" lon="-4.1559920000"><ele>662</ele><time>2016-10-15T10:44:33Z</time></trkpt>
<trkpt lat="53.0941670000" lon="-4.1559890000"><ele>662</ele><time>2016-10-15T10:44:34Z</time></trkpt>
<trkpt lat="53.0941640000" lon="-4.1559860000"><ele>662</ele><time>2016-10-15T10:44:35Z</time></trkpt>
<trkpt lat="53.0941620000" lon="-4.1559830000"><ele>662</ele><time>2016-10-15T10:44:36Z</time></trkpt>
<trkpt lat="53.0941590000" lon="-4.1559800000"><ele>661</ele><time>2016-10-15T10:44:37Z</time></trkpt>
<trkpt lat="53.0941560000" lon="-4.1559750000"><ele>661</ele><time>2016-10-15T10:44:38Z</time></trkpt>
<trkpt lat="53.0941520000" lon="-4.1559690000"><ele>661</ele><time>2016-10-15T10:44:40Z</time></trkpt>
<trkpt lat="53.0941470000" lon="-4.1559640000"><ele>660</ele></trkpt>
<trkpt lat="53.0941420000" lon="-4.1559580000"><ele>660</ele><time>2016-10-15T10:44:41Z</time></trkpt>
<trkpt lat="53.0941370000" lon="-4.1559520000"><ele>660</ele><time>2016-10-15T10:44:42Z</time></trkpt>
<trkpt lat="53.0941330000" lon="-4.1559470000"><ele>660</ele><time>2016-10-15T10:44:43Z</time></trkpt>
<trkpt lat="53.0941280000" lon="-4.1559410000"><ele>659</ele><time>2016-10-15T10:44:44Z</time></trkpt>
<trkpt lat="53.0941230000" lon="-4.1559360000"><ele>659</ele><time>2016-10-15T10:44:45Z</time></trkpt>
<trkpt lat="53.0941170000" lon="-4.1559300000"><ele>659</ele><time>2016-10-15T10:44:46Z</time></trkpt>
<trkpt lat="53.0941120000" lon="-4.1559240000"><ele>658</ele><time>2016-10-15T10:44:47Z</time></trkpt>
<trkpt lat="53.0941060000" lon="-4.1559180000"><ele>658</ele><time>2016-10-15T10:44:48Z</time></trkpt>
<trkpt lat="53.0940980000" lon="-4.1559100000"><ele>658</ele><time>2016-10-15T10:44:49Z</time></trkpt>
<trkpt lat="53.0940920000" lon="-4.1559030000"><ele>658</ele><time>2016-10-15T10:44:50Z</time></trkpt>
<trkpt lat="53.0940840000" lon="-4.1558950000"><ele>657</ele><time>2016-10-15T10:44:51Z</time></trkpt>
<trkpt lat="53.0940760000" lon="-4.1558870000"><ele>657</ele><time>2016-10-15T10:44:52Z</time></trkpt>
<trkpt lat="53.0940680000" lon="-4.1558800000"><ele>657</ele><time>2016-10-15T10:44:53Z</time></trkpt>
<trkpt lat="53.0940600000" lon="-4.1558720000"><ele>656</ele><time>2016-10-15T10:44:54Z</time></trkpt>
<trkpt lat="53.0940520000" lon="-4.1558640000"><ele>656</ele><time>2016-10-15T10:44:55Z</time></trkpt>
<trkpt lat="53.0940460000" lon="-4.1558580000"><ele>656</ele><time>2016-10-15T10:44:56Z</time></trkpt>
<trkpt lat="53.0940390000" lon="-4.1558520000"><ele>655</ele><time>2016-10-15T10:44:57Z</time></trkpt>
<trkpt lat="53.0940320000" lon="-4.1558460000"><ele>655</ele><time>2016-10-15T10:44:58Z</time></trkpt>
<trkpt lat="53.0940260000" lon="-4.1558400000"><ele>655</ele><time>2016-10-15T10:44:59Z</time></trkpt>
<trkpt lat="53.0940190000" lon="-4.1558330000"><ele>655</ele><time>2016-10-15T10:45:00Z</time></trkpt>
<trkpt lat="53.0940120000" lon="-4.1558260000"><ele>654</ele><time>2016-10-15T10:45:01Z</time></trkpt>
<trkpt lat="53.0940050000" lon="-4.1558190000"><ele>654</ele><time>2016-10-15T10:45:02Z</time></trkpt>
<trkpt lat="53.0939980000" lon="-4.1558120000"><ele>654</ele><time>2016-10-15T10:45:03Z</time></trkpt>
<trkpt lat="53.0939900000" lon="-4.1558040000"><ele>653</ele><time>2016-10-15T10:45:04Z</time></trkpt>
<trkpt lat="53.0939830000" lon="-4.1557950000"><ele>653</ele><time>2016-10-15T10:45:05Z</time></trkpt>
<trkpt lat="53.0939760000" lon="-4.1557870000"><ele>653</ele><time>2016-10-15T10:45:06Z</time></trkpt>
<trkpt lat="53.0939680000" lon="-4.1557790000"><ele>652</ele><time>2016-10-15T10:45:07Z</time></trkpt>
<trkpt lat="53.0939610000" lon="-4.1557700000"><ele>652</ele><time>2016-10-15T10:45:08Z</time></trkpt>
<trkpt lat="53.0939530000" lon="-4.1557620000"><ele>652</ele><time>2016-10-15T10:45:09Z</time></trkpt>
<trkpt lat="53.0939450000" lon="-4.1557540000"><ele>652</ele><time>2016-10-15T10:45:10Z</time></trkpt>
<trkpt lat="53.0939380000" lon="-4.1557460000"><ele>651</ele><time>2016-10-15T10:45:11Z</time></trkpt>
<trkpt lat="53.0939300000" lon="-4.1557370000"><ele>651</ele><time>2016-10-15T10:45:12Z</time></trkpt>
<trkpt lat="53.0939230000" lon="-4.1557290000"><ele>651</ele><time>2016-10-15T10:45:13Z</time></trkpt>
<trkpt lat="53.0939150000" lon="-4.1557200000"><ele>650</ele><time>2016-10-15T10:45:14Z</time></trkpt>
<trkpt lat="53.0939070000" lon="-4.1557120000"><ele>650</ele><time>2016-10-15T10:45:15Z</time></trkpt>
<trkpt lat="53.0939000000" lon="-4.1557040000"><ele>650</ele><time>2016-10-15T10:45:16Z</time></trkpt>
<trkpt lat="53.0938920000" lon="-4.1556960000"><ele>650</ele><time>2016-10-15T10:45:17Z</time></trkpt>
<trkpt lat="53.0938850000" lon="-4.1556890000"><ele>649</ele><time>2016-10-15T10:45:18Z</time></trkpt>
<trkpt lat="53.0938750000" lon="-4.1556790000"><ele>649</ele><time>2016-10-15T10:45:19Z</time></trkpt>
<trkpt lat="53.0937540000" lon="-4.1555520000"><ele>649</ele><time>2016-10-15T10:45:20Z</time></trkpt>
<trkpt lat="53.0937470000" lon="-4.1555450000"><ele>649</ele><time>2016-10-15T10:45:21Z</time></trkpt>
<trkpt lat="53.0937420000" lon="-4.1555360000"><ele>648</ele><time>2016-10-15T10:45:22Z</time></trkpt>
<trkpt lat="53.0937420000" lon="-4.1555360000"><ele>648</ele><time>2016-10-15T10:45:23Z</time></trkpt>
<trkpt lat="53.0937410000" lon="-4.1555360000"><ele>648</ele><time>2016-10-15T10:45:24Z</time></trkpt>
<trkpt lat="53.0937410000" lon="-4.1555360000"><ele>648</ele><time>2016-10-15T10:45:25Z</time></trkpt>
<trkpt lat="53.0937400000" lon="-4.1555350000"><ele>647</ele><time>2016-10-15T10:45:26Z</time></trkpt>
<trkpt lat="53.0937390000" lon="-4.1555340000"><ele>647</ele><time>2016-10-15T10:45:27Z</time></trkpt>
<trkpt lat="53.0937380000" lon="-4.1555330000"><ele>647</ele><time>2016-10-15T10:45:28Z</time></trkpt>
<trkpt lat="53.0937360000" lon="-4.1555320000"><ele>647</ele><time>2016-10-15T10:45:29Z</time></trkpt>
<trkpt lat="53.0937340000" lon="-4.1555300000"><ele>646</ele><time>2016-10-15T10:45:30Z</time></trkpt>
<trkpt lat="53.0937320000" lon="-4.1555270000"><ele>646</ele><time>2016-10-15T10:45:31Z</time></trkpt>
<trkpt lat="53.0937290000" lon="-4.1555240000"><ele>646</ele><time>2016-10-15T10:45:32Z</time></trkpt>
<trkpt lat="53.0937250000" lon="-4.1555190000"><ele>646</ele><time>2016-10-15T10:45:33Z</time></trkpt>
<trkpt lat="53.0937210000" lon="-4.1555150000"><ele>645</ele><time>2016-10-15T10:45:34Z</time></trkpt>
<trkpt lat="53.0937160000" lon="-4.1555100000"><ele>645</ele><time>2016-10-15T10:45:35Z</time></trkpt>
<trkpt lat="53.0937110000" lon="-4.1555040000"><ele>645</ele><time>2016-10-15T10:45:36Z</time></trkpt>
<trkpt lat="53.0937050000" lon="-4.1554990000"><ele>644</ele><time>2016-10-15T10:45:37Z</time></trkpt>
<trkpt lat="53.0937000000" lon="-4.1554940000"><ele>644</ele><time>2016-10-15T10:45:38Z</time></trkpt>
<trkpt lat="53.0936960000" lon="-4.1554890000"><ele>644</ele><time>2016-10-15T10:45:40Z</time></trkpt>
<trkpt lat="53.0936910000" lon="-4.1554830000"><ele>644</ele></trkpt>
<trkpt lat="53.0936860000" lon="-4.1554770000"><ele>643</ele><time>2016-10-15T10:45:41Z</time></trkpt>
<trkpt lat="53.0936800000" lon="-4.1554710000"><ele>643</ele><time>2016-10-15T10:45:42Z</time></trkpt>
<trkpt lat="53.0936750000" lon="-4.1554650000"><ele>643</ele><time>2016-10-15T10:45:43Z</time></trkpt>
<trkpt lat="53.0936690000" lon="-4.1554580000"><ele>643</ele><time>2016-10-15T10:45:44Z</time></trkpt>
<trkpt lat="53.0936630000" lon="-4.1554510000"><ele>642</ele><time>2016-10-15T10:45:45Z</time></trkpt>
<trkpt lat="53.0936570000" lon="-4.1554440000"><ele>642</ele><time>2016-10-15T10:45:46Z</time></trkpt>
<trkpt lat="53.0936510000" lon="-4.1554360000"><ele>642</ele><time>2016-10-15T10:45:47Z</time></trkpt>
<trkpt lat="53.0936440000" lon="-4.1554280000"><ele>642</ele><time>2016-10-15T10:45:48Z</time></trkpt>
<trkpt lat="53.0936380000" lon="-4.1554200000"><ele>641</ele><time>2016-10-15T10:45:49Z</time></trkpt>
<trkpt lat="53.0936310000" lon="-4.1554110000"><ele>641</ele><time>2016-10-15T10:45:50Z</time></trkpt>
<trkpt lat="53.0936250000" lon="-4.1554030000"><ele>641</ele><time>2016-10-15T10:45:51Z</time></trkpt>
<trkpt lat="53.0936180000" lon="-4.1553940000"><ele>641</ele><time>2016-10-15T10:45:52Z</time></trkpt>
<trkpt lat="53.0936120000" lon="-4.1553850000"><ele>640</ele><time>2016-10-15T10:45:53Z</time></trkpt>
<trkpt lat="53.0936050000" lon="-4.1553760000"><ele>640</ele><time>2016-10-15T10:45:54Z</time></trkpt>
<trkpt lat="53.0935980000" lon="-4.1553660000"><ele>640</ele><time>2016-10-15T10:45:55Z</time></trkpt>
<trkpt lat="53.0935910000" lon="-4.1553570000"><ele>640</ele><time>2016-10-15T10:45:56Z</time></trkpt>
<trkpt lat="53.0935840000" lon="-4.1553470000"><ele>640</ele><time>2016-10-15T10:45:57Z</time></trkpt>
<trkpt lat="53.0935770000" lon="-4.1553380000"><ele>640</ele><time>2016-10-15T10:45:58Z</time></trkpt>
<trkpt lat="53.0935700000" lon="-4.1553280000"><ele>639</ele><time>2016-10-15T10:45:59Z</time></trkpt>
<trkpt lat="53.0935630000" lon="-4.1553190000"><ele>639</ele><time>2016-10-15T10:46:00Z</time></trkpt>
<trkpt lat="53.0935560000" lon="-4.1553100000"><ele>639</ele><time>2016-10-15T10:46:01Z</time></trkpt>
<trkpt lat="53.0935490000" lon="-4.1553020000"><ele>639</ele><time>2016-10-15T10:46:02Z</time></trkpt>
<trkpt lat="53.0935420000" lon="-4.1552930000"><ele>639</ele><time>2016-10-15T10:46:03Z</time></trkpt>
<trkpt lat="53.0935340000" lon="-4.1552840000"><ele>639</ele><time>2016-10-15T10:46:04Z</time></trkpt>
<trkpt lat="53.0935270000" lon="-4.1552760000"><ele>639</ele><time>2016-10-15T10:46:05Z</time></trkpt>
<trkpt lat="53.0935200000" lon="-4.1552680000"><ele>638</ele><time>2016-10-15T10:46:06Z</time></trkpt>
<trkpt lat="53.0935130000" lon="-4.1552590000"><ele>638</ele><time>2016-10-15T10:46:07Z</time></trkpt>
<trkpt lat="53.0935050000" lon="-4.1552500000"><ele>638</ele><time>2016-10-15T10:46:08Z</time></trkpt>
<trkpt lat="53.0934980000" lon="-4.1552410000"><ele>638</ele><time>2016-10-15T10:46:09Z</time></trkpt>
<trkpt lat="53.0934910000" lon="-4.1552330000"><ele>638</ele><time>2016-10-15T10:46:10Z</time></trkpt>
<trkpt lat="53.0934830000" lon="-4.1552250000"><ele>637</ele><time>2016-10-15T10:46:11Z</time></trkpt>
<trkpt lat="53.0934760000" lon="-4.1552170000"><ele>637</ele><time>2016-10-15T10:46:12Z</time></trkpt>
<trkpt lat="53.0934690000" lon="-4.1552100000"><ele>637</ele><time>2016-10-15T10:46:13Z</time></trkpt>
<trkpt lat="53.0934610000" lon="-4.1552020000"><ele>637</ele><time>2016-10-15T10:46:14Z</time></trkpt>
<trkpt lat="53.0934540000" lon="-4.1551950000"><ele>637</ele><time>2016-10-15T10:46:15Z</time></trkpt>
<trkpt lat="53.0934470000" lon="-4.1551870000"><ele>636</ele><time>2016-10-15T10:46:16Z</time></trkpt>
<trkpt lat="53.0934390000" lon="-4.1551800000"><ele>636</ele><time>2016-10-15T10:46:17Z</time></trkpt>
<trkpt lat="53.0934320000" lon="-4.1551720000"><ele>636</ele><time>2016-10-15T10:46:18Z</time></trkpt>
<trkpt lat="53.0934250000" lon="-4.1551630000"><ele>636</ele><time>2016-10-15T10:46:19Z</time></trkpt>
<trkpt lat="53.0934180000" lon="-4.1551550000"><ele>635</ele><time>2016-10-15T10:46:20Z</time></trkpt>
<trkpt lat="53.0934110000" lon="-4.1551460000"><ele>635</ele><time>2016-10-15T10:46:21Z</time></trkpt>
<trkpt lat="53.0934030000" lon="-4.1551370000"><ele>635</ele><time>2016-10-15T10:46:22Z</time></trkpt>
<trkpt lat="53.0933960000" lon="-4.1551280000"><ele>635</ele><time>2016-10-15T10:46:23Z</time></trkpt>
<trkpt lat="53.0933890000" lon="-4.1551180000"><ele>634</ele><time>2016-10-15T10:46:24Z</time></trkpt>
<trkpt lat="53.0933820000" lon="-4.1551090000"><ele>634</ele><time>2016-10-15T10:46:25Z</time></trkpt>
<trkpt lat="53.0933750000" lon="-4.1550990000"><ele>634</ele><time>2016-10-15T10:46:26Z</time></trkpt>
<trkpt lat="53.0933670000" lon="-4.1550890000"><ele>634</ele><time>2016-10-15T10:46:27Z</time></trkpt>
<trkpt lat="53.0932510000" lon="-4.1549270000"><ele>633</ele><time>2016-10-15T10:46:28Z</time></trkpt>
<trkpt lat="53.0932420000" lon="-4.1549180000"><ele>633</ele><time>2016-10-15T10:46:29Z</time></trkpt>
<trkpt lat="53.0932330000" lon="-4.1549090000"><ele>633</ele><time>2016-10-15T10:46:30Z</time></trkpt>
<trkpt lat="53.0932240000" lon="-4.1549000000"><ele>633</ele><time>2016-10-15T10:46:31Z</time></trkpt>
<trkpt lat="53.0932160000" lon="-4.1548880000"><ele>632</ele><time>2016-10-15T10:46:32Z</time></trkpt>
<trkpt lat="53.0932060000" lon="-4.1548790000"><ele>632</ele><time>2016-10-15T10:46:33Z</time></trkpt>
<trkpt lat="53.0931970000" lon="-4.1548710000"><ele>632</ele><time>2016-10-15T10:46:34Z</time></trkpt>
<trkpt lat="53.0931970000" lon="-4.1548710000"><ele>632</ele><time>2016-10-15T10:46:35Z</time></trkpt>
<trkpt lat="53.0931960000" lon="-4.1548710000"><ele>631</ele><time>2016-10-15T10:46:36Z</time></trkpt>
<trkpt lat="53.0931960000" lon="-4.1548710000"><ele>631</ele><time>2016-10-15T10:46:37Z</time></trkpt>
<trkpt lat="53.0931950000" lon="-4.1548700000"><ele>631</ele><time>2016-10-15T10:46:38Z</time></trkpt>
<trkpt lat="53.0931940000" lon="-4.1548700000"><ele>631</ele><time>2016-10-15T10:46:40Z</time></trkpt>
<trkpt lat="53.0931930000" lon="-4.1548690000"><ele>630</ele></trkpt>
<trkpt lat="53.0931910000" lon="-4.1548670000"><ele>630</ele><time>2016-10-15T10:46:41Z</time></trkpt>
<trkpt lat="53.0931890000" lon="-4.1548650000"><ele>630</ele><time>2016-10-15T10:46:42Z</time></trkpt>
<trkpt lat="53.0931860000" lon="-4.1548630000"><ele>629</ele><time>2016-10-15T10:46:43Z</time></trkpt>
<trkpt lat="53.0931830000" lon="-4.1548610000"><ele>629</ele><time>2016-10-15T10:46:44Z</time></trkpt>
<trkpt lat="53.0931790000" lon="-4.1548580000"><ele>629</ele><time>2016-10-15T10:46:45Z</time></trkpt>
<trkpt lat="53.0931750000" lon="-4.1548550000"><ele>628</ele><time>2016-10-15T10:46:46Z</time></trkpt>
<trkpt lat="53.0931710000" lon="-4.1548520000"><ele>628</ele><time>2016-10-15T10:46:47Z</time></trkpt>
<trkpt lat="53.0931660000" lon="-4.1548470000"><ele>628</ele><time>2016-10-15T10:46:48Z</time></trkpt>
<trkpt lat="53.0931610000" lon="-4.1548420000"><ele>627</ele><time>2016-10-15T10:46:49Z</time></trkpt>
<trkpt lat="53.0931560000" lon="-4.1548370000"><ele>627</ele><time>2016-10-15T10:46:50Z</time></trkpt>
<trkpt lat="53.0931510000" lon="-4.1548320000"><ele>626</ele><time>2016-10-15T10:46:51Z</time></trkpt>
<trkpt lat="53.0931450000" lon="-4.1548260000"><ele>626</ele><time>2016-10-15T10:46:52Z</time></trkpt>
<trkpt lat="53.0931390000" lon="-4.1548200000"><ele>626</ele><time>2016-10-15T10:46:53Z</time></trkpt>
<trkpt lat="53.0931330000" lon="-4.1548130000"><ele>625</ele><time>2016-10-15T10:46:54Z</time></trkpt>
<trkpt lat="53.0931270000" lon="-4.1548060000"><ele>625</ele><time>2016-10-15T10:46:55Z</time></trkpt>
<trkpt lat="53.0931200000" lon="-4.1547990000"><ele>624</ele><time>2016-10-15T10:46:56Z</time></trkpt>
<trkpt lat="53.0931140000" lon="-4.1547910000"><ele>624</ele><time>2016-10-15T10:46:57Z</time></trkpt>
<trkpt lat="53.0931080000" lon="-4.1547840000"><ele>624</ele><time>2016-10-15T10:46:58Z</time></trkpt>
<trkpt lat="53.0931010000" lon="-4.1547760000"><ele>623</ele><time>2016-10-15T10:46:59Z</time></trkpt>
<trkpt lat="53.0930940000" lon="-4.1547680000"><ele>623</ele><time>2016-10-15T10:47:00Z</time></trkpt>
<trkpt lat="53.0930870000" lon="-4.1547590000"><ele>623</ele><time>2016-10-15T10:47:01Z</time></trkpt>
<trkpt lat="53.0930810000" lon="-4.1547500000"><ele>622</ele><time>2016-10-15T10:47:02Z</time></trkpt>
<trkpt lat="53.0930740000" lon="-4.1547410000"><ele>622</ele><time>2016-10-15T10:47:03Z</time></trkpt>
<trkpt lat="53.0930670000" lon="-4.1547320000"><ele>621</ele><time>2016-10-15T10:47:04Z</time></trkpt>
<trkpt lat="53.0930600000" lon="-4.1547230000"><ele>621</ele><time>2016-10-15T10:47:05Z</time></trkpt>
<trkpt lat="53.0930520000" lon="-4.1547130000"><ele>621</ele><time>2016-10-15T10:47:06Z</time></trkpt>
<trkpt lat="53.0930450000" lon="-4.1547040000"><ele>620</ele><time>2016-10-15T10:47:07Z</time></trkpt>
<trkpt lat="53.0929180000" lon="-4.1545410000"><ele>620</ele><time>2016-10-15T10:47:08Z</time></trkpt>
<trkpt lat="53.0929080000" lon="-4.1545310000"><ele>620</ele><time>2016-10-15T10:47:09Z</time></trkpt>
<trkpt lat="53.0928970000" lon="-4.1545200000"><ele>619</ele><time>2016-10-15T10:47:10Z</time></trkpt>
<trkpt lat="53.0928870000" lon="-4.1545070000"><ele>619</ele><time>2016-10-15T10:47:11Z</time></trkpt>
<trkpt lat="53.0928780000" lon="-4.1544950000"><ele>618</ele><time>2016-10-15T10:47:12Z</time></trkpt>
<trkpt lat="53.0928670000" lon="-4.1544850000"><ele>618</ele><time>2016-10-15T10:47:13Z</time></trkpt>
<trkpt lat="53.0928540000" lon="-4.1544760000"><ele>618</ele><time>2016-10-15T10:47:14Z</time></trkpt>
<trkpt lat="53.0928420000" lon="-4.1544650000"><ele>617</ele><time>2016-10-15T10:47:15Z</time></trkpt>
<trkpt lat="53.0928290000" lon="-4.1544540000"><ele>617</ele><time>2016-10-15T10:47:16Z</time></trkpt>
<trkpt lat="53.0928170000" lon="-4.1544450000"><ele>617</ele><time>2016-10-15T10:47:17Z</time></trkpt>
<trkpt lat="53.0928050000" lon="-4.1544340000"><ele>617</ele><time>2016-10-15T10:47:18Z</time></trkpt>
<trkpt lat="53.0927940000" lon="-4.1544220000"><ele>616</ele><time>2016-10-15T10:47:19Z</time></trkpt>
<trkpt lat="53.0927820000" lon="-4.1544120000"><ele>616</ele><time>2016-10-15T10:47:20Z</time></trkpt>
<trkpt lat="53.0927710000" lon="-4.1544000000"><ele>616</ele><time>2016-10-15T10:47:21Z</time></trkpt>
<trkpt lat="53.0927590000" lon="-4.1543870000"><ele>615</ele><time>2016-10-15T10:47:22Z</time></trkpt>
<trkpt lat="53.0927470000" lon="-4.1543760000"><ele>615</ele><time>2016-10-15T10:47:23Z</time></trkpt>
<trkpt lat="53.0927340000" lon="-4.1543660000"><ele>615</ele><time>2016-10-15T10:47:24Z</time></trkpt>
<trkpt lat="53.0927220000" lon="-4.1543550000"><ele>615</ele><time>2016-10-15T10:47:25Z</time></trkpt>
<trkpt lat="53.0927120000" lon="-4.1543440000"><ele>614</ele><time>2016-10-15T10:47:26Z</time></trkpt>
<trkpt lat="53.0927020000" lon="-4.1543320000"><ele>614</ele><time>2016-10-15T10:47:27Z</time></trkpt>
<trkpt lat="53.0926910000" lon="-4.1543180000"><ele>614</ele><time>2016-10-15T10:47:28Z</time></trkpt>
<trkpt lat="53.0926800000" lon="-4.1543060000"><ele>614</ele><time>2016-10-15T10:47:29Z</time></trkpt>
<trkpt lat="53.0926680000" lon="-4.1542950000"><ele>614</ele><time>2016-10-15T10:47:30Z</time></trkpt>
<trkpt lat="53.0926570000" lon="-4.1542840000"><ele>613</ele><time>2016-10-15T10:47:31Z</time></trkpt>
<trkpt lat="53.0926440000" lon="-4.1542730000"><ele>613</ele><time>2016-10-15T10:47:32Z</time></trkpt>
<trkpt lat="53.0926320000" lon="-4.1542610000"><ele>613</ele><time>2016-10-15T10:47:33Z</time></trkpt>
<trkpt lat="53.0926200000" lon="-4.1542500000"><ele>613</ele><time>2016-10-15T10:47:34Z</time></trkpt>
<trkpt lat="53.0926090000" lon="-4.1542420000"><ele>613</ele><time>2016-10-15T10:47:35Z</time></trkpt>
<trkpt lat="53.0925960000" lon="-4.1542320000"><ele>612</ele><time>2016-10-15T10:47:36Z</time></trkpt>
<trkpt lat="53.0925840000" lon="-4.1542210000"><ele>612</ele><time>2016-10-15T10:47:37Z</time></trkpt>
<trkpt lat="53.0925720000" lon="-4.1542080000"><ele>612</ele><time>2016-10-15T10:47:38Z</time></trkpt>
<trkpt lat="53.0925610000" lon="-4.1541980000"><ele>612</ele><time>2016-10-15T10:47:40Z</time></trkpt>
<trkpt lat="53.0925500000" lon="-4.1541900000"><ele>612</ele></trkpt>
<trkpt lat="53.0925400000" lon="-4.1541820000"><ele>612</ele><time>2016-10-15T10:47:41Z</time></trkpt>
<trkpt lat="53.0925320000" lon="-4.1541750000"><ele>612</ele><time>2016-10-15T10:47:42Z</time></trkpt>
<trkpt lat="53.0925230000" lon="-4.1541670000"><ele>612</ele><time>2016-10-15T10:47:43Z</time></trkpt>
<trkpt lat="53.0925230000" lon="-4.1541670000"><ele>611</ele><time>2016-10-15T10:47:44Z</time></trkpt>
<trkpt lat="53.0925230000" lon="-4.1541670000"><ele>611</ele><time>2016-10-15T10:47:45Z</time></trkpt>
<trkpt lat="53.0925230000" lon="-4.1541660000"><ele>611</ele><time>2016-10-15T10:47:46Z</time></trkpt>
<trkpt lat="53.0924790000" lon="-4.1541230000"><ele>611</ele><time>2016-10-15T10:47:47Z</time></trkpt>
<trkpt lat="53.0924680000" lon="-4.1541120000"><ele>611</ele><time>2016-10-15T10:47:48Z</time></trkpt>
<trkpt lat="53.0924550000" lon="-4.1541030000"><ele>611</ele><time>2016-10-15T10:47:49Z</time></trkpt>
<trkpt lat="53.0924420000" lon="-4.1540940000"><ele>611</ele><time>2016-10-15T10:47:50Z</time></trkpt>
<trkpt lat="53.0924300000" lon="-4.1540830000"><ele>611</ele><time>2016-10-15T10:47:51Z</time></trkpt>
<trkpt lat="53.0924180000" lon="-4.1540730000"><ele>611</ele><time>2016-10-15T10:47:52Z</time></trkpt>
<trkpt lat="53.0924060000" lon="-4.1540640000"><ele>611</ele><time>2016-10-15T10:47:53Z</time></trkpt>
<trkpt lat="53.0923940000" lon="-4.1540560000"><ele>611</ele><time>2016-10-15T10:47:54Z</time></trkpt>
<trkpt lat="53.0923810000" lon="-4.1540470000"><ele>611</ele><time>2016-10-15T10:47:55Z</time></trkpt>
<trkpt lat="53.0923680000" lon="-4.1540380000"><ele>610</ele><time>2016-10-15T10:47:56Z</time></trkpt>
<trkpt lat="53.0923560000" lon="-4.1540300000"><ele>610</ele><time>2016-10-15T10:47:57Z</time></trkpt>
<trkpt lat="53.0923440000" lon="-4.1540210000"><ele>610</ele><time>2016-10-15T10:47:58Z</time></trkpt>
<trkpt lat="53.0923300000" lon="-4.1540130000"><ele>610</ele><time>2016-10-15T10:47:59Z</time></trkpt>
<trkpt lat="53.0923170000" lon="-4.1540060000"><ele>610</ele><time>2016-10-15T10:48:00Z</time></trkpt>
<trkpt lat="53.0923030000" lon="-4.1539980000"><ele>610</ele><time>2016-10-15T10:48:01Z</time></trkpt>
<trkpt lat="53.0922890000" lon="-4.1539890000"><ele>610</ele><time>2016-10-15T10:48:02Z</time></trkpt>
<trkpt lat="53.0922750000" lon="-4.1539810000"><ele>610</ele><time>2016-10-15T10:48:03Z</time></trkpt>
<trkpt lat="53.0922610000" lon="-4.1539750000"><ele>610</ele><time>2016-10-15T10:48:04Z</time></trkpt>
<trkpt lat="53.0922470000" lon="-4.1539700000"><ele>610</ele><time>2016-10-15T10:48:05Z</time></trkpt>
<trkpt lat="53.0922330000" lon="-4.1539620000"><ele>610</ele><time>2016-10-15T10:48:06Z</time></trkpt>
<trkpt lat="53.0922190000" lon="-4.1539530000"><ele>610</ele><time>2016-10-15T10:48:07Z</time></trkpt>
<trkpt lat="53.0922050000" lon="-4.1539440000"><ele>610</ele><time>2016-10-15T10:48:08Z</time></trkpt>
<trkpt lat="53.0921910000" lon="-4.1539350000"><ele>610</ele><time>2016-10-15T10:48:09Z</time></trkpt>
<trkpt lat="53.0921770000" lon="-4.1539260000"><ele>610</ele><time>2016-10-15T10:48:10Z</time></trkpt>
<trkpt lat="53.0921630000" lon="-4.1539160000"><ele>610</ele><time>2016-10-15T10:48:11Z</time></trkpt>
<trkpt lat="53.0921490000" lon="-4.1539060000"><ele>610</ele><time>2016-10-15T10:48:12Z</time></trkpt>
<trkpt lat="53.0921360000" lon="-4.1538960000"><ele>610</ele><time>2016-10-15T10:48:13Z</time></trkpt>
<trkpt lat="53.0921240000" lon="-4.1538880000"><ele>610</ele><time>2016-10-15T10:48:14Z</time></trkpt>
<trkpt lat="53.0921100000" lon="-4.1538790000"><ele>610</ele><time>2016-10-15T10:48:15Z</time></trkpt>
<trkpt lat="53.0920960000" lon="-4.1538680000"><ele>609</ele><time>2016-10-15T10:48:16Z</time></trkpt>
<trkpt lat="53.0920820000" lon="-4.1538590000"><ele>609</ele><time>2016-10-15T10:48:17Z</time></trkpt>
<trkpt lat="53.0920690000" lon="-4.1538530000"><ele>609</ele><time>2016-10-15T10:48:18Z</time></trkpt>
<trkpt lat="53.0920570000" lon="-4.1538460000"><ele>609</ele><time>2016-10-15T10:48:19Z</time></trkpt>
<trkpt lat="53.0920430000" lon="-4.1538390000"><ele>609</ele><time>2016-10-15T10:48:20Z</time></trkpt>
<trkpt lat="53.0920290000" lon="-4.1538320000"><ele>609</ele><time>2016-10-15T10:48:21Z</time></trkpt>
<trkpt lat="53.0920150000" lon="-4.1538250000"><ele>609</ele><time>2016-10-15T10:48:22Z</time></trkpt>
<trkpt lat="53.0920020000" lon="-4.1538170000"><ele>609</ele><time>2016-10-15T10:48:23Z</time></trkpt>
<trkpt lat="53.0919880000" lon="-4.1538120000"><ele>609</ele><time>2016-10-15T10:48:24Z</time></trkpt>
<trkpt lat="53.0919750000" lon="-4.1538090000"><ele>609</ele><time>2016-10-15T10:48:25Z</time></trkpt>
<trkpt lat="53.0919600000" lon="-4.1538080000"><ele>609</ele><time>2016-10-15T10:48:26Z</time></trkpt>
<trkpt lat="53.0919460000" lon="-4.1538010000"><ele>609</ele><time>2016-10-15T10:48:27Z</time></trkpt>
<trkpt lat="53.0919340000" lon="-4.1537910000"><ele>608</ele><time>2016-10-15T10:48:28Z</time></trkpt>
<trkpt lat="53.0919230000" lon="-4.1537820000"><ele>608</ele><time>2016-10-15T10:48:29Z</time></trkpt>
<trkpt lat="53.0919110000" lon="-4.1537720000"><ele>608</ele><time>2016-10-15T10:48:30Z</time></trkpt>
<trkpt lat="53.0918990000" lon="-4.1537630000"><ele>608</ele><time>2016-10-15T10:48:31Z</time></trkpt>
<trkpt lat="53.0918870000" lon="-4.1537520000"><ele>608</ele><time>2016-10-15T10:48:32Z</time></trkpt>
<trkpt lat="53.0918750000" lon="-4.1537390000"><ele>608</ele><time>2016-10-15T10:48:33Z</time></trkpt>
<trkpt lat="53.0918640000" lon="-4.1537290000"><ele>608</ele><time>2016-10-15T10:48:34Z</time></trkpt>
<trkpt lat="53.0918520000" lon="-4.1537210000"><ele>608</ele><time>2016-10-15T10:48:35Z</time></trkpt>
<trkpt lat="53.0918380000" lon="-4.1537150000"><ele>608</ele><time>2016-10-15T10:48:36Z</time></trkpt>
<trkpt lat="53.0918260000" lon="-4.1537080000"><ele>608</ele><time>2016-10-15T10:48:37Z</time></trkpt>
<trkpt lat="53.0918140000" lon="-4.1537010000"><ele>608</ele><time>2016-10-15T10:48:38Z</time></trkpt>
<trkpt lat="53.0918010000" lon="-4.1536940000"><ele>608</ele><time>2016-10-15T10:48:40Z</time></trkpt>
<trkpt lat="53.0917880000" lon="-4.1536850000"><ele>608</ele></trkpt>
<trkpt lat="53.0917750000" lon="-4.1536750000"><ele>608</ele><time>2016-10-15T10:48:41Z</time></trkpt>
<trkpt lat="53.0917640000" lon="-4.1536650000"><ele>608</ele><time>2016-10-15T10:48:42Z</time></trkpt>
<trkpt lat="53.0917520000" lon="-4.1536570000"><ele>608</ele><time>2016-10-15T10:48:43Z</time></trkpt>
<trkpt lat="53.0917390000" lon="-4.1536490000"><ele>608</ele><time>2016-10-15T10:48:44Z</time></trkpt>
<trkpt lat="53.0917270000" lon="-4.1536420000"><ele>607</ele><time>2016-10-15T10:48:45Z</time></trkpt>
<trkpt lat="53.0917140000" lon="-4.1536360000"><ele>607</ele><time>2016-10-15T10:48:46Z</time></trkpt>
<trkpt lat="53.0917010000" lon="-4.1536290000"><ele>607</ele><time>2016-10-15T10:48:47Z</time></trkpt>
<trkpt lat="53.0916880000" lon="-4.1536230000"><ele>607</ele><time>2016-10-15T10:48:48Z</time></trkpt>
<trkpt lat="53.0916760000" lon="-4.1536160000"><ele>607</ele><time>2016-10-15T10:48:49Z</time></trkpt>
<trkpt lat="53.0916620000" lon="-4.1536120000"><ele>607</ele><time>2016-10-15T10:48:50Z</time></trkpt>
<trkpt lat="53.0916480000" lon="-4.1536060000"><ele>607</ele><time>2016-10-15T10:48:51Z</time></trkpt>
<trkpt lat="53.0916360000" lon="-4.1536000000"><ele>607</ele><time>2016-10-15T10:48:52Z</time></trkpt>
<trkpt lat="53.0916250000" lon="-4.1535920000"><ele>607</ele><time>2016-10-15T10:48:53Z</time></trkpt>
<trkpt lat="53.0916130000" lon="-4.1535840000"><ele>607</ele><time>2016-10-15T10:48:54Z</time></trkpt>
<trkpt lat="53.0916000000" lon="-4.1535760000"><ele>607</ele><time>2016-10-15T10:48:55Z</time></trkpt>
<trkpt lat="53.0915880000" lon="-4.1535690000"><ele>607</ele><time>2016-10-15T10:48:56Z</time></trkpt>
<trkpt lat="53.0915750000" lon="-4.1535640000"><ele>606</ele><time>2016-10-15T10:48:57Z</time></trkpt>
<trkpt lat="53.0915630000" lon="-4.1535600000"><ele>606</ele><time>2016-10-15T10:48:58Z</time></trkpt>
<trkpt lat="53.0915490000" lon="-4.1535520000"><ele>606</ele><time>2016-10-15T10:48:59Z</time></trkpt>
<trkpt lat="53.0915340000" lon="-4.1535440000"><ele>606</ele><time>2016-10-15T10:49:00Z</time></trkpt>
<trkpt lat="53.0915210000" lon="-4.1535380000"><ele>606</ele><time>2016-10-15T10:49:01Z</time></trkpt>
<trkpt lat="53.0915080000" lon="-4.1535330000"><ele>606</ele><time>2016-10-15T10:49:02Z</time></trkpt>
<trkpt lat="53.0914960000" lon="-4.1535290000"><ele>606</ele><time>2016-10-15T10:49:03Z</time></trkpt>
<trkpt lat="53.0914830000" lon="-4.1535240000"><ele>606</ele><time>2016-10-15T10:49:04Z</time></trkpt>
<trkpt lat="53.0914690000" lon="-4.1535180000"><ele>606</ele><time>2016-10-15T10:49:05Z</time></trkpt>
<trkpt lat="53.0914540000" lon="-4.1535130000"><ele>606</ele><time>2016-10-15T10:49:06Z</time></trkpt>
<trkpt lat="53.0914400000" lon="-4.1535120000"><ele>606</ele><time>2016-10-15T10:49:07Z</time></trkpt>
<trkpt lat="53.0914260000" lon="-4.1535130000"><ele>606</ele><time>2016-10-15T10:49:08Z</time></trkpt>
<trkpt lat="53.0914130000" lon="-4.1535140000"><ele>606</ele><time>2016-10-15T10:49:09Z</time></trkpt>
<trkpt lat="53.0914000000" lon="-4.1535140000"><ele>606</ele><time>2016-10-15T10:49:10Z</time></trkpt>
<trkpt lat="53.0913880000" lon="-4.1535170000"><ele>606</ele><time>2016-10-15T10:49:11Z</time></trkpt>
<trkpt lat="53.0913740000" lon="-4.1535190000"><ele>606</ele><time>2016-10-15T10:49:12Z</time></trkpt>
<trkpt lat="53.0913600000" lon="-4.1535200000"><ele>606</ele><time>2016-10-15T10:49:13Z</time></trkpt>
<trkpt lat="53.0913480000" lon="-4.1535200000"><ele>606</ele><time>2016-10-15T10:49:14Z</time></trkpt>
<trkpt lat="53.0913360000" lon="-4.1535220000"><ele>606</ele><time>2016-10-15T10:49:15Z</time></trkpt>
<trkpt lat="53.0913240000" lon="-4.1535260000"><ele>606</ele><time>2016-10-15T10:49:16Z</time></trkpt>
<trkpt lat="53.0913120000" lon="-4.1535290000"><ele>606</ele><time>2016-10-15T10:49:17Z</time></trkpt>
<trkpt lat="53.0912990000" lon="-4.1535320000"><ele>606</ele><time>2016-10-15T10:49:18Z</time></trkpt>
<trkpt lat="53.0912860000" lon="-4.1535330000"><ele>606</ele><time>2016-10-15T10:49:19Z</time></trkpt>
<trkpt lat="53.0912730000" lon="-4.1535340000"><ele>606</ele><time>2016-10-15T10:49:20Z</time></trkpt>
<trkpt lat="53.0912610000" lon="-4.1535330000"><ele>606</ele><time>2016-10-15T10:49:21Z</time></trkpt>
<trkpt lat="53.0912500000" lon="-4.1535320000"><ele>606</ele><time>2016-10-15T10:49:22Z</time></trkpt>
<trkpt lat="53.0912380000" lon="-4.1535310000"><ele>606</ele><time>2016-10-15T10:49:23Z</time></trkpt>
<trkpt lat="53.0912260000" lon="-4.1535290000"><ele>606</ele><time>2016-10-15T10:49:24Z</time></trkpt>
<trkpt lat="53.0912130000" lon="-4.1535280000"><ele>606</ele><time>2016-10-15T10:49:25Z</time></trkpt>
<trkpt lat="53.0912010000" lon="-4.1535260000"><ele>606</ele><time>2016-10-15T10:49:26Z</time></trkpt>
<trkpt lat="53.0911900000" lon="-4.1535250000"><ele>606</ele><time>2016-10-15T10:49:27Z</time></trkpt>
<trkpt lat="53.0911900000" lon="-4.1535250000"><ele>606</ele><time>2016-10-15T10:49:28Z</time></trkpt>
<trkpt lat="53.0911900000" lon="-4.1535250000"><ele>607</ele><time>2016-10-15T10:49:29Z</time></trkpt>
<trkpt lat="53.0911890000" lon="-4.1535250000"><ele>607</ele><time>2016-10-15T10:49:30Z</time></trkpt>
<trkpt lat="53.0911880000" lon="-4.1535250000"><ele>607</ele><time>2016-10-15T10:49:31Z</time></trkpt>
<trkpt lat="53.0911870000" lon="-4.1535250000"><ele>607</ele><time>2016-10-15T10:49:32Z</time></trkpt>
<trkpt lat="53.0911850000" lon="-4.1535240000"><ele>607</ele><time>2016-10-15T10:49:33Z</time></trkpt>
<trkpt lat="53.0911830000" lon="-4.1535240000"><ele>607</ele><time>2016-10-15T10:49:34Z</time></trkpt>
<trkpt lat="53.0911810000" lon="-4.1535240000"><ele>607</ele><time>2016-10-15T10:49:35Z</time></trkpt>
<trkpt lat="53.0911780000" lon="-4.1535230000"><ele>607</ele><time>2016-10-15T10:49:36Z</time></trkpt>
<trkpt lat="53.0911750000" lon="-4.1535230000"><ele>607</ele><time>2016-10-15T10:49:37Z</time></trkpt>
<trkpt lat="53.0911730000" lon="-4.1535230000"><ele>607</ele><time>2016-10-15T10:49:38Z</time></trkpt>
<trkpt lat="53.0911700000" lon="-4.1535220000"><ele>607</ele><time>2016-10-15T10:49:40Z</time></trkpt>
<trkpt lat="53.0911670000" lon="-4.1535220000"><ele>607</ele></trkpt>
<trkpt lat="53.0911640000" lon="-4.1535220000"><ele>607</ele><time>2016-10-15T10:49:41Z</time></trkpt>
<trkpt lat="53.0911610000" lon="-4.1535220000"><ele>608</ele><time>2016-10-15T10:49:42Z</time></trkpt>
<trkpt lat="53.0911580000" lon="-4.1535220000"><ele>608</ele><time>2016-10-15T10:49:43Z</time></trkpt>
<trkpt lat="53.0911550000" lon="-4.1535220000"><ele>608</ele><time>2016-10-15T10:49:44Z</time></trkpt>
<trkpt lat="53.0911530000" lon="-4.1535220000"><ele>608</ele><time>2016-10-15T10:49:45Z</time></trkpt>
<trkpt lat="53.0911500000" lon="-4.1535220000"><ele>608</ele><time>2016-10-15T10:49:46Z</time></trkpt>
<trkpt lat="53.0911480000" lon="-4.1535220000"><ele>608</ele><time>2016-10-15T10:49:47Z</time></trkpt>
<trkpt lat="53.0911460000" lon="-4.1535210000"><ele>608</ele><time>2016-10-15T10:49:48Z</time></trkpt>
<trkpt lat="53.0911440000" lon="-4.1535210000"><ele>608</ele><time>2016-10-15T10:49:49Z</time></trkpt>
<trkpt lat="53.0911420000" lon="-4.1535210000"><ele>608</ele><time>2016-10-15T10:49:50Z</time></trkpt>
<trkpt lat="53.0911400000" lon="-4.1535210000"><ele>608</ele><time>2016-10-15T10:49:51Z</time></trkpt>
<trkpt lat="53.0911370000" lon="-4.1535210000"><ele>608</ele><time>2016-10-15T10:49:52Z</time></trkpt>
<trkpt lat="53.0911350000" lon="-4.1535210000"><ele>608</ele><time>2016-10-15T10:49:53Z</time></trkpt>
<trkpt lat="53.0911330000" lon="-4.1535210000"><ele>608</ele><time>2016-10-15T10:49:54Z</time></trkpt>
<trkpt lat="53.0911310000" lon="-4.1535210000"><ele>608</ele><time>2016-10-15T10:49:55Z</time></trkpt>
<trkpt lat="53.0911280000" lon="-4.1535210000"><ele>608</ele><time>2016-10-15T10:49:56Z</time></trkpt>
<trkpt lat="53.0911260000" lon="-4.1535210000"><ele>608</ele><time>2016-10-15T10:49:57Z</time></trkpt>
<trkpt lat="53.0911240000" lon="-4.1535210000"><ele>608</ele><time>2016-10-15T10:49:58Z</time></trkpt>
<trkpt lat="53.0911210000" lon="-4.1535210000"><ele>608</ele><time>2016-10-15T10:49:59Z</time></trkpt>
<trkpt lat="53.0911180000" lon="-4.1535200000"><ele>608</ele><time>2016-10-15T10:50:00Z</time></trkpt>
<trkpt lat="53.0911140000" lon="-4.1535190000"><ele>608</ele><time>2016-10-15T10:50:01Z</time></trkpt>
<trkpt lat="53.0911090000" lon="-4.1535170000"><ele>608</ele><time>2016-10-15T10:50:02Z</time></trkpt>
<trkpt lat="53.0911040000" lon="-4.1535150000"><ele>608</ele><time>2016-10-15T10:50:03Z</time></trkpt>
<trkpt lat="53.0910990000" lon="-4.1535130000"><ele>608</ele><time>2016-10-15T10:50:04Z</time></trkpt>
<trkpt lat="53.0910940000" lon="-4.1535110000"><ele>608</ele><time>2016-10-15T10:50:05Z</time></trkpt>
<trkpt lat="53.0910890000" lon="-4.1535080000"><ele>608</ele><time>2016-10-15T10:50:06Z</time></trkpt>
<trkpt lat="53.0910830000" lon="-4.1535050000"><ele>608</ele><time>2016-10-15T10:50:07Z</time></trkpt>
<trkpt lat="53.0910770000" lon="-4.1535020000"><ele>608</ele><time>2016-10-15T10:50:08Z</time></trkpt>
<trkpt lat="53.0910700000" lon="-4.1534990000"><ele>608</ele><time>2016-10-15T10:50:09Z</time></trkpt>
<trkpt lat="53.0909530000" lon="-4.1534440000"><ele>608</ele><time>2016-10-15T10:50:10Z</time></trkpt>
<trkpt lat="53.0909410000" lon="-4.1534390000"><ele>608</ele><time>2016-10-15T10:50:11Z</time></trkpt>
<trkpt lat="53.0909270000" lon="-4.1534360000"><ele>608</ele><time>2016-10-15T10:50:12Z</time></trkpt>
<trkpt lat="53.0909150000" lon="-4.1534310000"><ele>608</ele><time>2016-10-15T10:50:13Z</time></trkpt>
<trkpt lat="53.0909030000" lon="-4.1534250000"><ele>608</ele><time>2016-10-15T10:50:14Z</time></trkpt>
<trkpt lat="53.0908900000" lon="-4.1534200000"><ele>609</ele><time>2016-10-15T10:50:15Z</time></trkpt>
<trkpt lat="53.0908760000" lon="-4.1534160000"><ele>609</ele><time>2016-10-15T10:50:16Z</time></trkpt>
<trkpt lat="53.0908640000" lon="-4.1534130000"><ele>609</ele><time>2016-10-15T10:50:17Z</time></trkpt>
<trkpt lat="53.0908520000" lon="-4.1534080000"><ele>609</ele><time>2016-10-15T10:50:18Z</time></trkpt>
<trkpt lat="53.0908410000" lon="-4.1534030000"><ele>609</ele><time>2016-10-15T10:50:19Z</time></trkpt>
<trkpt lat="53.0908300000" lon="-4.1533980000"><ele>609</ele><time>2016-10-15T10:50:20Z</time></trkpt>
<trkpt lat="53.0908170000" lon="-4.1533930000"><ele>609</ele><time>2016-10-15T10:50:21Z</time></trkpt>
<trkpt lat="53.0908060000" lon="-4.1533910000"><ele>609</ele><time>2016-10-15T10:50:22Z</time></trkpt>
<trkpt lat="53.0907930000" lon="-4.1533890000"><ele>609</ele><time>2016-10-15T10:50:23Z</time></trkpt>
<trkpt lat="53.0907820000" lon="-4.1533860000"><ele>610</ele><time>2016-10-15T10:50:24Z</time></trkpt>
<trkpt lat="53.0907730000" lon="-4.1533810000"><ele>610</ele><time>2016-10-15T10:50:25Z</time></trkpt>
<trkpt lat="53.0907630000" lon="-4.1533760000"><ele>610</ele><time>2016-10-15T10:50:26Z</time></trkpt>
<trkpt lat="53.0907510000" lon="-4.1533690000"><ele>610</ele><time>2016-10-15T10:50:27Z</time></trkpt>
<trkpt lat="53.0907390000" lon="-4.1533630000"><ele>610</ele><time>2016-10-15T10:50:28Z</time></trkpt>
<trkpt lat="53.0907270000" lon="-4.1533570000"><ele>610</ele><time>2016-10-15T10:50:29Z</time></trkpt>
<trkpt lat="53.0907170000" lon="-4.1533510000"><ele>610</ele><time>2016-10-15T10:50:30Z</time></trkpt>
<trkpt lat="53.0907060000" lon="-4.1533450000"><ele>610</ele><time>2016-10-15T10:50:31Z</time></trkpt>
<trkpt lat="53.0906960000" lon="-4.1533380000"><ele>610</ele><time>2016-10-15T10:50:32Z</time></trkpt>
<trkpt lat="53.0906850000" lon="-4.1533320000"><ele>610</ele><time>2016-10-15T10:50:33Z</time></trkpt>
<trkpt lat="53.0906850000" lon="-4.1533320000"><ele>610</ele><time>2016-10-15T10:50:34Z</time></trkpt>
<trkpt lat="53.0906850000" lon="-4.1533320000"><ele>610</ele><time>2016-10-15T10:50:35Z</time></trkpt>
<trkpt lat="53.0906840000" lon="-4.1533320000"><ele>610</ele><time>2016-10-15T10:50:36Z</time></trkpt>
<trkpt lat="53.0906840000" lon="-4.1533320000"><ele>610</ele><time>2016-10-15T10:50:37Z</time></trkpt>
<trkpt lat="53.0906820000" lon="-4.1533310000"><ele>610</ele><time>2016-10-15T10:50:38Z</time></trkpt>
<trkpt lat="53.0906810000" lon="-4.1533300000"><ele>610</ele><time>2016-10-15T10:50:40Z</time></trkpt>
<trkpt lat="53.0906790000" lon="-4.1533290000"><ele>611</ele></trkpt>
<trkpt lat="53.0906760000" lon="-4.1533270000"><ele>611</ele><time>2016-10-15T10:50:41Z</time></trkpt>
<trkpt lat="53.0906720000" lon="-4.1533250000"><ele>611</ele><time>2016-10-15T10:50:42Z</time></trkpt>
<trkpt lat="53.0906690000" lon="-4.1533230000"><ele>611</ele><time>2016-10-15T10:50:43Z</time></trkpt>
<trkpt lat="53.0906640000" lon="-4.1533210000"><ele>611</ele><time>2016-10-15T10:50:44Z</time></trkpt>
<trkpt lat="53.0906590000" lon="-4.1533180000"><ele>611</ele><time>2016-10-15T10:50:45Z</time></trkpt>
<trkpt lat="53.0906540000" lon="-4.1533150000"><ele>611</ele><time>2016-10-15T10:50:46Z</time></trkpt>
<trkpt lat="53.0906480000" lon="-4.1533120000"><ele>611</ele><time>2016-10-15T10:50:47Z</time></trkpt>
<trkpt lat="53.0906410000" lon="-4.1533090000"><ele>612</ele><time>2016-10-15T10:50:48Z</time></trkpt>
<trkpt lat="53.0906350000" lon="-4.1533050000"><ele>612</ele><time>2016-10-15T10:50:49Z</time></trkpt>
<trkpt lat="53.0906280000" lon="-4.1533010000"><ele>612</ele><time>2016-10-15T10:50:50Z</time></trkpt>
<trkpt lat="53.0906210000" lon="-4.1532970000"><ele>612</ele><time>2016-10-15T10:50:51Z</time></trkpt>
<trkpt lat="53.0906130000" lon="-4.1532930000"><ele>612</ele><time>2016-10-15T10:50:52Z</time></trkpt>
<trkpt lat="53.0906060000" lon="-4.1532890000"><ele>612</ele><time>2016-10-15T10:50:53Z</time></trkpt>
<trkpt lat="53.0905990000" lon="-4.1532850000"><ele>613</ele><time>2016-10-15T10:50:54Z</time></trkpt>
<trkpt lat="53.0905910000" lon="-4.1532810000"><ele>613</ele><time>2016-10-15T10:50:55Z</time></trkpt>
<trkpt lat="53.0905840000" lon="-4.1532760000"><ele>613</ele><time>2016-10-15T10:50:56Z</time></trkpt>
<trkpt lat="53.0905760000" lon="-4.1532720000"><ele>613</ele><time>2016-10-15T10:50:57Z</time></trkpt>
<trkpt lat="53.0905680000" lon="-4.1532670000"><ele>613</ele><time>2016-10-15T10:50:58Z</time></trkpt>
<trkpt lat="53.0905600000" lon="-4.1532620000"><ele>614</ele><time>2016-10-15T10:50:59Z</time></trkpt>
<trkpt lat="53.0905510000" lon="-4.1532570000"><ele>614</ele><time>2016-10-15T10:51:00Z</time></trkpt>
<trkpt lat="53.0905430000" lon="-4.1532520000"><ele>614</ele><time>2016-10-15T10:51:01Z</time></trkpt>
<trkpt lat="53.0905340000" lon="-4.1532470000"><ele>614</ele><time>2016-10-15T10:51:02Z</time></trkpt>
<trkpt lat="53.0905250000" lon="-4.1532420000"><ele>615</ele><time>2016-10-15T10:51:03Z</time></trkpt>
<trkpt lat="53.0905170000" lon="-4.1532370000"><ele>615</ele><time>2016-10-15T10:51:04Z</time></trkpt>
<trkpt lat="53.0905090000" lon="-4.1532320000"><ele>615</ele><time>2016-10-15T10:51:05Z</time></trkpt>
<trkpt lat="53.0905000000" lon="-4.1532260000"><ele>615</ele><time>2016-10-15T10:51:06Z</time></trkpt>
<trkpt lat="53.0904920000" lon="-4.1532210000"><ele>615</ele><time>2016-10-15T10:51:07Z</time></trkpt>
<trkpt lat="53.0904830000" lon="-4.1532150000"><ele>615</ele><time>2016-10-15T10:51:08Z</time></trkpt>
<trkpt lat="53.0904750000" lon="-4.1532080000"><ele>616</ele><time>2016-10-15T10:51:09Z</time></trkpt>
<trkpt lat="53.0904660000" lon="-4.1532020000"><ele>616</ele><time>2016-10-15T10:51:10Z</time></trkpt>
<trkpt lat="53.0904570000" lon="-4.1531960000"><ele>616</ele><time>2016-10-15T10:51:11Z</time></trkpt>
<trkpt lat="53.0903200000" lon="-4.1530990000"><ele>616</ele><time>2016-10-15T10:51:12Z</time></trkpt>
<trkpt lat="53.0903100000" lon="-4.1530920000"><ele>616</ele><time>2016-10-15T10:51:13Z</time></trkpt>
<trkpt lat="53.0903000000" lon="-4.1530860000"><ele>617</ele><time>2016-10-15T10:51:14Z</time></trkpt>
<trkpt lat="53.0902910000" lon="-4.1530790000"><ele>617</ele><time>2016-10-15T10:51:15Z</time></trkpt>
<trkpt lat="53.0902910000" lon="-4.1530790000"><ele>617</ele><time>2016-10-15T10:51:17Z</time></trkpt>
<trkpt lat="53.0902900000" lon="-4.1530780000"><ele>617</ele><time>2016-10-15T10:51:18Z</time></trkpt>
<trkpt lat="53.0902900000" lon="-4.1530780000"><ele>618</ele><time>2016-10-15T10:51:19Z</time></trkpt>
<trkpt lat="53.0902890000" lon="-4.1530770000"><ele>618</ele><time>2016-10-15T10:51:20Z</time></trkpt>
<trkpt lat="53.0902880000" lon="-4.1530760000"><ele>618</ele><time>2016-10-15T10:51:21Z</time></trkpt>
<trkpt lat="53.0902870000" lon="-4.1530740000"><ele>618</ele><time>2016-10-15T10:51:22Z</time></trkpt>
<trkpt lat="53.0902850000" lon="-4.1530720000"><ele>618</ele><time>2016-10-15T10:51:23Z</time></trkpt>
<trkpt lat="53.0902820000" lon="-4.1530690000"><ele>618</ele><time>2016-10-15T10:51:24Z</time></trkpt>
<trkpt lat="53.0902800000" lon="-4.1530660000"><ele>618</ele><time>2016-10-15T10:51:25Z</time></trkpt>
<trkpt lat="53.0902770000" lon="-4.1530630000"><ele>619</ele><time>2016-10-15T10:51:26Z</time></trkpt>
<trkpt lat="53.0902730000" lon="-4.1530590000"><ele>619</ele><time>2016-10-15T10:51:27Z</time></trkpt>
<trkpt lat="53.0902690000" lon="-4.1530550000"><ele>619</ele><time>2016-10-15T10:51:28Z</time></trkpt>
<trkpt lat="53.0902640000" lon="-4.1530510000"><ele>619</ele><time>2016-10-15T10:51:29Z</time></trkpt>
<trkpt lat="53.0902590000" lon="-4.1530460000"><ele>619</ele><time>2016-10-15T10:51:30Z</time></trkpt>
<trkpt lat="53.0902540000" lon="-4.1530410000"><ele>620</ele><time>2016-10-15T10:51:31Z</time></trkpt>
<trkpt lat="53.0902490000" lon="-4.1530360000"><ele>620</ele><time>2016-10-15T10:51:32Z</time></trkpt>
<trkpt lat="53.0902430000" lon="-4.1530300000"><ele>620</ele><time>2016-10-15T10:51:33Z</time></trkpt>
<trkpt lat="53.0902370000" lon="-4.1530240000"><ele>620</ele><time>2016-10-15T10:51:34Z</time></trkpt>
<trkpt lat="53.0902300000" lon="-4.1530190000"><ele>620</ele><time>2016-10-15T10:51:35Z</time></trkpt>
<trkpt lat="53.0902240000" lon="-4.1530130000"><ele>621</ele><time>2016-10-15T10:51:36Z</time></trkpt>
<trkpt lat="53.0902180000" lon="-4.1530070000"><ele>621</ele><time>2016-10-15T10:51:37Z</time></trkpt>
<trkpt lat="53.0902110000" lon="-4.1530010000"><ele>621</ele><time>2016-10-15T10:51:38Z</time></trkpt>
<trkpt lat="53.0902040000" lon="-4.1529950000"><ele>621</ele><time>2016-10-15T10:51:40Z</time></trkpt>
<trkpt lat="53.0901970000" lon="-4.1529890000"><ele>621</ele></trkpt>
<trkpt lat="53.0901900000" lon="-4.1529830000"><ele>621</ele><time>2016-10-15T10:51:41Z</time></trkpt>
<trkpt lat="53.0901830000" lon="-4.1529770000"><ele>621</ele><time>2016-10-15T10:51:42Z</time></trkpt>
<trkpt lat="53.0901760000" lon="-4.1529700000"><ele>622</ele><time>2016-10-15T10:51:43Z</time></trkpt>
<trkpt lat="53.0901690000" lon="-4.1529630000"><ele>622</ele><time>2016-10-15T10:51:44Z</time></trkpt>
<trkpt lat="53.0901620000" lon="-4.1529560000"><ele>622</ele><time>2016-10-15T10:51:45Z</time></trkpt>
<trkpt lat="53.0901540000" lon="-4.1529490000"><ele>622</ele><time>2016-10-15T10:51:46Z</time></trkpt>
<trkpt lat="53.0901470000" lon="-4.1529410000"><ele>622</ele><time>2016-10-15T10:51:47Z</time></trkpt>
<trkpt lat="53.0901400000" lon="-4.1529330000"><ele>623</ele><time>2016-10-15T10:51:48Z</time></trkpt>
<trkpt lat="53.0901320000" lon="-4.1529250000"><ele>623</ele><time>2016-10-15T10:51:49Z</time></trkpt>
<trkpt lat="53.0901250000" lon="-4.1529170000"><ele>623</ele><time>2016-10-15T10:51:50Z</time></trkpt>
<trkpt lat="53.0901170000" lon="-4.1529080000"><ele>623</ele><time>2016-10-15T10:51:51Z</time></trkpt>
<trkpt lat="53.0901100000" lon="-4.1529000000"><ele>623</ele><time>2016-10-15T10:51:52Z</time></trkpt>
<trkpt lat="53.0901020000" lon="-4.1528910000"><ele>624</ele><time>2016-10-15T10:51:53Z</time></trkpt>
<trkpt lat="53.0899860000" lon="-4.1527550000"><ele>624</ele><time>2016-10-15T10:51:54Z</time></trkpt>
<trkpt lat="53.0899780000" lon="-4.1527450000"><ele>624</ele><time>2016-10-15T10:51:55Z</time></trkpt>
<trkpt lat="53.0899700000" lon="-4.1527350000"><ele>624</ele><time>2016-10-15T10:51:56Z</time></trkpt>
<trkpt lat="53.0899700000" lon="-4.1527350000"><ele>625</ele><time>2016-10-15T10:51:57Z</time></trkpt>
<trkpt lat="53.0899700000" lon="-4.1527350000"><ele>625</ele><time>2016-10-15T10:51:58Z</time></trkpt>
<trkpt lat="53.0899700000" lon="-4.1527340000"><ele>625</ele><time>2016-10-15T10:51:59Z</time></trkpt>
<trkpt lat="53.0899690000" lon="-4.1527340000"><ele>625</ele><time>2016-10-15T10:52:00Z</time></trkpt>
<trkpt lat="53.0899680000" lon="-4.1527330000"><ele>626</ele><time>2016-10-15T10:52:01Z</time></trkpt>
<trkpt lat="53.0899670000" lon="-4.1527310000"><ele>626</ele><time>2016-10-15T10:52:02Z</time></trkpt>
<trkpt lat="53.0899660000" lon="-4.1527290000"><ele>626</ele><time>2016-10-15T10:52:03Z</time></trkpt>
<trkpt lat="53.0899640000" lon="-4.1527270000"><ele>626</ele><time>2016-10-15T10:52:04Z</time></trkpt>
<trkpt lat="53.0899610000" lon="-4.1527240000"><ele>627</ele><time>2016-10-15T10:52:05Z</time></trkpt>
<trkpt lat="53.0899590000" lon="-4.1527210000"><ele>627</ele><time>2016-10-15T10:52:06Z</time></trkpt>
<trkpt lat="53.0899560000" lon="-4.1527180000"><ele>627</ele><time>2016-10-15T10:52:07Z</time></trkpt>
<trkpt lat="53.0899530000" lon="-4.1527140000"><ele>627</ele><time>2016-10-15T10:52:08Z</time></trkpt>
<trkpt lat="53.0899490000" lon="-4.1527090000"><ele>627</ele><time>2016-10-15T10:52:09Z</time></trkpt>
<trkpt lat="53.0899450000" lon="-4.1527040000"><ele>628</ele><time>2016-10-15T10:52:10Z</time></trkpt>
<trkpt lat="53.0899410000" lon="-4.1526980000"><ele>628</ele><time>2016-10-15T10:52:11Z</time></trkpt>
<trkpt lat="53.0899360000" lon="-4.1526920000"><ele>628</ele><time>2016-10-15T10:52:12Z</time></trkpt>
<trkpt lat="53.0899320000" lon="-4.1526860000"><ele>628</ele><time>2016-10-15T10:52:13Z</time></trkpt>
<trkpt lat="53.0899260000" lon="-4.1526790000"><ele>628</ele><time>2016-10-15T10:52:14Z</time></trkpt>
<trkpt lat="53.0899210000" lon="-4.1526720000"><ele>628</ele><time>2016-10-15T10:52:15Z</time></trkpt>
<trkpt lat="53.0899150000" lon="-4.1526640000"><ele>629</ele><time>2016-10-15T10:52:16Z</time></trkpt>
<trkpt lat="53.0899090000" lon="-4.1526570000"><ele>629</ele><time>2016-10-15T10:52:17Z</time></trkpt>
<trkpt lat="53.0899040000" lon="-4.1526490000"><ele>629</ele><time>2016-10-15T10:52:18Z</time></trkpt>
<trkpt lat="53.0898980000" lon="-4.1526410000"><ele>629</ele><time>2016-10-15T10:52:19Z</time></trkpt>
<trkpt lat="53.0898920000" lon="-4.1526330000"><ele>629</ele><time>2016-10-15T10:52:20Z</time></trkpt>
<trkpt lat="53.0898860000" lon="-4.1526250000"><ele>629</ele><time>2016-10-15T10:52:21Z</time></trkpt>
<trkpt lat="53.0898800000" lon="-4.1526160000"><ele>629</ele><time>2016-10-15T10:52:22Z</time></trkpt>
<trkpt lat="53.0898750000" lon="-4.1526080000"><ele>629</ele><time>2016-10-15T10:52:23Z</time></trkpt>
<trkpt lat="53.0898690000" lon="-4.1526000000"><ele>629</ele><time>2016-10-15T10:52:24Z</time></trkpt>
<trkpt lat="53.0898630000" lon="-4.1525920000"><ele>629</ele><time>2016-10-15T10:52:25Z</time></trkpt>
<trkpt lat="53.0898570000" lon="-4.1525830000"><ele>630</ele><time>2016-10-15T10:52:26Z</time></trkpt>
<trkpt lat="53.0898500000" lon="-4.1525750000"><ele>630</ele><time>2016-10-15T10:52:27Z</time></trkpt>
<trkpt lat="53.0898440000" lon="-4.1525670000"><ele>630</ele><time>2016-10-15T10:52:28Z</time></trkpt>
<trkpt lat="53.0898370000" lon="-4.1525580000"><ele>630</ele><time>2016-10-15T10:52:29Z</time></trkpt>
<trkpt lat="53.0898300000" lon="-4.1525500000"><ele>630</ele><time>2016-10-15T10:52:30Z</time></trkpt>
<trkpt lat="53.0898230000" lon="-4.1525420000"><ele>630</ele><time>2016-10-15T10:52:31Z</time></trkpt>
<trkpt lat="53.0898160000" lon="-4.1525330000"><ele>631</ele><time>2016-10-15T10:52:32Z</time></trkpt>
<trkpt lat="53.0898090000" lon="-4.1525250000"><ele>631</ele><time>2016-10-15T10:52:33Z</time></trkpt>
<trkpt lat="53.0898020000" lon="-4.1525160000"><ele>631</ele><time>2016-10-15T10:52:34Z</time></trkpt>
<trkpt lat="53.0897950000" lon="-4.1525070000"><ele>631</ele><time>2016-10-15T10:52:35Z</time></trkpt>
<trkpt lat="53.0897880000" lon="-4.1524980000"><ele>631</ele><time>2016-10-15T10:52:36Z</time></trkpt>
<trkpt lat="53.0897810000" lon="-4.1524900000"><ele>631</ele><time>2016-10-15T10:52:37Z</time></trkpt>
<trkpt lat="53.0897740000" lon="-4.1524810000"><ele>632</ele><time>2016-10-15T10:52:38Z</time></trkpt>
<trkpt lat="53.0897670000" lon="-4.1524720000"><ele>632</ele><time>2016-10-15T10:52:40Z</time></trkpt>
<trkpt lat="53.0897600000" lon="-4.1524630000"><ele>632</ele></trkpt>
<trkpt lat="53.0897530000" lon="-4.1524550000"><ele>632</ele><time>2016-10-15T10:52:41Z</time></trkpt>
<trkpt lat="53.0897460000" lon="-4.1524460000"><ele>632</ele><time>2016-10-15T10:52:42Z</time></trkpt>
<trkpt lat="53.0897390000" lon="-4.1524370000"><ele>633</ele><time>2016-10-15T10:52:43Z</time></trkpt>
<trkpt lat="53.0897320000" lon="-4.1524280000"><ele>633</ele><time>2016-10-15T10:52:44Z</time></trkpt>
<trkpt lat="53.0897250000" lon="-4.1524190000"><ele>633</ele><time>2016-10-15T10:52:45Z</time></trkpt>
<trkpt lat="53.0897180000" lon="-4.1524090000"><ele>633</ele><time>2016-10-15T10:52:46Z</time></trkpt>
<trkpt lat="53.0897110000" lon="-4.1524000000"><ele>633</ele><time>2016-10-15T10:52:47Z</time></trkpt>
<trkpt lat="53.0897040000" lon="-4.1523900000"><ele>633</ele><time>2016-10-15T10:52:48Z</time></trkpt>
<trkpt lat="53.0896970000" lon="-4.1523800000"><ele>633</ele><time>2016-10-15T10:52:49Z</time></trkpt>
<trkpt lat="53.0896900000" lon="-4.1523700000"><ele>634</ele><time>2016-10-15T10:52:50Z</time></trkpt>
<trkpt lat="53.0896830000" lon="-4.1523610000"><ele>634</ele><time>2016-10-15T10:52:51Z</time></trkpt>
<trkpt lat="53.0895720000" lon="-4.1522120000"><ele>634</ele><time>2016-10-15T10:52:52Z</time></trkpt>
<trkpt lat="53.0895640000" lon="-4.1522030000"><ele>634</ele><time>2016-10-15T10:52:53Z</time></trkpt>
<trkpt lat="53.0895550000" lon="-4.1521930000"><ele>634</ele><time>2016-10-15T10:52:54Z</time></trkpt>
<trkpt lat="53.0895460000" lon="-4.1521820000"><ele>634</ele><time>2016-10-15T10:52:55Z</time></trkpt>
<trkpt lat="53.0895460000" lon="-4.1521820000"><ele>635</ele><time>2016-10-15T10:52:56Z</time></trkpt>
<trkpt lat="53.0895460000" lon="-4.1521810000"><ele>635</ele><time>2016-10-15T10:52:57Z</time></trkpt>
<trkpt lat="53.0895460000" lon="-4.1521810000"><ele>635</ele><time>2016-10-15T10:52:58Z</time></trkpt>
<trkpt lat="53.0895450000" lon="-4.1521800000"><ele>635</ele><time>2016-10-15T10:52:59Z</time></trkpt>
<trkpt lat="53.0895440000" lon="-4.1521780000"><ele>635</ele><time>2016-10-15T10:53:00Z</time></trkpt>
<trkpt lat="53.0895430000" lon="-4.1521760000"><ele>635</ele><time>2016-10-15T10:53:01Z</time></trkpt>
<trkpt lat="53.0895420000" lon="-4.1521740000"><ele>635</ele><time>2016-10-15T10:53:02Z</time></trkpt>
<trkpt lat="53.0895400000" lon="-4.1521710000"><ele>635</ele><time>2016-10-15T10:53:03Z</time></trkpt>
<trkpt lat="53.0895380000" lon="-4.1521670000"><ele>636</ele><time>2016-10-15T10:53:04Z</time></trkpt>
<trkpt lat="53.0895360000" lon="-4.1521620000"><ele>636</ele><time>2016-10-15T10:53:05Z</time></trkpt>
<trkpt lat="53.0895330000" lon="-4.1521570000"><ele>636</ele><time>2016-10-15T10:53:06Z</time></trkpt>
<trkpt lat="53.0895300000" lon="-4.1521510000"><ele>636</ele><time>2016-10-15T10:53:07Z</time></trkpt>
<trkpt lat="53.0895270000" lon="-4.1521440000"><ele>636</ele><time>2016-10-15T10:53:08Z</time></trkpt>
<trkpt lat="53.0895230000" lon="-4.1521370000"><ele>636</ele><time>2016-10-15T10:53:09Z</time></trkpt>
<trkpt lat="53.0895190000" lon="-4.1521300000"><ele>636</ele><time>2016-10-15T10:53:10Z</time></trkpt>
<trkpt lat="53.0895150000" lon="-4.1521220000"><ele>636</ele><time>2016-10-15T10:53:11Z</time></trkpt>
<trkpt lat="53.0895100000" lon="-4.1521130000"><ele>636</ele><time>2016-10-15T10:53:12Z</time></trkpt>
<trkpt lat="53.0895050000" lon="-4.1521040000"><ele>636</ele><time>2016-10-15T10:53:13Z</time></trkpt>
<trkpt lat="53.0895000000" lon="-4.1520950000"><ele>636</ele><time>2016-10-15T10:53:14Z</time></trkpt>
<trkpt lat="53.0894950000" lon="-4.1520850000"><ele>636</ele><time>2016-10-15T10:53:15Z</time></trkpt>
<trkpt lat="53.0894900000" lon="-4.1520750000"><ele>636</ele><time>2016-10-15T10:53:16Z</time></trkpt>
<trkpt lat="53.0894850000" lon="-4.1520660000"><ele>636</ele><time>2016-10-15T10:53:17Z</time></trkpt>
<trkpt lat="53.0894810000" lon="-4.1520580000"><ele>636</ele><time>2016-10-15T10:53:18Z</time></trkpt>
<trkpt lat="53.0894750000" lon="-4.1520470000"><ele>636</ele><time>2016-10-15T10:53:19Z</time></trkpt>
<trkpt lat="53.0894690000" lon="-4.1520360000"><ele>636</ele><time>2016-10-15T10:53:20Z</time></trkpt>
<trkpt lat="53.0894630000" lon="-4.1520250000"><ele>636</ele><time>2016-10-15T10:53:21Z</time></trkpt>
<trkpt lat="53.0894570000" lon="-4.1520130000"><ele>637</ele><time>2016-10-15T10:53:22Z</time></trkpt>
<trkpt lat="53.0894510000" lon="-4.1520010000"><ele>637</ele><time>2016-10-15T10:53:23Z</time></trkpt>
<trkpt lat="53.0894450000" lon="-4.1519890000"><ele>637</ele><time>2016-10-15T10:53:24Z</time></trkpt>
<trkpt lat="53.0893490000" lon="-4.1518040000"><ele>637</ele><time>2016-10-15T10:53:25Z</time></trkpt>
<trkpt lat="53.0893430000" lon="-4.1517930000"><ele>637</ele><time>2016-10-15T10:53:26Z</time></trkpt>
<trkpt lat="53.0893350000" lon="-4.1517790000"><ele>637</ele><time>2016-10-15T10:53:27Z</time></trkpt>
<trkpt lat="53.0893350000" lon="-4.1517790000"><ele>637</ele><time>2016-10-15T10:53:28Z</time></trkpt>
<trkpt lat="53.0893350000" lon="-4.1517790000"><ele>637</ele><time>2016-10-15T10:53:29Z</time></trkpt>
<trkpt lat="53.0893340000" lon="-4.1517780000"><ele>637</ele><time>2016-10-15T10:53:30Z</time></trkpt>
<trkpt lat="53.0893340000" lon="-4.1517770000"><ele>637</ele><time>2016-10-15T10:53:31Z</time></trkpt>
<trkpt lat="53.0893330000" lon="-4.1517750000"><ele>637</ele><time>2016-10-15T10:53:32Z</time></trkpt>
<trkpt lat="53.0893330000" lon="-4.1517730000"><ele>637</ele><time>2016-10-15T10:53:33Z</time></trkpt>
<trkpt lat="53.0893320000" lon="-4.1517700000"><ele>637</ele><time>2016-10-15T10:53:34Z</time></trkpt>
<trkpt lat="53.0893300000" lon="-4.1517660000"><ele>637</ele><time>2016-10-15T10:53:35Z</time></trkpt>
<trkpt lat="53.0893290000" lon="-4.1517620000"><ele>637</ele><time>2016-10-15T10:53:36Z</time></trkpt>
<trkpt lat="53.0893270000" lon="-4.1517570000"><ele>637</ele><time>2016-10-15T10:53:37Z</time></trkpt>
<trkpt lat="53.0893250000" lon="-4.1517520000"><ele>637</ele><time>2016-10-15T10:53:38Z</time></trkpt>
<trkpt lat="53.0893230000" lon="-4.1517470000"><ele>637</ele><time>2016-10-15T10:53:40Z</time></trkpt>
<trkpt lat="53.0893210000" lon="-4.1517420000"><ele>637</ele></trkpt>
<trkpt lat="53.0893190000" lon="-4.1517360000"><ele>637</ele><time>2016-10-15T10:53:41Z</time></trkpt>
<trkpt lat="53.0893160000" lon="-4.1517310000"><ele>637</ele><time>2016-10-15T10:53:42Z</time></trkpt>
<trkpt lat="53.0893140000" lon="-4.1517250000"><ele>637</ele><time>2016-10-15T10:53:43Z</time></trkpt>
<trkpt lat="53.0893120000" lon="-4.1517200000"><ele>637</ele><time>2016-10-15T10:53:44Z</time></trkpt>
<trkpt lat="53.0893100000" lon="-4.1517150000"><ele>637</ele><time>2016-10-15T10:53:45Z</time></trkpt>
<trkpt lat="53.0893080000" lon="-4.1517100000"><ele>637</ele><time>2016-10-15T10:53:46Z</time></trkpt>
<trkpt lat="53.0893060000" lon="-4.1517050000"><ele>637</ele><time>2016-10-15T10:53:47Z</time></trkpt>
<trkpt lat="53.0893040000" lon="-4.1517000000"><ele>637</ele><time>2016-10-15T10:53:48Z</time></trkpt>
<trkpt lat="53.0893020000" lon="-4.1516960000"><ele>637</ele><time>2016-10-15T10:53:49Z</time></trkpt>
<trkpt lat="53.0893000000" lon="-4.1516910000"><ele>637</ele><time>2016-10-15T10:53:50Z</time></trkpt>
<trkpt lat="53.0892980000" lon="-4.1516860000"><ele>637</ele><time>2016-10-15T10:53:51Z</time></trkpt>
<trkpt lat="53.0892960000" lon="-4.1516810000"><ele>637</ele><time>2016-10-15T10:53:52Z</time></trkpt>
<trkpt lat="53.0892930000" lon="-4.1516760000"><ele>637</ele><time>2016-10-15T10:53:53Z</time></trkpt>
<trkpt lat="53.0892910000" lon="-4.1516710000"><ele>637</ele><time>2016-10-15T10:53:54Z</time></trkpt>
<trkpt lat="53.0892880000" lon="-4.1516660000"><ele>637</ele><time>2016-10-15T10:53:55Z</time></trkpt>
<trkpt lat="53.0892860000" lon="-4.1516620000"><ele>637</ele><time>2016-10-15T10:53:56Z</time></trkpt>
<trkpt lat="53.0892830000" lon="-4.1516570000"><ele>637</ele><time>2016-10-15T10:53:57Z</time></trkpt>
<trkpt lat="53.0892790000" lon="-4.1516510000"><ele>637</ele><time>2016-10-15T10:53:58Z</time></trkpt>
<trkpt lat="53.0892260000" lon="-4.1515570000"><ele>637</ele><time>2016-10-15T10:53:59Z</time></trkpt>
<trkpt lat="53.0892210000" lon="-4.1515390000"><ele>637</ele><time>2016-10-15T10:54:00Z</time></trkpt>
<trkpt lat="53.0892160000" lon="-4.1515210000"><ele>637</ele><time>2016-10-15T10:54:01Z</time></trkpt>
<trkpt lat="53.0892100000" lon="-4.1515040000"><ele>637</ele><time>2016-10-15T10:54:02Z</time></trkpt>
<trkpt lat="53.0892020000" lon="-4.1514890000"><ele>637</ele><time>2016-10-15T10:54:03Z</time></trkpt>
<trkpt lat="53.0891950000" lon="-4.1514750000"><ele>637</ele><time>2016-10-15T10:54:04Z</time></trkpt>
<trkpt lat="53.0891880000" lon="-4.1514600000"><ele>637</ele><time>2016-10-15T10:54:05Z</time></trkpt>
<trkpt lat="53.0891810000" lon="-4.1514440000"><ele>637</ele><time>2016-10-15T10:54:06Z</time></trkpt>
<trkpt lat="53.0891730000" lon="-4.1514250000"><ele>637</ele><time>2016-10-15T10:54:07Z</time></trkpt>
<trkpt lat="53.0891650000" lon="-4.1514060000"><ele>637</ele><time>2016-10-15T10:54:08Z</time></trkpt>
<trkpt lat="53.0891570000" lon="-4.1513870000"><ele>637</ele><time>2016-10-15T10:54:09Z</time></trkpt>
<trkpt lat="53.0891510000" lon="-4.1513700000"><ele>637</ele><time>2016-10-15T10:54:10Z</time></trkpt>
<trkpt lat="53.0891450000" lon="-4.1513540000"><ele>637</ele><time>2016-10-15T10:54:11Z</time></trkpt>
<trkpt lat="53.0891370000" lon="-4.1513380000"><ele>637</ele><time>2016-10-15T10:54:12Z</time></trkpt>
<trkpt lat="53.0891310000" lon="-4.1513220000"><ele>637</ele><time>2016-10-15T10:54:13Z</time></trkpt>
<trkpt lat="53.0891260000" lon="-4.1513060000"><ele>637</ele><time>2016-10-15T10:54:14Z</time></trkpt>
<trkpt lat="53.0891260000" lon="-4.1513060000"><ele>637</ele><time>2016-10-15T10:54:15Z</time></trkpt>
<trkpt lat="53.0891250000" lon="-4.1513050000"><ele>637</ele><time>2016-10-15T10:54:16Z</time></trkpt>
<trkpt lat="53.0891060000" lon="-4.1512570000"><ele>637</ele><time>2016-10-15T10:54:17Z</time></trkpt>
<trkpt lat="53.0890990000" lon="-4.1512410000"><ele>637</ele><time>2016-10-15T10:54:18Z</time></trkpt>
<trkpt lat="53.0890920000" lon="-4.1512250000"><ele>637</ele><time>2016-10-15T10:54:19Z</time></trkpt>
<trkpt lat="53.0890850000" lon="-4.1512080000"><ele>637</ele><time>2016-10-15T10:54:20Z</time></trkpt>
<trkpt lat="53.0890780000" lon="-4.1511930000"><ele>637</ele><time>2016-10-15T10:54:21Z</time></trkpt>
<trkpt lat="53.0890720000" lon="-4.1511800000"><ele>637</ele><time>2016-10-15T10:54:22Z</time></trkpt>
<trkpt lat="53.0890640000" lon="-4.1511660000"><ele>636</ele><time>2016-10-15T10:54:23Z</time></trkpt>
<trkpt lat="53.0890570000" lon="-4.1511510000"><ele>636</ele><time>2016-10-15T10:54:24Z</time></trkpt>
<trkpt lat="53.0890480000" lon="-4.1511340000"><ele>636</ele><time>2016-10-15T10:54:25Z</time></trkpt>
<trkpt lat="53.0890390000" lon="-4.1511180000"><ele>636</ele><time>2016-10-15T10:54:26Z</time></trkpt>
<trkpt lat="53.0890320000" lon="-4.1511030000"><ele>636</ele><time>2016-10-15T10:54:27Z</time></trkpt>
<trkpt lat="53.0890240000" lon="-4.1510860000"><ele>636</ele><time>2016-10-15T10:54:28Z</time></trkpt>
<trkpt lat="53.0890170000" lon="-4.1510690000"><ele>636</ele><time>2016-10-15T10:54:29Z</time></trkpt>
<trkpt lat="53.0890090000" lon="-4.1510540000"><ele>636</ele><time>2016-10-15T10:54:30Z</time></trkpt>
<trkpt lat="53.0890010000" lon="-4.1510390000"><ele>636</ele><time>2016-10-15T10:54:31Z</time></trkpt>
<trkpt lat="53.0889930000" lon="-4.1510240000"><ele>636</ele><time>2016-10-15T10:54:32Z</time></trkpt>
<trkpt lat="53.0889850000" lon="-4.1510080000"><ele>636</ele><time>2016-10-15T10:54:33Z</time></trkpt>
<trkpt lat="53.0889780000" lon="-4.1509930000"><ele>636</ele><time>2016-10-15T10:54:34Z</time></trkpt>
<trkpt lat="53.0889690000" lon="-4.1509800000"><ele>636</ele><time>2016-10-15T10:54:35Z</time></trkpt>
<trkpt lat="53.0889600000" lon="-4.1509660000"><ele>636</ele><time>2016-10-15T10:54:36Z</time></trkpt>
<trkpt lat="53.0889500000" lon="-4.1509520000"><ele>636</ele><time>2016-10-15T10:54:37Z</time></trkpt>
<trkpt lat="53.0889400000" lon="-4.1509350000"><ele>636</ele><time>2016-10-15T10:54:38Z</time></trkpt>
<trkpt lat="53.0889300000" lon="-4.1509160000"><ele>636</ele><time>2016-10-15T10:54:40Z</time></trkpt>
<trkpt lat="53.0889220000" lon="-4.1508980000"><ele>636</ele></trkpt>
<trkpt lat="53.0889140000" lon="-4.1508810000"><ele>636</ele><time>2016-10-15T10:54:41Z</time></trkpt>
<trkpt lat="53.0889060000" lon="-4.1508660000"><ele>636</ele><time>2016-10-15T10:54:42Z</time></trkpt>
<trkpt lat="53.0888970000" lon="-4.1508490000"><ele>636</ele><time>2016-10-15T10:54:43Z</time></trkpt>
<trkpt lat="53.0888890000" lon="-4.1508320000"><ele>636</ele><time>2016-10-15T10:54:44Z</time></trkpt>
<trkpt lat="53.0888810000" lon="-4.1508130000"><ele>636</ele><time>2016-10-15T10:54:45Z</time></trkpt>
<trkpt lat="53.0888720000" lon="-4.1507960000"><ele>636</ele><time>2016-10-15T10:54:46Z</time></trkpt>
<trkpt lat="53.0888630000" lon="-4.1507800000"><ele>636</ele><time>2016-10-15T10:54:47Z</time></trkpt>
<trkpt lat="53.0888540000" lon="-4.1507650000"><ele>636</ele><time>2016-10-15T10:54:48Z</time></trkpt>
<trkpt lat="53.0888460000" lon="-4.1507490000"><ele>636</ele><time>2016-10-15T10:54:49Z</time></trkpt>
<trkpt lat="53.0888380000" lon="-4.1507320000"><ele>636</ele><time>2016-10-15T10:54:50Z</time></trkpt>
<trkpt lat="53.0888290000" lon="-4.1507140000"><ele>636</ele><time>2016-10-15T10:54:51Z</time></trkpt>
<trkpt lat="53.0888190000" lon="-4.1506980000"><ele>636</ele><time>2016-10-15T10:54:52Z</time></trkpt>
<trkpt lat="53.0888110000" lon="-4.1506830000"><ele>636</ele><time>2016-10-15T10:54:53Z</time></trkpt>
<trkpt lat="53.0888020000" lon="-4.1506680000"><ele>636</ele><time>2016-10-15T10:54:54Z</time></trkpt>
<trkpt lat="53.0887930000" lon="-4.1506540000"><ele>636</ele><time>2016-10-15T10:54:55Z</time></trkpt>
<trkpt lat="53.0887840000" lon="-4.1506390000"><ele>636</ele><time>2016-10-15T10:54:56Z</time></trkpt>
<trkpt lat="53.0887770000" lon="-4.1506240000"><ele>636</ele><time>2016-10-15T10:54:57Z</time></trkpt>
<trkpt lat="53.0887680000" lon="-4.1506070000"><ele>635</ele><time>2016-10-15T10:54:58Z</time></trkpt>
<trkpt lat="53.0887580000" lon="-4.1505920000"><ele>635</ele><time>2016-10-15T10:54:59Z</time></trkpt>
<trkpt lat="53.0887510000" lon="-4.1505790000"><ele>635</ele><time>2016-10-15T10:55:00Z</time></trkpt>
<trkpt lat="53.0887460000" lon="-4.1505650000"><ele>635</ele><time>2016-10-15T10:55:01Z</time></trkpt>
<trkpt lat="53.0887460000" lon="-4.1505650000"><ele>635</ele><time>2016-10-15T10:55:02Z</time></trkpt>
<trkpt lat="53.0887450000" lon="-4.1505650000"><ele>635</ele><time>2016-10-15T10:55:03Z</time></trkpt>
<trkpt lat="53.0887450000" lon="-4.1505640000"><ele>635</ele><time>2016-10-15T10:55:04Z</time></trkpt>
<trkpt lat="53.0887450000" lon="-4.1505630000"><ele>635</ele><time>2016-10-15T10:55:05Z</time></trkpt>
<trkpt lat="53.0887440000" lon="-4.1505610000"><ele>635</ele><time>2016-10-15T10:55:06Z</time></trkpt>
<trkpt lat="53.0887430000" lon="-4.1505600000"><ele>635</ele><time>2016-10-15T10:55:07Z</time></trkpt>
<trkpt lat="53.0887420000" lon="-4.1505580000"><ele>634</ele><time>2016-10-15T10:55:08Z</time></trkpt>
<trkpt lat="53.0887410000" lon="-4.1505560000"><ele>634</ele><time>2016-10-15T10:55:09Z</time></trkpt>
<trkpt lat="53.0887400000" lon="-4.1505540000"><ele>634</ele><time>2016-10-15T10:55:10Z</time></trkpt>
<trkpt lat="53.0887390000" lon="-4.1505520000"><ele>634</ele><time>2016-10-15T10:55:11Z</time></trkpt>
<trkpt lat="53.0887380000" lon="-4.1505500000"><ele>634</ele><time>2016-10-15T10:55:12Z</time></trkpt>
<trkpt lat="53.0887370000" lon="-4.1505470000"><ele>634</ele><time>2016-10-15T10:55:13Z</time></trkpt>
<trkpt lat="53.0887350000" lon="-4.1505440000"><ele>634</ele><time>2016-10-15T10:55:14Z</time></trkpt>
<trkpt lat="53.0887340000" lon="-4.1505410000"><ele>634</ele><time>2016-10-15T10:55:15Z</time></trkpt>
<trkpt lat="53.0887330000" lon="-4.1505370000"><ele>633</ele><time>2016-10-15T10:55:16Z</time></trkpt>
<trkpt lat="53.0887310000" lon="-4.1505320000"><ele>633</ele><time>2016-10-15T10:55:17Z</time></trkpt>
<trkpt lat="53.0887290000" lon="-4.1505270000"><ele>633</ele><time>2016-10-15T10:55:18Z</time></trkpt>
<trkpt lat="53.0887270000" lon="-4.1505200000"><ele>633</ele><time>2016-10-15T10:55:19Z</time></trkpt>
<trkpt lat="53.0887240000" lon="-4.1505140000"><ele>633</ele><time>2016-10-15T10:55:20Z</time></trkpt>
<trkpt lat="53.0887210000" lon="-4.1505070000"><ele>632</ele><time>2016-10-15T10:55:21Z</time></trkpt>
<trkpt lat="53.0887180000" lon="-4.1505000000"><ele>632</ele><time>2016-10-15T10:55:22Z</time></trkpt>
<trkpt lat="53.0887150000" lon="-4.1504920000"><ele>632</ele><time>2016-10-15T10:55:23Z</time></trkpt>
<trkpt lat="53.0887120000" lon="-4.1504850000"><ele>632</ele><time>2016-10-15T10:55:24Z</time></trkpt>
<trkpt lat="53.0887090000" lon="-4.1504770000"><ele>632</ele><time>2016-10-15T10:55:25Z</time></trkpt>
<trkpt lat="53.0887060000" lon="-4.1504690000"><ele>631</ele><time>2016-10-15T10:55:26Z</time></trkpt>
<trkpt lat="53.0887010000" lon="-4.1504590000"><ele>631</ele><time>2016-10-15T10:55:27Z</time></trkpt>
<trkpt lat="53.0886970000" lon="-4.1504490000"><ele>631</ele><time>2016-10-15T10:55:28Z</time></trkpt>
<trkpt lat="53.0886920000" lon="-4.1504390000"><ele>631</ele><time>2016-10-15T10:55:29Z</time></trkpt>
<trkpt lat="53.0886880000" lon="-4.1504280000"><ele>631</ele><time>2016-10-15T10:55:30Z</time></trkpt>
<trkpt lat="53.0886830000" lon="-4.1504180000"><ele>630</ele><time>2016-10-15T10:55:31Z</time></trkpt>
<trkpt lat="53.0886770000" lon="-4.1504080000"><ele>630</ele><time>2016-10-15T10:55:32Z</time></trkpt>
<trkpt lat="53.0886720000" lon="-4.1503980000"><ele>630</ele><time>2016-10-15T10:55:33Z</time></trkpt>
<trkpt lat="53.0886670000" lon="-4.1503890000"><ele>630</ele><time>2016-10-15T10:55:34Z</time></trkpt>
<trkpt lat="53.0886620000" lon="-4.1503810000"><ele>629</ele><time>2016-10-15T10:55:35Z</time></trkpt>
<trkpt lat="53.0886570000" lon="-4.1503730000"><ele>629</ele><time>2016-10-15T10:55:36Z</time></trkpt>
<trkpt lat="53.0886520000" lon="-4.1503660000"><ele>629</ele><time>2016-10-15T10:55:37Z</time></trkpt>
<trkpt lat="53.0886490000" lon="-4.1503600000"><ele>629</ele><time>2016-10-15T10:55:38Z</time></trkpt>
<trkpt lat="53.0886450000" lon="-4.1503550000"><ele>629</ele><time>2016-10-15T10:55:40Z</time></trkpt>
<trkpt lat="53.0886420000" lon="-4.1503500000"><ele>629</ele></trkpt>
<trkpt lat="53.0886390000" lon="-4.1503440000"><ele>629</ele><time>2016-10-15T10:55:41Z</time></trkpt>
<trkpt lat="53.0886360000" lon="-4.1503380000"><ele>629</ele><time>2016-10-15T10:55:42Z</time></trkpt>
<trkpt lat="53.0886330000" lon="-4.1503330000"><ele>629</ele><time>2016-10-15T10:55:43Z</time></trkpt>
<trkpt lat="53.0886300000" lon="-4.1503280000"><ele>629</ele><time>2016-10-15T10:55:44Z</time></trkpt>
<trkpt lat="53.0886280000" lon="-4.1503230000"><ele>629</ele><time>2016-10-15T10:55:45Z</time></trkpt>
<trkpt lat="53.0886260000" lon="-4.1503190000"><ele>629</ele><time>2016-10-15T10:55:46Z</time></trkpt>
<trkpt lat="53.0886240000" lon="-4.1503150000"><ele>629</ele><time>2016-10-15T10:55:47Z</time></trkpt>
<trkpt lat="53.0886210000" lon="-4.1503110000"><ele>629</ele><time>2016-10-15T10:55:48Z</time></trkpt>
<trkpt lat="53.0886180000" lon="-4.1503060000"><ele>629</ele><time>2016-10-15T10:55:49Z</time></trkpt>
<trkpt lat="53.0886150000" lon="-4.1503010000"><ele>629</ele><time>2016-10-15T10:55:50Z</time></trkpt>
<trkpt lat="53.0885510000" lon="-4.1502010000"><ele>628</ele><time>2016-10-15T10:55:51Z</time></trkpt>
<trkpt lat="53.0885400000" lon="-4.1501940000"><ele>628</ele><time>2016-10-15T10:55:52Z</time></trkpt>
<trkpt lat="53.0885300000" lon="-4.1501880000"><ele>628</ele><time>2016-10-15T10:55:53Z</time></trkpt>
<trkpt lat="53.0885210000" lon="-4.1501780000"><ele>628</ele><time>2016-10-15T10:55:54Z</time></trkpt>
<trkpt lat="53.0885150000" lon="-4.1501670000"><ele>628</ele><time>2016-10-15T10:55:55Z</time></trkpt>
<trkpt lat="53.0885150000" lon="-4.1501660000"><ele>627</ele><time>2016-10-15T10:55:56Z</time></trkpt>
<trkpt lat="53.0885150000" lon="-4.1501660000"><ele>627</ele><time>2016-10-15T10:55:57Z</time></trkpt>
<trkpt lat="53.0885140000" lon="-4.1501660000"><ele>627</ele><time>2016-10-15T10:55:58Z</time></trkpt>
<trkpt lat="53.0885140000" lon="-4.1501650000"><ele>627</ele><time>2016-10-15T10:55:59Z</time></trkpt>
<trkpt lat="53.0885130000" lon="-4.1501630000"><ele>626</ele><time>2016-10-15T10:56:00Z</time></trkpt>
<trkpt lat="53.0885130000" lon="-4.1501620000"><ele>626</ele><time>2016-10-15T10:56:01Z</time></trkpt>
<trkpt lat="53.0885110000" lon="-4.1501590000"><ele>626</ele><time>2016-10-15T10:56:02Z</time></trkpt>
<trkpt lat="53.0885100000" lon="-4.1501560000"><ele>626</ele><time>2016-10-15T10:56:03Z</time></trkpt>
<trkpt lat="53.0885080000" lon="-4.1501530000"><ele>625</ele><time>2016-10-15T10:56:04Z</time></trkpt>
<trkpt lat="53.0885060000" lon="-4.1501490000"><ele>625</ele><time>2016-10-15T10:56:05Z</time></trkpt>
<trkpt lat="53.0885030000" lon="-4.1501450000"><ele>625</ele><time>2016-10-15T10:56:06Z</time></trkpt>
<trkpt lat="53.0885010000" lon="-4.1501400000"><ele>625</ele><time>2016-10-15T10:56:07Z</time></trkpt>
<trkpt lat="53.0884970000" lon="-4.1501340000"><ele>624</ele><time>2016-10-15T10:56:08Z</time></trkpt>
<trkpt lat="53.0884940000" lon="-4.1501280000"><ele>624</ele><time>2016-10-15T10:56:09Z</time></trkpt>
<trkpt lat="53.0884900000" lon="-4.1501210000"><ele>624</ele><time>2016-10-15T10:56:10Z</time></trkpt>
<trkpt lat="53.0884860000" lon="-4.1501140000"><ele>624</ele><time>2016-10-15T10:56:11Z</time></trkpt>
<trkpt lat="53.0884820000" lon="-4.1501070000"><ele>623</ele><time>2016-10-15T10:56:12Z</time></trkpt>
<trkpt lat="53.0884770000" lon="-4.1500990000"><ele>623</ele><time>2016-10-15T10:56:13Z</time></trkpt>
<trkpt lat="53.0884720000" lon="-4.1500910000"><ele>623</ele><time>2016-10-15T10:56:14Z</time></trkpt>
<trkpt lat="53.0884670000" lon="-4.1500830000"><ele>622</ele><time>2016-10-15T10:56:15Z</time></trkpt>
<trkpt lat="53.0884620000" lon="-4.1500740000"><ele>622</ele><time>2016-10-15T10:56:16Z</time></trkpt>
<trkpt lat="53.0884570000" lon="-4.1500650000"><ele>622</ele><time>2016-10-15T10:56:17Z</time></trkpt>
<trkpt lat="53.0884520000" lon="-4.1500560000"><ele>621</ele><time>2016-10-15T10:56:18Z</time></trkpt>
<trkpt lat="53.0884470000" lon="-4.1500460000"><ele>621</ele><time>2016-10-15T10:56:19Z</time></trkpt>
<trkpt lat="53.0884410000" lon="-4.1500370000"><ele>621</ele><time>2016-10-15T10:56:20Z</time></trkpt>
<trkpt lat="53.0884350000" lon="-4.1500270000"><ele>621</ele><time>2016-10-15T10:56:21Z</time></trkpt>
<trkpt lat="53.0884300000" lon="-4.1500170000"><ele>620</ele><time>2016-10-15T10:56:22Z</time></trkpt>
<trkpt lat="53.0884240000" lon="-4.1500060000"><ele>620</ele><time>2016-10-15T10:56:23Z</time></trkpt>
<trkpt lat="53.0884190000" lon="-4.1499960000"><ele>620</ele><time>2016-10-15T10:56:24Z</time></trkpt>
<trkpt lat="53.0884130000" lon="-4.1499850000"><ele>619</ele><time>2016-10-15T10:56:25Z</time></trkpt>
<trkpt lat="53.0884070000" lon="-4.1499730000"><ele>619</ele><time>2016-10-15T10:56:26Z</time></trkpt>
<trkpt lat="53.0884020000" lon="-4.1499620000"><ele>619</ele><time>2016-10-15T10:56:27Z</time></trkpt>
<trkpt lat="53.0883970000" lon="-4.1499500000"><ele>619</ele><time>2016-10-15T10:56:28Z</time></trkpt>
<trkpt lat="53.0883910000" lon="-4.1499380000"><ele>618</ele><time>2016-10-15T10:56:29Z</time></trkpt>
<trkpt lat="53.0883870000" lon="-4.1499260000"><ele>618</ele><time>2016-10-15T10:56:30Z</time></trkpt>
<trkpt lat="53.0883820000" lon="-4.1499140000"><ele>618</ele><time>2016-10-15T10:56:31Z</time></trkpt>
<trkpt lat="53.0883770000" lon="-4.1499010000"><ele>618</ele><time>2016-10-15T10:56:32Z</time></trkpt>
<trkpt lat="53.0883730000" lon="-4.1498890000"><ele>617</ele><time>2016-10-15T10:56:33Z</time></trkpt>
<trkpt lat="53.0883680000" lon="-4.1498760000"><ele>617</ele><time>2016-10-15T10:56:34Z</time></trkpt>
<trkpt lat="53.0883640000" lon="-4.1498630000"><ele>617</ele><time>2016-10-15T10:56:35Z</time></trkpt>
<trkpt lat="53.0883590000" lon="-4.1498510000"><ele>617</ele><time>2016-10-15T10:56:36Z</time></trkpt>
<trkpt lat="53.0883550000" lon="-4.1498390000"><ele>616</ele><time>2016-10-15T10:56:37Z</time></trkpt>
<trkpt lat="53.0883500000" lon="-4.1498260000"><ele>616</ele><time>2016-10-15T10:56:38Z</time></trkpt>
<trkpt lat="53.0883460000" lon="-4.1498130000"><ele>616</ele><time>2016-10-15T10:56:40Z</time></trkpt>
<trkpt lat="53.0883410000" lon="-4.1498010000"><ele>616</ele></trkpt>
<trkpt lat="53.0883370000" lon="-4.1497890000"><ele>615</ele><time>2016-10-15T10:56:41Z</time></trkpt>
<trkpt lat="53.0883330000" lon="-4.1497760000"><ele>615</ele><time>2016-10-15T10:56:42Z</time></trkpt>
<trkpt lat="53.0883290000" lon="-4.1497640000"><ele>615</ele><time>2016-10-15T10:56:43Z</time></trkpt>
<trkpt lat="53.0883260000" lon="-4.1497510000"><ele>615</ele><time>2016-10-15T10:56:44Z</time></trkpt>
<trkpt lat="53.0883220000" lon="-4.1497380000"><ele>614</ele><time>2016-10-15T10:56:45Z</time></trkpt>
<trkpt lat="53.0883180000" lon="-4.1497250000"><ele>614</ele><time>2016-10-15T10:56:46Z</time></trkpt>
<trkpt lat="53.0883140000" lon="-4.1497120000"><ele>614</ele><time>2016-10-15T10:56:47Z</time></trkpt>
<trkpt lat="53.0883100000" lon="-4.1496980000"><ele>614</ele><time>2016-10-15T10:56:48Z</time></trkpt>
<trkpt lat="53.0883060000" lon="-4.1496840000"><ele>613</ele><time>2016-10-15T10:56:49Z</time></trkpt>
<trkpt lat="53.0883020000" lon="-4.1496700000"><ele>613</ele><time>2016-10-15T10:56:50Z</time></trkpt>
<trkpt lat="53.0882980000" lon="-4.1496550000"><ele>613</ele><time>2016-10-15T10:56:51Z</time></trkpt>
<trkpt lat="53.0882300000" lon="-4.1494050000"><ele>613</ele><time>2016-10-15T10:56:52Z</time></trkpt>
<trkpt lat="53.0882220000" lon="-4.1493880000"><ele>612</ele><time>2016-10-15T10:56:53Z</time></trkpt>
<trkpt lat="53.0882140000" lon="-4.1493720000"><ele>612</ele><time>2016-10-15T10:56:54Z</time></trkpt>
<trkpt lat="53.0882090000" lon="-4.1493550000"><ele>612</ele><time>2016-10-15T10:56:55Z</time></trkpt>
<trkpt lat="53.0882060000" lon="-4.1493400000"><ele>612</ele><time>2016-10-15T10:56:56Z</time></trkpt>
<trkpt lat="53.0882060000" lon="-4.1493400000"><ele>612</ele><time>2016-10-15T10:56:57Z</time></trkpt>
<trkpt lat="53.0881970000" lon="-4.1493000000"><ele>611</ele><time>2016-10-15T10:56:58Z</time></trkpt>
<trkpt lat="53.0881910000" lon="-4.1492810000"><ele>611</ele><time>2016-10-15T10:56:59Z</time></trkpt>
<trkpt lat="53.0881840000" lon="-4.1492600000"><ele>611</ele><time>2016-10-15T10:57:00Z</time></trkpt>
<trkpt lat="53.0881770000" lon="-4.1492400000"><ele>611</ele><time>2016-10-15T10:57:01Z</time></trkpt>
<trkpt lat="53.0881680000" lon="-4.1492190000"><ele>610</ele><time>2016-10-15T10:57:02Z</time></trkpt>
<trkpt lat="53.0881580000" lon="-4.1492000000"><ele>610</ele><time>2016-10-15T10:57:03Z</time></trkpt>
<trkpt lat="53.0881480000" lon="-4.1491860000"><ele>610</ele><time>2016-10-15T10:57:04Z</time></trkpt>
<trkpt lat="53.0881370000" lon="-4.1491750000"><ele>610</ele><time>2016-10-15T10:57:05Z</time></trkpt>
<trkpt lat="53.0881270000" lon="-4.1491620000"><ele>610</ele><time>2016-10-15T10:57:06Z</time></trkpt>
<trkpt lat="53.0881190000" lon="-4.1491470000"><ele>609</ele><time>2016-10-15T10:57:07Z</time></trkpt>
<trkpt lat="53.0881140000" lon="-4.1491320000"><ele>609</ele><time>2016-10-15T10:57:08Z</time></trkpt>
<trkpt lat="53.0881140000" lon="-4.1491320000"><ele>609</ele><time>2016-10-15T10:57:09Z</time></trkpt>
<trkpt lat="53.0881130000" lon="-4.1491310000"><ele>609</ele><time>2016-10-15T10:57:10Z</time></trkpt>
<trkpt lat="53.0881130000" lon="-4.1491310000"><ele>608</ele><time>2016-10-15T10:57:11Z</time></trkpt>
<trkpt lat="53.0881130000" lon="-4.1491290000"><ele>608</ele><time>2016-10-15T10:57:12Z</time></trkpt>
<trkpt lat="53.0881130000" lon="-4.1491280000"><ele>608</ele><time>2016-10-15T10:57:13Z</time></trkpt>
<trkpt lat="53.0881120000" lon="-4.1491250000"><ele>607</ele><time>2016-10-15T10:57:14Z</time></trkpt>
<trkpt lat="53.0881110000" lon="-4.1491220000"><ele>607</ele><time>2016-10-15T10:57:15Z</time></trkpt>
<trkpt lat="53.0881100000" lon="-4.1491180000"><ele>607</ele><time>2016-10-15T10:57:16Z</time></trkpt>
<trkpt lat="53.0881090000" lon="-4.1491130000"><ele>606</ele><time>2016-10-15T10:57:17Z</time></trkpt>
<trkpt lat="53.0880610000" lon="-4.1489660000"><ele>606</ele><time>2016-10-15T10:57:18Z</time></trkpt>
<trkpt lat="53.0880540000" lon="-4.1489480000"><ele>606</ele><time>2016-10-15T10:57:19Z</time></trkpt>
<trkpt lat="53.0880490000" lon="-4.1489330000"><ele>605</ele><time>2016-10-15T10:57:20Z</time></trkpt>
<trkpt lat="53.0880490000" lon="-4.1489330000"><ele>605</ele><time>2016-10-15T10:57:21Z</time></trkpt>
<trkpt lat="53.0880490000" lon="-4.1489320000"><ele>605</ele><time>2016-10-15T10:57:22Z</time></trkpt>
<trkpt lat="53.0880490000" lon="-4.1489320000"><ele>604</ele><time>2016-10-15T10:57:23Z</time></trkpt>
<trkpt lat="53.0880480000" lon="-4.1489310000"><ele>604</ele><time>2016-10-15T10:57:24Z</time></trkpt>
<trkpt lat="53.0880480000" lon="-4.1489290000"><ele>604</ele><time>2016-10-15T10:57:25Z</time></trkpt>
<trkpt lat="53.0880470000" lon="-4.1489270000"><ele>603</ele><time>2016-10-15T10:57:26Z</time></trkpt>
<trkpt lat="53.0880460000" lon="-4.1489240000"><ele>603</ele><time>2016-10-15T10:57:27Z</time></trkpt>
<trkpt lat="53.0880440000" lon="-4.1489210000"><ele>603</ele><time>2016-10-15T10:57:28Z</time></trkpt>
<trkpt lat="53.0880420000" lon="-4.1489170000"><ele>602</ele><time>2016-10-15T10:57:29Z</time></trkpt>
<trkpt lat="53.0880400000" lon="-4.1489130000"><ele>602</ele><time>2016-10-15T10:57:30Z</time></trkpt>
<trkpt lat="53.0880380000" lon="-4.1489070000"><ele>602</ele><time>2016-10-15T10:57:31Z</time></trkpt>
<trkpt lat="53.0880350000" lon="-4.1489010000"><ele>601</ele><time>2016-10-15T10:57:32Z</time></trkpt>
<trkpt lat="53.0880320000" lon="-4.1488950000"><ele>601</ele><time>2016-10-15T10:57:33Z</time></trkpt>
<trkpt lat="53.0880280000" lon="-4.1488880000"><ele>601</ele><time>2016-10-15T10:57:34Z</time></trkpt>
<trkpt lat="53.0880240000" lon="-4.1488800000"><ele>601</ele><time>2016-10-15T10:57:35Z</time></trkpt>
<trkpt lat="53.0880200000" lon="-4.1488720000"><ele>601</ele><time>2016-10-15T10:57:36Z</time></trkpt>
<trkpt lat="53.0880160000" lon="-4.1488630000"><ele>600</ele><time>2016-10-15T10:57:37Z</time></trkpt>
<trkpt lat="53.0880110000" lon="-4.1488540000"><ele>600</ele><time>2016-10-15T10:57:38Z</time></trkpt>
<trkpt lat="53.0880060000" lon="-4.1488440000"><ele>600</ele><time>2016-10-15T10:57:40Z</time></trkpt>
<trkpt lat="53.0880010000" lon="-4.1488340000"><ele>600</ele></trkpt>
<trkpt lat="53.0879960000" lon="-4.1488240000"><ele>600</ele><time>2016-10-15T10:57:41Z</time></trkpt>
<trkpt lat="53.0879900000" lon="-4.1488140000"><ele>599</ele><time>2016-10-15T10:57:42Z</time></trkpt>
<trkpt lat="53.0879850000" lon="-4.1488030000"><ele>599</ele><time>2016-10-15T10:57:43Z</time></trkpt>
<trkpt lat="53.0879790000" lon="-4.1487920000"><ele>599</ele><time>2016-10-15T10:57:44Z</time></trkpt>
<trkpt lat="53.0879730000" lon="-4.1487800000"><ele>599</ele><time>2016-10-15T10:57:45Z</time></trkpt>
<trkpt lat="53.0879670000" lon="-4.1487680000"><ele>599</ele><time>2016-10-15T10:57:46Z</time></trkpt>
<trkpt lat="53.0879600000" lon="-4.1487560000"><ele>598</ele><time>2016-10-15T10:57:47Z</time></trkpt>
<trkpt lat="53.0878520000" lon="-4.1485540000"><ele>598</ele><time>2016-10-15T10:57:48Z</time></trkpt>
<trkpt lat="53.0878450000" lon="-4.1485390000"><ele>598</ele><time>2016-10-15T10:57:49Z</time></trkpt>
<trkpt lat="53.0878370000" lon="-4.1485270000"><ele>598</ele><time>2016-10-15T10:57:50Z</time></trkpt>
<trkpt lat="53.0878290000" lon="-4.1485130000"><ele>598</ele><time>2016-10-15T10:57:51Z</time></trkpt>
<trkpt lat="53.0878200000" lon="-4.1485000000"><ele>597</ele><time>2016-10-15T10:57:52Z</time></trkpt>
<trkpt lat="53.0878110000" lon="-4.1484850000"><ele>597</ele><time>2016-10-15T10:57:53Z</time></trkpt>
<trkpt lat="53.0878030000" lon="-4.1484710000"><ele>597</ele><time>2016-10-15T10:57:54Z</time></trkpt>
<trkpt lat="53.0877960000" lon="-4.1484560000"><ele>597</ele><time>2016-10-15T10:57:55Z</time></trkpt>
<trkpt lat="53.0877960000" lon="-4.1484560000"><ele>597</ele><time>2016-10-15T10:57:56Z</time></trkpt>
<trkpt lat="53.0877960000" lon="-4.1484550000"><ele>597</ele><time>2016-10-15T10:57:57Z</time></trkpt>
<trkpt lat="53.0877950000" lon="-4.1484550000"><ele>596</ele><time>2016-10-15T10:57:58Z</time></trkpt>
<trkpt lat="53.0877950000" lon="-4.1484530000"><ele>596</ele><time>2016-10-15T10:57:59Z</time></trkpt>
<trkpt lat="53.0877940000" lon="-4.1484510000"><ele>596</ele><time>2016-10-15T10:58:00Z</time></trkpt>
<trkpt lat="53.0877930000" lon="-4.1484490000"><ele>596</ele><time>2016-10-15T10:58:01Z</time></trkpt>
<trkpt lat="53.0877920000" lon="-4.1484460000"><ele>596</ele><time>2016-10-15T10:58:02Z</time></trkpt>
<trkpt lat="53.0877900000" lon="-4.1484420000"><ele>595</ele><time>2016-10-15T10:58:03Z</time></trkpt>
<trkpt lat="53.0877880000" lon="-4.1484370000"><ele>595</ele><time>2016-10-15T10:58:04Z</time></trkpt>
<trkpt lat="53.0877300000" lon="-4.1483090000"><ele>595</ele><time>2016-10-15T10:58:05Z</time></trkpt>
<trkpt lat="53.0877220000" lon="-4.1482940000"><ele>595</ele><time>2016-10-15T10:58:06Z</time></trkpt>
<trkpt lat="53.0877150000" lon="-4.1482790000"><ele>595</ele><time>2016-10-15T10:58:07Z</time></trkpt>
<trkpt lat="53.0877060000" lon="-4.1482670000"><ele>594</ele><time>2016-10-15T10:58:08Z</time></trkpt>
<trkpt lat="53.0877060000" lon="-4.1482670000"><ele>594</ele><time>2016-10-15T10:58:09Z</time></trkpt>
<trkpt lat="53.0877050000" lon="-4.1482670000"><ele>594</ele><time>2016-10-15T10:58:10Z</time></trkpt>
<trkpt lat="53.0876760000" lon="-4.1482260000"><ele>594</ele><time>2016-10-15T10:58:11Z</time></trkpt>
<trkpt lat="53.0876670000" lon="-4.1482080000"><ele>594</ele><time>2016-10-15T10:58:12Z</time></trkpt>
<trkpt lat="53.0876600000" lon="-4.1481900000"><ele>594</ele><time>2016-10-15T10:58:13Z</time></trkpt>
<trkpt lat="53.0876550000" lon="-4.1481720000"><ele>594</ele><time>2016-10-15T10:58:14Z</time></trkpt>
<trkpt lat="53.0876490000" lon="-4.1481550000"><ele>594</ele><time>2016-10-15T10:58:15Z</time></trkpt>
<trkpt lat="53.0876410000" lon="-4.1481390000"><ele>593</ele><time>2016-10-15T10:58:16Z</time></trkpt>
<trkpt lat="53.0876330000" lon="-4.1481230000"><ele>593</ele><time>2016-10-15T10:58:17Z</time></trkpt>
<trkpt lat="53.0876240000" lon="-4.1481080000"><ele>593</ele><time>2016-10-15T10:58:18Z</time></trkpt>
<trkpt lat="53.0876150000" lon="-4.1480940000"><ele>593</ele><time>2016-10-15T10:58:19Z</time></trkpt>
<trkpt lat="53.0876030000" lon="-4.1480800000"><ele>593</ele><time>2016-10-15T10:58:20Z</time></trkpt>
<trkpt lat="53.0875910000" lon="-4.1480630000"><ele>593</ele><time>2016-10-15T10:58:21Z</time></trkpt>
<trkpt lat="53.0875820000" lon="-4.1480470000"><ele>593</ele><time>2016-10-15T10:58:22Z</time></trkpt>
<trkpt lat="53.0875740000" lon="-4.1480310000"><ele>593</ele><time>2016-10-15T10:58:23Z</time></trkpt>
<trkpt lat="53.0875670000" lon="-4.1480140000"><ele>592</ele><time>2016-10-15T10:58:24Z</time></trkpt>
<trkpt lat="53.0875600000" lon="-4.1479980000"><ele>592</ele><time>2016-10-15T10:58:25Z</time></trkpt>
<trkpt lat="53.0875510000" lon="-4.1479830000"><ele>592</ele><time>2016-10-15T10:58:26Z</time></trkpt>
<trkpt lat="53.0875410000" lon="-4.1479680000"><ele>592</ele><time>2016-10-15T10:58:27Z</time></trkpt>
<trkpt lat="53.0875310000" lon="-4.1479540000"><ele>592</ele><time>2016-10-15T10:58:28Z</time></trkpt>
<trkpt lat="53.0875220000" lon="-4.1479370000"><ele>592</ele><time>2016-10-15T10:58:29Z</time></trkpt>
<trkpt lat="53.0875120000" lon="-4.1479180000"><ele>592</ele><time>2016-10-15T10:58:30Z</time></trkpt>
<trkpt lat="53.0875030000" lon="-4.1479030000"><ele>592</ele><time>2016-10-15T10:58:31Z</time></trkpt>
<trkpt lat="53.0874930000" lon="-4.1478870000"><ele>592</ele><time>2016-10-15T10:58:32Z</time></trkpt>
<trkpt lat="53.0874840000" lon="-4.1478720000"><ele>592</ele><time>2016-10-15T10:58:33Z</time></trkpt>
<trkpt lat="53.0874740000" lon="-4.1478570000"><ele>592</ele><time>2016-10-15T10:58:34Z</time></trkpt>
<trkpt lat="53.0874640000" lon="-4.1478440000"><ele>592</ele><time>2016-10-15T10:58:35Z</time></trkpt>
<trkpt lat="53.0874550000" lon="-4.1478290000"><ele>592</ele><time>2016-10-15T10:58:36Z</time></trkpt>
<trkpt lat="53.0874460000" lon="-4.1478140000"><ele>592</ele><time>2016-10-15T10:58:37Z</time></trkpt>
<trkpt lat="53.0874300000" lon="-4.1477840000"><ele>592</ele><time>2016-10-15T10:58:40Z</time></trkpt>
<trkpt lat="53.0874220000" lon="-4.1477700000"><ele>592</ele></trkpt>
<trkpt lat="53.0874160000" lon="-4.1477580000"><ele>592</ele><time>2016-10-15T10:58:41Z</time></trkpt>
<trkpt lat="53.0874110000" lon="-4.1477470000"><ele>592</ele><time>2016-10-15T10:58:42Z</time></trkpt>
<trkpt lat="53.0874110000" lon="-4.1477470000"><ele>592</ele><time>2016-10-15T10:58:43Z</time></trkpt>
<trkpt lat="53.0874110000" lon="-4.1477460000"><ele>592</ele><time>2016-10-15T10:58:44Z</time></trkpt>
<trkpt lat="53.0874100000" lon="-4.1477460000"><ele>592</ele><time>2016-10-15T10:58:45Z</time></trkpt>
<trkpt lat="53.0874100000" lon="-4.1477450000"><ele>592</ele><time>2016-10-15T10:58:46Z</time></trkpt>
<trkpt lat="53.0874090000" lon="-4.1477430000"><ele>592</ele><time>2016-10-15T10:58:47Z</time></trkpt>
<trkpt lat="53.0874080000" lon="-4.1477410000"><ele>592</ele><time>2016-10-15T10:58:48Z</time></trkpt>
<trkpt lat="53.0874060000" lon="-4.1477390000"><ele>592</ele><time>2016-10-15T10:58:49Z</time></trkpt>
<trkpt lat="53.0874040000" lon="-4.1477350000"><ele>592</ele><time>2016-10-15T10:58:50Z</time></trkpt>
<trkpt lat="53.0874020000" lon="-4.1477310000"><ele>592</ele><time>2016-10-15T10:58:51Z</time></trkpt>
<trkpt lat="53.0873990000" lon="-4.1477260000"><ele>592</ele><time>2016-10-15T10:58:52Z</time></trkpt>
<trkpt lat="53.0873960000" lon="-4.1477210000"><ele>592</ele><time>2016-10-15T10:58:53Z</time></trkpt>
<trkpt lat="53.0873930000" lon="-4.1477140000"><ele>592</ele><time>2016-10-15T10:58:54Z</time></trkpt>
<trkpt lat="53.0873900000" lon="-4.1477060000"><ele>592</ele><time>2016-10-15T10:58:55Z</time></trkpt>
<trkpt lat="53.0873870000" lon="-4.1476980000"><ele>592</ele><time>2016-10-15T10:58:56Z</time></trkpt>
<trkpt lat="53.0873830000" lon="-4.1476890000"><ele>592</ele><time>2016-10-15T10:58:57Z</time></trkpt>
<trkpt lat="53.0873800000" lon="-4.1476800000"><ele>592</ele><time>2016-10-15T10:58:58Z</time></trkpt>
<trkpt lat="53.0873760000" lon="-4.1476700000"><ele>593</ele><time>2016-10-15T10:58:59Z</time></trkpt>
<trkpt lat="53.0873730000" lon="-4.1476590000"><ele>593</ele><time>2016-10-15T10:59:00Z</time></trkpt>
<trkpt lat="53.0873690000" lon="-4.1476470000"><ele>593</ele><time>2016-10-15T10:59:01Z</time></trkpt>
<trkpt lat="53.0873660000" lon="-4.1476350000"><ele>593</ele><time>2016-10-15T10:59:02Z</time></trkpt>
<trkpt lat="53.0873630000" lon="-4.1476220000"><ele>593</ele><time>2016-10-15T10:59:03Z</time></trkpt>
<trkpt lat="53.0873600000" lon="-4.1476090000"><ele>593</ele><time>2016-10-15T10:59:04Z</time></trkpt>
<trkpt lat="53.0873570000" lon="-4.1475950000"><ele>593</ele><time>2016-10-15T10:59:05Z</time></trkpt>
<trkpt lat="53.0873540000" lon="-4.1475810000"><ele>593</ele><time>2016-10-15T10:59:06Z</time></trkpt>
<trkpt lat="53.0873510000" lon="-4.1475670000"><ele>593</ele><time>2016-10-15T10:59:07Z</time></trkpt>
<trkpt lat="53.0873470000" lon="-4.1475520000"><ele>593</ele><time>2016-10-15T10:59:08Z</time></trkpt>
<trkpt lat="53.0873440000" lon="-4.1475380000"><ele>593</ele><time>2016-10-15T10:59:09Z</time></trkpt>
<trkpt lat="53.0873410000" lon="-4.1475230000"><ele>593</ele><time>2016-10-15T10:59:10Z</time></trkpt>
<trkpt lat="53.0873380000" lon="-4.1475080000"><ele>593</ele><time>2016-10-15T10:59:11Z</time></trkpt>
<trkpt lat="53.0872920000" lon="-4.1472830000"><ele>593</ele><time>2016-10-15T10:59:12Z</time></trkpt>
<trkpt lat="53.0872880000" lon="-4.1472680000"><ele>594</ele><time>2016-10-15T10:59:13Z</time></trkpt>
<trkpt lat="53.0872850000" lon="-4.1472530000"><ele>594</ele><time>2016-10-15T10:59:14Z</time></trkpt>
<trkpt lat="53.0872850000" lon="-4.1472530000"><ele>594</ele><time>2016-10-15T10:59:15Z</time></trkpt>
<trkpt lat="53.0872850000" lon="-4.1472520000"><ele>594</ele><time>2016-10-15T10:59:16Z</time></trkpt>
<trkpt lat="53.0872850000" lon="-4.1472510000"><ele>594</ele><time>2016-10-15T10:59:17Z</time></trkpt>
<trkpt lat="53.0872850000" lon="-4.1472500000"><ele>594</ele><time>2016-10-15T10:59:18Z</time></trkpt>
<trkpt lat="53.0872850000" lon="-4.1472480000"><ele>594</ele><time>2016-10-15T10:59:19Z</time></trkpt>
<trkpt lat="53.0872860000" lon="-4.1472450000"><ele>594</ele><time>2016-10-15T10:59:20Z</time></trkpt>
<trkpt lat="53.0872860000" lon="-4.1472420000"><ele>594</ele><time>2016-10-15T10:59:21Z</time></trkpt>
<trkpt lat="53.0872870000" lon="-4.1472380000"><ele>594</ele><time>2016-10-15T10:59:22Z</time></trkpt>
<trkpt lat="53.0872870000" lon="-4.1472340000"><ele>594</ele><time>2016-10-15T10:59:23Z</time></trkpt>
<trkpt lat="53.0872880000" lon="-4.1472290000"><ele>594</ele><time>2016-10-15T10:59:24Z</time></trkpt>
<trkpt lat="53.0872890000" lon="-4.1472230000"><ele>594</ele><time>2016-10-15T10:59:25Z</time></trkpt>
<trkpt lat="53.0872910000" lon="-4.1472160000"><ele>594</ele><time>2016-10-15T10:59:26Z</time></trkpt>
<trkpt lat="53.0873240000" lon="-4.1470640000"><ele>594</ele><time>2016-10-15T10:59:27Z</time></trkpt>
<trkpt lat="53.0873290000" lon="-4.1470470000"><ele>594</ele><time>2016-10-15T10:59:28Z</time></trkpt>
<trkpt lat="53.0873340000" lon="-4.1470310000"><ele>594</ele><time>2016-10-15T10:59:29Z</time></trkpt>
<trkpt lat="53.0873390000" lon="-4.1470150000"><ele>594</ele><time>2016-10-15T10:59:30Z</time></trkpt>
<trkpt lat="53.0873440000" lon="-4.1470000000"><ele>594</ele><time>2016-10-15T10:59:31Z</time></trkpt>
<trkpt lat="53.0873500000" lon="-4.1469840000"><ele>594</ele><time>2016-10-15T10:59:32Z</time></trkpt>
<trkpt lat="53.0873500000" lon="-4.1469840000"><ele>594</ele><time>2016-10-15T10:59:33Z</time></trkpt>
<trkpt lat="53.0873500000" lon="-4.1469840000"><ele>594</ele><time>2016-10-15T10:59:34Z</time></trkpt>
<trkpt lat="53.0873510000" lon="-4.1469830000"><ele>593</ele><time>2016-10-15T10:59:35Z</time></trkpt>
<trkpt lat="53.0873510000" lon="-4.1469820000"><ele>593</ele><time>2016-10-15T10:59:36Z</time></trkpt>
<trkpt lat="53.0873520000" lon="-4.1469800000"><ele>593</ele><time>2016-10-15T10:59:37Z</time></trkpt>
<trkpt lat="53.0873540000" lon="-4.1469730000"><ele>593</ele><time>2016-10-15T10:59:40Z</time></trkpt>
<trkpt lat="53.0873970000" lon="-4.1468550000"><ele>593</ele></trkpt>
<trkpt lat="53.0874010000" lon="-4.1468350000"><ele>593</ele><time>2016-10-15T10:59:41Z</time></trkpt>
<trkpt lat="53.0874050000" lon="-4.1468150000"><ele>593</ele><time>2016-10-15T10:59:42Z</time></trkpt>
<trkpt lat="53.0874090000" lon="-4.1467970000"><ele>593</ele><time>2016-10-15T10:59:43Z</time></trkpt>
<trkpt lat="53.0874110000" lon="-4.1467760000"><ele>593</ele><time>2016-10-15T10:59:44Z</time></trkpt>
<trkpt lat="53.0874110000" lon="-4.1467550000"><ele>593</ele><time>2016-10-15T10:59:45Z</time></trkpt>
<trkpt lat="53.0874120000" lon="-4.1467330000"><ele>592</ele><time>2016-10-15T10:59:46Z</time></trkpt>
<trkpt lat="53.0874130000" lon="-4.1467100000"><ele>592</ele><time>2016-10-15T10:59:47Z</time></trkpt>
<trkpt lat="53.0874130000" lon="-4.1466890000"><ele>592</ele><time>2016-10-15T10:59:48Z</time></trkpt>
<trkpt lat="53.0874140000" lon="-4.1466700000"><ele>592</ele><time>2016-10-15T10:59:49Z</time></trkpt>
<trkpt lat="53.0874140000" lon="-4.1466540000"><ele>592</ele><time>2016-10-15T10:59:50Z</time></trkpt>
<trkpt lat="53.0874150000" lon="-4.1466370000"><ele>592</ele><time>2016-10-15T10:59:51Z</time></trkpt>
<trkpt lat="53.0874170000" lon="-4.1466200000"><ele>592</ele><time>2016-10-15T10:59:52Z</time></trkpt>
<trkpt lat="53.0874170000" lon="-4.1466020000"><ele>592</ele><time>2016-10-15T10:59:53Z</time></trkpt>
<trkpt lat="53.0874190000" lon="-4.1465860000"><ele>592</ele><time>2016-10-15T10:59:54Z</time></trkpt>
<trkpt lat="53.0874190000" lon="-4.1465860000"><ele>592</ele><time>2016-10-15T10:59:55Z</time></trkpt>
<trkpt lat="53.0874190000" lon="-4.1465860000"><ele>592</ele><time>2016-10-15T10:59:56Z</time></trkpt>
<trkpt lat="53.0874190000" lon="-4.1465850000"><ele>592</ele><time>2016-10-15T10:59:57Z</time></trkpt>
<trkpt lat="53.0874190000" lon="-4.1465830000"><ele>592</ele><time>2016-10-15T10:59:58Z</time></trkpt>
<trkpt lat="53.0874190000" lon="-4.1465810000"><ele>592</ele><time>2016-10-15T10:59:59Z</time></trkpt>
<trkpt lat="53.0874190000" lon="-4.1465780000"><ele>592</ele><time>2016-10-15T11:00:00Z</time></trkpt>
<trkpt lat="53.0874200000" lon="-4.1465740000"><ele>592</ele><time>2016-10-15T11:00:01Z</time></trkpt>
<trkpt lat="53.0874200000" lon="-4.1465690000"><ele>593</ele><time>2016-10-15T11:00:02Z</time></trkpt>
<trkpt lat="53.0874200000" lon="-4.1465630000"><ele>593</ele><time>2016-10-15T11:00:03Z</time></trkpt>
<trkpt lat="53.0874210000" lon="-4.1465560000"><ele>593</ele><time>2016-10-15T11:00:04Z</time></trkpt>
<trkpt lat="53.0874210000" lon="-4.1465490000"><ele>593</ele><time>2016-10-15T11:00:05Z</time></trkpt>
<trkpt lat="53.0874220000" lon="-4.1465410000"><ele>593</ele><time>2016-10-15T11:00:06Z</time></trkpt>
<trkpt lat="53.0874220000" lon="-4.1465320000"><ele>593</ele><time>2016-10-15T11:00:07Z</time></trkpt>
<trkpt lat="53.0874230000" lon="-4.1465230000"><ele>593</ele><time>2016-10-15T11:00:08Z</time></trkpt>
<trkpt lat="53.0874230000" lon="-4.1465120000"><ele>593</ele><time>2016-10-15T11:00:09Z</time></trkpt>
<trkpt lat="53.0874230000" lon="-4.1465010000"><ele>593</ele><time>2016-10-15T11:00:10Z</time></trkpt>
<trkpt lat="53.0874220000" lon="-4.1464900000"><ele>593</ele><time>2016-10-15T11:00:11Z</time></trkpt>
<trkpt lat="53.0874220000" lon="-4.1464780000"><ele>593</ele><time>2016-10-15T11:00:12Z</time></trkpt>
<trkpt lat="53.0874210000" lon="-4.1464660000"><ele>593</ele><time>2016-10-15T11:00:13Z</time></trkpt>
<trkpt lat="53.0874210000" lon="-4.1464540000"><ele>593</ele><time>2016-10-15T11:00:14Z</time></trkpt>
<trkpt lat="53.0874200000" lon="-4.1464400000"><ele>593</ele><time>2016-10-15T11:00:15Z</time></trkpt>
<trkpt lat="53.0874200000" lon="-4.1464270000"><ele>593</ele><time>2016-10-15T11:00:16Z</time></trkpt>
<trkpt lat="53.0874190000" lon="-4.1464130000"><ele>593</ele><time>2016-10-15T11:00:17Z</time></trkpt>
<trkpt lat="53.0874180000" lon="-4.1463990000"><ele>593</ele><time>2016-10-15T11:00:18Z</time></trkpt>
<trkpt lat="53.0874170000" lon="-4.1463850000"><ele>593</ele><time>2016-10-15T11:00:19Z</time></trkpt>
<trkpt lat="53.0874160000" lon="-4.1463710000"><ele>594</ele><time>2016-10-15T11:00:20Z</time></trkpt>
<trkpt lat="53.0874150000" lon="-4.1463570000"><ele>594</ele><time>2016-10-15T11:00:21Z</time></trkpt>
<trkpt lat="53.0874140000" lon="-4.1463420000"><ele>594</ele><time>2016-10-15T11:00:22Z</time></trkpt>
<trkpt lat="53.0874130000" lon="-4.1463270000"><ele>594</ele><time>2016-10-15T11:00:23Z</time></trkpt>
<trkpt lat="53.0874120000" lon="-4.1463120000"><ele>594</ele><time>2016-10-15T11:00:24Z</time></trkpt>
<trkpt lat="53.0874110000" lon="-4.1462970000"><ele>594</ele><time>2016-10-15T11:00:25Z</time></trkpt>
<trkpt lat="53.0874110000" lon="-4.1462810000"><ele>594</ele><time>2016-10-15T11:00:26Z</time></trkpt>
<trkpt lat="53.0874110000" lon="-4.1462660000"><ele>594</ele><time>2016-10-15T11:00:27Z</time></trkpt>
<trkpt lat="53.0874110000" lon="-4.1462510000"><ele>594</ele><time>2016-10-15T11:00:28Z</time></trkpt>
<trkpt lat="53.0874110000" lon="-4.1462360000"><ele>594</ele><time>2016-10-15T11:00:29Z</time></trkpt>
<trkpt lat="53.0874120000" lon="-4.1462220000"><ele>594</ele><time>2016-10-15T11:00:30Z</time></trkpt>
<trkpt lat="53.0874120000" lon="-4.1462080000"><ele>595</ele><time>2016-10-15T11:00:31Z</time></trkpt>
<trkpt lat="53.0874130000" lon="-4.1461940000"><ele>595</ele><time>2016-10-15T11:00:32Z</time></trkpt>
<trkpt lat="53.0874130000" lon="-4.1461810000"><ele>595</ele><time>2016-10-15T11:00:33Z</time></trkpt>
<trkpt lat="53.0874130000" lon="-4.1461680000"><ele>595</ele><time>2016-10-15T11:00:34Z</time></trkpt>
<trkpt lat="53.0874130000" lon="-4.1461550000"><ele>595</ele><time>2016-10-15T11:00:35Z</time></trkpt>
<trkpt lat="53.0874120000" lon="-4.1461430000"><ele>595</ele><time>2016-10-15T11:00:36Z</time></trkpt>
<trkpt lat="53.0874100000" lon="-4.1461310000"><ele>595</ele><time>2016-10-15T11:00:37Z</time></trkpt>
<trkpt lat="53.0874070000" lon="-4.1461090000"><ele>596</ele><time>2016-10-15T11:00:40Z</time></trkpt>
<trkpt lat="53.0874040000" lon="-4.1460990000"><ele>596</ele></trkpt>
<trkpt lat="53.0874020000" lon="-4.1460890000"><ele>596</ele><time>2016-10-15T11:00:41Z</time></trkpt>
<trkpt lat="53.0873990000" lon="-4.1460800000"><ele>596</ele><time>2016-10-15T11:00:42Z</time></trkpt>
<trkpt lat="53.0873960000" lon="-4.1460710000"><ele>596</ele><time>2016-10-15T11:00:43Z</time></trkpt>
<trkpt lat="53.0873930000" lon="-4.1460630000"><ele>597</ele><time>2016-10-15T11:00:44Z</time></trkpt>
<trkpt lat="53.0873900000" lon="-4.1460540000"><ele>597</ele><time>2016-10-15T11:00:45Z</time></trkpt>
<trkpt lat="53.0873880000" lon="-4.1460470000"><ele>597</ele><time>2016-10-15T11:00:46Z</time></trkpt>
<trkpt lat="53.0873850000" lon="-4.1460390000"><ele>597</ele><time>2016-10-15T11:00:47Z</time></trkpt>
<trkpt lat="53.0873820000" lon="-4.1460320000"><ele>597</ele><time>2016-10-15T11:00:48Z</time></trkpt>
<trkpt lat="53.0873790000" lon="-4.1460260000"><ele>597</ele><time>2016-10-15T11:00:49Z</time></trkpt>
<trkpt lat="53.0873760000" lon="-4.1460200000"><ele>597</ele><time>2016-10-15T11:00:50Z</time></trkpt>
<trkpt lat="53.0873730000" lon="-4.1460140000"><ele>597</ele><time>2016-10-15T11:00:51Z</time></trkpt>
<trkpt lat="53.0873700000" lon="-4.1460080000"><ele>598</ele><time>2016-10-15T11:00:52Z</time></trkpt>
<trkpt lat="53.0873670000" lon="-4.1460020000"><ele>598</ele><time>2016-10-15T11:00:53Z</time></trkpt>
<trkpt lat="53.0873630000" lon="-4.1459970000"><ele>598</ele><time>2016-10-15T11:00:54Z</time></trkpt>
<trkpt lat="53.0873600000" lon="-4.1459920000"><ele>598</ele><time>2016-10-15T11:00:55Z</time></trkpt>
<trkpt lat="53.0873570000" lon="-4.1459870000"><ele>598</ele><time>2016-10-15T11:00:56Z</time></trkpt>
<trkpt lat="53.0873540000" lon="-4.1459820000"><ele>598</ele><time>2016-10-15T11:00:57Z</time></trkpt>
<trkpt lat="53.0873520000" lon="-4.1459760000"><ele>599</ele><time>2016-10-15T11:00:58Z</time></trkpt>
<trkpt lat="53.0873490000" lon="-4.1459700000"><ele>599</ele><time>2016-10-15T11:00:59Z</time></trkpt>
<trkpt lat="53.0873470000" lon="-4.1459630000"><ele>599</ele><time>2016-10-15T11:01:00Z</time></trkpt>
<trkpt lat="53.0873440000" lon="-4.1459570000"><ele>599</ele><time>2016-10-15T11:01:01Z</time></trkpt>
<trkpt lat="53.0873410000" lon="-4.1459510000"><ele>599</ele><time>2016-10-15T11:01:02Z</time></trkpt>
<trkpt lat="53.0873370000" lon="-4.1459460000"><ele>599</ele><time>2016-10-15T11:01:03Z</time></trkpt>
<trkpt lat="53.0873330000" lon="-4.1459410000"><ele>600</ele><time>2016-10-15T11:01:04Z</time></trkpt>
<trkpt lat="53.0873290000" lon="-4.1459370000"><ele>600</ele><time>2016-10-15T11:01:05Z</time></trkpt>
<trkpt lat="53.0873240000" lon="-4.1459340000"><ele>600</ele><time>2016-10-15T11:01:06Z</time></trkpt>
<trkpt lat="53.0873190000" lon="-4.1459310000"><ele>600</ele><time>2016-10-15T11:01:07Z</time></trkpt>
<trkpt lat="53.0873130000" lon="-4.1459280000"><ele>600</ele><time>2016-10-15T11:01:08Z</time></trkpt>
<trkpt lat="53.0873080000" lon="-4.1459260000"><ele>600</ele><time>2016-10-15T11:01:09Z</time></trkpt>
<trkpt lat="53.0873010000" lon="-4.1459250000"><ele>600</ele><time>2016-10-15T11:01:10Z</time></trkpt>
<trkpt lat="53.0871990000" lon="-4.1459050000"><ele>600</ele><time>2016-10-15T11:01:11Z</time></trkpt>
<trkpt lat="53.0871890000" lon="-4.1459060000"><ele>600</ele><time>2016-10-15T11:01:12Z</time></trkpt>
<trkpt lat="53.0871770000" lon="-4.1459070000"><ele>601</ele><time>2016-10-15T11:01:13Z</time></trkpt>
<trkpt lat="53.0871770000" lon="-4.1459070000"><ele>601</ele><time>2016-10-15T11:01:14Z</time></trkpt>
<trkpt lat="53.0871770000" lon="-4.1459070000"><ele>601</ele><time>2016-10-15T11:01:15Z</time></trkpt>
<trkpt lat="53.0871760000" lon="-4.1459070000"><ele>601</ele><time>2016-10-15T11:01:16Z</time></trkpt>
<trkpt lat="53.0871760000" lon="-4.1459070000"><ele>601</ele><time>2016-10-15T11:01:17Z</time></trkpt>
<trkpt lat="53.0871740000" lon="-4.1459080000"><ele>601</ele><time>2016-10-15T11:01:18Z</time></trkpt>
<trkpt lat="53.0871720000" lon="-4.1459090000"><ele>601</ele><time>2016-10-15T11:01:19Z</time></trkpt>
<trkpt lat="53.0871700000" lon="-4.1459100000"><ele>601</ele><time>2016-10-15T11:01:20Z</time></trkpt>
<trkpt lat="53.0871670000" lon="-4.1459110000"><ele>601</ele><time>2016-10-15T11:01:21Z</time></trkpt>
<trkpt lat="53.0871630000" lon="-4.1459120000"><ele>601</ele><time>2016-10-15T11:01:22Z</time></trkpt>
<trkpt lat="53.0871590000" lon="-4.1459140000"><ele>601</ele><time>2016-10-15T11:01:23Z</time></trkpt>
<trkpt lat="53.0871550000" lon="-4.1459160000"><ele>602</ele><time>2016-10-15T11:01:24Z</time></trkpt>
<trkpt lat="53.0871500000" lon="-4.1459180000"><ele>602</ele><time>2016-10-15T11:01:25Z</time></trkpt>
<trkpt lat="53.0871440000" lon="-4.1459200000"><ele>602</ele><time>2016-10-15T11:01:26Z</time></trkpt>
<trkpt lat="53.0871380000" lon="-4.1459230000"><ele>602</ele><time>2016-10-15T11:01:27Z</time></trkpt>
<trkpt lat="53.0871320000" lon="-4.1459260000"><ele>602</ele><time>2016-10-15T11:01:28Z</time></trkpt>
<trkpt lat="53.0871250000" lon="-4.1459290000"><ele>602</ele><time>2016-10-15T11:01:29Z</time></trkpt>
<trkpt lat="53.0871180000" lon="-4.1459320000"><ele>602</ele><time>2016-10-15T11:01:30Z</time></trkpt>
<trkpt lat="53.0871110000" lon="-4.1459350000"><ele>602</ele><time>2016-10-15T11:01:31Z</time></trkpt>
<trkpt lat="53.0871030000" lon="-4.1459390000"><ele>602</ele><time>2016-10-15T11:01:32Z</time></trkpt>
<trkpt lat="53.0870950000" lon="-4.1459420000"><ele>602</ele><time>2016-10-15T11:01:33Z</time></trkpt>
<trkpt lat="53.0870870000" lon="-4.1459460000"><ele>602</ele><time>2016-10-15T11:01:34Z</time></trkpt>
<trkpt lat="53.0870790000" lon="-4.1459490000"><ele>602</ele><time>2016-10-15T11:01:35Z</time></trkpt>
<trkpt lat="53.0870710000" lon="-4.1459530000"><ele>602</ele><time>2016-10-15T11:01:36Z</time></trkpt>
<trkpt lat="53.0870630000" lon="-4.1459560000"><ele>602</ele><time>2016-10-15T11:01:37Z</time></trkpt>
<trkpt lat="53.0870460000" lon="-4.1459630000"><ele>602</ele><time>2016-10-15T11:01:40Z</time></trkpt>
<trkpt lat="53.0870380000" lon="-4.1459660000"><ele>602</ele></trkpt>
<trkpt lat="53.0870310000" lon="-4.1459690000"><ele>602</ele><time>2016-10-15T11:01:41Z</time></trkpt>
<trkpt lat="53.0870230000" lon="-4.1459730000"><ele>602</ele><time>2016-10-15T11:01:42Z</time></trkpt>
<trkpt lat="53.0870160000" lon="-4.1459760000"><ele>602</ele><time>2016-10-15T11:01:43Z</time></trkpt>
<trkpt lat="53.0870100000" lon="-4.1459790000"><ele>602</ele><time>2016-10-15T11:01:44Z</time></trkpt>
<trkpt lat="53.0870040000" lon="-4.1459810000"><ele>602</ele><time>2016-10-15T11:01:45Z</time></trkpt>
<trkpt lat="53.0869980000" lon="-4.1459840000"><ele>602</ele><time>2016-10-15T11:01:46Z</time></trkpt>
<trkpt lat="53.0869920000" lon="-4.1459870000"><ele>602</ele><time>2016-10-15T11:01:47Z</time></trkpt>
<trkpt lat="53.0869860000" lon="-4.1459890000"><ele>602</ele><time>2016-10-15T11:01:48Z</time></trkpt>
<trkpt lat="53.0869810000" lon="-4.1459920000"><ele>602</ele><time>2016-10-15T11:01:49Z</time></trkpt>
<trkpt lat="53.0869760000" lon="-4.1459940000"><ele>602</ele><time>2016-10-15T11:01:50Z</time></trkpt>
<trkpt lat="53.0869710000" lon="-4.1459960000"><ele>602</ele><time>2016-10-15T11:01:51Z</time></trkpt>
<trkpt lat="53.0869660000" lon="-4.1459980000"><ele>602</ele><time>2016-10-15T11:01:52Z</time></trkpt>
<trkpt lat="53.0869620000" lon="-4.1460000000"><ele>602</ele><time>2016-10-15T11:01:53Z</time></trkpt>
<trkpt lat="53.0869580000" lon="-4.1460010000"><ele>602</ele><time>2016-10-15T11:01:54Z</time></trkpt>
<trkpt lat="53.0869540000" lon="-4.1460030000"><ele>602</ele><time>2016-10-15T11:01:55Z</time></trkpt>
<trkpt lat="53.0869520000" lon="-4.1460030000"><ele>602</ele><time>2016-10-15T11:01:56Z</time></trkpt>
<trkpt lat="53.0869500000" lon="-4.1460040000"><ele>602</ele><time>2016-10-15T11:01:57Z</time></trkpt>
<trkpt lat="53.0869470000" lon="-4.1460050000"><ele>602</ele><time>2016-10-15T11:01:58Z</time></trkpt>
<trkpt lat="53.0869430000" lon="-4.1460070000"><ele>602</ele><time>2016-10-15T11:01:59Z</time></trkpt>
<trkpt lat="53.0869400000" lon="-4.1460080000"><ele>602</ele><time>2016-10-15T11:02:00Z</time></trkpt>
<trkpt lat="53.0869370000" lon="-4.1460090000"><ele>602</ele><time>2016-10-15T11:02:01Z</time></trkpt>
<trkpt lat="53.0869350000" lon="-4.1460110000"><ele>602</ele><time>2016-10-15T11:02:02Z</time></trkpt>
<trkpt lat="53.0869320000" lon="-4.1460120000"><ele>602</ele><time>2016-10-15T11:02:03Z</time></trkpt>
<trkpt lat="53.0869290000" lon="-4.1460120000"><ele>602</ele><time>2016-10-15T11:02:04Z</time></trkpt>
<trkpt lat="53.0869250000" lon="-4.1460130000"><ele>602</ele><time>2016-10-15T11:02:05Z</time></trkpt>
<trkpt lat="53.0869220000" lon="-4.1460130000"><ele>602</ele><time>2016-10-15T11:02:06Z</time></trkpt>
<trkpt lat="53.0869180000" lon="-4.1460130000"><ele>602</ele><time>2016-10-15T11:02:07Z</time></trkpt>
<trkpt lat="53.0869140000" lon="-4.1460120000"><ele>602</ele><time>2016-10-15T11:02:08Z</time></trkpt>
<trkpt lat="53.0869090000" lon="-4.1460110000"><ele>602</ele><time>2016-10-15T11:02:09Z</time></trkpt>
<trkpt lat="53.0869050000" lon="-4.1460090000"><ele>602</ele><time>2016-10-15T11:02:10Z</time></trkpt>
<trkpt lat="53.0869000000" lon="-4.1460070000"><ele>602</ele><time>2016-10-15T11:02:11Z</time></trkpt>
<trkpt lat="53.0868950000" lon="-4.1460050000"><ele>602</ele><time>2016-10-15T11:02:12Z</time></trkpt>
<trkpt lat="53.0868900000" lon="-4.1460010000"><ele>602</ele><time>2016-10-15T11:02:13Z</time></trkpt>
<trkpt lat="53.0868850000" lon="-4.1459980000"><ele>602</ele><time>2016-10-15T11:02:14Z</time></trkpt>
<trkpt lat="53.0868800000" lon="-4.1459930000"><ele>602</ele><time>2016-10-15T11:02:15Z</time></trkpt>
<trkpt lat="53.0868750000" lon="-4.1459880000"><ele>601</ele><time>2016-10-15T11:02:16Z</time></trkpt>
<trkpt lat="53.0868690000" lon="-4.1459830000"><ele>601</ele><time>2016-10-15T11:02:17Z</time></trkpt>
<trkpt lat="53.0868630000" lon="-4.1459770000"><ele>601</ele><time>2016-10-15T11:02:18Z</time></trkpt>
<trkpt lat="53.0868570000" lon="-4.1459720000"><ele>601</ele><time>2016-10-15T11:02:19Z</time></trkpt>
<trkpt lat="53.0868510000" lon="-4.1459670000"><ele>601</ele><time>2016-10-15T11:02:20Z</time></trkpt>
<trkpt lat="53.0868450000" lon="-4.1459630000"><ele>601</ele><time>2016-10-15T11:02:21Z</time></trkpt>
<trkpt lat="53.0868380000" lon="-4.1459600000"><ele>600</ele><time>2016-10-15T11:02:22Z</time></trkpt>
<trkpt lat="53.0868320000" lon="-4.1459550000"><ele>600</ele><time>2016-10-15T11:02:23Z</time></trkpt>
<trkpt lat="53.0867190000" lon="-4.1458720000"><ele>600</ele><time>2016-10-15T11:02:24Z</time></trkpt>
<trkpt lat="53.0867100000" lon="-4.1458500000"><ele>600</ele><time>2016-10-15T11:02:25Z</time></trkpt>
<trkpt lat="53.0867030000" lon="-4.1458270000"><ele>600</ele><time>2016-10-15T11:02:26Z</time></trkpt>
<trkpt lat="53.0866960000" lon="-4.1458040000"><ele>599</ele><time>2016-10-15T11:02:27Z</time></trkpt>
<trkpt lat="53.0866880000" lon="-4.1457840000"><ele>599</ele><time>2016-10-15T11:02:28Z</time></trkpt>
<trkpt lat="53.0866780000" lon="-4.1457670000"><ele>599</ele><time>2016-10-15T11:02:29Z</time></trkpt>
<trkpt lat="53.0866670000" lon="-4.1457520000"><ele>599</ele><time>2016-10-15T11:02:30Z</time></trkpt>
<trkpt lat="53.0866540000" lon="-4.1457370000"><ele>598</ele><time>2016-10-15T11:02:31Z</time></trkpt>
<trkpt lat="53.0866430000" lon="-4.1457230000"><ele>598</ele><time>2016-10-15T11:02:32Z</time></trkpt>
<trkpt lat="53.0866310000" lon="-4.1457070000"><ele>598</ele><time>2016-10-15T11:02:33Z</time></trkpt>
<trkpt lat="53.0866180000" lon="-4.1456820000"><ele>597</ele><time>2016-10-15T11:02:34Z</time></trkpt>
<trkpt lat="53.0866070000" lon="-4.1456510000"><ele>597</ele><time>2016-10-15T11:02:35Z</time></trkpt>
<trkpt lat="53.0865960000" lon="-4.1456200000"><ele>597</ele><time>2016-10-15T11:02:36Z</time></trkpt>
<trkpt lat="53.0865860000" lon="-4.1455940000"><ele>597</ele><time>2016-10-15T11:02:37Z</time></trkpt>
<trkpt lat="53.0865660000" lon="-4.1455520000"><ele>596</ele><time>2016-10-15T11:02:40Z</time></trkpt>
<trkpt lat="53.0865570000" lon="-4.1455350000"><ele>596</ele></trkpt>
<trkpt lat="53.0865460000" lon="-4.1455180000"><ele>596</ele><time>2016-10-15T11:02:41Z</time></trkpt>
<trkpt lat="53.0865350000" lon="-4.1455000000"><ele>596</ele><time>2016-10-15T11:02:42Z</time></trkpt>
<trkpt lat="53.0865260000" lon="-4.1454800000"><ele>596</ele><time>2016-10-15T11:02:43Z</time></trkpt>
<trkpt lat="53.0865160000" lon="-4.1454610000"><ele>596</ele><time>2016-10-15T11:02:44Z</time></trkpt>
<trkpt lat="53.0865070000" lon="-4.1454430000"><ele>596</ele><time>2016-10-15T11:02:45Z</time></trkpt>
<trkpt lat="53.0864970000" lon="-4.1454240000"><ele>596</ele><time>2016-10-15T11:02:46Z</time></trkpt>
<trkpt lat="53.0864880000" lon="-4.1454070000"><ele>595</ele><time>2016-10-15T11:02:47Z</time></trkpt>
<trkpt lat="53.0864780000" lon="-4.1453890000"><ele>595</ele><time>2016-10-15T11:02:48Z</time></trkpt>
<trkpt lat="53.0864670000" lon="-4.1453710000"><ele>595</ele><time>2016-10-15T11:02:49Z</time></trkpt>
<trkpt lat="53.0864570000" lon="-4.1453540000"><ele>595</ele><time>2016-10-15T11:02:50Z</time></trkpt>
<trkpt lat="53.0864490000" lon="-4.1453360000"><ele>595</ele><time>2016-10-15T11:02:51Z</time></trkpt>
<trkpt lat="53.0864400000" lon="-4.1453180000"><ele>595</ele><time>2016-10-15T11:02:52Z</time></trkpt>
<trkpt lat="53.0864310000" lon="-4.1453020000"><ele>595</ele><time>2016-10-15T11:02:53Z</time></trkpt>
<trkpt lat="53.0864230000" lon="-4.1452880000"><ele>595</ele><time>2016-10-15T11:02:54Z</time></trkpt>
<trkpt lat="53.0864130000" lon="-4.1452740000"><ele>594</ele><time>2016-10-15T11:02:55Z</time></trkpt>
<trkpt lat="53.0864050000" lon="-4.1452610000"><ele>594</ele><time>2016-10-15T11:02:56Z</time></trkpt>
<trkpt lat="53.0863970000" lon="-4.1452490000"><ele>594</ele><time>2016-10-15T11:02:57Z</time></trkpt>
<trkpt lat="53.0863880000" lon="-4.1452340000"><ele>594</ele><time>2016-10-15T11:02:58Z</time></trkpt>
<trkpt lat="53.0863760000" lon="-4.1452170000"><ele>594</ele><time>2016-10-15T11:02:59Z</time></trkpt>
<trkpt lat="53.0863660000" lon="-4.1452010000"><ele>594</ele><time>2016-10-15T11:03:00Z</time></trkpt>
<trkpt lat="53.0863550000" lon="-4.1451860000"><ele>593</ele><time>2016-10-15T11:03:01Z</time></trkpt>
<trkpt lat="53.0863430000" lon="-4.1451720000"><ele>593</ele><time>2016-10-15T11:03:02Z</time></trkpt>
<trkpt lat="53.0863310000" lon="-4.1451570000"><ele>593</ele><time>2016-10-15T11:03:03Z</time></trkpt>
<trkpt lat="53.0863220000" lon="-4.1451450000"><ele>593</ele><time>2016-10-15T11:03:04Z</time></trkpt>
<trkpt lat="53.0863130000" lon="-4.1451350000"><ele>593</ele><time>2016-10-15T11:03:05Z</time></trkpt>
<trkpt lat="53.0863040000" lon="-4.1451230000"><ele>592</ele><time>2016-10-15T11:03:06Z</time></trkpt>
<trkpt lat="53.0862970000" lon="-4.1451120000"><ele>592</ele><time>2016-10-15T11:03:07Z</time></trkpt>
<trkpt lat="53.0862970000" lon="-4.1451120000"><ele>592</ele><time>2016-10-15T11:03:08Z</time></trkpt>
<trkpt lat="53.0862970000" lon="-4.1451120000"><ele>592</ele><time>2016-10-15T11:03:09Z</time></trkpt>
<trkpt lat="53.0862960000" lon="-4.1451110000"><ele>592</ele><time>2016-10-15T11:03:10Z</time></trkpt>
<trkpt lat="53.0862960000" lon="-4.1451100000"><ele>591</ele><time>2016-10-15T11:03:11Z</time></trkpt>
<trkpt lat="53.0862950000" lon="-4.1451080000"><ele>591</ele><time>2016-10-15T11:03:12Z</time></trkpt>
<trkpt lat="53.0862940000" lon="-4.1451060000"><ele>591</ele><time>2016-10-15T11:03:13Z</time></trkpt>
<trkpt lat="53.0862930000" lon="-4.1451030000"><ele>591</ele><time>2016-10-15T11:03:14Z</time></trkpt>
<trkpt lat="53.0862910000" lon="-4.1451000000"><ele>591</ele><time>2016-10-15T11:03:15Z</time></trkpt>
<trkpt lat="53.0862900000" lon="-4.1450970000"><ele>591</ele><time>2016-10-15T11:03:16Z</time></trkpt>
<trkpt lat="53.0862880000" lon="-4.1450940000"><ele>590</ele><time>2016-10-15T11:03:17Z</time></trkpt>
<trkpt lat="53.0862860000" lon="-4.1450900000"><ele>590</ele><time>2016-10-15T11:03:18Z</time></trkpt>
<trkpt lat="53.0862840000" lon="-4.1450870000"><ele>590</ele><time>2016-10-15T11:03:19Z</time></trkpt>
<trkpt lat="53.0862820000" lon="-4.1450840000"><ele>590</ele><time>2016-10-15T11:03:20Z</time></trkpt>
<trkpt lat="53.0862810000" lon="-4.1450810000"><ele>590</ele><time>2016-10-15T11:03:21Z</time></trkpt>
<trkpt lat="53.0862790000" lon="-4.1450790000"><ele>589</ele><time>2016-10-15T11:03:22Z</time></trkpt>
<trkpt lat="53.0862780000" lon="-4.1450760000"><ele>589</ele><time>2016-10-15T11:03:23Z</time></trkpt>
<trkpt lat="53.0862760000" lon="-4.1450740000"><ele>589</ele><time>2016-10-15T11:03:24Z</time></trkpt>
<trkpt lat="53.0862740000" lon="-4.1450710000"><ele>589</ele><time>2016-10-15T11:03:25Z</time></trkpt>
<trkpt lat="53.0862720000" lon="-4.1450680000"><ele>589</ele><time>2016-10-15T11:03:26Z</time></trkpt>
<trkpt lat="53.0862710000" lon="-4.1450660000"><ele>589</ele><time>2016-10-15T11:03:27Z</time></trkpt>
<trkpt lat="53.0862690000" lon="-4.1450630000"><ele>589</ele><time>2016-10-15T11:03:28Z</time></trkpt>
<trkpt lat="53.0862660000" lon="-4.1450600000"><ele>589</ele><time>2016-10-15T11:03:29Z</time></trkpt>
<trkpt lat="53.0862630000" lon="-4.1450560000"><ele>589</ele><time>2016-10-15T11:03:30Z</time></trkpt>
<trkpt lat="53.0862610000" lon="-4.1450520000"><ele>589</ele><time>2016-10-15T11:03:31Z</time></trkpt>
<trkpt lat="53.0862570000" lon="-4.1450470000"><ele>589</ele><time>2016-10-15T11:03:32Z</time></trkpt>
<trkpt lat="53.0862540000" lon="-4.1450420000"><ele>588</ele><time>2016-10-15T11:03:33Z</time></trkpt>
<trkpt lat="53.0862510000" lon="-4.1450380000"><ele>588</ele><time>2016-10-15T11:03:34Z</time></trkpt>
<trkpt lat="53.0862490000" lon="-4.1450340000"><ele>588</ele><time>2016-10-15T11:03:35Z</time></trkpt>
<trkpt lat="53.0862460000" lon="-4.1450300000"><ele>588</ele><time>2016-10-15T11:03:36Z</time></trkpt>
<trkpt lat="53.0862430000" lon="-4.1450260000"><ele>588</ele><time>2016-10-15T11:03:37Z</time></trkpt>
<trkpt lat="53.0862400000" lon="-4.1450220000"><ele>588</ele><time>2016-10-15T11:03:38Z</time></trkpt>
<trkpt lat="53.0862370000" lon="-4.1450180000"><ele>588</ele><time>2016-10-15T11:03:40Z</time></trkpt>
<trkpt lat="53.0862340000" lon="-4.1450150000"><ele>588</ele></trkpt>
<trkpt lat="53.0862310000" lon="-4.1450110000"><ele>588</ele><time>2016-10-15T11:03:41Z</time></trkpt>
<trkpt lat="53.0862270000" lon="-4.1450070000"><ele>588</ele><time>2016-10-15T11:03:42Z</time></trkpt>
<trkpt lat="53.0862240000" lon="-4.1450030000"><ele>587</ele><time>2016-10-15T11:03:43Z</time></trkpt>
<trkpt lat="53.0862200000" lon="-4.1449980000"><ele>587</ele><time>2016-10-15T11:03:44Z</time></trkpt>
<trkpt lat="53.0862160000" lon="-4.1449920000"><ele>587</ele><time>2016-10-15T11:03:45Z</time></trkpt>
<trkpt lat="53.0862110000" lon="-4.1449860000"><ele>587</ele><time>2016-10-15T11:03:46Z</time></trkpt>
<trkpt lat="53.0862070000" lon="-4.1449800000"><ele>586</ele><time>2016-10-15T11:03:47Z</time></trkpt>
<trkpt lat="53.0862030000" lon="-4.1449730000"><ele>586</ele><time>2016-10-15T11:03:48Z</time></trkpt>
<trkpt lat="53.0861980000" lon="-4.1449660000"><ele>586</ele><time>2016-10-15T11:03:49Z</time></trkpt>
<trkpt lat="53.0861940000" lon="-4.1449580000"><ele>586</ele><time>2016-10-15T11:03:50Z</time></trkpt>
<trkpt lat="53.0861890000" lon="-4.1449500000"><ele>585</ele><time>2016-10-15T11:03:51Z</time></trkpt>
<trkpt lat="53.0861840000" lon="-4.1449420000"><ele>585</ele><time>2016-10-15T11:03:52Z</time></trkpt>
<trkpt lat="53.0861790000" lon="-4.1449340000"><ele>585</ele><time>2016-10-15T11:03:53Z</time></trkpt>
<trkpt lat="53.0861740000" lon="-4.1449250000"><ele>585</ele><time>2016-10-15T11:03:54Z</time></trkpt>
<trkpt lat="53.0861690000" lon="-4.1449160000"><ele>584</ele><time>2016-10-15T11:03:55Z</time></trkpt>
<trkpt lat="53.0861640000" lon="-4.1449070000"><ele>584</ele><time>2016-10-15T11:03:56Z</time></trkpt>
<trkpt lat="53.0861590000" lon="-4.1448970000"><ele>584</ele><time>2016-10-15T11:03:57Z</time></trkpt>
<trkpt lat="53.0861550000" lon="-4.1448870000"><ele>583</ele><time>2016-10-15T11:03:58Z</time></trkpt>
<trkpt lat="53.0861500000" lon="-4.1448770000"><ele>583</ele><time>2016-10-15T11:03:59Z</time></trkpt>
<trkpt lat="53.0861460000" lon="-4.1448670000"><ele>583</ele><time>2016-10-15T11:04:00Z</time></trkpt>
<trkpt lat="53.0861410000" lon="-4.1448560000"><ele>583</ele><time>2016-10-15T11:04:01Z</time></trkpt>
<trkpt lat="53.0861370000" lon="-4.1448460000"><ele>582</ele><time>2016-10-15T11:04:02Z</time></trkpt>
<trkpt lat="53.0861320000" lon="-4.1448360000"><ele>582</ele><time>2016-10-15T11:04:03Z</time></trkpt>
<trkpt lat="53.0861270000" lon="-4.1448260000"><ele>582</ele><time>2016-10-15T11:04:04Z</time></trkpt>
<trkpt lat="53.0861220000" lon="-4.1448170000"><ele>581</ele><time>2016-10-15T11:04:05Z</time></trkpt>
<trkpt lat="53.0861170000" lon="-4.1448070000"><ele>581</ele><time>2016-10-15T11:04:06Z</time></trkpt>
<trkpt lat="53.0861110000" lon="-4.1447970000"><ele>581</ele><time>2016-10-15T11:04:07Z</time></trkpt>
<trkpt lat="53.0861060000" lon="-4.1447870000"><ele>581</ele><time>2016-10-15T11:04:08Z</time></trkpt>
<trkpt lat="53.0861010000" lon="-4.1447770000"><ele>581</ele><time>2016-10-15T11:04:09Z</time></trkpt>
<trkpt lat="53.0860960000" lon="-4.1447680000"><ele>580</ele><time>2016-10-15T11:04:10Z</time></trkpt>
<trkpt lat="53.0860910000" lon="-4.1447590000"><ele>580</ele><time>2016-10-15T11:04:11Z</time></trkpt>
<trkpt lat="53.0860870000" lon="-4.1447510000"><ele>580</ele><time>2016-10-15T11:04:12Z</time></trkpt>
<trkpt lat="53.0860830000" lon="-4.1447440000"><ele>580</ele><time>2016-10-15T11:04:13Z</time></trkpt>
<trkpt lat="53.0860800000" lon="-4.1447380000"><ele>580</ele><time>2016-10-15T11:04:14Z</time></trkpt>
<trkpt lat="53.0860770000" lon="-4.1447320000"><ele>579</ele><time>2016-10-15T11:04:15Z</time></trkpt>
<trkpt lat="53.0860740000" lon="-4.1447270000"><ele>579</ele><time>2016-10-15T11:04:16Z</time></trkpt>
<trkpt lat="53.0860710000" lon="-4.1447220000"><ele>579</ele><time>2016-10-15T11:04:17Z</time></trkpt>
<trkpt lat="53.0860680000" lon="-4.1447170000"><ele>579</ele><time>2016-10-15T11:04:18Z</time></trkpt>
<trkpt lat="53.0860650000" lon="-4.1447130000"><ele>579</ele><time>2016-10-15T11:04:19Z</time></trkpt>
<trkpt lat="53.0860620000" lon="-4.1447080000"><ele>579</ele><time>2016-10-15T11:04:20Z</time></trkpt>
<trkpt lat="53.0860590000" lon="-4.1447030000"><ele>579</ele><time>2016-10-15T11:04:21Z</time></trkpt>
<trkpt lat="53.0860560000" lon="-4.1446990000"><ele>579</ele><time>2016-10-15T11:04:22Z</time></trkpt>
<trkpt lat="53.0860530000" lon="-4.1446940000"><ele>578</ele><time>2016-10-15T11:04:23Z</time></trkpt>
<trkpt lat="53.0860500000" lon="-4.1446900000"><ele>578</ele><time>2016-10-15T11:04:24Z</time></trkpt>
<trkpt lat="53.0860470000" lon="-4.1446860000"><ele>578</ele><time>2016-10-15T11:04:25Z</time></trkpt>
<trkpt lat="53.0860450000" lon="-4.1446820000"><ele>578</ele><time>2016-10-15T11:04:26Z</time></trkpt>
<trkpt lat="53.0860430000" lon="-4.1446780000"><ele>578</ele><time>2016-10-15T11:04:27Z</time></trkpt>
<trkpt lat="53.0860400000" lon="-4.1446730000"><ele>578</ele><time>2016-10-15T11:04:28Z</time></trkpt>
<trkpt lat="53.0860380000" lon="-4.1446690000"><ele>578</ele><time>2016-10-15T11:04:29Z</time></trkpt>
<trkpt lat="53.0860370000" lon="-4.1446640000"><ele>577</ele><time>2016-10-15T11:04:30Z</time></trkpt>
<trkpt lat="53.0860340000" lon="-4.1446580000"><ele>577</ele><time>2016-10-15T11:04:31Z</time></trkpt>
<trkpt lat="53.0860320000" lon="-4.1446510000"><ele>577</ele><time>2016-10-15T11:04:32Z</time></trkpt>
<trkpt lat="53.0860290000" lon="-4.1446450000"><ele>577</ele><time>2016-10-15T11:04:33Z</time></trkpt>
<trkpt lat="53.0860260000" lon="-4.1446380000"><ele>576</ele><time>2016-10-15T11:04:34Z</time></trkpt>
<trkpt lat="53.0860220000" lon="-4.1446310000"><ele>576</ele><time>2016-10-15T11:04:35Z</time></trkpt>
<trkpt lat="53.0860190000" lon="-4.1446240000"><ele>576</ele><time>2016-10-15T11:04:36Z</time></trkpt>
<trkpt lat="53.0860150000" lon="-4.1446170000"><ele>575</ele><time>2016-10-15T11:04:37Z</time></trkpt>
<trkpt lat="53.0860120000" lon="-4.1446090000"><ele>575</ele><time>2016-10-15T11:04:38Z</time></trkpt>
<trkpt lat="53.0860080000" lon="-4.1446000000"><ele>574</ele><time>2016-10-15T11:04:40Z</time></trkpt>
<trkpt lat="53.0860040000" lon="-4.1445920000"><ele>574</ele></trkpt>
<trkpt lat="53.0860000000" lon="-4.1445830000"><ele>574</ele><time>2016-10-15T11:04:41Z</time></trkpt>
<trkpt lat="53.0859960000" lon="-4.1445740000"><ele>573</ele><time>2016-10-15T11:04:42Z</time></trkpt>
<trkpt lat="53.0859920000" lon="-4.1445640000"><ele>573</ele><time>2016-10-15T11:04:43Z</time></trkpt>
<trkpt lat="53.0859880000" lon="-4.1445540000"><ele>572</ele><time>2016-10-15T11:04:44Z</time></trkpt>
<trkpt lat="53.0859830000" lon="-4.1445440000"><ele>572</ele><time>2016-10-15T11:04:45Z</time></trkpt>
<trkpt lat="53.0859790000" lon="-4.1445350000"><ele>571</ele><time>2016-10-15T11:04:46Z</time></trkpt>
<trkpt lat="53.0859750000" lon="-4.1445250000"><ele>571</ele><time>2016-10-15T11:04:47Z</time></trkpt>
<trkpt lat="53.0859710000" lon="-4.1445150000"><ele>570</ele><time>2016-10-15T11:04:48Z</time></trkpt>
<trkpt lat="53.0859670000" lon="-4.1445060000"><ele>570</ele><time>2016-10-15T11:04:49Z</time></trkpt>
<trkpt lat="53.0859630000" lon="-4.1444960000"><ele>569</ele><time>2016-10-15T11:04:50Z</time></trkpt>
<trkpt lat="53.0859590000" lon="-4.1444860000"><ele>569</ele><time>2016-10-15T11:04:51Z</time></trkpt>
<trkpt lat="53.0859560000" lon="-4.1444770000"><ele>569</ele><time>2016-10-15T11:04:52Z</time></trkpt>
<trkpt lat="53.0859520000" lon="-4.1444670000"><ele>568</ele><time>2016-10-15T11:04:53Z</time></trkpt>
<trkpt lat="53.0859480000" lon="-4.1444570000"><ele>568</ele><time>2016-10-15T11:04:54Z</time></trkpt>
<trkpt lat="53.0859450000" lon="-4.1444480000"><ele>567</ele><time>2016-10-15T11:04:55Z</time></trkpt>
<trkpt lat="53.0859410000" lon="-4.1444380000"><ele>567</ele><time>2016-10-15T11:04:56Z</time></trkpt>
<trkpt lat="53.0859370000" lon="-4.1444280000"><ele>567</ele><time>2016-10-15T11:04:57Z</time></trkpt>
<trkpt lat="53.0859350000" lon="-4.1444210000"><ele>566</ele><time>2016-10-15T11:04:58Z</time></trkpt>
<trkpt lat="53.0859330000" lon="-4.1444160000"><ele>566</ele><time>2016-10-15T11:04:59Z</time></trkpt>
<trkpt lat="53.0859310000" lon="-4.1444110000"><ele>566</ele><time>2016-10-15T11:05:00Z</time></trkpt>
<trkpt lat="53.0859280000" lon="-4.1444030000"><ele>565</ele><time>2016-10-15T11:05:01Z</time></trkpt>
<trkpt lat="53.0859240000" lon="-4.1443940000"><ele>565</ele><time>2016-10-15T11:05:02Z</time></trkpt>
<trkpt lat="53.0859200000" lon="-4.1443860000"><ele>565</ele><time>2016-10-15T11:05:03Z</time></trkpt>
<trkpt lat="53.0859170000" lon="-4.1443790000"><ele>565</ele><time>2016-10-15T11:05:04Z</time></trkpt>
<trkpt lat="53.0859140000" lon="-4.1443710000"><ele>564</ele><time>2016-10-15T11:05:05Z</time></trkpt>
<trkpt lat="53.0859110000" lon="-4.1443630000"><ele>564</ele><time>2016-10-15T11:05:06Z</time></trkpt>
<trkpt lat="53.0859080000" lon="-4.1443550000"><ele>564</ele><time>2016-10-15T11:05:07Z</time></trkpt>
<trkpt lat="53.0859050000" lon="-4.1443470000"><ele>563</ele><time>2016-10-15T11:05:08Z</time></trkpt>
<trkpt lat="53.0859020000" lon="-4.1443390000"><ele>563</ele><time>2016-10-15T11:05:09Z</time></trkpt>
<trkpt lat="53.0858990000" lon="-4.1443310000"><ele>563</ele><time>2016-10-15T11:05:10Z</time></trkpt>
<trkpt lat="53.0858940000" lon="-4.1443210000"><ele>563</ele><time>2016-10-15T11:05:11Z</time></trkpt>
<trkpt lat="53.0858900000" lon="-4.1443120000"><ele>562</ele><time>2016-10-15T11:05:12Z</time></trkpt>
<trkpt lat="53.0858850000" lon="-4.1443020000"><ele>562</ele><time>2016-10-15T11:05:13Z</time></trkpt>
<trkpt lat="53.0858810000" lon="-4.1442920000"><ele>562</ele><time>2016-10-15T11:05:14Z</time></trkpt>
<trkpt lat="53.0858760000" lon="-4.1442810000"><ele>561</ele><time>2016-10-15T11:05:15Z</time></trkpt>
<trkpt lat="53.0858720000" lon="-4.1442700000"><ele>561</ele><time>2016-10-15T11:05:16Z</time></trkpt>
<trkpt lat="53.0858680000" lon="-4.1442600000"><ele>561</ele><time>2016-10-15T11:05:17Z</time></trkpt>
<trkpt lat="53.0858640000" lon="-4.1442480000"><ele>560</ele><time>2016-10-15T11:05:18Z</time></trkpt>
<trkpt lat="53.0858600000" lon="-4.1442370000"><ele>560</ele><time>2016-10-15T11:05:19Z</time></trkpt>
<trkpt lat="53.0858550000" lon="-4.1442260000"><ele>560</ele><time>2016-10-15T11:05:20Z</time></trkpt>
<trkpt lat="53.0858510000" lon="-4.1442140000"><ele>559</ele><time>2016-10-15T11:05:21Z</time></trkpt>
<trkpt lat="53.0858470000" lon="-4.1442040000"><ele>559</ele><time>2016-10-15T11:05:22Z</time></trkpt>
<trkpt lat="53.0858430000" lon="-4.1441950000"><ele>559</ele><time>2016-10-15T11:05:23Z</time></trkpt>
<trkpt lat="53.0858380000" lon="-4.1441850000"><ele>559</ele><time>2016-10-15T11:05:24Z</time></trkpt>
<trkpt lat="53.0858340000" lon="-4.1441750000"><ele>558</ele><time>2016-10-15T11:05:25Z</time></trkpt>
<trkpt lat="53.0858300000" lon="-4.1441650000"><ele>558</ele><time>2016-10-15T11:05:26Z</time></trkpt>
<trkpt lat="53.0858260000" lon="-4.1441540000"><ele>558</ele><time>2016-10-15T11:05:27Z</time></trkpt>
<trkpt lat="53.0858230000" lon="-4.1441440000"><ele>557</ele><time>2016-10-15T11:05:28Z</time></trkpt>
<trkpt lat="53.0858190000" lon="-4.1441330000"><ele>557</ele><time>2016-10-15T11:05:29Z</time></trkpt>
<trkpt lat="53.0858130000" lon="-4.1441200000"><ele>557</ele><time>2016-10-15T11:05:30Z</time></trkpt>
<trkpt lat="53.0858080000" lon="-4.1441070000"><ele>557</ele><time>2016-10-15T11:05:31Z</time></trkpt>
<trkpt lat="53.0857200000" lon="-4.1439070000"><ele>556</ele><time>2016-10-15T11:05:32Z</time></trkpt>
<trkpt lat="53.0857180000" lon="-4.1438920000"><ele>556</ele><time>2016-10-15T11:05:33Z</time></trkpt>
<trkpt lat="53.0857150000" lon="-4.1438770000"><ele>556</ele><time>2016-10-15T11:05:34Z</time></trkpt>
<trkpt lat="53.0857150000" lon="-4.1438770000"><ele>555</ele><time>2016-10-15T11:05:35Z</time></trkpt>
<trkpt lat="53.0857150000" lon="-4.1438760000"><ele>555</ele><time>2016-10-15T11:05:36Z</time></trkpt>
<trkpt lat="53.0857150000" lon="-4.1438760000"><ele>555</ele><time>2016-10-15T11:05:37Z</time></trkpt>
<trkpt lat="53.0857150000" lon="-4.1438750000"><ele>554</ele><time>2016-10-15T11:05:38Z</time></trkpt>
<trkpt lat="53.0857150000" lon="-4.1438730000"><ele>554</ele><time>2016-10-15T11:05:40Z</time></trkpt>
<trkpt lat="53.0857140000" lon="-4.1438710000"><ele>554</ele></trkpt>
<trkpt lat="53.0857130000" lon="-4.1438690000"><ele>553</ele><time>2016-10-15T11:05:41Z</time></trkpt>
<trkpt lat="53.0857120000" lon="-4.1438650000"><ele>553</ele><time>2016-10-15T11:05:42Z</time></trkpt>
<trkpt lat="53.0857100000" lon="-4.1438610000"><ele>553</ele><time>2016-10-15T11:05:43Z</time></trkpt>
<trkpt lat="53.0857080000" lon="-4.1438560000"><ele>552</ele><time>2016-10-15T11:05:44Z</time></trkpt>
<trkpt lat="53.0857060000" lon="-4.1438510000"><ele>552</ele><time>2016-10-15T11:05:45Z</time></trkpt>
<trkpt lat="53.0857040000" lon="-4.1438440000"><ele>552</ele><time>2016-10-15T11:05:46Z</time></trkpt>
<trkpt lat="53.0857010000" lon="-4.1438370000"><ele>551</ele><time>2016-10-15T11:05:47Z</time></trkpt>
<trkpt lat="53.0856980000" lon="-4.1438300000"><ele>551</ele><time>2016-10-15T11:05:48Z</time></trkpt>
<trkpt lat="53.0856950000" lon="-4.1438220000"><ele>551</ele><time>2016-10-15T11:05:49Z</time></trkpt>
<trkpt lat="53.0856920000" lon="-4.1438130000"><ele>550</ele><time>2016-10-15T11:05:50Z</time></trkpt>
<trkpt lat="53.0856880000" lon="-4.1438040000"><ele>550</ele><time>2016-10-15T11:05:51Z</time></trkpt>
<trkpt lat="53.0856850000" lon="-4.1437940000"><ele>549</ele><time>2016-10-15T11:05:52Z</time></trkpt>
<trkpt lat="53.0856810000" lon="-4.1437840000"><ele>549</ele><time>2016-10-15T11:05:53Z</time></trkpt>
<trkpt lat="53.0856770000" lon="-4.1437740000"><ele>549</ele><time>2016-10-15T11:05:54Z</time></trkpt>
<trkpt lat="53.0856720000" lon="-4.1437630000"><ele>548</ele><time>2016-10-15T11:05:55Z</time></trkpt>
<trkpt lat="53.0856670000" lon="-4.1437510000"><ele>548</ele><time>2016-10-15T11:05:56Z</time></trkpt>
<trkpt lat="53.0856620000" lon="-4.1437390000"><ele>548</ele><time>2016-10-15T11:05:57Z</time></trkpt>
<trkpt lat="53.0856570000" lon="-4.1437280000"><ele>547</ele><time>2016-10-15T11:05:58Z</time></trkpt>
<trkpt lat="53.0856520000" lon="-4.1437160000"><ele>547</ele><time>2016-10-15T11:05:59Z</time></trkpt>
<trkpt lat="53.0856470000" lon="-4.1437030000"><ele>547</ele><time>2016-10-15T11:06:00Z</time></trkpt>
<trkpt lat="53.0856410000" lon="-4.1436910000"><ele>546</ele><time>2016-10-15T11:06:01Z</time></trkpt>
<trkpt lat="53.0856350000" lon="-4.1436780000"><ele>546</ele><time>2016-10-15T11:06:02Z</time></trkpt>
<trkpt lat="53.0855450000" lon="-4.1434690000"><ele>546</ele><time>2016-10-15T11:06:03Z</time></trkpt>
<trkpt lat="53.0855390000" lon="-4.1434510000"><ele>545</ele><time>2016-10-15T11:06:04Z</time></trkpt>
<trkpt lat="53.0855310000" lon="-4.1434330000"><ele>545</ele><time>2016-10-15T11:06:05Z</time></trkpt>
<trkpt lat="53.0855230000" lon="-4.1434160000"><ele>545</ele><time>2016-10-15T11:06:06Z</time></trkpt>
<trkpt lat="53.0855170000" lon="-4.1434010000"><ele>545</ele><time>2016-10-15T11:06:07Z</time></trkpt>
<trkpt lat="53.0855110000" lon="-4.1433850000"><ele>544</ele><time>2016-10-15T11:06:08Z</time></trkpt>
<trkpt lat="53.0855110000" lon="-4.1433850000"><ele>544</ele><time>2016-10-15T11:06:09Z</time></trkpt>
<trkpt lat="53.0855100000" lon="-4.1433840000"><ele>544</ele><time>2016-10-15T11:06:10Z</time></trkpt>
<trkpt lat="53.0855100000" lon="-4.1433840000"><ele>543</ele><time>2016-10-15T11:06:11Z</time></trkpt>
<trkpt lat="53.0855100000" lon="-4.1433830000"><ele>543</ele><time>2016-10-15T11:06:12Z</time></trkpt>
<trkpt lat="53.0855090000" lon="-4.1433810000"><ele>543</ele><time>2016-10-15T11:06:13Z</time></trkpt>
<trkpt lat="53.0855080000" lon="-4.1433790000"><ele>542</ele><time>2016-10-15T11:06:14Z</time></trkpt>
<trkpt lat="53.0855070000" lon="-4.1433750000"><ele>542</ele><time>2016-10-15T11:06:15Z</time></trkpt>
<trkpt lat="53.0855060000" lon="-4.1433720000"><ele>542</ele><time>2016-10-15T11:06:16Z</time></trkpt>
<trkpt lat="53.0854590000" lon="-4.1432510000"><ele>542</ele><time>2016-10-15T11:06:17Z</time></trkpt>
<trkpt lat="53.0854520000" lon="-4.1432350000"><ele>541</ele><time>2016-10-15T11:06:18Z</time></trkpt>
<trkpt lat="53.0854470000" lon="-4.1432170000"><ele>541</ele><time>2016-10-15T11:06:19Z</time></trkpt>
<trkpt lat="53.0854440000" lon="-4.1431990000"><ele>541</ele><time>2016-10-15T11:06:20Z</time></trkpt>
<trkpt lat="53.0854400000" lon="-4.1431840000"><ele>540</ele><time>2016-10-15T11:06:21Z</time></trkpt>
<trkpt lat="53.0854400000" lon="-4.1431830000"><ele>540</ele><time>2016-10-15T11:06:22Z</time></trkpt>
<trkpt lat="53.0854390000" lon="-4.1431830000"><ele>540</ele><time>2016-10-15T11:06:23Z</time></trkpt>
<trkpt lat="53.0854390000" lon="-4.1431820000"><ele>540</ele><time>2016-10-15T11:06:24Z</time></trkpt>
<trkpt lat="53.0854390000" lon="-4.1431810000"><ele>540</ele><time>2016-10-15T11:06:25Z</time></trkpt>
<trkpt lat="53.0854380000" lon="-4.1431790000"><ele>539</ele><time>2016-10-15T11:06:26Z</time></trkpt>
<trkpt lat="53.0854360000" lon="-4.1431760000"><ele>539</ele><time>2016-10-15T11:06:27Z</time></trkpt>
<trkpt lat="53.0854350000" lon="-4.1431730000"><ele>539</ele><time>2016-10-15T11:06:28Z</time></trkpt>
<trkpt lat="53.0854330000" lon="-4.1431690000"><ele>539</ele><time>2016-10-15T11:06:29Z</time></trkpt>
<trkpt lat="53.0854310000" lon="-4.1431640000"><ele>539</ele><time>2016-10-15T11:06:30Z</time></trkpt>
<trkpt lat="53.0854290000" lon="-4.1431590000"><ele>538</ele><time>2016-10-15T11:06:31Z</time></trkpt>
<trkpt lat="53.0854260000" lon="-4.1431530000"><ele>538</ele><time>2016-10-15T11:06:32Z</time></trkpt>
<trkpt lat="53.0854230000" lon="-4.1431460000"><ele>538</ele><time>2016-10-15T11:06:33Z</time></trkpt>
<trkpt lat="53.0854200000" lon="-4.1431390000"><ele>538</ele><time>2016-10-15T11:06:34Z</time></trkpt>
<trkpt lat="53.0854170000" lon="-4.1431310000"><ele>537</ele><time>2016-10-15T11:06:35Z</time></trkpt>
<trkpt lat="53.0854130000" lon="-4.1431220000"><ele>537</ele><time>2016-10-15T11:06:36Z</time></trkpt>
<trkpt lat="53.0854100000" lon="-4.1431120000"><ele>537</ele><time>2016-10-15T11:06:37Z</time></trkpt>
<trkpt lat="53.0854060000" lon="-4.1431020000"><ele>537</ele><time>2016-10-15T11:06:38Z</time></trkpt>
<trkpt lat="53.0854020000" lon="-4.1430920000"><ele>536</ele><time>2016-10-15T11:06:40Z</time></trkpt>
<trkpt lat="53.0853980000" lon="-4.1430810000"><ele>536</ele></trkpt>
<trkpt lat="53.0853950000" lon="-4.1430690000"><ele>536</ele><time>2016-10-15T11:06:41Z</time></trkpt>
<trkpt lat="53.0853910000" lon="-4.1430580000"><ele>536</ele><time>2016-10-15T11:06:42Z</time></trkpt>
<trkpt lat="53.0853870000" lon="-4.1430460000"><ele>535</ele><time>2016-10-15T11:06:43Z</time></trkpt>
<trkpt lat="53.0853840000" lon="-4.1430370000"><ele>535</ele><time>2016-10-15T11:06:44Z</time></trkpt>
<trkpt lat="53.0853800000" lon="-4.1430270000"><ele>535</ele><time>2016-10-15T11:06:45Z</time></trkpt>
<trkpt lat="53.0853760000" lon="-4.1430170000"><ele>535</ele><time>2016-10-15T11:06:46Z</time></trkpt>
<trkpt lat="53.0853710000" lon="-4.1430040000"><ele>534</ele><time>2016-10-15T11:06:47Z</time></trkpt>
<trkpt lat="53.0853660000" lon="-4.1429910000"><ele>534</ele><time>2016-10-15T11:06:48Z</time></trkpt>
<trkpt lat="53.0853620000" lon="-4.1429800000"><ele>534</ele><time>2016-10-15T11:06:49Z</time></trkpt>
<trkpt lat="53.0853570000" lon="-4.1429690000"><ele>534</ele><time>2016-10-15T11:06:50Z</time></trkpt>
<trkpt lat="53.0852640000" lon="-4.1427520000"><ele>533</ele><time>2016-10-15T11:06:51Z</time></trkpt>
<trkpt lat="53.0852570000" lon="-4.1427360000"><ele>533</ele><time>2016-10-15T11:06:52Z</time></trkpt>
<trkpt lat="53.0852520000" lon="-4.1427190000"><ele>533</ele><time>2016-10-15T11:06:53Z</time></trkpt>
<trkpt lat="53.0852490000" lon="-4.1427020000"><ele>533</ele><time>2016-10-15T11:06:54Z</time></trkpt>
<trkpt lat="53.0852460000" lon="-4.1426840000"><ele>532</ele><time>2016-10-15T11:06:55Z</time></trkpt>
<trkpt lat="53.0852410000" lon="-4.1426660000"><ele>532</ele><time>2016-10-15T11:06:56Z</time></trkpt>
<trkpt lat="53.0852410000" lon="-4.1426660000"><ele>532</ele><time>2016-10-15T11:06:57Z</time></trkpt>
<trkpt lat="53.0852410000" lon="-4.1426650000"><ele>532</ele><time>2016-10-15T11:06:58Z</time></trkpt>
<trkpt lat="53.0852410000" lon="-4.1426650000"><ele>531</ele><time>2016-10-15T11:06:59Z</time></trkpt>
<trkpt lat="53.0852410000" lon="-4.1426630000"><ele>531</ele><time>2016-10-15T11:07:00Z</time></trkpt>
<trkpt lat="53.0852400000" lon="-4.1426610000"><ele>531</ele><time>2016-10-15T11:07:01Z</time></trkpt>
<trkpt lat="53.0852390000" lon="-4.1426590000"><ele>531</ele><time>2016-10-15T11:07:02Z</time></trkpt>
<trkpt lat="53.0852380000" lon="-4.1426550000"><ele>530</ele><time>2016-10-15T11:07:03Z</time></trkpt>
<trkpt lat="53.0852370000" lon="-4.1426510000"><ele>530</ele><time>2016-10-15T11:07:04Z</time></trkpt>
<trkpt lat="53.0852350000" lon="-4.1426450000"><ele>530</ele><time>2016-10-15T11:07:05Z</time></trkpt>
<trkpt lat="53.0852340000" lon="-4.1426390000"><ele>530</ele><time>2016-10-15T11:07:06Z</time></trkpt>
<trkpt lat="53.0852320000" lon="-4.1426310000"><ele>529</ele><time>2016-10-15T11:07:07Z</time></trkpt>
<trkpt lat="53.0851850000" lon="-4.1424530000"><ele>529</ele><time>2016-10-15T11:07:08Z</time></trkpt>
<trkpt lat="53.0851810000" lon="-4.1424360000"><ele>529</ele><time>2016-10-15T11:07:09Z</time></trkpt>
<trkpt lat="53.0851770000" lon="-4.1424180000"><ele>528</ele><time>2016-10-15T11:07:10Z</time></trkpt>
<trkpt lat="53.0851720000" lon="-4.1423990000"><ele>528</ele><time>2016-10-15T11:07:11Z</time></trkpt>
<trkpt lat="53.0851650000" lon="-4.1423820000"><ele>528</ele><time>2016-10-15T11:07:12Z</time></trkpt>
<trkpt lat="53.0851570000" lon="-4.1423630000"><ele>528</ele><time>2016-10-15T11:07:13Z</time></trkpt>
<trkpt lat="53.0851510000" lon="-4.1423450000"><ele>527</ele><time>2016-10-15T11:07:14Z</time></trkpt>
<trkpt lat="53.0851460000" lon="-4.1423270000"><ele>527</ele><time>2016-10-15T11:07:15Z</time></trkpt>
<trkpt lat="53.0851400000" lon="-4.1423080000"><ele>527</ele><time>2016-10-15T11:07:16Z</time></trkpt>
<trkpt lat="53.0851340000" lon="-4.1422890000"><ele>527</ele><time>2016-10-15T11:07:17Z</time></trkpt>
<trkpt lat="53.0851270000" lon="-4.1422680000"><ele>527</ele><time>2016-10-15T11:07:18Z</time></trkpt>
<trkpt lat="53.0851190000" lon="-4.1422490000"><ele>526</ele><time>2016-10-15T11:07:19Z</time></trkpt>
<trkpt lat="53.0851120000" lon="-4.1422300000"><ele>526</ele><time>2016-10-15T11:07:20Z</time></trkpt>
<trkpt lat="53.0851060000" lon="-4.1422120000"><ele>526</ele><time>2016-10-15T11:07:21Z</time></trkpt>
<trkpt lat="53.0851000000" lon="-4.1421950000"><ele>526</ele><time>2016-10-15T11:07:22Z</time></trkpt>
<trkpt lat="53.0850930000" lon="-4.1421790000"><ele>526</ele><time>2016-10-15T11:07:23Z</time></trkpt>
<trkpt lat="53.0850870000" lon="-4.1421630000"><ele>526</ele><time>2016-10-15T11:07:24Z</time></trkpt>
<trkpt lat="53.0850810000" lon="-4.1421450000"><ele>526</ele><time>2016-10-15T11:07:25Z</time></trkpt>
<trkpt lat="53.0850750000" lon="-4.1421290000"><ele>526</ele><time>2016-10-15T11:07:26Z</time></trkpt>
<trkpt lat="53.0850690000" lon="-4.1421140000"><ele>526</ele><time>2016-10-15T11:07:27Z</time></trkpt>
<trkpt lat="53.0850690000" lon="-4.1421140000"><ele>526</ele><time>2016-10-15T11:07:28Z</time></trkpt>
<trkpt lat="53.0850690000" lon="-4.1421130000"><ele>526</ele><time>2016-10-15T11:07:29Z</time></trkpt>
<trkpt lat="53.0850690000" lon="-4.1421130000"><ele>526</ele><time>2016-10-15T11:07:30Z</time></trkpt>
<trkpt lat="53.0850690000" lon="-4.1421110000"><ele>527</ele><time>2016-10-15T11:07:31Z</time></trkpt>
<trkpt lat="53.0850680000" lon="-4.1421090000"><ele>527</ele><time>2016-10-15T11:07:32Z</time></trkpt>
<trkpt lat="53.0850670000" lon="-4.1421070000"><ele>527</ele><time>2016-10-15T11:07:33Z</time></trkpt>
<trkpt lat="53.0850660000" lon="-4.1421030000"><ele>527</ele><time>2016-10-15T11:07:34Z</time></trkpt>
<trkpt lat="53.0850650000" lon="-4.1420980000"><ele>527</ele><time>2016-10-15T11:07:35Z</time></trkpt>
<trkpt lat="53.0850640000" lon="-4.1420930000"><ele>527</ele><time>2016-10-15T11:07:36Z</time></trkpt>
<trkpt lat="53.0850630000" lon="-4.1420860000"><ele>527</ele><time>2016-10-15T11:07:37Z</time></trkpt>
<trkpt lat="53.0850620000" lon="-4.1420790000"><ele>528</ele><time>2016-10-15T11:07:38Z</time></trkpt>
<trkpt lat="53.0850600000" lon="-4.1420710000"><ele>528</ele><time>2016-10-15T11:07:40Z</time></trkpt>
<trkpt lat="53.0850590000" lon="-4.1420620000"><ele>528</ele></trkpt>
<trkpt lat="53.0850570000" lon="-4.1420530000"><ele>528</ele><time>2016-10-15T11:07:41Z</time></trkpt>
<trkpt lat="53.0850550000" lon="-4.1420430000"><ele>528</ele><time>2016-10-15T11:07:42Z</time></trkpt>
<trkpt lat="53.0850530000" lon="-4.1420320000"><ele>529</ele><time>2016-10-15T11:07:43Z</time></trkpt>
<trkpt lat="53.0850510000" lon="-4.1420210000"><ele>529</ele><time>2016-10-15T11:07:44Z</time></trkpt>
<trkpt lat="53.0850480000" lon="-4.1420100000"><ele>529</ele><time>2016-10-15T11:07:45Z</time></trkpt>
<trkpt lat="53.0850460000" lon="-4.1419980000"><ele>529</ele><time>2016-10-15T11:07:46Z</time></trkpt>
<trkpt lat="53.0850440000" lon="-4.1419870000"><ele>529</ele><time>2016-10-15T11:07:47Z</time></trkpt>
<trkpt lat="53.0850410000" lon="-4.1419750000"><ele>529</ele><time>2016-10-15T11:07:48Z</time></trkpt>
<trkpt lat="53.0850390000" lon="-4.1419640000"><ele>530</ele><time>2016-10-15T11:07:49Z</time></trkpt>
<trkpt lat="53.0850370000" lon="-4.1419520000"><ele>530</ele><time>2016-10-15T11:07:50Z</time></trkpt>
<trkpt lat="53.0850350000" lon="-4.1419400000"><ele>530</ele><time>2016-10-15T11:07:51Z</time></trkpt>
<trkpt lat="53.0850330000" lon="-4.1419270000"><ele>530</ele><time>2016-10-15T11:07:52Z</time></trkpt>
<trkpt lat="53.0850310000" lon="-4.1419150000"><ele>530</ele><time>2016-10-15T11:07:53Z</time></trkpt>
<trkpt lat="53.0850290000" lon="-4.1419020000"><ele>531</ele><time>2016-10-15T11:07:54Z</time></trkpt>
<trkpt lat="53.0850270000" lon="-4.1418880000"><ele>531</ele><time>2016-10-15T11:07:55Z</time></trkpt>
<trkpt lat="53.0850250000" lon="-4.1418750000"><ele>531</ele><time>2016-10-15T11:07:56Z</time></trkpt>
<trkpt lat="53.0850220000" lon="-4.1418610000"><ele>531</ele><time>2016-10-15T11:07:57Z</time></trkpt>
<trkpt lat="53.0850200000" lon="-4.1418470000"><ele>531</ele><time>2016-10-15T11:07:58Z</time></trkpt>
<trkpt lat="53.0850180000" lon="-4.1418340000"><ele>532</ele><time>2016-10-15T11:07:59Z</time></trkpt>
<trkpt lat="53.0850160000" lon="-4.1418200000"><ele>532</ele><time>2016-10-15T11:08:00Z</time></trkpt>
<trkpt lat="53.0850140000" lon="-4.1418060000"><ele>532</ele><time>2016-10-15T11:08:01Z</time></trkpt>
<trkpt lat="53.0850110000" lon="-4.1417920000"><ele>532</ele><time>2016-10-15T11:08:02Z</time></trkpt>
<trkpt lat="53.0850090000" lon="-4.1417770000"><ele>532</ele><time>2016-10-15T11:08:03Z</time></trkpt>
<trkpt lat="53.0850070000" lon="-4.1417630000"><ele>533</ele><time>2016-10-15T11:08:04Z</time></trkpt>
<trkpt lat="53.0850040000" lon="-4.1417490000"><ele>533</ele><time>2016-10-15T11:08:05Z</time></trkpt>
<trkpt lat="53.0850010000" lon="-4.1417350000"><ele>533</ele><time>2016-10-15T11:08:06Z</time></trkpt>
<trkpt lat="53.0849990000" lon="-4.1417210000"><ele>533</ele><time>2016-10-15T11:08:07Z</time></trkpt>
<trkpt lat="53.0849960000" lon="-4.1417070000"><ele>534</ele><time>2016-10-15T11:08:08Z</time></trkpt>
<trkpt lat="53.0849930000" lon="-4.1416930000"><ele>534</ele><time>2016-10-15T11:08:09Z</time></trkpt>
<trkpt lat="53.0849900000" lon="-4.1416790000"><ele>534</ele><time>2016-10-15T11:08:10Z</time></trkpt>
<trkpt lat="53.0849880000" lon="-4.1416650000"><ele>534</ele><time>2016-10-15T11:08:11Z</time></trkpt>
<trkpt lat="53.0849850000" lon="-4.1416510000"><ele>535</ele><time>2016-10-15T11:08:12Z</time></trkpt>
<trkpt lat="53.0849820000" lon="-4.1416370000"><ele>535</ele><time>2016-10-15T11:08:13Z</time></trkpt>
<trkpt lat="53.0849790000" lon="-4.1416230000"><ele>535</ele><time>2016-10-15T11:08:14Z</time></trkpt>
<trkpt lat="53.0849760000" lon="-4.1416090000"><ele>535</ele><time>2016-10-15T11:08:15Z</time></trkpt>
<trkpt lat="53.0849730000" lon="-4.1415950000"><ele>535</ele><time>2016-10-15T11:08:16Z</time></trkpt>
<trkpt lat="53.0849700000" lon="-4.1415810000"><ele>536</ele><time>2016-10-15T11:08:17Z</time></trkpt>
<trkpt lat="53.0849670000" lon="-4.1415660000"><ele>536</ele><time>2016-10-15T11:08:18Z</time></trkpt>
<trkpt lat="53.0849640000" lon="-4.1415520000"><ele>536</ele><time>2016-10-15T11:08:19Z</time></trkpt>
<trkpt lat="53.0849610000" lon="-4.1415380000"><ele>536</ele><time>2016-10-15T11:08:20Z</time></trkpt>
<trkpt lat="53.0849580000" lon="-4.1415230000"><ele>537</ele><time>2016-10-15T11:08:21Z</time></trkpt>
<trkpt lat="53.0849550000" lon="-4.1415090000"><ele>537</ele><time>2016-10-15T11:08:22Z</time></trkpt>
<trkpt lat="53.0849520000" lon="-4.1414940000"><ele>537</ele><time>2016-10-15T11:08:23Z</time></trkpt>
<trkpt lat="53.0849500000" lon="-4.1414790000"><ele>537</ele><time>2016-10-15T11:08:24Z</time></trkpt>
<trkpt lat="53.0849470000" lon="-4.1414650000"><ele>538</ele><time>2016-10-15T11:08:25Z</time></trkpt>
<trkpt lat="53.0849440000" lon="-4.1414510000"><ele>538</ele><time>2016-10-15T11:08:26Z</time></trkpt>
<trkpt lat="53.0849420000" lon="-4.1414370000"><ele>538</ele><time>2016-10-15T11:08:27Z</time></trkpt>
<trkpt lat="53.0849390000" lon="-4.1414230000"><ele>538</ele><time>2016-10-15T11:08:28Z</time></trkpt>
<trkpt lat="53.0849370000" lon="-4.1414090000"><ele>539</ele><time>2016-10-15T11:08:29Z</time></trkpt>
<trkpt lat="53.0849340000" lon="-4.1413960000"><ele>539</ele><time>2016-10-15T11:08:30Z</time></trkpt>
<trkpt lat="53.0849320000" lon="-4.1413850000"><ele>539</ele><time>2016-10-15T11:08:31Z</time></trkpt>
<trkpt lat="53.0849300000" lon="-4.1413710000"><ele>539</ele><time>2016-10-15T11:08:32Z</time></trkpt>
<trkpt lat="53.0849270000" lon="-4.1413580000"><ele>540</ele><time>2016-10-15T11:08:33Z</time></trkpt>
<trkpt lat="53.0849250000" lon="-4.1413450000"><ele>540</ele><time>2016-10-15T11:08:34Z</time></trkpt>
<trkpt lat="53.0849230000" lon="-4.1413320000"><ele>540</ele><time>2016-10-15T11:08:35Z</time></trkpt>
<trkpt lat="53.0849210000" lon="-4.1413190000"><ele>540</ele><time>2016-10-15T11:08:36Z</time></trkpt>
<trkpt lat="53.0849190000" lon="-4.1413060000"><ele>541</ele><time>2016-10-15T11:08:37Z</time></trkpt>
<trkpt lat="53.0849170000" lon="-4.1412920000"><ele>541</ele><time>2016-10-15T11:08:38Z</time></trkpt>
<trkpt lat="53.0849150000" lon="-4.1412790000"><ele>541</ele><time>2016-10-15T11:08:40Z</time></trkpt>
<trkpt lat="53.0849130000" lon="-4.1412660000"><ele>541</ele></trkpt>
<trkpt lat="53.0849110000" lon="-4.1412530000"><ele>542</ele><time>2016-10-15T11:08:41Z</time></trkpt>
<trkpt lat="53.0849090000" lon="-4.1412400000"><ele>542</ele><time>2016-10-15T11:08:42Z</time></trkpt>
<trkpt lat="53.0849070000" lon="-4.1412260000"><ele>542</ele><time>2016-10-15T11:08:43Z</time></trkpt>
<trkpt lat="53.0849040000" lon="-4.1412120000"><ele>542</ele><time>2016-10-15T11:08:44Z</time></trkpt>
<trkpt lat="53.0849020000" lon="-4.1411990000"><ele>542</ele><time>2016-10-15T11:08:45Z</time></trkpt>
<trkpt lat="53.0849000000" lon="-4.1411850000"><ele>543</ele><time>2016-10-15T11:08:46Z</time></trkpt>
<trkpt lat="53.0848970000" lon="-4.1411710000"><ele>543</ele><time>2016-10-15T11:08:47Z</time></trkpt>
<trkpt lat="53.0848950000" lon="-4.1411570000"><ele>543</ele><time>2016-10-15T11:08:48Z</time></trkpt>
<trkpt lat="53.0848930000" lon="-4.1411430000"><ele>543</ele><time>2016-10-15T11:08:49Z</time></trkpt>
<trkpt lat="53.0848910000" lon="-4.1411290000"><ele>544</ele><time>2016-10-15T11:08:50Z</time></trkpt>
<trkpt lat="53.0848890000" lon="-4.1411160000"><ele>544</ele><time>2016-10-15T11:08:51Z</time></trkpt>
<trkpt lat="53.0848870000" lon="-4.1411020000"><ele>544</ele><time>2016-10-15T11:08:52Z</time></trkpt>
<trkpt lat="53.0848840000" lon="-4.1410890000"><ele>544</ele><time>2016-10-15T11:08:53Z</time></trkpt>
<trkpt lat="53.0848820000" lon="-4.1410750000"><ele>544</ele><time>2016-10-15T11:08:54Z</time></trkpt>
<trkpt lat="53.0848800000" lon="-4.1410620000"><ele>545</ele><time>2016-10-15T11:08:55Z</time></trkpt>
<trkpt lat="53.0848780000" lon="-4.1410480000"><ele>545</ele><time>2016-10-15T11:08:56Z</time></trkpt>
<trkpt lat="53.0848760000" lon="-4.1410350000"><ele>545</ele><time>2016-10-15T11:08:57Z</time></trkpt>
<trkpt lat="53.0848730000" lon="-4.1410220000"><ele>545</ele><time>2016-10-15T11:08:58Z</time></trkpt>
<trkpt lat="53.0848710000" lon="-4.1410090000"><ele>546</ele><time>2016-10-15T11:08:59Z</time></trkpt>
<trkpt lat="53.0848690000" lon="-4.1409960000"><ele>546</ele><time>2016-10-15T11:09:00Z</time></trkpt>
<trkpt lat="53.0848670000" lon="-4.1409840000"><ele>546</ele><time>2016-10-15T11:09:01Z</time></trkpt>
<trkpt lat="53.0848650000" lon="-4.1409710000"><ele>546</ele><time>2016-10-15T11:09:02Z</time></trkpt>
<trkpt lat="53.0848630000" lon="-4.1409580000"><ele>547</ele><time>2016-10-15T11:09:03Z</time></trkpt>
<trkpt lat="53.0848610000" lon="-4.1409460000"><ele>547</ele><time>2016-10-15T11:09:04Z</time></trkpt>
<trkpt lat="53.0848590000" lon="-4.1409340000"><ele>547</ele><time>2016-10-15T11:09:05Z</time></trkpt>
<trkpt lat="53.0848560000" lon="-4.1409220000"><ele>547</ele><time>2016-10-15T11:09:06Z</time></trkpt>
<trkpt lat="53.0848540000" lon="-4.1409100000"><ele>547</ele><time>2016-10-15T11:09:07Z</time></trkpt>
<trkpt lat="53.0848520000" lon="-4.1408980000"><ele>548</ele><time>2016-10-15T11:09:08Z</time></trkpt>
<trkpt lat="53.0848500000" lon="-4.1408850000"><ele>548</ele><time>2016-10-15T11:09:09Z</time></trkpt>
<trkpt lat="53.0848480000" lon="-4.1408730000"><ele>548</ele><time>2016-10-15T11:09:10Z</time></trkpt>
<trkpt lat="53.0848460000" lon="-4.1408600000"><ele>548</ele><time>2016-10-15T11:09:11Z</time></trkpt>
<trkpt lat="53.0848430000" lon="-4.1408480000"><ele>549</ele><time>2016-10-15T11:09:12Z</time></trkpt>
<trkpt lat="53.0848410000" lon="-4.1408350000"><ele>549</ele><time>2016-10-15T11:09:13Z</time></trkpt>
<trkpt lat="53.0848380000" lon="-4.1408230000"><ele>549</ele><time>2016-10-15T11:09:14Z</time></trkpt>
<trkpt lat="53.0848360000" lon="-4.1408100000"><ele>549</ele><time>2016-10-15T11:09:15Z</time></trkpt>
<trkpt lat="53.0848330000" lon="-4.1407980000"><ele>549</ele><time>2016-10-15T11:09:16Z</time></trkpt>
<trkpt lat="53.0848300000" lon="-4.1407850000"><ele>550</ele><time>2016-10-15T11:09:17Z</time></trkpt>
<trkpt lat="53.0848280000" lon="-4.1407720000"><ele>550</ele><time>2016-10-15T11:09:18Z</time></trkpt>
<trkpt lat="53.0848250000" lon="-4.1407600000"><ele>550</ele><time>2016-10-15T11:09:19Z</time></trkpt>
<trkpt lat="53.0848220000" lon="-4.1407470000"><ele>551</ele><time>2016-10-15T11:09:20Z</time></trkpt>
<trkpt lat="53.0848200000" lon="-4.1407350000"><ele>551</ele><time>2016-10-15T11:09:21Z</time></trkpt>
<trkpt lat="53.0848170000" lon="-4.1407220000"><ele>551</ele><time>2016-10-15T11:09:22Z</time></trkpt>
<trkpt lat="53.0848150000" lon="-4.1407100000"><ele>551</ele><time>2016-10-15T11:09:23Z</time></trkpt>
<trkpt lat="53.0848120000" lon="-4.1406970000"><ele>552</ele><time>2016-10-15T11:09:24Z</time></trkpt>
<trkpt lat="53.0848100000" lon="-4.1406840000"><ele>552</ele><time>2016-10-15T11:09:25Z</time></trkpt>
<trkpt lat="53.0848080000" lon="-4.1406720000"><ele>552</ele><time>2016-10-15T11:09:26Z</time></trkpt>
<trkpt lat="53.0848050000" lon="-4.1406590000"><ele>552</ele><time>2016-10-15T11:09:27Z</time></trkpt>
<trkpt lat="53.0848030000" lon="-4.1406470000"><ele>553</ele><time>2016-10-15T11:09:28Z</time></trkpt>
<trkpt lat="53.0848000000" lon="-4.1406340000"><ele>553</ele><time>2016-10-15T11:09:29Z</time></trkpt>
<trkpt lat="53.0847980000" lon="-4.1406210000"><ele>553</ele><time>2016-10-15T11:09:30Z</time></trkpt>
<trkpt lat="53.0847950000" lon="-4.1406090000"><ele>553</ele><time>2016-10-15T11:09:31Z</time></trkpt>
<trkpt lat="53.0847930000" lon="-4.1405960000"><ele>554</ele><time>2016-10-15T11:09:32Z</time></trkpt>
<trkpt lat="53.0847910000" lon="-4.1405830000"><ele>554</ele><time>2016-10-15T11:09:33Z</time></trkpt>
<trkpt lat="53.0847880000" lon="-4.1405710000"><ele>554</ele><time>2016-10-15T11:09:34Z</time></trkpt>
<trkpt lat="53.0847860000" lon="-4.1405580000"><ele>554</ele><time>2016-10-15T11:09:35Z</time></trkpt>
<trkpt lat="53.0847840000" lon="-4.1405450000"><ele>554</ele><time>2016-10-15T11:09:36Z</time></trkpt>
<trkpt lat="53.0847830000" lon="-4.1405330000"><ele>555</ele><time>2016-10-15T11:09:37Z</time></trkpt>
<trkpt lat="53.0847810000" lon="-4.1405210000"><ele>555</ele><time>2016-10-15T11:09:38Z</time></trkpt>
<trkpt lat="53.0847790000" lon="-4.1405090000"><ele>555</ele><time>2016-10-15T11:09:40Z</time></trkpt>
<trkpt lat="53.0847780000" lon="-4.1404970000"><ele>555</ele></trkpt>
<trkpt lat="53.0847760000" lon="-4.1404850000"><ele>556</ele><time>2016-10-15T11:09:41Z</time></trkpt>
<trkpt lat="53.0847750000" lon="-4.1404730000"><ele>556</ele><time>2016-10-15T11:09:42Z</time></trkpt>
<trkpt lat="53.0847730000" lon="-4.1404610000"><ele>556</ele><time>2016-10-15T11:09:43Z</time></trkpt>
<trkpt lat="53.0847720000" lon="-4.1404500000"><ele>556</ele><time>2016-10-15T11:09:44Z</time></trkpt>
<trkpt lat="53.0847710000" lon="-4.1404380000"><ele>556</ele><time>2016-10-15T11:09:45Z</time></trkpt>
<trkpt lat="53.0847690000" lon="-4.1404260000"><ele>556</ele><time>2016-10-15T11:09:46Z</time></trkpt>
<trkpt lat="53.0847680000" lon="-4.1404140000"><ele>557</ele><time>2016-10-15T11:09:47Z</time></trkpt>
<trkpt lat="53.0847660000" lon="-4.1404020000"><ele>557</ele><time>2016-10-15T11:09:48Z</time></trkpt>
<trkpt lat="53.0847650000" lon="-4.1403900000"><ele>557</ele><time>2016-10-15T11:09:49Z</time></trkpt>
<trkpt lat="53.0847630000" lon="-4.1403780000"><ele>557</ele><time>2016-10-15T11:09:50Z</time></trkpt>
<trkpt lat="53.0847620000" lon="-4.1403660000"><ele>558</ele><time>2016-10-15T11:09:51Z</time></trkpt>
<trkpt lat="53.0847610000" lon="-4.1403540000"><ele>558</ele><time>2016-10-15T11:09:52Z</time></trkpt>
<trkpt lat="53.0847590000" lon="-4.1403430000"><ele>558</ele><time>2016-10-15T11:09:53Z</time></trkpt>
<trkpt lat="53.0847580000" lon="-4.1403310000"><ele>558</ele><time>2016-10-15T11:09:54Z</time></trkpt>
<trkpt lat="53.0847570000" lon="-4.1403200000"><ele>558</ele><time>2016-10-15T11:09:55Z</time></trkpt>
<trkpt lat="53.0847570000" lon="-4.1403080000"><ele>559</ele><time>2016-10-15T11:09:56Z</time></trkpt>
<trkpt lat="53.0847560000" lon="-4.1402960000"><ele>559</ele><time>2016-10-15T11:09:57Z</time></trkpt>
<trkpt lat="53.0847560000" lon="-4.1402850000"><ele>559</ele><time>2016-10-15T11:09:58Z</time></trkpt>
<trkpt lat="53.0847560000" lon="-4.1402730000"><ele>559</ele><time>2016-10-15T11:09:59Z</time></trkpt>
<trkpt lat="53.0847560000" lon="-4.1402610000"><ele>560</ele><time>2016-10-15T11:10:00Z</time></trkpt>
<trkpt lat="53.0847560000" lon="-4.1402490000"><ele>560</ele><time>2016-10-15T11:10:01Z</time></trkpt>
<trkpt lat="53.0847560000" lon="-4.1402370000"><ele>560</ele><time>2016-10-15T11:10:02Z</time></trkpt>
<trkpt lat="53.0847570000" lon="-4.1402250000"><ele>560</ele><time>2016-10-15T11:10:03Z</time></trkpt>
<trkpt lat="53.0847570000" lon="-4.1402130000"><ele>560</ele><time>2016-10-15T11:10:04Z</time></trkpt>
<trkpt lat="53.0847580000" lon="-4.1402010000"><ele>560</ele><time>2016-10-15T11:10:05Z</time></trkpt>
<trkpt lat="53.0847590000" lon="-4.1401890000"><ele>560</ele><time>2016-10-15T11:10:06Z</time></trkpt>
<trkpt lat="53.0847600000" lon="-4.1401770000"><ele>561</ele><time>2016-10-15T11:10:07Z</time></trkpt>
<trkpt lat="53.0847620000" lon="-4.1401650000"><ele>561</ele><time>2016-10-15T11:10:08Z</time></trkpt>
<trkpt lat="53.0847640000" lon="-4.1401530000"><ele>561</ele><time>2016-10-15T11:10:09Z</time></trkpt>
<trkpt lat="53.0847660000" lon="-4.1401420000"><ele>561</ele><time>2016-10-15T11:10:10Z</time></trkpt>
<trkpt lat="53.0847690000" lon="-4.1401300000"><ele>561</ele><time>2016-10-15T11:10:11Z</time></trkpt>
<trkpt lat="53.0847710000" lon="-4.1401180000"><ele>561</ele><time>2016-10-15T11:10:12Z</time></trkpt>
<trkpt lat="53.0847740000" lon="-4.1401060000"><ele>561</ele><time>2016-10-15T11:10:13Z</time></trkpt>
<trkpt lat="53.0847770000" lon="-4.1400940000"><ele>562</ele><time>2016-10-15T11:10:14Z</time></trkpt>
<trkpt lat="53.0847800000" lon="-4.1400820000"><ele>562</ele><time>2016-10-15T11:10:15Z</time></trkpt>
<trkpt lat="53.0847820000" lon="-4.1400700000"><ele>562</ele><time>2016-10-15T11:10:16Z</time></trkpt>
<trkpt lat="53.0847850000" lon="-4.1400580000"><ele>562</ele><time>2016-10-15T11:10:17Z</time></trkpt>
<trkpt lat="53.0847870000" lon="-4.1400460000"><ele>562</ele><time>2016-10-15T11:10:18Z</time></trkpt>
<trkpt lat="53.0847900000" lon="-4.1400330000"><ele>563</ele><time>2016-10-15T11:10:19Z</time></trkpt>
<trkpt lat="53.0847920000" lon="-4.1400200000"><ele>563</ele><time>2016-10-15T11:10:20Z</time></trkpt>
<trkpt lat="53.0847940000" lon="-4.1400070000"><ele>563</ele><time>2016-10-15T11:10:21Z</time></trkpt>
<trkpt lat="53.0847960000" lon="-4.1399940000"><ele>563</ele><time>2016-10-15T11:10:22Z</time></trkpt>
<trkpt lat="53.0847980000" lon="-4.1399810000"><ele>563</ele><time>2016-10-15T11:10:23Z</time></trkpt>
<trkpt lat="53.0847990000" lon="-4.1399680000"><ele>564</ele><time>2016-10-15T11:10:24Z</time></trkpt>
<trkpt lat="53.0848010000" lon="-4.1399550000"><ele>564</ele><time>2016-10-15T11:10:25Z</time></trkpt>
<trkpt lat="53.0848020000" lon="-4.1399410000"><ele>564</ele><time>2016-10-15T11:10:26Z</time></trkpt>
<trkpt lat="53.0848030000" lon="-4.1399280000"><ele>565</ele><time>2016-10-15T11:10:27Z</time></trkpt>
<trkpt lat="53.0848040000" lon="-4.1399140000"><ele>565</ele><time>2016-10-15T11:10:28Z</time></trkpt>
<trkpt lat="53.0848060000" lon="-4.1399010000"><ele>565</ele><time>2016-10-15T11:10:29Z</time></trkpt>
<trkpt lat="53.0848070000" lon="-4.1398880000"><ele>565</ele><time>2016-10-15T11:10:30Z</time></trkpt>
<trkpt lat="53.0848080000" lon="-4.1398750000"><ele>565</ele><time>2016-10-15T11:10:31Z</time></trkpt>
<trkpt lat="53.0848090000" lon="-4.1398620000"><ele>566</ele><time>2016-10-15T11:10:32Z</time></trkpt>
<trkpt lat="53.0848110000" lon="-4.1398480000"><ele>566</ele><time>2016-10-15T11:10:33Z</time></trkpt>
<trkpt lat="53.0848120000" lon="-4.1398350000"><ele>566</ele><time>2016-10-15T11:10:34Z</time></trkpt>
<trkpt lat="53.0848130000" lon="-4.1398220000"><ele>566</ele><time>2016-10-15T11:10:35Z</time></trkpt>
<trkpt lat="53.0848150000" lon="-4.1398100000"><ele>566</ele><time>2016-10-15T11:10:36Z</time></trkpt>
<trkpt lat="53.0848160000" lon="-4.1397970000"><ele>566</ele><time>2016-10-15T11:10:37Z</time></trkpt>
<trkpt lat="53.0848180000" lon="-4.1397850000"><ele>566</ele><time>2016-10-15T11:10:38Z</time></trkpt>
<trkpt lat="53.0848190000" lon="-4.1397720000"><ele>567</ele><time>2016-10-15T11:10:40Z</time></trkpt>
<trkpt lat="53.0848210000" lon="-4.1397590000"><ele>567</ele></trkpt>
<trkpt lat="53.0848230000" lon="-4.1397460000"><ele>567</ele><time>2016-10-15T11:10:41Z</time></trkpt>
<trkpt lat="53.0848250000" lon="-4.1397330000"><ele>567</ele><time>2016-10-15T11:10:42Z</time></trkpt>
<trkpt lat="53.0848260000" lon="-4.1397200000"><ele>567</ele><time>2016-10-15T11:10:43Z</time></trkpt>
<trkpt lat="53.0848280000" lon="-4.1397070000"><ele>567</ele><time>2016-10-15T11:10:44Z</time></trkpt>
<trkpt lat="53.0848290000" lon="-4.1396940000"><ele>567</ele><time>2016-10-15T11:10:45Z</time></trkpt>
<trkpt lat="53.0848300000" lon="-4.1396810000"><ele>567</ele><time>2016-10-15T11:10:46Z</time></trkpt>
<trkpt lat="53.0848300000" lon="-4.1396680000"><ele>567</ele><time>2016-10-15T11:10:47Z</time></trkpt>
<trkpt lat="53.0848310000" lon="-4.1396560000"><ele>567</ele><time>2016-10-15T11:10:48Z</time></trkpt>
<trkpt lat="53.0848320000" lon="-4.1396430000"><ele>568</ele><time>2016-10-15T11:10:49Z</time></trkpt>
<trkpt lat="53.0848330000" lon="-4.1396300000"><ele>568</ele><time>2016-10-15T11:10:50Z</time></trkpt>
<trkpt lat="53.0848350000" lon="-4.1396180000"><ele>568</ele><time>2016-10-15T11:10:51Z</time></trkpt>
<trkpt lat="53.0848360000" lon="-4.1396050000"><ele>568</ele><time>2016-10-15T11:10:52Z</time></trkpt>
<trkpt lat="53.0848370000" lon="-4.1395920000"><ele>568</ele><time>2016-10-15T11:10:53Z</time></trkpt>
<trkpt lat="53.0848380000" lon="-4.1395800000"><ele>568</ele><time>2016-10-15T11:10:54Z</time></trkpt>
<trkpt lat="53.0848390000" lon="-4.1395670000"><ele>569</ele><time>2016-10-15T11:10:55Z</time></trkpt>
<trkpt lat="53.0848400000" lon="-4.1395550000"><ele>569</ele><time>2016-10-15T11:10:56Z</time></trkpt>
<trkpt lat="53.0848410000" lon="-4.1395440000"><ele>569</ele><time>2016-10-15T11:10:57Z</time></trkpt>
<trkpt lat="53.0848410000" lon="-4.1395340000"><ele>569</ele><time>2016-10-15T11:10:58Z</time></trkpt>
<trkpt lat="53.0848420000" lon="-4.1395230000"><ele>569</ele><time>2016-10-15T11:10:59Z</time></trkpt>
<trkpt lat="53.0848420000" lon="-4.1395120000"><ele>570</ele><time>2016-10-15T11:11:00Z</time></trkpt>
<trkpt lat="53.0848420000" lon="-4.1395010000"><ele>570</ele><time>2016-10-15T11:11:01Z</time></trkpt>
<trkpt lat="53.0848430000" lon="-4.1394870000"><ele>570</ele><time>2016-10-15T11:11:02Z</time></trkpt>
<trkpt lat="53.0848440000" lon="-4.1394760000"><ele>570</ele><time>2016-10-15T11:11:03Z</time></trkpt>
<trkpt lat="53.0848440000" lon="-4.1394610000"><ele>570</ele><time>2016-10-15T11:11:04Z</time></trkpt>
<trkpt lat="53.0848450000" lon="-4.1394470000"><ele>571</ele><time>2016-10-15T11:11:05Z</time></trkpt>
<trkpt lat="53.0848460000" lon="-4.1394330000"><ele>571</ele><time>2016-10-15T11:11:06Z</time></trkpt>
<trkpt lat="53.0848460000" lon="-4.1394190000"><ele>571</ele><time>2016-10-15T11:11:07Z</time></trkpt>
<trkpt lat="53.0848470000" lon="-4.1394050000"><ele>571</ele><time>2016-10-15T11:11:08Z</time></trkpt>
<trkpt lat="53.0848480000" lon="-4.1393910000"><ele>571</ele><time>2016-10-15T11:11:09Z</time></trkpt>
<trkpt lat="53.0848500000" lon="-4.1393770000"><ele>572</ele><time>2016-10-15T11:11:10Z</time></trkpt>
<trkpt lat="53.0848510000" lon="-4.1393630000"><ele>572</ele><time>2016-10-15T11:11:11Z</time></trkpt>
<trkpt lat="53.0848520000" lon="-4.1393490000"><ele>572</ele><time>2016-10-15T11:11:12Z</time></trkpt>
<trkpt lat="53.0848530000" lon="-4.1393350000"><ele>572</ele><time>2016-10-15T11:11:13Z</time></trkpt>
<trkpt lat="53.0848550000" lon="-4.1393210000"><ele>572</ele><time>2016-10-15T11:11:14Z</time></trkpt>
<trkpt lat="53.0848560000" lon="-4.1393070000"><ele>573</ele><time>2016-10-15T11:11:15Z</time></trkpt>
<trkpt lat="53.0848580000" lon="-4.1392930000"><ele>573</ele><time>2016-10-15T11:11:16Z</time></trkpt>
<trkpt lat="53.0848590000" lon="-4.1392780000"><ele>573</ele><time>2016-10-15T11:11:17Z</time></trkpt>
<trkpt lat="53.0848610000" lon="-4.1392640000"><ele>573</ele><time>2016-10-15T11:11:18Z</time></trkpt>
<trkpt lat="53.0848620000" lon="-4.1392500000"><ele>573</ele><time>2016-10-15T11:11:19Z</time></trkpt>
<trkpt lat="53.0848630000" lon="-4.1392360000"><ele>574</ele><time>2016-10-15T11:11:20Z</time></trkpt>
<trkpt lat="53.0848640000" lon="-4.1392220000"><ele>574</ele><time>2016-10-15T11:11:21Z</time></trkpt>
<trkpt lat="53.0848650000" lon="-4.1392080000"><ele>574</ele><time>2016-10-15T11:11:22Z</time></trkpt>
<trkpt lat="53.0848660000" lon="-4.1391940000"><ele>574</ele><time>2016-10-15T11:11:23Z</time></trkpt>
<trkpt lat="53.0848670000" lon="-4.1391810000"><ele>575</ele><time>2016-10-15T11:11:24Z</time></trkpt>
<trkpt lat="53.0848670000" lon="-4.1391670000"><ele>575</ele><time>2016-10-15T11:11:25Z</time></trkpt>
<trkpt lat="53.0848680000" lon="-4.1391530000"><ele>575</ele><time>2016-10-15T11:11:26Z</time></trkpt>
<trkpt lat="53.0848680000" lon="-4.1391390000"><ele>575</ele><time>2016-10-15T11:11:27Z</time></trkpt>
<trkpt lat="53.0848680000" lon="-4.1391250000"><ele>575</ele><time>2016-10-15T11:11:28Z</time></trkpt>
<trkpt lat="53.0848690000" lon="-4.1391100000"><ele>576</ele><time>2016-10-15T11:11:29Z</time></trkpt>
<trkpt lat="53.0848690000" lon="-4.1390950000"><ele>576</ele><time>2016-10-15T11:11:30Z</time></trkpt>
<trkpt lat="53.0848690000" lon="-4.1390790000"><ele>576</ele><time>2016-10-15T11:11:31Z</time></trkpt>
<trkpt lat="53.0848690000" lon="-4.1390640000"><ele>576</ele><time>2016-10-15T11:11:32Z</time></trkpt>
<trkpt lat="53.0848750000" lon="-4.1388410000"><ele>577</ele><time>2016-10-15T11:11:33Z</time></trkpt>
<trkpt lat="53.0848780000" lon="-4.1388240000"><ele>577</ele><time>2016-10-15T11:11:34Z</time></trkpt>
<trkpt lat="53.0848780000" lon="-4.1388070000"><ele>577</ele><time>2016-10-15T11:11:35Z</time></trkpt>
<trkpt lat="53.0848780000" lon="-4.1387900000"><ele>577</ele><time>2016-10-15T11:11:36Z</time></trkpt>
<trkpt lat="53.0848790000" lon="-4.1387730000"><ele>577</ele><time>2016-10-15T11:11:37Z</time></trkpt>
<trkpt lat="53.0848790000" lon="-4.1387550000"><ele>578</ele><time>2016-10-15T11:11:38Z</time></trkpt>
<trkpt lat="53.0848790000" lon="-4.1387360000"><ele>578</ele><time>2016-10-15T11:11:40Z</time></trkpt>
<trkpt lat="53.0848800000" lon="-4.1387190000"><ele>578</ele></trkpt>
<trkpt lat="53.0848820000" lon="-4.1387030000"><ele>578</ele><time>2016-10-15T11:11:41Z</time></trkpt>
<trkpt lat="53.0848820000" lon="-4.1387030000"><ele>578</ele><time>2016-10-15T11:11:42Z</time></trkpt>
<trkpt lat="53.0848820000" lon="-4.1387020000"><ele>578</ele><time>2016-10-15T11:11:43Z</time></trkpt>
<trkpt lat="53.0848820000" lon="-4.1387010000"><ele>578</ele><time>2016-10-15T11:11:44Z</time></trkpt>
<trkpt lat="53.0848820000" lon="-4.1387000000"><ele>579</ele><time>2016-10-15T11:11:45Z</time></trkpt>
<trkpt lat="53.0848820000" lon="-4.1386980000"><ele>579</ele><time>2016-10-15T11:11:46Z</time></trkpt>
<trkpt lat="53.0848820000" lon="-4.1386950000"><ele>579</ele><time>2016-10-15T11:11:47Z</time></trkpt>
<trkpt lat="53.0848830000" lon="-4.1386910000"><ele>579</ele><time>2016-10-15T11:11:48Z</time></trkpt>
<trkpt lat="53.0848830000" lon="-4.1386860000"><ele>579</ele><time>2016-10-15T11:11:49Z</time></trkpt>
<trkpt lat="53.0848830000" lon="-4.1386810000"><ele>579</ele><time>2016-10-15T11:11:50Z</time></trkpt>
<trkpt lat="53.0848830000" lon="-4.1386750000"><ele>579</ele><time>2016-10-15T11:11:51Z</time></trkpt>
<trkpt lat="53.0848840000" lon="-4.1386680000"><ele>579</ele><time>2016-10-15T11:11:52Z</time></trkpt>
<trkpt lat="53.0848840000" lon="-4.1386610000"><ele>580</ele><time>2016-10-15T11:11:53Z</time></trkpt>
<trkpt lat="53.0848840000" lon="-4.1386530000"><ele>580</ele><time>2016-10-15T11:11:54Z</time></trkpt>
<trkpt lat="53.0848850000" lon="-4.1386410000"><ele>580</ele><time>2016-10-15T11:11:55Z</time></trkpt>
<trkpt lat="53.0848850000" lon="-4.1386300000"><ele>580</ele><time>2016-10-15T11:11:56Z</time></trkpt>
<trkpt lat="53.0848850000" lon="-4.1386180000"><ele>580</ele><time>2016-10-15T11:11:57Z</time></trkpt>
<trkpt lat="53.0848850000" lon="-4.1386050000"><ele>581</ele><time>2016-10-15T11:11:58Z</time></trkpt>
<trkpt lat="53.0848860000" lon="-4.1385920000"><ele>581</ele><time>2016-10-15T11:11:59Z</time></trkpt>
<trkpt lat="53.0848860000" lon="-4.1385800000"><ele>581</ele><time>2016-10-15T11:12:00Z</time></trkpt>
<trkpt lat="53.0848860000" lon="-4.1385670000"><ele>581</ele><time>2016-10-15T11:12:01Z</time></trkpt>
<trkpt lat="53.0848870000" lon="-4.1385540000"><ele>581</ele><time>2016-10-15T11:12:02Z</time></trkpt>
<trkpt lat="53.0848870000" lon="-4.1385410000"><ele>582</ele><time>2016-10-15T11:12:03Z</time></trkpt>
<trkpt lat="53.0848870000" lon="-4.1385280000"><ele>582</ele><time>2016-10-15T11:12:04Z</time></trkpt>
<trkpt lat="53.0848880000" lon="-4.1385140000"><ele>582</ele><time>2016-10-15T11:12:05Z</time></trkpt>
<trkpt lat="53.0848880000" lon="-4.1385010000"><ele>582</ele><time>2016-10-15T11:12:06Z</time></trkpt>
<trkpt lat="53.0848880000" lon="-4.1384880000"><ele>582</ele><time>2016-10-15T11:12:07Z</time></trkpt>
<trkpt lat="53.0848890000" lon="-4.1384740000"><ele>583</ele><time>2016-10-15T11:12:08Z</time></trkpt>
<trkpt lat="53.0848890000" lon="-4.1384610000"><ele>583</ele><time>2016-10-15T11:12:09Z</time></trkpt>
<trkpt lat="53.0848900000" lon="-4.1384480000"><ele>583</ele><time>2016-10-15T11:12:10Z</time></trkpt>
<trkpt lat="53.0848900000" lon="-4.1384370000"><ele>583</ele><time>2016-10-15T11:12:11Z</time></trkpt>
<trkpt lat="53.0848910000" lon="-4.1384230000"><ele>583</ele><time>2016-10-15T11:12:12Z</time></trkpt>
<trkpt lat="53.0848920000" lon="-4.1384090000"><ele>584</ele><time>2016-10-15T11:12:13Z</time></trkpt>
<trkpt lat="53.0848930000" lon="-4.1383940000"><ele>584</ele><time>2016-10-15T11:12:14Z</time></trkpt>
<trkpt lat="53.0848950000" lon="-4.1383800000"><ele>584</ele><time>2016-10-15T11:12:15Z</time></trkpt>
<trkpt lat="53.0848960000" lon="-4.1383660000"><ele>584</ele><time>2016-10-15T11:12:16Z</time></trkpt>
<trkpt lat="53.0848970000" lon="-4.1383520000"><ele>585</ele><time>2016-10-15T11:12:17Z</time></trkpt>
<trkpt lat="53.0848980000" lon="-4.1383380000"><ele>585</ele><time>2016-10-15T11:12:18Z</time></trkpt>
<trkpt lat="53.0849000000" lon="-4.1383240000"><ele>585</ele><time>2016-10-15T11:12:19Z</time></trkpt>
<trkpt lat="53.0849020000" lon="-4.1383100000"><ele>585</ele><time>2016-10-15T11:12:20Z</time></trkpt>
<trkpt lat="53.0849030000" lon="-4.1382960000"><ele>585</ele><time>2016-10-15T11:12:21Z</time></trkpt>
<trkpt lat="53.0849050000" lon="-4.1382820000"><ele>586</ele><time>2016-10-15T11:12:22Z</time></trkpt>
<trkpt lat="53.0849070000" lon="-4.1382690000"><ele>586</ele><time>2016-10-15T11:12:23Z</time></trkpt>
<trkpt lat="53.0849090000" lon="-4.1382550000"><ele>586</ele><time>2016-10-15T11:12:24Z</time></trkpt>
<trkpt lat="53.0849110000" lon="-4.1382420000"><ele>586</ele><time>2016-10-15T11:12:25Z</time></trkpt>
<trkpt lat="53.0849130000" lon="-4.1382280000"><ele>587</ele><time>2016-10-15T11:12:26Z</time></trkpt>
<trkpt lat="53.0849140000" lon="-4.1382140000"><ele>587</ele><time>2016-10-15T11:12:27Z</time></trkpt>
<trkpt lat="53.0849150000" lon="-4.1382000000"><ele>587</ele><time>2016-10-15T11:12:28Z</time></trkpt>
<trkpt lat="53.0849150000" lon="-4.1381900000"><ele>587</ele><time>2016-10-15T11:12:29Z</time></trkpt>
<trkpt lat="53.0849150000" lon="-4.1381760000"><ele>588</ele><time>2016-10-15T11:12:30Z</time></trkpt>
<trkpt lat="53.0849150000" lon="-4.1381620000"><ele>588</ele><time>2016-10-15T11:12:31Z</time></trkpt>
<trkpt lat="53.0849150000" lon="-4.1381480000"><ele>588</ele><time>2016-10-15T11:12:32Z</time></trkpt>
<trkpt lat="53.0849160000" lon="-4.1381340000"><ele>588</ele><time>2016-10-15T11:12:33Z</time></trkpt>
<trkpt lat="53.0849170000" lon="-4.1381210000"><ele>589</ele><time>2016-10-15T11:12:34Z</time></trkpt>
<trkpt lat="53.0849180000" lon="-4.1381070000"><ele>589</ele><time>2016-10-15T11:12:35Z</time></trkpt>
<trkpt lat="53.0849190000" lon="-4.1380940000"><ele>589</ele><time>2016-10-15T11:12:36Z</time></trkpt>
<trkpt lat="53.0849210000" lon="-4.1380810000"><ele>589</ele><time>2016-10-15T11:12:37Z</time></trkpt>
<trkpt lat="53.0849230000" lon="-4.1380680000"><ele>590</ele><time>2016-10-15T11:12:38Z</time></trkpt>
<trkpt lat="53.0849250000" lon="-4.1380540000"><ele>590</ele><time>2016-10-15T11:12:40Z</time></trkpt>
<trkpt lat="53.0849270000" lon="-4.1380410000"><ele>590</ele></trkpt>
<trkpt lat="53.0849290000" lon="-4.1380280000"><ele>590</ele><time>2016-10-15T11:12:41Z</time></trkpt>
<trkpt lat="53.0849320000" lon="-4.1380150000"><ele>590</ele><time>2016-10-15T11:12:42Z</time></trkpt>
<trkpt lat="53.0849350000" lon="-4.1380010000"><ele>591</ele><time>2016-10-15T11:12:43Z</time></trkpt>
<trkpt lat="53.0849380000" lon="-4.1379880000"><ele>591</ele><time>2016-10-15T11:12:44Z</time></trkpt>
<trkpt lat="53.0849410000" lon="-4.1379740000"><ele>591</ele><time>2016-10-15T11:12:45Z</time></trkpt>
<trkpt lat="53.0849430000" lon="-4.1379610000"><ele>591</ele><time>2016-10-15T11:12:46Z</time></trkpt>
<trkpt lat="53.0849460000" lon="-4.1379480000"><ele>591</ele><time>2016-10-15T11:12:47Z</time></trkpt>
<trkpt lat="53.0849490000" lon="-4.1379350000"><ele>592</ele><time>2016-10-15T11:12:48Z</time></trkpt>
<trkpt lat="53.0849510000" lon="-4.1379210000"><ele>592</ele><time>2016-10-15T11:12:49Z</time></trkpt>
<trkpt lat="53.0849520000" lon="-4.1379080000"><ele>592</ele><time>2016-10-15T11:12:50Z</time></trkpt>
<trkpt lat="53.0849530000" lon="-4.1378980000"><ele>592</ele><time>2016-10-15T11:12:51Z</time></trkpt>
<trkpt lat="53.0849540000" lon="-4.1378840000"><ele>593</ele><time>2016-10-15T11:12:52Z</time></trkpt>
<trkpt lat="53.0849550000" lon="-4.1378700000"><ele>593</ele><time>2016-10-15T11:12:53Z</time></trkpt>
<trkpt lat="53.0849550000" lon="-4.1378570000"><ele>593</ele><time>2016-10-15T11:12:54Z</time></trkpt>
<trkpt lat="53.0849560000" lon="-4.1378440000"><ele>593</ele><time>2016-10-15T11:12:55Z</time></trkpt>
<trkpt lat="53.0849570000" lon="-4.1378300000"><ele>594</ele><time>2016-10-15T11:12:56Z</time></trkpt>
<trkpt lat="53.0849570000" lon="-4.1378170000"><ele>594</ele><time>2016-10-15T11:12:57Z</time></trkpt>
<trkpt lat="53.0849580000" lon="-4.1378030000"><ele>594</ele><time>2016-10-15T11:12:58Z</time></trkpt>
<trkpt lat="53.0849580000" lon="-4.1377900000"><ele>594</ele><time>2016-10-15T11:12:59Z</time></trkpt>
<trkpt lat="53.0849580000" lon="-4.1377770000"><ele>594</ele><time>2016-10-15T11:13:00Z</time></trkpt>
<trkpt lat="53.0849590000" lon="-4.1377640000"><ele>595</ele><time>2016-10-15T11:13:01Z</time></trkpt>
<trkpt lat="53.0849590000" lon="-4.1377520000"><ele>595</ele><time>2016-10-15T11:13:02Z</time></trkpt>
<trkpt lat="53.0849590000" lon="-4.1377390000"><ele>595</ele><time>2016-10-15T11:13:03Z</time></trkpt>
<trkpt lat="53.0849590000" lon="-4.1377270000"><ele>595</ele><time>2016-10-15T11:13:04Z</time></trkpt>
<trkpt lat="53.0849590000" lon="-4.1377150000"><ele>595</ele><time>2016-10-15T11:13:05Z</time></trkpt>
<trkpt lat="53.0849590000" lon="-4.1377030000"><ele>596</ele><time>2016-10-15T11:13:06Z</time></trkpt>
<trkpt lat="53.0849590000" lon="-4.1376940000"><ele>596</ele><time>2016-10-15T11:13:07Z</time></trkpt>
<trkpt lat="53.0849590000" lon="-4.1376850000"><ele>596</ele><time>2016-10-15T11:13:08Z</time></trkpt>
<trkpt lat="53.0849590000" lon="-4.1376760000"><ele>596</ele><time>2016-10-15T11:13:09Z</time></trkpt>
<trkpt lat="53.0849590000" lon="-4.1376650000"><ele>596</ele><time>2016-10-15T11:13:10Z</time></trkpt>
<trkpt lat="53.0849590000" lon="-4.1376560000"><ele>596</ele><time>2016-10-15T11:13:11Z</time></trkpt>
<trkpt lat="53.0849590000" lon="-4.1376470000"><ele>596</ele><time>2016-10-15T11:13:12Z</time></trkpt>
<trkpt lat="53.0849590000" lon="-4.1376380000"><ele>597</ele><time>2016-10-15T11:13:13Z</time></trkpt>
<trkpt lat="53.0849590000" lon="-4.1376300000"><ele>597</ele><time>2016-10-15T11:13:14Z</time></trkpt>
<trkpt lat="53.0849590000" lon="-4.1376230000"><ele>597</ele><time>2016-10-15T11:13:15Z</time></trkpt>
<trkpt lat="53.0849590000" lon="-4.1376170000"><ele>597</ele><time>2016-10-15T11:13:16Z</time></trkpt>
<trkpt lat="53.0849590000" lon="-4.1376120000"><ele>597</ele><time>2016-10-15T11:13:17Z</time></trkpt>
<trkpt lat="53.0849600000" lon="-4.1376080000"><ele>597</ele><time>2016-10-15T11:13:18Z</time></trkpt>
<trkpt lat="53.0849600000" lon="-4.1376040000"><ele>596</ele><time>2016-10-15T11:13:19Z</time></trkpt>
<trkpt lat="53.0849600000" lon="-4.1376000000"><ele>596</ele><time>2016-10-15T11:13:20Z</time></trkpt>
<trkpt lat="53.0849610000" lon="-4.1375970000"><ele>596</ele><time>2016-10-15T11:13:21Z</time></trkpt>
<trkpt lat="53.0849610000" lon="-4.1375930000"><ele>596</ele><time>2016-10-15T11:13:22Z</time></trkpt>
<trkpt lat="53.0849610000" lon="-4.1375900000"><ele>596</ele><time>2016-10-15T11:13:23Z</time></trkpt>
<trkpt lat="53.0849610000" lon="-4.1375880000"><ele>596</ele><time>2016-10-15T11:13:24Z</time></trkpt>
<trkpt lat="53.0849620000" lon="-4.1375850000"><ele>596</ele><time>2016-10-15T11:13:25Z</time></trkpt>
<trkpt lat="53.0849620000" lon="-4.1375830000"><ele>596</ele><time>2016-10-15T11:13:26Z</time></trkpt>
<trkpt lat="53.0849620000" lon="-4.1375800000"><ele>596</ele><time>2016-10-15T11:13:27Z</time></trkpt>
<trkpt lat="53.0849620000" lon="-4.1375780000"><ele>596</ele><time>2016-10-15T11:13:28Z</time></trkpt>
<trkpt lat="53.0849620000" lon="-4.1375760000"><ele>596</ele><time>2016-10-15T11:13:29Z</time></trkpt>
<trkpt lat="53.0849630000" lon="-4.1375740000"><ele>596</ele><time>2016-10-15T11:13:30Z</time></trkpt>
<trkpt lat="53.0849630000" lon="-4.1375720000"><ele>596</ele><time>2016-10-15T11:13:31Z</time></trkpt>
<trkpt lat="53.0849630000" lon="-4.1375710000"><ele>596</ele><time>2016-10-15T11:13:32Z</time></trkpt>
<trkpt lat="53.0849630000" lon="-4.1375700000"><ele>596</ele><time>2016-10-15T11:13:33Z</time></trkpt>
<trkpt lat="53.0849630000" lon="-4.1375690000"><ele>595</ele><time>2016-10-15T11:13:34Z</time></trkpt>
<trkpt lat="53.0849640000" lon="-4.1375670000"><ele>595</ele><time>2016-10-15T11:13:35Z</time></trkpt>
<trkpt lat="53.0849640000" lon="-4.1375660000"><ele>595</ele><time>2016-10-15T11:13:36Z</time></trkpt>
<trkpt lat="53.0849640000" lon="-4.1375640000"><ele>595</ele><time>2016-10-15T11:13:37Z</time></trkpt>
<trkpt lat="53.0849650000" lon="-4.1375620000"><ele>595</ele><time>2016-10-15T11:13:38Z</time></trkpt>
<trkpt lat="53.0849650000" lon="-4.1375600000"><ele>595</ele><time>2016-10-15T11:13:40Z</time></trkpt>
<trkpt lat="53.0849650000" lon="-4.1375580000"><ele>596</ele></trkpt>
<trkpt lat="53.0849650000" lon="-4.1375540000"><ele>596</ele><time>2016-10-15T11:13:41Z</time></trkpt>
<trkpt lat="53.0849650000" lon="-4.1375510000"><ele>596</ele><time>2016-10-15T11:13:42Z</time></trkpt>
<trkpt lat="53.0849650000" lon="-4.1375470000"><ele>596</ele><time>2016-10-15T11:13:43Z</time></trkpt>
<trkpt lat="53.0849640000" lon="-4.1375420000"><ele>596</ele><time>2016-10-15T11:13:44Z</time></trkpt>
<trkpt lat="53.0849640000" lon="-4.1375370000"><ele>596</ele><time>2016-10-15T11:13:45Z</time></trkpt>
<trkpt lat="53.0849630000" lon="-4.1375310000"><ele>596</ele><time>2016-10-15T11:13:46Z</time></trkpt>
<trkpt lat="53.0849620000" lon="-4.1375250000"><ele>596</ele><time>2016-10-15T11:13:47Z</time></trkpt>
<trkpt lat="53.0849610000" lon="-4.1375190000"><ele>596</ele><time>2016-10-15T11:13:48Z</time></trkpt>
<trkpt lat="53.0849600000" lon="-4.1375110000"><ele>596</ele><time>2016-10-15T11:13:49Z</time></trkpt>
<trkpt lat="53.0849590000" lon="-4.1375040000"><ele>597</ele><time>2016-10-15T11:13:50Z</time></trkpt>
<trkpt lat="53.0849580000" lon="-4.1374970000"><ele>597</ele><time>2016-10-15T11:13:51Z</time></trkpt>
<trkpt lat="53.0849560000" lon="-4.1374910000"><ele>597</ele><time>2016-10-15T11:13:52Z</time></trkpt>
<trkpt lat="53.0849550000" lon="-4.1374850000"><ele>597</ele><time>2016-10-15T11:13:53Z</time></trkpt>
<trkpt lat="53.0849540000" lon="-4.1374770000"><ele>597</ele><time>2016-10-15T11:13:54Z</time></trkpt>
<trkpt lat="53.0849530000" lon="-4.1374680000"><ele>597</ele><time>2016-10-15T11:13:55Z</time></trkpt>
<trkpt lat="53.0849510000" lon="-4.1374590000"><ele>598</ele><time>2016-10-15T11:13:56Z</time></trkpt>
<trkpt lat="53.0849490000" lon="-4.1374490000"><ele>598</ele><time>2016-10-15T11:13:57Z</time></trkpt>
<trkpt lat="53.0849480000" lon="-4.1374400000"><ele>598</ele><time>2016-10-15T11:13:58Z</time></trkpt>
<trkpt lat="53.0849460000" lon="-4.1374290000"><ele>598</ele><time>2016-10-15T11:13:59Z</time></trkpt>
<trkpt lat="53.0849440000" lon="-4.1374180000"><ele>598</ele><time>2016-10-15T11:14:00Z</time></trkpt>
<trkpt lat="53.0849420000" lon="-4.1374070000"><ele>599</ele><time>2016-10-15T11:14:01Z</time></trkpt>
<trkpt lat="53.0849400000" lon="-4.1373950000"><ele>599</ele><time>2016-10-15T11:14:02Z</time></trkpt>
<trkpt lat="53.0849380000" lon="-4.1373830000"><ele>599</ele><time>2016-10-15T11:14:03Z</time></trkpt>
<trkpt lat="53.0849360000" lon="-4.1373700000"><ele>599</ele><time>2016-10-15T11:14:04Z</time></trkpt>
<trkpt lat="53.0849330000" lon="-4.1373570000"><ele>599</ele><time>2016-10-15T11:14:05Z</time></trkpt>
<trkpt lat="53.0849310000" lon="-4.1373430000"><ele>600</ele><time>2016-10-15T11:14:06Z</time></trkpt>
<trkpt lat="53.0849280000" lon="-4.1373290000"><ele>600</ele><time>2016-10-15T11:14:07Z</time></trkpt>
<trkpt lat="53.0849260000" lon="-4.1373180000"><ele>600</ele><time>2016-10-15T11:14:08Z</time></trkpt>
<trkpt lat="53.0849240000" lon="-4.1373070000"><ele>600</ele><time>2016-10-15T11:14:09Z</time></trkpt>
<trkpt lat="53.0849220000" lon="-4.1372950000"><ele>601</ele><time>2016-10-15T11:14:10Z</time></trkpt>
<trkpt lat="53.0849200000" lon="-4.1372820000"><ele>601</ele><time>2016-10-15T11:14:11Z</time></trkpt>
<trkpt lat="53.0849180000" lon="-4.1372690000"><ele>601</ele><time>2016-10-15T11:14:12Z</time></trkpt>
<trkpt lat="53.0849150000" lon="-4.1372560000"><ele>601</ele><time>2016-10-15T11:14:13Z</time></trkpt>
<trkpt lat="53.0849130000" lon="-4.1372390000"><ele>601</ele><time>2016-10-15T11:14:14Z</time></trkpt>
<trkpt lat="53.0849100000" lon="-4.1372230000"><ele>602</ele><time>2016-10-15T11:14:15Z</time></trkpt>
<trkpt lat="53.0849080000" lon="-4.1372060000"><ele>602</ele><time>2016-10-15T11:14:16Z</time></trkpt>
<trkpt lat="53.0848780000" lon="-4.1370110000"><ele>602</ele><time>2016-10-15T11:14:17Z</time></trkpt>
<trkpt lat="53.0848750000" lon="-4.1369960000"><ele>602</ele><time>2016-10-15T11:14:18Z</time></trkpt>
<trkpt lat="53.0848720000" lon="-4.1369820000"><ele>603</ele><time>2016-10-15T11:14:19Z</time></trkpt>
<trkpt lat="53.0848680000" lon="-4.1369690000"><ele>603</ele><time>2016-10-15T11:14:20Z</time></trkpt>
<trkpt lat="53.0848680000" lon="-4.1369690000"><ele>603</ele><time>2016-10-15T11:14:21Z</time></trkpt>
<trkpt lat="53.0848680000" lon="-4.1369690000"><ele>603</ele><time>2016-10-15T11:14:22Z</time></trkpt>
<trkpt lat="53.0848680000" lon="-4.1369680000"><ele>604</ele><time>2016-10-15T11:14:23Z</time></trkpt>
<trkpt lat="53.0848680000" lon="-4.1369660000"><ele>604</ele><time>2016-10-15T11:14:24Z</time></trkpt>
<trkpt lat="53.0848670000" lon="-4.1369630000"><ele>604</ele><time>2016-10-15T11:14:25Z</time></trkpt>
<trkpt lat="53.0848670000" lon="-4.1369600000"><ele>604</ele><time>2016-10-15T11:14:26Z</time></trkpt>
<trkpt lat="53.0848660000" lon="-4.1369550000"><ele>605</ele><time>2016-10-15T11:14:27Z</time></trkpt>
<trkpt lat="53.0848650000" lon="-4.1369500000"><ele>605</ele><time>2016-10-15T11:14:28Z</time></trkpt>
<trkpt lat="53.0848640000" lon="-4.1369440000"><ele>605</ele><time>2016-10-15T11:14:29Z</time></trkpt>
<trkpt lat="53.0848620000" lon="-4.1369370000"><ele>605</ele><time>2016-10-15T11:14:30Z</time></trkpt>
<trkpt lat="53.0848600000" lon="-4.1369300000"><ele>606</ele><time>2016-10-15T11:14:31Z</time></trkpt>
<trkpt lat="53.0848580000" lon="-4.1369210000"><ele>606</ele><time>2016-10-15T11:14:32Z</time></trkpt>
<trkpt lat="53.0848570000" lon="-4.1369110000"><ele>606</ele><time>2016-10-15T11:14:33Z</time></trkpt>
<trkpt lat="53.0848550000" lon="-4.1369020000"><ele>606</ele><time>2016-10-15T11:14:34Z</time></trkpt>
<trkpt lat="53.0848530000" lon="-4.1368920000"><ele>607</ele><time>2016-10-15T11:14:35Z</time></trkpt>
<trkpt lat="53.0848510000" lon="-4.1368850000"><ele>607</ele><time>2016-10-15T11:14:36Z</time></trkpt>
<trkpt lat="53.0848500000" lon="-4.1368770000"><ele>607</ele><time>2016-10-15T11:14:37Z</time></trkpt>
<trkpt lat="53.0848480000" lon="-4.1368680000"><ele>607</ele><time>2016-10-15T11:14:38Z</time></trkpt>
<trkpt lat="53.0848460000" lon="-4.1368590000"><ele>607</ele><time>2016-10-15T11:14:40Z</time></trkpt>
<trkpt lat="53.0848440000" lon="-4.1368490000"><ele>608</ele></trkpt>
<trkpt lat="53.0848420000" lon="-4.1368380000"><ele>608</ele><time>2016-10-15T11:14:41Z</time></trkpt>
<trkpt lat="53.0848400000" lon="-4.1368270000"><ele>608</ele><time>2016-10-15T11:14:42Z</time></trkpt>
<trkpt lat="53.0848380000" lon="-4.1368160000"><ele>608</ele><time>2016-10-15T11:14:43Z</time></trkpt>
<trkpt lat="53.0848360000" lon="-4.1368040000"><ele>608</ele><time>2016-10-15T11:14:44Z</time></trkpt>
<trkpt lat="53.0848340000" lon="-4.1367920000"><ele>609</ele><time>2016-10-15T11:14:45Z</time></trkpt>
<trkpt lat="53.0848320000" lon="-4.1367800000"><ele>609</ele><time>2016-10-15T11:14:46Z</time></trkpt>
<trkpt lat="53.0848290000" lon="-4.1367670000"><ele>609</ele><time>2016-10-15T11:14:47Z</time></trkpt>
<trkpt lat="53.0848260000" lon="-4.1367500000"><ele>609</ele><time>2016-10-15T11:14:48Z</time></trkpt>
<trkpt lat="53.0847910000" lon="-4.1365580000"><ele>609</ele><time>2016-10-15T11:14:49Z</time></trkpt>
<trkpt lat="53.0847890000" lon="-4.1365430000"><ele>609</ele><time>2016-10-15T11:14:50Z</time></trkpt>
<trkpt lat="53.0847860000" lon="-4.1365290000"><ele>610</ele><time>2016-10-15T11:14:51Z</time></trkpt>
<trkpt lat="53.0847860000" lon="-4.1365290000"><ele>610</ele><time>2016-10-15T11:14:52Z</time></trkpt>
<trkpt lat="53.0847860000" lon="-4.1365290000"><ele>610</ele><time>2016-10-15T11:14:53Z</time></trkpt>
<trkpt lat="53.0847860000" lon="-4.1365280000"><ele>610</ele><time>2016-10-15T11:14:54Z</time></trkpt>
<trkpt lat="53.0847860000" lon="-4.1365260000"><ele>610</ele><time>2016-10-15T11:14:55Z</time></trkpt>
<trkpt lat="53.0847850000" lon="-4.1365240000"><ele>610</ele><time>2016-10-15T11:14:56Z</time></trkpt>
<trkpt lat="53.0847850000" lon="-4.1365210000"><ele>611</ele><time>2016-10-15T11:14:57Z</time></trkpt>
<trkpt lat="53.0847840000" lon="-4.1365160000"><ele>611</ele><time>2016-10-15T11:14:58Z</time></trkpt>
<trkpt lat="53.0847820000" lon="-4.1365100000"><ele>611</ele><time>2016-10-15T11:14:59Z</time></trkpt>
<trkpt lat="53.0847810000" lon="-4.1365030000"><ele>611</ele><time>2016-10-15T11:15:00Z</time></trkpt>
<trkpt lat="53.0847800000" lon="-4.1364970000"><ele>611</ele><time>2016-10-15T11:15:01Z</time></trkpt>
<trkpt lat="53.0847790000" lon="-4.1364900000"><ele>611</ele><time>2016-10-15T11:15:02Z</time></trkpt>
<trkpt lat="53.0847770000" lon="-4.1364820000"><ele>611</ele><time>2016-10-15T11:15:03Z</time></trkpt>
<trkpt lat="53.0847760000" lon="-4.1364730000"><ele>612</ele><time>2016-10-15T11:15:04Z</time></trkpt>
<trkpt lat="53.0847740000" lon="-4.1364640000"><ele>612</ele><time>2016-10-15T11:15:05Z</time></trkpt>
<trkpt lat="53.0847720000" lon="-4.1364540000"><ele>612</ele><time>2016-10-15T11:15:06Z</time></trkpt>
<trkpt lat="53.0847690000" lon="-4.1364430000"><ele>612</ele><time>2016-10-15T11:15:07Z</time></trkpt>
<trkpt lat="53.0847670000" lon="-4.1364310000"><ele>612</ele><time>2016-10-15T11:15:08Z</time></trkpt>
<trkpt lat="53.0847650000" lon="-4.1364190000"><ele>612</ele><time>2016-10-15T11:15:09Z</time></trkpt>
<trkpt lat="53.0847620000" lon="-4.1364070000"><ele>612</ele><time>2016-10-15T11:15:10Z</time></trkpt>
<trkpt lat="53.0847590000" lon="-4.1363910000"><ele>612</ele><time>2016-10-15T11:15:11Z</time></trkpt>
<trkpt lat="53.0847550000" lon="-4.1363750000"><ele>612</ele><time>2016-10-15T11:15:12Z</time></trkpt>
<trkpt lat="53.0847180000" lon="-4.1361850000"><ele>612</ele><time>2016-10-15T11:15:13Z</time></trkpt>
<trkpt lat="53.0847150000" lon="-4.1361700000"><ele>612</ele><time>2016-10-15T11:15:14Z</time></trkpt>
<trkpt lat="53.0847110000" lon="-4.1361550000"><ele>613</ele><time>2016-10-15T11:15:15Z</time></trkpt>
<trkpt lat="53.0847110000" lon="-4.1361550000"><ele>613</ele><time>2016-10-15T11:15:16Z</time></trkpt>
<trkpt lat="53.0847110000" lon="-4.1361550000"><ele>613</ele><time>2016-10-15T11:15:17Z</time></trkpt>
<trkpt lat="53.0847110000" lon="-4.1361540000"><ele>613</ele><time>2016-10-15T11:15:18Z</time></trkpt>
<trkpt lat="53.0847100000" lon="-4.1361520000"><ele>613</ele><time>2016-10-15T11:15:19Z</time></trkpt>
<trkpt lat="53.0847100000" lon="-4.1361500000"><ele>613</ele><time>2016-10-15T11:15:20Z</time></trkpt>
<trkpt lat="53.0846940000" lon="-4.1360560000"><ele>613</ele><time>2016-10-15T11:15:21Z</time></trkpt>
<trkpt lat="53.0846910000" lon="-4.1360380000"><ele>613</ele><time>2016-10-15T11:15:22Z</time></trkpt>
<trkpt lat="53.0846890000" lon="-4.1360220000"><ele>613</ele><time>2016-10-15T11:15:23Z</time></trkpt>
<trkpt lat="53.0846850000" lon="-4.1360060000"><ele>613</ele><time>2016-10-15T11:15:24Z</time></trkpt>
<trkpt lat="53.0846810000" lon="-4.1359900000"><ele>613</ele><time>2016-10-15T11:15:25Z</time></trkpt>
<trkpt lat="53.0846810000" lon="-4.1359900000"><ele>613</ele><time>2016-10-15T11:15:26Z</time></trkpt>
<trkpt lat="53.0846810000" lon="-4.1359890000"><ele>613</ele><time>2016-10-15T11:15:27Z</time></trkpt>
<trkpt lat="53.0846810000" lon="-4.1359890000"><ele>613</ele><time>2016-10-15T11:15:28Z</time></trkpt>
<trkpt lat="53.0846810000" lon="-4.1359880000"><ele>613</ele><time>2016-10-15T11:15:29Z</time></trkpt>
<trkpt lat="53.0846810000" lon="-4.1359860000"><ele>613</ele><time>2016-10-15T11:15:30Z</time></trkpt>
<trkpt lat="53.0846800000" lon="-4.1359840000"><ele>613</ele><time>2016-10-15T11:15:31Z</time></trkpt>
<trkpt lat="53.0846800000" lon="-4.1359820000"><ele>613</ele><time>2016-10-15T11:15:32Z</time></trkpt>
<trkpt lat="53.0846790000" lon="-4.1359790000"><ele>613</ele><time>2016-10-15T11:15:33Z</time></trkpt>
<trkpt lat="53.0846790000" lon="-4.1359750000"><ele>612</ele><time>2016-10-15T11:15:34Z</time></trkpt>
<trkpt lat="53.0846780000" lon="-4.1359710000"><ele>612</ele><time>2016-10-15T11:15:35Z</time></trkpt>
<trkpt lat="53.0846770000" lon="-4.1359660000"><ele>612</ele><time>2016-10-15T11:15:36Z</time></trkpt>
<trkpt lat="53.0846770000" lon="-4.1359600000"><ele>612</ele><time>2016-10-15T11:15:37Z</time></trkpt>
<trkpt lat="53.0846760000" lon="-4.1359550000"><ele>612</ele><time>2016-10-15T11:15:38Z</time></trkpt>
<trkpt lat="53.0846750000" lon="-4.1359480000"><ele>612</ele><time>2016-10-15T11:15:39Z</time></trkpt>
<trkpt lat="53.0846730000" lon="-4.1359410000"><ele>612</ele><time>2016-10-15T11:15:40Z</time></trkpt>
<trkpt lat="53.0846710000" lon="-4.1359340000"><ele>612</ele><time>2016-10-15T11:15:41Z</time></trkpt>
<trkpt lat="53.0846700000" lon="-4.1359270000"><ele>612</ele><time>2016-10-15T11:15:42Z</time></trkpt>
<trkpt lat="53.0846680000" lon="-4.1359190000"><ele>612</ele><time>2016-10-15T11:15:43Z</time></trkpt>
<trkpt lat="53.0846660000" lon="-4.1359120000"><ele>612</ele><time>2016-10-15T11:15:44Z</time></trkpt>
<trkpt lat="53.0846650000" lon="-4.1359040000"><ele>612</ele><time>2016-10-15T11:15:45Z</time></trkpt>
<trkpt lat="53.0846630000" lon="-4.1358960000"><ele>612</ele><time>2016-10-15T11:15:46Z</time></trkpt>
<trkpt lat="53.0846610000" lon="-4.1358880000"><ele>612</ele><time>2016-10-15T11:15:47Z</time></trkpt>
<trkpt lat="53.0846590000" lon="-4.1358800000"><ele>612</ele><time>2016-10-15T11:15:48Z</time></trkpt>
<trkpt lat="53.0846570000" lon="-4.1358730000"><ele>612</ele><time>2016-10-15T11:15:49Z</time></trkpt>
<trkpt lat="53.0846550000" lon="-4.1358670000"><ele>612</ele><time>2016-10-15T11:15:50Z</time></trkpt>
<trkpt lat="53.0846540000" lon="-4.1358600000"><ele>612</ele><time>2016-10-15T11:15:51Z</time></trkpt>
<trkpt lat="53.0846520000" lon="-4.1358540000"><ele>612</ele><time>2016-10-15T11:15:52Z</time></trkpt>
<trkpt lat="53.0846510000" lon="-4.1358460000"><ele>612</ele><time>2016-10-15T11:15:53Z</time></trkpt>
<trkpt lat="53.0846490000" lon="-4.1358370000"><ele>611</ele><time>2016-10-15T11:15:54Z</time></trkpt>
<trkpt lat="53.0846480000" lon="-4.1358300000"><ele>611</ele><time>2016-10-15T11:15:55Z</time></trkpt>
<trkpt lat="53.0846470000" lon="-4.1358220000"><ele>611</ele><time>2016-10-15T11:15:56Z</time></trkpt>
<trkpt lat="53.0846460000" lon="-4.1358160000"><ele>611</ele><time>2016-10-15T11:15:57Z</time></trkpt>
<trkpt lat="53.0846370000" lon="-4.1357700000"><ele>611</ele><time>2016-10-15T11:16:05Z</time></trkpt>
<trkpt lat="53.0845820000" lon="-4.1356620000"><ele>611</ele><time>2016-10-15T11:16:07Z</time></trkpt>
<trkpt lat="53.0845660000" lon="-4.1356680000"><ele>611</ele><time>2016-10-15T11:16:14Z</time></trkpt>
<trkpt lat="53.0845660000" lon="-4.1356680000"><ele>610</ele><time>2016-10-15T11:16:15Z</time></trkpt>
<trkpt lat="53.0845660000" lon="-4.1356690000"><ele>610</ele><time>2016-10-15T11:16:16Z</time></trkpt>
<trkpt lat="53.0845660000" lon="-4.1356690000"><ele>610</ele><time>2016-10-15T11:16:17Z</time></trkpt>
<trkpt lat="53.0845650000" lon="-4.1356690000"><ele>610</ele><time>2016-10-15T11:16:18Z</time></trkpt>
<trkpt lat="53.0845650000" lon="-4.1356690000"><ele>610</ele><time>2016-10-15T11:16:19Z</time></trkpt>
<trkpt lat="53.0845640000" lon="-4.1356690000"><ele>610</ele><time>2016-10-15T11:16:20Z</time></trkpt>
<trkpt lat="53.0845640000" lon="-4.1356700000"><ele>610</ele><time>2016-10-15T11:16:21Z</time></trkpt>
<trkpt lat="53.0845630000" lon="-4.1356700000"><ele>610</ele><time>2016-10-15T11:16:22Z</time></trkpt>
<trkpt lat="53.0845630000" lon="-4.1356700000"><ele>610</ele><time>2016-10-15T11:16:23Z</time></trkpt>
<trkpt lat="53.0845620000" lon="-4.1356710000"><ele>609</ele><time>2016-10-15T11:16:24Z</time></trkpt>
<trkpt lat="53.0845620000" lon="-4.1356710000"><ele>609</ele><time>2016-10-15T11:16:25Z</time></trkpt>
<trkpt lat="53.0845620000" lon="-4.1356720000"><ele>609</ele><time>2016-10-15T11:16:26Z</time></trkpt>
<trkpt lat="53.0845620000" lon="-4.1356720000"><ele>609</ele><time>2016-10-15T11:16:27Z</time></trkpt>
<trkpt lat="53.0845620000" lon="-4.1356730000"><ele>609</ele><time>2016-10-15T11:16:28Z</time></trkpt>
<trkpt lat="53.0845620000" lon="-4.1356730000"><ele>609</ele><time>2016-10-15T11:16:29Z</time></trkpt>
<trkpt lat="53.0845620000" lon="-4.1356740000"><ele>609</ele><time>2016-10-15T11:16:30Z</time></trkpt>
<trkpt lat="53.0845620000" lon="-4.1356740000"><ele>609</ele><time>2016-10-15T11:16:31Z</time></trkpt>
<trkpt lat="53.0845620000" lon="-4.1356750000"><ele>609</ele><time>2016-10-15T11:16:32Z</time></trkpt>
<trkpt lat="53.0845620000" lon="-4.1356750000"><ele>609</ele><time>2016-10-15T11:16:33Z</time></trkpt>
<trkpt lat="53.0845610000" lon="-4.1356760000"><ele>609</ele><time>2016-10-15T11:16:34Z</time></trkpt>
<trkpt lat="53.0845610000" lon="-4.1356760000"><ele>609</ele><time>2016-10-15T11:16:35Z</time></trkpt>
<trkpt lat="53.0845600000" lon="-4.1356760000"><ele>609</ele><time>2016-10-15T11:16:36Z</time></trkpt>
<trkpt lat="53.0845600000" lon="-4.1356770000"><ele>609</ele><time>2016-10-15T11:16:37Z</time></trkpt>
<trkpt lat="53.0845590000" lon="-4.1356770000"><ele>609</ele><time>2016-10-15T11:16:38Z</time></trkpt>
<trkpt lat="53.0845590000" lon="-4.1356770000"><ele>609</ele><time>2016-10-15T11:16:39Z</time></trkpt>
<trkpt lat="53.0845590000" lon="-4.1356770000"><ele>609</ele><time>2016-10-15T11:16:40Z</time></trkpt>
<trkpt lat="53.0845580000" lon="-4.1356780000"><ele>609</ele><time>2016-10-15T11:16:41Z</time></trkpt>
<trkpt lat="53.0845580000" lon="-4.1356780000"><ele>609</ele><time>2016-10-15T11:16:42Z</time></trkpt>
<trkpt lat="53.0845580000" lon="-4.1356780000"><ele>608</ele><time>2016-10-15T11:16:43Z</time></trkpt>
<trkpt lat="53.0845570000" lon="-4.1356780000"><ele>608</ele><time>2016-10-15T11:16:44Z</time></trkpt>
<trkpt lat="53.0845560000" lon="-4.1356780000"><ele>608</ele><time>2016-10-15T11:16:45Z</time></trkpt>
<trkpt lat="53.0845560000" lon="-4.1356780000"><ele>608</ele><time>2016-10-15T11:16:46Z</time></trkpt>
<trkpt lat="53.0845550000" lon="-4.1356780000"><ele>608</ele><time>2016-10-15T11:16:47Z</time></trkpt>
<trkpt lat="53.0845540000" lon="-4.1356780000"><ele>608</ele><time>2016-10-15T11:16:48Z</time></trkpt>
<trkpt lat="53.0845540000" lon="-4.1356780000"><ele>608</ele><time>2016-10-15T11:16:49Z</time></trkpt>
<trkpt lat="53.0845530000" lon="-4.1356780000"><ele>608</ele><time>2016-10-15T11:16:50Z</time></trkpt>
<trkpt lat="53.0845530000" lon="-4.1356780000"><ele>608</ele><time>2016-10-15T11:16:51Z</time></trkpt>
<trkpt lat="53.0845520000" lon="-4.1356780000"><ele>608</ele><time>2016-10-15T11:16:52Z</time></trkpt>
<trkpt lat="53.0845520000" lon="-4.1356770000"><ele>608</ele><time>2016-10-15T11:16:53Z</time></trkpt>
<trkpt lat="53.0845520000" lon="-4.1356770000"><ele>608</ele><time>2016-10-15T11:16:54Z</time></trkpt>
<trkpt lat="53.0845520000" lon="-4.1356760000"><ele>608</ele><time>2016-10-15T11:16:55Z</time></trkpt>
<trkpt lat="53.0845510000" lon="-4.1356750000"><ele>607</ele><time>2016-10-15T11:16:56Z</time></trkpt>
<trkpt lat="53.0845510000" lon="-4.1356740000"><ele>607</ele><time>2016-10-15T11:16:57Z</time></trkpt>
<trkpt lat="53.0845510000" lon="-4.1356740000"><ele>607</ele><time>2016-10-15T11:16:58Z</time></trkpt>
<trkpt lat="53.0845500000" lon="-4.1356730000"><ele>607</ele><time>2016-10-15T11:16:59Z</time></trkpt>
<trkpt lat="53.0845500000" lon="-4.1356730000"><ele>607</ele><time>2016-10-15T11:17:00Z</time></trkpt>
<trkpt lat="53.0845500000" lon="-4.1356720000"><ele>606</ele><time>2016-10-15T11:17:01Z</time></trkpt>
<trkpt lat="53.0845500000" lon="-4.1356720000"><ele>606</ele><time>2016-10-15T11:17:02Z</time></trkpt>
<trkpt lat="53.0845500000" lon="-4.1356720000"><ele>606</ele><time>2016-10-15T11:17:03Z</time></trkpt>
<trkpt lat="53.0845500000" lon="-4.1356720000"><ele>606</ele><time>2016-10-15T11:17:04Z</time></trkpt>
<trkpt lat="53.0845500000" lon="-4.1356720000"><ele>606</ele><time>2016-10-15T11:17:05Z</time></trkpt>
<trkpt lat="53.0845490000" lon="-4.1356730000"><ele>606</ele><time>2016-10-15T11:17:06Z</time></trkpt>
<trkpt lat="53.0845490000" lon="-4.1356730000"><ele>606</ele><time>2016-10-15T11:17:07Z</time></trkpt>
<trkpt lat="53.0845480000" lon="-4.1356720000"><ele>606</ele><time>2016-10-15T11:17:08Z</time></trkpt>
<trkpt lat="53.0845470000" lon="-4.1356720000"><ele>606</ele><time>2016-10-15T11:17:09Z</time></trkpt>
<trkpt lat="53.0845460000" lon="-4.1356720000"><ele>605</ele><time>2016-10-15T11:17:10Z</time></trkpt>
<trkpt lat="53.0845460000" lon="-4.1356710000"><ele>605</ele><time>2016-10-15T11:17:11Z</time></trkpt>
<trkpt lat="53.0845450000" lon="-4.1356710000"><ele>605</ele><time>2016-10-15T11:17:14Z</time></trkpt>
<trkpt lat="53.0845450000" lon="-4.1356700000"><ele>605</ele></trkpt>
<trkpt lat="53.0845440000" lon="-4.1356680000"><ele>605</ele><time>2016-10-15T11:17:15Z</time></trkpt>
<trkpt lat="53.0845430000" lon="-4.1356670000"><ele>605</ele><time>2016-10-15T11:17:16Z</time></trkpt>
<trkpt lat="53.0845420000" lon="-4.1356650000"><ele>605</ele><time>2016-10-15T11:17:17Z</time></trkpt>
<trkpt lat="53.0845410000" lon="-4.1356620000"><ele>605</ele><time>2016-10-15T11:17:18Z</time></trkpt>
<trkpt lat="53.0845400000" lon="-4.1356600000"><ele>605</ele><time>2016-10-15T11:17:19Z</time></trkpt>
<trkpt lat="53.0845390000" lon="-4.1356580000"><ele>606</ele><time>2016-10-15T11:17:20Z</time></trkpt>
<trkpt lat="53.0845370000" lon="-4.1356550000"><ele>606</ele><time>2016-10-15T11:17:21Z</time></trkpt>
<trkpt lat="53.0845360000" lon="-4.1356530000"><ele>606</ele><time>2016-10-15T11:17:22Z</time></trkpt>
<trkpt lat="53.0845350000" lon="-4.1356510000"><ele>606</ele><time>2016-10-15T11:17:23Z</time></trkpt>
<trkpt lat="53.0845340000" lon="-4.1356470000"><ele>606</ele><time>2016-10-15T11:17:24Z</time></trkpt>
<trkpt lat="53.0845330000" lon="-4.1356440000"><ele>606</ele><time>2016-10-15T11:17:25Z</time></trkpt>
<trkpt lat="53.0845310000" lon="-4.1356410000"><ele>606</ele><time>2016-10-15T11:17:26Z</time></trkpt>
<trkpt lat="53.0845300000" lon="-4.1356380000"><ele>606</ele><time>2016-10-15T11:17:27Z</time></trkpt>
<trkpt lat="53.0845280000" lon="-4.1356340000"><ele>606</ele><time>2016-10-15T11:17:28Z</time></trkpt>
<trkpt lat="53.0845270000" lon="-4.1356310000"><ele>606</ele><time>2016-10-15T11:17:29Z</time></trkpt>
<trkpt lat="53.0845250000" lon="-4.1356280000"><ele>606</ele><time>2016-10-15T11:17:30Z</time></trkpt>
<trkpt lat="53.0845240000" lon="-4.1356250000"><ele>606</ele><time>2016-10-15T11:17:31Z</time></trkpt>
<trkpt lat="53.0845230000" lon="-4.1356220000"><ele>606</ele><time>2016-10-15T11:17:32Z</time></trkpt>
<trkpt lat="53.0845210000" lon="-4.1356190000"><ele>606</ele><time>2016-10-15T11:17:33Z</time></trkpt>
<trkpt lat="53.0845200000" lon="-4.1356160000"><ele>606</ele><time>2016-10-15T11:17:34Z</time></trkpt>
<trkpt lat="53.0845180000" lon="-4.1356130000"><ele>606</ele><time>2016-10-15T11:17:35Z</time></trkpt>
<trkpt lat="53.0845160000" lon="-4.1356100000"><ele>606</ele><time>2016-10-15T11:17:36Z</time></trkpt>
<trkpt lat="53.0845130000" lon="-4.1356060000"><ele>606</ele><time>2016-10-15T11:17:37Z</time></trkpt>
<trkpt lat="53.0845100000" lon="-4.1356040000"><ele>606</ele><time>2016-10-15T11:17:38Z</time></trkpt>
<trkpt lat="53.0845060000" lon="-4.1356000000"><ele>606</ele><time>2016-10-15T11:17:39Z</time></trkpt>
<trkpt lat="53.0844400000" lon="-4.1355490000"><ele>606</ele><time>2016-10-15T11:17:40Z</time></trkpt>
<trkpt lat="53.0844300000" lon="-4.1355420000"><ele>606</ele><time>2016-10-15T11:17:41Z</time></trkpt>
<trkpt lat="53.0844210000" lon="-4.1355330000"><ele>606</ele><time>2016-10-15T11:17:42Z</time></trkpt>
<trkpt lat="53.0844210000" lon="-4.1355330000"><ele>606</ele><time>2016-10-15T11:17:43Z</time></trkpt>
<trkpt lat="53.0844210000" lon="-4.1355320000"><ele>606</ele><time>2016-10-15T11:17:44Z</time></trkpt>
<trkpt lat="53.0844210000" lon="-4.1355320000"><ele>606</ele><time>2016-10-15T11:17:45Z</time></trkpt>
<trkpt lat="53.0844200000" lon="-4.1355310000"><ele>606</ele><time>2016-10-15T11:17:46Z</time></trkpt>
<trkpt lat="53.0844180000" lon="-4.1355290000"><ele>606</ele><time>2016-10-15T11:17:47Z</time></trkpt>
<trkpt lat="53.0844160000" lon="-4.1355270000"><ele>606</ele><time>2016-10-15T11:17:48Z</time></trkpt>
<trkpt lat="53.0844140000" lon="-4.1355250000"><ele>606</ele><time>2016-10-15T11:17:49Z</time></trkpt>
<trkpt lat="53.0844110000" lon="-4.1355220000"><ele>607</ele><time>2016-10-15T11:17:50Z</time></trkpt>
<trkpt lat="53.0844070000" lon="-4.1355180000"><ele>607</ele><time>2016-10-15T11:17:51Z</time></trkpt>
<trkpt lat="53.0844030000" lon="-4.1355140000"><ele>607</ele><time>2016-10-15T11:17:52Z</time></trkpt>
<trkpt lat="53.0843990000" lon="-4.1355100000"><ele>607</ele><time>2016-10-15T11:17:53Z</time></trkpt>
<trkpt lat="53.0843940000" lon="-4.1355050000"><ele>607</ele><time>2016-10-15T11:17:54Z</time></trkpt>
<trkpt lat="53.0843890000" lon="-4.1355010000"><ele>607</ele><time>2016-10-15T11:17:55Z</time></trkpt>
<trkpt lat="53.0843840000" lon="-4.1354960000"><ele>607</ele><time>2016-10-15T11:17:56Z</time></trkpt>
<trkpt lat="53.0843790000" lon="-4.1354920000"><ele>606</ele><time>2016-10-15T11:17:57Z</time></trkpt>
<trkpt lat="53.0843730000" lon="-4.1354870000"><ele>606</ele><time>2016-10-15T11:17:58Z</time></trkpt>
<trkpt lat="53.0843680000" lon="-4.1354820000"><ele>606</ele><time>2016-10-15T11:17:59Z</time></trkpt>
<trkpt lat="53.0843620000" lon="-4.1354780000"><ele>606</ele><time>2016-10-15T11:18:00Z</time></trkpt>
<trkpt lat="53.0843560000" lon="-4.1354740000"><ele>606</ele><time>2016-10-15T11:18:01Z</time></trkpt>
<trkpt lat="53.0842410000" lon="-4.1354000000"><ele>606</ele><time>2016-10-15T11:18:02Z</time></trkpt>
<trkpt lat="53.0842300000" lon="-4.1353980000"><ele>605</ele><time>2016-10-15T11:18:03Z</time></trkpt>
<trkpt lat="53.0842170000" lon="-4.1353990000"><ele>605</ele><time>2016-10-15T11:18:04Z</time></trkpt>
<trkpt lat="53.0842030000" lon="-4.1354010000"><ele>605</ele><time>2016-10-15T11:18:05Z</time></trkpt>
<trkpt lat="53.0841890000" lon="-4.1354020000"><ele>605</ele><time>2016-10-15T11:18:06Z</time></trkpt>
<trkpt lat="53.0841750000" lon="-4.1354070000"><ele>605</ele><time>2016-10-15T11:18:07Z</time></trkpt>
<trkpt lat="53.0841650000" lon="-4.1354100000"><ele>605</ele><time>2016-10-15T11:18:08Z</time></trkpt>
<trkpt lat="53.0841550000" lon="-4.1354090000"><ele>604</ele><time>2016-10-15T11:18:09Z</time></trkpt>
<trkpt lat="53.0841420000" lon="-4.1354080000"><ele>604</ele><time>2016-10-15T11:18:10Z</time></trkpt>
<trkpt lat="53.0841310000" lon="-4.1354070000"><ele>604</ele><time>2016-10-15T11:18:11Z</time></trkpt>
<trkpt lat="53.0841060000" lon="-4.1354070000"><ele>604</ele><time>2016-10-15T11:18:14Z</time></trkpt>
<trkpt lat="53.0840920000" lon="-4.1354090000"><ele>603</ele></trkpt>
<trkpt lat="53.0840790000" lon="-4.1354110000"><ele>603</ele><time>2016-10-15T11:18:15Z</time></trkpt>
<trkpt lat="53.0840650000" lon="-4.1354130000"><ele>603</ele><time>2016-10-15T11:18:16Z</time></trkpt>
<trkpt lat="53.0840520000" lon="-4.1354160000"><ele>603</ele><time>2016-10-15T11:18:17Z</time></trkpt>
<trkpt lat="53.0840420000" lon="-4.1354170000"><ele>603</ele><time>2016-10-15T11:18:18Z</time></trkpt>
<trkpt lat="53.0840320000" lon="-4.1354150000"><ele>603</ele><time>2016-10-15T11:18:19Z</time></trkpt>
<trkpt lat="53.0840210000" lon="-4.1354100000"><ele>602</ele><time>2016-10-15T11:18:20Z</time></trkpt>
<trkpt lat="53.0840130000" lon="-4.1354060000"><ele>602</ele><time>2016-10-15T11:18:21Z</time></trkpt>
<trkpt lat="53.0840050000" lon="-4.1353930000"><ele>602</ele><time>2016-10-15T11:18:22Z</time></trkpt>
<trkpt lat="53.0840050000" lon="-4.1353930000"><ele>602</ele><time>2016-10-15T11:18:23Z</time></trkpt>
<trkpt lat="53.0840050000" lon="-4.1353930000"><ele>602</ele><time>2016-10-15T11:18:24Z</time></trkpt>
<trkpt lat="53.0840040000" lon="-4.1353920000"><ele>601</ele><time>2016-10-15T11:18:25Z</time></trkpt>
<trkpt lat="53.0840030000" lon="-4.1353920000"><ele>601</ele><time>2016-10-15T11:18:26Z</time></trkpt>
<trkpt lat="53.0840020000" lon="-4.1353920000"><ele>601</ele><time>2016-10-15T11:18:27Z</time></trkpt>
<trkpt lat="53.0840010000" lon="-4.1353920000"><ele>601</ele><time>2016-10-15T11:18:28Z</time></trkpt>
<trkpt lat="53.0839990000" lon="-4.1353920000"><ele>601</ele><time>2016-10-15T11:18:29Z</time></trkpt>
<trkpt lat="53.0839970000" lon="-4.1353930000"><ele>600</ele><time>2016-10-15T11:18:30Z</time></trkpt>
<trkpt lat="53.0839950000" lon="-4.1353930000"><ele>600</ele><time>2016-10-15T11:18:31Z</time></trkpt>
<trkpt lat="53.0839920000" lon="-4.1353940000"><ele>600</ele><time>2016-10-15T11:18:32Z</time></trkpt>
<trkpt lat="53.0839880000" lon="-4.1353940000"><ele>600</ele><time>2016-10-15T11:18:33Z</time></trkpt>
<trkpt lat="53.0839850000" lon="-4.1353950000"><ele>600</ele><time>2016-10-15T11:18:34Z</time></trkpt>
<trkpt lat="53.0839820000" lon="-4.1353960000"><ele>599</ele><time>2016-10-15T11:18:35Z</time></trkpt>
<trkpt lat="53.0839780000" lon="-4.1353970000"><ele>599</ele><time>2016-10-15T11:18:36Z</time></trkpt>
<trkpt lat="53.0839740000" lon="-4.1353970000"><ele>599</ele><time>2016-10-15T11:18:37Z</time></trkpt>
<trkpt lat="53.0839700000" lon="-4.1353980000"><ele>599</ele><time>2016-10-15T11:18:38Z</time></trkpt>
<trkpt lat="53.0838840000" lon="-4.1354010000"><ele>598</ele><time>2016-10-15T11:18:39Z</time></trkpt>
<trkpt lat="53.0838720000" lon="-4.1354060000"><ele>598</ele><time>2016-10-15T11:18:40Z</time></trkpt>
<trkpt lat="53.0838620000" lon="-4.1354110000"><ele>598</ele><time>2016-10-15T11:18:41Z</time></trkpt>
<trkpt lat="53.0838620000" lon="-4.1354110000"><ele>597</ele><time>2016-10-15T11:18:42Z</time></trkpt>
<trkpt lat="53.0838620000" lon="-4.1354110000"><ele>597</ele><time>2016-10-15T11:18:43Z</time></trkpt>
<trkpt lat="53.0838610000" lon="-4.1354110000"><ele>597</ele><time>2016-10-15T11:18:44Z</time></trkpt>
<trkpt lat="53.0838610000" lon="-4.1354110000"><ele>596</ele><time>2016-10-15T11:18:45Z</time></trkpt>
<trkpt lat="53.0838600000" lon="-4.1354110000"><ele>596</ele><time>2016-10-15T11:18:46Z</time></trkpt>
<trkpt lat="53.0838590000" lon="-4.1354110000"><ele>596</ele><time>2016-10-15T11:18:47Z</time></trkpt>
<trkpt lat="53.0838570000" lon="-4.1354110000"><ele>595</ele><time>2016-10-15T11:18:48Z</time></trkpt>
<trkpt lat="53.0838550000" lon="-4.1354110000"><ele>595</ele><time>2016-10-15T11:18:49Z</time></trkpt>
<trkpt lat="53.0838530000" lon="-4.1354110000"><ele>594</ele><time>2016-10-15T11:18:50Z</time></trkpt>
<trkpt lat="53.0838500000" lon="-4.1354100000"><ele>594</ele><time>2016-10-15T11:18:51Z</time></trkpt>
<trkpt lat="53.0838480000" lon="-4.1354100000"><ele>594</ele><time>2016-10-15T11:18:52Z</time></trkpt>
<trkpt lat="53.0838450000" lon="-4.1354100000"><ele>593</ele><time>2016-10-15T11:18:53Z</time></trkpt>
<trkpt lat="53.0838420000" lon="-4.1354090000"><ele>593</ele><time>2016-10-15T11:18:54Z</time></trkpt>
<trkpt lat="53.0838380000" lon="-4.1354090000"><ele>593</ele><time>2016-10-15T11:18:55Z</time></trkpt>
<trkpt lat="53.0838340000" lon="-4.1354080000"><ele>592</ele><time>2016-10-15T11:18:56Z</time></trkpt>
<trkpt lat="53.0838300000" lon="-4.1354070000"><ele>592</ele><time>2016-10-15T11:18:57Z</time></trkpt>
<trkpt lat="53.0838260000" lon="-4.1354060000"><ele>591</ele><time>2016-10-15T11:18:58Z</time></trkpt>
<trkpt lat="53.0838210000" lon="-4.1354040000"><ele>591</ele><time>2016-10-15T11:18:59Z</time></trkpt>
<trkpt lat="53.0838170000" lon="-4.1354020000"><ele>591</ele><time>2016-10-15T11:19:00Z</time></trkpt>
<trkpt lat="53.0838130000" lon="-4.1354000000"><ele>590</ele><time>2016-10-15T11:19:01Z</time></trkpt>
<trkpt lat="53.0838080000" lon="-4.1353970000"><ele>590</ele><time>2016-10-15T11:19:02Z</time></trkpt>
<trkpt lat="53.0838040000" lon="-4.1353950000"><ele>589</ele><time>2016-10-15T11:19:03Z</time></trkpt>
<trkpt lat="53.0837990000" lon="-4.1353920000"><ele>589</ele><time>2016-10-15T11:19:04Z</time></trkpt>
<trkpt lat="53.0837940000" lon="-4.1353890000"><ele>589</ele><time>2016-10-15T11:19:05Z</time></trkpt>
<trkpt lat="53.0837890000" lon="-4.1353850000"><ele>588</ele><time>2016-10-15T11:19:06Z</time></trkpt>
<trkpt lat="53.0837830000" lon="-4.1353820000"><ele>588</ele><time>2016-10-15T11:19:07Z</time></trkpt>
<trkpt lat="53.0837780000" lon="-4.1353780000"><ele>588</ele><time>2016-10-15T11:19:08Z</time></trkpt>
<trkpt lat="53.0837730000" lon="-4.1353740000"><ele>587</ele><time>2016-10-15T11:19:09Z</time></trkpt>
<trkpt lat="53.0837670000" lon="-4.1353700000"><ele>587</ele><time>2016-10-15T11:19:10Z</time></trkpt>
<trkpt lat="53.0837620000" lon="-4.1353650000"><ele>587</ele><time>2016-10-15T11:19:11Z</time></trkpt>
<trkpt lat="53.0837520000" lon="-4.1353560000"><ele>586</ele><time>2016-10-15T11:19:14Z</time></trkpt>
<trkpt lat="53.0837470000" lon="-4.1353520000"><ele>586</ele></trkpt>
<trkpt lat="53.0837420000" lon="-4.1353480000"><ele>585</ele><time>2016-10-15T11:19:15Z</time></trkpt>
<trkpt lat="53.0837370000" lon="-4.1353440000"><ele>585</ele><time>2016-10-15T11:19:16Z</time></trkpt>
<trkpt lat="53.0837320000" lon="-4.1353390000"><ele>585</ele><time>2016-10-15T11:19:17Z</time></trkpt>
<trkpt lat="53.0837280000" lon="-4.1353350000"><ele>584</ele><time>2016-10-15T11:19:18Z</time></trkpt>
<trkpt lat="53.0837240000" lon="-4.1353310000"><ele>584</ele><time>2016-10-15T11:19:19Z</time></trkpt>
<trkpt lat="53.0837200000" lon="-4.1353260000"><ele>584</ele><time>2016-10-15T11:19:20Z</time></trkpt>
<trkpt lat="53.0837160000" lon="-4.1353220000"><ele>583</ele><time>2016-10-15T11:19:21Z</time></trkpt>
<trkpt lat="53.0837120000" lon="-4.1353170000"><ele>583</ele><time>2016-10-15T11:19:22Z</time></trkpt>
<trkpt lat="53.0837080000" lon="-4.1353130000"><ele>582</ele><time>2016-10-15T11:19:23Z</time></trkpt>
<trkpt lat="53.0837040000" lon="-4.1353090000"><ele>582</ele><time>2016-10-15T11:19:24Z</time></trkpt>
<trkpt lat="53.0837000000" lon="-4.1353040000"><ele>582</ele><time>2016-10-15T11:19:25Z</time></trkpt>
<trkpt lat="53.0836960000" lon="-4.1352990000"><ele>581</ele><time>2016-10-15T11:19:26Z</time></trkpt>
<trkpt lat="53.0836920000" lon="-4.1352950000"><ele>581</ele><time>2016-10-15T11:19:27Z</time></trkpt>
<trkpt lat="53.0836890000" lon="-4.1352910000"><ele>581</ele><time>2016-10-15T11:19:28Z</time></trkpt>
<trkpt lat="53.0836850000" lon="-4.1352870000"><ele>580</ele><time>2016-10-15T11:19:29Z</time></trkpt>
<trkpt lat="53.0836820000" lon="-4.1352820000"><ele>580</ele><time>2016-10-15T11:19:30Z</time></trkpt>
<trkpt lat="53.0836780000" lon="-4.1352780000"><ele>580</ele><time>2016-10-15T11:19:31Z</time></trkpt>
<trkpt lat="53.0836750000" lon="-4.1352730000"><ele>579</ele><time>2016-10-15T11:19:32Z</time></trkpt>
<trkpt lat="53.0836710000" lon="-4.1352690000"><ele>579</ele><time>2016-10-15T11:19:33Z</time></trkpt>
<trkpt lat="53.0836670000" lon="-4.1352640000"><ele>579</ele><time>2016-10-15T11:19:34Z</time></trkpt>
<trkpt lat="53.0836620000" lon="-4.1352600000"><ele>578</ele><time>2016-10-15T11:19:35Z</time></trkpt>
<trkpt lat="53.0836570000" lon="-4.1352560000"><ele>578</ele><time>2016-10-15T11:19:36Z</time></trkpt>
<trkpt lat="53.0836530000" lon="-4.1352520000"><ele>577</ele><time>2016-10-15T11:19:37Z</time></trkpt>
<trkpt lat="53.0836480000" lon="-4.1352490000"><ele>577</ele><time>2016-10-15T11:19:38Z</time></trkpt>
<trkpt lat="53.0836430000" lon="-4.1352450000"><ele>577</ele><time>2016-10-15T11:19:39Z</time></trkpt>
<trkpt lat="53.0836380000" lon="-4.1352420000"><ele>576</ele><time>2016-10-15T11:19:40Z</time></trkpt>
<trkpt lat="53.0836330000" lon="-4.1352390000"><ele>576</ele><time>2016-10-15T11:19:41Z</time></trkpt>
<trkpt lat="53.0836280000" lon="-4.1352360000"><ele>575</ele><time>2016-10-15T11:19:42Z</time></trkpt>
<trkpt lat="53.0836230000" lon="-4.1352330000"><ele>575</ele><time>2016-10-15T11:19:43Z</time></trkpt>
<trkpt lat="53.0836170000" lon="-4.1352290000"><ele>575</ele><time>2016-10-15T11:19:44Z</time></trkpt>
<trkpt lat="53.0836120000" lon="-4.1352250000"><ele>574</ele><time>2016-10-15T11:19:45Z</time></trkpt>
<trkpt lat="53.0836060000" lon="-4.1352210000"><ele>574</ele><time>2016-10-15T11:19:46Z</time></trkpt>
<trkpt lat="53.0836000000" lon="-4.1352170000"><ele>574</ele><time>2016-10-15T11:19:47Z</time></trkpt>
<trkpt lat="53.0835940000" lon="-4.1352130000"><ele>573</ele><time>2016-10-15T11:19:48Z</time></trkpt>
<trkpt lat="53.0835880000" lon="-4.1352100000"><ele>573</ele><time>2016-10-15T11:19:49Z</time></trkpt>
<trkpt lat="53.0835820000" lon="-4.1352060000"><ele>573</ele><time>2016-10-15T11:19:50Z</time></trkpt>
<trkpt lat="53.0835770000" lon="-4.1352030000"><ele>573</ele><time>2016-10-15T11:19:51Z</time></trkpt>
<trkpt lat="53.0835700000" lon="-4.1351990000"><ele>572</ele><time>2016-10-15T11:19:52Z</time></trkpt>
<trkpt lat="53.0835640000" lon="-4.1351950000"><ele>572</ele><time>2016-10-15T11:19:53Z</time></trkpt>
<trkpt lat="53.0835580000" lon="-4.1351920000"><ele>571</ele><time>2016-10-15T11:19:54Z</time></trkpt>
<trkpt lat="53.0835520000" lon="-4.1351890000"><ele>571</ele><time>2016-10-15T11:19:55Z</time></trkpt>
<trkpt lat="53.0835450000" lon="-4.1351860000"><ele>570</ele><time>2016-10-15T11:19:56Z</time></trkpt>
<trkpt lat="53.0835390000" lon="-4.1351840000"><ele>570</ele><time>2016-10-15T11:19:57Z</time></trkpt>
<trkpt lat="53.0835320000" lon="-4.1351810000"><ele>569</ele><time>2016-10-15T11:19:58Z</time></trkpt>
<trkpt lat="53.0835250000" lon="-4.1351780000"><ele>569</ele><time>2016-10-15T11:19:59Z</time></trkpt>
<trkpt lat="53.0835180000" lon="-4.1351760000"><ele>568</ele><time>2016-10-15T11:20:00Z</time></trkpt>
<trkpt lat="53.0835110000" lon="-4.1351730000"><ele>568</ele><time>2016-10-15T11:20:01Z</time></trkpt>
<trkpt lat="53.0835030000" lon="-4.1351700000"><ele>568</ele><time>2016-10-15T11:20:02Z</time></trkpt>
<trkpt lat="53.0834960000" lon="-4.1351680000"><ele>567</ele><time>2016-10-15T11:20:03Z</time></trkpt>
<trkpt lat="53.0834880000" lon="-4.1351640000"><ele>567</ele><time>2016-10-15T11:20:04Z</time></trkpt>
<trkpt lat="53.0834810000" lon="-4.1351600000"><ele>566</ele><time>2016-10-15T11:20:05Z</time></trkpt>
<trkpt lat="53.0834730000" lon="-4.1351560000"><ele>566</ele><time>2016-10-15T11:20:06Z</time></trkpt>
<trkpt lat="53.0834650000" lon="-4.1351510000"><ele>566</ele><time>2016-10-15T11:20:07Z</time></trkpt>
<trkpt lat="53.0834580000" lon="-4.1351460000"><ele>565</ele><time>2016-10-15T11:20:08Z</time></trkpt>
<trkpt lat="53.0834500000" lon="-4.1351410000"><ele>565</ele><time>2016-10-15T11:20:09Z</time></trkpt>
<trkpt lat="53.0834420000" lon="-4.1351360000"><ele>565</ele><time>2016-10-15T11:20:10Z</time></trkpt>
<trkpt lat="53.0834340000" lon="-4.1351300000"><ele>565</ele><time>2016-10-15T11:20:11Z</time></trkpt>
<trkpt lat="53.0834170000" lon="-4.1351200000"><ele>564</ele><time>2016-10-15T11:20:14Z</time></trkpt>
<trkpt lat="53.0834090000" lon="-4.1351150000"><ele>564</ele></trkpt>
<trkpt lat="53.0834010000" lon="-4.1351110000"><ele>564</ele><time>2016-10-15T11:20:15Z</time></trkpt>
<trkpt lat="53.0833920000" lon="-4.1351060000"><ele>563</ele><time>2016-10-15T11:20:16Z</time></trkpt>
<trkpt lat="53.0833850000" lon="-4.1351020000"><ele>563</ele><time>2016-10-15T11:20:17Z</time></trkpt>
<trkpt lat="53.0833770000" lon="-4.1350970000"><ele>563</ele><time>2016-10-15T11:20:18Z</time></trkpt>
<trkpt lat="53.0833690000" lon="-4.1350930000"><ele>563</ele><time>2016-10-15T11:20:19Z</time></trkpt>
<trkpt lat="53.0833610000" lon="-4.1350880000"><ele>562</ele><time>2016-10-15T11:20:20Z</time></trkpt>
<trkpt lat="53.0833540000" lon="-4.1350830000"><ele>562</ele><time>2016-10-15T11:20:21Z</time></trkpt>
<trkpt lat="53.0833460000" lon="-4.1350770000"><ele>562</ele><time>2016-10-15T11:20:22Z</time></trkpt>
<trkpt lat="53.0833390000" lon="-4.1350720000"><ele>561</ele><time>2016-10-15T11:20:23Z</time></trkpt>
<trkpt lat="53.0833320000" lon="-4.1350670000"><ele>561</ele><time>2016-10-15T11:20:24Z</time></trkpt>
<trkpt lat="53.0833250000" lon="-4.1350620000"><ele>561</ele><time>2016-10-15T11:20:25Z</time></trkpt>
<trkpt lat="53.0833180000" lon="-4.1350560000"><ele>561</ele><time>2016-10-15T11:20:26Z</time></trkpt>
<trkpt lat="53.0833110000" lon="-4.1350510000"><ele>560</ele><time>2016-10-15T11:20:27Z</time></trkpt>
<trkpt lat="53.0833040000" lon="-4.1350470000"><ele>560</ele><time>2016-10-15T11:20:28Z</time></trkpt>
<trkpt lat="53.0832970000" lon="-4.1350420000"><ele>560</ele><time>2016-10-15T11:20:29Z</time></trkpt>
<trkpt lat="53.0832900000" lon="-4.1350370000"><ele>560</ele><time>2016-10-15T11:20:30Z</time></trkpt>
<trkpt lat="53.0832830000" lon="-4.1350330000"><ele>559</ele><time>2016-10-15T11:20:31Z</time></trkpt>
<trkpt lat="53.0832760000" lon="-4.1350290000"><ele>559</ele><time>2016-10-15T11:20:32Z</time></trkpt>
<trkpt lat="53.0832690000" lon="-4.1350250000"><ele>559</ele><time>2016-10-15T11:20:33Z</time></trkpt>
<trkpt lat="53.0832620000" lon="-4.1350200000"><ele>559</ele><time>2016-10-15T11:20:34Z</time></trkpt>
<trkpt lat="53.0832540000" lon="-4.1350160000"><ele>559</ele><time>2016-10-15T11:20:35Z</time></trkpt>
<trkpt lat="53.0832470000" lon="-4.1350110000"><ele>559</ele><time>2016-10-15T11:20:36Z</time></trkpt>
<trkpt lat="53.0832390000" lon="-4.1350060000"><ele>559</ele><time>2016-10-15T11:20:37Z</time></trkpt>
<trkpt lat="53.0831170000" lon="-4.1349300000"><ele>559</ele><time>2016-10-15T11:20:38Z</time></trkpt>
<trkpt lat="53.0831110000" lon="-4.1349250000"><ele>558</ele><time>2016-10-15T11:20:39Z</time></trkpt>
<trkpt lat="53.0831050000" lon="-4.1349170000"><ele>558</ele><time>2016-10-15T11:20:40Z</time></trkpt>
<trkpt lat="53.0831050000" lon="-4.1349170000"><ele>558</ele><time>2016-10-15T11:20:41Z</time></trkpt>
<trkpt lat="53.0831050000" lon="-4.1349170000"><ele>558</ele><time>2016-10-15T11:20:42Z</time></trkpt>
<trkpt lat="53.0831040000" lon="-4.1349170000"><ele>558</ele><time>2016-10-15T11:20:43Z</time></trkpt>
<trkpt lat="53.0831040000" lon="-4.1349160000"><ele>558</ele><time>2016-10-15T11:20:44Z</time></trkpt>
<trkpt lat="53.0831030000" lon="-4.1349150000"><ele>558</ele><time>2016-10-15T11:20:45Z</time></trkpt>
<trkpt lat="53.0831020000" lon="-4.1349140000"><ele>558</ele><time>2016-10-15T11:20:46Z</time></trkpt>
<trkpt lat="53.0831010000" lon="-4.1349120000"><ele>558</ele><time>2016-10-15T11:20:47Z</time></trkpt>
<trkpt lat="53.0831000000" lon="-4.1349090000"><ele>558</ele><time>2016-10-15T11:20:48Z</time></trkpt>
<trkpt lat="53.0830980000" lon="-4.1349070000"><ele>558</ele><time>2016-10-15T11:20:49Z</time></trkpt>
<trkpt lat="53.0830950000" lon="-4.1349040000"><ele>557</ele><time>2016-10-15T11:20:50Z</time></trkpt>
<trkpt lat="53.0830920000" lon="-4.1349000000"><ele>557</ele><time>2016-10-15T11:20:51Z</time></trkpt>
<trkpt lat="53.0830890000" lon="-4.1348960000"><ele>557</ele><time>2016-10-15T11:20:52Z</time></trkpt>
<trkpt lat="53.0830850000" lon="-4.1348920000"><ele>557</ele><time>2016-10-15T11:20:53Z</time></trkpt>
<trkpt lat="53.0830810000" lon="-4.1348880000"><ele>557</ele><time>2016-10-15T11:20:54Z</time></trkpt>
<trkpt lat="53.0830770000" lon="-4.1348840000"><ele>557</ele><time>2016-10-15T11:20:55Z</time></trkpt>
<trkpt lat="53.0830720000" lon="-4.1348790000"><ele>556</ele><time>2016-10-15T11:20:56Z</time></trkpt>
<trkpt lat="53.0830670000" lon="-4.1348740000"><ele>556</ele><time>2016-10-15T11:20:57Z</time></trkpt>
<trkpt lat="53.0830620000" lon="-4.1348690000"><ele>556</ele><time>2016-10-15T11:20:58Z</time></trkpt>
<trkpt lat="53.0830560000" lon="-4.1348640000"><ele>555</ele><time>2016-10-15T11:20:59Z</time></trkpt>
<trkpt lat="53.0830510000" lon="-4.1348600000"><ele>555</ele><time>2016-10-15T11:21:00Z</time></trkpt>
<trkpt lat="53.0830450000" lon="-4.1348550000"><ele>555</ele><time>2016-10-15T11:21:01Z</time></trkpt>
<trkpt lat="53.0830390000" lon="-4.1348510000"><ele>554</ele><time>2016-10-15T11:21:02Z</time></trkpt>
<trkpt lat="53.0830330000" lon="-4.1348470000"><ele>554</ele><time>2016-10-15T11:21:03Z</time></trkpt>
<trkpt lat="53.0830260000" lon="-4.1348420000"><ele>554</ele><time>2016-10-15T11:21:04Z</time></trkpt>
<trkpt lat="53.0830190000" lon="-4.1348380000"><ele>553</ele><time>2016-10-15T11:21:05Z</time></trkpt>
<trkpt lat="53.0830120000" lon="-4.1348340000"><ele>553</ele><time>2016-10-15T11:21:06Z</time></trkpt>
<trkpt lat="53.0830050000" lon="-4.1348300000"><ele>553</ele><time>2016-10-15T11:21:07Z</time></trkpt>
<trkpt lat="53.0829980000" lon="-4.1348260000"><ele>552</ele><time>2016-10-15T11:21:08Z</time></trkpt>
<trkpt lat="53.0829910000" lon="-4.1348220000"><ele>552</ele><time>2016-10-15T11:21:09Z</time></trkpt>
<trkpt lat="53.0829840000" lon="-4.1348180000"><ele>552</ele><time>2016-10-15T11:21:10Z</time></trkpt>
<trkpt lat="53.0829760000" lon="-4.1348140000"><ele>551</ele><time>2016-10-15T11:21:11Z</time></trkpt>
<trkpt lat="53.0829600000" lon="-4.1348060000"><ele>550</ele><time>2016-10-15T11:21:14Z</time></trkpt>
<trkpt lat="53.0829530000" lon="-4.1348010000"><ele>550</ele></trkpt>
<trkpt lat="53.0829450000" lon="-4.1347960000"><ele>550</ele><time>2016-10-15T11:21:15Z</time></trkpt>
<trkpt lat="53.0829370000" lon="-4.1347910000"><ele>550</ele><time>2016-10-15T11:21:16Z</time></trkpt>
<trkpt lat="53.0829290000" lon="-4.1347870000"><ele>549</ele><time>2016-10-15T11:21:17Z</time></trkpt>
<trkpt lat="53.0829200000" lon="-4.1347820000"><ele>549</ele><time>2016-10-15T11:21:18Z</time></trkpt>
<trkpt lat="53.0829120000" lon="-4.1347770000"><ele>549</ele><time>2016-10-15T11:21:19Z</time></trkpt>
<trkpt lat="53.0829030000" lon="-4.1347720000"><ele>548</ele><time>2016-10-15T11:21:20Z</time></trkpt>
<trkpt lat="53.0828950000" lon="-4.1347680000"><ele>548</ele><time>2016-10-15T11:21:21Z</time></trkpt>
<trkpt lat="53.0828860000" lon="-4.1347630000"><ele>548</ele><time>2016-10-15T11:21:22Z</time></trkpt>
<trkpt lat="53.0828780000" lon="-4.1347580000"><ele>547</ele><time>2016-10-15T11:21:23Z</time></trkpt>
<trkpt lat="53.0828690000" lon="-4.1347540000"><ele>547</ele><time>2016-10-15T11:21:24Z</time></trkpt>
<trkpt lat="53.0828610000" lon="-4.1347490000"><ele>547</ele><time>2016-10-15T11:21:25Z</time></trkpt>
<trkpt lat="53.0828520000" lon="-4.1347450000"><ele>546</ele><time>2016-10-15T11:21:26Z</time></trkpt>
<trkpt lat="53.0828440000" lon="-4.1347410000"><ele>546</ele><time>2016-10-15T11:21:27Z</time></trkpt>
<trkpt lat="53.0828360000" lon="-4.1347380000"><ele>546</ele><time>2016-10-15T11:21:28Z</time></trkpt>
<trkpt lat="53.0828270000" lon="-4.1347330000"><ele>545</ele><time>2016-10-15T11:21:29Z</time></trkpt>
<trkpt lat="53.0828190000" lon="-4.1347290000"><ele>545</ele><time>2016-10-15T11:21:30Z</time></trkpt>
<trkpt lat="53.0828110000" lon="-4.1347250000"><ele>545</ele><time>2016-10-15T11:21:31Z</time></trkpt>
<trkpt lat="53.0828030000" lon="-4.1347210000"><ele>544</ele><time>2016-10-15T11:21:32Z</time></trkpt>
<trkpt lat="53.0827950000" lon="-4.1347160000"><ele>544</ele><time>2016-10-15T11:21:33Z</time></trkpt>
<trkpt lat="53.0827880000" lon="-4.1347120000"><ele>544</ele><time>2016-10-15T11:21:34Z</time></trkpt>
<trkpt lat="53.0827800000" lon="-4.1347090000"><ele>543</ele><time>2016-10-15T11:21:35Z</time></trkpt>
<trkpt lat="53.0827730000" lon="-4.1347050000"><ele>543</ele><time>2016-10-15T11:21:36Z</time></trkpt>
<trkpt lat="53.0827660000" lon="-4.1347020000"><ele>543</ele><time>2016-10-15T11:21:37Z</time></trkpt>
<trkpt lat="53.0827590000" lon="-4.1346990000"><ele>542</ele><time>2016-10-15T11:21:38Z</time></trkpt>
<trkpt lat="53.0827520000" lon="-4.1346950000"><ele>542</ele><time>2016-10-15T11:21:39Z</time></trkpt>
<trkpt lat="53.0827440000" lon="-4.1346920000"><ele>542</ele><time>2016-10-15T11:21:40Z</time></trkpt>
<trkpt lat="53.0827370000" lon="-4.1346890000"><ele>541</ele><time>2016-10-15T11:21:41Z</time></trkpt>
<trkpt lat="53.0827290000" lon="-4.1346860000"><ele>541</ele><time>2016-10-15T11:21:42Z</time></trkpt>
<trkpt lat="53.0827210000" lon="-4.1346840000"><ele>541</ele><time>2016-10-15T11:21:43Z</time></trkpt>
<trkpt lat="53.0827130000" lon="-4.1346820000"><ele>541</ele><time>2016-10-15T11:21:44Z</time></trkpt>
<trkpt lat="53.0827040000" lon="-4.1346790000"><ele>541</ele><time>2016-10-15T11:21:45Z</time></trkpt>
<trkpt lat="53.0826960000" lon="-4.1346770000"><ele>541</ele><time>2016-10-15T11:21:46Z</time></trkpt>
<trkpt lat="53.0826870000" lon="-4.1346740000"><ele>540</ele><time>2016-10-15T11:21:47Z</time></trkpt>
<trkpt lat="53.0826790000" lon="-4.1346720000"><ele>540</ele><time>2016-10-15T11:21:48Z</time></trkpt>
<trkpt lat="53.0826710000" lon="-4.1346680000"><ele>540</ele><time>2016-10-15T11:21:49Z</time></trkpt>
<trkpt lat="53.0826620000" lon="-4.1346650000"><ele>540</ele><time>2016-10-15T11:21:50Z</time></trkpt>
<trkpt lat="53.0826540000" lon="-4.1346610000"><ele>540</ele><time>2016-10-15T11:21:51Z</time></trkpt>
<trkpt lat="53.0826450000" lon="-4.1346580000"><ele>540</ele><time>2016-10-15T11:21:52Z</time></trkpt>
<trkpt lat="53.0826360000" lon="-4.1346540000"><ele>540</ele><time>2016-10-15T11:21:53Z</time></trkpt>
<trkpt lat="53.0826270000" lon="-4.1346490000"><ele>540</ele><time>2016-10-15T11:21:54Z</time></trkpt>
<trkpt lat="53.0826180000" lon="-4.1346450000"><ele>539</ele><time>2016-10-15T11:21:55Z</time></trkpt>
<trkpt lat="53.0824630000" lon="-4.1345690000"><ele>539</ele><time>2016-10-15T11:21:56Z</time></trkpt>
<trkpt lat="53.0824500000" lon="-4.1345630000"><ele>539</ele><time>2016-10-15T11:21:57Z</time></trkpt>
<trkpt lat="53.0824420000" lon="-4.1345550000"><ele>539</ele><time>2016-10-15T11:21:58Z</time></trkpt>
<trkpt lat="53.0824380000" lon="-4.1345460000"><ele>539</ele><time>2016-10-15T11:21:59Z</time></trkpt>
<trkpt lat="53.0824380000" lon="-4.1345460000"><ele>539</ele><time>2016-10-15T11:22:00Z</time></trkpt>
<trkpt lat="53.0824380000" lon="-4.1345460000"><ele>538</ele><time>2016-10-15T11:22:01Z</time></trkpt>
<trkpt lat="53.0824370000" lon="-4.1345460000"><ele>538</ele><time>2016-10-15T11:22:02Z</time></trkpt>
<trkpt lat="53.0824370000" lon="-4.1345450000"><ele>538</ele><time>2016-10-15T11:22:03Z</time></trkpt>
<trkpt lat="53.0824360000" lon="-4.1345440000"><ele>538</ele><time>2016-10-15T11:22:04Z</time></trkpt>
<trkpt lat="53.0824360000" lon="-4.1345430000"><ele>537</ele><time>2016-10-15T11:22:05Z</time></trkpt>
<trkpt lat="53.0824350000" lon="-4.1345420000"><ele>537</ele><time>2016-10-15T11:22:06Z</time></trkpt>
<trkpt lat="53.0824330000" lon="-4.1345400000"><ele>537</ele><time>2016-10-15T11:22:07Z</time></trkpt>
<trkpt lat="53.0824320000" lon="-4.1345380000"><ele>536</ele><time>2016-10-15T11:22:08Z</time></trkpt>
<trkpt lat="53.0824300000" lon="-4.1345360000"><ele>536</ele><time>2016-10-15T11:22:09Z</time></trkpt>
<trkpt lat="53.0824270000" lon="-4.1345330000"><ele>536</ele><time>2016-10-15T11:22:10Z</time></trkpt>
<trkpt lat="53.0824240000" lon="-4.1345310000"><ele>535</ele><time>2016-10-15T11:22:11Z</time></trkpt>
<trkpt lat="53.0824180000" lon="-4.1345250000"><ele>534</ele><time>2016-10-15T11:22:14Z</time></trkpt>
<trkpt lat="53.0824140000" lon="-4.1345210000"><ele>534</ele></trkpt>
<trkpt lat="53.0824100000" lon="-4.1345180000"><ele>533</ele><time>2016-10-15T11:22:15Z</time></trkpt>
<trkpt lat="53.0824060000" lon="-4.1345140000"><ele>533</ele><time>2016-10-15T11:22:16Z</time></trkpt>
<trkpt lat="53.0824020000" lon="-4.1345100000"><ele>532</ele><time>2016-10-15T11:22:17Z</time></trkpt>
<trkpt lat="53.0823980000" lon="-4.1345060000"><ele>532</ele><time>2016-10-15T11:22:18Z</time></trkpt>
<trkpt lat="53.0823930000" lon="-4.1345010000"><ele>531</ele><time>2016-10-15T11:22:19Z</time></trkpt>
<trkpt lat="53.0823880000" lon="-4.1344960000"><ele>531</ele><time>2016-10-15T11:22:20Z</time></trkpt>
<trkpt lat="53.0823830000" lon="-4.1344900000"><ele>531</ele><time>2016-10-15T11:22:21Z</time></trkpt>
<trkpt lat="53.0823770000" lon="-4.1344850000"><ele>530</ele><time>2016-10-15T11:22:22Z</time></trkpt>
<trkpt lat="53.0823700000" lon="-4.1344800000"><ele>530</ele><time>2016-10-15T11:22:23Z</time></trkpt>
<trkpt lat="53.0823640000" lon="-4.1344740000"><ele>530</ele><time>2016-10-15T11:22:24Z</time></trkpt>
<trkpt lat="53.0823570000" lon="-4.1344680000"><ele>529</ele><time>2016-10-15T11:22:25Z</time></trkpt>
<trkpt lat="53.0823500000" lon="-4.1344630000"><ele>529</ele><time>2016-10-15T11:22:26Z</time></trkpt>
<trkpt lat="53.0823430000" lon="-4.1344580000"><ele>529</ele><time>2016-10-15T11:22:27Z</time></trkpt>
<trkpt lat="53.0823360000" lon="-4.1344520000"><ele>529</ele><time>2016-10-15T11:22:28Z</time></trkpt>
<trkpt lat="53.0823290000" lon="-4.1344470000"><ele>528</ele><time>2016-10-15T11:22:29Z</time></trkpt>
<trkpt lat="53.0823220000" lon="-4.1344410000"><ele>528</ele><time>2016-10-15T11:22:30Z</time></trkpt>
<trkpt lat="53.0823150000" lon="-4.1344360000"><ele>528</ele><time>2016-10-15T11:22:31Z</time></trkpt>
<trkpt lat="53.0823070000" lon="-4.1344310000"><ele>527</ele><time>2016-10-15T11:22:32Z</time></trkpt>
<trkpt lat="53.0823000000" lon="-4.1344260000"><ele>527</ele><time>2016-10-15T11:22:33Z</time></trkpt>
<trkpt lat="53.0822930000" lon="-4.1344210000"><ele>527</ele><time>2016-10-15T11:22:34Z</time></trkpt>
<trkpt lat="53.0822850000" lon="-4.1344160000"><ele>526</ele><time>2016-10-15T11:22:35Z</time></trkpt>
<trkpt lat="53.0822770000" lon="-4.1344120000"><ele>526</ele><time>2016-10-15T11:22:36Z</time></trkpt>
<trkpt lat="53.0822690000" lon="-4.1344080000"><ele>526</ele><time>2016-10-15T11:22:37Z</time></trkpt>
<trkpt lat="53.0822610000" lon="-4.1344030000"><ele>526</ele><time>2016-10-15T11:22:38Z</time></trkpt>
<trkpt lat="53.0822520000" lon="-4.1343990000"><ele>525</ele><time>2016-10-15T11:22:39Z</time></trkpt>
<trkpt lat="53.0822440000" lon="-4.1343940000"><ele>525</ele><time>2016-10-15T11:22:40Z</time></trkpt>
<trkpt lat="53.0822360000" lon="-4.1343900000"><ele>525</ele><time>2016-10-15T11:22:41Z</time></trkpt>
<trkpt lat="53.0822270000" lon="-4.1343850000"><ele>525</ele><time>2016-10-15T11:22:42Z</time></trkpt>
<trkpt lat="53.0822190000" lon="-4.1343810000"><ele>524</ele><time>2016-10-15T11:22:43Z</time></trkpt>
<trkpt lat="53.0822110000" lon="-4.1343760000"><ele>524</ele><time>2016-10-15T11:22:44Z</time></trkpt>
<trkpt lat="53.0822030000" lon="-4.1343710000"><ele>524</ele><time>2016-10-15T11:22:45Z</time></trkpt>
<trkpt lat="53.0821960000" lon="-4.1343660000"><ele>523</ele><time>2016-10-15T11:22:46Z</time></trkpt>
<trkpt lat="53.0821880000" lon="-4.1343610000"><ele>523</ele><time>2016-10-15T11:22:47Z</time></trkpt>
<trkpt lat="53.0821800000" lon="-4.1343570000"><ele>523</ele><time>2016-10-15T11:22:48Z</time></trkpt>
<trkpt lat="53.0821720000" lon="-4.1343520000"><ele>523</ele><time>2016-10-15T11:22:49Z</time></trkpt>
<trkpt lat="53.0821630000" lon="-4.1343480000"><ele>522</ele><time>2016-10-15T11:22:50Z</time></trkpt>
<trkpt lat="53.0821550000" lon="-4.1343430000"><ele>522</ele><time>2016-10-15T11:22:51Z</time></trkpt>
<trkpt lat="53.0821460000" lon="-4.1343390000"><ele>522</ele><time>2016-10-15T11:22:52Z</time></trkpt>
<trkpt lat="53.0821380000" lon="-4.1343340000"><ele>522</ele><time>2016-10-15T11:22:53Z</time></trkpt>
<trkpt lat="53.0821300000" lon="-4.1343300000"><ele>521</ele><time>2016-10-15T11:22:54Z</time></trkpt>
<trkpt lat="53.0821220000" lon="-4.1343250000"><ele>521</ele><time>2016-10-15T11:22:55Z</time></trkpt>
<trkpt lat="53.0821130000" lon="-4.1343190000"><ele>521</ele><time>2016-10-15T11:22:56Z</time></trkpt>
<trkpt lat="53.0821050000" lon="-4.1343140000"><ele>521</ele><time>2016-10-15T11:22:57Z</time></trkpt>
<trkpt lat="53.0820970000" lon="-4.1343080000"><ele>520</ele><time>2016-10-15T11:22:58Z</time></trkpt>
<trkpt lat="53.0820890000" lon="-4.1343020000"><ele>520</ele><time>2016-10-15T11:22:59Z</time></trkpt>
<trkpt lat="53.0820800000" lon="-4.1342970000"><ele>520</ele><time>2016-10-15T11:23:00Z</time></trkpt>
<trkpt lat="53.0820720000" lon="-4.1342910000"><ele>520</ele><time>2016-10-15T11:23:01Z</time></trkpt>
<trkpt lat="53.0820630000" lon="-4.1342850000"><ele>519</ele><time>2016-10-15T11:23:02Z</time></trkpt>
<trkpt lat="53.0820550000" lon="-4.1342790000"><ele>519</ele><time>2016-10-15T11:23:03Z</time></trkpt>
<trkpt lat="53.0820460000" lon="-4.1342740000"><ele>519</ele><time>2016-10-15T11:23:04Z</time></trkpt>
<trkpt lat="53.0820370000" lon="-4.1342680000"><ele>518</ele><time>2016-10-15T11:23:05Z</time></trkpt>
<trkpt lat="53.0820290000" lon="-4.1342630000"><ele>518</ele><time>2016-10-15T11:23:06Z</time></trkpt>
<trkpt lat="53.0820190000" lon="-4.1342580000"><ele>518</ele><time>2016-10-15T11:23:07Z</time></trkpt>
<trkpt lat="53.0820100000" lon="-4.1342530000"><ele>517</ele><time>2016-10-15T11:23:08Z</time></trkpt>
<trkpt lat="53.0818670000" lon="-4.1341720000"><ele>517</ele><time>2016-10-15T11:23:09Z</time></trkpt>
<trkpt lat="53.0818600000" lon="-4.1341670000"><ele>517</ele><time>2016-10-15T11:23:10Z</time></trkpt>
<trkpt lat="53.0818490000" lon="-4.1341590000"><ele>516</ele><time>2016-10-15T11:23:11Z</time></trkpt>
<trkpt lat="53.0818300000" lon="-4.1341480000"><ele>516</ele><time>2016-10-15T11:23:14Z</time></trkpt>
<trkpt lat="53.0818300000" lon="-4.1341480000"><ele>515</ele></trkpt>
<trkpt lat="53.0818300000" lon="-4.1341480000"><ele>515</ele><time>2016-10-15T11:23:15Z</time></trkpt>
<trkpt lat="53.0818300000" lon="-4.1341480000"><ele>515</ele><time>2016-10-15T11:23:16Z</time></trkpt>
<trkpt lat="53.0818290000" lon="-4.1341470000"><ele>514</ele><time>2016-10-15T11:23:17Z</time></trkpt>
<trkpt lat="53.0818280000" lon="-4.1341470000"><ele>514</ele><time>2016-10-15T11:23:18Z</time></trkpt>
<trkpt lat="53.0818270000" lon="-4.1341460000"><ele>514</ele><time>2016-10-15T11:23:19Z</time></trkpt>
<trkpt lat="53.0818250000" lon="-4.1341440000"><ele>514</ele><time>2016-10-15T11:23:20Z</time></trkpt>
<trkpt lat="53.0818220000" lon="-4.1341430000"><ele>513</ele><time>2016-10-15T11:23:21Z</time></trkpt>
<trkpt lat="53.0818200000" lon="-4.1341400000"><ele>513</ele><time>2016-10-15T11:23:22Z</time></trkpt>
<trkpt lat="53.0818160000" lon="-4.1341380000"><ele>513</ele><time>2016-10-15T11:23:23Z</time></trkpt>
<trkpt lat="53.0818130000" lon="-4.1341340000"><ele>512</ele><time>2016-10-15T11:23:24Z</time></trkpt>
<trkpt lat="53.0818090000" lon="-4.1341300000"><ele>512</ele><time>2016-10-15T11:23:25Z</time></trkpt>
<trkpt lat="53.0818040000" lon="-4.1341250000"><ele>512</ele><time>2016-10-15T11:23:26Z</time></trkpt>
<trkpt lat="53.0818000000" lon="-4.1341200000"><ele>511</ele><time>2016-10-15T11:23:27Z</time></trkpt>
<trkpt lat="53.0817950000" lon="-4.1341140000"><ele>511</ele><time>2016-10-15T11:23:28Z</time></trkpt>
<trkpt lat="53.0817890000" lon="-4.1341070000"><ele>511</ele><time>2016-10-15T11:23:29Z</time></trkpt>
<trkpt lat="53.0817840000" lon="-4.1341010000"><ele>511</ele><time>2016-10-15T11:23:30Z</time></trkpt>
<trkpt lat="53.0817780000" lon="-4.1340940000"><ele>510</ele><time>2016-10-15T11:23:31Z</time></trkpt>
<trkpt lat="53.0817710000" lon="-4.1340870000"><ele>510</ele><time>2016-10-15T11:23:32Z</time></trkpt>
<trkpt lat="53.0817640000" lon="-4.1340790000"><ele>510</ele><time>2016-10-15T11:23:33Z</time></trkpt>
<trkpt lat="53.0817580000" lon="-4.1340720000"><ele>510</ele><time>2016-10-15T11:23:34Z</time></trkpt>
<trkpt lat="53.0817500000" lon="-4.1340640000"><ele>510</ele><time>2016-10-15T11:23:35Z</time></trkpt>
<trkpt lat="53.0817450000" lon="-4.1340590000"><ele>509</ele><time>2016-10-15T11:23:36Z</time></trkpt>
<trkpt lat="53.0817370000" lon="-4.1340510000"><ele>509</ele><time>2016-10-15T11:23:37Z</time></trkpt>
<trkpt lat="53.0817300000" lon="-4.1340430000"><ele>509</ele><time>2016-10-15T11:23:38Z</time></trkpt>
<trkpt lat="53.0817220000" lon="-4.1340360000"><ele>509</ele><time>2016-10-15T11:23:39Z</time></trkpt>
<trkpt lat="53.0817140000" lon="-4.1340280000"><ele>509</ele><time>2016-10-15T11:23:40Z</time></trkpt>
<trkpt lat="53.0817060000" lon="-4.1340200000"><ele>508</ele><time>2016-10-15T11:23:41Z</time></trkpt>
<trkpt lat="53.0816980000" lon="-4.1340130000"><ele>508</ele><time>2016-10-15T11:23:42Z</time></trkpt>
<trkpt lat="53.0816900000" lon="-4.1340050000"><ele>508</ele><time>2016-10-15T11:23:43Z</time></trkpt>
<trkpt lat="53.0815510000" lon="-4.1338760000"><ele>508</ele><time>2016-10-15T11:23:44Z</time></trkpt>
<trkpt lat="53.0815420000" lon="-4.1338700000"><ele>507</ele><time>2016-10-15T11:23:45Z</time></trkpt>
<trkpt lat="53.0815310000" lon="-4.1338620000"><ele>507</ele><time>2016-10-15T11:23:46Z</time></trkpt>
<trkpt lat="53.0815190000" lon="-4.1338560000"><ele>507</ele><time>2016-10-15T11:23:47Z</time></trkpt>
<trkpt lat="53.0815100000" lon="-4.1338500000"><ele>507</ele><time>2016-10-15T11:23:48Z</time></trkpt>
<trkpt lat="53.0815100000" lon="-4.1338500000"><ele>506</ele><time>2016-10-15T11:23:49Z</time></trkpt>
<trkpt lat="53.0815100000" lon="-4.1338500000"><ele>506</ele><time>2016-10-15T11:23:50Z</time></trkpt>
<trkpt lat="53.0815090000" lon="-4.1338500000"><ele>506</ele><time>2016-10-15T11:23:51Z</time></trkpt>
<trkpt lat="53.0815090000" lon="-4.1338500000"><ele>505</ele><time>2016-10-15T11:23:52Z</time></trkpt>
<trkpt lat="53.0815080000" lon="-4.1338490000"><ele>505</ele><time>2016-10-15T11:23:53Z</time></trkpt>
<trkpt lat="53.0815060000" lon="-4.1338490000"><ele>505</ele><time>2016-10-15T11:23:54Z</time></trkpt>
<trkpt lat="53.0815050000" lon="-4.1338480000"><ele>505</ele><time>2016-10-15T11:23:55Z</time></trkpt>
<trkpt lat="53.0815020000" lon="-4.1338460000"><ele>504</ele><time>2016-10-15T11:23:56Z</time></trkpt>
<trkpt lat="53.0815000000" lon="-4.1338450000"><ele>504</ele><time>2016-10-15T11:23:57Z</time></trkpt>
<trkpt lat="53.0814970000" lon="-4.1338430000"><ele>504</ele><time>2016-10-15T11:23:58Z</time></trkpt>
<trkpt lat="53.0814940000" lon="-4.1338420000"><ele>503</ele><time>2016-10-15T11:23:59Z</time></trkpt>
<trkpt lat="53.0814900000" lon="-4.1338400000"><ele>503</ele><time>2016-10-15T11:24:00Z</time></trkpt>
<trkpt lat="53.0814880000" lon="-4.1338380000"><ele>503</ele><time>2016-10-15T11:24:01Z</time></trkpt>
<trkpt lat="53.0814840000" lon="-4.1338360000"><ele>503</ele><time>2016-10-15T11:24:02Z</time></trkpt>
<trkpt lat="53.0814790000" lon="-4.1338330000"><ele>503</ele><time>2016-10-15T11:24:03Z</time></trkpt>
<trkpt lat="53.0814740000" lon="-4.1338290000"><ele>502</ele><time>2016-10-15T11:24:04Z</time></trkpt>
<trkpt lat="53.0814680000" lon="-4.1338260000"><ele>502</ele><time>2016-10-15T11:24:05Z</time></trkpt>
<trkpt lat="53.0814620000" lon="-4.1338230000"><ele>502</ele><time>2016-10-15T11:24:06Z</time></trkpt>
<trkpt lat="53.0814560000" lon="-4.1338190000"><ele>502</ele><time>2016-10-15T11:24:07Z</time></trkpt>
<trkpt lat="53.0814490000" lon="-4.1338150000"><ele>502</ele><time>2016-10-15T11:24:08Z</time></trkpt>
<trkpt lat="53.0814420000" lon="-4.1338110000"><ele>501</ele><time>2016-10-15T11:24:09Z</time></trkpt>
<trkpt lat="53.0814350000" lon="-4.1338060000"><ele>501</ele><time>2016-10-15T11:24:10Z</time></trkpt>
<trkpt lat="53.0814270000" lon="-4.1338020000"><ele>501</ele><time>2016-10-15T11:24:11Z</time></trkpt>
<trkpt lat="53.0814100000" lon="-4.1337910000"><ele>501</ele><time>2016-10-15T11:24:14Z</time></trkpt>
<trkpt lat="53.0814020000" lon="-4.1337850000"><ele>501</ele></trkpt>
<trkpt lat="53.0813940000" lon="-4.1337790000"><ele>501</ele><time>2016-10-15T11:24:15Z</time></trkpt>
<trkpt lat="53.0813860000" lon="-4.1337720000"><ele>500</ele><time>2016-10-15T11:24:16Z</time></trkpt>
<trkpt lat="53.0813770000" lon="-4.1337660000"><ele>500</ele><time>2016-10-15T11:24:17Z</time></trkpt>
<trkpt lat="53.0813680000" lon="-4.1337580000"><ele>500</ele><time>2016-10-15T11:24:18Z</time></trkpt>
<trkpt lat="53.0812230000" lon="-4.1336340000"><ele>500</ele><time>2016-10-15T11:24:19Z</time></trkpt>
<trkpt lat="53.0812120000" lon="-4.1336220000"><ele>500</ele><time>2016-10-15T11:24:20Z</time></trkpt>
<trkpt lat="53.0812040000" lon="-4.1336140000"><ele>500</ele><time>2016-10-15T11:24:21Z</time></trkpt>
<trkpt lat="53.0811960000" lon="-4.1336090000"><ele>499</ele><time>2016-10-15T11:24:22Z</time></trkpt>
<trkpt lat="53.0811960000" lon="-4.1336090000"><ele>499</ele><time>2016-10-15T11:24:23Z</time></trkpt>
<trkpt lat="53.0811950000" lon="-4.1336090000"><ele>499</ele><time>2016-10-15T11:24:24Z</time></trkpt>
<trkpt lat="53.0811950000" lon="-4.1336090000"><ele>499</ele><time>2016-10-15T11:24:25Z</time></trkpt>
<trkpt lat="53.0811940000" lon="-4.1336080000"><ele>499</ele><time>2016-10-15T11:24:26Z</time></trkpt>
<trkpt lat="53.0811940000" lon="-4.1336070000"><ele>498</ele><time>2016-10-15T11:24:27Z</time></trkpt>
<trkpt lat="53.0811920000" lon="-4.1336060000"><ele>498</ele><time>2016-10-15T11:24:28Z</time></trkpt>
<trkpt lat="53.0811910000" lon="-4.1336040000"><ele>498</ele><time>2016-10-15T11:24:29Z</time></trkpt>
<trkpt lat="53.0811890000" lon="-4.1336010000"><ele>497</ele><time>2016-10-15T11:24:30Z</time></trkpt>
<trkpt lat="53.0811870000" lon="-4.1335980000"><ele>497</ele><time>2016-10-15T11:24:31Z</time></trkpt>
<trkpt lat="53.0811840000" lon="-4.1335950000"><ele>497</ele><time>2016-10-15T11:24:32Z</time></trkpt>
<trkpt lat="53.0811810000" lon="-4.1335910000"><ele>497</ele><time>2016-10-15T11:24:33Z</time></trkpt>
<trkpt lat="53.0811780000" lon="-4.1335860000"><ele>496</ele><time>2016-10-15T11:24:34Z</time></trkpt>
<trkpt lat="53.0811740000" lon="-4.1335800000"><ele>496</ele><time>2016-10-15T11:24:35Z</time></trkpt>
<trkpt lat="53.0811700000" lon="-4.1335750000"><ele>496</ele><time>2016-10-15T11:24:36Z</time></trkpt>
<trkpt lat="53.0811660000" lon="-4.1335680000"><ele>496</ele><time>2016-10-15T11:24:37Z</time></trkpt>
<trkpt lat="53.0811610000" lon="-4.1335610000"><ele>495</ele><time>2016-10-15T11:24:38Z</time></trkpt>
<trkpt lat="53.0811560000" lon="-4.1335540000"><ele>495</ele><time>2016-10-15T11:24:39Z</time></trkpt>
<trkpt lat="53.0811520000" lon="-4.1335460000"><ele>495</ele><time>2016-10-15T11:24:40Z</time></trkpt>
<trkpt lat="53.0811480000" lon="-4.1335390000"><ele>494</ele><time>2016-10-15T11:24:41Z</time></trkpt>
<trkpt lat="53.0811430000" lon="-4.1335300000"><ele>494</ele><time>2016-10-15T11:24:42Z</time></trkpt>
<trkpt lat="53.0811380000" lon="-4.1335200000"><ele>493</ele><time>2016-10-15T11:24:43Z</time></trkpt>
<trkpt lat="53.0811320000" lon="-4.1335110000"><ele>493</ele><time>2016-10-15T11:24:44Z</time></trkpt>
<trkpt lat="53.0811270000" lon="-4.1335000000"><ele>493</ele><time>2016-10-15T11:24:45Z</time></trkpt>
<trkpt lat="53.0811210000" lon="-4.1334890000"><ele>493</ele><time>2016-10-15T11:24:46Z</time></trkpt>
<trkpt lat="53.0811160000" lon="-4.1334780000"><ele>492</ele><time>2016-10-15T11:24:47Z</time></trkpt>
<trkpt lat="53.0811100000" lon="-4.1334660000"><ele>492</ele><time>2016-10-15T11:24:48Z</time></trkpt>
<trkpt lat="53.0811050000" lon="-4.1334540000"><ele>492</ele><time>2016-10-15T11:24:49Z</time></trkpt>
<trkpt lat="53.0810990000" lon="-4.1334410000"><ele>492</ele><time>2016-10-15T11:24:50Z</time></trkpt>
<trkpt lat="53.0810090000" lon="-4.1332330000"><ele>491</ele><time>2016-10-15T11:24:51Z</time></trkpt>
<trkpt lat="53.0810050000" lon="-4.1332160000"><ele>491</ele><time>2016-10-15T11:24:52Z</time></trkpt>
<trkpt lat="53.0810020000" lon="-4.1331990000"><ele>491</ele><time>2016-10-15T11:24:53Z</time></trkpt>
<trkpt lat="53.0810020000" lon="-4.1331990000"><ele>491</ele><time>2016-10-15T11:24:54Z</time></trkpt>
<trkpt lat="53.0810020000" lon="-4.1331980000"><ele>491</ele><time>2016-10-15T11:24:55Z</time></trkpt>
<trkpt lat="53.0810020000" lon="-4.1331980000"><ele>491</ele><time>2016-10-15T11:24:56Z</time></trkpt>
<trkpt lat="53.0810020000" lon="-4.1331960000"><ele>491</ele><time>2016-10-15T11:24:57Z</time></trkpt>
<trkpt lat="53.0810010000" lon="-4.1331940000"><ele>491</ele><time>2016-10-15T11:24:58Z</time></trkpt>
<trkpt lat="53.0810010000" lon="-4.1331910000"><ele>490</ele><time>2016-10-15T11:24:59Z</time></trkpt>
<trkpt lat="53.0810000000" lon="-4.1331870000"><ele>490</ele><time>2016-10-15T11:25:00Z</time></trkpt>
<trkpt lat="53.0809990000" lon="-4.1331830000"><ele>490</ele><time>2016-10-15T11:25:01Z</time></trkpt>
<trkpt lat="53.0809990000" lon="-4.1331770000"><ele>490</ele><time>2016-10-15T11:25:02Z</time></trkpt>
<trkpt lat="53.0809970000" lon="-4.1331710000"><ele>490</ele><time>2016-10-15T11:25:03Z</time></trkpt>
<trkpt lat="53.0809960000" lon="-4.1331640000"><ele>490</ele><time>2016-10-15T11:25:04Z</time></trkpt>
<trkpt lat="53.0809950000" lon="-4.1331560000"><ele>490</ele><time>2016-10-15T11:25:05Z</time></trkpt>
<trkpt lat="53.0809930000" lon="-4.1331470000"><ele>489</ele><time>2016-10-15T11:25:06Z</time></trkpt>
<trkpt lat="53.0809910000" lon="-4.1331370000"><ele>489</ele><time>2016-10-15T11:25:07Z</time></trkpt>
<trkpt lat="53.0809890000" lon="-4.1331270000"><ele>489</ele><time>2016-10-15T11:25:08Z</time></trkpt>
<trkpt lat="53.0809860000" lon="-4.1331150000"><ele>489</ele><time>2016-10-15T11:25:09Z</time></trkpt>
<trkpt lat="53.0809830000" lon="-4.1331040000"><ele>488</ele><time>2016-10-15T11:25:10Z</time></trkpt>
<trkpt lat="53.0809800000" lon="-4.1330920000"><ele>488</ele><time>2016-10-15T11:25:11Z</time></trkpt>
<trkpt lat="53.0809730000" lon="-4.1330690000"><ele>487</ele><time>2016-10-15T11:25:14Z</time></trkpt>
<trkpt lat="53.0809690000" lon="-4.1330590000"><ele>487</ele></trkpt>
<trkpt lat="53.0809650000" lon="-4.1330480000"><ele>487</ele><time>2016-10-15T11:25:15Z</time></trkpt>
<trkpt lat="53.0809600000" lon="-4.1330380000"><ele>486</ele><time>2016-10-15T11:25:16Z</time></trkpt>
<trkpt lat="53.0809550000" lon="-4.1330280000"><ele>486</ele><time>2016-10-15T11:25:17Z</time></trkpt>
<trkpt lat="53.0809500000" lon="-4.1330180000"><ele>486</ele><time>2016-10-15T11:25:18Z</time></trkpt>
<trkpt lat="53.0809440000" lon="-4.1330090000"><ele>486</ele><time>2016-10-15T11:25:19Z</time></trkpt>
<trkpt lat="53.0809390000" lon="-4.1330010000"><ele>485</ele><time>2016-10-15T11:25:20Z</time></trkpt>
<trkpt lat="53.0809330000" lon="-4.1329930000"><ele>485</ele><time>2016-10-15T11:25:21Z</time></trkpt>
<trkpt lat="53.0809270000" lon="-4.1329860000"><ele>485</ele><time>2016-10-15T11:25:22Z</time></trkpt>
<trkpt lat="53.0809210000" lon="-4.1329780000"><ele>485</ele><time>2016-10-15T11:25:23Z</time></trkpt>
<trkpt lat="53.0809150000" lon="-4.1329710000"><ele>484</ele><time>2016-10-15T11:25:24Z</time></trkpt>
<trkpt lat="53.0809100000" lon="-4.1329640000"><ele>484</ele><time>2016-10-15T11:25:25Z</time></trkpt>
<trkpt lat="53.0809050000" lon="-4.1329570000"><ele>484</ele><time>2016-10-15T11:25:26Z</time></trkpt>
<trkpt lat="53.0809000000" lon="-4.1329520000"><ele>484</ele><time>2016-10-15T11:25:27Z</time></trkpt>
<trkpt lat="53.0808960000" lon="-4.1329460000"><ele>484</ele><time>2016-10-15T11:25:28Z</time></trkpt>
<trkpt lat="53.0808920000" lon="-4.1329410000"><ele>483</ele><time>2016-10-15T11:25:29Z</time></trkpt>
<trkpt lat="53.0808880000" lon="-4.1329360000"><ele>483</ele><time>2016-10-15T11:25:30Z</time></trkpt>
<trkpt lat="53.0808840000" lon="-4.1329320000"><ele>483</ele><time>2016-10-15T11:25:31Z</time></trkpt>
<trkpt lat="53.0808810000" lon="-4.1329280000"><ele>483</ele><time>2016-10-15T11:25:32Z</time></trkpt>
<trkpt lat="53.0808780000" lon="-4.1329240000"><ele>483</ele><time>2016-10-15T11:25:33Z</time></trkpt>
<trkpt lat="53.0808760000" lon="-4.1329210000"><ele>483</ele><time>2016-10-15T11:25:34Z</time></trkpt>
<trkpt lat="53.0808730000" lon="-4.1329170000"><ele>483</ele><time>2016-10-15T11:25:35Z</time></trkpt>
<trkpt lat="53.0808710000" lon="-4.1329150000"><ele>483</ele><time>2016-10-15T11:25:36Z</time></trkpt>
<trkpt lat="53.0808680000" lon="-4.1329120000"><ele>483</ele><time>2016-10-15T11:25:37Z</time></trkpt>
<trkpt lat="53.0808660000" lon="-4.1329090000"><ele>483</ele><time>2016-10-15T11:25:38Z</time></trkpt>
<trkpt lat="53.0808640000" lon="-4.1329070000"><ele>483</ele><time>2016-10-15T11:25:39Z</time></trkpt>
<trkpt lat="53.0808620000" lon="-4.1329050000"><ele>482</ele><time>2016-10-15T11:25:40Z</time></trkpt>
<trkpt lat="53.0808610000" lon="-4.1329030000"><ele>482</ele><time>2016-10-15T11:25:41Z</time></trkpt>
<trkpt lat="53.0808590000" lon="-4.1329010000"><ele>482</ele><time>2016-10-15T11:25:42Z</time></trkpt>
<trkpt lat="53.0808570000" lon="-4.1329000000"><ele>482</ele><time>2016-10-15T11:25:43Z</time></trkpt>
<trkpt lat="53.0808560000" lon="-4.1328980000"><ele>482</ele><time>2016-10-15T11:25:44Z</time></trkpt>
<trkpt lat="53.0808540000" lon="-4.1328970000"><ele>482</ele><time>2016-10-15T11:25:45Z</time></trkpt>
<trkpt lat="53.0808530000" lon="-4.1328960000"><ele>482</ele><time>2016-10-15T11:25:46Z</time></trkpt>
<trkpt lat="53.0808520000" lon="-4.1328940000"><ele>482</ele><time>2016-10-15T11:25:47Z</time></trkpt>
<trkpt lat="53.0808500000" lon="-4.1328930000"><ele>482</ele><time>2016-10-15T11:25:48Z</time></trkpt>
<trkpt lat="53.0808490000" lon="-4.1328920000"><ele>481</ele><time>2016-10-15T11:25:49Z</time></trkpt>
<trkpt lat="53.0808480000" lon="-4.1328910000"><ele>481</ele><time>2016-10-15T11:25:50Z</time></trkpt>
<trkpt lat="53.0808470000" lon="-4.1328900000"><ele>481</ele><time>2016-10-15T11:25:51Z</time></trkpt>
<trkpt lat="53.0808460000" lon="-4.1328890000"><ele>481</ele><time>2016-10-15T11:25:52Z</time></trkpt>
<trkpt lat="53.0808450000" lon="-4.1328880000"><ele>481</ele><time>2016-10-15T11:25:53Z</time></trkpt>
<trkpt lat="53.0808440000" lon="-4.1328880000"><ele>481</ele><time>2016-10-15T11:25:54Z</time></trkpt>
<trkpt lat="53.0808420000" lon="-4.1328880000"><ele>481</ele><time>2016-10-15T11:25:55Z</time></trkpt>
<trkpt lat="53.0808410000" lon="-4.1328870000"><ele>480</ele><time>2016-10-15T11:25:56Z</time></trkpt>
<trkpt lat="53.0808400000" lon="-4.1328870000"><ele>480</ele><time>2016-10-15T11:25:57Z</time></trkpt>
<trkpt lat="53.0808400000" lon="-4.1328870000"><ele>480</ele><time>2016-10-15T11:25:58Z</time></trkpt>
<trkpt lat="53.0808390000" lon="-4.1328870000"><ele>480</ele><time>2016-10-15T11:25:59Z</time></trkpt>
<trkpt lat="53.0808380000" lon="-4.1328860000"><ele>480</ele><time>2016-10-15T11:26:00Z</time></trkpt>
<trkpt lat="53.0808380000" lon="-4.1328860000"><ele>480</ele><time>2016-10-15T11:26:01Z</time></trkpt>
<trkpt lat="53.0808380000" lon="-4.1328860000"><ele>479</ele><time>2016-10-15T11:26:02Z</time></trkpt>
<trkpt lat="53.0808370000" lon="-4.1328860000"><ele>479</ele><time>2016-10-15T11:26:03Z</time></trkpt>
<trkpt lat="53.0808370000" lon="-4.1328860000"><ele>479</ele><time>2016-10-15T11:26:04Z</time></trkpt>
<trkpt lat="53.0808360000" lon="-4.1328860000"><ele>479</ele><time>2016-10-15T11:26:05Z</time></trkpt>
<trkpt lat="53.0808350000" lon="-4.1328850000"><ele>479</ele><time>2016-10-15T11:26:06Z</time></trkpt>
<trkpt lat="53.0808340000" lon="-4.1328850000"><ele>479</ele><time>2016-10-15T11:26:07Z</time></trkpt>
<trkpt lat="53.0808330000" lon="-4.1328840000"><ele>478</ele><time>2016-10-15T11:26:08Z</time></trkpt>
<trkpt lat="53.0808310000" lon="-4.1328830000"><ele>478</ele><time>2016-10-15T11:26:09Z</time></trkpt>
<trkpt lat="53.0808300000" lon="-4.1328820000"><ele>478</ele><time>2016-10-15T11:26:10Z</time></trkpt>
<trkpt lat="53.0808280000" lon="-4.1328810000"><ele>478</ele><time>2016-10-15T11:26:11Z</time></trkpt>
<trkpt lat="53.0808250000" lon="-4.1328790000"><ele>478</ele><time>2016-10-15T11:26:14Z</time></trkpt>
<trkpt lat="53.0808240000" lon="-4.1328780000"><ele>478</ele></trkpt>
<trkpt lat="53.0808230000" lon="-4.1328770000"><ele>478</ele><time>2016-10-15T11:26:15Z</time></trkpt>
<trkpt lat="53.0808210000" lon="-4.1328760000"><ele>478</ele><time>2016-10-15T11:26:16Z</time></trkpt>
<trkpt lat="53.0808200000" lon="-4.1328750000"><ele>478</ele><time>2016-10-15T11:26:17Z</time></trkpt>
<trkpt lat="53.0808190000" lon="-4.1328740000"><ele>478</ele><time>2016-10-15T11:26:18Z</time></trkpt>
<trkpt lat="53.0808180000" lon="-4.1328730000"><ele>478</ele><time>2016-10-15T11:26:19Z</time></trkpt>
<trkpt lat="53.0808170000" lon="-4.1328720000"><ele>478</ele><time>2016-10-15T11:26:20Z</time></trkpt>
<trkpt lat="53.0808150000" lon="-4.1328710000"><ele>478</ele><time>2016-10-15T11:26:21Z</time></trkpt>
<trkpt lat="53.0808140000" lon="-4.1328700000"><ele>478</ele><time>2016-10-15T11:26:22Z</time></trkpt>
<trkpt lat="53.0808130000" lon="-4.1328690000"><ele>478</ele><time>2016-10-15T11:26:23Z</time></trkpt>
<trkpt lat="53.0808110000" lon="-4.1328680000"><ele>478</ele><time>2016-10-15T11:26:24Z</time></trkpt>
<trkpt lat="53.0808090000" lon="-4.1328670000"><ele>477</ele><time>2016-10-15T11:26:25Z</time></trkpt>
<trkpt lat="53.0808070000" lon="-4.1328650000"><ele>477</ele><time>2016-10-15T11:26:26Z</time></trkpt>
<trkpt lat="53.0808040000" lon="-4.1328630000"><ele>477</ele><time>2016-10-15T11:26:27Z</time></trkpt>
<trkpt lat="53.0808020000" lon="-4.1328610000"><ele>477</ele><time>2016-10-15T11:26:28Z</time></trkpt>
<trkpt lat="53.0808000000" lon="-4.1328590000"><ele>477</ele><time>2016-10-15T11:26:29Z</time></trkpt>
<trkpt lat="53.0807980000" lon="-4.1328560000"><ele>477</ele><time>2016-10-15T11:26:30Z</time></trkpt>
<trkpt lat="53.0807970000" lon="-4.1328540000"><ele>477</ele><time>2016-10-15T11:26:31Z</time></trkpt>
<trkpt lat="53.0807950000" lon="-4.1328510000"><ele>476</ele><time>2016-10-15T11:26:32Z</time></trkpt>
<trkpt lat="53.0807930000" lon="-4.1328480000"><ele>476</ele><time>2016-10-15T11:26:33Z</time></trkpt>
<trkpt lat="53.0807920000" lon="-4.1328440000"><ele>476</ele><time>2016-10-15T11:26:34Z</time></trkpt>
<trkpt lat="53.0807910000" lon="-4.1328410000"><ele>476</ele><time>2016-10-15T11:26:35Z</time></trkpt>
<trkpt lat="53.0807900000" lon="-4.1328370000"><ele>476</ele><time>2016-10-15T11:26:36Z</time></trkpt>
<trkpt lat="53.0807880000" lon="-4.1328340000"><ele>475</ele><time>2016-10-15T11:26:37Z</time></trkpt>
<trkpt lat="53.0807870000" lon="-4.1328300000"><ele>475</ele><time>2016-10-15T11:26:38Z</time></trkpt>
<trkpt lat="53.0807860000" lon="-4.1328270000"><ele>475</ele><time>2016-10-15T11:26:39Z</time></trkpt>
<trkpt lat="53.0807850000" lon="-4.1328220000"><ele>475</ele><time>2016-10-15T11:26:40Z</time></trkpt>
<trkpt lat="53.0807840000" lon="-4.1328180000"><ele>475</ele><time>2016-10-15T11:26:41Z</time></trkpt>
<trkpt lat="53.0807840000" lon="-4.1328130000"><ele>474</ele><time>2016-10-15T11:26:42Z</time></trkpt>
<trkpt lat="53.0807840000" lon="-4.1328070000"><ele>474</ele><time>2016-10-15T11:26:43Z</time></trkpt>
<trkpt lat="53.0807840000" lon="-4.1328010000"><ele>474</ele><time>2016-10-15T11:26:44Z</time></trkpt>
<trkpt lat="53.0807840000" lon="-4.1327940000"><ele>474</ele><time>2016-10-15T11:26:45Z</time></trkpt>
<trkpt lat="53.0807850000" lon="-4.1327870000"><ele>474</ele><time>2016-10-15T11:26:46Z</time></trkpt>
<trkpt lat="53.0807860000" lon="-4.1327790000"><ele>474</ele><time>2016-10-15T11:26:47Z</time></trkpt>
<trkpt lat="53.0807870000" lon="-4.1327710000"><ele>473</ele><time>2016-10-15T11:26:48Z</time></trkpt>
<trkpt lat="53.0807890000" lon="-4.1327630000"><ele>473</ele><time>2016-10-15T11:26:49Z</time></trkpt>
<trkpt lat="53.0807910000" lon="-4.1327540000"><ele>473</ele><time>2016-10-15T11:26:50Z</time></trkpt>
<trkpt lat="53.0807930000" lon="-4.1327450000"><ele>473</ele><time>2016-10-15T11:26:51Z</time></trkpt>
<trkpt lat="53.0807950000" lon="-4.1327350000"><ele>473</ele><time>2016-10-15T11:26:52Z</time></trkpt>
<trkpt lat="53.0807970000" lon="-4.1327250000"><ele>473</ele><time>2016-10-15T11:26:53Z</time></trkpt>
<trkpt lat="53.0807990000" lon="-4.1327140000"><ele>473</ele><time>2016-10-15T11:26:54Z</time></trkpt>
<trkpt lat="53.0808010000" lon="-4.1327030000"><ele>473</ele><time>2016-10-15T11:26:55Z</time></trkpt>
<trkpt lat="53.0808040000" lon="-4.1326920000"><ele>473</ele><time>2016-10-15T11:26:56Z</time></trkpt>
<trkpt lat="53.0808070000" lon="-4.1326800000"><ele>473</ele><time>2016-10-15T11:26:57Z</time></trkpt>
<trkpt lat="53.0808100000" lon="-4.1326680000"><ele>473</ele><time>2016-10-15T11:26:58Z</time></trkpt>
<trkpt lat="53.0808130000" lon="-4.1326560000"><ele>473</ele><time>2016-10-15T11:26:59Z</time></trkpt>
<trkpt lat="53.0808160000" lon="-4.1326440000"><ele>473</ele><time>2016-10-15T11:27:00Z</time></trkpt>
<trkpt lat="53.0808200000" lon="-4.1326320000"><ele>473</ele><time>2016-10-15T11:27:01Z</time></trkpt>
<trkpt lat="53.0808240000" lon="-4.1326190000"><ele>473</ele><time>2016-10-15T11:27:02Z</time></trkpt>
<trkpt lat="53.0808280000" lon="-4.1326070000"><ele>473</ele><time>2016-10-15T11:27:03Z</time></trkpt>
<trkpt lat="53.0808330000" lon="-4.1325950000"><ele>473</ele><time>2016-10-15T11:27:04Z</time></trkpt>
<trkpt lat="53.0808370000" lon="-4.1325830000"><ele>473</ele><time>2016-10-15T11:27:05Z</time></trkpt>
<trkpt lat="53.0808420000" lon="-4.1325710000"><ele>473</ele><time>2016-10-15T11:27:06Z</time></trkpt>
<trkpt lat="53.0808470000" lon="-4.1325600000"><ele>473</ele><time>2016-10-15T11:27:07Z</time></trkpt>
<trkpt lat="53.0808520000" lon="-4.1325480000"><ele>473</ele><time>2016-10-15T11:27:08Z</time></trkpt>
<trkpt lat="53.0808570000" lon="-4.1325370000"><ele>473</ele><time>2016-10-15T11:27:09Z</time></trkpt>
<trkpt lat="53.0808630000" lon="-4.1325260000"><ele>473</ele><time>2016-10-15T11:27:10Z</time></trkpt>
<trkpt lat="53.0808680000" lon="-4.1325150000"><ele>473</ele><time>2016-10-15T11:27:11Z</time></trkpt>
<trkpt lat="53.0808800000" lon="-4.1324930000"><ele>474</ele><time>2016-10-15T11:27:14Z</time></trkpt>
<trkpt lat="53.0808860000" lon="-4.1324820000"><ele>474</ele></trkpt>
<trkpt lat="53.0808920000" lon="-4.1324710000"><ele>474</ele><time>2016-10-15T11:27:15Z</time></trkpt>
<trkpt lat="53.0808970000" lon="-4.1324600000"><ele>474</ele><time>2016-10-15T11:27:16Z</time></trkpt>
<trkpt lat="53.0809030000" lon="-4.1324490000"><ele>474</ele><time>2016-10-15T11:27:17Z</time></trkpt>
<trkpt lat="53.0809090000" lon="-4.1324380000"><ele>475</ele><time>2016-10-15T11:27:18Z</time></trkpt>
<trkpt lat="53.0809140000" lon="-4.1324270000"><ele>475</ele><time>2016-10-15T11:27:19Z</time></trkpt>
<trkpt lat="53.0809190000" lon="-4.1324150000"><ele>475</ele><time>2016-10-15T11:27:20Z</time></trkpt>
<trkpt lat="53.0809250000" lon="-4.1324030000"><ele>475</ele><time>2016-10-15T11:27:21Z</time></trkpt>
<trkpt lat="53.0809290000" lon="-4.1323910000"><ele>476</ele><time>2016-10-15T11:27:22Z</time></trkpt>
<trkpt lat="53.0809340000" lon="-4.1323790000"><ele>476</ele><time>2016-10-15T11:27:23Z</time></trkpt>
<trkpt lat="53.0809380000" lon="-4.1323660000"><ele>476</ele><time>2016-10-15T11:27:24Z</time></trkpt>
<trkpt lat="53.0809420000" lon="-4.1323530000"><ele>476</ele><time>2016-10-15T11:27:25Z</time></trkpt>
<trkpt lat="53.0809460000" lon="-4.1323400000"><ele>477</ele><time>2016-10-15T11:27:26Z</time></trkpt>
<trkpt lat="53.0809500000" lon="-4.1323270000"><ele>477</ele><time>2016-10-15T11:27:27Z</time></trkpt>
<trkpt lat="53.0809530000" lon="-4.1323150000"><ele>477</ele><time>2016-10-15T11:27:28Z</time></trkpt>
<trkpt lat="53.0809570000" lon="-4.1323020000"><ele>477</ele><time>2016-10-15T11:27:29Z</time></trkpt>
<trkpt lat="53.0809600000" lon="-4.1322900000"><ele>477</ele><time>2016-10-15T11:27:30Z</time></trkpt>
<trkpt lat="53.0809640000" lon="-4.1322780000"><ele>478</ele><time>2016-10-15T11:27:31Z</time></trkpt>
<trkpt lat="53.0809670000" lon="-4.1322650000"><ele>478</ele><time>2016-10-15T11:27:32Z</time></trkpt>
<trkpt lat="53.0809700000" lon="-4.1322520000"><ele>478</ele><time>2016-10-15T11:27:33Z</time></trkpt>
<trkpt lat="53.0809730000" lon="-4.1322390000"><ele>478</ele><time>2016-10-15T11:27:34Z</time></trkpt>
<trkpt lat="53.0809760000" lon="-4.1322260000"><ele>478</ele><time>2016-10-15T11:27:35Z</time></trkpt>
<trkpt lat="53.0809790000" lon="-4.1322140000"><ele>479</ele><time>2016-10-15T11:27:36Z</time></trkpt>
<trkpt lat="53.0809830000" lon="-4.1322010000"><ele>479</ele><time>2016-10-15T11:27:37Z</time></trkpt>
<trkpt lat="53.0809860000" lon="-4.1321880000"><ele>479</ele><time>2016-10-15T11:27:38Z</time></trkpt>
<trkpt lat="53.0809900000" lon="-4.1321750000"><ele>479</ele><time>2016-10-15T11:27:39Z</time></trkpt>
<trkpt lat="53.0809940000" lon="-4.1321630000"><ele>480</ele><time>2016-10-15T11:27:40Z</time></trkpt>
<trkpt lat="53.0809980000" lon="-4.1321500000"><ele>480</ele><time>2016-10-15T11:27:41Z</time></trkpt>
<trkpt lat="53.0810020000" lon="-4.1321380000"><ele>480</ele><time>2016-10-15T11:27:42Z</time></trkpt>
<trkpt lat="53.0810060000" lon="-4.1321250000"><ele>480</ele><time>2016-10-15T11:27:43Z</time></trkpt>
<trkpt lat="53.0810110000" lon="-4.1321140000"><ele>481</ele><time>2016-10-15T11:27:44Z</time></trkpt>
<trkpt lat="53.0810150000" lon="-4.1321020000"><ele>481</ele><time>2016-10-15T11:27:45Z</time></trkpt>
<trkpt lat="53.0810200000" lon="-4.1320910000"><ele>481</ele><time>2016-10-15T11:27:46Z</time></trkpt>
<trkpt lat="53.0810240000" lon="-4.1320800000"><ele>482</ele><time>2016-10-15T11:27:47Z</time></trkpt>
<trkpt lat="53.0810280000" lon="-4.1320680000"><ele>482</ele><time>2016-10-15T11:27:48Z</time></trkpt>
<trkpt lat="53.0810330000" lon="-4.1320570000"><ele>482</ele><time>2016-10-15T11:27:49Z</time></trkpt>
<trkpt lat="53.0810370000" lon="-4.1320450000"><ele>483</ele><time>2016-10-15T11:27:50Z</time></trkpt>
<trkpt lat="53.0810420000" lon="-4.1320330000"><ele>483</ele><time>2016-10-15T11:27:51Z</time></trkpt>
<trkpt lat="53.0810460000" lon="-4.1320210000"><ele>483</ele><time>2016-10-15T11:27:52Z</time></trkpt>
<trkpt lat="53.0810510000" lon="-4.1320090000"><ele>484</ele><time>2016-10-15T11:27:53Z</time></trkpt>
<trkpt lat="53.0810550000" lon="-4.1319960000"><ele>484</ele><time>2016-10-15T11:27:54Z</time></trkpt>
<trkpt lat="53.0810600000" lon="-4.1319830000"><ele>484</ele><time>2016-10-15T11:27:55Z</time></trkpt>
<trkpt lat="53.0810640000" lon="-4.1319700000"><ele>484</ele><time>2016-10-15T11:27:56Z</time></trkpt>
<trkpt lat="53.0810680000" lon="-4.1319570000"><ele>485</ele><time>2016-10-15T11:27:57Z</time></trkpt>
<trkpt lat="53.0810720000" lon="-4.1319430000"><ele>485</ele><time>2016-10-15T11:27:58Z</time></trkpt>
<trkpt lat="53.0810760000" lon="-4.1319300000"><ele>485</ele><time>2016-10-15T11:27:59Z</time></trkpt>
<trkpt lat="53.0810810000" lon="-4.1319170000"><ele>485</ele><time>2016-10-15T11:28:00Z</time></trkpt>
<trkpt lat="53.0810850000" lon="-4.1319030000"><ele>486</ele><time>2016-10-15T11:28:01Z</time></trkpt>
<trkpt lat="53.0810900000" lon="-4.1318900000"><ele>486</ele><time>2016-10-15T11:28:02Z</time></trkpt>
<trkpt lat="53.0810940000" lon="-4.1318780000"><ele>486</ele><time>2016-10-15T11:28:03Z</time></trkpt>
<trkpt lat="53.0810990000" lon="-4.1318650000"><ele>486</ele><time>2016-10-15T11:28:04Z</time></trkpt>
<trkpt lat="53.0811030000" lon="-4.1318520000"><ele>486</ele><time>2016-10-15T11:28:05Z</time></trkpt>
<trkpt lat="53.0811080000" lon="-4.1318400000"><ele>486</ele><time>2016-10-15T11:28:06Z</time></trkpt>
<trkpt lat="53.0811120000" lon="-4.1318270000"><ele>486</ele><time>2016-10-15T11:28:07Z</time></trkpt>
<trkpt lat="53.0811160000" lon="-4.1318150000"><ele>486</ele><time>2016-10-15T11:28:08Z</time></trkpt>
<trkpt lat="53.0811210000" lon="-4.1318020000"><ele>486</ele><time>2016-10-15T11:28:09Z</time></trkpt>
<trkpt lat="53.0811260000" lon="-4.1317900000"><ele>487</ele><time>2016-10-15T11:28:10Z</time></trkpt>
<trkpt lat="53.0811310000" lon="-4.1317780000"><ele>487</ele><time>2016-10-15T11:28:11Z</time></trkpt>
<trkpt lat="53.0811410000" lon="-4.1317530000"><ele>487</ele><time>2016-10-15T11:28:14Z</time></trkpt>
<trkpt lat="53.0811460000" lon="-4.1317410000"><ele>487</ele></trkpt>
<trkpt lat="53.0811510000" lon="-4.1317280000"><ele>487</ele><time>2016-10-15T11:28:15Z</time></trkpt>
<trkpt lat="53.0811560000" lon="-4.1317170000"><ele>487</ele><time>2016-10-15T11:28:16Z</time></trkpt>
<trkpt lat="53.0811610000" lon="-4.1317050000"><ele>488</ele><time>2016-10-15T11:28:17Z</time></trkpt>
<trkpt lat="53.0811650000" lon="-4.1316930000"><ele>488</ele><time>2016-10-15T11:28:18Z</time></trkpt>
<trkpt lat="53.0811700000" lon="-4.1316820000"><ele>488</ele><time>2016-10-15T11:28:19Z</time></trkpt>
<trkpt lat="53.0811750000" lon="-4.1316710000"><ele>488</ele><time>2016-10-15T11:28:20Z</time></trkpt>
<trkpt lat="53.0811800000" lon="-4.1316600000"><ele>488</ele><time>2016-10-15T11:28:21Z</time></trkpt>
<trkpt lat="53.0811850000" lon="-4.1316490000"><ele>488</ele><time>2016-10-15T11:28:22Z</time></trkpt>
<trkpt lat="53.0811890000" lon="-4.1316370000"><ele>488</ele><time>2016-10-15T11:28:23Z</time></trkpt>
<trkpt lat="53.0811940000" lon="-4.1316260000"><ele>488</ele><time>2016-10-15T11:28:24Z</time></trkpt>
<trkpt lat="53.0811980000" lon="-4.1316140000"><ele>488</ele><time>2016-10-15T11:28:25Z</time></trkpt>
<trkpt lat="53.0812020000" lon="-4.1316020000"><ele>489</ele><time>2016-10-15T11:28:26Z</time></trkpt>
<trkpt lat="53.0812050000" lon="-4.1315900000"><ele>489</ele><time>2016-10-15T11:28:27Z</time></trkpt>
<trkpt lat="53.0812080000" lon="-4.1315780000"><ele>489</ele><time>2016-10-15T11:28:28Z</time></trkpt>
<trkpt lat="53.0812110000" lon="-4.1315660000"><ele>489</ele><time>2016-10-15T11:28:29Z</time></trkpt>
<trkpt lat="53.0812130000" lon="-4.1315530000"><ele>489</ele><time>2016-10-15T11:28:30Z</time></trkpt>
<trkpt lat="53.0812160000" lon="-4.1315410000"><ele>490</ele><time>2016-10-15T11:28:31Z</time></trkpt>
<trkpt lat="53.0812170000" lon="-4.1315280000"><ele>490</ele><time>2016-10-15T11:28:32Z</time></trkpt>
<trkpt lat="53.0812190000" lon="-4.1315150000"><ele>490</ele><time>2016-10-15T11:28:33Z</time></trkpt>
<trkpt lat="53.0812210000" lon="-4.1315030000"><ele>490</ele><time>2016-10-15T11:28:34Z</time></trkpt>
<trkpt lat="53.0812230000" lon="-4.1314890000"><ele>491</ele><time>2016-10-15T11:28:35Z</time></trkpt>
<trkpt lat="53.0812240000" lon="-4.1314760000"><ele>491</ele><time>2016-10-15T11:28:36Z</time></trkpt>
<trkpt lat="53.0812260000" lon="-4.1314630000"><ele>491</ele><time>2016-10-15T11:28:37Z</time></trkpt>
<trkpt lat="53.0812280000" lon="-4.1314500000"><ele>491</ele><time>2016-10-15T11:28:38Z</time></trkpt>
<trkpt lat="53.0812300000" lon="-4.1314370000"><ele>491</ele><time>2016-10-15T11:28:39Z</time></trkpt>
<trkpt lat="53.0812330000" lon="-4.1314230000"><ele>492</ele><time>2016-10-15T11:28:40Z</time></trkpt>
<trkpt lat="53.0812350000" lon="-4.1314100000"><ele>492</ele><time>2016-10-15T11:28:41Z</time></trkpt>
<trkpt lat="53.0812370000" lon="-4.1313970000"><ele>492</ele><time>2016-10-15T11:28:42Z</time></trkpt>
<trkpt lat="53.0812390000" lon="-4.1313840000"><ele>492</ele><time>2016-10-15T11:28:43Z</time></trkpt>
<trkpt lat="53.0812420000" lon="-4.1313710000"><ele>492</ele><time>2016-10-15T11:28:44Z</time></trkpt>
<trkpt lat="53.0812440000" lon="-4.1313580000"><ele>492</ele><time>2016-10-15T11:28:45Z</time></trkpt>
<trkpt lat="53.0812460000" lon="-4.1313450000"><ele>493</ele><time>2016-10-15T11:28:46Z</time></trkpt>
<trkpt lat="53.0812490000" lon="-4.1313320000"><ele>493</ele><time>2016-10-15T11:28:47Z</time></trkpt>
<trkpt lat="53.0812510000" lon="-4.1313190000"><ele>493</ele><time>2016-10-15T11:28:48Z</time></trkpt>
<trkpt lat="53.0812530000" lon="-4.1313060000"><ele>493</ele><time>2016-10-15T11:28:49Z</time></trkpt>
<trkpt lat="53.0812550000" lon="-4.1312930000"><ele>493</ele><time>2016-10-15T11:28:50Z</time></trkpt>
<trkpt lat="53.0812570000" lon="-4.1312790000"><ele>493</ele><time>2016-10-15T11:28:51Z</time></trkpt>
<trkpt lat="53.0812590000" lon="-4.1312650000"><ele>493</ele><time>2016-10-15T11:28:52Z</time></trkpt>
<trkpt lat="53.0812600000" lon="-4.1312500000"><ele>493</ele><time>2016-10-15T11:28:53Z</time></trkpt>
<trkpt lat="53.0812620000" lon="-4.1312360000"><ele>494</ele><time>2016-10-15T11:28:54Z</time></trkpt>
<trkpt lat="53.0812640000" lon="-4.1312210000"><ele>494</ele><time>2016-10-15T11:28:55Z</time></trkpt>
<trkpt lat="53.0812660000" lon="-4.1312070000"><ele>494</ele><time>2016-10-15T11:28:56Z</time></trkpt>
<trkpt lat="53.0812680000" lon="-4.1311920000"><ele>494</ele><time>2016-10-15T11:28:57Z</time></trkpt>
<trkpt lat="53.0812700000" lon="-4.1311770000"><ele>494</ele><time>2016-10-15T11:28:58Z</time></trkpt>
<trkpt lat="53.0812710000" lon="-4.1311620000"><ele>494</ele><time>2016-10-15T11:28:59Z</time></trkpt>
<trkpt lat="53.0812730000" lon="-4.1311460000"><ele>494</ele><time>2016-10-15T11:29:00Z</time></trkpt>
<trkpt lat="53.0812750000" lon="-4.1311310000"><ele>494</ele><time>2016-10-15T11:29:01Z</time></trkpt>
<trkpt lat="53.0813010000" lon="-4.1308940000"><ele>494</ele><time>2016-10-15T11:29:02Z</time></trkpt>
<trkpt lat="53.0813030000" lon="-4.1308770000"><ele>494</ele><time>2016-10-15T11:29:03Z</time></trkpt>
<trkpt lat="53.0813040000" lon="-4.1308600000"><ele>494</ele><time>2016-10-15T11:29:04Z</time></trkpt>
<trkpt lat="53.0813030000" lon="-4.1308400000"><ele>494</ele><time>2016-10-15T11:29:05Z</time></trkpt>
<trkpt lat="53.0813030000" lon="-4.1308400000"><ele>494</ele><time>2016-10-15T11:29:06Z</time></trkpt>
<trkpt lat="53.0813040000" lon="-4.1308390000"><ele>494</ele><time>2016-10-15T11:29:07Z</time></trkpt>
<trkpt lat="53.0813040000" lon="-4.1308390000"><ele>494</ele><time>2016-10-15T11:29:08Z</time></trkpt>
<trkpt lat="53.0813040000" lon="-4.1308380000"><ele>494</ele><time>2016-10-15T11:29:09Z</time></trkpt>
<trkpt lat="53.0813040000" lon="-4.1308370000"><ele>494</ele><time>2016-10-15T11:29:10Z</time></trkpt>
<trkpt lat="53.0813040000" lon="-4.1308350000"><ele>494</ele><time>2016-10-15T11:29:11Z</time></trkpt>
<trkpt lat="53.0813050000" lon="-4.1308300000"><ele>495</ele><time>2016-10-15T11:29:14Z</time></trkpt>
<trkpt lat="53.0813060000" lon="-4.1308250000"><ele>495</ele></trkpt>
<trkpt lat="53.0813070000" lon="-4.1308200000"><ele>495</ele><time>2016-10-15T11:29:15Z</time></trkpt>
<trkpt lat="53.0813080000" lon="-4.1308130000"><ele>495</ele><time>2016-10-15T11:29:16Z</time></trkpt>
<trkpt lat="53.0813080000" lon="-4.1308060000"><ele>495</ele><time>2016-10-15T11:29:17Z</time></trkpt>
<trkpt lat="53.0813100000" lon="-4.1307980000"><ele>496</ele><time>2016-10-15T11:29:18Z</time></trkpt>
<trkpt lat="53.0813110000" lon="-4.1307890000"><ele>496</ele><time>2016-10-15T11:29:19Z</time></trkpt>
<trkpt lat="53.0813120000" lon="-4.1307800000"><ele>496</ele><time>2016-10-15T11:29:20Z</time></trkpt>
<trkpt lat="53.0813140000" lon="-4.1307690000"><ele>496</ele><time>2016-10-15T11:29:21Z</time></trkpt>
<trkpt lat="53.0813150000" lon="-4.1307590000"><ele>497</ele><time>2016-10-15T11:29:22Z</time></trkpt>
<trkpt lat="53.0813170000" lon="-4.1307470000"><ele>497</ele><time>2016-10-15T11:29:23Z</time></trkpt>
<trkpt lat="53.0813190000" lon="-4.1307350000"><ele>497</ele><time>2016-10-15T11:29:24Z</time></trkpt>
<trkpt lat="53.0813210000" lon="-4.1307230000"><ele>497</ele><time>2016-10-15T11:29:25Z</time></trkpt>
<trkpt lat="53.0813240000" lon="-4.1307100000"><ele>498</ele><time>2016-10-15T11:29:26Z</time></trkpt>
<trkpt lat="53.0813270000" lon="-4.1306980000"><ele>498</ele><time>2016-10-15T11:29:27Z</time></trkpt>
<trkpt lat="53.0813290000" lon="-4.1306840000"><ele>498</ele><time>2016-10-15T11:29:28Z</time></trkpt>
<trkpt lat="53.0813320000" lon="-4.1306710000"><ele>498</ele><time>2016-10-15T11:29:29Z</time></trkpt>
<trkpt lat="53.0813360000" lon="-4.1306580000"><ele>499</ele><time>2016-10-15T11:29:30Z</time></trkpt>
<trkpt lat="53.0813390000" lon="-4.1306450000"><ele>499</ele><time>2016-10-15T11:29:31Z</time></trkpt>
<trkpt lat="53.0813430000" lon="-4.1306320000"><ele>499</ele><time>2016-10-15T11:29:32Z</time></trkpt>
<trkpt lat="53.0813460000" lon="-4.1306190000"><ele>499</ele><time>2016-10-15T11:29:33Z</time></trkpt>
<trkpt lat="53.0813500000" lon="-4.1306050000"><ele>499</ele><time>2016-10-15T11:29:34Z</time></trkpt>
<trkpt lat="53.0813530000" lon="-4.1305910000"><ele>500</ele><time>2016-10-15T11:29:35Z</time></trkpt>
<trkpt lat="53.0813560000" lon="-4.1305800000"><ele>500</ele><time>2016-10-15T11:29:36Z</time></trkpt>
<trkpt lat="53.0813600000" lon="-4.1305660000"><ele>500</ele><time>2016-10-15T11:29:37Z</time></trkpt>
<trkpt lat="53.0813640000" lon="-4.1305520000"><ele>500</ele><time>2016-10-15T11:29:38Z</time></trkpt>
<trkpt lat="53.0813680000" lon="-4.1305390000"><ele>500</ele><time>2016-10-15T11:29:39Z</time></trkpt>
<trkpt lat="53.0813720000" lon="-4.1305250000"><ele>501</ele><time>2016-10-15T11:29:40Z</time></trkpt>
<trkpt lat="53.0813750000" lon="-4.1305120000"><ele>501</ele><time>2016-10-15T11:29:41Z</time></trkpt>
<trkpt lat="53.0813790000" lon="-4.1304980000"><ele>501</ele><time>2016-10-15T11:29:42Z</time></trkpt>
<trkpt lat="53.0813830000" lon="-4.1304840000"><ele>501</ele><time>2016-10-15T11:29:43Z</time></trkpt>
<trkpt lat="53.0813860000" lon="-4.1304710000"><ele>502</ele><time>2016-10-15T11:29:44Z</time></trkpt>
<trkpt lat="53.0813900000" lon="-4.1304580000"><ele>502</ele><time>2016-10-15T11:29:45Z</time></trkpt>
<trkpt lat="53.0813940000" lon="-4.1304450000"><ele>502</ele><time>2016-10-15T11:29:46Z</time></trkpt>
<trkpt lat="53.0813980000" lon="-4.1304320000"><ele>502</ele><time>2016-10-15T11:29:47Z</time></trkpt>
<trkpt lat="53.0814020000" lon="-4.1304190000"><ele>502</ele><time>2016-10-15T11:29:48Z</time></trkpt>
<trkpt lat="53.0814060000" lon="-4.1304060000"><ele>503</ele><time>2016-10-15T11:29:49Z</time></trkpt>
<trkpt lat="53.0814100000" lon="-4.1303940000"><ele>503</ele><time>2016-10-15T11:29:50Z</time></trkpt>
<trkpt lat="53.0814130000" lon="-4.1303810000"><ele>503</ele><time>2016-10-15T11:29:51Z</time></trkpt>
<trkpt lat="53.0814170000" lon="-4.1303690000"><ele>503</ele><time>2016-10-15T11:29:52Z</time></trkpt>
<trkpt lat="53.0814200000" lon="-4.1303560000"><ele>503</ele><time>2016-10-15T11:29:53Z</time></trkpt>
<trkpt lat="53.0814230000" lon="-4.1303440000"><ele>504</ele><time>2016-10-15T11:29:54Z</time></trkpt>
<trkpt lat="53.0814260000" lon="-4.1303310000"><ele>504</ele><time>2016-10-15T11:29:55Z</time></trkpt>
<trkpt lat="53.0814280000" lon="-4.1303180000"><ele>504</ele><time>2016-10-15T11:29:56Z</time></trkpt>
<trkpt lat="53.0814310000" lon="-4.1303060000"><ele>504</ele><time>2016-10-15T11:29:57Z</time></trkpt>
<trkpt lat="53.0814330000" lon="-4.1302930000"><ele>504</ele><time>2016-10-15T11:29:58Z</time></trkpt>
<trkpt lat="53.0814360000" lon="-4.1302810000"><ele>505</ele><time>2016-10-15T11:29:59Z</time></trkpt>
<trkpt lat="53.0814380000" lon="-4.1302680000"><ele>505</ele><time>2016-10-15T11:30:00Z</time></trkpt>
<trkpt lat="53.0814410000" lon="-4.1302560000"><ele>505</ele><time>2016-10-15T11:30:01Z</time></trkpt>
<trkpt lat="53.0814430000" lon="-4.1302440000"><ele>505</ele><time>2016-10-15T11:30:02Z</time></trkpt>
<trkpt lat="53.0814450000" lon="-4.1302320000"><ele>505</ele><time>2016-10-15T11:30:03Z</time></trkpt>
<trkpt lat="53.0814470000" lon="-4.1302200000"><ele>505</ele><time>2016-10-15T11:30:04Z</time></trkpt>
<trkpt lat="53.0814490000" lon="-4.1302080000"><ele>506</ele><time>2016-10-15T11:30:05Z</time></trkpt>
<trkpt lat="53.0814510000" lon="-4.1301960000"><ele>506</ele><time>2016-10-15T11:30:06Z</time></trkpt>
<trkpt lat="53.0814530000" lon="-4.1301830000"><ele>506</ele><time>2016-10-15T11:30:07Z</time></trkpt>
<trkpt lat="53.0814560000" lon="-4.1301710000"><ele>506</ele><time>2016-10-15T11:30:08Z</time></trkpt>
<trkpt lat="53.0814580000" lon="-4.1301590000"><ele>506</ele><time>2016-10-15T11:30:09Z</time></trkpt>
<trkpt lat="53.0814600000" lon="-4.1301460000"><ele>506</ele><time>2016-10-15T11:30:10Z</time></trkpt>
<trkpt lat="53.0814630000" lon="-4.1301340000"><ele>506</ele><time>2016-10-15T11:30:11Z</time></trkpt>
<trkpt lat="53.0814660000" lon="-4.1301090000"><ele>507</ele><time>2016-10-15T11:30:14Z</time></trkpt>
<trkpt lat="53.0814680000" lon="-4.1300960000"><ele>507</ele></trkpt>
<trkpt lat="53.0814690000" lon="-4.1300840000"><ele>507</ele><time>2016-10-15T11:30:15Z</time></trkpt>
<trkpt lat="53.0814710000" lon="-4.1300710000"><ele>507</ele><time>2016-10-15T11:30:16Z</time></trkpt>
<trkpt lat="53.0814720000" lon="-4.1300590000"><ele>507</ele><time>2016-10-15T11:30:17Z</time></trkpt>
<trkpt lat="53.0814730000" lon="-4.1300460000"><ele>507</ele><time>2016-10-15T11:30:18Z</time></trkpt>
<trkpt lat="53.0814740000" lon="-4.1300340000"><ele>507</ele><time>2016-10-15T11:30:19Z</time></trkpt>
<trkpt lat="53.0814750000" lon="-4.1300210000"><ele>507</ele><time>2016-10-15T11:30:20Z</time></trkpt>
<trkpt lat="53.0814760000" lon="-4.1300080000"><ele>507</ele><time>2016-10-15T11:30:21Z</time></trkpt>
<trkpt lat="53.0814770000" lon="-4.1299950000"><ele>507</ele><time>2016-10-15T11:30:22Z</time></trkpt>
<trkpt lat="53.0814780000" lon="-4.1299830000"><ele>507</ele><time>2016-10-15T11:30:23Z</time></trkpt>
<trkpt lat="53.0814780000" lon="-4.1299710000"><ele>507</ele><time>2016-10-15T11:30:24Z</time></trkpt>
<trkpt lat="53.0814790000" lon="-4.1299590000"><ele>507</ele><time>2016-10-15T11:30:25Z</time></trkpt>
<trkpt lat="53.0814790000" lon="-4.1299470000"><ele>507</ele><time>2016-10-15T11:30:26Z</time></trkpt>
<trkpt lat="53.0814790000" lon="-4.1299350000"><ele>507</ele><time>2016-10-15T11:30:27Z</time></trkpt>
<trkpt lat="53.0814790000" lon="-4.1299230000"><ele>507</ele><time>2016-10-15T11:30:28Z</time></trkpt>
<trkpt lat="53.0814790000" lon="-4.1299120000"><ele>507</ele><time>2016-10-15T11:30:29Z</time></trkpt>
<trkpt lat="53.0814790000" lon="-4.1299010000"><ele>507</ele><time>2016-10-15T11:30:30Z</time></trkpt>
<trkpt lat="53.0814790000" lon="-4.1298890000"><ele>507</ele><time>2016-10-15T11:30:31Z</time></trkpt>
<trkpt lat="53.0814790000" lon="-4.1298780000"><ele>508</ele><time>2016-10-15T11:30:32Z</time></trkpt>
<trkpt lat="53.0814790000" lon="-4.1298660000"><ele>508</ele><time>2016-10-15T11:30:33Z</time></trkpt>
<trkpt lat="53.0814790000" lon="-4.1298540000"><ele>508</ele><time>2016-10-15T11:30:34Z</time></trkpt>
<trkpt lat="53.0814780000" lon="-4.1298420000"><ele>508</ele><time>2016-10-15T11:30:35Z</time></trkpt>
<trkpt lat="53.0814770000" lon="-4.1298300000"><ele>509</ele><time>2016-10-15T11:30:36Z</time></trkpt>
<trkpt lat="53.0814770000" lon="-4.1298170000"><ele>509</ele><time>2016-10-15T11:30:37Z</time></trkpt>
<trkpt lat="53.0814770000" lon="-4.1298050000"><ele>509</ele><time>2016-10-15T11:30:38Z</time></trkpt>
<trkpt lat="53.0814760000" lon="-4.1297930000"><ele>509</ele><time>2016-10-15T11:30:39Z</time></trkpt>
<trkpt lat="53.0814760000" lon="-4.1297800000"><ele>510</ele><time>2016-10-15T11:30:40Z</time></trkpt>
<trkpt lat="53.0814760000" lon="-4.1297670000"><ele>510</ele><time>2016-10-15T11:30:41Z</time></trkpt>
<trkpt lat="53.0814750000" lon="-4.1297540000"><ele>510</ele><time>2016-10-15T11:30:42Z</time></trkpt>
<trkpt lat="53.0814740000" lon="-4.1297400000"><ele>511</ele><time>2016-10-15T11:30:43Z</time></trkpt>
<trkpt lat="53.0814740000" lon="-4.1297270000"><ele>511</ele><time>2016-10-15T11:30:44Z</time></trkpt>
<trkpt lat="53.0814730000" lon="-4.1297130000"><ele>512</ele><time>2016-10-15T11:30:45Z</time></trkpt>
<trkpt lat="53.0814730000" lon="-4.1297000000"><ele>512</ele><time>2016-10-15T11:30:46Z</time></trkpt>
<trkpt lat="53.0814720000" lon="-4.1296870000"><ele>512</ele><time>2016-10-15T11:30:47Z</time></trkpt>
<trkpt lat="53.0814720000" lon="-4.1296740000"><ele>513</ele><time>2016-10-15T11:30:48Z</time></trkpt>
<trkpt lat="53.0814720000" lon="-4.1296610000"><ele>513</ele><time>2016-10-15T11:30:49Z</time></trkpt>
<trkpt lat="53.0814710000" lon="-4.1296490000"><ele>513</ele><time>2016-10-15T11:30:50Z</time></trkpt>
<trkpt lat="53.0814710000" lon="-4.1296420000"><ele>514</ele><time>2016-10-15T11:30:51Z</time></trkpt>
<trkpt lat="53.0814710000" lon="-4.1296290000"><ele>514</ele><time>2016-10-15T11:30:52Z</time></trkpt>
<trkpt lat="53.0814710000" lon="-4.1296170000"><ele>514</ele><time>2016-10-15T11:30:53Z</time></trkpt>
<trkpt lat="53.0814710000" lon="-4.1296050000"><ele>515</ele><time>2016-10-15T11:30:54Z</time></trkpt>
<trkpt lat="53.0814710000" lon="-4.1295940000"><ele>515</ele><time>2016-10-15T11:30:55Z</time></trkpt>
<trkpt lat="53.0814720000" lon="-4.1295820000"><ele>515</ele><time>2016-10-15T11:30:56Z</time></trkpt>
<trkpt lat="53.0814720000" lon="-4.1295700000"><ele>515</ele><time>2016-10-15T11:30:57Z</time></trkpt>
<trkpt lat="53.0814730000" lon="-4.1295580000"><ele>515</ele><time>2016-10-15T11:30:58Z</time></trkpt>
<trkpt lat="53.0814730000" lon="-4.1295460000"><ele>516</ele><time>2016-10-15T11:30:59Z</time></trkpt>
<trkpt lat="53.0814740000" lon="-4.1295340000"><ele>516</ele><time>2016-10-15T11:31:00Z</time></trkpt>
<trkpt lat="53.0814750000" lon="-4.1295220000"><ele>516</ele><time>2016-10-15T11:31:01Z</time></trkpt>
<trkpt lat="53.0814760000" lon="-4.1295100000"><ele>516</ele><time>2016-10-15T11:31:02Z</time></trkpt>
<trkpt lat="53.0814770000" lon="-4.1294990000"><ele>516</ele><time>2016-10-15T11:31:03Z</time></trkpt>
<trkpt lat="53.0814780000" lon="-4.1294870000"><ele>517</ele><time>2016-10-15T11:31:04Z</time></trkpt>
<trkpt lat="53.0814790000" lon="-4.1294750000"><ele>517</ele><time>2016-10-15T11:31:05Z</time></trkpt>
<trkpt lat="53.0814800000" lon="-4.1294640000"><ele>517</ele><time>2016-10-15T11:31:06Z</time></trkpt>
<trkpt lat="53.0814810000" lon="-4.1294530000"><ele>517</ele><time>2016-10-15T11:31:07Z</time></trkpt>
<trkpt lat="53.0814830000" lon="-4.1294420000"><ele>517</ele><time>2016-10-15T11:31:08Z</time></trkpt>
<trkpt lat="53.0814840000" lon="-4.1294310000"><ele>517</ele><time>2016-10-15T11:31:09Z</time></trkpt>
<trkpt lat="53.0814850000" lon="-4.1294200000"><ele>517</ele><time>2016-10-15T11:31:10Z</time></trkpt>
<trkpt lat="53.0814860000" lon="-4.1294100000"><ele>518</ele><time>2016-10-15T11:31:11Z</time></trkpt>
<trkpt lat="53.0814880000" lon="-4.1293890000"><ele>518</ele><time>2016-10-15T11:31:14Z</time></trkpt>
<trkpt lat="53.0814880000" lon="-4.1293780000"><ele>518</ele></trkpt>
<trkpt lat="53.0814890000" lon="-4.1293670000"><ele>518</ele><time>2016-10-15T11:31:15Z</time></trkpt>
<trkpt lat="53.0814890000" lon="-4.1293560000"><ele>518</ele><time>2016-10-15T11:31:16Z</time></trkpt>
<trkpt lat="53.0814890000" lon="-4.1293450000"><ele>518</ele><time>2016-10-15T11:31:17Z</time></trkpt>
<trkpt lat="53.0814890000" lon="-4.1293340000"><ele>518</ele><time>2016-10-15T11:31:18Z</time></trkpt>
<trkpt lat="53.0814890000" lon="-4.1293220000"><ele>518</ele><time>2016-10-15T11:31:19Z</time></trkpt>
<trkpt lat="53.0814890000" lon="-4.1293100000"><ele>518</ele><time>2016-10-15T11:31:20Z</time></trkpt>
<trkpt lat="53.0814890000" lon="-4.1292980000"><ele>519</ele><time>2016-10-15T11:31:21Z</time></trkpt>
<trkpt lat="53.0814890000" lon="-4.1292850000"><ele>519</ele><time>2016-10-15T11:31:22Z</time></trkpt>
<trkpt lat="53.0814880000" lon="-4.1292730000"><ele>519</ele><time>2016-10-15T11:31:23Z</time></trkpt>
<trkpt lat="53.0814880000" lon="-4.1292600000"><ele>519</ele><time>2016-10-15T11:31:24Z</time></trkpt>
<trkpt lat="53.0814880000" lon="-4.1292480000"><ele>519</ele><time>2016-10-15T11:31:25Z</time></trkpt>
<trkpt lat="53.0814880000" lon="-4.1292360000"><ele>519</ele><time>2016-10-15T11:31:26Z</time></trkpt>
<trkpt lat="53.0814870000" lon="-4.1292230000"><ele>520</ele><time>2016-10-15T11:31:27Z</time></trkpt>
<trkpt lat="53.0814870000" lon="-4.1292110000"><ele>520</ele><time>2016-10-15T11:31:28Z</time></trkpt>
<trkpt lat="53.0814870000" lon="-4.1291990000"><ele>520</ele><time>2016-10-15T11:31:29Z</time></trkpt>
<trkpt lat="53.0814870000" lon="-4.1291860000"><ele>520</ele><time>2016-10-15T11:31:30Z</time></trkpt>
<trkpt lat="53.0814860000" lon="-4.1291740000"><ele>520</ele><time>2016-10-15T11:31:31Z</time></trkpt>
<trkpt lat="53.0814860000" lon="-4.1291630000"><ele>520</ele><time>2016-10-15T11:31:32Z</time></trkpt>
<trkpt lat="53.0814860000" lon="-4.1291510000"><ele>521</ele><time>2016-10-15T11:31:33Z</time></trkpt>
<trkpt lat="53.0814860000" lon="-4.1291390000"><ele>521</ele><time>2016-10-15T11:31:34Z</time></trkpt>
<trkpt lat="53.0814860000" lon="-4.1291270000"><ele>521</ele><time>2016-10-15T11:31:35Z</time></trkpt>
<trkpt lat="53.0814860000" lon="-4.1291150000"><ele>521</ele><time>2016-10-15T11:31:36Z</time></trkpt>
<trkpt lat="53.0814850000" lon="-4.1291030000"><ele>521</ele><time>2016-10-15T11:31:37Z</time></trkpt>
<trkpt lat="53.0814850000" lon="-4.1290910000"><ele>521</ele><time>2016-10-15T11:31:38Z</time></trkpt>
<trkpt lat="53.0814840000" lon="-4.1290790000"><ele>522</ele><time>2016-10-15T11:31:39Z</time></trkpt>
<trkpt lat="53.0814840000" lon="-4.1290680000"><ele>522</ele><time>2016-10-15T11:31:40Z</time></trkpt>
<trkpt lat="53.0814830000" lon="-4.1290570000"><ele>522</ele><time>2016-10-15T11:31:41Z</time></trkpt>
<trkpt lat="53.0814830000" lon="-4.1290460000"><ele>522</ele><time>2016-10-15T11:31:42Z</time></trkpt>
<trkpt lat="53.0814820000" lon="-4.1290350000"><ele>522</ele><time>2016-10-15T11:31:43Z</time></trkpt>
<trkpt lat="53.0814820000" lon="-4.1290240000"><ele>523</ele><time>2016-10-15T11:31:44Z</time></trkpt>
<trkpt lat="53.0814810000" lon="-4.1290140000"><ele>523</ele><time>2016-10-15T11:31:45Z</time></trkpt>
<trkpt lat="53.0814810000" lon="-4.1290040000"><ele>523</ele><time>2016-10-15T11:31:46Z</time></trkpt>
<trkpt lat="53.0814810000" lon="-4.1289930000"><ele>523</ele><time>2016-10-15T11:31:47Z</time></trkpt>
<trkpt lat="53.0814810000" lon="-4.1289830000"><ele>524</ele><time>2016-10-15T11:31:48Z</time></trkpt>
<trkpt lat="53.0814810000" lon="-4.1289730000"><ele>524</ele><time>2016-10-15T11:31:49Z</time></trkpt>
<trkpt lat="53.0814810000" lon="-4.1289620000"><ele>524</ele><time>2016-10-15T11:31:50Z</time></trkpt>
<trkpt lat="53.0814810000" lon="-4.1289520000"><ele>524</ele><time>2016-10-15T11:31:51Z</time></trkpt>
<trkpt lat="53.0814810000" lon="-4.1289420000"><ele>524</ele><time>2016-10-15T11:31:52Z</time></trkpt>
<trkpt lat="53.0814810000" lon="-4.1289320000"><ele>525</ele><time>2016-10-15T11:31:53Z</time></trkpt>
<trkpt lat="53.0814810000" lon="-4.1289220000"><ele>525</ele><time>2016-10-15T11:31:54Z</time></trkpt>
<trkpt lat="53.0814820000" lon="-4.1289120000"><ele>525</ele><time>2016-10-15T11:31:55Z</time></trkpt>
<trkpt lat="53.0814820000" lon="-4.1289020000"><ele>525</ele><time>2016-10-15T11:31:56Z</time></trkpt>
<trkpt lat="53.0814830000" lon="-4.1288920000"><ele>526</ele><time>2016-10-15T11:31:57Z</time></trkpt>
<trkpt lat="53.0814830000" lon="-4.1288820000"><ele>526</ele><time>2016-10-15T11:31:58Z</time></trkpt>
<trkpt lat="53.0814840000" lon="-4.1288720000"><ele>526</ele><time>2016-10-15T11:31:59Z</time></trkpt>
<trkpt lat="53.0814840000" lon="-4.1288620000"><ele>526</ele><time>2016-10-15T11:32:00Z</time></trkpt>
<trkpt lat="53.0814850000" lon="-4.1288530000"><ele>527</ele><time>2016-10-15T11:32:01Z</time></trkpt>
<trkpt lat="53.0814850000" lon="-4.1288430000"><ele>527</ele><time>2016-10-15T11:32:02Z</time></trkpt>
<trkpt lat="53.0814860000" lon="-4.1288330000"><ele>527</ele><time>2016-10-15T11:32:03Z</time></trkpt>
<trkpt lat="53.0814860000" lon="-4.1288230000"><ele>528</ele><time>2016-10-15T11:32:04Z</time></trkpt>
<trkpt lat="53.0814860000" lon="-4.1288130000"><ele>528</ele><time>2016-10-15T11:32:05Z</time></trkpt>
<trkpt lat="53.0814870000" lon="-4.1288030000"><ele>528</ele><time>2016-10-15T11:32:06Z</time></trkpt>
<trkpt lat="53.0814870000" lon="-4.1287920000"><ele>528</ele><time>2016-10-15T11:32:07Z</time></trkpt>
<trkpt lat="53.0814870000" lon="-4.1287820000"><ele>529</ele><time>2016-10-15T11:32:08Z</time></trkpt>
<trkpt lat="53.0814880000" lon="-4.1287750000"><ele>529</ele><time>2016-10-15T11:32:09Z</time></trkpt>
<trkpt lat="53.0814880000" lon="-4.1287670000"><ele>529</ele><time>2016-10-15T11:32:10Z</time></trkpt>
<trkpt lat="53.0814880000" lon="-4.1287570000"><ele>530</ele><time>2016-10-15T11:32:11Z</time></trkpt>
<trkpt lat="53.0814890000" lon="-4.1287350000"><ele>531</ele><time>2016-10-15T11:32:14Z</time></trkpt>
<trkpt lat="53.0814890000" lon="-4.1287240000"><ele>531</ele></trkpt>
<trkpt lat="53.0814890000" lon="-4.1287130000"><ele>531</ele><time>2016-10-15T11:32:15Z</time></trkpt>
<trkpt lat="53.0814890000" lon="-4.1287020000"><ele>532</ele><time>2016-10-15T11:32:16Z</time></trkpt>
<trkpt lat="53.0814900000" lon="-4.1286910000"><ele>532</ele><time>2016-10-15T11:32:17Z</time></trkpt>
<trkpt lat="53.0814900000" lon="-4.1286800000"><ele>532</ele><time>2016-10-15T11:32:18Z</time></trkpt>
<trkpt lat="53.0814910000" lon="-4.1286700000"><ele>533</ele><time>2016-10-15T11:32:19Z</time></trkpt>
<trkpt lat="53.0814910000" lon="-4.1286600000"><ele>533</ele><time>2016-10-15T11:32:20Z</time></trkpt>
<trkpt lat="53.0814920000" lon="-4.1286500000"><ele>533</ele><time>2016-10-15T11:32:21Z</time></trkpt>
<trkpt lat="53.0814920000" lon="-4.1286400000"><ele>534</ele><time>2016-10-15T11:32:22Z</time></trkpt>
<trkpt lat="53.0814920000" lon="-4.1286300000"><ele>534</ele><time>2016-10-15T11:32:23Z</time></trkpt>
<trkpt lat="53.0814930000" lon="-4.1286200000"><ele>534</ele><time>2016-10-15T11:32:24Z</time></trkpt>
<trkpt lat="53.0814930000" lon="-4.1286100000"><ele>535</ele><time>2016-10-15T11:32:25Z</time></trkpt>
<trkpt lat="53.0814930000" lon="-4.1285990000"><ele>535</ele><time>2016-10-15T11:32:26Z</time></trkpt>
<trkpt lat="53.0814930000" lon="-4.1285890000"><ele>535</ele><time>2016-10-15T11:32:27Z</time></trkpt>
<trkpt lat="53.0814930000" lon="-4.1285790000"><ele>536</ele><time>2016-10-15T11:32:28Z</time></trkpt>
<trkpt lat="53.0814920000" lon="-4.1285690000"><ele>536</ele><time>2016-10-15T11:32:29Z</time></trkpt>
<trkpt lat="53.0814920000" lon="-4.1285590000"><ele>536</ele><time>2016-10-15T11:32:30Z</time></trkpt>
<trkpt lat="53.0814920000" lon="-4.1285490000"><ele>537</ele><time>2016-10-15T11:32:31Z</time></trkpt>
<trkpt lat="53.0814920000" lon="-4.1285390000"><ele>537</ele><time>2016-10-15T11:32:32Z</time></trkpt>
<trkpt lat="53.0814920000" lon="-4.1285290000"><ele>537</ele><time>2016-10-15T11:32:33Z</time></trkpt>
<trkpt lat="53.0814920000" lon="-4.1285200000"><ele>538</ele><time>2016-10-15T11:32:34Z</time></trkpt>
<trkpt lat="53.0814920000" lon="-4.1285110000"><ele>538</ele><time>2016-10-15T11:32:35Z</time></trkpt>
<trkpt lat="53.0814920000" lon="-4.1285010000"><ele>538</ele><time>2016-10-15T11:32:36Z</time></trkpt>
<trkpt lat="53.0814920000" lon="-4.1284920000"><ele>538</ele><time>2016-10-15T11:32:37Z</time></trkpt>
<trkpt lat="53.0814920000" lon="-4.1284830000"><ele>538</ele><time>2016-10-15T11:32:38Z</time></trkpt>
<trkpt lat="53.0814930000" lon="-4.1284740000"><ele>539</ele><time>2016-10-15T11:32:39Z</time></trkpt>
<trkpt lat="53.0814930000" lon="-4.1284640000"><ele>539</ele><time>2016-10-15T11:32:40Z</time></trkpt>
<trkpt lat="53.0814930000" lon="-4.1284550000"><ele>539</ele><time>2016-10-15T11:32:41Z</time></trkpt>
<trkpt lat="53.0814930000" lon="-4.1284450000"><ele>539</ele><time>2016-10-15T11:32:42Z</time></trkpt>
<trkpt lat="53.0814930000" lon="-4.1284360000"><ele>539</ele><time>2016-10-15T11:32:43Z</time></trkpt>
<trkpt lat="53.0814930000" lon="-4.1284270000"><ele>540</ele><time>2016-10-15T11:32:44Z</time></trkpt>
<trkpt lat="53.0814930000" lon="-4.1284180000"><ele>540</ele><time>2016-10-15T11:32:45Z</time></trkpt>
<trkpt lat="53.0814930000" lon="-4.1284080000"><ele>540</ele><time>2016-10-15T11:32:46Z</time></trkpt>
<trkpt lat="53.0814930000" lon="-4.1283990000"><ele>540</ele><time>2016-10-15T11:32:47Z</time></trkpt>
<trkpt lat="53.0814930000" lon="-4.1283900000"><ele>540</ele><time>2016-10-15T11:32:48Z</time></trkpt>
<trkpt lat="53.0814930000" lon="-4.1283800000"><ele>540</ele><time>2016-10-15T11:32:49Z</time></trkpt>
<trkpt lat="53.0814930000" lon="-4.1283710000"><ele>541</ele><time>2016-10-15T11:32:50Z</time></trkpt>
<trkpt lat="53.0814930000" lon="-4.1283620000"><ele>541</ele><time>2016-10-15T11:32:51Z</time></trkpt>
<trkpt lat="53.0814930000" lon="-4.1283520000"><ele>541</ele><time>2016-10-15T11:32:52Z</time></trkpt>
<trkpt lat="53.0814940000" lon="-4.1283430000"><ele>541</ele><time>2016-10-15T11:32:53Z</time></trkpt>
<trkpt lat="53.0814940000" lon="-4.1283330000"><ele>541</ele><time>2016-10-15T11:32:54Z</time></trkpt>
<trkpt lat="53.0814940000" lon="-4.1283240000"><ele>541</ele><time>2016-10-15T11:32:55Z</time></trkpt>
<trkpt lat="53.0814940000" lon="-4.1283140000"><ele>542</ele><time>2016-10-15T11:32:56Z</time></trkpt>
<trkpt lat="53.0814940000" lon="-4.1283040000"><ele>542</ele><time>2016-10-15T11:32:57Z</time></trkpt>
<trkpt lat="53.0814940000" lon="-4.1282940000"><ele>542</ele><time>2016-10-15T11:32:58Z</time></trkpt>
<trkpt lat="53.0814940000" lon="-4.1282840000"><ele>542</ele><time>2016-10-15T11:32:59Z</time></trkpt>
<trkpt lat="53.0814940000" lon="-4.1282740000"><ele>542</ele><time>2016-10-15T11:33:00Z</time></trkpt>
<trkpt lat="53.0814950000" lon="-4.1282640000"><ele>543</ele><time>2016-10-15T11:33:01Z</time></trkpt>
<trkpt lat="53.0814950000" lon="-4.1282530000"><ele>543</ele><time>2016-10-15T11:33:02Z</time></trkpt>
<trkpt lat="53.0814950000" lon="-4.1282430000"><ele>543</ele><time>2016-10-15T11:33:03Z</time></trkpt>
<trkpt lat="53.0814960000" lon="-4.1282330000"><ele>543</ele><time>2016-10-15T11:33:04Z</time></trkpt>
<trkpt lat="53.0814960000" lon="-4.1282230000"><ele>544</ele><time>2016-10-15T11:33:05Z</time></trkpt>
<trkpt lat="53.0814970000" lon="-4.1282130000"><ele>544</ele><time>2016-10-15T11:33:06Z</time></trkpt>
<trkpt lat="53.0814980000" lon="-4.1282020000"><ele>544</ele><time>2016-10-15T11:33:07Z</time></trkpt>
<trkpt lat="53.0814990000" lon="-4.1281920000"><ele>544</ele><time>2016-10-15T11:33:08Z</time></trkpt>
<trkpt lat="53.0815000000" lon="-4.1281820000"><ele>545</ele><time>2016-10-15T11:33:09Z</time></trkpt>
<trkpt lat="53.0815010000" lon="-4.1281710000"><ele>545</ele><time>2016-10-15T11:33:10Z</time></trkpt>
<trkpt lat="53.0815030000" lon="-4.1281600000"><ele>545</ele><time>2016-10-15T11:33:11Z</time></trkpt>
<trkpt lat="53.0815060000" lon="-4.1281410000"><ele>546</ele><time>2016-10-15T11:33:14Z</time></trkpt>
<trkpt lat="53.0815080000" lon="-4.1281330000"><ele>546</ele></trkpt>
<trkpt lat="53.0815110000" lon="-4.1281240000"><ele>546</ele><time>2016-10-15T11:33:15Z</time></trkpt>
<trkpt lat="53.0815140000" lon="-4.1281140000"><ele>547</ele><time>2016-10-15T11:33:16Z</time></trkpt>
<trkpt lat="53.0815160000" lon="-4.1281050000"><ele>547</ele><time>2016-10-15T11:33:17Z</time></trkpt>
<trkpt lat="53.0815190000" lon="-4.1280960000"><ele>547</ele><time>2016-10-15T11:33:18Z</time></trkpt>
<trkpt lat="53.0815220000" lon="-4.1280870000"><ele>547</ele><time>2016-10-15T11:33:19Z</time></trkpt>
<trkpt lat="53.0815250000" lon="-4.1280770000"><ele>548</ele><time>2016-10-15T11:33:20Z</time></trkpt>
<trkpt lat="53.0815290000" lon="-4.1280680000"><ele>548</ele><time>2016-10-15T11:33:21Z</time></trkpt>
<trkpt lat="53.0815330000" lon="-4.1280570000"><ele>548</ele><time>2016-10-15T11:33:22Z</time></trkpt>
<trkpt lat="53.0815380000" lon="-4.1280450000"><ele>548</ele><time>2016-10-15T11:33:23Z</time></trkpt>
<trkpt lat="53.0815410000" lon="-4.1280360000"><ele>548</ele><time>2016-10-15T11:33:24Z</time></trkpt>
<trkpt lat="53.0815450000" lon="-4.1280260000"><ele>549</ele><time>2016-10-15T11:33:25Z</time></trkpt>
<trkpt lat="53.0815490000" lon="-4.1280160000"><ele>549</ele><time>2016-10-15T11:33:26Z</time></trkpt>
<trkpt lat="53.0815530000" lon="-4.1280060000"><ele>549</ele><time>2016-10-15T11:33:27Z</time></trkpt>
<trkpt lat="53.0815580000" lon="-4.1279930000"><ele>549</ele><time>2016-10-15T11:33:28Z</time></trkpt>
<trkpt lat="53.0815620000" lon="-4.1279800000"><ele>549</ele><time>2016-10-15T11:33:29Z</time></trkpt>
<trkpt lat="53.0815670000" lon="-4.1279670000"><ele>549</ele><time>2016-10-15T11:33:30Z</time></trkpt>
<trkpt lat="53.0815710000" lon="-4.1279540000"><ele>549</ele><time>2016-10-15T11:33:31Z</time></trkpt>
<trkpt lat="53.0815750000" lon="-4.1279420000"><ele>550</ele><time>2016-10-15T11:33:32Z</time></trkpt>
<trkpt lat="53.0815800000" lon="-4.1279290000"><ele>550</ele><time>2016-10-15T11:33:33Z</time></trkpt>
<trkpt lat="53.0815840000" lon="-4.1279170000"><ele>550</ele><time>2016-10-15T11:33:34Z</time></trkpt>
<trkpt lat="53.0815880000" lon="-4.1279040000"><ele>550</ele><time>2016-10-15T11:33:35Z</time></trkpt>
<trkpt lat="53.0815920000" lon="-4.1278910000"><ele>550</ele><time>2016-10-15T11:33:36Z</time></trkpt>
<trkpt lat="53.0815970000" lon="-4.1278790000"><ele>550</ele><time>2016-10-15T11:33:37Z</time></trkpt>
<trkpt lat="53.0816010000" lon="-4.1278670000"><ele>550</ele><time>2016-10-15T11:33:38Z</time></trkpt>
<trkpt lat="53.0816060000" lon="-4.1278550000"><ele>550</ele><time>2016-10-15T11:33:39Z</time></trkpt>
<trkpt lat="53.0816100000" lon="-4.1278430000"><ele>550</ele><time>2016-10-15T11:33:40Z</time></trkpt>
<trkpt lat="53.0816140000" lon="-4.1278310000"><ele>550</ele><time>2016-10-15T11:33:41Z</time></trkpt>
<trkpt lat="53.0816180000" lon="-4.1278180000"><ele>550</ele><time>2016-10-15T11:33:42Z</time></trkpt>
<trkpt lat="53.0816220000" lon="-4.1278070000"><ele>550</ele><time>2016-10-15T11:33:43Z</time></trkpt>
<trkpt lat="53.0816260000" lon="-4.1277950000"><ele>550</ele><time>2016-10-15T11:33:44Z</time></trkpt>
<trkpt lat="53.0816300000" lon="-4.1277830000"><ele>550</ele><time>2016-10-15T11:33:45Z</time></trkpt>
<trkpt lat="53.0816330000" lon="-4.1277710000"><ele>550</ele><time>2016-10-15T11:33:46Z</time></trkpt>
<trkpt lat="53.0816370000" lon="-4.1277590000"><ele>550</ele><time>2016-10-15T11:33:47Z</time></trkpt>
<trkpt lat="53.0816410000" lon="-4.1277480000"><ele>550</ele><time>2016-10-15T11:33:48Z</time></trkpt>
<trkpt lat="53.0816440000" lon="-4.1277360000"><ele>550</ele><time>2016-10-15T11:33:49Z</time></trkpt>
<trkpt lat="53.0816480000" lon="-4.1277240000"><ele>551</ele><time>2016-10-15T11:33:50Z</time></trkpt>
<trkpt lat="53.0816510000" lon="-4.1277120000"><ele>551</ele><time>2016-10-15T11:33:51Z</time></trkpt>
<trkpt lat="53.0816540000" lon="-4.1277000000"><ele>551</ele><time>2016-10-15T11:33:52Z</time></trkpt>
<trkpt lat="53.0816570000" lon="-4.1276890000"><ele>551</ele><time>2016-10-15T11:33:53Z</time></trkpt>
<trkpt lat="53.0816600000" lon="-4.1276770000"><ele>551</ele><time>2016-10-15T11:33:54Z</time></trkpt>
<trkpt lat="53.0816630000" lon="-4.1276650000"><ele>551</ele><time>2016-10-15T11:33:55Z</time></trkpt>
<trkpt lat="53.0816650000" lon="-4.1276540000"><ele>551</ele><time>2016-10-15T11:33:56Z</time></trkpt>
<trkpt lat="53.0816670000" lon="-4.1276430000"><ele>551</ele><time>2016-10-15T11:33:57Z</time></trkpt>
<trkpt lat="53.0816690000" lon="-4.1276320000"><ele>551</ele><time>2016-10-15T11:33:58Z</time></trkpt>
<trkpt lat="53.0816710000" lon="-4.1276210000"><ele>551</ele><time>2016-10-15T11:33:59Z</time></trkpt>
<trkpt lat="53.0816720000" lon="-4.1276090000"><ele>551</ele><time>2016-10-15T11:34:00Z</time></trkpt>
<trkpt lat="53.0816740000" lon="-4.1275980000"><ele>551</ele><time>2016-10-15T11:34:01Z</time></trkpt>
<trkpt lat="53.0816750000" lon="-4.1275870000"><ele>551</ele><time>2016-10-15T11:34:02Z</time></trkpt>
<trkpt lat="53.0816770000" lon="-4.1275760000"><ele>551</ele><time>2016-10-15T11:34:03Z</time></trkpt>
<trkpt lat="53.0816780000" lon="-4.1275640000"><ele>552</ele><time>2016-10-15T11:34:04Z</time></trkpt>
<trkpt lat="53.0816790000" lon="-4.1275520000"><ele>552</ele><time>2016-10-15T11:34:05Z</time></trkpt>
<trkpt lat="53.0816800000" lon="-4.1275400000"><ele>552</ele><time>2016-10-15T11:34:06Z</time></trkpt>
<trkpt lat="53.0816820000" lon="-4.1275280000"><ele>552</ele><time>2016-10-15T11:34:07Z</time></trkpt>
<trkpt lat="53.0816830000" lon="-4.1275160000"><ele>552</ele><time>2016-10-15T11:34:08Z</time></trkpt>
<trkpt lat="53.0816850000" lon="-4.1275050000"><ele>552</ele><time>2016-10-15T11:34:09Z</time></trkpt>
<trkpt lat="53.0816860000" lon="-4.1274930000"><ele>552</ele><time>2016-10-15T11:34:10Z</time></trkpt>
<trkpt lat="53.0816870000" lon="-4.1274820000"><ele>552</ele><time>2016-10-15T11:34:11Z</time></trkpt>
<trkpt lat="53.0816900000" lon="-4.1274580000"><ele>552</ele><time>2016-10-15T11:34:14Z</time></trkpt>
<trkpt lat="53.0816910000" lon="-4.1274470000"><ele>552</ele></trkpt>
<trkpt lat="53.0816920000" lon="-4.1274360000"><ele>552</ele><time>2016-10-15T11:34:15Z</time></trkpt>
<trkpt lat="53.0816930000" lon="-4.1274250000"><ele>552</ele><time>2016-10-15T11:34:16Z</time></trkpt>
<trkpt lat="53.0816940000" lon="-4.1274140000"><ele>553</ele><time>2016-10-15T11:34:17Z</time></trkpt>
<trkpt lat="53.0816950000" lon="-4.1274030000"><ele>553</ele><time>2016-10-15T11:34:18Z</time></trkpt>
<trkpt lat="53.0816960000" lon="-4.1273920000"><ele>553</ele><time>2016-10-15T11:34:19Z</time></trkpt>
<trkpt lat="53.0816960000" lon="-4.1273810000"><ele>553</ele><time>2016-10-15T11:34:20Z</time></trkpt>
<trkpt lat="53.0816970000" lon="-4.1273710000"><ele>553</ele><time>2016-10-15T11:34:21Z</time></trkpt>
<trkpt lat="53.0816980000" lon="-4.1273600000"><ele>553</ele><time>2016-10-15T11:34:22Z</time></trkpt>
<trkpt lat="53.0816990000" lon="-4.1273490000"><ele>553</ele><time>2016-10-15T11:34:23Z</time></trkpt>
<trkpt lat="53.0816990000" lon="-4.1273380000"><ele>554</ele><time>2016-10-15T11:34:24Z</time></trkpt>
<trkpt lat="53.0817000000" lon="-4.1273270000"><ele>554</ele><time>2016-10-15T11:34:25Z</time></trkpt>
<trkpt lat="53.0817000000" lon="-4.1273150000"><ele>554</ele><time>2016-10-15T11:34:26Z</time></trkpt>
<trkpt lat="53.0817010000" lon="-4.1273040000"><ele>554</ele><time>2016-10-15T11:34:27Z</time></trkpt>
<trkpt lat="53.0817010000" lon="-4.1272920000"><ele>554</ele><time>2016-10-15T11:34:28Z</time></trkpt>
<trkpt lat="53.0817020000" lon="-4.1272790000"><ele>554</ele><time>2016-10-15T11:34:29Z</time></trkpt>
<trkpt lat="53.0817020000" lon="-4.1272660000"><ele>555</ele><time>2016-10-15T11:34:30Z</time></trkpt>
<trkpt lat="53.0817020000" lon="-4.1272530000"><ele>555</ele><time>2016-10-15T11:34:31Z</time></trkpt>
<trkpt lat="53.0817110000" lon="-4.1270380000"><ele>555</ele><time>2016-10-15T11:34:32Z</time></trkpt>
<trkpt lat="53.0817110000" lon="-4.1270170000"><ele>555</ele><time>2016-10-15T11:34:33Z</time></trkpt>
<trkpt lat="53.0817100000" lon="-4.1269970000"><ele>555</ele><time>2016-10-15T11:34:34Z</time></trkpt>
<trkpt lat="53.0817100000" lon="-4.1269790000"><ele>556</ele><time>2016-10-15T11:34:35Z</time></trkpt>
<trkpt lat="53.0817100000" lon="-4.1269790000"><ele>556</ele><time>2016-10-15T11:34:36Z</time></trkpt>
<trkpt lat="53.0817090000" lon="-4.1269410000"><ele>556</ele><time>2016-10-15T11:34:37Z</time></trkpt>
<trkpt lat="53.0817080000" lon="-4.1269180000"><ele>556</ele><time>2016-10-15T11:34:38Z</time></trkpt>
<trkpt lat="53.0817060000" lon="-4.1268950000"><ele>556</ele><time>2016-10-15T11:34:39Z</time></trkpt>
<trkpt lat="53.0817030000" lon="-4.1268710000"><ele>557</ele><time>2016-10-15T11:34:40Z</time></trkpt>
<trkpt lat="53.0817020000" lon="-4.1268480000"><ele>557</ele><time>2016-10-15T11:34:41Z</time></trkpt>
<trkpt lat="53.0816990000" lon="-4.1268280000"><ele>557</ele><time>2016-10-15T11:34:42Z</time></trkpt>
<trkpt lat="53.0816940000" lon="-4.1268090000"><ele>557</ele><time>2016-10-15T11:34:43Z</time></trkpt>
<trkpt lat="53.0816870000" lon="-4.1267890000"><ele>557</ele><time>2016-10-15T11:34:44Z</time></trkpt>
<trkpt lat="53.0816840000" lon="-4.1267730000"><ele>558</ele><time>2016-10-15T11:34:45Z</time></trkpt>
<trkpt lat="53.0816820000" lon="-4.1267570000"><ele>558</ele><time>2016-10-15T11:34:46Z</time></trkpt>
<trkpt lat="53.0816820000" lon="-4.1267400000"><ele>558</ele><time>2016-10-15T11:34:47Z</time></trkpt>
<trkpt lat="53.0816820000" lon="-4.1267400000"><ele>558</ele><time>2016-10-15T11:34:48Z</time></trkpt>
<trkpt lat="53.0816820000" lon="-4.1267400000"><ele>558</ele><time>2016-10-15T11:34:49Z</time></trkpt>
<trkpt lat="53.0816820000" lon="-4.1267390000"><ele>558</ele><time>2016-10-15T11:34:50Z</time></trkpt>
<trkpt lat="53.0816820000" lon="-4.1267370000"><ele>558</ele><time>2016-10-15T11:34:51Z</time></trkpt>
<trkpt lat="53.0816830000" lon="-4.1267350000"><ele>558</ele><time>2016-10-15T11:34:52Z</time></trkpt>
<trkpt lat="53.0816830000" lon="-4.1267330000"><ele>558</ele><time>2016-10-15T11:34:53Z</time></trkpt>
<trkpt lat="53.0816840000" lon="-4.1267290000"><ele>558</ele><time>2016-10-15T11:34:54Z</time></trkpt>
<trkpt lat="53.0816850000" lon="-4.1267250000"><ele>558</ele><time>2016-10-15T11:34:55Z</time></trkpt>
<trkpt lat="53.0816860000" lon="-4.1267200000"><ele>558</ele><time>2016-10-15T11:34:56Z</time></trkpt>
<trkpt lat="53.0816880000" lon="-4.1267150000"><ele>558</ele><time>2016-10-15T11:34:57Z</time></trkpt>
<trkpt lat="53.0816900000" lon="-4.1267080000"><ele>558</ele><time>2016-10-15T11:34:58Z</time></trkpt>
<trkpt lat="53.0816920000" lon="-4.1267010000"><ele>558</ele><time>2016-10-15T11:34:59Z</time></trkpt>
<trkpt lat="53.0816940000" lon="-4.1266930000"><ele>558</ele><time>2016-10-15T11:35:00Z</time></trkpt>
<trkpt lat="53.0816970000" lon="-4.1266840000"><ele>558</ele><time>2016-10-15T11:35:01Z</time></trkpt>
<trkpt lat="53.0817000000" lon="-4.1266740000"><ele>558</ele><time>2016-10-15T11:35:02Z</time></trkpt>
<trkpt lat="53.0817580000" lon="-4.1264890000"><ele>558</ele><time>2016-10-15T11:35:03Z</time></trkpt>
<trkpt lat="53.0817650000" lon="-4.1264760000"><ele>558</ele><time>2016-10-15T11:35:04Z</time></trkpt>
<trkpt lat="53.0817710000" lon="-4.1264630000"><ele>559</ele><time>2016-10-15T11:35:05Z</time></trkpt>
<trkpt lat="53.0817710000" lon="-4.1264620000"><ele>559</ele><time>2016-10-15T11:35:06Z</time></trkpt>
<trkpt lat="53.0817710000" lon="-4.1264620000"><ele>559</ele><time>2016-10-15T11:35:07Z</time></trkpt>
<trkpt lat="53.0817720000" lon="-4.1264610000"><ele>559</ele><time>2016-10-15T11:35:08Z</time></trkpt>
<trkpt lat="53.0817720000" lon="-4.1264590000"><ele>559</ele><time>2016-10-15T11:35:09Z</time></trkpt>
<trkpt lat="53.0817730000" lon="-4.1264570000"><ele>559</ele><time>2016-10-15T11:35:10Z</time></trkpt>
<trkpt lat="53.0817730000" lon="-4.1264550000"><ele>559</ele><time>2016-10-15T11:35:11Z</time></trkpt>
<trkpt lat="53.0817760000" lon="-4.1264470000"><ele>559</ele><time>2016-10-15T11:35:14Z</time></trkpt>
<trkpt lat="53.0818250000" lon="-4.1263070000"><ele>559</ele></trkpt>
<trkpt lat="53.0818330000" lon="-4.1262890000"><ele>559</ele><time>2016-10-15T11:35:15Z</time></trkpt>
<trkpt lat="53.0818390000" lon="-4.1262700000"><ele>559</ele><time>2016-10-15T11:35:16Z</time></trkpt>
<trkpt lat="53.0818460000" lon="-4.1262480000"><ele>559</ele><time>2016-10-15T11:35:17Z</time></trkpt>
<trkpt lat="53.0818530000" lon="-4.1262290000"><ele>559</ele><time>2016-10-15T11:35:18Z</time></trkpt>
<trkpt lat="53.0818590000" lon="-4.1262080000"><ele>559</ele><time>2016-10-15T11:35:19Z</time></trkpt>
<trkpt lat="53.0818650000" lon="-4.1261870000"><ele>560</ele><time>2016-10-15T11:35:20Z</time></trkpt>
<trkpt lat="53.0818710000" lon="-4.1261680000"><ele>560</ele><time>2016-10-15T11:35:21Z</time></trkpt>
<trkpt lat="53.0818780000" lon="-4.1261510000"><ele>560</ele><time>2016-10-15T11:35:22Z</time></trkpt>
<trkpt lat="53.0818860000" lon="-4.1261320000"><ele>560</ele><time>2016-10-15T11:35:23Z</time></trkpt>
<trkpt lat="53.0818940000" lon="-4.1261140000"><ele>560</ele><time>2016-10-15T11:35:24Z</time></trkpt>
<trkpt lat="53.0819010000" lon="-4.1260930000"><ele>560</ele><time>2016-10-15T11:35:25Z</time></trkpt>
<trkpt lat="53.0819070000" lon="-4.1260710000"><ele>561</ele><time>2016-10-15T11:35:26Z</time></trkpt>
<trkpt lat="53.0819150000" lon="-4.1260540000"><ele>561</ele><time>2016-10-15T11:35:27Z</time></trkpt>
<trkpt lat="53.0819240000" lon="-4.1260370000"><ele>561</ele><time>2016-10-15T11:35:28Z</time></trkpt>
<trkpt lat="53.0819310000" lon="-4.1260200000"><ele>561</ele><time>2016-10-15T11:35:29Z</time></trkpt>
<trkpt lat="53.0819410000" lon="-4.1260000000"><ele>561</ele><time>2016-10-15T11:35:30Z</time></trkpt>
<trkpt lat="53.0819510000" lon="-4.1259830000"><ele>561</ele><time>2016-10-15T11:35:31Z</time></trkpt>
<trkpt lat="53.0819600000" lon="-4.1259650000"><ele>562</ele><time>2016-10-15T11:35:32Z</time></trkpt>
<trkpt lat="53.0819670000" lon="-4.1259450000"><ele>562</ele><time>2016-10-15T11:35:33Z</time></trkpt>
<trkpt lat="53.0819720000" lon="-4.1259240000"><ele>562</ele><time>2016-10-15T11:35:34Z</time></trkpt>
<trkpt lat="53.0819790000" lon="-4.1259040000"><ele>562</ele><time>2016-10-15T11:35:35Z</time></trkpt>
<trkpt lat="53.0819860000" lon="-4.1258890000"><ele>562</ele><time>2016-10-15T11:35:36Z</time></trkpt>
<trkpt lat="53.0819950000" lon="-4.1258750000"><ele>563</ele><time>2016-10-15T11:35:37Z</time></trkpt>
<trkpt lat="53.0820040000" lon="-4.1258600000"><ele>563</ele><time>2016-10-15T11:35:38Z</time></trkpt>
<trkpt lat="53.0820150000" lon="-4.1258460000"><ele>563</ele><time>2016-10-15T11:35:39Z</time></trkpt>
<trkpt lat="53.0820220000" lon="-4.1258270000"><ele>563</ele><time>2016-10-15T11:35:40Z</time></trkpt>
<trkpt lat="53.0820300000" lon="-4.1258110000"><ele>563</ele><time>2016-10-15T11:35:41Z</time></trkpt>
<trkpt lat="53.0820390000" lon="-4.1257960000"><ele>563</ele><time>2016-10-15T11:35:42Z</time></trkpt>
<trkpt lat="53.0820490000" lon="-4.1257820000"><ele>563</ele><time>2016-10-15T11:35:43Z</time></trkpt>
<trkpt lat="53.0820580000" lon="-4.1257670000"><ele>563</ele><time>2016-10-15T11:35:44Z</time></trkpt>
<trkpt lat="53.0820670000" lon="-4.1257530000"><ele>563</ele><time>2016-10-15T11:35:45Z</time></trkpt>
<trkpt lat="53.0820770000" lon="-4.1257390000"><ele>563</ele><time>2016-10-15T11:35:46Z</time></trkpt>
<trkpt lat="53.0820860000" lon="-4.1257240000"><ele>563</ele><time>2016-10-15T11:35:47Z</time></trkpt>
<trkpt lat="53.0820940000" lon="-4.1257090000"><ele>563</ele><time>2016-10-15T11:35:48Z</time></trkpt>
<trkpt lat="53.0821030000" lon="-4.1256960000"><ele>563</ele><time>2016-10-15T11:35:49Z</time></trkpt>
<trkpt lat="53.0821130000" lon="-4.1256830000"><ele>563</ele><time>2016-10-15T11:35:50Z</time></trkpt>
<trkpt lat="53.0821250000" lon="-4.1256740000"><ele>563</ele><time>2016-10-15T11:35:51Z</time></trkpt>
<trkpt lat="53.0821360000" lon="-4.1256630000"><ele>563</ele><time>2016-10-15T11:35:52Z</time></trkpt>
<trkpt lat="53.0821450000" lon="-4.1256470000"><ele>563</ele><time>2016-10-15T11:35:53Z</time></trkpt>
<trkpt lat="53.0821540000" lon="-4.1256270000"><ele>563</ele><time>2016-10-15T11:35:54Z</time></trkpt>
<trkpt lat="53.0821620000" lon="-4.1256050000"><ele>563</ele><time>2016-10-15T11:35:55Z</time></trkpt>
<trkpt lat="53.0821690000" lon="-4.1255840000"><ele>563</ele><time>2016-10-15T11:35:56Z</time></trkpt>
<trkpt lat="53.0821770000" lon="-4.1255650000"><ele>563</ele><time>2016-10-15T11:35:57Z</time></trkpt>
<trkpt lat="53.0821860000" lon="-4.1255480000"><ele>563</ele><time>2016-10-15T11:35:58Z</time></trkpt>
<trkpt lat="53.0821950000" lon="-4.1255340000"><ele>563</ele><time>2016-10-15T11:35:59Z</time></trkpt>
<trkpt lat="53.0822040000" lon="-4.1255180000"><ele>563</ele><time>2016-10-15T11:36:00Z</time></trkpt>
<trkpt lat="53.0822130000" lon="-4.1255020000"><ele>563</ele><time>2016-10-15T11:36:01Z</time></trkpt>
<trkpt lat="53.0822200000" lon="-4.1254830000"><ele>563</ele><time>2016-10-15T11:36:02Z</time></trkpt>
<trkpt lat="53.0822290000" lon="-4.1254660000"><ele>564</ele><time>2016-10-15T11:36:03Z</time></trkpt>
<trkpt lat="53.0822350000" lon="-4.1254440000"><ele>564</ele><time>2016-10-15T11:36:04Z</time></trkpt>
<trkpt lat="53.0822420000" lon="-4.1254230000"><ele>564</ele><time>2016-10-15T11:36:05Z</time></trkpt>
<trkpt lat="53.0822500000" lon="-4.1254050000"><ele>564</ele><time>2016-10-15T11:36:06Z</time></trkpt>
<trkpt lat="53.0822580000" lon="-4.1253890000"><ele>564</ele><time>2016-10-15T11:36:07Z</time></trkpt>
<trkpt lat="53.0822660000" lon="-4.1253740000"><ele>564</ele><time>2016-10-15T11:36:08Z</time></trkpt>
<trkpt lat="53.0822740000" lon="-4.1253600000"><ele>564</ele><time>2016-10-15T11:36:09Z</time></trkpt>
<trkpt lat="53.0822810000" lon="-4.1253440000"><ele>565</ele><time>2016-10-15T11:36:10Z</time></trkpt>
<trkpt lat="53.0822880000" lon="-4.1253270000"><ele>565</ele><time>2016-10-15T11:36:11Z</time></trkpt>
<trkpt lat="53.0823040000" lon="-4.1252950000"><ele>565</ele><time>2016-10-15T11:36:14Z</time></trkpt>
<trkpt lat="53.0823120000" lon="-4.1252840000"><ele>565</ele></trkpt>
<trkpt lat="53.0823200000" lon="-4.1252710000"><ele>565</ele><time>2016-10-15T11:36:15Z</time></trkpt>
<trkpt lat="53.0823200000" lon="-4.1252710000"><ele>565</ele><time>2016-10-15T11:36:16Z</time></trkpt>
<trkpt lat="53.0823200000" lon="-4.1252700000"><ele>565</ele><time>2016-10-15T11:36:17Z</time></trkpt>
<trkpt lat="53.0823200000" lon="-4.1252700000"><ele>565</ele><time>2016-10-15T11:36:18Z</time></trkpt>
<trkpt lat="53.0823210000" lon="-4.1252680000"><ele>566</ele><time>2016-10-15T11:36:19Z</time></trkpt>
<trkpt lat="53.0823210000" lon="-4.1252670000"><ele>566</ele><time>2016-10-15T11:36:20Z</time></trkpt>
<trkpt lat="53.0823230000" lon="-4.1252640000"><ele>566</ele><time>2016-10-15T11:36:21Z</time></trkpt>
<trkpt lat="53.0823240000" lon="-4.1252610000"><ele>566</ele><time>2016-10-15T11:36:22Z</time></trkpt>
<trkpt lat="53.0823260000" lon="-4.1252580000"><ele>566</ele><time>2016-10-15T11:36:23Z</time></trkpt>
<trkpt lat="53.0823280000" lon="-4.1252530000"><ele>566</ele><time>2016-10-15T11:36:24Z</time></trkpt>
<trkpt lat="53.0823310000" lon="-4.1252480000"><ele>566</ele><time>2016-10-15T11:36:25Z</time></trkpt>
<trkpt lat="53.0823340000" lon="-4.1252420000"><ele>566</ele><time>2016-10-15T11:36:26Z</time></trkpt>
<trkpt lat="53.0823370000" lon="-4.1252350000"><ele>566</ele><time>2016-10-15T11:36:27Z</time></trkpt>
<trkpt lat="53.0823410000" lon="-4.1252280000"><ele>566</ele><time>2016-10-15T11:36:28Z</time></trkpt>
<trkpt lat="53.0823450000" lon="-4.1252200000"><ele>566</ele><time>2016-10-15T11:36:29Z</time></trkpt>
<trkpt lat="53.0823490000" lon="-4.1252110000"><ele>566</ele><time>2016-10-15T11:36:30Z</time></trkpt>
<trkpt lat="53.0823530000" lon="-4.1252020000"><ele>567</ele><time>2016-10-15T11:36:31Z</time></trkpt>
<trkpt lat="53.0823580000" lon="-4.1251920000"><ele>567</ele><time>2016-10-15T11:36:32Z</time></trkpt>
<trkpt lat="53.0823630000" lon="-4.1251820000"><ele>567</ele><time>2016-10-15T11:36:33Z</time></trkpt>
<trkpt lat="53.0823680000" lon="-4.1251710000"><ele>567</ele><time>2016-10-15T11:36:34Z</time></trkpt>
<trkpt lat="53.0823730000" lon="-4.1251600000"><ele>567</ele><time>2016-10-15T11:36:35Z</time></trkpt>
<trkpt lat="53.0823780000" lon="-4.1251480000"><ele>567</ele><time>2016-10-15T11:36:36Z</time></trkpt>
<trkpt lat="53.0823840000" lon="-4.1251360000"><ele>567</ele><time>2016-10-15T11:36:37Z</time></trkpt>
<trkpt lat="53.0823890000" lon="-4.1251240000"><ele>567</ele><time>2016-10-15T11:36:38Z</time></trkpt>
<trkpt lat="53.0823950000" lon="-4.1251120000"><ele>567</ele><time>2016-10-15T11:36:39Z</time></trkpt>
<trkpt lat="53.0824000000" lon="-4.1250990000"><ele>567</ele><time>2016-10-15T11:36:40Z</time></trkpt>
<trkpt lat="53.0824060000" lon="-4.1250850000"><ele>567</ele><time>2016-10-15T11:36:41Z</time></trkpt>
<trkpt lat="53.0824110000" lon="-4.1250720000"><ele>567</ele><time>2016-10-15T11:36:42Z</time></trkpt>
<trkpt lat="53.0824980000" lon="-4.1248610000"><ele>567</ele><time>2016-10-15T11:36:43Z</time></trkpt>
<trkpt lat="53.0825040000" lon="-4.1248470000"><ele>567</ele><time>2016-10-15T11:36:44Z</time></trkpt>
<trkpt lat="53.0825090000" lon="-4.1248320000"><ele>567</ele><time>2016-10-15T11:36:45Z</time></trkpt>
<trkpt lat="53.0825130000" lon="-4.1248150000"><ele>567</ele><time>2016-10-15T11:36:46Z</time></trkpt>
<trkpt lat="53.0825130000" lon="-4.1248150000"><ele>567</ele><time>2016-10-15T11:36:47Z</time></trkpt>
<trkpt lat="53.0825140000" lon="-4.1248150000"><ele>567</ele><time>2016-10-15T11:36:48Z</time></trkpt>
<trkpt lat="53.0825140000" lon="-4.1248140000"><ele>567</ele><time>2016-10-15T11:36:49Z</time></trkpt>
<trkpt lat="53.0825140000" lon="-4.1248120000"><ele>568</ele><time>2016-10-15T11:36:50Z</time></trkpt>
<trkpt lat="53.0825150000" lon="-4.1248100000"><ele>568</ele><time>2016-10-15T11:36:51Z</time></trkpt>
<trkpt lat="53.0825150000" lon="-4.1248070000"><ele>568</ele><time>2016-10-15T11:36:52Z</time></trkpt>
<trkpt lat="53.0825160000" lon="-4.1248040000"><ele>568</ele><time>2016-10-15T11:36:53Z</time></trkpt>
<trkpt lat="53.0825170000" lon="-4.1247990000"><ele>568</ele><time>2016-10-15T11:36:54Z</time></trkpt>
<trkpt lat="53.0825190000" lon="-4.1247940000"><ele>568</ele><time>2016-10-15T11:36:55Z</time></trkpt>
<trkpt lat="53.0825210000" lon="-4.1247880000"><ele>568</ele><time>2016-10-15T11:36:56Z</time></trkpt>
<trkpt lat="53.0825230000" lon="-4.1247810000"><ele>569</ele><time>2016-10-15T11:36:57Z</time></trkpt>
<trkpt lat="53.0825250000" lon="-4.1247740000"><ele>569</ele><time>2016-10-15T11:36:58Z</time></trkpt>
<trkpt lat="53.0825280000" lon="-4.1247650000"><ele>569</ele><time>2016-10-15T11:36:59Z</time></trkpt>
<trkpt lat="53.0825310000" lon="-4.1247560000"><ele>569</ele><time>2016-10-15T11:37:00Z</time></trkpt>
<trkpt lat="53.0825340000" lon="-4.1247460000"><ele>569</ele><time>2016-10-15T11:37:01Z</time></trkpt>
<trkpt lat="53.0825380000" lon="-4.1247360000"><ele>570</ele><time>2016-10-15T11:37:02Z</time></trkpt>
<trkpt lat="53.0825420000" lon="-4.1247250000"><ele>570</ele><time>2016-10-15T11:37:03Z</time></trkpt>
<trkpt lat="53.0825460000" lon="-4.1247140000"><ele>570</ele><time>2016-10-15T11:37:04Z</time></trkpt>
<trkpt lat="53.0825500000" lon="-4.1247030000"><ele>570</ele><time>2016-10-15T11:37:05Z</time></trkpt>
<trkpt lat="53.0825550000" lon="-4.1246910000"><ele>570</ele><time>2016-10-15T11:37:06Z</time></trkpt>
<trkpt lat="53.0825590000" lon="-4.1246800000"><ele>571</ele><time>2016-10-15T11:37:07Z</time></trkpt>
<trkpt lat="53.0825640000" lon="-4.1246680000"><ele>571</ele><time>2016-10-15T11:37:08Z</time></trkpt>
<trkpt lat="53.0825690000" lon="-4.1246570000"><ele>571</ele><time>2016-10-15T11:37:09Z</time></trkpt>
<trkpt lat="53.0825740000" lon="-4.1246450000"><ele>571</ele><time>2016-10-15T11:37:10Z</time></trkpt>
<trkpt lat="53.0825800000" lon="-4.1246330000"><ele>572</ele><time>2016-10-15T11:37:11Z</time></trkpt>
<trkpt lat="53.0825900000" lon="-4.1246100000"><ele>572</ele><time>2016-10-15T11:37:14Z</time></trkpt>
<trkpt lat="53.0826730000" lon="-4.1244240000"><ele>572</ele></trkpt>
<trkpt lat="53.0826780000" lon="-4.1244140000"><ele>573</ele><time>2016-10-15T11:37:15Z</time></trkpt>
<trkpt lat="53.0826860000" lon="-4.1244050000"><ele>573</ele><time>2016-10-15T11:37:16Z</time></trkpt>
<trkpt lat="53.0826860000" lon="-4.1244050000"><ele>573</ele><time>2016-10-15T11:37:17Z</time></trkpt>
<trkpt lat="53.0826860000" lon="-4.1244050000"><ele>573</ele><time>2016-10-15T11:37:18Z</time></trkpt>
<trkpt lat="53.0826870000" lon="-4.1244040000"><ele>573</ele><time>2016-10-15T11:37:19Z</time></trkpt>
<trkpt lat="53.0826870000" lon="-4.1244030000"><ele>573</ele><time>2016-10-15T11:37:20Z</time></trkpt>
<trkpt lat="53.0826880000" lon="-4.1244010000"><ele>573</ele><time>2016-10-15T11:37:21Z</time></trkpt>
<trkpt lat="53.0826890000" lon="-4.1243990000"><ele>574</ele><time>2016-10-15T11:37:22Z</time></trkpt>
<trkpt lat="53.0826910000" lon="-4.1243960000"><ele>574</ele><time>2016-10-15T11:37:23Z</time></trkpt>
<trkpt lat="53.0826920000" lon="-4.1243920000"><ele>574</ele><time>2016-10-15T11:37:24Z</time></trkpt>
<trkpt lat="53.0826940000" lon="-4.1243880000"><ele>574</ele><time>2016-10-15T11:37:25Z</time></trkpt>
<trkpt lat="53.0826960000" lon="-4.1243820000"><ele>574</ele><time>2016-10-15T11:37:26Z</time></trkpt>
<trkpt lat="53.0826990000" lon="-4.1243760000"><ele>574</ele><time>2016-10-15T11:37:27Z</time></trkpt>
<trkpt lat="53.0827020000" lon="-4.1243700000"><ele>575</ele><time>2016-10-15T11:37:28Z</time></trkpt>
<trkpt lat="53.0827050000" lon="-4.1243620000"><ele>575</ele><time>2016-10-15T11:37:29Z</time></trkpt>
<trkpt lat="53.0827090000" lon="-4.1243540000"><ele>575</ele><time>2016-10-15T11:37:30Z</time></trkpt>
<trkpt lat="53.0827130000" lon="-4.1243450000"><ele>575</ele><time>2016-10-15T11:37:31Z</time></trkpt>
<trkpt lat="53.0827170000" lon="-4.1243360000"><ele>575</ele><time>2016-10-15T11:37:32Z</time></trkpt>
<trkpt lat="53.0827210000" lon="-4.1243270000"><ele>575</ele><time>2016-10-15T11:37:33Z</time></trkpt>
<trkpt lat="53.0827260000" lon="-4.1243170000"><ele>575</ele><time>2016-10-15T11:37:34Z</time></trkpt>
<trkpt lat="53.0827310000" lon="-4.1243070000"><ele>575</ele><time>2016-10-15T11:37:35Z</time></trkpt>
<trkpt lat="53.0827360000" lon="-4.1242980000"><ele>576</ele><time>2016-10-15T11:37:36Z</time></trkpt>
<trkpt lat="53.0827420000" lon="-4.1242870000"><ele>576</ele><time>2016-10-15T11:37:37Z</time></trkpt>
<trkpt lat="53.0827470000" lon="-4.1242770000"><ele>576</ele><time>2016-10-15T11:37:38Z</time></trkpt>
<trkpt lat="53.0827530000" lon="-4.1242670000"><ele>576</ele><time>2016-10-15T11:37:39Z</time></trkpt>
<trkpt lat="53.0827580000" lon="-4.1242560000"><ele>576</ele><time>2016-10-15T11:37:40Z</time></trkpt>
<trkpt lat="53.0827640000" lon="-4.1242460000"><ele>576</ele><time>2016-10-15T11:37:41Z</time></trkpt>
<trkpt lat="53.0827700000" lon="-4.1242360000"><ele>576</ele><time>2016-10-15T11:37:42Z</time></trkpt>
<trkpt lat="53.0827750000" lon="-4.1242250000"><ele>576</ele><time>2016-10-15T11:37:43Z</time></trkpt>
<trkpt lat="53.0827810000" lon="-4.1242140000"><ele>576</ele><time>2016-10-15T11:37:44Z</time></trkpt>
<trkpt lat="53.0827860000" lon="-4.1242030000"><ele>576</ele><time>2016-10-15T11:37:45Z</time></trkpt>
<trkpt lat="53.0827920000" lon="-4.1241920000"><ele>576</ele><time>2016-10-15T11:37:46Z</time></trkpt>
<trkpt lat="53.0827980000" lon="-4.1241810000"><ele>576</ele><time>2016-10-15T11:37:47Z</time></trkpt>
<trkpt lat="53.0828030000" lon="-4.1241690000"><ele>577</ele><time>2016-10-15T11:37:48Z</time></trkpt>
<trkpt lat="53.0828090000" lon="-4.1241580000"><ele>577</ele><time>2016-10-15T11:37:49Z</time></trkpt>
<trkpt lat="53.0828150000" lon="-4.1241470000"><ele>577</ele><time>2016-10-15T11:37:50Z</time></trkpt>
<trkpt lat="53.0828210000" lon="-4.1241360000"><ele>577</ele><time>2016-10-15T11:37:51Z</time></trkpt>
<trkpt lat="53.0828270000" lon="-4.1241240000"><ele>577</ele><time>2016-10-15T11:37:52Z</time></trkpt>
<trkpt lat="53.0828330000" lon="-4.1241130000"><ele>577</ele><time>2016-10-15T11:37:53Z</time></trkpt>
<trkpt lat="53.0828390000" lon="-4.1241010000"><ele>578</ele><time>2016-10-15T11:37:54Z</time></trkpt>
<trkpt lat="53.0828450000" lon="-4.1240880000"><ele>578</ele><time>2016-10-15T11:37:55Z</time></trkpt>
<trkpt lat="53.0829430000" lon="-4.1238910000"><ele>578</ele><time>2016-10-15T11:37:56Z</time></trkpt>
<trkpt lat="53.0829490000" lon="-4.1238800000"><ele>578</ele><time>2016-10-15T11:37:57Z</time></trkpt>
<trkpt lat="53.0829560000" lon="-4.1238690000"><ele>579</ele><time>2016-10-15T11:37:58Z</time></trkpt>
<trkpt lat="53.0829630000" lon="-4.1238540000"><ele>579</ele><time>2016-10-15T11:37:59Z</time></trkpt>
<trkpt lat="53.0829630000" lon="-4.1238540000"><ele>579</ele><time>2016-10-15T11:38:00Z</time></trkpt>
<trkpt lat="53.0829630000" lon="-4.1238540000"><ele>579</ele><time>2016-10-15T11:38:01Z</time></trkpt>
<trkpt lat="53.0829630000" lon="-4.1238530000"><ele>579</ele><time>2016-10-15T11:38:02Z</time></trkpt>
<trkpt lat="53.0829640000" lon="-4.1238520000"><ele>580</ele><time>2016-10-15T11:38:03Z</time></trkpt>
<trkpt lat="53.0829650000" lon="-4.1238500000"><ele>580</ele><time>2016-10-15T11:38:04Z</time></trkpt>
<trkpt lat="53.0829660000" lon="-4.1238480000"><ele>580</ele><time>2016-10-15T11:38:05Z</time></trkpt>
<trkpt lat="53.0829670000" lon="-4.1238450000"><ele>580</ele><time>2016-10-15T11:38:06Z</time></trkpt>
<trkpt lat="53.0829690000" lon="-4.1238420000"><ele>581</ele><time>2016-10-15T11:38:07Z</time></trkpt>
<trkpt lat="53.0829710000" lon="-4.1238380000"><ele>581</ele><time>2016-10-15T11:38:08Z</time></trkpt>
<trkpt lat="53.0829730000" lon="-4.1238330000"><ele>581</ele><time>2016-10-15T11:38:09Z</time></trkpt>
<trkpt lat="53.0829760000" lon="-4.1238280000"><ele>582</ele><time>2016-10-15T11:38:10Z</time></trkpt>
<trkpt lat="53.0829790000" lon="-4.1238220000"><ele>582</ele><time>2016-10-15T11:38:11Z</time></trkpt>
<trkpt lat="53.0829850000" lon="-4.1238090000"><ele>582</ele><time>2016-10-15T11:38:14Z</time></trkpt>
<trkpt lat="53.0829880000" lon="-4.1238020000"><ele>583</ele></trkpt>
<trkpt lat="53.0829920000" lon="-4.1237940000"><ele>583</ele><time>2016-10-15T11:38:15Z</time></trkpt>
<trkpt lat="53.0829950000" lon="-4.1237850000"><ele>583</ele><time>2016-10-15T11:38:16Z</time></trkpt>
<trkpt lat="53.0829990000" lon="-4.1237760000"><ele>583</ele><time>2016-10-15T11:38:17Z</time></trkpt>
<trkpt lat="53.0830030000" lon="-4.1237670000"><ele>584</ele><time>2016-10-15T11:38:18Z</time></trkpt>
<trkpt lat="53.0830060000" lon="-4.1237570000"><ele>584</ele><time>2016-10-15T11:38:19Z</time></trkpt>
<trkpt lat="53.0830100000" lon="-4.1237480000"><ele>584</ele><time>2016-10-15T11:38:20Z</time></trkpt>
<trkpt lat="53.0830140000" lon="-4.1237380000"><ele>584</ele><time>2016-10-15T11:38:21Z</time></trkpt>
<trkpt lat="53.0830180000" lon="-4.1237270000"><ele>585</ele><time>2016-10-15T11:38:22Z</time></trkpt>
<trkpt lat="53.0830230000" lon="-4.1237170000"><ele>585</ele><time>2016-10-15T11:38:23Z</time></trkpt>
<trkpt lat="53.0830270000" lon="-4.1237060000"><ele>585</ele><time>2016-10-15T11:38:24Z</time></trkpt>
<trkpt lat="53.0830310000" lon="-4.1236950000"><ele>585</ele><time>2016-10-15T11:38:25Z</time></trkpt>
<trkpt lat="53.0830350000" lon="-4.1236830000"><ele>585</ele><time>2016-10-15T11:38:26Z</time></trkpt>
<trkpt lat="53.0830390000" lon="-4.1236720000"><ele>586</ele><time>2016-10-15T11:38:27Z</time></trkpt>
<trkpt lat="53.0830430000" lon="-4.1236600000"><ele>586</ele><time>2016-10-15T11:38:28Z</time></trkpt>
<trkpt lat="53.0830470000" lon="-4.1236480000"><ele>586</ele><time>2016-10-15T11:38:29Z</time></trkpt>
<trkpt lat="53.0830510000" lon="-4.1236360000"><ele>586</ele><time>2016-10-15T11:38:30Z</time></trkpt>
<trkpt lat="53.0830550000" lon="-4.1236240000"><ele>586</ele><time>2016-10-15T11:38:31Z</time></trkpt>
<trkpt lat="53.0830590000" lon="-4.1236110000"><ele>586</ele><time>2016-10-15T11:38:32Z</time></trkpt>
<trkpt lat="53.0830630000" lon="-4.1235990000"><ele>586</ele><time>2016-10-15T11:38:33Z</time></trkpt>
<trkpt lat="53.0830670000" lon="-4.1235860000"><ele>587</ele><time>2016-10-15T11:38:34Z</time></trkpt>
<trkpt lat="53.0830710000" lon="-4.1235730000"><ele>587</ele><time>2016-10-15T11:38:35Z</time></trkpt>
<trkpt lat="53.0830750000" lon="-4.1235600000"><ele>587</ele><time>2016-10-15T11:38:36Z</time></trkpt>
<trkpt lat="53.0830790000" lon="-4.1235470000"><ele>587</ele><time>2016-10-15T11:38:37Z</time></trkpt>
<trkpt lat="53.0830840000" lon="-4.1235340000"><ele>587</ele><time>2016-10-15T11:38:38Z</time></trkpt>
<trkpt lat="53.0830880000" lon="-4.1235210000"><ele>587</ele><time>2016-10-15T11:38:39Z</time></trkpt>
<trkpt lat="53.0830920000" lon="-4.1235080000"><ele>587</ele><time>2016-10-15T11:38:40Z</time></trkpt>
<trkpt lat="53.0830960000" lon="-4.1234950000"><ele>588</ele><time>2016-10-15T11:38:41Z</time></trkpt>
<trkpt lat="53.0831000000" lon="-4.1234810000"><ele>588</ele><time>2016-10-15T11:38:42Z</time></trkpt>
<trkpt lat="53.0831050000" lon="-4.1234680000"><ele>588</ele><time>2016-10-15T11:38:43Z</time></trkpt>
<trkpt lat="53.0831090000" lon="-4.1234540000"><ele>588</ele><time>2016-10-15T11:38:44Z</time></trkpt>
<trkpt lat="53.0831130000" lon="-4.1234410000"><ele>588</ele><time>2016-10-15T11:38:45Z</time></trkpt>
<trkpt lat="53.0831170000" lon="-4.1234270000"><ele>589</ele><time>2016-10-15T11:38:46Z</time></trkpt>
<trkpt lat="53.0831210000" lon="-4.1234140000"><ele>589</ele><time>2016-10-15T11:38:47Z</time></trkpt>
<trkpt lat="53.0831260000" lon="-4.1234000000"><ele>589</ele><time>2016-10-15T11:38:48Z</time></trkpt>
<trkpt lat="53.0831290000" lon="-4.1233860000"><ele>589</ele><time>2016-10-15T11:38:49Z</time></trkpt>
<trkpt lat="53.0831330000" lon="-4.1233730000"><ele>590</ele><time>2016-10-15T11:38:50Z</time></trkpt>
<trkpt lat="53.0831370000" lon="-4.1233600000"><ele>590</ele><time>2016-10-15T11:38:51Z</time></trkpt>
<trkpt lat="53.0831410000" lon="-4.1233460000"><ele>590</ele><time>2016-10-15T11:38:52Z</time></trkpt>
<trkpt lat="53.0831450000" lon="-4.1233330000"><ele>591</ele><time>2016-10-15T11:38:53Z</time></trkpt>
<trkpt lat="53.0831490000" lon="-4.1233200000"><ele>591</ele><time>2016-10-15T11:38:54Z</time></trkpt>
<trkpt lat="53.0831530000" lon="-4.1233070000"><ele>591</ele><time>2016-10-15T11:38:55Z</time></trkpt>
<trkpt lat="53.0831570000" lon="-4.1232940000"><ele>591</ele><time>2016-10-15T11:38:56Z</time></trkpt>
<trkpt lat="53.0831610000" lon="-4.1232810000"><ele>592</ele><time>2016-10-15T11:38:57Z</time></trkpt>
<trkpt lat="53.0831650000" lon="-4.1232680000"><ele>592</ele><time>2016-10-15T11:38:58Z</time></trkpt>
<trkpt lat="53.0831690000" lon="-4.1232550000"><ele>592</ele><time>2016-10-15T11:38:59Z</time></trkpt>
<trkpt lat="53.0831730000" lon="-4.1232430000"><ele>592</ele><time>2016-10-15T11:39:00Z</time></trkpt>
<trkpt lat="53.0831770000" lon="-4.1232300000"><ele>593</ele><time>2016-10-15T11:39:01Z</time></trkpt>
<trkpt lat="53.0831820000" lon="-4.1232190000"><ele>593</ele><time>2016-10-15T11:39:02Z</time></trkpt>
<trkpt lat="53.0831860000" lon="-4.1232070000"><ele>593</ele><time>2016-10-15T11:39:03Z</time></trkpt>
<trkpt lat="53.0831910000" lon="-4.1231950000"><ele>594</ele><time>2016-10-15T11:39:04Z</time></trkpt>
<trkpt lat="53.0831960000" lon="-4.1231840000"><ele>594</ele><time>2016-10-15T11:39:05Z</time></trkpt>
<trkpt lat="53.0832010000" lon="-4.1231730000"><ele>594</ele><time>2016-10-15T11:39:06Z</time></trkpt>
<trkpt lat="53.0832060000" lon="-4.1231610000"><ele>595</ele><time>2016-10-15T11:39:07Z</time></trkpt>
<trkpt lat="53.0832110000" lon="-4.1231500000"><ele>595</ele><time>2016-10-15T11:39:08Z</time></trkpt>
<trkpt lat="53.0832170000" lon="-4.1231400000"><ele>595</ele><time>2016-10-15T11:39:09Z</time></trkpt>
<trkpt lat="53.0832220000" lon="-4.1231290000"><ele>595</ele><time>2016-10-15T11:39:10Z</time></trkpt>
<trkpt lat="53.0832270000" lon="-4.1231180000"><ele>596</ele><time>2016-10-15T11:39:11Z</time></trkpt>
<trkpt lat="53.0832390000" lon="-4.1230980000"><ele>596</ele><time>2016-10-15T11:39:14Z</time></trkpt>
<trkpt lat="53.0833210000" lon="-4.1229450000"><ele>596</ele></trkpt>
<trkpt lat="53.0833270000" lon="-4.1229320000"><ele>597</ele><time>2016-10-15T11:39:15Z</time></trkpt>
<trkpt lat="53.0833320000" lon="-4.1229200000"><ele>597</ele><time>2016-10-15T11:39:16Z</time></trkpt>
<trkpt lat="53.0833320000" lon="-4.1229200000"><ele>597</ele><time>2016-10-15T11:39:17Z</time></trkpt>
<trkpt lat="53.0833320000" lon="-4.1229190000"><ele>598</ele><time>2016-10-15T11:39:18Z</time></trkpt>
<trkpt lat="53.0833320000" lon="-4.1229190000"><ele>598</ele><time>2016-10-15T11:39:19Z</time></trkpt>
<trkpt lat="53.0833330000" lon="-4.1229180000"><ele>598</ele><time>2016-10-15T11:39:20Z</time></trkpt>
<trkpt lat="53.0833330000" lon="-4.1229170000"><ele>598</ele><time>2016-10-15T11:39:21Z</time></trkpt>
<trkpt lat="53.0833340000" lon="-4.1229160000"><ele>599</ele><time>2016-10-15T11:39:22Z</time></trkpt>
<trkpt lat="53.0833360000" lon="-4.1229130000"><ele>599</ele><time>2016-10-15T11:39:23Z</time></trkpt>
<trkpt lat="53.0833370000" lon="-4.1229110000"><ele>599</ele><time>2016-10-15T11:39:24Z</time></trkpt>
<trkpt lat="53.0833390000" lon="-4.1229080000"><ele>599</ele><time>2016-10-15T11:39:25Z</time></trkpt>
<trkpt lat="53.0833410000" lon="-4.1229040000"><ele>599</ele><time>2016-10-15T11:39:26Z</time></trkpt>
<trkpt lat="53.0833440000" lon="-4.1229000000"><ele>599</ele><time>2016-10-15T11:39:27Z</time></trkpt>
<trkpt lat="53.0833460000" lon="-4.1228950000"><ele>600</ele><time>2016-10-15T11:39:28Z</time></trkpt>
<trkpt lat="53.0833490000" lon="-4.1228900000"><ele>600</ele><time>2016-10-15T11:39:29Z</time></trkpt>
<trkpt lat="53.0833520000" lon="-4.1228840000"><ele>600</ele><time>2016-10-15T11:39:30Z</time></trkpt>
<trkpt lat="53.0833540000" lon="-4.1228770000"><ele>600</ele><time>2016-10-15T11:39:31Z</time></trkpt>
<trkpt lat="53.0833560000" lon="-4.1228700000"><ele>600</ele><time>2016-10-15T11:39:32Z</time></trkpt>
<trkpt lat="53.0833590000" lon="-4.1228610000"><ele>600</ele><time>2016-10-15T11:39:33Z</time></trkpt>
<trkpt lat="53.0833600000" lon="-4.1228530000"><ele>600</ele><time>2016-10-15T11:39:34Z</time></trkpt>
<trkpt lat="53.0833620000" lon="-4.1228430000"><ele>600</ele><time>2016-10-15T11:39:35Z</time></trkpt>
<trkpt lat="53.0833640000" lon="-4.1228330000"><ele>600</ele><time>2016-10-15T11:39:36Z</time></trkpt>
<trkpt lat="53.0833650000" lon="-4.1228230000"><ele>601</ele><time>2016-10-15T11:39:37Z</time></trkpt>
<trkpt lat="53.0833670000" lon="-4.1228130000"><ele>601</ele><time>2016-10-15T11:39:38Z</time></trkpt>
<trkpt lat="53.0833680000" lon="-4.1228020000"><ele>601</ele><time>2016-10-15T11:39:39Z</time></trkpt>
<trkpt lat="53.0833700000" lon="-4.1227910000"><ele>601</ele><time>2016-10-15T11:39:40Z</time></trkpt>
<trkpt lat="53.0833710000" lon="-4.1227790000"><ele>601</ele><time>2016-10-15T11:39:41Z</time></trkpt>
<trkpt lat="53.0833720000" lon="-4.1227670000"><ele>602</ele><time>2016-10-15T11:39:42Z</time></trkpt>
<trkpt lat="53.0833730000" lon="-4.1227550000"><ele>602</ele><time>2016-10-15T11:39:43Z</time></trkpt>
<trkpt lat="53.0833730000" lon="-4.1227420000"><ele>602</ele><time>2016-10-15T11:39:44Z</time></trkpt>
<trkpt lat="53.0833740000" lon="-4.1227290000"><ele>602</ele><time>2016-10-15T11:39:45Z</time></trkpt>
<trkpt lat="53.0833750000" lon="-4.1227160000"><ele>603</ele><time>2016-10-15T11:39:46Z</time></trkpt>
<trkpt lat="53.0833750000" lon="-4.1227020000"><ele>603</ele><time>2016-10-15T11:39:47Z</time></trkpt>
<trkpt lat="53.0833750000" lon="-4.1226890000"><ele>603</ele><time>2016-10-15T11:39:48Z</time></trkpt>
<trkpt lat="53.0833760000" lon="-4.1226750000"><ele>604</ele><time>2016-10-15T11:39:49Z</time></trkpt>
<trkpt lat="53.0833760000" lon="-4.1226630000"><ele>604</ele><time>2016-10-15T11:39:50Z</time></trkpt>
<trkpt lat="53.0833760000" lon="-4.1226500000"><ele>604</ele><time>2016-10-15T11:39:51Z</time></trkpt>
<trkpt lat="53.0833760000" lon="-4.1226360000"><ele>605</ele><time>2016-10-15T11:39:52Z</time></trkpt>
<trkpt lat="53.0833760000" lon="-4.1226230000"><ele>605</ele><time>2016-10-15T11:39:53Z</time></trkpt>
<trkpt lat="53.0833760000" lon="-4.1226100000"><ele>605</ele><time>2016-10-15T11:39:54Z</time></trkpt>
<trkpt lat="53.0833770000" lon="-4.1225970000"><ele>605</ele><time>2016-10-15T11:39:55Z</time></trkpt>
<trkpt lat="53.0833780000" lon="-4.1225830000"><ele>606</ele><time>2016-10-15T11:39:56Z</time></trkpt>
<trkpt lat="53.0833790000" lon="-4.1225710000"><ele>606</ele><time>2016-10-15T11:39:57Z</time></trkpt>
<trkpt lat="53.0833800000" lon="-4.1225570000"><ele>606</ele><time>2016-10-15T11:39:58Z</time></trkpt>
<trkpt lat="53.0833810000" lon="-4.1225440000"><ele>606</ele><time>2016-10-15T11:39:59Z</time></trkpt>
<trkpt lat="53.0833820000" lon="-4.1225300000"><ele>606</ele><time>2016-10-15T11:40:00Z</time></trkpt>
<trkpt lat="53.0833840000" lon="-4.1225160000"><ele>606</ele><time>2016-10-15T11:40:01Z</time></trkpt>
<trkpt lat="53.0833860000" lon="-4.1225020000"><ele>607</ele><time>2016-10-15T11:40:02Z</time></trkpt>
<trkpt lat="53.0833880000" lon="-4.1224880000"><ele>607</ele><time>2016-10-15T11:40:03Z</time></trkpt>
<trkpt lat="53.0833910000" lon="-4.1224730000"><ele>607</ele><time>2016-10-15T11:40:04Z</time></trkpt>
<trkpt lat="53.0833930000" lon="-4.1224590000"><ele>607</ele><time>2016-10-15T11:40:05Z</time></trkpt>
<trkpt lat="53.0834340000" lon="-4.1222240000"><ele>607</ele><time>2016-10-15T11:40:06Z</time></trkpt>
<trkpt lat="53.0834380000" lon="-4.1222060000"><ele>607</ele><time>2016-10-15T11:40:07Z</time></trkpt>
<trkpt lat="53.0834420000" lon="-4.1221880000"><ele>607</ele><time>2016-10-15T11:40:08Z</time></trkpt>
<trkpt lat="53.0834460000" lon="-4.1221690000"><ele>607</ele><time>2016-10-15T11:40:09Z</time></trkpt>
<trkpt lat="53.0834510000" lon="-4.1221530000"><ele>607</ele><time>2016-10-15T11:40:10Z</time></trkpt>
<trkpt lat="53.0834560000" lon="-4.1221370000"><ele>607</ele><time>2016-10-15T11:40:11Z</time></trkpt>
<trkpt lat="53.0834560000" lon="-4.1221370000"><ele>607</ele><time>2016-10-15T11:40:14Z</time></trkpt>
<trkpt lat="53.0834570000" lon="-4.1221360000"><ele>607</ele></trkpt>
<trkpt lat="53.0834570000" lon="-4.1221350000"><ele>608</ele><time>2016-10-15T11:40:15Z</time></trkpt>
<trkpt lat="53.0834570000" lon="-4.1221330000"><ele>608</ele><time>2016-10-15T11:40:16Z</time></trkpt>
<trkpt lat="53.0834580000" lon="-4.1221310000"><ele>608</ele><time>2016-10-15T11:40:17Z</time></trkpt>
<trkpt lat="53.0834590000" lon="-4.1221280000"><ele>608</ele><time>2016-10-15T11:40:18Z</time></trkpt>
<trkpt lat="53.0834600000" lon="-4.1221240000"><ele>608</ele><time>2016-10-15T11:40:19Z</time></trkpt>
<trkpt lat="53.0834610000" lon="-4.1221200000"><ele>608</ele><time>2016-10-15T11:40:20Z</time></trkpt>
<trkpt lat="53.0834630000" lon="-4.1221140000"><ele>608</ele><time>2016-10-15T11:40:21Z</time></trkpt>
<trkpt lat="53.0834650000" lon="-4.1221080000"><ele>608</ele><time>2016-10-15T11:40:22Z</time></trkpt>
<trkpt lat="53.0834660000" lon="-4.1221010000"><ele>608</ele><time>2016-10-15T11:40:23Z</time></trkpt>
<trkpt lat="53.0834680000" lon="-4.1220930000"><ele>608</ele><time>2016-10-15T11:40:24Z</time></trkpt>
<trkpt lat="53.0834700000" lon="-4.1220840000"><ele>608</ele><time>2016-10-15T11:40:25Z</time></trkpt>
<trkpt lat="53.0834720000" lon="-4.1220750000"><ele>608</ele><time>2016-10-15T11:40:26Z</time></trkpt>
<trkpt lat="53.0834740000" lon="-4.1220650000"><ele>609</ele><time>2016-10-15T11:40:27Z</time></trkpt>
<trkpt lat="53.0834760000" lon="-4.1220550000"><ele>609</ele><time>2016-10-15T11:40:28Z</time></trkpt>
<trkpt lat="53.0834790000" lon="-4.1220440000"><ele>609</ele><time>2016-10-15T11:40:29Z</time></trkpt>
<trkpt lat="53.0834810000" lon="-4.1220330000"><ele>609</ele><time>2016-10-15T11:40:30Z</time></trkpt>
<trkpt lat="53.0834840000" lon="-4.1220210000"><ele>609</ele><time>2016-10-15T11:40:31Z</time></trkpt>
<trkpt lat="53.0834860000" lon="-4.1220090000"><ele>609</ele><time>2016-10-15T11:40:32Z</time></trkpt>
<trkpt lat="53.0834880000" lon="-4.1219960000"><ele>609</ele><time>2016-10-15T11:40:33Z</time></trkpt>
<trkpt lat="53.0834910000" lon="-4.1219830000"><ele>610</ele><time>2016-10-15T11:40:34Z</time></trkpt>
<trkpt lat="53.0834930000" lon="-4.1219700000"><ele>610</ele><time>2016-10-15T11:40:35Z</time></trkpt>
<trkpt lat="53.0834950000" lon="-4.1219560000"><ele>610</ele><time>2016-10-15T11:40:36Z</time></trkpt>
<trkpt lat="53.0834980000" lon="-4.1219420000"><ele>611</ele><time>2016-10-15T11:40:37Z</time></trkpt>
<trkpt lat="53.0835000000" lon="-4.1219280000"><ele>611</ele><time>2016-10-15T11:40:38Z</time></trkpt>
<trkpt lat="53.0835020000" lon="-4.1219140000"><ele>611</ele><time>2016-10-15T11:40:39Z</time></trkpt>
<trkpt lat="53.0835050000" lon="-4.1219000000"><ele>612</ele><time>2016-10-15T11:40:40Z</time></trkpt>
<trkpt lat="53.0835080000" lon="-4.1218860000"><ele>612</ele><time>2016-10-15T11:40:41Z</time></trkpt>
<trkpt lat="53.0835100000" lon="-4.1218710000"><ele>612</ele><time>2016-10-15T11:40:42Z</time></trkpt>
<trkpt lat="53.0835130000" lon="-4.1218560000"><ele>612</ele><time>2016-10-15T11:40:43Z</time></trkpt>
<trkpt lat="53.0835160000" lon="-4.1218410000"><ele>613</ele><time>2016-10-15T11:40:44Z</time></trkpt>
<trkpt lat="53.0835630000" lon="-4.1215990000"><ele>613</ele><time>2016-10-15T11:40:45Z</time></trkpt>
<trkpt lat="53.0835660000" lon="-4.1215810000"><ele>613</ele><time>2016-10-15T11:40:46Z</time></trkpt>
<trkpt lat="53.0835690000" lon="-4.1215620000"><ele>613</ele><time>2016-10-15T11:40:47Z</time></trkpt>
<trkpt lat="53.0835690000" lon="-4.1215620000"><ele>613</ele><time>2016-10-15T11:40:48Z</time></trkpt>
<trkpt lat="53.0835690000" lon="-4.1215620000"><ele>614</ele><time>2016-10-15T11:40:49Z</time></trkpt>
<trkpt lat="53.0835690000" lon="-4.1215610000"><ele>614</ele><time>2016-10-15T11:40:50Z</time></trkpt>
<trkpt lat="53.0835690000" lon="-4.1215590000"><ele>614</ele><time>2016-10-15T11:40:51Z</time></trkpt>
<trkpt lat="53.0835700000" lon="-4.1215570000"><ele>614</ele><time>2016-10-15T11:40:52Z</time></trkpt>
<trkpt lat="53.0835700000" lon="-4.1215540000"><ele>614</ele><time>2016-10-15T11:40:53Z</time></trkpt>
<trkpt lat="53.0835710000" lon="-4.1215500000"><ele>614</ele><time>2016-10-15T11:40:54Z</time></trkpt>
<trkpt lat="53.0835710000" lon="-4.1215460000"><ele>615</ele><time>2016-10-15T11:40:55Z</time></trkpt>
<trkpt lat="53.0835720000" lon="-4.1215400000"><ele>615</ele><time>2016-10-15T11:40:56Z</time></trkpt>
<trkpt lat="53.0835720000" lon="-4.1215330000"><ele>615</ele><time>2016-10-15T11:40:57Z</time></trkpt>
<trkpt lat="53.0835730000" lon="-4.1215260000"><ele>615</ele><time>2016-10-15T11:40:58Z</time></trkpt>
<trkpt lat="53.0835740000" lon="-4.1215170000"><ele>616</ele><time>2016-10-15T11:40:59Z</time></trkpt>
<trkpt lat="53.0835740000" lon="-4.1215080000"><ele>616</ele><time>2016-10-15T11:41:00Z</time></trkpt>
<trkpt lat="53.0835750000" lon="-4.1214970000"><ele>616</ele><time>2016-10-15T11:41:01Z</time></trkpt>
<trkpt lat="53.0835760000" lon="-4.1214870000"><ele>616</ele><time>2016-10-15T11:41:02Z</time></trkpt>
<trkpt lat="53.0835770000" lon="-4.1214750000"><ele>616</ele><time>2016-10-15T11:41:03Z</time></trkpt>
<trkpt lat="53.0835790000" lon="-4.1214630000"><ele>617</ele><time>2016-10-15T11:41:04Z</time></trkpt>
<trkpt lat="53.0835800000" lon="-4.1214510000"><ele>617</ele><time>2016-10-15T11:41:05Z</time></trkpt>
<trkpt lat="53.0835810000" lon="-4.1214380000"><ele>617</ele><time>2016-10-15T11:41:06Z</time></trkpt>
<trkpt lat="53.0835830000" lon="-4.1214240000"><ele>617</ele><time>2016-10-15T11:41:07Z</time></trkpt>
<trkpt lat="53.0835840000" lon="-4.1214110000"><ele>617</ele><time>2016-10-15T11:41:08Z</time></trkpt>
<trkpt lat="53.0835850000" lon="-4.1213970000"><ele>617</ele><time>2016-10-15T11:41:09Z</time></trkpt>
<trkpt lat="53.0835860000" lon="-4.1213830000"><ele>617</ele><time>2016-10-15T11:41:10Z</time></trkpt>
<trkpt lat="53.0835880000" lon="-4.1213690000"><ele>617</ele><time>2016-10-15T11:41:11Z</time></trkpt>
<trkpt lat="53.0835900000" lon="-4.1213390000"><ele>617</ele><time>2016-10-15T11:41:14Z</time></trkpt>
<trkpt lat="53.0836100000" lon="-4.1210770000"><ele>618</ele></trkpt>
<trkpt lat="53.0836100000" lon="-4.1210570000"><ele>618</ele><time>2016-10-15T11:41:15Z</time></trkpt>
<trkpt lat="53.0836120000" lon="-4.1210400000"><ele>618</ele><time>2016-10-15T11:41:16Z</time></trkpt>
<trkpt lat="53.0836120000" lon="-4.1210400000"><ele>618</ele><time>2016-10-15T11:41:17Z</time></trkpt>
<trkpt lat="53.0836120000" lon="-4.1210400000"><ele>618</ele><time>2016-10-15T11:41:18Z</time></trkpt>
<trkpt lat="53.0836130000" lon="-4.1209770000"><ele>619</ele><time>2016-10-15T11:41:19Z</time></trkpt>
<trkpt lat="53.0836140000" lon="-4.1209560000"><ele>619</ele><time>2016-10-15T11:41:20Z</time></trkpt>
<trkpt lat="53.0836150000" lon="-4.1209370000"><ele>619</ele><time>2016-10-15T11:41:21Z</time></trkpt>
<trkpt lat="53.0836170000" lon="-4.1209210000"><ele>619</ele><time>2016-10-15T11:41:22Z</time></trkpt>
<trkpt lat="53.0836170000" lon="-4.1209210000"><ele>620</ele><time>2016-10-15T11:41:23Z</time></trkpt>
<trkpt lat="53.0836170000" lon="-4.1209200000"><ele>620</ele><time>2016-10-15T11:41:24Z</time></trkpt>
<trkpt lat="53.0836170000" lon="-4.1209190000"><ele>620</ele><time>2016-10-15T11:41:25Z</time></trkpt>
<trkpt lat="53.0836170000" lon="-4.1209180000"><ele>620</ele><time>2016-10-15T11:41:26Z</time></trkpt>
<trkpt lat="53.0836170000" lon="-4.1209160000"><ele>621</ele><time>2016-10-15T11:41:27Z</time></trkpt>
<trkpt lat="53.0836180000" lon="-4.1209140000"><ele>621</ele><time>2016-10-15T11:41:28Z</time></trkpt>
<trkpt lat="53.0836180000" lon="-4.1209110000"><ele>621</ele><time>2016-10-15T11:41:29Z</time></trkpt>
<trkpt lat="53.0836190000" lon="-4.1209070000"><ele>621</ele><time>2016-10-15T11:41:30Z</time></trkpt>
<trkpt lat="53.0836200000" lon="-4.1209020000"><ele>622</ele><time>2016-10-15T11:41:31Z</time></trkpt>
<trkpt lat="53.0836210000" lon="-4.1208960000"><ele>622</ele><time>2016-10-15T11:41:32Z</time></trkpt>
<trkpt lat="53.0836220000" lon="-4.1208900000"><ele>622</ele><time>2016-10-15T11:41:33Z</time></trkpt>
<trkpt lat="53.0836230000" lon="-4.1208830000"><ele>622</ele><time>2016-10-15T11:41:34Z</time></trkpt>
<trkpt lat="53.0836240000" lon="-4.1208750000"><ele>622</ele><time>2016-10-15T11:41:35Z</time></trkpt>
<trkpt lat="53.0836250000" lon="-4.1208660000"><ele>622</ele><time>2016-10-15T11:41:36Z</time></trkpt>
<trkpt lat="53.0836270000" lon="-4.1208570000"><ele>623</ele><time>2016-10-15T11:41:37Z</time></trkpt>
<trkpt lat="53.0836280000" lon="-4.1208470000"><ele>623</ele><time>2016-10-15T11:41:38Z</time></trkpt>
<trkpt lat="53.0836290000" lon="-4.1208360000"><ele>623</ele><time>2016-10-15T11:41:39Z</time></trkpt>
<trkpt lat="53.0836300000" lon="-4.1208250000"><ele>623</ele><time>2016-10-15T11:41:40Z</time></trkpt>
<trkpt lat="53.0836320000" lon="-4.1208130000"><ele>623</ele><time>2016-10-15T11:41:41Z</time></trkpt>
<trkpt lat="53.0836330000" lon="-4.1208010000"><ele>623</ele><time>2016-10-15T11:41:42Z</time></trkpt>
<trkpt lat="53.0836340000" lon="-4.1207880000"><ele>624</ele><time>2016-10-15T11:41:43Z</time></trkpt>
<trkpt lat="53.0836360000" lon="-4.1207750000"><ele>624</ele><time>2016-10-15T11:41:44Z</time></trkpt>
<trkpt lat="53.0836370000" lon="-4.1207620000"><ele>624</ele><time>2016-10-15T11:41:45Z</time></trkpt>
<trkpt lat="53.0836380000" lon="-4.1207490000"><ele>624</ele><time>2016-10-15T11:41:46Z</time></trkpt>
<trkpt lat="53.0836400000" lon="-4.1207360000"><ele>625</ele><time>2016-10-15T11:41:47Z</time></trkpt>
<trkpt lat="53.0836420000" lon="-4.1207220000"><ele>625</ele><time>2016-10-15T11:41:48Z</time></trkpt>
<trkpt lat="53.0836430000" lon="-4.1207090000"><ele>625</ele><time>2016-10-15T11:41:49Z</time></trkpt>
<trkpt lat="53.0836450000" lon="-4.1206950000"><ele>625</ele><time>2016-10-15T11:41:50Z</time></trkpt>
<trkpt lat="53.0836470000" lon="-4.1206810000"><ele>625</ele><time>2016-10-15T11:41:51Z</time></trkpt>
<trkpt lat="53.0836480000" lon="-4.1206670000"><ele>626</ele><time>2016-10-15T11:41:52Z</time></trkpt>
<trkpt lat="53.0836500000" lon="-4.1206530000"><ele>626</ele><time>2016-10-15T11:41:53Z</time></trkpt>
<trkpt lat="53.0836520000" lon="-4.1206390000"><ele>626</ele><time>2016-10-15T11:41:54Z</time></trkpt>
<trkpt lat="53.0836530000" lon="-4.1206240000"><ele>626</ele><time>2016-10-15T11:41:55Z</time></trkpt>
<trkpt lat="53.0836550000" lon="-4.1206090000"><ele>626</ele><time>2016-10-15T11:41:56Z</time></trkpt>
<trkpt lat="53.0836560000" lon="-4.1205950000"><ele>627</ele><time>2016-10-15T11:41:57Z</time></trkpt>
<trkpt lat="53.0836580000" lon="-4.1205790000"><ele>627</ele><time>2016-10-15T11:41:58Z</time></trkpt>
<trkpt lat="53.0836590000" lon="-4.1205640000"><ele>627</ele><time>2016-10-15T11:41:59Z</time></trkpt>
<trkpt lat="53.0836610000" lon="-4.1205480000"><ele>627</ele><time>2016-10-15T11:42:00Z</time></trkpt>
<trkpt lat="53.0836870000" lon="-4.1202940000"><ele>627</ele><time>2016-10-15T11:42:01Z</time></trkpt>
<trkpt lat="53.0836880000" lon="-4.1202760000"><ele>627</ele><time>2016-10-15T11:42:02Z</time></trkpt>
<trkpt lat="53.0836880000" lon="-4.1202550000"><ele>627</ele><time>2016-10-15T11:42:03Z</time></trkpt>
<trkpt lat="53.0836880000" lon="-4.1202350000"><ele>628</ele><time>2016-10-15T11:42:04Z</time></trkpt>
<trkpt lat="53.0836890000" lon="-4.1202160000"><ele>628</ele><time>2016-10-15T11:42:05Z</time></trkpt>
<trkpt lat="53.0836910000" lon="-4.1202000000"><ele>628</ele><time>2016-10-15T11:42:06Z</time></trkpt>
<trkpt lat="53.0836910000" lon="-4.1202000000"><ele>628</ele><time>2016-10-15T11:42:07Z</time></trkpt>
<trkpt lat="53.0836910000" lon="-4.1201990000"><ele>628</ele><time>2016-10-15T11:42:08Z</time></trkpt>
<trkpt lat="53.0836910000" lon="-4.1201980000"><ele>629</ele><time>2016-10-15T11:42:09Z</time></trkpt>
<trkpt lat="53.0836910000" lon="-4.1201970000"><ele>629</ele><time>2016-10-15T11:42:10Z</time></trkpt>
<trkpt lat="53.0836910000" lon="-4.1201950000"><ele>629</ele><time>2016-10-15T11:42:11Z</time></trkpt>
<trkpt lat="53.0836920000" lon="-4.1201890000"><ele>629</ele><time>2016-10-15T11:42:14Z</time></trkpt>
<trkpt lat="53.0836920000" lon="-4.1201850000"><ele>630</ele></trkpt>
<trkpt lat="53.0836930000" lon="-4.1201800000"><ele>630</ele><time>2016-10-15T11:42:15Z</time></trkpt>
<trkpt lat="53.0836930000" lon="-4.1201750000"><ele>630</ele><time>2016-10-15T11:42:16Z</time></trkpt>
<trkpt lat="53.0836940000" lon="-4.1201680000"><ele>630</ele><time>2016-10-15T11:42:17Z</time></trkpt>
<trkpt lat="53.0836950000" lon="-4.1201600000"><ele>630</ele><time>2016-10-15T11:42:18Z</time></trkpt>
<trkpt lat="53.0836960000" lon="-4.1201520000"><ele>630</ele><time>2016-10-15T11:42:19Z</time></trkpt>
<trkpt lat="53.0836970000" lon="-4.1201430000"><ele>630</ele><time>2016-10-15T11:42:20Z</time></trkpt>
<trkpt lat="53.0836970000" lon="-4.1201330000"><ele>630</ele><time>2016-10-15T11:42:21Z</time></trkpt>
<trkpt lat="53.0836990000" lon="-4.1201220000"><ele>630</ele><time>2016-10-15T11:42:22Z</time></trkpt>
<trkpt lat="53.0837000000" lon="-4.1201110000"><ele>630</ele><time>2016-10-15T11:42:23Z</time></trkpt>
<trkpt lat="53.0837010000" lon="-4.1200990000"><ele>630</ele><time>2016-10-15T11:42:24Z</time></trkpt>
<trkpt lat="53.0837020000" lon="-4.1200860000"><ele>630</ele><time>2016-10-15T11:42:25Z</time></trkpt>
<trkpt lat="53.0837030000" lon="-4.1200730000"><ele>630</ele><time>2016-10-15T11:42:26Z</time></trkpt>
<trkpt lat="53.0837040000" lon="-4.1200590000"><ele>631</ele><time>2016-10-15T11:42:27Z</time></trkpt>
<trkpt lat="53.0837050000" lon="-4.1200450000"><ele>631</ele><time>2016-10-15T11:42:28Z</time></trkpt>
<trkpt lat="53.0837070000" lon="-4.1200310000"><ele>631</ele><time>2016-10-15T11:42:29Z</time></trkpt>
<trkpt lat="53.0837080000" lon="-4.1200170000"><ele>631</ele><time>2016-10-15T11:42:30Z</time></trkpt>
<trkpt lat="53.0837090000" lon="-4.1200020000"><ele>631</ele><time>2016-10-15T11:42:31Z</time></trkpt>
<trkpt lat="53.0837110000" lon="-4.1199870000"><ele>631</ele><time>2016-10-15T11:42:32Z</time></trkpt>
<trkpt lat="53.0837120000" lon="-4.1199720000"><ele>631</ele><time>2016-10-15T11:42:33Z</time></trkpt>
<trkpt lat="53.0837140000" lon="-4.1199560000"><ele>632</ele><time>2016-10-15T11:42:34Z</time></trkpt>
<trkpt lat="53.0837150000" lon="-4.1199400000"><ele>632</ele><time>2016-10-15T11:42:35Z</time></trkpt>
<trkpt lat="53.0837370000" lon="-4.1196760000"><ele>632</ele><time>2016-10-15T11:42:36Z</time></trkpt>
<trkpt lat="53.0837380000" lon="-4.1196550000"><ele>632</ele><time>2016-10-15T11:42:37Z</time></trkpt>
<trkpt lat="53.0837390000" lon="-4.1196350000"><ele>632</ele><time>2016-10-15T11:42:38Z</time></trkpt>
<trkpt lat="53.0837410000" lon="-4.1196160000"><ele>633</ele><time>2016-10-15T11:42:39Z</time></trkpt>
<trkpt lat="53.0837420000" lon="-4.1195980000"><ele>633</ele><time>2016-10-15T11:42:40Z</time></trkpt>
<trkpt lat="53.0837420000" lon="-4.1195980000"><ele>633</ele><time>2016-10-15T11:42:41Z</time></trkpt>
<trkpt lat="53.0837420000" lon="-4.1195970000"><ele>633</ele><time>2016-10-15T11:42:42Z</time></trkpt>
<trkpt lat="53.0837420000" lon="-4.1195960000"><ele>634</ele><time>2016-10-15T11:42:43Z</time></trkpt>
<trkpt lat="53.0837420000" lon="-4.1195950000"><ele>634</ele><time>2016-10-15T11:42:44Z</time></trkpt>
<trkpt lat="53.0837420000" lon="-4.1195920000"><ele>634</ele><time>2016-10-15T11:42:45Z</time></trkpt>
<trkpt lat="53.0837430000" lon="-4.1195890000"><ele>634</ele><time>2016-10-15T11:42:46Z</time></trkpt>
<trkpt lat="53.0837430000" lon="-4.1195860000"><ele>634</ele><time>2016-10-15T11:42:47Z</time></trkpt>
<trkpt lat="53.0837430000" lon="-4.1195810000"><ele>634</ele><time>2016-10-15T11:42:48Z</time></trkpt>
<trkpt lat="53.0837440000" lon="-4.1195750000"><ele>635</ele><time>2016-10-15T11:42:49Z</time></trkpt>
<trkpt lat="53.0837440000" lon="-4.1195680000"><ele>635</ele><time>2016-10-15T11:42:50Z</time></trkpt>
<trkpt lat="53.0837450000" lon="-4.1195610000"><ele>635</ele><time>2016-10-15T11:42:51Z</time></trkpt>
<trkpt lat="53.0837460000" lon="-4.1195520000"><ele>635</ele><time>2016-10-15T11:42:52Z</time></trkpt>
<trkpt lat="53.0837460000" lon="-4.1195430000"><ele>635</ele><time>2016-10-15T11:42:53Z</time></trkpt>
<trkpt lat="53.0837470000" lon="-4.1195320000"><ele>635</ele><time>2016-10-15T11:42:54Z</time></trkpt>
<trkpt lat="53.0837480000" lon="-4.1195210000"><ele>636</ele><time>2016-10-15T11:42:55Z</time></trkpt>
<trkpt lat="53.0837700000" lon="-4.1192870000"><ele>636</ele><time>2016-10-15T11:42:56Z</time></trkpt>
<trkpt lat="53.0837720000" lon="-4.1192660000"><ele>636</ele><time>2016-10-15T11:42:57Z</time></trkpt>
<trkpt lat="53.0837750000" lon="-4.1192470000"><ele>636</ele><time>2016-10-15T11:42:58Z</time></trkpt>
<trkpt lat="53.0837790000" lon="-4.1192310000"><ele>636</ele><time>2016-10-15T11:42:59Z</time></trkpt>
<trkpt lat="53.0837790000" lon="-4.1192310000"><ele>636</ele><time>2016-10-15T11:43:00Z</time></trkpt>
<trkpt lat="53.0837790000" lon="-4.1192300000"><ele>636</ele><time>2016-10-15T11:43:01Z</time></trkpt>
<trkpt lat="53.0837870000" lon="-4.1191700000"><ele>636</ele><time>2016-10-15T11:43:02Z</time></trkpt>
<trkpt lat="53.0837890000" lon="-4.1191500000"><ele>636</ele><time>2016-10-15T11:43:03Z</time></trkpt>
<trkpt lat="53.0837910000" lon="-4.1191320000"><ele>636</ele><time>2016-10-15T11:43:04Z</time></trkpt>
<trkpt lat="53.0837940000" lon="-4.1191130000"><ele>637</ele><time>2016-10-15T11:43:05Z</time></trkpt>
<trkpt lat="53.0837940000" lon="-4.1191130000"><ele>637</ele><time>2016-10-15T11:43:06Z</time></trkpt>
<trkpt lat="53.0837940000" lon="-4.1191120000"><ele>637</ele><time>2016-10-15T11:43:07Z</time></trkpt>
<trkpt lat="53.0837940000" lon="-4.1191110000"><ele>637</ele><time>2016-10-15T11:43:08Z</time></trkpt>
<trkpt lat="53.0837940000" lon="-4.1191100000"><ele>637</ele><time>2016-10-15T11:43:09Z</time></trkpt>
<trkpt lat="53.0837940000" lon="-4.1191070000"><ele>637</ele><time>2016-10-15T11:43:10Z</time></trkpt>
<trkpt lat="53.0837950000" lon="-4.1191040000"><ele>637</ele><time>2016-10-15T11:43:11Z</time></trkpt>
<trkpt lat="53.0837960000" lon="-4.1190950000"><ele>637</ele><time>2016-10-15T11:43:14Z</time></trkpt>
<trkpt lat="53.0837960000" lon="-4.1190890000"><ele>638</ele></trkpt>
<trkpt lat="53.0837970000" lon="-4.1190820000"><ele>638</ele><time>2016-10-15T11:43:15Z</time></trkpt>
<trkpt lat="53.0838200000" lon="-4.1188990000"><ele>638</ele><time>2016-10-15T11:43:16Z</time></trkpt>
<trkpt lat="53.0838210000" lon="-4.1188810000"><ele>638</ele><time>2016-10-15T11:43:17Z</time></trkpt>
<trkpt lat="53.0838240000" lon="-4.1188630000"><ele>638</ele><time>2016-10-15T11:43:18Z</time></trkpt>
<trkpt lat="53.0838270000" lon="-4.1188480000"><ele>639</ele><time>2016-10-15T11:43:19Z</time></trkpt>
<trkpt lat="53.0838290000" lon="-4.1188310000"><ele>639</ele><time>2016-10-15T11:43:20Z</time></trkpt>
<trkpt lat="53.0838320000" lon="-4.1188140000"><ele>639</ele><time>2016-10-15T11:43:21Z</time></trkpt>
<trkpt lat="53.0838320000" lon="-4.1188140000"><ele>639</ele><time>2016-10-15T11:43:22Z</time></trkpt>
<trkpt lat="53.0838320000" lon="-4.1188130000"><ele>639</ele><time>2016-10-15T11:43:23Z</time></trkpt>
<trkpt lat="53.0838320000" lon="-4.1188120000"><ele>640</ele><time>2016-10-15T11:43:24Z</time></trkpt>
<trkpt lat="53.0838320000" lon="-4.1188110000"><ele>640</ele><time>2016-10-15T11:43:25Z</time></trkpt>
<trkpt lat="53.0838320000" lon="-4.1188090000"><ele>640</ele><time>2016-10-15T11:43:26Z</time></trkpt>
<trkpt lat="53.0838330000" lon="-4.1188060000"><ele>640</ele><time>2016-10-15T11:43:27Z</time></trkpt>
<trkpt lat="53.0838330000" lon="-4.1188020000"><ele>641</ele><time>2016-10-15T11:43:28Z</time></trkpt>
<trkpt lat="53.0838340000" lon="-4.1187980000"><ele>641</ele><time>2016-10-15T11:43:29Z</time></trkpt>
<trkpt lat="53.0838340000" lon="-4.1187930000"><ele>641</ele><time>2016-10-15T11:43:30Z</time></trkpt>
<trkpt lat="53.0838350000" lon="-4.1187870000"><ele>641</ele><time>2016-10-15T11:43:31Z</time></trkpt>
<trkpt lat="53.0838360000" lon="-4.1187810000"><ele>641</ele><time>2016-10-15T11:43:32Z</time></trkpt>
<trkpt lat="53.0838370000" lon="-4.1187740000"><ele>641</ele><time>2016-10-15T11:43:33Z</time></trkpt>
<trkpt lat="53.0838380000" lon="-4.1187660000"><ele>641</ele><time>2016-10-15T11:43:34Z</time></trkpt>
<trkpt lat="53.0838390000" lon="-4.1187570000"><ele>641</ele><time>2016-10-15T11:43:35Z</time></trkpt>
<trkpt lat="53.0838400000" lon="-4.1187480000"><ele>641</ele><time>2016-10-15T11:43:36Z</time></trkpt>
<trkpt lat="53.0838420000" lon="-4.1187390000"><ele>641</ele><time>2016-10-15T11:43:37Z</time></trkpt>
<trkpt lat="53.0838440000" lon="-4.1187290000"><ele>641</ele><time>2016-10-15T11:43:38Z</time></trkpt>
<trkpt lat="53.0838460000" lon="-4.1187180000"><ele>642</ele><time>2016-10-15T11:43:39Z</time></trkpt>
<trkpt lat="53.0838480000" lon="-4.1187070000"><ele>642</ele><time>2016-10-15T11:43:40Z</time></trkpt>
<trkpt lat="53.0838500000" lon="-4.1186950000"><ele>642</ele><time>2016-10-15T11:43:41Z</time></trkpt>
<trkpt lat="53.0838520000" lon="-4.1186830000"><ele>642</ele><time>2016-10-15T11:43:42Z</time></trkpt>
<trkpt lat="53.0838550000" lon="-4.1186700000"><ele>642</ele><time>2016-10-15T11:43:43Z</time></trkpt>
<trkpt lat="53.0838580000" lon="-4.1186570000"><ele>642</ele><time>2016-10-15T11:43:44Z</time></trkpt>
<trkpt lat="53.0838600000" lon="-4.1186440000"><ele>642</ele><time>2016-10-15T11:43:45Z</time></trkpt>
<trkpt lat="53.0838630000" lon="-4.1186300000"><ele>642</ele><time>2016-10-15T11:43:46Z</time></trkpt>
<trkpt lat="53.0838660000" lon="-4.1186150000"><ele>642</ele><time>2016-10-15T11:43:47Z</time></trkpt>
<trkpt lat="53.0838680000" lon="-4.1186000000"><ele>642</ele><time>2016-10-15T11:43:48Z</time></trkpt>
<trkpt lat="53.0839170000" lon="-4.1183560000"><ele>642</ele><time>2016-10-15T11:43:49Z</time></trkpt>
<trkpt lat="53.0839220000" lon="-4.1183390000"><ele>643</ele><time>2016-10-15T11:43:50Z</time></trkpt>
<trkpt lat="53.0839260000" lon="-4.1183200000"><ele>643</ele><time>2016-10-15T11:43:51Z</time></trkpt>
<trkpt lat="53.0839310000" lon="-4.1183000000"><ele>643</ele><time>2016-10-15T11:43:52Z</time></trkpt>
<trkpt lat="53.0839340000" lon="-4.1182800000"><ele>643</ele><time>2016-10-15T11:43:53Z</time></trkpt>
<trkpt lat="53.0839350000" lon="-4.1182590000"><ele>643</ele><time>2016-10-15T11:43:54Z</time></trkpt>
<trkpt lat="53.0839360000" lon="-4.1182390000"><ele>643</ele><time>2016-10-15T11:43:55Z</time></trkpt>
<trkpt lat="53.0839380000" lon="-4.1182200000"><ele>643</ele><time>2016-10-15T11:43:56Z</time></trkpt>
<trkpt lat="53.0839410000" lon="-4.1182010000"><ele>643</ele><time>2016-10-15T11:43:57Z</time></trkpt>
<trkpt lat="53.0839440000" lon="-4.1181840000"><ele>643</ele><time>2016-10-15T11:43:58Z</time></trkpt>
<trkpt lat="53.0839440000" lon="-4.1181840000"><ele>644</ele><time>2016-10-15T11:43:59Z</time></trkpt>
<trkpt lat="53.0839440000" lon="-4.1181840000"><ele>644</ele><time>2016-10-15T11:44:00Z</time></trkpt>
<trkpt lat="53.0839440000" lon="-4.1181830000"><ele>644</ele><time>2016-10-15T11:44:01Z</time></trkpt>
<trkpt lat="53.0839440000" lon="-4.1181810000"><ele>644</ele><time>2016-10-15T11:44:02Z</time></trkpt>
<trkpt lat="53.0839450000" lon="-4.1181800000"><ele>645</ele><time>2016-10-15T11:44:03Z</time></trkpt>
<trkpt lat="53.0839450000" lon="-4.1181770000"><ele>645</ele><time>2016-10-15T11:44:04Z</time></trkpt>
<trkpt lat="53.0839460000" lon="-4.1181730000"><ele>645</ele><time>2016-10-15T11:44:05Z</time></trkpt>
<trkpt lat="53.0839460000" lon="-4.1181680000"><ele>645</ele><time>2016-10-15T11:44:06Z</time></trkpt>
<trkpt lat="53.0839650000" lon="-4.1180110000"><ele>645</ele><time>2016-10-15T11:44:07Z</time></trkpt>
<trkpt lat="53.0839690000" lon="-4.1179940000"><ele>645</ele><time>2016-10-15T11:44:08Z</time></trkpt>
<trkpt lat="53.0839700000" lon="-4.1179760000"><ele>645</ele><time>2016-10-15T11:44:09Z</time></trkpt>
<trkpt lat="53.0839700000" lon="-4.1179520000"><ele>646</ele><time>2016-10-15T11:44:10Z</time></trkpt>
<trkpt lat="53.0839690000" lon="-4.1179300000"><ele>646</ele><time>2016-10-15T11:44:11Z</time></trkpt>
<trkpt lat="53.0839690000" lon="-4.1179100000"><ele>646</ele><time>2016-10-15T11:44:12Z</time></trkpt>
<trkpt lat="53.0839710000" lon="-4.1178900000"><ele>646</ele><time>2016-10-15T11:44:13Z</time></trkpt>
<trkpt lat="53.0839720000" lon="-4.1178710000"><ele>646</ele><time>2016-10-15T11:44:14Z</time></trkpt>
<trkpt lat="53.0839720000" lon="-4.1178510000"><ele>646</ele><time>2016-10-15T11:44:15Z</time></trkpt>
<trkpt lat="53.0839710000" lon="-4.1178320000"><ele>646</ele><time>2016-10-15T11:44:16Z</time></trkpt>
<trkpt lat="53.0839710000" lon="-4.1178150000"><ele>646</ele><time>2016-10-15T11:44:17Z</time></trkpt>
<trkpt lat="53.0839710000" lon="-4.1177970000"><ele>646</ele><time>2016-10-15T11:44:18Z</time></trkpt>
<trkpt lat="53.0839710000" lon="-4.1177970000"><ele>646</ele><time>2016-10-15T11:44:19Z</time></trkpt>
<trkpt lat="53.0839710000" lon="-4.1177970000"><ele>647</ele><time>2016-10-15T11:44:20Z</time></trkpt>
<trkpt lat="53.0839710000" lon="-4.1177960000"><ele>647</ele><time>2016-10-15T11:44:21Z</time></trkpt>
<trkpt lat="53.0839710000" lon="-4.1177950000"><ele>647</ele><time>2016-10-15T11:44:22Z</time></trkpt>
<trkpt lat="53.0839710000" lon="-4.1177930000"><ele>647</ele><time>2016-10-15T11:44:23Z</time></trkpt>
<trkpt lat="53.0839710000" lon="-4.1177910000"><ele>647</ele><time>2016-10-15T11:44:24Z</time></trkpt>
<trkpt lat="53.0839710000" lon="-4.1177880000"><ele>647</ele><time>2016-10-15T11:44:25Z</time></trkpt>
<trkpt lat="53.0839650000" lon="-4.1176450000"><ele>648</ele><time>2016-10-15T11:44:26Z</time></trkpt>
<trkpt lat="53.0839570000" lon="-4.1176070000"><ele>648</ele><time>2016-10-15T11:44:28Z</time></trkpt>
<trkpt lat="53.0839550000" lon="-4.1175900000"><ele>648</ele><time>2016-10-15T11:44:31Z</time></trkpt>
<trkpt lat="53.0839550000" lon="-4.1175890000"><ele>649</ele><time>2016-10-15T11:44:32Z</time></trkpt>
<trkpt lat="53.0839550000" lon="-4.1175880000"><ele>649</ele><time>2016-10-15T11:44:33Z</time></trkpt>
<trkpt lat="53.0839550000" lon="-4.1175870000"><ele>649</ele><time>2016-10-15T11:44:34Z</time></trkpt>
<trkpt lat="53.0839560000" lon="-4.1175840000"><ele>649</ele><time>2016-10-15T11:44:36Z</time></trkpt>
<trkpt lat="53.0839560000" lon="-4.1175690000"><ele>650</ele><time>2016-10-15T11:44:39Z</time></trkpt>
<trkpt lat="53.0839560000" lon="-4.1175620000"><ele>650</ele><time>2016-10-15T11:44:40Z</time></trkpt>
<trkpt lat="53.0839610000" lon="-4.1173740000"><ele>650</ele><time>2016-10-15T11:44:41Z</time></trkpt>
<trkpt lat="53.0839640000" lon="-4.1173350000"><ele>650</ele><time>2016-10-15T11:44:43Z</time></trkpt>
<trkpt lat="53.0839680000" lon="-4.1173200000"><ele>650</ele><time>2016-10-15T11:44:44Z</time></trkpt>
<trkpt lat="53.0839700000" lon="-4.1172980000"><ele>650</ele><time>2016-10-15T11:44:45Z</time></trkpt>
<trkpt lat="53.0839730000" lon="-4.1172760000"><ele>650</ele><time>2016-10-15T11:44:46Z</time></trkpt>
<trkpt lat="53.0839750000" lon="-4.1172570000"><ele>650</ele><time>2016-10-15T11:44:47Z</time></trkpt>
<trkpt lat="53.0839770000" lon="-4.1172370000"><ele>650</ele><time>2016-10-15T11:44:48Z</time></trkpt>
<trkpt lat="53.0839810000" lon="-4.1172170000"><ele>650</ele><time>2016-10-15T11:44:49Z</time></trkpt>
<trkpt lat="53.0839870000" lon="-4.1171960000"><ele>650</ele><time>2016-10-15T11:44:50Z</time></trkpt>
<trkpt lat="53.0839910000" lon="-4.1171780000"><ele>650</ele><time>2016-10-15T11:44:51Z</time></trkpt>
<trkpt lat="53.0839960000" lon="-4.1171590000"><ele>650</ele><time>2016-10-15T11:44:52Z</time></trkpt>
<trkpt lat="53.0840010000" lon="-4.1171400000"><ele>651</ele><time>2016-10-15T11:44:53Z</time></trkpt>
<trkpt lat="53.0840050000" lon="-4.1171220000"><ele>651</ele><time>2016-10-15T11:44:54Z</time></trkpt>
<trkpt lat="53.0840110000" lon="-4.1171070000"><ele>651</ele><time>2016-10-15T11:44:55Z</time></trkpt>
<trkpt lat="53.0840180000" lon="-4.1170930000"><ele>651</ele><time>2016-10-15T11:44:56Z</time></trkpt>
<trkpt lat="53.0840180000" lon="-4.1170930000"><ele>651</ele><time>2016-10-15T11:44:57Z</time></trkpt>
<trkpt lat="53.0840180000" lon="-4.1170930000"><ele>651</ele><time>2016-10-15T11:44:58Z</time></trkpt>
<trkpt lat="53.0840180000" lon="-4.1170930000"><ele>651</ele><time>2016-10-15T11:44:59Z</time></trkpt>
<trkpt lat="53.0840190000" lon="-4.1170920000"><ele>651</ele><time>2016-10-15T11:45:00Z</time></trkpt>
<trkpt lat="53.0840190000" lon="-4.1170900000"><ele>652</ele><time>2016-10-15T11:45:01Z</time></trkpt>
<trkpt lat="53.0840200000" lon="-4.1170880000"><ele>652</ele><time>2016-10-15T11:45:02Z</time></trkpt>
<trkpt lat="53.0840210000" lon="-4.1170860000"><ele>652</ele><time>2016-10-15T11:45:03Z</time></trkpt>
<trkpt lat="53.0840230000" lon="-4.1170820000"><ele>652</ele><time>2016-10-15T11:45:04Z</time></trkpt>
<trkpt lat="53.0840250000" lon="-4.1170780000"><ele>652</ele><time>2016-10-15T11:45:05Z</time></trkpt>
<trkpt lat="53.0840270000" lon="-4.1170730000"><ele>652</ele><time>2016-10-15T11:45:06Z</time></trkpt>
<trkpt lat="53.0840300000" lon="-4.1170680000"><ele>652</ele><time>2016-10-15T11:45:07Z</time></trkpt>
<trkpt lat="53.0840330000" lon="-4.1170610000"><ele>652</ele><time>2016-10-15T11:45:08Z</time></trkpt>
<trkpt lat="53.0840360000" lon="-4.1170540000"><ele>652</ele><time>2016-10-15T11:45:09Z</time></trkpt>
<trkpt lat="53.0840400000" lon="-4.1170460000"><ele>652</ele><time>2016-10-15T11:45:10Z</time></trkpt>
<trkpt lat="53.0841180000" lon="-4.1168730000"><ele>652</ele><time>2016-10-15T11:45:11Z</time></trkpt>
<trkpt lat="53.0841230000" lon="-4.1168570000"><ele>653</ele><time>2016-10-15T11:45:12Z</time></trkpt>
<trkpt lat="53.0841270000" lon="-4.1168400000"><ele>653</ele><time>2016-10-15T11:45:13Z</time></trkpt>
<trkpt lat="53.0841310000" lon="-4.1168230000"><ele>653</ele><time>2016-10-15T11:45:14Z</time></trkpt>
<trkpt lat="53.0841350000" lon="-4.1168090000"><ele>653</ele><time>2016-10-15T11:45:15Z</time></trkpt>
<trkpt lat="53.0841350000" lon="-4.1168080000"><ele>653</ele><time>2016-10-15T11:45:16Z</time></trkpt>
<trkpt lat="53.0841350000" lon="-4.1168080000"><ele>653</ele><time>2016-10-15T11:45:17Z</time></trkpt>
<trkpt lat="53.0841360000" lon="-4.1168070000"><ele>653</ele><time>2016-10-15T11:45:18Z</time></trkpt>
<trkpt lat="53.0841360000" lon="-4.1168060000"><ele>654</ele><time>2016-10-15T11:45:19Z</time></trkpt>
<trkpt lat="53.0841370000" lon="-4.1168040000"><ele>654</ele><time>2016-10-15T11:45:20Z</time></trkpt>
<trkpt lat="53.0841380000" lon="-4.1168020000"><ele>654</ele><time>2016-10-15T11:45:21Z</time></trkpt>
<trkpt lat="53.0841390000" lon="-4.1167990000"><ele>654</ele><time>2016-10-15T11:45:22Z</time></trkpt>
<trkpt lat="53.0841410000" lon="-4.1167950000"><ele>654</ele><time>2016-10-15T11:45:23Z</time></trkpt>
<trkpt lat="53.0841940000" lon="-4.1166570000"><ele>654</ele><time>2016-10-15T11:45:24Z</time></trkpt>
<trkpt lat="53.0842000000" lon="-4.1166400000"><ele>654</ele><time>2016-10-15T11:45:25Z</time></trkpt>
<trkpt lat="53.0842070000" lon="-4.1166220000"><ele>655</ele><time>2016-10-15T11:45:26Z</time></trkpt>
<trkpt lat="53.0842140000" lon="-4.1166020000"><ele>655</ele><time>2016-10-15T11:45:27Z</time></trkpt>
<trkpt lat="53.0842170000" lon="-4.1165820000"><ele>655</ele><time>2016-10-15T11:45:28Z</time></trkpt>
<trkpt lat="53.0842210000" lon="-4.1165660000"><ele>655</ele><time>2016-10-15T11:45:29Z</time></trkpt>
<trkpt lat="53.0842270000" lon="-4.1165500000"><ele>655</ele><time>2016-10-15T11:45:30Z</time></trkpt>
<trkpt lat="53.0842340000" lon="-4.1165340000"><ele>655</ele><time>2016-10-15T11:45:31Z</time></trkpt>
<trkpt lat="53.0842410000" lon="-4.1165170000"><ele>656</ele><time>2016-10-15T11:45:32Z</time></trkpt>
<trkpt lat="53.0842470000" lon="-4.1165000000"><ele>656</ele><time>2016-10-15T11:45:33Z</time></trkpt>
<trkpt lat="53.0842530000" lon="-4.1164820000"><ele>656</ele><time>2016-10-15T11:45:34Z</time></trkpt>
<trkpt lat="53.0842600000" lon="-4.1164650000"><ele>656</ele><time>2016-10-15T11:45:35Z</time></trkpt>
<trkpt lat="53.0842660000" lon="-4.1164470000"><ele>656</ele><time>2016-10-15T11:45:36Z</time></trkpt>
<trkpt lat="53.0842710000" lon="-4.1164290000"><ele>656</ele><time>2016-10-15T11:45:37Z</time></trkpt>
<trkpt lat="53.0842760000" lon="-4.1164100000"><ele>656</ele><time>2016-10-15T11:45:38Z</time></trkpt>
<trkpt lat="53.0842820000" lon="-4.1163890000"><ele>656</ele><time>2016-10-15T11:45:39Z</time></trkpt>
<trkpt lat="53.0842870000" lon="-4.1163670000"><ele>656</ele><time>2016-10-15T11:45:40Z</time></trkpt>
<trkpt lat="53.0842950000" lon="-4.1163460000"><ele>657</ele><time>2016-10-15T11:45:41Z</time></trkpt>
<trkpt lat="53.0843030000" lon="-4.1163240000"><ele>657</ele><time>2016-10-15T11:45:42Z</time></trkpt>
<trkpt lat="53.0843100000" lon="-4.1163040000"><ele>657</ele><time>2016-10-15T11:45:44Z</time></trkpt>
<trkpt lat="53.0843150000" lon="-4.1162840000"><ele>657</ele></trkpt>
<trkpt lat="53.0843180000" lon="-4.1162640000"><ele>657</ele><time>2016-10-15T11:45:45Z</time></trkpt>
<trkpt lat="53.0843250000" lon="-4.1162440000"><ele>657</ele><time>2016-10-15T11:45:46Z</time></trkpt>
<trkpt lat="53.0843330000" lon="-4.1162260000"><ele>657</ele><time>2016-10-15T11:45:47Z</time></trkpt>
<trkpt lat="53.0843410000" lon="-4.1162070000"><ele>657</ele><time>2016-10-15T11:45:48Z</time></trkpt>
<trkpt lat="53.0843500000" lon="-4.1161900000"><ele>657</ele><time>2016-10-15T11:45:49Z</time></trkpt>
<trkpt lat="53.0843610000" lon="-4.1161750000"><ele>657</ele><time>2016-10-15T11:45:50Z</time></trkpt>
<trkpt lat="53.0843710000" lon="-4.1161620000"><ele>657</ele><time>2016-10-15T11:45:51Z</time></trkpt>
<trkpt lat="53.0843800000" lon="-4.1161480000"><ele>657</ele><time>2016-10-15T11:45:52Z</time></trkpt>
<trkpt lat="53.0843900000" lon="-4.1161330000"><ele>657</ele><time>2016-10-15T11:45:53Z</time></trkpt>
<trkpt lat="53.0843980000" lon="-4.1161150000"><ele>657</ele><time>2016-10-15T11:45:54Z</time></trkpt>
<trkpt lat="53.0844080000" lon="-4.1160970000"><ele>657</ele><time>2016-10-15T11:45:55Z</time></trkpt>
<trkpt lat="53.0844150000" lon="-4.1160730000"><ele>656</ele><time>2016-10-15T11:45:56Z</time></trkpt>
<trkpt lat="53.0844200000" lon="-4.1160500000"><ele>656</ele><time>2016-10-15T11:45:57Z</time></trkpt>
<trkpt lat="53.0844280000" lon="-4.1160290000"><ele>656</ele><time>2016-10-15T11:45:58Z</time></trkpt>
<trkpt lat="53.0844350000" lon="-4.1160070000"><ele>656</ele><time>2016-10-15T11:45:59Z</time></trkpt>
<trkpt lat="53.0844410000" lon="-4.1159870000"><ele>656</ele><time>2016-10-15T11:46:00Z</time></trkpt>
<trkpt lat="53.0844480000" lon="-4.1159650000"><ele>656</ele><time>2016-10-15T11:46:01Z</time></trkpt>
<trkpt lat="53.0844550000" lon="-4.1159440000"><ele>656</ele><time>2016-10-15T11:46:02Z</time></trkpt>
<trkpt lat="53.0844620000" lon="-4.1159230000"><ele>657</ele><time>2016-10-15T11:46:03Z</time></trkpt>
<trkpt lat="53.0844680000" lon="-4.1159030000"><ele>657</ele><time>2016-10-15T11:46:04Z</time></trkpt>
<trkpt lat="53.0844740000" lon="-4.1158820000"><ele>657</ele><time>2016-10-15T11:46:05Z</time></trkpt>
<trkpt lat="53.0844800000" lon="-4.1158620000"><ele>657</ele><time>2016-10-15T11:46:06Z</time></trkpt>
<trkpt lat="53.0844860000" lon="-4.1158430000"><ele>657</ele><time>2016-10-15T11:46:07Z</time></trkpt>
<trkpt lat="53.0844910000" lon="-4.1158240000"><ele>657</ele><time>2016-10-15T11:46:08Z</time></trkpt>
<trkpt lat="53.0844950000" lon="-4.1158060000"><ele>657</ele><time>2016-10-15T11:46:09Z</time></trkpt>
<trkpt lat="53.0845010000" lon="-4.1157860000"><ele>657</ele><time>2016-10-15T11:46:10Z</time></trkpt>
<trkpt lat="53.0845080000" lon="-4.1157660000"><ele>657</ele><time>2016-10-15T11:46:11Z</time></trkpt>
<trkpt lat="53.0845160000" lon="-4.1157490000"><ele>657</ele><time>2016-10-15T11:46:12Z</time></trkpt>
<trkpt lat="53.0845240000" lon="-4.1157280000"><ele>657</ele><time>2016-10-15T11:46:13Z</time></trkpt>
<trkpt lat="53.0845290000" lon="-4.1157070000"><ele>657</ele><time>2016-10-15T11:46:14Z</time></trkpt>
<trkpt lat="53.0845350000" lon="-4.1156850000"><ele>657</ele><time>2016-10-15T11:46:15Z</time></trkpt>
<trkpt lat="53.0845430000" lon="-4.1156640000"><ele>657</ele><time>2016-10-15T11:46:16Z</time></trkpt>
<trkpt lat="53.0845520000" lon="-4.1156420000"><ele>657</ele><time>2016-10-15T11:46:17Z</time></trkpt>
<trkpt lat="53.0845600000" lon="-4.1156200000"><ele>657</ele><time>2016-10-15T11:46:18Z</time></trkpt>
<trkpt lat="53.0845690000" lon="-4.1155990000"><ele>657</ele><time>2016-10-15T11:46:19Z</time></trkpt>
<trkpt lat="53.0845790000" lon="-4.1155780000"><ele>657</ele><time>2016-10-15T11:46:20Z</time></trkpt>
<trkpt lat="53.0845860000" lon="-4.1155600000"><ele>657</ele><time>2016-10-15T11:46:21Z</time></trkpt>
<trkpt lat="53.0845950000" lon="-4.1155410000"><ele>657</ele><time>2016-10-15T11:46:22Z</time></trkpt>
<trkpt lat="53.0846050000" lon="-4.1155220000"><ele>657</ele><time>2016-10-15T11:46:23Z</time></trkpt>
<trkpt lat="53.0846120000" lon="-4.1155040000"><ele>657</ele><time>2016-10-15T11:46:24Z</time></trkpt>
<trkpt lat="53.0846210000" lon="-4.1154870000"><ele>656</ele><time>2016-10-15T11:46:25Z</time></trkpt>
<trkpt lat="53.0846300000" lon="-4.1154680000"><ele>656</ele><time>2016-10-15T11:46:26Z</time></trkpt>
<trkpt lat="53.0846380000" lon="-4.1154490000"><ele>656</ele><time>2016-10-15T11:46:27Z</time></trkpt>
<trkpt lat="53.0846430000" lon="-4.1154280000"><ele>656</ele><time>2016-10-15T11:46:28Z</time></trkpt>
<trkpt lat="53.0846510000" lon="-4.1154090000"><ele>656</ele><time>2016-10-15T11:46:29Z</time></trkpt>
<trkpt lat="53.0846580000" lon="-4.1153890000"><ele>656</ele><time>2016-10-15T11:46:30Z</time></trkpt>
<trkpt lat="53.0846670000" lon="-4.1153700000"><ele>656</ele><time>2016-10-15T11:46:31Z</time></trkpt>
<trkpt lat="53.0846750000" lon="-4.1153520000"><ele>656</ele><time>2016-10-15T11:46:32Z</time></trkpt>
<trkpt lat="53.0846830000" lon="-4.1153340000"><ele>656</ele><time>2016-10-15T11:46:33Z</time></trkpt>
<trkpt lat="53.0846920000" lon="-4.1153160000"><ele>656</ele><time>2016-10-15T11:46:34Z</time></trkpt>
<trkpt lat="53.0847020000" lon="-4.1152990000"><ele>656</ele><time>2016-10-15T11:46:35Z</time></trkpt>
<trkpt lat="53.0847100000" lon="-4.1152830000"><ele>656</ele><time>2016-10-15T11:46:36Z</time></trkpt>
<trkpt lat="53.0847190000" lon="-4.1152630000"><ele>656</ele><time>2016-10-15T11:46:37Z</time></trkpt>
<trkpt lat="53.0847250000" lon="-4.1152460000"><ele>656</ele><time>2016-10-15T11:46:38Z</time></trkpt>
<trkpt lat="53.0847340000" lon="-4.1152300000"><ele>656</ele><time>2016-10-15T11:46:39Z</time></trkpt>
<trkpt lat="53.0847420000" lon="-4.1152180000"><ele>656</ele><time>2016-10-15T11:46:40Z</time></trkpt>
<trkpt lat="53.0847510000" lon="-4.1152040000"><ele>657</ele><time>2016-10-15T11:46:41Z</time></trkpt>
<trkpt lat="53.0847610000" lon="-4.1151900000"><ele>657</ele><time>2016-10-15T11:46:42Z</time></trkpt>
<trkpt lat="53.0847700000" lon="-4.1151740000"><ele>657</ele><time>2016-10-15T11:46:44Z</time></trkpt>
<trkpt lat="53.0847750000" lon="-4.1151580000"><ele>657</ele></trkpt>
<trkpt lat="53.0847810000" lon="-4.1151420000"><ele>657</ele><time>2016-10-15T11:46:45Z</time></trkpt>
<trkpt lat="53.0847880000" lon="-4.1151250000"><ele>657</ele><time>2016-10-15T11:46:46Z</time></trkpt>
<trkpt lat="53.0847960000" lon="-4.1151060000"><ele>658</ele><time>2016-10-15T11:46:47Z</time></trkpt>
<trkpt lat="53.0848030000" lon="-4.1150870000"><ele>658</ele><time>2016-10-15T11:46:48Z</time></trkpt>
<trkpt lat="53.0848110000" lon="-4.1150720000"><ele>658</ele><time>2016-10-15T11:46:49Z</time></trkpt>
<trkpt lat="53.0848210000" lon="-4.1150570000"><ele>658</ele><time>2016-10-15T11:46:50Z</time></trkpt>
<trkpt lat="53.0848290000" lon="-4.1150410000"><ele>659</ele><time>2016-10-15T11:46:51Z</time></trkpt>
<trkpt lat="53.0848360000" lon="-4.1150250000"><ele>659</ele><time>2016-10-15T11:46:52Z</time></trkpt>
<trkpt lat="53.0848430000" lon="-4.1150090000"><ele>659</ele><time>2016-10-15T11:46:53Z</time></trkpt>
<trkpt lat="53.0848510000" lon="-4.1149940000"><ele>659</ele><time>2016-10-15T11:46:54Z</time></trkpt>
<trkpt lat="53.0848590000" lon="-4.1149810000"><ele>659</ele><time>2016-10-15T11:46:55Z</time></trkpt>
<trkpt lat="53.0848590000" lon="-4.1149810000"><ele>660</ele><time>2016-10-15T11:46:56Z</time></trkpt>
<trkpt lat="53.0848590000" lon="-4.1149800000"><ele>660</ele><time>2016-10-15T11:46:57Z</time></trkpt>
<trkpt lat="53.0848590000" lon="-4.1149800000"><ele>660</ele><time>2016-10-15T11:46:58Z</time></trkpt>
<trkpt lat="53.0848600000" lon="-4.1149780000"><ele>660</ele><time>2016-10-15T11:46:59Z</time></trkpt>
<trkpt lat="53.0848610000" lon="-4.1149770000"><ele>660</ele><time>2016-10-15T11:47:00Z</time></trkpt>
<trkpt lat="53.0848620000" lon="-4.1149740000"><ele>660</ele><time>2016-10-15T11:47:01Z</time></trkpt>
<trkpt lat="53.0848640000" lon="-4.1149710000"><ele>660</ele><time>2016-10-15T11:47:02Z</time></trkpt>
<trkpt lat="53.0849240000" lon="-4.1148640000"><ele>660</ele><time>2016-10-15T11:47:03Z</time></trkpt>
<trkpt lat="53.0849320000" lon="-4.1148500000"><ele>660</ele><time>2016-10-15T11:47:04Z</time></trkpt>
<trkpt lat="53.0849410000" lon="-4.1148350000"><ele>661</ele><time>2016-10-15T11:47:05Z</time></trkpt>
<trkpt lat="53.0849500000" lon="-4.1148190000"><ele>661</ele><time>2016-10-15T11:47:06Z</time></trkpt>
<trkpt lat="53.0849580000" lon="-4.1148020000"><ele>661</ele><time>2016-10-15T11:47:07Z</time></trkpt>
<trkpt lat="53.0849660000" lon="-4.1147860000"><ele>661</ele><time>2016-10-15T11:47:08Z</time></trkpt>
<trkpt lat="53.0849730000" lon="-4.1147700000"><ele>661</ele><time>2016-10-15T11:47:09Z</time></trkpt>
<trkpt lat="53.0849810000" lon="-4.1147530000"><ele>662</ele><time>2016-10-15T11:47:10Z</time></trkpt>
<trkpt lat="53.0849900000" lon="-4.1147380000"><ele>662</ele><time>2016-10-15T11:47:11Z</time></trkpt>
<trkpt lat="53.0849990000" lon="-4.1147230000"><ele>662</ele><time>2016-10-15T11:47:12Z</time></trkpt>
<trkpt lat="53.0850100000" lon="-4.1147080000"><ele>662</ele><time>2016-10-15T11:47:13Z</time></trkpt>
<trkpt lat="53.0850180000" lon="-4.1146930000"><ele>662</ele><time>2016-10-15T11:47:14Z</time></trkpt>
<trkpt lat="53.0850240000" lon="-4.1146770000"><ele>663</ele><time>2016-10-15T11:47:15Z</time></trkpt>
<trkpt lat="53.0850240000" lon="-4.1146770000"><ele>663</ele><time>2016-10-15T11:47:16Z</time></trkpt>
<trkpt lat="53.0850240000" lon="-4.1146770000"><ele>663</ele><time>2016-10-15T11:47:17Z</time></trkpt>
<trkpt lat="53.0850480000" lon="-4.1146310000"><ele>663</ele><time>2016-10-15T11:47:18Z</time></trkpt>
<trkpt lat="53.0850550000" lon="-4.1146130000"><ele>663</ele><time>2016-10-15T11:47:19Z</time></trkpt>
<trkpt lat="53.0850610000" lon="-4.1145940000"><ele>663</ele><time>2016-10-15T11:47:20Z</time></trkpt>
<trkpt lat="53.0850690000" lon="-4.1145760000"><ele>664</ele><time>2016-10-15T11:47:21Z</time></trkpt>
<trkpt lat="53.0850760000" lon="-4.1145600000"><ele>664</ele><time>2016-10-15T11:47:22Z</time></trkpt>
<trkpt lat="53.0850840000" lon="-4.1145440000"><ele>664</ele><time>2016-10-15T11:47:23Z</time></trkpt>
<trkpt lat="53.0850910000" lon="-4.1145290000"><ele>664</ele><time>2016-10-15T11:47:24Z</time></trkpt>
<trkpt lat="53.0851020000" lon="-4.1145130000"><ele>664</ele><time>2016-10-15T11:47:25Z</time></trkpt>
<trkpt lat="53.0851100000" lon="-4.1144980000"><ele>665</ele><time>2016-10-15T11:47:26Z</time></trkpt>
<trkpt lat="53.0851180000" lon="-4.1144820000"><ele>665</ele><time>2016-10-15T11:47:27Z</time></trkpt>
<trkpt lat="53.0851260000" lon="-4.1144640000"><ele>665</ele><time>2016-10-15T11:47:28Z</time></trkpt>
<trkpt lat="53.0851340000" lon="-4.1144480000"><ele>665</ele><time>2016-10-15T11:47:29Z</time></trkpt>
<trkpt lat="53.0851420000" lon="-4.1144320000"><ele>666</ele><time>2016-10-15T11:47:30Z</time></trkpt>
<trkpt lat="53.0851510000" lon="-4.1144180000"><ele>666</ele><time>2016-10-15T11:47:31Z</time></trkpt>
<trkpt lat="53.0851580000" lon="-4.1144060000"><ele>666</ele><time>2016-10-15T11:47:32Z</time></trkpt>
<trkpt lat="53.0851670000" lon="-4.1143920000"><ele>667</ele><time>2016-10-15T11:47:33Z</time></trkpt>
<trkpt lat="53.0851670000" lon="-4.1143920000"><ele>667</ele><time>2016-10-15T11:47:34Z</time></trkpt>
<trkpt lat="53.0851680000" lon="-4.1143920000"><ele>667</ele><time>2016-10-15T11:47:35Z</time></trkpt>
<trkpt lat="53.0851680000" lon="-4.1143910000"><ele>667</ele><time>2016-10-15T11:47:36Z</time></trkpt>
<trkpt lat="53.0851690000" lon="-4.1143900000"><ele>667</ele><time>2016-10-15T11:47:37Z</time></trkpt>
<trkpt lat="53.0851700000" lon="-4.1143890000"><ele>668</ele><time>2016-10-15T11:47:38Z</time></trkpt>
<trkpt lat="53.0851710000" lon="-4.1143860000"><ele>668</ele><time>2016-10-15T11:47:39Z</time></trkpt>
<trkpt lat="53.0851730000" lon="-4.1143840000"><ele>668</ele><time>2016-10-15T11:47:40Z</time></trkpt>
<trkpt lat="53.0851750000" lon="-4.1143800000"><ele>668</ele><time>2016-10-15T11:47:41Z</time></trkpt>
<trkpt lat="53.0851780000" lon="-4.1143770000"><ele>668</ele><time>2016-10-15T11:47:42Z</time></trkpt>
<trkpt lat="53.0851810000" lon="-4.1143720000"><ele>668</ele><time>2016-10-15T11:47:44Z</time></trkpt>
<trkpt lat="53.0851840000" lon="-4.1143670000"><ele>668</ele></trkpt>
<trkpt lat="53.0851880000" lon="-4.1143610000"><ele>669</ele><time>2016-10-15T11:47:45Z</time></trkpt>
<trkpt lat="53.0851920000" lon="-4.1143550000"><ele>669</ele><time>2016-10-15T11:47:46Z</time></trkpt>
<trkpt lat="53.0851960000" lon="-4.1143480000"><ele>669</ele><time>2016-10-15T11:47:47Z</time></trkpt>
<trkpt lat="53.0852010000" lon="-4.1143410000"><ele>669</ele><time>2016-10-15T11:47:48Z</time></trkpt>
<trkpt lat="53.0852060000" lon="-4.1143330000"><ele>669</ele><time>2016-10-15T11:47:49Z</time></trkpt>
<trkpt lat="53.0852110000" lon="-4.1143250000"><ele>669</ele><time>2016-10-15T11:47:50Z</time></trkpt>
<trkpt lat="53.0852170000" lon="-4.1143160000"><ele>669</ele><time>2016-10-15T11:47:51Z</time></trkpt>
<trkpt lat="53.0852230000" lon="-4.1143070000"><ele>669</ele><time>2016-10-15T11:47:52Z</time></trkpt>
<trkpt lat="53.0852290000" lon="-4.1142970000"><ele>669</ele><time>2016-10-15T11:47:53Z</time></trkpt>
<trkpt lat="53.0852350000" lon="-4.1142870000"><ele>669</ele><time>2016-10-15T11:47:54Z</time></trkpt>
<trkpt lat="53.0852420000" lon="-4.1142770000"><ele>670</ele><time>2016-10-15T11:47:55Z</time></trkpt>
<trkpt lat="53.0852480000" lon="-4.1142660000"><ele>670</ele><time>2016-10-15T11:47:56Z</time></trkpt>
<trkpt lat="53.0852550000" lon="-4.1142550000"><ele>670</ele><time>2016-10-15T11:47:57Z</time></trkpt>
<trkpt lat="53.0852620000" lon="-4.1142440000"><ele>670</ele><time>2016-10-15T11:47:58Z</time></trkpt>
<trkpt lat="53.0853700000" lon="-4.1140660000"><ele>670</ele><time>2016-10-15T11:47:59Z</time></trkpt>
<trkpt lat="53.0853760000" lon="-4.1140520000"><ele>670</ele><time>2016-10-15T11:48:00Z</time></trkpt>
<trkpt lat="53.0853820000" lon="-4.1140380000"><ele>670</ele><time>2016-10-15T11:48:01Z</time></trkpt>
<trkpt lat="53.0853890000" lon="-4.1140190000"><ele>670</ele><time>2016-10-15T11:48:02Z</time></trkpt>
<trkpt lat="53.0853940000" lon="-4.1140040000"><ele>671</ele><time>2016-10-15T11:48:03Z</time></trkpt>
<trkpt lat="53.0854000000" lon="-4.1139900000"><ele>671</ele><time>2016-10-15T11:48:04Z</time></trkpt>
<trkpt lat="53.0854060000" lon="-4.1139780000"><ele>671</ele><time>2016-10-15T11:48:05Z</time></trkpt>
<trkpt lat="53.0854130000" lon="-4.1139640000"><ele>671</ele><time>2016-10-15T11:48:06Z</time></trkpt>
<trkpt lat="53.0854180000" lon="-4.1139490000"><ele>671</ele><time>2016-10-15T11:48:07Z</time></trkpt>
<trkpt lat="53.0854250000" lon="-4.1139320000"><ele>672</ele><time>2016-10-15T11:48:08Z</time></trkpt>
<trkpt lat="53.0854310000" lon="-4.1139130000"><ele>672</ele><time>2016-10-15T11:48:09Z</time></trkpt>
<trkpt lat="53.0854370000" lon="-4.1138950000"><ele>672</ele><time>2016-10-15T11:48:10Z</time></trkpt>
<trkpt lat="53.0854430000" lon="-4.1138780000"><ele>672</ele><time>2016-10-15T11:48:11Z</time></trkpt>
<trkpt lat="53.0854480000" lon="-4.1138620000"><ele>673</ele><time>2016-10-15T11:48:12Z</time></trkpt>
<trkpt lat="53.0854550000" lon="-4.1138450000"><ele>673</ele><time>2016-10-15T11:48:13Z</time></trkpt>
<trkpt lat="53.0854610000" lon="-4.1138290000"><ele>673</ele><time>2016-10-15T11:48:14Z</time></trkpt>
<trkpt lat="53.0854660000" lon="-4.1138100000"><ele>673</ele><time>2016-10-15T11:48:15Z</time></trkpt>
<trkpt lat="53.0854720000" lon="-4.1137900000"><ele>673</ele><time>2016-10-15T11:48:16Z</time></trkpt>
<trkpt lat="53.0854790000" lon="-4.1137730000"><ele>673</ele><time>2016-10-15T11:48:17Z</time></trkpt>
<trkpt lat="53.0854900000" lon="-4.1137570000"><ele>673</ele><time>2016-10-15T11:48:18Z</time></trkpt>
<trkpt lat="53.0854990000" lon="-4.1137380000"><ele>673</ele><time>2016-10-15T11:48:19Z</time></trkpt>
<trkpt lat="53.0855070000" lon="-4.1137200000"><ele>673</ele><time>2016-10-15T11:48:20Z</time></trkpt>
<trkpt lat="53.0855150000" lon="-4.1137000000"><ele>673</ele><time>2016-10-15T11:48:21Z</time></trkpt>
<trkpt lat="53.0855220000" lon="-4.1136830000"><ele>673</ele><time>2016-10-15T11:48:22Z</time></trkpt>
<trkpt lat="53.0855290000" lon="-4.1136670000"><ele>673</ele><time>2016-10-15T11:48:23Z</time></trkpt>
<trkpt lat="53.0855360000" lon="-4.1136510000"><ele>673</ele><time>2016-10-15T11:48:24Z</time></trkpt>
<trkpt lat="53.0855420000" lon="-4.1136340000"><ele>673</ele><time>2016-10-15T11:48:25Z</time></trkpt>
<trkpt lat="53.0855460000" lon="-4.1136190000"><ele>673</ele><time>2016-10-15T11:48:26Z</time></trkpt>
<trkpt lat="53.0855510000" lon="-4.1136020000"><ele>673</ele><time>2016-10-15T11:48:27Z</time></trkpt>
<trkpt lat="53.0855510000" lon="-4.1136020000"><ele>674</ele><time>2016-10-15T11:48:28Z</time></trkpt>
<trkpt lat="53.0855510000" lon="-4.1136020000"><ele>674</ele><time>2016-10-15T11:48:29Z</time></trkpt>
<trkpt lat="53.0855510000" lon="-4.1136010000"><ele>674</ele><time>2016-10-15T11:48:30Z</time></trkpt>
<trkpt lat="53.0855520000" lon="-4.1136000000"><ele>674</ele><time>2016-10-15T11:48:31Z</time></trkpt>
<trkpt lat="53.0855530000" lon="-4.1135980000"><ele>674</ele><time>2016-10-15T11:48:32Z</time></trkpt>
<trkpt lat="53.0855540000" lon="-4.1135960000"><ele>674</ele><time>2016-10-15T11:48:33Z</time></trkpt>
<trkpt lat="53.0855550000" lon="-4.1135920000"><ele>674</ele><time>2016-10-15T11:48:34Z</time></trkpt>
<trkpt lat="53.0856010000" lon="-4.1134710000"><ele>674</ele><time>2016-10-15T11:48:35Z</time></trkpt>
<trkpt lat="53.0856070000" lon="-4.1134540000"><ele>674</ele><time>2016-10-15T11:48:36Z</time></trkpt>
<trkpt lat="53.0856130000" lon="-4.1134390000"><ele>674</ele><time>2016-10-15T11:48:37Z</time></trkpt>
<trkpt lat="53.0856200000" lon="-4.1134240000"><ele>674</ele><time>2016-10-15T11:48:38Z</time></trkpt>
<trkpt lat="53.0856270000" lon="-4.1134100000"><ele>675</ele><time>2016-10-15T11:48:39Z</time></trkpt>
<trkpt lat="53.0856270000" lon="-4.1134100000"><ele>675</ele><time>2016-10-15T11:48:40Z</time></trkpt>
<trkpt lat="53.0856270000" lon="-4.1134090000"><ele>675</ele><time>2016-10-15T11:48:41Z</time></trkpt>
<trkpt lat="53.0856270000" lon="-4.1134090000"><ele>675</ele><time>2016-10-15T11:48:42Z</time></trkpt>
<trkpt lat="53.0856280000" lon="-4.1134070000"><ele>675</ele><time>2016-10-15T11:48:44Z</time></trkpt>
<trkpt lat="53.0856290000" lon="-4.1134060000"><ele>675</ele></trkpt>
<trkpt lat="53.0856290000" lon="-4.1134030000"><ele>675</ele><time>2016-10-15T11:48:45Z</time></trkpt>
<trkpt lat="53.0856300000" lon="-4.1134000000"><ele>675</ele><time>2016-10-15T11:48:46Z</time></trkpt>
<trkpt lat="53.0856320000" lon="-4.1133960000"><ele>676</ele><time>2016-10-15T11:48:47Z</time></trkpt>
<trkpt lat="53.0856330000" lon="-4.1133920000"><ele>676</ele><time>2016-10-15T11:48:48Z</time></trkpt>
<trkpt lat="53.0856350000" lon="-4.1133860000"><ele>676</ele><time>2016-10-15T11:48:49Z</time></trkpt>
<trkpt lat="53.0856890000" lon="-4.1132320000"><ele>676</ele><time>2016-10-15T11:48:50Z</time></trkpt>
<trkpt lat="53.0856950000" lon="-4.1132160000"><ele>676</ele><time>2016-10-15T11:48:51Z</time></trkpt>
<trkpt lat="53.0857020000" lon="-4.1132010000"><ele>676</ele><time>2016-10-15T11:48:52Z</time></trkpt>
<trkpt lat="53.0857090000" lon="-4.1131860000"><ele>677</ele><time>2016-10-15T11:48:53Z</time></trkpt>
<trkpt lat="53.0857170000" lon="-4.1131690000"><ele>677</ele><time>2016-10-15T11:48:54Z</time></trkpt>
<trkpt lat="53.0857200000" lon="-4.1131520000"><ele>677</ele><time>2016-10-15T11:48:55Z</time></trkpt>
<trkpt lat="53.0857240000" lon="-4.1131360000"><ele>677</ele><time>2016-10-15T11:48:56Z</time></trkpt>
<trkpt lat="53.0857240000" lon="-4.1131350000"><ele>677</ele><time>2016-10-15T11:48:57Z</time></trkpt>
<trkpt lat="53.0857240000" lon="-4.1131350000"><ele>677</ele><time>2016-10-15T11:48:58Z</time></trkpt>
<trkpt lat="53.0857250000" lon="-4.1131340000"><ele>677</ele><time>2016-10-15T11:48:59Z</time></trkpt>
<trkpt lat="53.0857250000" lon="-4.1131330000"><ele>677</ele><time>2016-10-15T11:49:00Z</time></trkpt>
<trkpt lat="53.0857260000" lon="-4.1131310000"><ele>677</ele><time>2016-10-15T11:49:01Z</time></trkpt>
<trkpt lat="53.0857700000" lon="-4.1130340000"><ele>677</ele><time>2016-10-15T11:49:02Z</time></trkpt>
<trkpt lat="53.0857770000" lon="-4.1130180000"><ele>677</ele><time>2016-10-15T11:49:03Z</time></trkpt>
<trkpt lat="53.0857830000" lon="-4.1130000000"><ele>677</ele><time>2016-10-15T11:49:04Z</time></trkpt>
<trkpt lat="53.0857890000" lon="-4.1129800000"><ele>677</ele><time>2016-10-15T11:49:05Z</time></trkpt>
<trkpt lat="53.0857970000" lon="-4.1129610000"><ele>677</ele><time>2016-10-15T11:49:06Z</time></trkpt>
<trkpt lat="53.0858050000" lon="-4.1129400000"><ele>677</ele><time>2016-10-15T11:49:07Z</time></trkpt>
<trkpt lat="53.0858110000" lon="-4.1129220000"><ele>677</ele><time>2016-10-15T11:49:08Z</time></trkpt>
<trkpt lat="53.0858160000" lon="-4.1129060000"><ele>677</ele><time>2016-10-15T11:49:09Z</time></trkpt>
<trkpt lat="53.0858160000" lon="-4.1129060000"><ele>677</ele><time>2016-10-15T11:49:10Z</time></trkpt>
<trkpt lat="53.0858160000" lon="-4.1129060000"><ele>677</ele><time>2016-10-15T11:49:11Z</time></trkpt>
<trkpt lat="53.0858350000" lon="-4.1128500000"><ele>677</ele><time>2016-10-15T11:49:12Z</time></trkpt>
<trkpt lat="53.0858430000" lon="-4.1128330000"><ele>677</ele><time>2016-10-15T11:49:13Z</time></trkpt>
<trkpt lat="53.0858520000" lon="-4.1128170000"><ele>677</ele><time>2016-10-15T11:49:14Z</time></trkpt>
<trkpt lat="53.0858590000" lon="-4.1128030000"><ele>677</ele><time>2016-10-15T11:49:15Z</time></trkpt>
<trkpt lat="53.0858650000" lon="-4.1127870000"><ele>677</ele><time>2016-10-15T11:49:16Z</time></trkpt>
<trkpt lat="53.0858700000" lon="-4.1127690000"><ele>677</ele><time>2016-10-15T11:49:17Z</time></trkpt>
<trkpt lat="53.0858750000" lon="-4.1127530000"><ele>677</ele><time>2016-10-15T11:49:18Z</time></trkpt>
<trkpt lat="53.0858810000" lon="-4.1127360000"><ele>677</ele><time>2016-10-15T11:49:19Z</time></trkpt>
<trkpt lat="53.0858860000" lon="-4.1127200000"><ele>677</ele><time>2016-10-15T11:49:20Z</time></trkpt>
<trkpt lat="53.0858930000" lon="-4.1127030000"><ele>677</ele><time>2016-10-15T11:49:21Z</time></trkpt>
<trkpt lat="53.0859000000" lon="-4.1126870000"><ele>677</ele><time>2016-10-15T11:49:22Z</time></trkpt>
<trkpt lat="53.0859070000" lon="-4.1126700000"><ele>677</ele><time>2016-10-15T11:49:23Z</time></trkpt>
<trkpt lat="53.0859120000" lon="-4.1126510000"><ele>677</ele><time>2016-10-15T11:49:24Z</time></trkpt>
<trkpt lat="53.0859190000" lon="-4.1126330000"><ele>677</ele><time>2016-10-15T11:49:25Z</time></trkpt>
<trkpt lat="53.0859270000" lon="-4.1126140000"><ele>677</ele><time>2016-10-15T11:49:26Z</time></trkpt>
<trkpt lat="53.0859330000" lon="-4.1125950000"><ele>677</ele><time>2016-10-15T11:49:27Z</time></trkpt>
<trkpt lat="53.0859390000" lon="-4.1125770000"><ele>677</ele><time>2016-10-15T11:49:28Z</time></trkpt>
<trkpt lat="53.0859450000" lon="-4.1125610000"><ele>677</ele><time>2016-10-15T11:49:29Z</time></trkpt>
<trkpt lat="53.0859490000" lon="-4.1125510000"><ele>678</ele><time>2016-10-15T11:49:30Z</time></trkpt>
<trkpt lat="53.0859490000" lon="-4.1125510000"><ele>678</ele><time>2016-10-15T11:49:32Z</time></trkpt>
<trkpt lat="53.0859500000" lon="-4.1125510000"><ele>678</ele><time>2016-10-15T11:49:33Z</time></trkpt>
<trkpt lat="53.0859500000" lon="-4.1125500000"><ele>678</ele><time>2016-10-15T11:49:34Z</time></trkpt>
<trkpt lat="53.0859500000" lon="-4.1125500000"><ele>678</ele><time>2016-10-15T11:49:35Z</time></trkpt>
<trkpt lat="53.0859500000" lon="-4.1125500000"><ele>678</ele><time>2016-10-15T11:49:36Z</time></trkpt>
<trkpt lat="53.0859510000" lon="-4.1125500000"><ele>678</ele><time>2016-10-15T11:49:37Z</time></trkpt>
<trkpt lat="53.0859510000" lon="-4.1125490000"><ele>678</ele><time>2016-10-15T11:49:38Z</time></trkpt>
<trkpt lat="53.0859510000" lon="-4.1125490000"><ele>678</ele><time>2016-10-15T11:49:39Z</time></trkpt>
<trkpt lat="53.0859520000" lon="-4.1125480000"><ele>678</ele><time>2016-10-15T11:49:40Z</time></trkpt>
<trkpt lat="53.0859520000" lon="-4.1125480000"><ele>678</ele><time>2016-10-15T11:49:41Z</time></trkpt>
<trkpt lat="53.0859520000" lon="-4.1125470000"><ele>678</ele><time>2016-10-15T11:49:42Z</time></trkpt>
<trkpt lat="53.0859530000" lon="-4.1125460000"><ele>678</ele><time>2016-10-15T11:49:43Z</time></trkpt>
<trkpt lat="53.0859530000" lon="-4.1125450000"><ele>678</ele><time>2016-10-15T11:49:44Z</time></trkpt>
<trkpt lat="53.0859540000" lon="-4.1125440000"><ele>678</ele><time>2016-10-15T11:49:45Z</time></trkpt>
<trkpt lat="53.0859540000" lon="-4.1125430000"><ele>678</ele><time>2016-10-15T11:49:46Z</time></trkpt>
<trkpt lat="53.0859550000" lon="-4.1125420000"><ele>678</ele><time>2016-10-15T11:49:47Z</time></trkpt>
<trkpt lat="53.0859550000" lon="-4.1125410000"><ele>678</ele><time>2016-10-15T11:49:48Z</time></trkpt>
<trkpt lat="53.0859560000" lon="-4.1125390000"><ele>678</ele><time>2016-10-15T11:49:49Z</time></trkpt>
<trkpt lat="53.0859570000" lon="-4.1125380000"><ele>678</ele><time>2016-10-15T11:49:50Z</time></trkpt>
<trkpt lat="53.0859570000" lon="-4.1125380000"><ele>679</ele><time>2016-10-15T11:49:51Z</time></trkpt>
<trkpt lat="53.0859570000" lon="-4.1125370000"><ele>679</ele><time>2016-10-15T11:49:52Z</time></trkpt>
<trkpt lat="53.0859580000" lon="-4.1125360000"><ele>679</ele><time>2016-10-15T11:49:53Z</time></trkpt>
<trkpt lat="53.0859580000" lon="-4.1125340000"><ele>679</ele><time>2016-10-15T11:49:54Z</time></trkpt>
<trkpt lat="53.0859580000" lon="-4.1125330000"><ele>679</ele><time>2016-10-15T11:49:55Z</time></trkpt>
<trkpt lat="53.0859590000" lon="-4.1125320000"><ele>679</ele><time>2016-10-15T11:49:56Z</time></trkpt>
<trkpt lat="53.0859590000" lon="-4.1125320000"><ele>679</ele><time>2016-10-15T11:49:57Z</time></trkpt>
<trkpt lat="53.0859590000" lon="-4.1125310000"><ele>679</ele><time>2016-10-15T11:49:58Z</time></trkpt>
<trkpt lat="53.0859590000" lon="-4.1125300000"><ele>679</ele><time>2016-10-15T11:49:59Z</time></trkpt>
<trkpt lat="53.0859590000" lon="-4.1125300000"><ele>679</ele><time>2016-10-15T11:50:00Z</time></trkpt>
<trkpt lat="53.0859590000" lon="-4.1125300000"><ele>679</ele><time>2016-10-15T11:50:01Z</time></trkpt>
<trkpt lat="53.0859590000" lon="-4.1125300000"><ele>679</ele><time>2016-10-15T11:50:02Z</time></trkpt>
<trkpt lat="53.0859590000" lon="-4.1125300000"><ele>679</ele><time>2016-10-15T11:50:03Z</time></trkpt>
<trkpt lat="53.0859590000" lon="-4.1125290000"><ele>680</ele><time>2016-10-15T11:50:05Z</time></trkpt>
<trkpt lat="53.0859590000" lon="-4.1125290000"><ele>680</ele><time>2016-10-15T11:50:06Z</time></trkpt>
<trkpt lat="53.0859600000" lon="-4.1125290000"><ele>680</ele><time>2016-10-15T11:50:07Z</time></trkpt>
<trkpt lat="53.0859600000" lon="-4.1125290000"><ele>680</ele><time>2016-10-15T11:50:08Z</time></trkpt>
<trkpt lat="53.0859600000" lon="-4.1125290000"><ele>680</ele><time>2016-10-15T11:50:09Z</time></trkpt>
<trkpt lat="53.0859600000" lon="-4.1125290000"><ele>680</ele><time>2016-10-15T11:50:10Z</time></trkpt>
<trkpt lat="53.0859600000" lon="-4.1125290000"><ele>680</ele><time>2016-10-15T11:50:11Z</time></trkpt>
<trkpt lat="53.0859600000" lon="-4.1125290000"><ele>680</ele><time>2016-10-15T11:50:12Z</time></trkpt>
<trkpt lat="53.0859600000" lon="-4.1125300000"><ele>680</ele><time>2016-10-15T11:50:13Z</time></trkpt>
<trkpt lat="53.0859600000" lon="-4.1125300000"><ele>680</ele><time>2016-10-15T11:50:14Z</time></trkpt>
<trkpt lat="53.0859600000" lon="-4.1125310000"><ele>680</ele><time>2016-10-15T11:50:15Z</time></trkpt>
<trkpt lat="53.0859600000" lon="-4.1125310000"><ele>680</ele><time>2016-10-15T11:50:16Z</time></trkpt>
<trkpt lat="53.0859600000" lon="-4.1125320000"><ele>680</ele><time>2016-10-15T11:50:17Z</time></trkpt>
<trkpt lat="53.0859600000" lon="-4.1125330000"><ele>680</ele><time>2016-10-15T11:50:18Z</time></trkpt>
<trkpt lat="53.0859600000" lon="-4.1125340000"><ele>680</ele><time>2016-10-15T11:50:19Z</time></trkpt>
<trkpt lat="53.0859610000" lon="-4.1125360000"><ele>680</ele><time>2016-10-15T11:50:20Z</time></trkpt>
<trkpt lat="53.0859610000" lon="-4.1125380000"><ele>680</ele><time>2016-10-15T11:50:21Z</time></trkpt>
<trkpt lat="53.0859620000" lon="-4.1125390000"><ele>680</ele><time>2016-10-15T11:50:22Z</time></trkpt>
<trkpt lat="53.0859620000" lon="-4.1125410000"><ele>680</ele><time>2016-10-15T11:50:23Z</time></trkpt>
<trkpt lat="53.0859630000" lon="-4.1125420000"><ele>680</ele><time>2016-10-15T11:50:24Z</time></trkpt>
<trkpt lat="53.0859630000" lon="-4.1125430000"><ele>680</ele><time>2016-10-15T11:50:25Z</time></trkpt>
<trkpt lat="53.0859630000" lon="-4.1125440000"><ele>680</ele><time>2016-10-15T11:50:26Z</time></trkpt>
<trkpt lat="53.0859640000" lon="-4.1125440000"><ele>680</ele><time>2016-10-15T11:50:27Z</time></trkpt>
<trkpt lat="53.0859640000" lon="-4.1125440000"><ele>680</ele><time>2016-10-15T11:50:28Z</time></trkpt>
<trkpt lat="53.0859650000" lon="-4.1125430000"><ele>680</ele><time>2016-10-15T11:50:29Z</time></trkpt>
<trkpt lat="53.0859650000" lon="-4.1125420000"><ele>680</ele><time>2016-10-15T11:50:30Z</time></trkpt>
<trkpt lat="53.0859670000" lon="-4.1125400000"><ele>680</ele><time>2016-10-15T11:50:31Z</time></trkpt>
<trkpt lat="53.0859680000" lon="-4.1125390000"><ele>680</ele><time>2016-10-15T11:50:32Z</time></trkpt>
<trkpt lat="53.0859690000" lon="-4.1125380000"><ele>680</ele><time>2016-10-15T11:50:33Z</time></trkpt>
<trkpt lat="53.0859700000" lon="-4.1125370000"><ele>680</ele><time>2016-10-15T11:50:34Z</time></trkpt>
<trkpt lat="53.0859710000" lon="-4.1125360000"><ele>680</ele><time>2016-10-15T11:50:35Z</time></trkpt>
<trkpt lat="53.0859730000" lon="-4.1125340000"><ele>680</ele><time>2016-10-15T11:50:36Z</time></trkpt>
<trkpt lat="53.0859750000" lon="-4.1125330000"><ele>680</ele><time>2016-10-15T11:50:37Z</time></trkpt>
<trkpt lat="53.0859760000" lon="-4.1125320000"><ele>680</ele><time>2016-10-15T11:50:38Z</time></trkpt>
<trkpt lat="53.0859780000" lon="-4.1125310000"><ele>680</ele><time>2016-10-15T11:50:39Z</time></trkpt>
<trkpt lat="53.0859800000" lon="-4.1125300000"><ele>680</ele><time>2016-10-15T11:50:40Z</time></trkpt>
<trkpt lat="53.0859820000" lon="-4.1125290000"><ele>680</ele><time>2016-10-15T11:50:41Z</time></trkpt>
<trkpt lat="53.0859840000" lon="-4.1125290000"><ele>680</ele><time>2016-10-15T11:50:42Z</time></trkpt>
<trkpt lat="53.0859860000" lon="-4.1125290000"><ele>680</ele><time>2016-10-15T11:50:43Z</time></trkpt>
<trkpt lat="53.0859880000" lon="-4.1125290000"><ele>680</ele><time>2016-10-15T11:50:44Z</time></trkpt>
<trkpt lat="53.0859900000" lon="-4.1125300000"><ele>679</ele><time>2016-10-15T11:50:45Z</time></trkpt>
<trkpt lat="53.0859920000" lon="-4.1125310000"><ele>679</ele><time>2016-10-15T11:50:46Z</time></trkpt>
<trkpt lat="53.0859940000" lon="-4.1125330000"><ele>679</ele><time>2016-10-15T11:50:47Z</time></trkpt>
<trkpt lat="53.0859950000" lon="-4.1125340000"><ele>679</ele><time>2016-10-15T11:50:48Z</time></trkpt>
<trkpt lat="53.0859970000" lon="-4.1125350000"><ele>679</ele><time>2016-10-15T11:50:49Z</time></trkpt>
<trkpt lat="53.0859990000" lon="-4.1125360000"><ele>679</ele><time>2016-10-15T11:50:50Z</time></trkpt>
<trkpt lat="53.0860000000" lon="-4.1125370000"><ele>679</ele><time>2016-10-15T11:50:51Z</time></trkpt>
<trkpt lat="53.0860030000" lon="-4.1125400000"><ele>679</ele><time>2016-10-15T11:50:53Z</time></trkpt>
<trkpt lat="53.0860040000" lon="-4.1125420000"><ele>679</ele><time>2016-10-15T11:50:54Z</time></trkpt>
<trkpt lat="53.0860060000" lon="-4.1125440000"><ele>679</ele><time>2016-10-15T11:50:55Z</time></trkpt>
<trkpt lat="53.0860070000" lon="-4.1125460000"><ele>679</ele><time>2016-10-15T11:50:56Z</time></trkpt>
<trkpt lat="53.0860080000" lon="-4.1125490000"><ele>679</ele><time>2016-10-15T11:50:57Z</time></trkpt>
<trkpt lat="53.0860100000" lon="-4.1125510000"><ele>679</ele><time>2016-10-15T11:50:58Z</time></trkpt>
<trkpt lat="53.0860110000" lon="-4.1125540000"><ele>679</ele><time>2016-10-15T11:50:59Z</time></trkpt>
<trkpt lat="53.0860130000" lon="-4.1125560000"><ele>679</ele><time>2016-10-15T11:51:00Z</time></trkpt>
<trkpt lat="53.0860150000" lon="-4.1125580000"><ele>679</ele><time>2016-10-15T11:51:01Z</time></trkpt>
<trkpt lat="53.0860170000" lon="-4.1125600000"><ele>678</ele><time>2016-10-15T11:51:02Z</time></trkpt>
<trkpt lat="53.0860180000" lon="-4.1125620000"><ele>678</ele><time>2016-10-15T11:51:03Z</time></trkpt>
<trkpt lat="53.0860190000" lon="-4.1125630000"><ele>678</ele><time>2016-10-15T11:51:04Z</time></trkpt>
<trkpt lat="53.0860210000" lon="-4.1125650000"><ele>678</ele><time>2016-10-15T11:51:05Z</time></trkpt>
<trkpt lat="53.0860220000" lon="-4.1125660000"><ele>678</ele><time>2016-10-15T11:51:06Z</time></trkpt>
<trkpt lat="53.0860220000" lon="-4.1125670000"><ele>678</ele><time>2016-10-15T11:51:07Z</time></trkpt>
<trkpt lat="53.0860230000" lon="-4.1125670000"><ele>678</ele><time>2016-10-15T11:51:08Z</time></trkpt>
<trkpt lat="53.0860240000" lon="-4.1125680000"><ele>678</ele><time>2016-10-15T11:51:09Z</time></trkpt>
<trkpt lat="53.0860240000" lon="-4.1125680000"><ele>678</ele><time>2016-10-15T11:51:10Z</time></trkpt>
<trkpt lat="53.0860250000" lon="-4.1125680000"><ele>678</ele><time>2016-10-15T11:51:11Z</time></trkpt>
<trkpt lat="53.0860250000" lon="-4.1125680000"><ele>678</ele><time>2016-10-15T11:51:12Z</time></trkpt>
<trkpt lat="53.0860260000" lon="-4.1125680000"><ele>678</ele><time>2016-10-15T11:51:13Z</time></trkpt>
<trkpt lat="53.0860260000" lon="-4.1125680000"><ele>678</ele><time>2016-10-15T11:51:14Z</time></trkpt>
<trkpt lat="53.0860260000" lon="-4.1125680000"><ele>678</ele><time>2016-10-15T11:51:15Z</time></trkpt>
<trkpt lat="53.0860260000" lon="-4.1125670000"><ele>678</ele><time>2016-10-15T11:51:16Z</time></trkpt>
<trkpt lat="53.0860250000" lon="-4.1125670000"><ele>678</ele><time>2016-10-15T11:51:17Z</time></trkpt>
<trkpt lat="53.0860240000" lon="-4.1125670000"><ele>678</ele><time>2016-10-15T11:51:18Z</time></trkpt>
<trkpt lat="53.0860230000" lon="-4.1125660000"><ele>678</ele><time>2016-10-15T11:51:19Z</time></trkpt>
<trkpt lat="53.0860210000" lon="-4.1125660000"><ele>678</ele><time>2016-10-15T11:51:20Z</time></trkpt>
<trkpt lat="53.0860200000" lon="-4.1125660000"><ele>679</ele><time>2016-10-15T11:51:21Z</time></trkpt>
<trkpt lat="53.0860190000" lon="-4.1125660000"><ele>679</ele><time>2016-10-15T11:51:22Z</time></trkpt>
<trkpt lat="53.0860180000" lon="-4.1125660000"><ele>679</ele><time>2016-10-15T11:51:23Z</time></trkpt>
<trkpt lat="53.0860160000" lon="-4.1125650000"><ele>679</ele><time>2016-10-15T11:51:24Z</time></trkpt>
<trkpt lat="53.0860150000" lon="-4.1125650000"><ele>679</ele><time>2016-10-15T11:51:25Z</time></trkpt>
<trkpt lat="53.0860140000" lon="-4.1125650000"><ele>679</ele><time>2016-10-15T11:51:26Z</time></trkpt>
<trkpt lat="53.0860130000" lon="-4.1125640000"><ele>679</ele><time>2016-10-15T11:51:27Z</time></trkpt>
<trkpt lat="53.0860120000" lon="-4.1125640000"><ele>679</ele><time>2016-10-15T11:51:28Z</time></trkpt>
<trkpt lat="53.0860120000" lon="-4.1125640000"><ele>679</ele><time>2016-10-15T11:51:29Z</time></trkpt>
<trkpt lat="53.0860110000" lon="-4.1125640000"><ele>679</ele><time>2016-10-15T11:51:30Z</time></trkpt>
<trkpt lat="53.0860100000" lon="-4.1125630000"><ele>679</ele><time>2016-10-15T11:51:31Z</time></trkpt>
<trkpt lat="53.0860090000" lon="-4.1125630000"><ele>679</ele><time>2016-10-15T11:51:32Z</time></trkpt>
<trkpt lat="53.0860080000" lon="-4.1125620000"><ele>679</ele><time>2016-10-15T11:51:33Z</time></trkpt>
<trkpt lat="53.0860070000" lon="-4.1125610000"><ele>679</ele><time>2016-10-15T11:51:34Z</time></trkpt>
<trkpt lat="53.0860050000" lon="-4.1125610000"><ele>679</ele><time>2016-10-15T11:51:35Z</time></trkpt>
<trkpt lat="53.0860050000" lon="-4.1125600000"><ele>680</ele><time>2016-10-15T11:51:36Z</time></trkpt>
<trkpt lat="53.0860040000" lon="-4.1125590000"><ele>680</ele><time>2016-10-15T11:51:37Z</time></trkpt>
<trkpt lat="53.0860030000" lon="-4.1125590000"><ele>680</ele><time>2016-10-15T11:51:38Z</time></trkpt>
<trkpt lat="53.0860020000" lon="-4.1125580000"><ele>680</ele><time>2016-10-15T11:51:39Z</time></trkpt>
<trkpt lat="53.0860020000" lon="-4.1125570000"><ele>680</ele><time>2016-10-15T11:51:40Z</time></trkpt>
<trkpt lat="53.0860010000" lon="-4.1125570000"><ele>680</ele><time>2016-10-15T11:51:41Z</time></trkpt>
<trkpt lat="53.0860010000" lon="-4.1125570000"><ele>680</ele><time>2016-10-15T11:51:42Z</time></trkpt>
<trkpt lat="53.0860000000" lon="-4.1125560000"><ele>680</ele><time>2016-10-15T11:51:43Z</time></trkpt>
<trkpt lat="53.0860000000" lon="-4.1125540000"><ele>680</ele><time>2016-10-15T11:51:44Z</time></trkpt>
<trkpt lat="53.0860000000" lon="-4.1125520000"><ele>680</ele><time>2016-10-15T11:51:45Z</time></trkpt>
<trkpt lat="53.0860000000" lon="-4.1125500000"><ele>680</ele><time>2016-10-15T11:51:46Z</time></trkpt>
<trkpt lat="53.0860000000" lon="-4.1125470000"><ele>680</ele><time>2016-10-15T11:51:47Z</time></trkpt>
<trkpt lat="53.0860010000" lon="-4.1125430000"><ele>680</ele><time>2016-10-15T11:51:48Z</time></trkpt>
<trkpt lat="53.0860010000" lon="-4.1125390000"><ele>680</ele><time>2016-10-15T11:51:49Z</time></trkpt>
<trkpt lat="53.0860010000" lon="-4.1125360000"><ele>681</ele><time>2016-10-15T11:51:50Z</time></trkpt>
<trkpt lat="53.0860010000" lon="-4.1125320000"><ele>681</ele><time>2016-10-15T11:51:51Z</time></trkpt>
<trkpt lat="53.0860000000" lon="-4.1125240000"><ele>681</ele><time>2016-10-15T11:51:53Z</time></trkpt>
<trkpt lat="53.0860000000" lon="-4.1125210000"><ele>681</ele><time>2016-10-15T11:51:54Z</time></trkpt>
<trkpt lat="53.0860000000" lon="-4.1125180000"><ele>681</ele><time>2016-10-15T11:51:55Z</time></trkpt>
<trkpt lat="53.0859990000" lon="-4.1125150000"><ele>681</ele><time>2016-10-15T11:51:56Z</time></trkpt>
<trkpt lat="53.0859980000" lon="-4.1125130000"><ele>681</ele><time>2016-10-15T11:51:57Z</time></trkpt>
<trkpt lat="53.0859960000" lon="-4.1125130000"><ele>681</ele><time>2016-10-15T11:51:58Z</time></trkpt>
<trkpt lat="53.0859950000" lon="-4.1125130000"><ele>681</ele><time>2016-10-15T11:51:59Z</time></trkpt>
<trkpt lat="53.0859930000" lon="-4.1125140000"><ele>681</ele><time>2016-10-15T11:52:00Z</time></trkpt>
<trkpt lat="53.0859910000" lon="-4.1125150000"><ele>681</ele><time>2016-10-15T11:52:01Z</time></trkpt>
<trkpt lat="53.0859900000" lon="-4.1125170000"><ele>681</ele><time>2016-10-15T11:52:02Z</time></trkpt>
<trkpt lat="53.0859880000" lon="-4.1125190000"><ele>681</ele><time>2016-10-15T11:52:03Z</time></trkpt>
<trkpt lat="53.0859870000" lon="-4.1125220000"><ele>681</ele><time>2016-10-15T11:52:04Z</time></trkpt>
<trkpt lat="53.0859850000" lon="-4.1125240000"><ele>681</ele><time>2016-10-15T11:52:05Z</time></trkpt>
<trkpt lat="53.0859840000" lon="-4.1125260000"><ele>681</ele><time>2016-10-15T11:52:06Z</time></trkpt>
<trkpt lat="53.0859830000" lon="-4.1125290000"><ele>680</ele><time>2016-10-15T11:52:07Z</time></trkpt>
<trkpt lat="53.0859820000" lon="-4.1125310000"><ele>680</ele><time>2016-10-15T11:52:08Z</time></trkpt>
<trkpt lat="53.0859810000" lon="-4.1125340000"><ele>680</ele><time>2016-10-15T11:52:09Z</time></trkpt>
<trkpt lat="53.0859800000" lon="-4.1125360000"><ele>680</ele><time>2016-10-15T11:52:10Z</time></trkpt>
<trkpt lat="53.0859800000" lon="-4.1125380000"><ele>680</ele><time>2016-10-15T11:52:11Z</time></trkpt>
<trkpt lat="53.0859790000" lon="-4.1125410000"><ele>680</ele><time>2016-10-15T11:52:12Z</time></trkpt>
<trkpt lat="53.0859780000" lon="-4.1125430000"><ele>680</ele><time>2016-10-15T11:52:13Z</time></trkpt>
<trkpt lat="53.0859780000" lon="-4.1125450000"><ele>680</ele><time>2016-10-15T11:52:14Z</time></trkpt>
<trkpt lat="53.0859770000" lon="-4.1125470000"><ele>680</ele><time>2016-10-15T11:52:15Z</time></trkpt>
<trkpt lat="53.0859760000" lon="-4.1125490000"><ele>680</ele><time>2016-10-15T11:52:16Z</time></trkpt>
<trkpt lat="53.0859760000" lon="-4.1125510000"><ele>680</ele><time>2016-10-15T11:52:17Z</time></trkpt>
<trkpt lat="53.0859750000" lon="-4.1125530000"><ele>679</ele><time>2016-10-15T11:52:18Z</time></trkpt>
<trkpt lat="53.0859750000" lon="-4.1125550000"><ele>679</ele><time>2016-10-15T11:52:19Z</time></trkpt>
<trkpt lat="53.0859740000" lon="-4.1125570000"><ele>679</ele><time>2016-10-15T11:52:20Z</time></trkpt>
<trkpt lat="53.0859740000" lon="-4.1125590000"><ele>679</ele><time>2016-10-15T11:52:21Z</time></trkpt>
<trkpt lat="53.0859740000" lon="-4.1125610000"><ele>679</ele><time>2016-10-15T11:52:22Z</time></trkpt>
<trkpt lat="53.0859730000" lon="-4.1125630000"><ele>679</ele><time>2016-10-15T11:52:23Z</time></trkpt>
<trkpt lat="53.0859730000" lon="-4.1125650000"><ele>679</ele><time>2016-10-15T11:52:24Z</time></trkpt>
<trkpt lat="53.0859720000" lon="-4.1125660000"><ele>679</ele><time>2016-10-15T11:52:25Z</time></trkpt>
<trkpt lat="53.0859720000" lon="-4.1125680000"><ele>679</ele><time>2016-10-15T11:52:26Z</time></trkpt>
<trkpt lat="53.0859720000" lon="-4.1125700000"><ele>679</ele><time>2016-10-15T11:52:27Z</time></trkpt>
<trkpt lat="53.0859710000" lon="-4.1125720000"><ele>679</ele><time>2016-10-15T11:52:28Z</time></trkpt>
<trkpt lat="53.0859710000" lon="-4.1125740000"><ele>679</ele><time>2016-10-15T11:52:29Z</time></trkpt>
<trkpt lat="53.0859700000" lon="-4.1125760000"><ele>679</ele><time>2016-10-15T11:52:30Z</time></trkpt>
<trkpt lat="53.0859690000" lon="-4.1125780000"><ele>678</ele><time>2016-10-15T11:52:31Z</time></trkpt>
<trkpt lat="53.0859690000" lon="-4.1125790000"><ele>678</ele><time>2016-10-15T11:52:32Z</time></trkpt>
<trkpt lat="53.0859680000" lon="-4.1125810000"><ele>678</ele><time>2016-10-15T11:52:33Z</time></trkpt>
<trkpt lat="53.0859670000" lon="-4.1125830000"><ele>678</ele><time>2016-10-15T11:52:34Z</time></trkpt>
<trkpt lat="53.0859670000" lon="-4.1125840000"><ele>678</ele><time>2016-10-15T11:52:35Z</time></trkpt>
<trkpt lat="53.0859660000" lon="-4.1125850000"><ele>678</ele><time>2016-10-15T11:52:36Z</time></trkpt>
<trkpt lat="53.0859660000" lon="-4.1125860000"><ele>678</ele><time>2016-10-15T11:52:37Z</time></trkpt>
<trkpt lat="53.0859660000" lon="-4.1125870000"><ele>678</ele><time>2016-10-15T11:52:38Z</time></trkpt>
<trkpt lat="53.0859650000" lon="-4.1125880000"><ele>678</ele><time>2016-10-15T11:52:39Z</time></trkpt>
<trkpt lat="53.0859650000" lon="-4.1125890000"><ele>678</ele><time>2016-10-15T11:52:40Z</time></trkpt>
<trkpt lat="53.0859650000" lon="-4.1125890000"><ele>678</ele><time>2016-10-15T11:52:41Z</time></trkpt>
<trkpt lat="53.0859650000" lon="-4.1125900000"><ele>678</ele><time>2016-10-15T11:52:42Z</time></trkpt>
<trkpt lat="53.0859650000" lon="-4.1125910000"><ele>678</ele><time>2016-10-15T11:52:43Z</time></trkpt>
<trkpt lat="53.0859650000" lon="-4.1125910000"><ele>678</ele><time>2016-10-15T11:52:44Z</time></trkpt>
<trkpt lat="53.0859650000" lon="-4.1125920000"><ele>678</ele><time>2016-10-15T11:52:45Z</time></trkpt>
<trkpt lat="53.0859650000" lon="-4.1125920000"><ele>678</ele><time>2016-10-15T11:52:46Z</time></trkpt>
<trkpt lat="53.0859650000" lon="-4.1125930000"><ele>678</ele><time>2016-10-15T11:52:47Z</time></trkpt>
<trkpt lat="53.0859640000" lon="-4.1125930000"><ele>678</ele><time>2016-10-15T11:52:48Z</time></trkpt>
<trkpt lat="53.0859640000" lon="-4.1125940000"><ele>678</ele><time>2016-10-15T11:52:49Z</time></trkpt>
<trkpt lat="53.0859640000" lon="-4.1125940000"><ele>678</ele><time>2016-10-15T11:52:50Z</time></trkpt>
<trkpt lat="53.0859640000" lon="-4.1125940000"><ele>678</ele><time>2016-10-15T11:52:51Z</time></trkpt>
<trkpt lat="53.0859640000" lon="-4.1125950000"><ele>678</ele><time>2016-10-15T11:52:53Z</time></trkpt>
<trkpt lat="53.0859640000" lon="-4.1125960000"><ele>678</ele><time>2016-10-15T11:52:54Z</time></trkpt>
<trkpt lat="53.0859630000" lon="-4.1125960000"><ele>678</ele><time>2016-10-15T11:52:55Z</time></trkpt>
<trkpt lat="53.0859630000" lon="-4.1125970000"><ele>678</ele><time>2016-10-15T11:52:56Z</time></trkpt>
<trkpt lat="53.0859630000" lon="-4.1125970000"><ele>678</ele><time>2016-10-15T11:52:57Z</time></trkpt>
<trkpt lat="53.0859620000" lon="-4.1125970000"><ele>678</ele><time>2016-10-15T11:52:58Z</time></trkpt>
<trkpt lat="53.0859620000" lon="-4.1125970000"><ele>678</ele><time>2016-10-15T11:52:59Z</time></trkpt>
<trkpt lat="53.0859620000" lon="-4.1125970000"><ele>678</ele><time>2016-10-15T11:53:00Z</time></trkpt>
<trkpt lat="53.0859610000" lon="-4.1125970000"><ele>678</ele><time>2016-10-15T11:53:01Z</time></trkpt>
<trkpt lat="53.0859610000" lon="-4.1125970000"><ele>678</ele><time>2016-10-15T11:53:02Z</time></trkpt>
<trkpt lat="53.0859610000" lon="-4.1125960000"><ele>678</ele><time>2016-10-15T11:53:03Z</time></trkpt>
<trkpt lat="53.0859610000" lon="-4.1125960000"><ele>678</ele><time>2016-10-15T11:53:04Z</time></trkpt>
<trkpt lat="53.0859600000" lon="-4.1125950000"><ele>678</ele><time>2016-10-15T11:53:05Z</time></trkpt>
<trkpt lat="53.0859600000" lon="-4.1125950000"><ele>678</ele><time>2016-10-15T11:53:06Z</time></trkpt>
<trkpt lat="53.0859600000" lon="-4.1125940000"><ele>678</ele><time>2016-10-15T11:53:07Z</time></trkpt>
<trkpt lat="53.0859600000" lon="-4.1125930000"><ele>678</ele><time>2016-10-15T11:53:08Z</time></trkpt>
<trkpt lat="53.0859590000" lon="-4.1125930000"><ele>678</ele><time>2016-10-15T11:53:09Z</time></trkpt>
<trkpt lat="53.0859590000" lon="-4.1125920000"><ele>678</ele><time>2016-10-15T11:53:10Z</time></trkpt>
<trkpt lat="53.0859580000" lon="-4.1125920000"><ele>678</ele><time>2016-10-15T11:53:11Z</time></trkpt>
<trkpt lat="53.0859580000" lon="-4.1125920000"><ele>678</ele><time>2016-10-15T11:53:12Z</time></trkpt>
<trkpt lat="53.0859580000" lon="-4.1125920000"><ele>678</ele><time>2016-10-15T11:53:13Z</time></trkpt>
<trkpt lat="53.0859580000" lon="-4.1125920000"><ele>678</ele><time>2016-10-15T11:53:14Z</time></trkpt>
<trkpt lat="53.0859570000" lon="-4.1125920000"><ele>678</ele><time>2016-10-15T11:53:15Z</time></trkpt>
<trkpt lat="53.0859570000" lon="-4.1125920000"><ele>678</ele><time>2016-10-15T11:53:16Z</time></trkpt>
<trkpt lat="53.0859570000" lon="-4.1125920000"><ele>678</ele><time>2016-10-15T11:53:17Z</time></trkpt>
<trkpt lat="53.0859570000" lon="-4.1125910000"><ele>679</ele><time>2016-10-15T11:53:18Z</time></trkpt>
<trkpt lat="53.0859570000" lon="-4.1125910000"><ele>679</ele><time>2016-10-15T11:53:19Z</time></trkpt>
<trkpt lat="53.0859570000" lon="-4.1125910000"><ele>679</ele><time>2016-10-15T11:53:20Z</time></trkpt>
<trkpt lat="53.0859570000" lon="-4.1125910000"><ele>679</ele><time>2016-10-15T11:53:21Z</time></trkpt>
<trkpt lat="53.0859560000" lon="-4.1125910000"><ele>679</ele><time>2016-10-15T11:53:22Z</time></trkpt>
<trkpt lat="53.0859560000" lon="-4.1125910000"><ele>679</ele><time>2016-10-15T11:53:23Z</time></trkpt>
<trkpt lat="53.0859560000" lon="-4.1125910000"><ele>679</ele><time>2016-10-15T11:53:24Z</time></trkpt>
<trkpt lat="53.0859560000" lon="-4.1125920000"><ele>679</ele><time>2016-10-15T11:53:25Z</time></trkpt>
<trkpt lat="53.0859560000" lon="-4.1125930000"><ele>679</ele><time>2016-10-15T11:53:26Z</time></trkpt>
<trkpt lat="53.0859560000" lon="-4.1125940000"><ele>679</ele><time>2016-10-15T11:53:27Z</time></trkpt>
<trkpt lat="53.0859550000" lon="-4.1125950000"><ele>679</ele><time>2016-10-15T11:53:28Z</time></trkpt>
<trkpt lat="53.0859550000" lon="-4.1125960000"><ele>679</ele><time>2016-10-15T11:53:29Z</time></trkpt>
<trkpt lat="53.0859550000" lon="-4.1125970000"><ele>679</ele><time>2016-10-15T11:53:30Z</time></trkpt>
<trkpt lat="53.0859550000" lon="-4.1125970000"><ele>679</ele><time>2016-10-15T11:53:31Z</time></trkpt>
<trkpt lat="53.0859550000" lon="-4.1125980000"><ele>679</ele><time>2016-10-15T11:53:32Z</time></trkpt>
<trkpt lat="53.0859550000" lon="-4.1125990000"><ele>679</ele><time>2016-10-15T11:53:33Z</time></trkpt>
<trkpt lat="53.0859550000" lon="-4.1126000000"><ele>679</ele><time>2016-10-15T11:53:34Z</time></trkpt>
<trkpt lat="53.0859550000" lon="-4.1126010000"><ele>679</ele><time>2016-10-15T11:53:35Z</time></trkpt>
<trkpt lat="53.0859550000" lon="-4.1126020000"><ele>679</ele><time>2016-10-15T11:53:36Z</time></trkpt>
<trkpt lat="53.0859550000" lon="-4.1126030000"><ele>679</ele><time>2016-10-15T11:53:37Z</time></trkpt>
<trkpt lat="53.0859550000" lon="-4.1126040000"><ele>679</ele><time>2016-10-15T11:53:38Z</time></trkpt>
<trkpt lat="53.0859550000" lon="-4.1126050000"><ele>679</ele><time>2016-10-15T11:53:39Z</time></trkpt>
<trkpt lat="53.0859550000" lon="-4.1126060000"><ele>679</ele><time>2016-10-15T11:53:40Z</time></trkpt>
<trkpt lat="53.0859550000" lon="-4.1126070000"><ele>679</ele><time>2016-10-15T11:53:41Z</time></trkpt>
<trkpt lat="53.0859550000" lon="-4.1126080000"><ele>679</ele><time>2016-10-15T11:53:42Z</time></trkpt>
<trkpt lat="53.0859550000" lon="-4.1126080000"><ele>679</ele><time>2016-10-15T11:53:43Z</time></trkpt>
<trkpt lat="53.0859550000" lon="-4.1126090000"><ele>679</ele><time>2016-10-15T11:53:44Z</time></trkpt>
<trkpt lat="53.0859550000" lon="-4.1126090000"><ele>679</ele><time>2016-10-15T11:53:45Z</time></trkpt>
<trkpt lat="53.0859550000" lon="-4.1126100000"><ele>679</ele><time>2016-10-15T11:53:46Z</time></trkpt>
<trkpt lat="53.0859550000" lon="-4.1126100000"><ele>679</ele><time>2016-10-15T11:53:47Z</time></trkpt>
<trkpt lat="53.0859550000" lon="-4.1126110000"><ele>679</ele><time>2016-10-15T11:53:48Z</time></trkpt>
<trkpt lat="53.0859550000" lon="-4.1126110000"><ele>679</ele><time>2016-10-15T11:53:49Z</time></trkpt>
<trkpt lat="53.0859550000" lon="-4.1126120000"><ele>679</ele><time>2016-10-15T11:53:50Z</time></trkpt>
<trkpt lat="53.0859550000" lon="-4.1126120000"><ele>679</ele><time>2016-10-15T11:53:51Z</time></trkpt>
<trkpt lat="53.0859550000" lon="-4.1126140000"><ele>679</ele><time>2016-10-15T11:53:53Z</time></trkpt>
<trkpt lat="53.0859550000" lon="-4.1126150000"><ele>679</ele><time>2016-10-15T11:53:54Z</time></trkpt>
<trkpt lat="53.0859550000" lon="-4.1126150000"><ele>679</ele><time>2016-10-15T11:53:55Z</time></trkpt>
<trkpt lat="53.0859550000" lon="-4.1126160000"><ele>679</ele><time>2016-10-15T11:53:56Z</time></trkpt>
<trkpt lat="53.0859550000" lon="-4.1126160000"><ele>679</ele><time>2016-10-15T11:53:57Z</time></trkpt>
<trkpt lat="53.0859550000" lon="-4.1126170000"><ele>679</ele><time>2016-10-15T11:53:58Z</time></trkpt>
<trkpt lat="53.0859550000" lon="-4.1126170000"><ele>679</ele><time>2016-10-15T11:53:59Z</time></trkpt>
<trkpt lat="53.0859550000" lon="-4.1126170000"><ele>679</ele><time>2016-10-15T11:54:00Z</time></trkpt>
<trkpt lat="53.0859550000" lon="-4.1126180000"><ele>679</ele><time>2016-10-15T11:54:01Z</time></trkpt>
<trkpt lat="53.0859550000" lon="-4.1126180000"><ele>679</ele><time>2016-10-15T11:54:02Z</time></trkpt>
<trkpt lat="53.0859550000" lon="-4.1126180000"><ele>679</ele><time>2016-10-15T11:54:05Z</time></trkpt>
<trkpt lat="53.0859550000" lon="-4.1126180000"><ele>680</ele><time>2016-10-15T11:54:06Z</time></trkpt>
<trkpt lat="53.0859550000" lon="-4.1126180000"><ele>680</ele><time>2016-10-15T11:54:07Z</time></trkpt>
<trkpt lat="53.0859550000" lon="-4.1126180000"><ele>680</ele><time>2016-10-15T11:54:08Z</time></trkpt>
<trkpt lat="53.0859540000" lon="-4.1126180000"><ele>680</ele><time>2016-10-15T11:54:09Z</time></trkpt>
<trkpt lat="53.0859540000" lon="-4.1126180000"><ele>680</ele><time>2016-10-15T11:54:10Z</time></trkpt>
<trkpt lat="53.0859540000" lon="-4.1126180000"><ele>680</ele><time>2016-10-15T11:54:11Z</time></trkpt>
<trkpt lat="53.0859540000" lon="-4.1126190000"><ele>680</ele><time>2016-10-15T11:54:12Z</time></trkpt>
<trkpt lat="53.0859540000" lon="-4.1126190000"><ele>680</ele><time>2016-10-15T11:54:13Z</time></trkpt>
<trkpt lat="53.0859540000" lon="-4.1126190000"><ele>680</ele><time>2016-10-15T11:54:14Z</time></trkpt>
<trkpt lat="53.0859530000" lon="-4.1126190000"><ele>680</ele><time>2016-10-15T11:54:15Z</time></trkpt>
<trkpt lat="53.0859530000" lon="-4.1126190000"><ele>680</ele><time>2016-10-15T11:54:16Z</time></trkpt>
<trkpt lat="53.0859530000" lon="-4.1126190000"><ele>680</ele><time>2016-10-15T11:54:17Z</time></trkpt>
<trkpt lat="53.0859530000" lon="-4.1126190000"><ele>680</ele><time>2016-10-15T11:54:18Z</time></trkpt>
<trkpt lat="53.0859530000" lon="-4.1126190000"><ele>680</ele><time>2016-10-15T11:54:19Z</time></trkpt>
<trkpt lat="53.0859530000" lon="-4.1126190000"><ele>680</ele><time>2016-10-15T11:54:20Z</time></trkpt>
<trkpt lat="53.0859530000" lon="-4.1126190000"><ele>680</ele><time>2016-10-15T11:54:21Z</time></trkpt>
<trkpt lat="53.0859530000" lon="-4.1126180000"><ele>680</ele><time>2016-10-15T11:54:22Z</time></trkpt>
<trkpt lat="53.0859530000" lon="-4.1126180000"><ele>680</ele><time>2016-10-15T11:54:23Z</time></trkpt>
<trkpt lat="53.0859530000" lon="-4.1126180000"><ele>680</ele><time>2016-10-15T11:54:24Z</time></trkpt>
<trkpt lat="53.0859530000" lon="-4.1126180000"><ele>680</ele><time>2016-10-15T11:54:25Z</time></trkpt>
<trkpt lat="53.0859530000" lon="-4.1126170000"><ele>680</ele><time>2016-10-15T11:54:26Z</time></trkpt>
<trkpt lat="53.0859530000" lon="-4.1126170000"><ele>680</ele><time>2016-10-15T11:54:27Z</time></trkpt>
<trkpt lat="53.0859530000" lon="-4.1126170000"><ele>680</ele><time>2016-10-15T11:54:28Z</time></trkpt>
<trkpt lat="53.0859530000" lon="-4.1126160000"><ele>680</ele><time>2016-10-15T11:54:29Z</time></trkpt>
<trkpt lat="53.0859530000" lon="-4.1126160000"><ele>680</ele><time>2016-10-15T11:54:30Z</time></trkpt>
<trkpt lat="53.0859530000" lon="-4.1126160000"><ele>680</ele><time>2016-10-15T11:54:31Z</time></trkpt>
<trkpt lat="53.0859530000" lon="-4.1126160000"><ele>680</ele><time>2016-10-15T11:54:32Z</time></trkpt>
<trkpt lat="53.0859530000" lon="-4.1126160000"><ele>680</ele><time>2016-10-15T11:54:33Z</time></trkpt>
<trkpt lat="53.0859530000" lon="-4.1126160000"><ele>680</ele><time>2016-10-15T11:54:34Z</time></trkpt>
<trkpt lat="53.0859530000" lon="-4.1126150000"><ele>680</ele><time>2016-10-15T11:54:35Z</time></trkpt>
<trkpt lat="53.0859540000" lon="-4.1126150000"><ele>680</ele><time>2016-10-15T11:54:36Z</time></trkpt>
<trkpt lat="53.0859540000" lon="-4.1126150000"><ele>680</ele><time>2016-10-15T11:54:37Z</time></trkpt>
<trkpt lat="53.0859540000" lon="-4.1126150000"><ele>680</ele><time>2016-10-15T11:54:38Z</time></trkpt>
<trkpt lat="53.0859540000" lon="-4.1126150000"><ele>681</ele><time>2016-10-15T11:54:39Z</time></trkpt>
<trkpt lat="53.0859540000" lon="-4.1126150000"><ele>681</ele><time>2016-10-15T11:54:40Z</time></trkpt>
<trkpt lat="53.0859550000" lon="-4.1126150000"><ele>681</ele><time>2016-10-15T11:54:41Z</time></trkpt>
<trkpt lat="53.0859550000" lon="-4.1126140000"><ele>681</ele><time>2016-10-15T11:54:42Z</time></trkpt>
<trkpt lat="53.0859550000" lon="-4.1126140000"><ele>681</ele><time>2016-10-15T11:54:43Z</time></trkpt>
<trkpt lat="53.0859540000" lon="-4.1126140000"><ele>681</ele><time>2016-10-15T11:54:44Z</time></trkpt>
<trkpt lat="53.0859540000" lon="-4.1126140000"><ele>681</ele><time>2016-10-15T11:54:45Z</time></trkpt>
<trkpt lat="53.0859540000" lon="-4.1126140000"><ele>681</ele><time>2016-10-15T11:54:46Z</time></trkpt>
<trkpt lat="53.0859530000" lon="-4.1126140000"><ele>681</ele><time>2016-10-15T11:54:47Z</time></trkpt>
<trkpt lat="53.0859520000" lon="-4.1126140000"><ele>681</ele><time>2016-10-15T11:54:48Z</time></trkpt>
<trkpt lat="53.0859520000" lon="-4.1126140000"><ele>681</ele><time>2016-10-15T11:54:49Z</time></trkpt>
<trkpt lat="53.0859520000" lon="-4.1126140000"><ele>681</ele><time>2016-10-15T11:54:50Z</time></trkpt>
<trkpt lat="53.0859510000" lon="-4.1126140000"><ele>680</ele><time>2016-10-15T11:54:51Z</time></trkpt>
<trkpt lat="53.0859510000" lon="-4.1126140000"><ele>680</ele><time>2016-10-15T11:54:53Z</time></trkpt>
<trkpt lat="53.0859500000" lon="-4.1126140000"><ele>680</ele><time>2016-10-15T11:54:54Z</time></trkpt>
<trkpt lat="53.0859500000" lon="-4.1126140000"><ele>680</ele><time>2016-10-15T11:54:55Z</time></trkpt>
<trkpt lat="53.0859500000" lon="-4.1126140000"><ele>680</ele><time>2016-10-15T11:54:56Z</time></trkpt>
<trkpt lat="53.0859490000" lon="-4.1126140000"><ele>680</ele><time>2016-10-15T11:54:57Z</time></trkpt>
<trkpt lat="53.0859490000" lon="-4.1126140000"><ele>680</ele><time>2016-10-15T11:54:58Z</time></trkpt>
<trkpt lat="53.0859490000" lon="-4.1126140000"><ele>680</ele><time>2016-10-15T11:54:59Z</time></trkpt>
<trkpt lat="53.0859490000" lon="-4.1126150000"><ele>680</ele><time>2016-10-15T11:55:00Z</time></trkpt>
<trkpt lat="53.0859490000" lon="-4.1126150000"><ele>680</ele><time>2016-10-15T11:55:01Z</time></trkpt>
<trkpt lat="53.0859490000" lon="-4.1126150000"><ele>680</ele><time>2016-10-15T11:55:02Z</time></trkpt>
<trkpt lat="53.0859490000" lon="-4.1126150000"><ele>680</ele><time>2016-10-15T11:55:03Z</time></trkpt>
<trkpt lat="53.0859490000" lon="-4.1126150000"><ele>680</ele><time>2016-10-15T11:55:04Z</time></trkpt>
<trkpt lat="53.0859490000" lon="-4.1126150000"><ele>680</ele><time>2016-10-15T11:55:05Z</time></trkpt>
<trkpt lat="53.0859490000" lon="-4.1126160000"><ele>680</ele><time>2016-10-15T11:55:06Z</time></trkpt>
<trkpt lat="53.0859490000" lon="-4.1126160000"><ele>680</ele><time>2016-10-15T11:55:07Z</time></trkpt>
<trkpt lat="53.0859490000" lon="-4.1126160000"><ele>680</ele><time>2016-10-15T11:55:08Z</time></trkpt>
<trkpt lat="53.0859500000" lon="-4.1126160000"><ele>680</ele><time>2016-10-15T11:55:09Z</time></trkpt>
<trkpt lat="53.0859500000" lon="-4.1126160000"><ele>681</ele><time>2016-10-15T11:55:10Z</time></trkpt>
<trkpt lat="53.0859500000" lon="-4.1126160000"><ele>681</ele><time>2016-10-15T11:55:11Z</time></trkpt>
<trkpt lat="53.0859510000" lon="-4.1126160000"><ele>681</ele><time>2016-10-15T11:55:12Z</time></trkpt>
<trkpt lat="53.0859510000" lon="-4.1126170000"><ele>681</ele><time>2016-10-15T11:55:13Z</time></trkpt>
<trkpt lat="53.0859510000" lon="-4.1126170000"><ele>681</ele><time>2016-10-15T11:55:14Z</time></trkpt>
<trkpt lat="53.0859510000" lon="-4.1126170000"><ele>681</ele><time>2016-10-15T11:55:15Z</time></trkpt>
<trkpt lat="53.0859510000" lon="-4.1126170000"><ele>681</ele><time>2016-10-15T11:55:16Z</time></trkpt>
<trkpt lat="53.0859510000" lon="-4.1126170000"><ele>681</ele><time>2016-10-15T11:55:17Z</time></trkpt>
<trkpt lat="53.0859520000" lon="-4.1126180000"><ele>681</ele><time>2016-10-15T11:55:18Z</time></trkpt>
<trkpt lat="53.0859520000" lon="-4.1126180000"><ele>681</ele><time>2016-10-15T11:55:19Z</time></trkpt>
<trkpt lat="53.0859520000" lon="-4.1126180000"><ele>682</ele><time>2016-10-15T11:55:20Z</time></trkpt>
<trkpt lat="53.0859520000" lon="-4.1126180000"><ele>682</ele><time>2016-10-15T11:55:21Z</time></trkpt>
<trkpt lat="53.0859530000" lon="-4.1126180000"><ele>682</ele><time>2016-10-15T11:55:22Z</time></trkpt>
<trkpt lat="53.0859530000" lon="-4.1126180000"><ele>682</ele><time>2016-10-15T11:55:23Z</time></trkpt>
<trkpt lat="53.0859530000" lon="-4.1126180000"><ele>682</ele><time>2016-10-15T11:55:24Z</time></trkpt>
<trkpt lat="53.0859540000" lon="-4.1126180000"><ele>682</ele><time>2016-10-15T11:55:25Z</time></trkpt>
<trkpt lat="53.0859540000" lon="-4.1126180000"><ele>682</ele><time>2016-10-15T11:55:26Z</time></trkpt>
<trkpt lat="53.0859540000" lon="-4.1126190000"><ele>682</ele><time>2016-10-15T11:55:27Z</time></trkpt>
<trkpt lat="53.0859540000" lon="-4.1126190000"><ele>682</ele><time>2016-10-15T11:55:28Z</time></trkpt>
<trkpt lat="53.0859540000" lon="-4.1126190000"><ele>683</ele><time>2016-10-15T11:55:29Z</time></trkpt>
<trkpt lat="53.0859540000" lon="-4.1126200000"><ele>683</ele><time>2016-10-15T11:55:30Z</time></trkpt>
<trkpt lat="53.0859540000" lon="-4.1126190000"><ele>683</ele><time>2016-10-15T11:55:32Z</time></trkpt>
<trkpt lat="53.0859540000" lon="-4.1126190000"><ele>683</ele><time>2016-10-15T11:55:33Z</time></trkpt>
<trkpt lat="53.0859540000" lon="-4.1126190000"><ele>683</ele><time>2016-10-15T11:55:34Z</time></trkpt>
<trkpt lat="53.0859540000" lon="-4.1126190000"><ele>683</ele><time>2016-10-15T11:55:35Z</time></trkpt>
<trkpt lat="53.0859540000" lon="-4.1126190000"><ele>683</ele><time>2016-10-15T11:55:36Z</time></trkpt>
<trkpt lat="53.0859540000" lon="-4.1126190000"><ele>683</ele><time>2016-10-15T11:55:37Z</time></trkpt>
<trkpt lat="53.0859540000" lon="-4.1126190000"><ele>683</ele><time>2016-10-15T11:55:38Z</time></trkpt>
<trkpt lat="53.0859540000" lon="-4.1126190000"><ele>683</ele><time>2016-10-15T11:55:39Z</time></trkpt>
<trkpt lat="53.0859540000" lon="-4.1126180000"><ele>683</ele><time>2016-10-15T11:55:40Z</time></trkpt>
<trkpt lat="53.0859540000" lon="-4.1126180000"><ele>683</ele><time>2016-10-15T11:55:41Z</time></trkpt>
<trkpt lat="53.0859540000" lon="-4.1126180000"><ele>683</ele><time>2016-10-15T11:55:43Z</time></trkpt>
<trkpt lat="53.0859540000" lon="-4.1126180000"><ele>683</ele><time>2016-10-15T11:55:44Z</time></trkpt>
<trkpt lat="53.0859540000" lon="-4.1126180000"><ele>683</ele><time>2016-10-15T11:55:45Z</time></trkpt>
<trkpt lat="53.0859540000" lon="-4.1126170000"><ele>683</ele><time>2016-10-15T11:55:46Z</time></trkpt>
<trkpt lat="53.0859540000" lon="-4.1126170000"><ele>683</ele><time>2016-10-15T11:55:47Z</time></trkpt>
<trkpt lat="53.0859530000" lon="-4.1126170000"><ele>683</ele><time>2016-10-15T11:55:48Z</time></trkpt>
<trkpt lat="53.0859530000" lon="-4.1126170000"><ele>683</ele><time>2016-10-15T11:55:49Z</time></trkpt>
<trkpt lat="53.0859530000" lon="-4.1126170000"><ele>683</ele><time>2016-10-15T11:55:50Z</time></trkpt>
<trkpt lat="53.0859520000" lon="-4.1126160000"><ele>683</ele><time>2016-10-15T11:55:51Z</time></trkpt>
<trkpt lat="53.0859510000" lon="-4.1126160000"><ele>683</ele><time>2016-10-15T11:55:53Z</time></trkpt>
<trkpt lat="53.0859510000" lon="-4.1126160000"><ele>683</ele><time>2016-10-15T11:55:54Z</time></trkpt>
<trkpt lat="53.0859500000" lon="-4.1126150000"><ele>683</ele><time>2016-10-15T11:55:55Z</time></trkpt>
<trkpt lat="53.0859490000" lon="-4.1126150000"><ele>682</ele><time>2016-10-15T11:55:56Z</time></trkpt>
<trkpt lat="53.0859490000" lon="-4.1126150000"><ele>682</ele><time>2016-10-15T11:55:57Z</time></trkpt>
<trkpt lat="53.0859490000" lon="-4.1126150000"><ele>682</ele><time>2016-10-15T11:55:58Z</time></trkpt>
<trkpt lat="53.0859480000" lon="-4.1126160000"><ele>682</ele><time>2016-10-15T11:55:59Z</time></trkpt>
<trkpt lat="53.0859480000" lon="-4.1126160000"><ele>682</ele><time>2016-10-15T11:56:00Z</time></trkpt>
<trkpt lat="53.0859470000" lon="-4.1126170000"><ele>682</ele><time>2016-10-15T11:56:01Z</time></trkpt>
<trkpt lat="53.0859470000" lon="-4.1126170000"><ele>682</ele><time>2016-10-15T11:56:02Z</time></trkpt>
<trkpt lat="53.0859470000" lon="-4.1126170000"><ele>682</ele><time>2016-10-15T11:56:03Z</time></trkpt>
<trkpt lat="53.0859460000" lon="-4.1126180000"><ele>682</ele><time>2016-10-15T11:56:04Z</time></trkpt>
<trkpt lat="53.0859460000" lon="-4.1126180000"><ele>682</ele><time>2016-10-15T11:56:05Z</time></trkpt>
<trkpt lat="53.0859460000" lon="-4.1126180000"><ele>682</ele><time>2016-10-15T11:56:06Z</time></trkpt>
<trkpt lat="53.0859460000" lon="-4.1126180000"><ele>682</ele><time>2016-10-15T11:56:07Z</time></trkpt>
<trkpt lat="53.0859460000" lon="-4.1126190000"><ele>682</ele><time>2016-10-15T11:56:08Z</time></trkpt>
<trkpt lat="53.0859450000" lon="-4.1126190000"><ele>682</ele><time>2016-10-15T11:56:09Z</time></trkpt>
<trkpt lat="53.0859450000" lon="-4.1126200000"><ele>682</ele><time>2016-10-15T11:56:10Z</time></trkpt>
<trkpt lat="53.0859450000" lon="-4.1126200000"><ele>682</ele><time>2016-10-15T11:56:11Z</time></trkpt>
<trkpt lat="53.0859440000" lon="-4.1126200000"><ele>681</ele><time>2016-10-15T11:56:12Z</time></trkpt>
<trkpt lat="53.0859440000" lon="-4.1126200000"><ele>681</ele><time>2016-10-15T11:56:13Z</time></trkpt>
<trkpt lat="53.0859440000" lon="-4.1126210000"><ele>681</ele><time>2016-10-15T11:56:14Z</time></trkpt>
<trkpt lat="53.0859430000" lon="-4.1126210000"><ele>681</ele><time>2016-10-15T11:56:15Z</time></trkpt>
<trkpt lat="53.0859430000" lon="-4.1126210000"><ele>681</ele><time>2016-10-15T11:56:16Z</time></trkpt>
<trkpt lat="53.0859420000" lon="-4.1126220000"><ele>681</ele><time>2016-10-15T11:56:17Z</time></trkpt>
<trkpt lat="53.0859420000" lon="-4.1126220000"><ele>681</ele><time>2016-10-15T11:56:18Z</time></trkpt>
<trkpt lat="53.0859420000" lon="-4.1126230000"><ele>681</ele><time>2016-10-15T11:56:19Z</time></trkpt>
<trkpt lat="53.0859410000" lon="-4.1126230000"><ele>681</ele><time>2016-10-15T11:56:20Z</time></trkpt>
<trkpt lat="53.0859410000" lon="-4.1126230000"><ele>681</ele><time>2016-10-15T11:56:21Z</time></trkpt>
<trkpt lat="53.0859400000" lon="-4.1126230000"><ele>681</ele><time>2016-10-15T11:56:22Z</time></trkpt>
<trkpt lat="53.0859400000" lon="-4.1126230000"><ele>681</ele><time>2016-10-15T11:56:23Z</time></trkpt>
<trkpt lat="53.0859400000" lon="-4.1126230000"><ele>681</ele><time>2016-10-15T11:56:24Z</time></trkpt>
<trkpt lat="53.0859400000" lon="-4.1126230000"><ele>681</ele><time>2016-10-15T11:56:25Z</time></trkpt>
<trkpt lat="53.0859400000" lon="-4.1126220000"><ele>680</ele><time>2016-10-15T11:56:26Z</time></trkpt>
<trkpt lat="53.0859400000" lon="-4.1126220000"><ele>680</ele><time>2016-10-15T11:56:27Z</time></trkpt>
<trkpt lat="53.0859400000" lon="-4.1126220000"><ele>680</ele><time>2016-10-15T11:56:28Z</time></trkpt>
<trkpt lat="53.0859400000" lon="-4.1126210000"><ele>680</ele><time>2016-10-15T11:56:29Z</time></trkpt>
<trkpt lat="53.0859400000" lon="-4.1126210000"><ele>680</ele><time>2016-10-15T11:56:30Z</time></trkpt>
<trkpt lat="53.0859440000" lon="-4.1126240000"><ele>679</ele><time>2016-10-15T11:56:44Z</time></trkpt>
<trkpt lat="53.0859440000" lon="-4.1126240000"><ele>679</ele><time>2016-10-15T11:56:46Z</time></trkpt>
<trkpt lat="53.0859440000" lon="-4.1126240000"><ele>678</ele><time>2016-10-15T11:56:50Z</time></trkpt>
<trkpt lat="53.0859430000" lon="-4.1126240000"><ele>678</ele><time>2016-10-15T11:56:51Z</time></trkpt>
<trkpt lat="53.0859430000" lon="-4.1126240000"><ele>678</ele><time>2016-10-15T11:56:52Z</time></trkpt>
<trkpt lat="53.0859430000" lon="-4.1126240000"><ele>678</ele><time>2016-10-15T11:56:53Z</time></trkpt>
<trkpt lat="53.0859420000" lon="-4.1126240000"><ele>677</ele><time>2016-10-15T11:56:54Z</time></trkpt>
<trkpt lat="53.0859420000" lon="-4.1126250000"><ele>677</ele><time>2016-10-15T11:56:56Z</time></trkpt>
<trkpt lat="53.0859410000" lon="-4.1126270000"><ele>677</ele></trkpt>
<trkpt lat="53.0859400000" lon="-4.1126290000"><ele>677</ele><time>2016-10-15T11:56:57Z</time></trkpt>
<trkpt lat="53.0859380000" lon="-4.1126330000"><ele>677</ele><time>2016-10-15T11:56:58Z</time></trkpt>
<trkpt lat="53.0859360000" lon="-4.1126370000"><ele>677</ele><time>2016-10-15T11:56:59Z</time></trkpt>
<trkpt lat="53.0859340000" lon="-4.1126410000"><ele>676</ele><time>2016-10-15T11:57:00Z</time></trkpt>
<trkpt lat="53.0859320000" lon="-4.1126450000"><ele>676</ele><time>2016-10-15T11:57:01Z</time></trkpt>
<trkpt lat="53.0859300000" lon="-4.1126500000"><ele>676</ele><time>2016-10-15T11:57:02Z</time></trkpt>
<trkpt lat="53.0859270000" lon="-4.1126550000"><ele>676</ele><time>2016-10-15T11:57:03Z</time></trkpt>
<trkpt lat="53.0859250000" lon="-4.1126590000"><ele>676</ele><time>2016-10-15T11:57:04Z</time></trkpt>
<trkpt lat="53.0859230000" lon="-4.1126650000"><ele>676</ele><time>2016-10-15T11:57:05Z</time></trkpt>
<trkpt lat="53.0859200000" lon="-4.1126700000"><ele>677</ele><time>2016-10-15T11:57:06Z</time></trkpt>
<trkpt lat="53.0859120000" lon="-4.1126940000"><ele>677</ele><time>2016-10-15T11:57:11Z</time></trkpt>
<trkpt lat="53.0859110000" lon="-4.1126980000"><ele>677</ele><time>2016-10-15T11:57:12Z</time></trkpt>
<trkpt lat="53.0859090000" lon="-4.1127010000"><ele>677</ele><time>2016-10-15T11:57:13Z</time></trkpt>
<trkpt lat="53.0859080000" lon="-4.1127040000"><ele>677</ele><time>2016-10-15T11:57:14Z</time></trkpt>
<trkpt lat="53.0859060000" lon="-4.1127070000"><ele>677</ele><time>2016-10-15T11:57:15Z</time></trkpt>
<trkpt lat="53.0859040000" lon="-4.1127100000"><ele>677</ele><time>2016-10-15T11:57:16Z</time></trkpt>
<trkpt lat="53.0859030000" lon="-4.1127120000"><ele>677</ele><time>2016-10-15T11:57:17Z</time></trkpt>
<trkpt lat="53.0859010000" lon="-4.1127140000"><ele>678</ele><time>2016-10-15T11:57:18Z</time></trkpt>
<trkpt lat="53.0858990000" lon="-4.1127170000"><ele>678</ele><time>2016-10-15T11:57:19Z</time></trkpt>
<trkpt lat="53.0858980000" lon="-4.1127190000"><ele>678</ele><time>2016-10-15T11:57:20Z</time></trkpt>
<trkpt lat="53.0858960000" lon="-4.1127210000"><ele>678</ele><time>2016-10-15T11:57:21Z</time></trkpt>
<trkpt lat="53.0858940000" lon="-4.1127230000"><ele>678</ele><time>2016-10-15T11:57:22Z</time></trkpt>
<trkpt lat="53.0858930000" lon="-4.1127250000"><ele>678</ele><time>2016-10-15T11:57:23Z</time></trkpt>
<trkpt lat="53.0858910000" lon="-4.1127270000"><ele>678</ele><time>2016-10-15T11:57:24Z</time></trkpt>
<trkpt lat="53.0858900000" lon="-4.1127290000"><ele>678</ele><time>2016-10-15T11:57:25Z</time></trkpt>
<trkpt lat="53.0858880000" lon="-4.1127310000"><ele>678</ele><time>2016-10-15T11:57:26Z</time></trkpt>
<trkpt lat="53.0858870000" lon="-4.1127320000"><ele>679</ele><time>2016-10-15T11:57:27Z</time></trkpt>
<trkpt lat="53.0858850000" lon="-4.1127330000"><ele>679</ele><time>2016-10-15T11:57:28Z</time></trkpt>
<trkpt lat="53.0858840000" lon="-4.1127340000"><ele>679</ele><time>2016-10-15T11:57:29Z</time></trkpt>
<trkpt lat="53.0858820000" lon="-4.1127350000"><ele>679</ele><time>2016-10-15T11:57:30Z</time></trkpt>
<trkpt lat="53.0858800000" lon="-4.1127360000"><ele>679</ele><time>2016-10-15T11:57:31Z</time></trkpt>
<trkpt lat="53.0858790000" lon="-4.1127370000"><ele>678</ele><time>2016-10-15T11:57:32Z</time></trkpt>
<trkpt lat="53.0858770000" lon="-4.1127380000"><ele>678</ele><time>2016-10-15T11:57:33Z</time></trkpt>
<trkpt lat="53.0858760000" lon="-4.1127390000"><ele>678</ele><time>2016-10-15T11:57:34Z</time></trkpt>
<trkpt lat="53.0858750000" lon="-4.1127400000"><ele>678</ele><time>2016-10-15T11:57:35Z</time></trkpt>
<trkpt lat="53.0858740000" lon="-4.1127400000"><ele>678</ele><time>2016-10-15T11:57:36Z</time></trkpt>
<trkpt lat="53.0858720000" lon="-4.1127410000"><ele>678</ele><time>2016-10-15T11:57:37Z</time></trkpt>
<trkpt lat="53.0858710000" lon="-4.1127420000"><ele>678</ele><time>2016-10-15T11:57:38Z</time></trkpt>
<trkpt lat="53.0858700000" lon="-4.1127420000"><ele>678</ele><time>2016-10-15T11:57:39Z</time></trkpt>
<trkpt lat="53.0858690000" lon="-4.1127430000"><ele>678</ele><time>2016-10-15T11:57:40Z</time></trkpt>
<trkpt lat="53.0858680000" lon="-4.1127430000"><ele>678</ele><time>2016-10-15T11:57:41Z</time></trkpt>
<trkpt lat="53.0858670000" lon="-4.1127440000"><ele>677</ele><time>2016-10-15T11:57:42Z</time></trkpt>
<trkpt lat="53.0858660000" lon="-4.1127440000"><ele>677</ele><time>2016-10-15T11:57:43Z</time></trkpt>
<trkpt lat="53.0858650000" lon="-4.1127440000"><ele>677</ele><time>2016-10-15T11:57:44Z</time></trkpt>
<trkpt lat="53.0858640000" lon="-4.1127440000"><ele>677</ele><time>2016-10-15T11:57:45Z</time></trkpt>
<trkpt lat="53.0858630000" lon="-4.1127440000"><ele>677</ele><time>2016-10-15T11:57:46Z</time></trkpt>
<trkpt lat="53.0858620000" lon="-4.1127440000"><ele>677</ele><time>2016-10-15T11:57:47Z</time></trkpt>
<trkpt lat="53.0858620000" lon="-4.1127440000"><ele>677</ele><time>2016-10-15T11:57:48Z</time></trkpt>
<trkpt lat="53.0858610000" lon="-4.1127440000"><ele>677</ele><time>2016-10-15T11:57:49Z</time></trkpt>
<trkpt lat="53.0858600000" lon="-4.1127440000"><ele>677</ele><time>2016-10-15T11:57:50Z</time></trkpt>
<trkpt lat="53.0858600000" lon="-4.1127430000"><ele>677</ele><time>2016-10-15T11:57:51Z</time></trkpt>
<trkpt lat="53.0858600000" lon="-4.1127420000"><ele>677</ele><time>2016-10-15T11:57:52Z</time></trkpt>
<trkpt lat="53.0858600000" lon="-4.1127420000"><ele>677</ele><time>2016-10-15T11:57:53Z</time></trkpt>
<trkpt lat="53.0858600000" lon="-4.1127410000"><ele>677</ele><time>2016-10-15T11:57:54Z</time></trkpt>
<trkpt lat="53.0858600000" lon="-4.1127400000"><ele>677</ele><time>2016-10-15T11:57:55Z</time></trkpt>
<trkpt lat="53.0858600000" lon="-4.1127400000"><ele>677</ele><time>2016-10-15T11:57:56Z</time></trkpt>
<trkpt lat="53.0858600000" lon="-4.1127390000"><ele>677</ele><time>2016-10-15T11:57:57Z</time></trkpt>
<trkpt lat="53.0858600000" lon="-4.1127380000"><ele>677</ele><time>2016-10-15T11:57:58Z</time></trkpt>
<trkpt lat="53.0858600000" lon="-4.1127380000"><ele>677</ele><time>2016-10-15T11:57:59Z</time></trkpt>
<trkpt lat="53.0858600000" lon="-4.1127370000"><ele>677</ele><time>2016-10-15T11:58:00Z</time></trkpt>
<trkpt lat="53.0858600000" lon="-4.1127370000"><ele>677</ele><time>2016-10-15T11:58:01Z</time></trkpt>
<trkpt lat="53.0858610000" lon="-4.1127360000"><ele>677</ele><time>2016-10-15T11:58:02Z</time></trkpt>
<trkpt lat="53.0858610000" lon="-4.1127360000"><ele>677</ele><time>2016-10-15T11:58:03Z</time></trkpt>
<trkpt lat="53.0858620000" lon="-4.1127350000"><ele>677</ele><time>2016-10-15T11:58:04Z</time></trkpt>
<trkpt lat="53.0858620000" lon="-4.1127340000"><ele>677</ele><time>2016-10-15T11:58:05Z</time></trkpt>
<trkpt lat="53.0858630000" lon="-4.1127340000"><ele>677</ele><time>2016-10-15T11:58:06Z</time></trkpt>
<trkpt lat="53.0858630000" lon="-4.1127330000"><ele>677</ele><time>2016-10-15T11:58:07Z</time></trkpt>
<trkpt lat="53.0858640000" lon="-4.1127330000"><ele>677</ele><time>2016-10-15T11:58:08Z</time></trkpt>
<trkpt lat="53.0858640000" lon="-4.1127320000"><ele>677</ele><time>2016-10-15T11:58:09Z</time></trkpt>
<trkpt lat="53.0858650000" lon="-4.1127310000"><ele>677</ele><time>2016-10-15T11:58:11Z</time></trkpt>
<trkpt lat="53.0858650000" lon="-4.1127310000"><ele>677</ele></trkpt>
<trkpt lat="53.0858650000" lon="-4.1127300000"><ele>677</ele><time>2016-10-15T11:58:12Z</time></trkpt>
<trkpt lat="53.0858660000" lon="-4.1127300000"><ele>677</ele><time>2016-10-15T11:58:13Z</time></trkpt>
<trkpt lat="53.0858660000" lon="-4.1127300000"><ele>677</ele><time>2016-10-15T11:58:14Z</time></trkpt>
<trkpt lat="53.0858660000" lon="-4.1127290000"><ele>677</ele><time>2016-10-15T11:58:15Z</time></trkpt>
<trkpt lat="53.0858660000" lon="-4.1127290000"><ele>677</ele><time>2016-10-15T11:58:16Z</time></trkpt>
<trkpt lat="53.0858670000" lon="-4.1127290000"><ele>677</ele><time>2016-10-15T11:58:17Z</time></trkpt>
<trkpt lat="53.0858670000" lon="-4.1127300000"><ele>677</ele><time>2016-10-15T11:58:18Z</time></trkpt>
<trkpt lat="53.0858670000" lon="-4.1127300000"><ele>677</ele><time>2016-10-15T11:58:19Z</time></trkpt>
<trkpt lat="53.0858670000" lon="-4.1127320000"><ele>677</ele><time>2016-10-15T11:58:20Z</time></trkpt>
<trkpt lat="53.0858670000" lon="-4.1127350000"><ele>677</ele><time>2016-10-15T11:58:21Z</time></trkpt>
<trkpt lat="53.0858660000" lon="-4.1127380000"><ele>677</ele><time>2016-10-15T11:58:22Z</time></trkpt>
<trkpt lat="53.0858650000" lon="-4.1127420000"><ele>677</ele><time>2016-10-15T11:58:23Z</time></trkpt>
<trkpt lat="53.0858640000" lon="-4.1127470000"><ele>677</ele><time>2016-10-15T11:58:24Z</time></trkpt>
<trkpt lat="53.0858630000" lon="-4.1127520000"><ele>677</ele><time>2016-10-15T11:58:25Z</time></trkpt>
<trkpt lat="53.0858610000" lon="-4.1127590000"><ele>677</ele><time>2016-10-15T11:58:26Z</time></trkpt>
<trkpt lat="53.0858600000" lon="-4.1127650000"><ele>677</ele><time>2016-10-15T11:58:27Z</time></trkpt>
<trkpt lat="53.0858580000" lon="-4.1127730000"><ele>677</ele><time>2016-10-15T11:58:28Z</time></trkpt>
<trkpt lat="53.0858550000" lon="-4.1127810000"><ele>677</ele><time>2016-10-15T11:58:29Z</time></trkpt>
<trkpt lat="53.0858530000" lon="-4.1127890000"><ele>677</ele><time>2016-10-15T11:58:30Z</time></trkpt>
<trkpt lat="53.0858490000" lon="-4.1127990000"><ele>677</ele><time>2016-10-15T11:58:31Z</time></trkpt>
<trkpt lat="53.0858460000" lon="-4.1128090000"><ele>677</ele><time>2016-10-15T11:58:32Z</time></trkpt>
<trkpt lat="53.0858430000" lon="-4.1128190000"><ele>677</ele><time>2016-10-15T11:58:33Z</time></trkpt>
<trkpt lat="53.0858390000" lon="-4.1128300000"><ele>677</ele><time>2016-10-15T11:58:34Z</time></trkpt>
<trkpt lat="53.0858350000" lon="-4.1128410000"><ele>677</ele><time>2016-10-15T11:58:35Z</time></trkpt>
<trkpt lat="53.0858310000" lon="-4.1128530000"><ele>677</ele><time>2016-10-15T11:58:36Z</time></trkpt>
<trkpt lat="53.0858260000" lon="-4.1128640000"><ele>677</ele><time>2016-10-15T11:58:37Z</time></trkpt>
<trkpt lat="53.0858220000" lon="-4.1128760000"><ele>677</ele><time>2016-10-15T11:58:38Z</time></trkpt>
<trkpt lat="53.0858180000" lon="-4.1128880000"><ele>677</ele><time>2016-10-15T11:58:39Z</time></trkpt>
<trkpt lat="53.0858130000" lon="-4.1129010000"><ele>678</ele><time>2016-10-15T11:58:40Z</time></trkpt>
<trkpt lat="53.0858090000" lon="-4.1129140000"><ele>678</ele><time>2016-10-15T11:58:41Z</time></trkpt>
<trkpt lat="53.0858040000" lon="-4.1129270000"><ele>678</ele><time>2016-10-15T11:58:42Z</time></trkpt>
<trkpt lat="53.0857990000" lon="-4.1129400000"><ele>678</ele><time>2016-10-15T11:58:43Z</time></trkpt>
<trkpt lat="53.0857950000" lon="-4.1129540000"><ele>678</ele><time>2016-10-15T11:58:44Z</time></trkpt>
<trkpt lat="53.0857220000" lon="-4.1131720000"><ele>678</ele><time>2016-10-15T11:58:45Z</time></trkpt>
<trkpt lat="53.0857170000" lon="-4.1131900000"><ele>678</ele><time>2016-10-15T11:58:46Z</time></trkpt>
<trkpt lat="53.0857120000" lon="-4.1132090000"><ele>678</ele><time>2016-10-15T11:58:47Z</time></trkpt>
<trkpt lat="53.0857070000" lon="-4.1132290000"><ele>679</ele><time>2016-10-15T11:58:48Z</time></trkpt>
<trkpt lat="53.0857010000" lon="-4.1132480000"><ele>679</ele><time>2016-10-15T11:58:49Z</time></trkpt>
<trkpt lat="53.0856950000" lon="-4.1132670000"><ele>679</ele><time>2016-10-15T11:58:50Z</time></trkpt>
<trkpt lat="53.0856890000" lon="-4.1132840000"><ele>679</ele><time>2016-10-15T11:58:51Z</time></trkpt>
<trkpt lat="53.0856820000" lon="-4.1133010000"><ele>679</ele><time>2016-10-15T11:58:52Z</time></trkpt>
<trkpt lat="53.0856730000" lon="-4.1133200000"><ele>679</ele><time>2016-10-15T11:58:53Z</time></trkpt>
<trkpt lat="53.0856660000" lon="-4.1133360000"><ele>679</ele><time>2016-10-15T11:58:54Z</time></trkpt>
<trkpt lat="53.0856580000" lon="-4.1133550000"><ele>679</ele><time>2016-10-15T11:58:55Z</time></trkpt>
<trkpt lat="53.0856510000" lon="-4.1133730000"><ele>680</ele><time>2016-10-15T11:58:56Z</time></trkpt>
<trkpt lat="53.0856450000" lon="-4.1133900000"><ele>680</ele><time>2016-10-15T11:58:57Z</time></trkpt>
<trkpt lat="53.0856380000" lon="-4.1134060000"><ele>680</ele><time>2016-10-15T11:58:58Z</time></trkpt>
<trkpt lat="53.0856300000" lon="-4.1134240000"><ele>680</ele><time>2016-10-15T11:58:59Z</time></trkpt>
<trkpt lat="53.0856220000" lon="-4.1134420000"><ele>680</ele><time>2016-10-15T11:59:00Z</time></trkpt>
<trkpt lat="53.0856150000" lon="-4.1134580000"><ele>680</ele><time>2016-10-15T11:59:01Z</time></trkpt>
<trkpt lat="53.0856090000" lon="-4.1134750000"><ele>680</ele><time>2016-10-15T11:59:02Z</time></trkpt>
<trkpt lat="53.0856020000" lon="-4.1134950000"><ele>680</ele><time>2016-10-15T11:59:03Z</time></trkpt>
<trkpt lat="53.0855950000" lon="-4.1135130000"><ele>680</ele><time>2016-10-15T11:59:04Z</time></trkpt>
<trkpt lat="53.0855890000" lon="-4.1135290000"><ele>680</ele><time>2016-10-15T11:59:05Z</time></trkpt>
<trkpt lat="53.0855820000" lon="-4.1135500000"><ele>680</ele><time>2016-10-15T11:59:06Z</time></trkpt>
<trkpt lat="53.0855760000" lon="-4.1135680000"><ele>680</ele><time>2016-10-15T11:59:07Z</time></trkpt>
<trkpt lat="53.0855700000" lon="-4.1135850000"><ele>680</ele><time>2016-10-15T11:59:08Z</time></trkpt>
<trkpt lat="53.0855640000" lon="-4.1136000000"><ele>680</ele><time>2016-10-15T11:59:09Z</time></trkpt>
<trkpt lat="53.0855570000" lon="-4.1136170000"><ele>680</ele><time>2016-10-15T11:59:11Z</time></trkpt>
<trkpt lat="53.0855510000" lon="-4.1136320000"><ele>680</ele></trkpt>
<trkpt lat="53.0855440000" lon="-4.1136510000"><ele>680</ele><time>2016-10-15T11:59:12Z</time></trkpt>
<trkpt lat="53.0855370000" lon="-4.1136690000"><ele>680</ele><time>2016-10-15T11:59:13Z</time></trkpt>
<trkpt lat="53.0855300000" lon="-4.1136890000"><ele>680</ele><time>2016-10-15T11:59:14Z</time></trkpt>
<trkpt lat="53.0855210000" lon="-4.1137090000"><ele>680</ele><time>2016-10-15T11:59:15Z</time></trkpt>
<trkpt lat="53.0855120000" lon="-4.1137290000"><ele>680</ele><time>2016-10-15T11:59:16Z</time></trkpt>
<trkpt lat="53.0855030000" lon="-4.1137500000"><ele>679</ele><time>2016-10-15T11:59:17Z</time></trkpt>
<trkpt lat="53.0854940000" lon="-4.1137710000"><ele>679</ele><time>2016-10-15T11:59:18Z</time></trkpt>
<trkpt lat="53.0854870000" lon="-4.1137900000"><ele>679</ele><time>2016-10-15T11:59:19Z</time></trkpt>
<trkpt lat="53.0854790000" lon="-4.1138070000"><ele>679</ele><time>2016-10-15T11:59:20Z</time></trkpt>
<trkpt lat="53.0854710000" lon="-4.1138270000"><ele>679</ele><time>2016-10-15T11:59:21Z</time></trkpt>
<trkpt lat="53.0854640000" lon="-4.1138450000"><ele>679</ele><time>2016-10-15T11:59:22Z</time></trkpt>
<trkpt lat="53.0854580000" lon="-4.1138600000"><ele>679</ele><time>2016-10-15T11:59:23Z</time></trkpt>
<trkpt lat="53.0854510000" lon="-4.1138770000"><ele>679</ele><time>2016-10-15T11:59:24Z</time></trkpt>
<trkpt lat="53.0854430000" lon="-4.1138940000"><ele>679</ele><time>2016-10-15T11:59:25Z</time></trkpt>
<trkpt lat="53.0854330000" lon="-4.1139120000"><ele>678</ele><time>2016-10-15T11:59:26Z</time></trkpt>
<trkpt lat="53.0854240000" lon="-4.1139300000"><ele>678</ele><time>2016-10-15T11:59:27Z</time></trkpt>
<trkpt lat="53.0854140000" lon="-4.1139490000"><ele>678</ele><time>2016-10-15T11:59:28Z</time></trkpt>
<trkpt lat="53.0854060000" lon="-4.1139650000"><ele>678</ele><time>2016-10-15T11:59:29Z</time></trkpt>
<trkpt lat="53.0853920000" lon="-4.1139850000"><ele>678</ele><time>2016-10-15T11:59:30Z</time></trkpt>
<trkpt lat="53.0853810000" lon="-4.1140020000"><ele>678</ele><time>2016-10-15T11:59:31Z</time></trkpt>
<trkpt lat="53.0853720000" lon="-4.1140180000"><ele>677</ele><time>2016-10-15T11:59:32Z</time></trkpt>
<trkpt lat="53.0853650000" lon="-4.1140330000"><ele>677</ele><time>2016-10-15T11:59:33Z</time></trkpt>
<trkpt lat="53.0853580000" lon="-4.1140480000"><ele>677</ele><time>2016-10-15T11:59:34Z</time></trkpt>
<trkpt lat="53.0853510000" lon="-4.1140650000"><ele>677</ele><time>2016-10-15T11:59:35Z</time></trkpt>
<trkpt lat="53.0853430000" lon="-4.1140800000"><ele>677</ele><time>2016-10-15T11:59:36Z</time></trkpt>
<trkpt lat="53.0853360000" lon="-4.1140980000"><ele>676</ele><time>2016-10-15T11:59:37Z</time></trkpt>
<trkpt lat="53.0853280000" lon="-4.1141140000"><ele>676</ele><time>2016-10-15T11:59:38Z</time></trkpt>
<trkpt lat="53.0853210000" lon="-4.1141290000"><ele>676</ele><time>2016-10-15T11:59:39Z</time></trkpt>
<trkpt lat="53.0853150000" lon="-4.1141420000"><ele>676</ele><time>2016-10-15T11:59:40Z</time></trkpt>
<trkpt lat="53.0853080000" lon="-4.1141580000"><ele>676</ele><time>2016-10-15T11:59:41Z</time></trkpt>
<trkpt lat="53.0853010000" lon="-4.1141710000"><ele>676</ele><time>2016-10-15T11:59:42Z</time></trkpt>
<trkpt lat="53.0852940000" lon="-4.1141880000"><ele>675</ele><time>2016-10-15T11:59:43Z</time></trkpt>
<trkpt lat="53.0852860000" lon="-4.1142020000"><ele>675</ele><time>2016-10-15T11:59:44Z</time></trkpt>
<trkpt lat="53.0852770000" lon="-4.1142180000"><ele>675</ele><time>2016-10-15T11:59:45Z</time></trkpt>
<trkpt lat="53.0852680000" lon="-4.1142340000"><ele>675</ele><time>2016-10-15T11:59:46Z</time></trkpt>
<trkpt lat="53.0852600000" lon="-4.1142500000"><ele>675</ele><time>2016-10-15T11:59:47Z</time></trkpt>
<trkpt lat="53.0852510000" lon="-4.1142670000"><ele>674</ele><time>2016-10-15T11:59:48Z</time></trkpt>
<trkpt lat="53.0852430000" lon="-4.1142820000"><ele>674</ele><time>2016-10-15T11:59:49Z</time></trkpt>
<trkpt lat="53.0852350000" lon="-4.1142960000"><ele>674</ele><time>2016-10-15T11:59:50Z</time></trkpt>
<trkpt lat="53.0852270000" lon="-4.1143090000"><ele>674</ele><time>2016-10-15T11:59:51Z</time></trkpt>
<trkpt lat="53.0852270000" lon="-4.1143090000"><ele>674</ele><time>2016-10-15T11:59:52Z</time></trkpt>
<trkpt lat="53.0852080000" lon="-4.1143420000"><ele>674</ele><time>2016-10-15T11:59:53Z</time></trkpt>
<trkpt lat="53.0851990000" lon="-4.1143590000"><ele>673</ele><time>2016-10-15T11:59:54Z</time></trkpt>
<trkpt lat="53.0851910000" lon="-4.1143770000"><ele>673</ele><time>2016-10-15T11:59:55Z</time></trkpt>
<trkpt lat="53.0851830000" lon="-4.1143940000"><ele>673</ele><time>2016-10-15T11:59:56Z</time></trkpt>
<trkpt lat="53.0851740000" lon="-4.1144120000"><ele>673</ele><time>2016-10-15T11:59:57Z</time></trkpt>
<trkpt lat="53.0851640000" lon="-4.1144290000"><ele>673</ele><time>2016-10-15T11:59:58Z</time></trkpt>
<trkpt lat="53.0851550000" lon="-4.1144490000"><ele>672</ele><time>2016-10-15T11:59:59Z</time></trkpt>
<trkpt lat="53.0851480000" lon="-4.1144660000"><ele>672</ele><time>2016-10-15T12:00:00Z</time></trkpt>
<trkpt lat="53.0851390000" lon="-4.1144800000"><ele>672</ele><time>2016-10-15T12:00:01Z</time></trkpt>
<trkpt lat="53.0851290000" lon="-4.1144950000"><ele>672</ele><time>2016-10-15T12:00:02Z</time></trkpt>
<trkpt lat="53.0851200000" lon="-4.1145100000"><ele>671</ele><time>2016-10-15T12:00:03Z</time></trkpt>
<trkpt lat="53.0851110000" lon="-4.1145260000"><ele>671</ele><time>2016-10-15T12:00:04Z</time></trkpt>
<trkpt lat="53.0851010000" lon="-4.1145410000"><ele>671</ele><time>2016-10-15T12:00:05Z</time></trkpt>
<trkpt lat="53.0850920000" lon="-4.1145560000"><ele>671</ele><time>2016-10-15T12:00:06Z</time></trkpt>
<trkpt lat="53.0850840000" lon="-4.1145710000"><ele>670</ele><time>2016-10-15T12:00:07Z</time></trkpt>
<trkpt lat="53.0850760000" lon="-4.1145900000"><ele>670</ele><time>2016-10-15T12:00:08Z</time></trkpt>
<trkpt lat="53.0850680000" lon="-4.1146090000"><ele>670</ele><time>2016-10-15T12:00:09Z</time></trkpt>
<trkpt lat="53.0850580000" lon="-4.1146260000"><ele>670</ele><time>2016-10-15T12:00:11Z</time></trkpt>
<trkpt lat="53.0850490000" lon="-4.1146430000"><ele>670</ele></trkpt>
<trkpt lat="53.0850400000" lon="-4.1146560000"><ele>669</ele><time>2016-10-15T12:00:12Z</time></trkpt>
<trkpt lat="53.0850340000" lon="-4.1146680000"><ele>669</ele><time>2016-10-15T12:00:13Z</time></trkpt>
<trkpt lat="53.0850340000" lon="-4.1146680000"><ele>669</ele><time>2016-10-15T12:00:14Z</time></trkpt>
<trkpt lat="53.0850170000" lon="-4.1147010000"><ele>669</ele><time>2016-10-15T12:00:15Z</time></trkpt>
<trkpt lat="53.0850100000" lon="-4.1147170000"><ele>669</ele><time>2016-10-15T12:00:16Z</time></trkpt>
<trkpt lat="53.0850010000" lon="-4.1147330000"><ele>669</ele><time>2016-10-15T12:00:17Z</time></trkpt>
<trkpt lat="53.0849930000" lon="-4.1147470000"><ele>668</ele><time>2016-10-15T12:00:18Z</time></trkpt>
<trkpt lat="53.0849850000" lon="-4.1147650000"><ele>668</ele><time>2016-10-15T12:00:19Z</time></trkpt>
<trkpt lat="53.0849770000" lon="-4.1147840000"><ele>668</ele><time>2016-10-15T12:00:20Z</time></trkpt>
<trkpt lat="53.0849690000" lon="-4.1148010000"><ele>668</ele><time>2016-10-15T12:00:21Z</time></trkpt>
<trkpt lat="53.0849600000" lon="-4.1148200000"><ele>668</ele><time>2016-10-15T12:00:22Z</time></trkpt>
<trkpt lat="53.0849520000" lon="-4.1148370000"><ele>667</ele><time>2016-10-15T12:00:23Z</time></trkpt>
<trkpt lat="53.0849440000" lon="-4.1148540000"><ele>667</ele><time>2016-10-15T12:00:24Z</time></trkpt>
<trkpt lat="53.0849360000" lon="-4.1148730000"><ele>667</ele><time>2016-10-15T12:00:25Z</time></trkpt>
<trkpt lat="53.0849280000" lon="-4.1148900000"><ele>667</ele><time>2016-10-15T12:00:26Z</time></trkpt>
<trkpt lat="53.0849210000" lon="-4.1149070000"><ele>667</ele><time>2016-10-15T12:00:27Z</time></trkpt>
<trkpt lat="53.0849130000" lon="-4.1149250000"><ele>667</ele><time>2016-10-15T12:00:28Z</time></trkpt>
<trkpt lat="53.0849050000" lon="-4.1149410000"><ele>667</ele><time>2016-10-15T12:00:29Z</time></trkpt>
<trkpt lat="53.0848960000" lon="-4.1149580000"><ele>667</ele><time>2016-10-15T12:00:30Z</time></trkpt>
<trkpt lat="53.0848880000" lon="-4.1149740000"><ele>666</ele><time>2016-10-15T12:00:31Z</time></trkpt>
<trkpt lat="53.0848790000" lon="-4.1149910000"><ele>666</ele><time>2016-10-15T12:00:32Z</time></trkpt>
<trkpt lat="53.0848690000" lon="-4.1150080000"><ele>666</ele><time>2016-10-15T12:00:33Z</time></trkpt>
<trkpt lat="53.0848620000" lon="-4.1150260000"><ele>666</ele><time>2016-10-15T12:00:34Z</time></trkpt>
<trkpt lat="53.0848540000" lon="-4.1150440000"><ele>666</ele><time>2016-10-15T12:00:35Z</time></trkpt>
<trkpt lat="53.0848450000" lon="-4.1150620000"><ele>666</ele><time>2016-10-15T12:00:36Z</time></trkpt>
<trkpt lat="53.0848380000" lon="-4.1150800000"><ele>666</ele><time>2016-10-15T12:00:37Z</time></trkpt>
<trkpt lat="53.0848320000" lon="-4.1150980000"><ele>666</ele><time>2016-10-15T12:00:38Z</time></trkpt>
<trkpt lat="53.0848280000" lon="-4.1151140000"><ele>665</ele><time>2016-10-15T12:00:39Z</time></trkpt>
<trkpt lat="53.0848280000" lon="-4.1151140000"><ele>665</ele><time>2016-10-15T12:00:40Z</time></trkpt>
<trkpt lat="53.0848280000" lon="-4.1151140000"><ele>665</ele><time>2016-10-15T12:00:41Z</time></trkpt>
<trkpt lat="53.0848280000" lon="-4.1151150000"><ele>665</ele><time>2016-10-15T12:00:42Z</time></trkpt>
<trkpt lat="53.0848280000" lon="-4.1151160000"><ele>665</ele><time>2016-10-15T12:00:43Z</time></trkpt>
<trkpt lat="53.0848280000" lon="-4.1151180000"><ele>665</ele><time>2016-10-15T12:00:44Z</time></trkpt>
<trkpt lat="53.0848280000" lon="-4.1151200000"><ele>665</ele><time>2016-10-15T12:00:45Z</time></trkpt>
<trkpt lat="53.0848280000" lon="-4.1151230000"><ele>664</ele><time>2016-10-15T12:00:46Z</time></trkpt>
<trkpt lat="53.0848280000" lon="-4.1151260000"><ele>664</ele><time>2016-10-15T12:00:47Z</time></trkpt>
<trkpt lat="53.0848270000" lon="-4.1151300000"><ele>664</ele><time>2016-10-15T12:00:48Z</time></trkpt>
<trkpt lat="53.0848270000" lon="-4.1151340000"><ele>664</ele><time>2016-10-15T12:00:49Z</time></trkpt>
<trkpt lat="53.0848270000" lon="-4.1151380000"><ele>663</ele><time>2016-10-15T12:00:50Z</time></trkpt>
<trkpt lat="53.0848270000" lon="-4.1151430000"><ele>663</ele><time>2016-10-15T12:00:51Z</time></trkpt>
<trkpt lat="53.0848260000" lon="-4.1151480000"><ele>663</ele><time>2016-10-15T12:00:52Z</time></trkpt>
<trkpt lat="53.0848260000" lon="-4.1151540000"><ele>663</ele><time>2016-10-15T12:00:53Z</time></trkpt>
<trkpt lat="53.0848240000" lon="-4.1151600000"><ele>662</ele><time>2016-10-15T12:00:54Z</time></trkpt>
<trkpt lat="53.0848230000" lon="-4.1151670000"><ele>662</ele><time>2016-10-15T12:00:55Z</time></trkpt>
<trkpt lat="53.0848210000" lon="-4.1151740000"><ele>662</ele><time>2016-10-15T12:00:56Z</time></trkpt>
<trkpt lat="53.0848200000" lon="-4.1151820000"><ele>662</ele><time>2016-10-15T12:00:57Z</time></trkpt>
<trkpt lat="53.0848180000" lon="-4.1151900000"><ele>661</ele><time>2016-10-15T12:00:58Z</time></trkpt>
<trkpt lat="53.0848160000" lon="-4.1151980000"><ele>661</ele><time>2016-10-15T12:00:59Z</time></trkpt>
<trkpt lat="53.0848140000" lon="-4.1152070000"><ele>661</ele><time>2016-10-15T12:01:00Z</time></trkpt>
<trkpt lat="53.0848120000" lon="-4.1152160000"><ele>661</ele><time>2016-10-15T12:01:01Z</time></trkpt>
<trkpt lat="53.0848100000" lon="-4.1152260000"><ele>661</ele><time>2016-10-15T12:01:02Z</time></trkpt>
<trkpt lat="53.0848070000" lon="-4.1152370000"><ele>661</ele><time>2016-10-15T12:01:03Z</time></trkpt>
<trkpt lat="53.0848050000" lon="-4.1152470000"><ele>660</ele><time>2016-10-15T12:01:04Z</time></trkpt>
<trkpt lat="53.0848020000" lon="-4.1152580000"><ele>660</ele><time>2016-10-15T12:01:05Z</time></trkpt>
<trkpt lat="53.0847990000" lon="-4.1152690000"><ele>660</ele><time>2016-10-15T12:01:06Z</time></trkpt>
<trkpt lat="53.0847950000" lon="-4.1152800000"><ele>660</ele><time>2016-10-15T12:01:07Z</time></trkpt>
<trkpt lat="53.0847920000" lon="-4.1152920000"><ele>660</ele><time>2016-10-15T12:01:08Z</time></trkpt>
<trkpt lat="53.0847890000" lon="-4.1153030000"><ele>660</ele><time>2016-10-15T12:01:09Z</time></trkpt>
<trkpt lat="53.0847860000" lon="-4.1153150000"><ele>660</ele><time>2016-10-15T12:01:11Z</time></trkpt>
<trkpt lat="53.0847830000" lon="-4.1153260000"><ele>660</ele></trkpt>
<trkpt lat="53.0847800000" lon="-4.1153370000"><ele>659</ele><time>2016-10-15T12:01:12Z</time></trkpt>
<trkpt lat="53.0847770000" lon="-4.1153480000"><ele>659</ele><time>2016-10-15T12:01:13Z</time></trkpt>
<trkpt lat="53.0847740000" lon="-4.1153600000"><ele>659</ele><time>2016-10-15T12:01:14Z</time></trkpt>
<trkpt lat="53.0847700000" lon="-4.1153710000"><ele>659</ele><time>2016-10-15T12:01:15Z</time></trkpt>
<trkpt lat="53.0847670000" lon="-4.1153830000"><ele>659</ele><time>2016-10-15T12:01:16Z</time></trkpt>
<trkpt lat="53.0847630000" lon="-4.1153950000"><ele>659</ele><time>2016-10-15T12:01:17Z</time></trkpt>
<trkpt lat="53.0847600000" lon="-4.1154070000"><ele>659</ele><time>2016-10-15T12:01:18Z</time></trkpt>
<trkpt lat="53.0847560000" lon="-4.1154190000"><ele>659</ele><time>2016-10-15T12:01:19Z</time></trkpt>
<trkpt lat="53.0847530000" lon="-4.1154310000"><ele>659</ele><time>2016-10-15T12:01:20Z</time></trkpt>
<trkpt lat="53.0847490000" lon="-4.1154430000"><ele>659</ele><time>2016-10-15T12:01:21Z</time></trkpt>
<trkpt lat="53.0847460000" lon="-4.1154540000"><ele>659</ele><time>2016-10-15T12:01:22Z</time></trkpt>
<trkpt lat="53.0847420000" lon="-4.1154660000"><ele>659</ele><time>2016-10-15T12:01:23Z</time></trkpt>
<trkpt lat="53.0847390000" lon="-4.1154770000"><ele>659</ele><time>2016-10-15T12:01:24Z</time></trkpt>
<trkpt lat="53.0847360000" lon="-4.1154880000"><ele>659</ele><time>2016-10-15T12:01:25Z</time></trkpt>
<trkpt lat="53.0847320000" lon="-4.1154990000"><ele>659</ele><time>2016-10-15T12:01:26Z</time></trkpt>
<trkpt lat="53.0847290000" lon="-4.1155100000"><ele>659</ele><time>2016-10-15T12:01:27Z</time></trkpt>
<trkpt lat="53.0847260000" lon="-4.1155210000"><ele>659</ele><time>2016-10-15T12:01:28Z</time></trkpt>
<trkpt lat="53.0847230000" lon="-4.1155330000"><ele>659</ele><time>2016-10-15T12:01:29Z</time></trkpt>
<trkpt lat="53.0847190000" lon="-4.1155440000"><ele>659</ele><time>2016-10-15T12:01:30Z</time></trkpt>
<trkpt lat="53.0847160000" lon="-4.1155550000"><ele>659</ele><time>2016-10-15T12:01:31Z</time></trkpt>
<trkpt lat="53.0847120000" lon="-4.1155670000"><ele>659</ele><time>2016-10-15T12:01:32Z</time></trkpt>
<trkpt lat="53.0847090000" lon="-4.1155790000"><ele>659</ele><time>2016-10-15T12:01:33Z</time></trkpt>
<trkpt lat="53.0847050000" lon="-4.1155910000"><ele>659</ele><time>2016-10-15T12:01:34Z</time></trkpt>
<trkpt lat="53.0847020000" lon="-4.1156040000"><ele>659</ele><time>2016-10-15T12:01:35Z</time></trkpt>
<trkpt lat="53.0846970000" lon="-4.1156160000"><ele>659</ele><time>2016-10-15T12:01:36Z</time></trkpt>
<trkpt lat="53.0846930000" lon="-4.1156290000"><ele>659</ele><time>2016-10-15T12:01:37Z</time></trkpt>
<trkpt lat="53.0846890000" lon="-4.1156410000"><ele>658</ele><time>2016-10-15T12:01:38Z</time></trkpt>
<trkpt lat="53.0846850000" lon="-4.1156540000"><ele>658</ele><time>2016-10-15T12:01:39Z</time></trkpt>
<trkpt lat="53.0846820000" lon="-4.1156660000"><ele>658</ele><time>2016-10-15T12:01:40Z</time></trkpt>
<trkpt lat="53.0846780000" lon="-4.1156780000"><ele>658</ele><time>2016-10-15T12:01:41Z</time></trkpt>
<trkpt lat="53.0846750000" lon="-4.1156910000"><ele>658</ele><time>2016-10-15T12:01:42Z</time></trkpt>
<trkpt lat="53.0846710000" lon="-4.1157030000"><ele>658</ele><time>2016-10-15T12:01:43Z</time></trkpt>
<trkpt lat="53.0846670000" lon="-4.1157150000"><ele>658</ele><time>2016-10-15T12:01:44Z</time></trkpt>
<trkpt lat="53.0846640000" lon="-4.1157270000"><ele>658</ele><time>2016-10-15T12:01:45Z</time></trkpt>
<trkpt lat="53.0846600000" lon="-4.1157390000"><ele>658</ele><time>2016-10-15T12:01:46Z</time></trkpt>
<trkpt lat="53.0846570000" lon="-4.1157500000"><ele>658</ele><time>2016-10-15T12:01:47Z</time></trkpt>
<trkpt lat="53.0846540000" lon="-4.1157610000"><ele>658</ele><time>2016-10-15T12:01:48Z</time></trkpt>
<trkpt lat="53.0846510000" lon="-4.1157720000"><ele>658</ele><time>2016-10-15T12:01:49Z</time></trkpt>
<trkpt lat="53.0846480000" lon="-4.1157820000"><ele>658</ele><time>2016-10-15T12:01:50Z</time></trkpt>
<trkpt lat="53.0846450000" lon="-4.1157920000"><ele>658</ele><time>2016-10-15T12:01:51Z</time></trkpt>
<trkpt lat="53.0846420000" lon="-4.1158010000"><ele>657</ele><time>2016-10-15T12:01:52Z</time></trkpt>
<trkpt lat="53.0846390000" lon="-4.1158100000"><ele>657</ele><time>2016-10-15T12:01:53Z</time></trkpt>
<trkpt lat="53.0846360000" lon="-4.1158180000"><ele>657</ele><time>2016-10-15T12:01:54Z</time></trkpt>
<trkpt lat="53.0846330000" lon="-4.1158260000"><ele>657</ele><time>2016-10-15T12:01:55Z</time></trkpt>
<trkpt lat="53.0846300000" lon="-4.1158330000"><ele>657</ele><time>2016-10-15T12:01:56Z</time></trkpt>
<trkpt lat="53.0846280000" lon="-4.1158400000"><ele>657</ele><time>2016-10-15T12:01:57Z</time></trkpt>
<trkpt lat="53.0846250000" lon="-4.1158460000"><ele>657</ele><time>2016-10-15T12:01:58Z</time></trkpt>
<trkpt lat="53.0846220000" lon="-4.1158520000"><ele>657</ele><time>2016-10-15T12:01:59Z</time></trkpt>
<trkpt lat="53.0846200000" lon="-4.1158570000"><ele>657</ele><time>2016-10-15T12:02:00Z</time></trkpt>
<trkpt lat="53.0846170000" lon="-4.1158620000"><ele>656</ele><time>2016-10-15T12:02:01Z</time></trkpt>
<trkpt lat="53.0846150000" lon="-4.1158670000"><ele>656</ele><time>2016-10-15T12:02:02Z</time></trkpt>
<trkpt lat="53.0846120000" lon="-4.1158720000"><ele>656</ele><time>2016-10-15T12:02:03Z</time></trkpt>
<trkpt lat="53.0846100000" lon="-4.1158770000"><ele>656</ele><time>2016-10-15T12:02:04Z</time></trkpt>
<trkpt lat="53.0846080000" lon="-4.1158810000"><ele>656</ele><time>2016-10-15T12:02:05Z</time></trkpt>
<trkpt lat="53.0846070000" lon="-4.1158850000"><ele>656</ele><time>2016-10-15T12:02:06Z</time></trkpt>
<trkpt lat="53.0846050000" lon="-4.1158880000"><ele>656</ele><time>2016-10-15T12:02:07Z</time></trkpt>
<trkpt lat="53.0846040000" lon="-4.1158920000"><ele>656</ele><time>2016-10-15T12:02:08Z</time></trkpt>
<trkpt lat="53.0846020000" lon="-4.1158950000"><ele>656</ele><time>2016-10-15T12:02:09Z</time></trkpt>
<trkpt lat="53.0846010000" lon="-4.1158980000"><ele>656</ele><time>2016-10-15T12:02:11Z</time></trkpt>
<trkpt lat="53.0845990000" lon="-4.1159010000"><ele>656</ele></trkpt>
<trkpt lat="53.0845980000" lon="-4.1159030000"><ele>656</ele><time>2016-10-15T12:02:12Z</time></trkpt>
<trkpt lat="53.0845960000" lon="-4.1159060000"><ele>656</ele><time>2016-10-15T12:02:13Z</time></trkpt>
<trkpt lat="53.0845950000" lon="-4.1159080000"><ele>655</ele><time>2016-10-15T12:02:14Z</time></trkpt>
<trkpt lat="53.0845940000" lon="-4.1159100000"><ele>655</ele><time>2016-10-15T12:02:15Z</time></trkpt>
<trkpt lat="53.0845930000" lon="-4.1159120000"><ele>655</ele><time>2016-10-15T12:02:16Z</time></trkpt>
<trkpt lat="53.0845920000" lon="-4.1159130000"><ele>655</ele><time>2016-10-15T12:02:17Z</time></trkpt>
<trkpt lat="53.0845910000" lon="-4.1159150000"><ele>655</ele><time>2016-10-15T12:02:18Z</time></trkpt>
<trkpt lat="53.0845900000" lon="-4.1159160000"><ele>655</ele><time>2016-10-15T12:02:19Z</time></trkpt>
<trkpt lat="53.0845890000" lon="-4.1159170000"><ele>655</ele><time>2016-10-15T12:02:20Z</time></trkpt>
<trkpt lat="53.0845880000" lon="-4.1159180000"><ele>654</ele><time>2016-10-15T12:02:21Z</time></trkpt>
<trkpt lat="53.0845870000" lon="-4.1159190000"><ele>654</ele><time>2016-10-15T12:02:22Z</time></trkpt>
<trkpt lat="53.0845860000" lon="-4.1159200000"><ele>654</ele><time>2016-10-15T12:02:23Z</time></trkpt>
<trkpt lat="53.0845850000" lon="-4.1159200000"><ele>654</ele><time>2016-10-15T12:02:24Z</time></trkpt>
<trkpt lat="53.0845840000" lon="-4.1159210000"><ele>653</ele><time>2016-10-15T12:02:25Z</time></trkpt>
<trkpt lat="53.0845840000" lon="-4.1159220000"><ele>653</ele><time>2016-10-15T12:02:26Z</time></trkpt>
<trkpt lat="53.0845830000" lon="-4.1159230000"><ele>653</ele><time>2016-10-15T12:02:27Z</time></trkpt>
<trkpt lat="53.0845830000" lon="-4.1159230000"><ele>653</ele><time>2016-10-15T12:02:28Z</time></trkpt>
<trkpt lat="53.0845820000" lon="-4.1159240000"><ele>652</ele><time>2016-10-15T12:02:29Z</time></trkpt>
<trkpt lat="53.0845820000" lon="-4.1159250000"><ele>652</ele><time>2016-10-15T12:02:30Z</time></trkpt>
<trkpt lat="53.0845820000" lon="-4.1159250000"><ele>652</ele><time>2016-10-15T12:02:31Z</time></trkpt>
<trkpt lat="53.0845820000" lon="-4.1159260000"><ele>652</ele><time>2016-10-15T12:02:32Z</time></trkpt>
<trkpt lat="53.0845810000" lon="-4.1159260000"><ele>652</ele><time>2016-10-15T12:02:33Z</time></trkpt>
<trkpt lat="53.0845810000" lon="-4.1159270000"><ele>651</ele><time>2016-10-15T12:02:34Z</time></trkpt>
<trkpt lat="53.0845810000" lon="-4.1159280000"><ele>651</ele><time>2016-10-15T12:02:35Z</time></trkpt>
<trkpt lat="53.0845810000" lon="-4.1159290000"><ele>651</ele><time>2016-10-15T12:02:36Z</time></trkpt>
<trkpt lat="53.0845810000" lon="-4.1159300000"><ele>651</ele><time>2016-10-15T12:02:37Z</time></trkpt>
<trkpt lat="53.0845800000" lon="-4.1159320000"><ele>651</ele><time>2016-10-15T12:02:38Z</time></trkpt>
<trkpt lat="53.0845800000" lon="-4.1159330000"><ele>651</ele><time>2016-10-15T12:02:39Z</time></trkpt>
<trkpt lat="53.0845800000" lon="-4.1159350000"><ele>651</ele><time>2016-10-15T12:02:40Z</time></trkpt>
<trkpt lat="53.0845800000" lon="-4.1159360000"><ele>651</ele><time>2016-10-15T12:02:41Z</time></trkpt>
<trkpt lat="53.0845800000" lon="-4.1159370000"><ele>651</ele><time>2016-10-15T12:02:42Z</time></trkpt>
<trkpt lat="53.0845790000" lon="-4.1159390000"><ele>651</ele><time>2016-10-15T12:02:43Z</time></trkpt>
<trkpt lat="53.0845790000" lon="-4.1159400000"><ele>651</ele><time>2016-10-15T12:02:44Z</time></trkpt>
<trkpt lat="53.0845790000" lon="-4.1159410000"><ele>651</ele><time>2016-10-15T12:02:45Z</time></trkpt>
<trkpt lat="53.0845790000" lon="-4.1159420000"><ele>651</ele><time>2016-10-15T12:02:46Z</time></trkpt>
<trkpt lat="53.0845790000" lon="-4.1159430000"><ele>651</ele><time>2016-10-15T12:02:47Z</time></trkpt>
<trkpt lat="53.0845780000" lon="-4.1159430000"><ele>651</ele><time>2016-10-15T12:02:48Z</time></trkpt>
<trkpt lat="53.0845780000" lon="-4.1159440000"><ele>651</ele><time>2016-10-15T12:02:49Z</time></trkpt>
<trkpt lat="53.0845790000" lon="-4.1159440000"><ele>651</ele><time>2016-10-15T12:02:50Z</time></trkpt>
<trkpt lat="53.0845790000" lon="-4.1159450000"><ele>651</ele><time>2016-10-15T12:02:51Z</time></trkpt>
<trkpt lat="53.0845790000" lon="-4.1159450000"><ele>651</ele><time>2016-10-15T12:02:52Z</time></trkpt>
<trkpt lat="53.0845980000" lon="-4.1160400000"><ele>648</ele><time>2016-10-15T12:04:48Z</time></trkpt>
<trkpt lat="53.0846050000" lon="-4.1160610000"><ele>648</ele><time>2016-10-15T12:04:49Z</time></trkpt>
<trkpt lat="53.0846030000" lon="-4.1160540000"><ele>648</ele><time>2016-10-15T12:04:50Z</time></trkpt>
<trkpt lat="53.0846030000" lon="-4.1160540000"><ele>648</ele><time>2016-10-15T12:04:52Z</time></trkpt>
<trkpt lat="53.0846030000" lon="-4.1160540000"><ele>648</ele><time>2016-10-15T12:04:53Z</time></trkpt>
<trkpt lat="53.0846030000" lon="-4.1160540000"><ele>648</ele><time>2016-10-15T12:04:54Z</time></trkpt>
<trkpt lat="53.0845810000" lon="-4.1159990000"><ele>649</ele><time>2016-10-15T12:07:28Z</time></trkpt>
<trkpt lat="53.0845770000" lon="-4.1159790000"><ele>649</ele><time>2016-10-15T12:07:29Z</time></trkpt>
<trkpt lat="53.0845760000" lon="-4.1159770000"><ele>649</ele><time>2016-10-15T12:07:30Z</time></trkpt>
<trkpt lat="53.0845760000" lon="-4.1159770000"><ele>649</ele><time>2016-10-15T12:07:35Z</time></trkpt>
<trkpt lat="53.0845760000" lon="-4.1159780000"><ele>649</ele><time>2016-10-15T12:07:36Z</time></trkpt>
<trkpt lat="53.0845760000" lon="-4.1159780000"><ele>649</ele><time>2016-10-15T12:07:37Z</time></trkpt>
<trkpt lat="53.0845760000" lon="-4.1159780000"><ele>649</ele><time>2016-10-15T12:07:38Z</time></trkpt>
<trkpt lat="53.0845760000" lon="-4.1159790000"><ele>649</ele><time>2016-10-15T12:07:39Z</time></trkpt>
<trkpt lat="53.0845760000" lon="-4.1159790000"><ele>649</ele><time>2016-10-15T12:07:40Z</time></trkpt>
<trkpt lat="53.0845760000" lon="-4.1159800000"><ele>649</ele><time>2016-10-15T12:07:41Z</time></trkpt>
<trkpt lat="53.0845760000" lon="-4.1159810000"><ele>649</ele><time>2016-10-15T12:07:42Z</time></trkpt>
<trkpt lat="53.0845750000" lon="-4.1159810000"><ele>649</ele><time>2016-10-15T12:07:43Z</time></trkpt>
<trkpt lat="53.0845750000" lon="-4.1159820000"><ele>649</ele><time>2016-10-15T12:07:44Z</time></trkpt>
<trkpt lat="53.0845750000" lon="-4.1159830000"><ele>649</ele><time>2016-10-15T12:07:45Z</time></trkpt>
<trkpt lat="53.0845750000" lon="-4.1159830000"><ele>649</ele><time>2016-10-15T12:07:46Z</time></trkpt>
<trkpt lat="53.0845750000" lon="-4.1159830000"><ele>649</ele><time>2016-10-15T12:07:47Z</time></trkpt>
<trkpt lat="53.0845750000" lon="-4.1159830000"><ele>649</ele><time>2016-10-15T12:07:48Z</time></trkpt>
<trkpt lat="53.0845750000" lon="-4.1159830000"><ele>649</ele><time>2016-10-15T12:07:49Z</time></trkpt>
<trkpt lat="53.0845750000" lon="-4.1159830000"><ele>649</ele><time>2016-10-15T12:07:50Z</time></trkpt>
<trkpt lat="53.0845750000" lon="-4.1159840000"><ele>649</ele><time>2016-10-15T12:07:51Z</time></trkpt>
<trkpt lat="53.0845750000" lon="-4.1159850000"><ele>649</ele><time>2016-10-15T12:07:52Z</time></trkpt>
<trkpt lat="53.0845740000" lon="-4.1159850000"><ele>649</ele><time>2016-10-15T12:07:53Z</time></trkpt>
<trkpt lat="53.0845740000" lon="-4.1159860000"><ele>649</ele><time>2016-10-15T12:07:54Z</time></trkpt>
<trkpt lat="53.0845740000" lon="-4.1159860000"><ele>649</ele><time>2016-10-15T12:07:55Z</time></trkpt>
<trkpt lat="53.0845740000" lon="-4.1159860000"><ele>649</ele><time>2016-10-15T12:07:56Z</time></trkpt>
<trkpt lat="53.0845740000" lon="-4.1159870000"><ele>649</ele><time>2016-10-15T12:07:57Z</time></trkpt>
<trkpt lat="53.0845740000" lon="-4.1159870000"><ele>649</ele><time>2016-10-15T12:07:58Z</time></trkpt>
<trkpt lat="53.0845740000" lon="-4.1159880000"><ele>649</ele><time>2016-10-15T12:07:59Z</time></trkpt>
<trkpt lat="53.0845740000" lon="-4.1159880000"><ele>649</ele><time>2016-10-15T12:08:00Z</time></trkpt>
<trkpt lat="53.0845740000" lon="-4.1159890000"><ele>649</ele><time>2016-10-15T12:08:01Z</time></trkpt>
<trkpt lat="53.0845740000" lon="-4.1159890000"><ele>649</ele><time>2016-10-15T12:08:02Z</time></trkpt>
<trkpt lat="53.0845740000" lon="-4.1159890000"><ele>649</ele><time>2016-10-15T12:08:03Z</time></trkpt>
<trkpt lat="53.0845740000" lon="-4.1159890000"><ele>649</ele><time>2016-10-15T12:08:04Z</time></trkpt>
<trkpt lat="53.0845740000" lon="-4.1159890000"><ele>649</ele><time>2016-10-15T12:08:07Z</time></trkpt>
<trkpt lat="53.0845740000" lon="-4.1159890000"><ele>649</ele><time>2016-10-15T12:08:08Z</time></trkpt>
<trkpt lat="53.0845740000" lon="-4.1159890000"><ele>649</ele><time>2016-10-15T12:08:09Z</time></trkpt>
<trkpt lat="53.0845740000" lon="-4.1159890000"><ele>649</ele><time>2016-10-15T12:08:10Z</time></trkpt>
<trkpt lat="53.0845740000" lon="-4.1159890000"><ele>649</ele><time>2016-10-15T12:08:12Z</time></trkpt>
<trkpt lat="53.0845740000" lon="-4.1159890000"><ele>649</ele><time>2016-10-15T12:08:13Z</time></trkpt>
<trkpt lat="53.0845740000" lon="-4.1159890000"><ele>649</ele><time>2016-10-15T12:08:14Z</time></trkpt>
<trkpt lat="53.0845740000" lon="-4.1159880000"><ele>649</ele><time>2016-10-15T12:08:15Z</time></trkpt>
<trkpt lat="53.0845740000" lon="-4.1159880000"><ele>649</ele><time>2016-10-15T12:08:16Z</time></trkpt>
<trkpt lat="53.0845740000" lon="-4.1159880000"><ele>649</ele><time>2016-10-15T12:08:17Z</time></trkpt>
<trkpt lat="53.0845740000" lon="-4.1159880000"><ele>649</ele><time>2016-10-15T12:08:18Z</time></trkpt>
<trkpt lat="53.0845740000" lon="-4.1159870000"><ele>649</ele><time>2016-10-15T12:08:19Z</time></trkpt>
<trkpt lat="53.0845740000" lon="-4.1159870000"><ele>649</ele><time>2016-10-15T12:08:20Z</time></trkpt>
<trkpt lat="53.0845740000" lon="-4.1159870000"><ele>649</ele><time>2016-10-15T12:08:21Z</time></trkpt>
<trkpt lat="53.0845740000" lon="-4.1159870000"><ele>649</ele><time>2016-10-15T12:08:22Z</time></trkpt>
<trkpt lat="53.0845740000" lon="-4.1159870000"><ele>649</ele><time>2016-10-15T12:08:25Z</time></trkpt>
<trkpt lat="53.0845740000" lon="-4.1159870000"><ele>649</ele><time>2016-10-15T12:08:27Z</time></trkpt>
<trkpt lat="53.0845740000" lon="-4.1159870000"><ele>649</ele><time>2016-10-15T12:08:28Z</time></trkpt>
<trkpt lat="53.0845740000" lon="-4.1159870000"><ele>649</ele><time>2016-10-15T12:08:29Z</time></trkpt>
<trkpt lat="53.0845740000" lon="-4.1159870000"><ele>649</ele><time>2016-10-15T12:08:30Z</time></trkpt>
<trkpt lat="53.0845740000" lon="-4.1159870000"><ele>649</ele><time>2016-10-15T12:08:35Z</time></trkpt>
<trkpt lat="53.0845740000" lon="-4.1159870000"><ele>649</ele><time>2016-10-15T12:08:36Z</time></trkpt>
<trkpt lat="53.0845740000" lon="-4.1159870000"><ele>649</ele><time>2016-10-15T12:08:37Z</time></trkpt>
<trkpt lat="53.0845740000" lon="-4.1159870000"><ele>649</ele><time>2016-10-15T12:08:38Z</time></trkpt>
<trkpt lat="53.0845740000" lon="-4.1159870000"><ele>649</ele><time>2016-10-15T12:08:39Z</time></trkpt>
<trkpt lat="53.0845740000" lon="-4.1159870000"><ele>649</ele><time>2016-10-15T12:08:40Z</time></trkpt>
<trkpt lat="53.0845740000" lon="-4.1159870000"><ele>649</ele><time>2016-10-15T12:08:41Z</time></trkpt>
<trkpt lat="53.0845740000" lon="-4.1159870000"><ele>649</ele><time>2016-10-15T12:08:42Z</time></trkpt>
<trkpt lat="53.0845740000" lon="-4.1159870000"><ele>649</ele><time>2016-10-15T12:08:43Z</time></trkpt>
<trkpt lat="53.0845740000" lon="-4.1159870000"><ele>649</ele><time>2016-10-15T12:08:44Z</time></trkpt>
<trkpt lat="53.0845740000" lon="-4.1159860000"><ele>649</ele><time>2016-10-15T12:08:45Z</time></trkpt>
<trkpt lat="53.0845740000" lon="-4.1159860000"><ele>649</ele><time>2016-10-15T12:08:46Z</time></trkpt>
<trkpt lat="53.0845740000" lon="-4.1159860000"><ele>649</ele><time>2016-10-15T12:08:47Z</time></trkpt>
<trkpt lat="53.0845740000" lon="-4.1159860000"><ele>649</ele><time>2016-10-15T12:08:48Z</time></trkpt>
<trkpt lat="53.0845740000" lon="-4.1159860000"><ele>649</ele><time>2016-10-15T12:08:49Z</time></trkpt>
<trkpt lat="53.0845740000" lon="-4.1159850000"><ele>649</ele><time>2016-10-15T12:08:50Z</time></trkpt>
<trkpt lat="53.0845740000" lon="-4.1159850000"><ele>649</ele><time>2016-10-15T12:08:51Z</time></trkpt>
<trkpt lat="53.0845740000" lon="-4.1159850000"><ele>649</ele><time>2016-10-15T12:08:52Z</time></trkpt>
<trkpt lat="53.0845740000" lon="-4.1159850000"><ele>649</ele><time>2016-10-15T12:08:53Z</time></trkpt>
<trkpt lat="53.0845700000" lon="-4.1159850000"><ele>649</ele><time>2016-10-15T12:09:20Z</time></trkpt>
<trkpt lat="53.0845710000" lon="-4.1159860000"><ele>649</ele><time>2016-10-15T12:09:21Z</time></trkpt>
<trkpt lat="53.0845720000" lon="-4.1159860000"><ele>649</ele><time>2016-10-15T12:09:22Z</time></trkpt>
<trkpt lat="53.0845720000" lon="-4.1159870000"><ele>649</ele><time>2016-10-15T12:09:23Z</time></trkpt>
<trkpt lat="53.0845730000" lon="-4.1159870000"><ele>649</ele><time>2016-10-15T12:09:24Z</time></trkpt>
<trkpt lat="53.0845740000" lon="-4.1159880000"><ele>649</ele><time>2016-10-15T12:09:25Z</time></trkpt>
<trkpt lat="53.0845750000" lon="-4.1159890000"><ele>649</ele><time>2016-10-15T12:09:26Z</time></trkpt>
<trkpt lat="53.0845770000" lon="-4.1159890000"><ele>649</ele><time>2016-10-15T12:09:27Z</time></trkpt>
<trkpt lat="53.0845780000" lon="-4.1159890000"><ele>650</ele><time>2016-10-15T12:09:28Z</time></trkpt>
<trkpt lat="53.0845800000" lon="-4.1159900000"><ele>650</ele><time>2016-10-15T12:09:29Z</time></trkpt>
<trkpt lat="53.0845810000" lon="-4.1159900000"><ele>650</ele><time>2016-10-15T12:09:30Z</time></trkpt>
<trkpt lat="53.0845820000" lon="-4.1159900000"><ele>650</ele><time>2016-10-15T12:09:31Z</time></trkpt>
<trkpt lat="53.0845830000" lon="-4.1159900000"><ele>650</ele><time>2016-10-15T12:09:32Z</time></trkpt>
<trkpt lat="53.0845840000" lon="-4.1159910000"><ele>650</ele><time>2016-10-15T12:09:33Z</time></trkpt>
<trkpt lat="53.0845850000" lon="-4.1159910000"><ele>651</ele><time>2016-10-15T12:09:34Z</time></trkpt>
<trkpt lat="53.0845860000" lon="-4.1159910000"><ele>651</ele><time>2016-10-15T12:09:35Z</time></trkpt>
<trkpt lat="53.0845870000" lon="-4.1159920000"><ele>651</ele><time>2016-10-15T12:09:36Z</time></trkpt>
<trkpt lat="53.0845880000" lon="-4.1159920000"><ele>651</ele><time>2016-10-15T12:09:37Z</time></trkpt>
<trkpt lat="53.0845890000" lon="-4.1159920000"><ele>651</ele><time>2016-10-15T12:09:38Z</time></trkpt>
<trkpt lat="53.0845910000" lon="-4.1159920000"><ele>651</ele><time>2016-10-15T12:09:39Z</time></trkpt>
<trkpt lat="53.0845920000" lon="-4.1159920000"><ele>651</ele><time>2016-10-15T12:09:40Z</time></trkpt>
<trkpt lat="53.0845930000" lon="-4.1159930000"><ele>652</ele><time>2016-10-15T12:09:41Z</time></trkpt>
<trkpt lat="53.0845940000" lon="-4.1159930000"><ele>652</ele><time>2016-10-15T12:09:42Z</time></trkpt>
<trkpt lat="53.0845950000" lon="-4.1159930000"><ele>652</ele><time>2016-10-15T12:09:43Z</time></trkpt>
<trkpt lat="53.0845960000" lon="-4.1159930000"><ele>652</ele><time>2016-10-15T12:09:44Z</time></trkpt>
<trkpt lat="53.0845970000" lon="-4.1159940000"><ele>652</ele><time>2016-10-15T12:09:45Z</time></trkpt>
<trkpt lat="53.0845980000" lon="-4.1159940000"><ele>652</ele><time>2016-10-15T12:09:46Z</time></trkpt>
<trkpt lat="53.0845990000" lon="-4.1159940000"><ele>652</ele><time>2016-10-15T12:09:47Z</time></trkpt>
<trkpt lat="53.0846000000" lon="-4.1159940000"><ele>652</ele><time>2016-10-15T12:09:48Z</time></trkpt>
<trkpt lat="53.0846010000" lon="-4.1159940000"><ele>653</ele><time>2016-10-15T12:09:49Z</time></trkpt>
<trkpt lat="53.0846020000" lon="-4.1159950000"><ele>653</ele><time>2016-10-15T12:09:50Z</time></trkpt>
<trkpt lat="53.0846020000" lon="-4.1159950000"><ele>653</ele><time>2016-10-15T12:09:51Z</time></trkpt>
<trkpt lat="53.0846030000" lon="-4.1159950000"><ele>653</ele><time>2016-10-15T12:09:52Z</time></trkpt>
<trkpt lat="53.0846030000" lon="-4.1159950000"><ele>653</ele><time>2016-10-15T12:09:53Z</time></trkpt>
<trkpt lat="53.0846040000" lon="-4.1159950000"><ele>653</ele><time>2016-10-15T12:09:54Z</time></trkpt>
<trkpt lat="53.0846040000" lon="-4.1159960000"><ele>653</ele><time>2016-10-15T12:09:55Z</time></trkpt>
<trkpt lat="53.0846050000" lon="-4.1159960000"><ele>653</ele><time>2016-10-15T12:09:56Z</time></trkpt>
<trkpt lat="53.0846050000" lon="-4.1159960000"><ele>653</ele><time>2016-10-15T12:09:57Z</time></trkpt>
<trkpt lat="53.0846050000" lon="-4.1159960000"><ele>653</ele><time>2016-10-15T12:09:58Z</time></trkpt>
<trkpt lat="53.0846060000" lon="-4.1159960000"><ele>653</ele><time>2016-10-15T12:09:59Z</time></trkpt>
<trkpt lat="53.0846060000" lon="-4.1159960000"><ele>653</ele><time>2016-10-15T12:10:00Z</time></trkpt>
<trkpt lat="53.0846070000" lon="-4.1159960000"><ele>653</ele><time>2016-10-15T12:10:01Z</time></trkpt>
<trkpt lat="53.0846070000" lon="-4.1159960000"><ele>653</ele><time>2016-10-15T12:10:02Z</time></trkpt>
<trkpt lat="53.0846080000" lon="-4.1159960000"><ele>653</ele><time>2016-10-15T12:10:03Z</time></trkpt>
<trkpt lat="53.0846080000" lon="-4.1159960000"><ele>653</ele><time>2016-10-15T12:10:04Z</time></trkpt>
<trkpt lat="53.0846080000" lon="-4.1159960000"><ele>653</ele><time>2016-10-15T12:10:05Z</time></trkpt>
<trkpt lat="53.0846080000" lon="-4.1159960000"><ele>653</ele><time>2016-10-15T12:10:06Z</time></trkpt>
<trkpt lat="53.0846070000" lon="-4.1159950000"><ele>653</ele><time>2016-10-15T12:10:07Z</time></trkpt>
<trkpt lat="53.0846070000" lon="-4.1159950000"><ele>652</ele><time>2016-10-15T12:10:08Z</time></trkpt>
<trkpt lat="53.0846060000" lon="-4.1159950000"><ele>652</ele><time>2016-10-15T12:10:09Z</time></trkpt>
<trkpt lat="53.0846050000" lon="-4.1159940000"><ele>652</ele><time>2016-10-15T12:10:10Z</time></trkpt>
<trkpt lat="53.0846050000" lon="-4.1159940000"><ele>652</ele><time>2016-10-15T12:10:11Z</time></trkpt>
<trkpt lat="53.0846040000" lon="-4.1159940000"><ele>652</ele><time>2016-10-15T12:10:12Z</time></trkpt>
<trkpt lat="53.0846030000" lon="-4.1159930000"><ele>652</ele><time>2016-10-15T12:10:13Z</time></trkpt>
<trkpt lat="53.0846020000" lon="-4.1159930000"><ele>652</ele><time>2016-10-15T12:10:14Z</time></trkpt>
<trkpt lat="53.0846010000" lon="-4.1159930000"><ele>651</ele><time>2016-10-15T12:10:15Z</time></trkpt>
<trkpt lat="53.0846000000" lon="-4.1159930000"><ele>651</ele><time>2016-10-15T12:10:16Z</time></trkpt>
<trkpt lat="53.0846000000" lon="-4.1159930000"><ele>651</ele><time>2016-10-15T12:10:18Z</time></trkpt>
<trkpt lat="53.0845990000" lon="-4.1159930000"><ele>651</ele></trkpt>
<trkpt lat="53.0845980000" lon="-4.1159930000"><ele>651</ele><time>2016-10-15T12:10:19Z</time></trkpt>
<trkpt lat="53.0845980000" lon="-4.1159940000"><ele>651</ele><time>2016-10-15T12:10:20Z</time></trkpt>
<trkpt lat="53.0845980000" lon="-4.1159940000"><ele>651</ele><time>2016-10-15T12:10:21Z</time></trkpt>
<trkpt lat="53.0845970000" lon="-4.1159940000"><ele>650</ele><time>2016-10-15T12:10:22Z</time></trkpt>
<trkpt lat="53.0845970000" lon="-4.1159950000"><ele>650</ele><time>2016-10-15T12:10:23Z</time></trkpt>
<trkpt lat="53.0845970000" lon="-4.1159950000"><ele>650</ele><time>2016-10-15T12:10:24Z</time></trkpt>
<trkpt lat="53.0845970000" lon="-4.1159960000"><ele>650</ele><time>2016-10-15T12:10:25Z</time></trkpt>
<trkpt lat="53.0845970000" lon="-4.1159960000"><ele>650</ele><time>2016-10-15T12:10:26Z</time></trkpt>
<trkpt lat="53.0845970000" lon="-4.1159970000"><ele>650</ele><time>2016-10-15T12:10:27Z</time></trkpt>
<trkpt lat="53.0845970000" lon="-4.1159970000"><ele>650</ele><time>2016-10-15T12:10:28Z</time></trkpt>
<trkpt lat="53.0845970000" lon="-4.1159980000"><ele>650</ele><time>2016-10-15T12:10:29Z</time></trkpt>
<trkpt lat="53.0845970000" lon="-4.1159990000"><ele>650</ele><time>2016-10-15T12:10:30Z</time></trkpt>
<trkpt lat="53.0845970000" lon="-4.1159990000"><ele>650</ele><time>2016-10-15T12:10:31Z</time></trkpt>
<trkpt lat="53.0845970000" lon="-4.1159990000"><ele>650</ele><time>2016-10-15T12:10:32Z</time></trkpt>
<trkpt lat="53.0845980000" lon="-4.1160000000"><ele>650</ele><time>2016-10-15T12:10:33Z</time></trkpt>
<trkpt lat="53.0845980000" lon="-4.1160000000"><ele>650</ele><time>2016-10-15T12:10:34Z</time></trkpt>
<trkpt lat="53.0845980000" lon="-4.1160000000"><ele>651</ele><time>2016-10-15T12:10:35Z</time></trkpt>
<trkpt lat="53.0845980000" lon="-4.1160000000"><ele>651</ele><time>2016-10-15T12:10:36Z</time></trkpt>
<trkpt lat="53.0845980000" lon="-4.1160000000"><ele>651</ele><time>2016-10-15T12:10:37Z</time></trkpt>
<trkpt lat="53.0845980000" lon="-4.1160000000"><ele>651</ele><time>2016-10-15T12:10:38Z</time></trkpt>
<trkpt lat="53.0845980000" lon="-4.1160000000"><ele>651</ele><time>2016-10-15T12:10:39Z</time></trkpt>
<trkpt lat="53.0845990000" lon="-4.1160000000"><ele>651</ele><time>2016-10-15T12:10:40Z</time></trkpt>
<trkpt lat="53.0845990000" lon="-4.1159990000"><ele>651</ele><time>2016-10-15T12:10:41Z</time></trkpt>
<trkpt lat="53.0846000000" lon="-4.1159990000"><ele>651</ele><time>2016-10-15T12:10:42Z</time></trkpt>
<trkpt lat="53.0846000000" lon="-4.1159990000"><ele>651</ele><time>2016-10-15T12:10:43Z</time></trkpt>
<trkpt lat="53.0846000000" lon="-4.1159990000"><ele>651</ele><time>2016-10-15T12:10:44Z</time></trkpt>
<trkpt lat="53.0846000000" lon="-4.1159990000"><ele>651</ele><time>2016-10-15T12:10:45Z</time></trkpt>
<trkpt lat="53.0846010000" lon="-4.1159990000"><ele>651</ele><time>2016-10-15T12:10:46Z</time></trkpt>
<trkpt lat="53.0846010000" lon="-4.1159980000"><ele>651</ele><time>2016-10-15T12:10:47Z</time></trkpt>
<trkpt lat="53.0846010000" lon="-4.1159980000"><ele>651</ele><time>2016-10-15T12:10:48Z</time></trkpt>
<trkpt lat="53.0846010000" lon="-4.1159980000"><ele>651</ele><time>2016-10-15T12:10:49Z</time></trkpt>
<trkpt lat="53.0846010000" lon="-4.1159980000"><ele>651</ele><time>2016-10-15T12:10:50Z</time></trkpt>
<trkpt lat="53.0846010000" lon="-4.1159980000"><ele>651</ele><time>2016-10-15T12:10:51Z</time></trkpt>
<trkpt lat="53.0846010000" lon="-4.1159980000"><ele>651</ele><time>2016-10-15T12:10:52Z</time></trkpt>
<trkpt lat="53.0846010000" lon="-4.1159970000"><ele>651</ele><time>2016-10-15T12:10:53Z</time></trkpt>
<trkpt lat="53.0846010000" lon="-4.1159970000"><ele>651</ele><time>2016-10-15T12:10:54Z</time></trkpt>
<trkpt lat="53.0846010000" lon="-4.1159970000"><ele>651</ele><time>2016-10-15T12:10:55Z</time></trkpt>
<trkpt lat="53.0846010000" lon="-4.1159970000"><ele>651</ele><time>2016-10-15T12:10:56Z</time></trkpt>
<trkpt lat="53.0846010000" lon="-4.1159970000"><ele>651</ele><time>2016-10-15T12:10:57Z</time></trkpt>
<trkpt lat="53.0846010000" lon="-4.1159970000"><ele>651</ele><time>2016-10-15T12:10:58Z</time></trkpt>
<trkpt lat="53.0846010000" lon="-4.1159970000"><ele>651</ele><time>2016-10-15T12:10:59Z</time></trkpt>
<trkpt lat="53.0846010000" lon="-4.1159970000"><ele>651</ele><time>2016-10-15T12:11:00Z</time></trkpt>
<trkpt lat="53.0846010000" lon="-4.1159970000"><ele>651</ele><time>2016-10-15T12:11:01Z</time></trkpt>
<trkpt lat="53.0846020000" lon="-4.1159970000"><ele>651</ele><time>2016-10-15T12:11:02Z</time></trkpt>
<trkpt lat="53.0846020000" lon="-4.1159970000"><ele>652</ele><time>2016-10-15T12:11:03Z</time></trkpt>
<trkpt lat="53.0846020000" lon="-4.1159970000"><ele>652</ele><time>2016-10-15T12:11:04Z</time></trkpt>
<trkpt lat="53.0846020000" lon="-4.1159970000"><ele>652</ele><time>2016-10-15T12:11:05Z</time></trkpt>
<trkpt lat="53.0846020000" lon="-4.1159970000"><ele>652</ele><time>2016-10-15T12:11:06Z</time></trkpt>
<trkpt lat="53.0846020000" lon="-4.1159960000"><ele>652</ele><time>2016-10-15T12:11:07Z</time></trkpt>
<trkpt lat="53.0846020000" lon="-4.1159960000"><ele>652</ele><time>2016-10-15T12:11:08Z</time></trkpt>
<trkpt lat="53.0846020000" lon="-4.1159960000"><ele>652</ele><time>2016-10-15T12:11:09Z</time></trkpt>
<trkpt lat="53.0846020000" lon="-4.1159950000"><ele>652</ele><time>2016-10-15T12:11:10Z</time></trkpt>
<trkpt lat="53.0846020000" lon="-4.1159940000"><ele>652</ele><time>2016-10-15T12:11:11Z</time></trkpt>
<trkpt lat="53.0846010000" lon="-4.1159940000"><ele>652</ele><time>2016-10-15T12:11:12Z</time></trkpt>
<trkpt lat="53.0846010000" lon="-4.1159930000"><ele>652</ele><time>2016-10-15T12:11:13Z</time></trkpt>
<trkpt lat="53.0846000000" lon="-4.1159920000"><ele>652</ele><time>2016-10-15T12:11:14Z</time></trkpt>
<trkpt lat="53.0846000000" lon="-4.1159920000"><ele>652</ele><time>2016-10-15T12:11:15Z</time></trkpt>
<trkpt lat="53.0845990000" lon="-4.1159920000"><ele>652</ele><time>2016-10-15T12:11:16Z</time></trkpt>
<trkpt lat="53.0845990000" lon="-4.1159910000"><ele>652</ele><time>2016-10-15T12:11:18Z</time></trkpt>
<trkpt lat="53.0845970000" lon="-4.1159900000"><ele>652</ele><time>2016-10-15T12:11:20Z</time></trkpt>
<trkpt lat="53.0845960000" lon="-4.1159890000"><ele>652</ele><time>2016-10-15T12:11:21Z</time></trkpt>
<trkpt lat="53.0845950000" lon="-4.1159890000"><ele>652</ele><time>2016-10-15T12:11:22Z</time></trkpt>
<trkpt lat="53.0845950000" lon="-4.1159890000"><ele>652</ele><time>2016-10-15T12:11:23Z</time></trkpt>
<trkpt lat="53.0845940000" lon="-4.1159880000"><ele>652</ele><time>2016-10-15T12:11:24Z</time></trkpt>
<trkpt lat="53.0845940000" lon="-4.1159880000"><ele>652</ele><time>2016-10-15T12:11:25Z</time></trkpt>
<trkpt lat="53.0845930000" lon="-4.1159870000"><ele>652</ele><time>2016-10-15T12:11:26Z</time></trkpt>
<trkpt lat="53.0845930000" lon="-4.1159860000"><ele>652</ele><time>2016-10-15T12:11:27Z</time></trkpt>
<trkpt lat="53.0845920000" lon="-4.1159860000"><ele>652</ele><time>2016-10-15T12:11:28Z</time></trkpt>
<trkpt lat="53.0845920000" lon="-4.1159850000"><ele>652</ele><time>2016-10-15T12:11:29Z</time></trkpt>
<trkpt lat="53.0845920000" lon="-4.1159840000"><ele>652</ele><time>2016-10-15T12:11:30Z</time></trkpt>
<trkpt lat="53.0845920000" lon="-4.1159830000"><ele>652</ele><time>2016-10-15T12:11:31Z</time></trkpt>
<trkpt lat="53.0845910000" lon="-4.1159820000"><ele>652</ele><time>2016-10-15T12:11:32Z</time></trkpt>
<trkpt lat="53.0845910000" lon="-4.1159810000"><ele>652</ele><time>2016-10-15T12:11:33Z</time></trkpt>
<trkpt lat="53.0845910000" lon="-4.1159800000"><ele>652</ele><time>2016-10-15T12:11:34Z</time></trkpt>
<trkpt lat="53.0845910000" lon="-4.1159800000"><ele>652</ele><time>2016-10-15T12:11:35Z</time></trkpt>
<trkpt lat="53.0845910000" lon="-4.1159790000"><ele>652</ele><time>2016-10-15T12:11:36Z</time></trkpt>
<trkpt lat="53.0845910000" lon="-4.1159780000"><ele>652</ele><time>2016-10-15T12:11:37Z</time></trkpt>
<trkpt lat="53.0845910000" lon="-4.1159770000"><ele>652</ele><time>2016-10-15T12:11:38Z</time></trkpt>
<trkpt lat="53.0845910000" lon="-4.1159760000"><ele>652</ele><time>2016-10-15T12:11:39Z</time></trkpt>
<trkpt lat="53.0845900000" lon="-4.1159760000"><ele>652</ele><time>2016-10-15T12:11:40Z</time></trkpt>
<trkpt lat="53.0845900000" lon="-4.1159750000"><ele>652</ele><time>2016-10-15T12:11:41Z</time></trkpt>
<trkpt lat="53.0845910000" lon="-4.1159740000"><ele>652</ele><time>2016-10-15T12:11:42Z</time></trkpt>
<trkpt lat="53.0845910000" lon="-4.1159740000"><ele>653</ele><time>2016-10-15T12:11:43Z</time></trkpt>
<trkpt lat="53.0845910000" lon="-4.1159730000"><ele>653</ele><time>2016-10-15T12:11:44Z</time></trkpt>
<trkpt lat="53.0845910000" lon="-4.1159730000"><ele>653</ele><time>2016-10-15T12:11:45Z</time></trkpt>
<trkpt lat="53.0845910000" lon="-4.1159720000"><ele>653</ele><time>2016-10-15T12:11:46Z</time></trkpt>
<trkpt lat="53.0845920000" lon="-4.1159720000"><ele>653</ele><time>2016-10-15T12:11:47Z</time></trkpt>
<trkpt lat="53.0845920000" lon="-4.1159710000"><ele>653</ele><time>2016-10-15T12:11:48Z</time></trkpt>
<trkpt lat="53.0845920000" lon="-4.1159700000"><ele>653</ele><time>2016-10-15T12:11:49Z</time></trkpt>
<trkpt lat="53.0845920000" lon="-4.1159700000"><ele>653</ele><time>2016-10-15T12:11:50Z</time></trkpt>
<trkpt lat="53.0845920000" lon="-4.1159690000"><ele>653</ele><time>2016-10-15T12:11:51Z</time></trkpt>
<trkpt lat="53.0845920000" lon="-4.1159680000"><ele>654</ele><time>2016-10-15T12:11:52Z</time></trkpt>
<trkpt lat="53.0845920000" lon="-4.1159680000"><ele>654</ele><time>2016-10-15T12:11:53Z</time></trkpt>
<trkpt lat="53.0845920000" lon="-4.1159670000"><ele>654</ele><time>2016-10-15T12:11:54Z</time></trkpt>
<trkpt lat="53.0845920000" lon="-4.1159670000"><ele>654</ele><time>2016-10-15T12:11:55Z</time></trkpt>
<trkpt lat="53.0845920000" lon="-4.1159670000"><ele>654</ele><time>2016-10-15T12:11:56Z</time></trkpt>
<trkpt lat="53.0845920000" lon="-4.1159660000"><ele>654</ele><time>2016-10-15T12:11:57Z</time></trkpt>
<trkpt lat="53.0845920000" lon="-4.1159660000"><ele>654</ele><time>2016-10-15T12:11:58Z</time></trkpt>
<trkpt lat="53.0845920000" lon="-4.1159660000"><ele>654</ele><time>2016-10-15T12:11:59Z</time></trkpt>
<trkpt lat="53.0845930000" lon="-4.1159660000"><ele>654</ele><time>2016-10-15T12:12:00Z</time></trkpt>
<trkpt lat="53.0845940000" lon="-4.1159660000"><ele>654</ele><time>2016-10-15T12:12:01Z</time></trkpt>
<trkpt lat="53.0845950000" lon="-4.1159660000"><ele>654</ele><time>2016-10-15T12:12:02Z</time></trkpt>
<trkpt lat="53.0845960000" lon="-4.1159660000"><ele>654</ele><time>2016-10-15T12:12:03Z</time></trkpt>
<trkpt lat="53.0845970000" lon="-4.1159670000"><ele>654</ele><time>2016-10-15T12:12:04Z</time></trkpt>
<trkpt lat="53.0845980000" lon="-4.1159670000"><ele>654</ele><time>2016-10-15T12:12:05Z</time></trkpt>
<trkpt lat="53.0846000000" lon="-4.1159670000"><ele>654</ele><time>2016-10-15T12:12:06Z</time></trkpt>
<trkpt lat="53.0846010000" lon="-4.1159680000"><ele>654</ele><time>2016-10-15T12:12:07Z</time></trkpt>
<trkpt lat="53.0846020000" lon="-4.1159680000"><ele>654</ele><time>2016-10-15T12:12:08Z</time></trkpt>
<trkpt lat="53.0846030000" lon="-4.1159690000"><ele>655</ele><time>2016-10-15T12:12:09Z</time></trkpt>
<trkpt lat="53.0846040000" lon="-4.1159690000"><ele>655</ele><time>2016-10-15T12:12:10Z</time></trkpt>
<trkpt lat="53.0846050000" lon="-4.1159700000"><ele>655</ele><time>2016-10-15T12:12:11Z</time></trkpt>
<trkpt lat="53.0846070000" lon="-4.1159700000"><ele>655</ele><time>2016-10-15T12:12:12Z</time></trkpt>
<trkpt lat="53.0846080000" lon="-4.1159710000"><ele>655</ele><time>2016-10-15T12:12:13Z</time></trkpt>
<trkpt lat="53.0846080000" lon="-4.1159710000"><ele>655</ele><time>2016-10-15T12:12:14Z</time></trkpt>
<trkpt lat="53.0846090000" lon="-4.1159710000"><ele>655</ele><time>2016-10-15T12:12:15Z</time></trkpt>
<trkpt lat="53.0846090000" lon="-4.1159710000"><ele>655</ele><time>2016-10-15T12:12:16Z</time></trkpt>
<trkpt lat="53.0846100000" lon="-4.1159720000"><ele>655</ele><time>2016-10-15T12:12:18Z</time></trkpt>
<trkpt lat="53.0846040000" lon="-4.1159730000"><ele>653</ele><time>2016-10-15T12:12:25Z</time></trkpt>
<trkpt lat="53.0846030000" lon="-4.1159740000"><ele>653</ele><time>2016-10-15T12:12:26Z</time></trkpt>
<trkpt lat="53.0846020000" lon="-4.1159740000"><ele>653</ele><time>2016-10-15T12:12:27Z</time></trkpt>
<trkpt lat="53.0846010000" lon="-4.1159740000"><ele>653</ele><time>2016-10-15T12:12:28Z</time></trkpt>
<trkpt lat="53.0846000000" lon="-4.1159740000"><ele>653</ele><time>2016-10-15T12:12:29Z</time></trkpt>
<trkpt lat="53.0845990000" lon="-4.1159750000"><ele>653</ele><time>2016-10-15T12:12:30Z</time></trkpt>
<trkpt lat="53.0845980000" lon="-4.1159750000"><ele>653</ele><time>2016-10-15T12:12:31Z</time></trkpt>
<trkpt lat="53.0845980000" lon="-4.1159750000"><ele>652</ele><time>2016-10-15T12:12:32Z</time></trkpt>
<trkpt lat="53.0845970000" lon="-4.1159750000"><ele>652</ele><time>2016-10-15T12:12:33Z</time></trkpt>
<trkpt lat="53.0845960000" lon="-4.1159750000"><ele>652</ele><time>2016-10-15T12:12:34Z</time></trkpt>
<trkpt lat="53.0845950000" lon="-4.1159750000"><ele>652</ele><time>2016-10-15T12:12:35Z</time></trkpt>
<trkpt lat="53.0845950000" lon="-4.1159750000"><ele>652</ele><time>2016-10-15T12:12:36Z</time></trkpt>
<trkpt lat="53.0845940000" lon="-4.1159750000"><ele>652</ele><time>2016-10-15T12:12:37Z</time></trkpt>
<trkpt lat="53.0845930000" lon="-4.1159750000"><ele>652</ele><time>2016-10-15T12:12:38Z</time></trkpt>
<trkpt lat="53.0845920000" lon="-4.1159750000"><ele>652</ele><time>2016-10-15T12:12:39Z</time></trkpt>
<trkpt lat="53.0845910000" lon="-4.1159760000"><ele>652</ele><time>2016-10-15T12:12:40Z</time></trkpt>
<trkpt lat="53.0845910000" lon="-4.1159760000"><ele>652</ele><time>2016-10-15T12:12:41Z</time></trkpt>
<trkpt lat="53.0845900000" lon="-4.1159760000"><ele>652</ele><time>2016-10-15T12:12:42Z</time></trkpt>
<trkpt lat="53.0845900000" lon="-4.1159760000"><ele>652</ele><time>2016-10-15T12:12:43Z</time></trkpt>
<trkpt lat="53.0845890000" lon="-4.1159760000"><ele>652</ele><time>2016-10-15T12:12:44Z</time></trkpt>
<trkpt lat="53.0845890000" lon="-4.1159750000"><ele>652</ele><time>2016-10-15T12:12:45Z</time></trkpt>
<trkpt lat="53.0845880000" lon="-4.1159750000"><ele>652</ele><time>2016-10-15T12:12:46Z</time></trkpt>
<trkpt lat="53.0845880000" lon="-4.1159750000"><ele>652</ele><time>2016-10-15T12:12:47Z</time></trkpt>
<trkpt lat="53.0845880000" lon="-4.1159750000"><ele>652</ele><time>2016-10-15T12:12:48Z</time></trkpt>
<trkpt lat="53.0845870000" lon="-4.1159740000"><ele>652</ele><time>2016-10-15T12:12:49Z</time></trkpt>
<trkpt lat="53.0845870000" lon="-4.1159740000"><ele>652</ele><time>2016-10-15T12:12:50Z</time></trkpt>
<trkpt lat="53.0845870000" lon="-4.1159740000"><ele>652</ele><time>2016-10-15T12:12:51Z</time></trkpt>
<trkpt lat="53.0845860000" lon="-4.1159730000"><ele>652</ele><time>2016-10-15T12:12:52Z</time></trkpt>
<trkpt lat="53.0845850000" lon="-4.1159720000"><ele>652</ele><time>2016-10-15T12:12:53Z</time></trkpt>
<trkpt lat="53.0845840000" lon="-4.1159720000"><ele>652</ele><time>2016-10-15T12:12:54Z</time></trkpt>
<trkpt lat="53.0845830000" lon="-4.1159710000"><ele>652</ele><time>2016-10-15T12:12:55Z</time></trkpt>
<trkpt lat="53.0845760000" lon="-4.1159610000"><ele>651</ele><time>2016-10-15T12:13:06Z</time></trkpt>
<trkpt lat="53.0845760000" lon="-4.1159610000"><ele>651</ele><time>2016-10-15T12:13:07Z</time></trkpt>
<trkpt lat="53.0845750000" lon="-4.1159600000"><ele>651</ele><time>2016-10-15T12:13:08Z</time></trkpt>
<trkpt lat="53.0845750000" lon="-4.1159590000"><ele>651</ele><time>2016-10-15T12:13:09Z</time></trkpt>
<trkpt lat="53.0845740000" lon="-4.1159590000"><ele>651</ele><time>2016-10-15T12:13:10Z</time></trkpt>
<trkpt lat="53.0845740000" lon="-4.1159580000"><ele>651</ele><time>2016-10-15T12:13:11Z</time></trkpt>
<trkpt lat="53.0845730000" lon="-4.1159570000"><ele>651</ele><time>2016-10-15T12:13:12Z</time></trkpt>
<trkpt lat="53.0845720000" lon="-4.1159560000"><ele>651</ele><time>2016-10-15T12:13:13Z</time></trkpt>
<trkpt lat="53.0845710000" lon="-4.1159550000"><ele>651</ele><time>2016-10-15T12:13:14Z</time></trkpt>
<trkpt lat="53.0845700000" lon="-4.1159540000"><ele>651</ele><time>2016-10-15T12:13:15Z</time></trkpt>
<trkpt lat="53.0845690000" lon="-4.1159540000"><ele>650</ele><time>2016-10-15T12:13:16Z</time></trkpt>
<trkpt lat="53.0845690000" lon="-4.1159530000"><ele>650</ele><time>2016-10-15T12:13:18Z</time></trkpt>
<trkpt lat="53.0845680000" lon="-4.1159520000"><ele>650</ele></trkpt>
<trkpt lat="53.0845680000" lon="-4.1159520000"><ele>650</ele><time>2016-10-15T12:13:19Z</time></trkpt>
<trkpt lat="53.0845670000" lon="-4.1159510000"><ele>650</ele><time>2016-10-15T12:13:20Z</time></trkpt>
<trkpt lat="53.0845670000" lon="-4.1159510000"><ele>650</ele><time>2016-10-15T12:13:21Z</time></trkpt>
<trkpt lat="53.0845680000" lon="-4.1159500000"><ele>650</ele><time>2016-10-15T12:13:22Z</time></trkpt>
<trkpt lat="53.0845680000" lon="-4.1159500000"><ele>650</ele><time>2016-10-15T12:13:23Z</time></trkpt>
<trkpt lat="53.0845680000" lon="-4.1159500000"><ele>650</ele><time>2016-10-15T12:13:24Z</time></trkpt>
<trkpt lat="53.0845720000" lon="-4.1159490000"><ele>651</ele><time>2016-10-15T12:13:31Z</time></trkpt>
<trkpt lat="53.0845720000" lon="-4.1159490000"><ele>651</ele><time>2016-10-15T12:13:32Z</time></trkpt>
<trkpt lat="53.0845730000" lon="-4.1159490000"><ele>651</ele><time>2016-10-15T12:13:33Z</time></trkpt>
<trkpt lat="53.0845730000" lon="-4.1159490000"><ele>651</ele><time>2016-10-15T12:13:34Z</time></trkpt>
<trkpt lat="53.0845730000" lon="-4.1159500000"><ele>650</ele><time>2016-10-15T12:13:35Z</time></trkpt>
<trkpt lat="53.0845730000" lon="-4.1159500000"><ele>650</ele><time>2016-10-15T12:13:36Z</time></trkpt>
<trkpt lat="53.0845730000" lon="-4.1159500000"><ele>650</ele><time>2016-10-15T12:13:37Z</time></trkpt>
<trkpt lat="53.0845730000" lon="-4.1159510000"><ele>650</ele><time>2016-10-15T12:13:38Z</time></trkpt>
<trkpt lat="53.0845740000" lon="-4.1159520000"><ele>650</ele><time>2016-10-15T12:13:39Z</time></trkpt>
<trkpt lat="53.0845740000" lon="-4.1159520000"><ele>650</ele><time>2016-10-15T12:13:40Z</time></trkpt>
<trkpt lat="53.0845750000" lon="-4.1159530000"><ele>650</ele><time>2016-10-15T12:13:41Z</time></trkpt>
<trkpt lat="53.0845750000" lon="-4.1159530000"><ele>650</ele><time>2016-10-15T12:13:42Z</time></trkpt>
<trkpt lat="53.0845760000" lon="-4.1159540000"><ele>650</ele><time>2016-10-15T12:13:43Z</time></trkpt>
<trkpt lat="53.0845760000" lon="-4.1159550000"><ele>650</ele><time>2016-10-15T12:13:44Z</time></trkpt>
<trkpt lat="53.0845770000" lon="-4.1159550000"><ele>650</ele><time>2016-10-15T12:13:45Z</time></trkpt>
<trkpt lat="53.0845770000" lon="-4.1159560000"><ele>650</ele><time>2016-10-15T12:13:46Z</time></trkpt>
<trkpt lat="53.0845770000" lon="-4.1159560000"><ele>650</ele><time>2016-10-15T12:13:47Z</time></trkpt>
<trkpt lat="53.0845780000" lon="-4.1159570000"><ele>650</ele><time>2016-10-15T12:13:48Z</time></trkpt>
<trkpt lat="53.0845780000" lon="-4.1159570000"><ele>650</ele><time>2016-10-15T12:13:49Z</time></trkpt>
<trkpt lat="53.0845780000" lon="-4.1159570000"><ele>650</ele><time>2016-10-15T12:13:50Z</time></trkpt>
<trkpt lat="53.0845780000" lon="-4.1159580000"><ele>650</ele><time>2016-10-15T12:13:51Z</time></trkpt>
<trkpt lat="53.0845780000" lon="-4.1159580000"><ele>650</ele><time>2016-10-15T12:13:52Z</time></trkpt>
<trkpt lat="53.0845780000" lon="-4.1159580000"><ele>650</ele><time>2016-10-15T12:13:53Z</time></trkpt>
<trkpt lat="53.0845780000" lon="-4.1159590000"><ele>650</ele><time>2016-10-15T12:13:54Z</time></trkpt>
<trkpt lat="53.0845780000" lon="-4.1159590000"><ele>650</ele><time>2016-10-15T12:13:55Z</time></trkpt>
<trkpt lat="53.0845780000" lon="-4.1159600000"><ele>650</ele><time>2016-10-15T12:13:56Z</time></trkpt>
<trkpt lat="53.0845770000" lon="-4.1159600000"><ele>650</ele><time>2016-10-15T12:13:57Z</time></trkpt>
<trkpt lat="53.0845770000" lon="-4.1159610000"><ele>650</ele><time>2016-10-15T12:13:58Z</time></trkpt>
<trkpt lat="53.0845770000" lon="-4.1159610000"><ele>650</ele><time>2016-10-15T12:13:59Z</time></trkpt>
<trkpt lat="53.0845770000" lon="-4.1159620000"><ele>650</ele><time>2016-10-15T12:14:00Z</time></trkpt>
<trkpt lat="53.0845770000" lon="-4.1159620000"><ele>650</ele><time>2016-10-15T12:14:01Z</time></trkpt>
<trkpt lat="53.0845770000" lon="-4.1159630000"><ele>650</ele><time>2016-10-15T12:14:02Z</time></trkpt>
<trkpt lat="53.0845770000" lon="-4.1159630000"><ele>650</ele><time>2016-10-15T12:14:03Z</time></trkpt>
<trkpt lat="53.0845770000" lon="-4.1159640000"><ele>650</ele><time>2016-10-15T12:14:04Z</time></trkpt>
<trkpt lat="53.0845770000" lon="-4.1159640000"><ele>650</ele><time>2016-10-15T12:14:05Z</time></trkpt>
<trkpt lat="53.0845770000" lon="-4.1159650000"><ele>649</ele><time>2016-10-15T12:14:06Z</time></trkpt>
<trkpt lat="53.0845770000" lon="-4.1159650000"><ele>649</ele><time>2016-10-15T12:14:07Z</time></trkpt>
<trkpt lat="53.0845770000" lon="-4.1159650000"><ele>649</ele><time>2016-10-15T12:14:08Z</time></trkpt>
<trkpt lat="53.0845760000" lon="-4.1159660000"><ele>649</ele><time>2016-10-15T12:14:09Z</time></trkpt>
<trkpt lat="53.0845760000" lon="-4.1159660000"><ele>649</ele><time>2016-10-15T12:14:10Z</time></trkpt>
<trkpt lat="53.0845760000" lon="-4.1159660000"><ele>649</ele><time>2016-10-15T12:14:11Z</time></trkpt>
<trkpt lat="53.0845760000" lon="-4.1159670000"><ele>649</ele><time>2016-10-15T12:14:12Z</time></trkpt>
<trkpt lat="53.0845760000" lon="-4.1159670000"><ele>649</ele><time>2016-10-15T12:14:13Z</time></trkpt>
<trkpt lat="53.0845760000" lon="-4.1159680000"><ele>649</ele><time>2016-10-15T12:14:14Z</time></trkpt>
<trkpt lat="53.0845760000" lon="-4.1159680000"><ele>649</ele><time>2016-10-15T12:14:15Z</time></trkpt>
<trkpt lat="53.0845760000" lon="-4.1159690000"><ele>649</ele><time>2016-10-15T12:14:16Z</time></trkpt>
<trkpt lat="53.0845760000" lon="-4.1159690000"><ele>649</ele><time>2016-10-15T12:14:18Z</time></trkpt>
<trkpt lat="53.0845760000" lon="-4.1159700000"><ele>649</ele></trkpt>
<trkpt lat="53.0845750000" lon="-4.1159700000"><ele>649</ele><time>2016-10-15T12:14:19Z</time></trkpt>
<trkpt lat="53.0845750000" lon="-4.1159700000"><ele>649</ele><time>2016-10-15T12:14:20Z</time></trkpt>
<trkpt lat="53.0845750000" lon="-4.1159710000"><ele>649</ele><time>2016-10-15T12:14:21Z</time></trkpt>
<trkpt lat="53.0845750000" lon="-4.1159710000"><ele>649</ele><time>2016-10-15T12:14:22Z</time></trkpt>
<trkpt lat="53.0845750000" lon="-4.1159710000"><ele>648</ele><time>2016-10-15T12:14:23Z</time></trkpt>
<trkpt lat="53.0845750000" lon="-4.1159710000"><ele>648</ele><time>2016-10-15T12:14:24Z</time></trkpt>
<trkpt lat="53.0845740000" lon="-4.1159710000"><ele>648</ele><time>2016-10-15T12:14:25Z</time></trkpt>
<trkpt lat="53.0845740000" lon="-4.1159720000"><ele>648</ele><time>2016-10-15T12:14:26Z</time></trkpt>
<trkpt lat="53.0845740000" lon="-4.1159720000"><ele>648</ele><time>2016-10-15T12:14:27Z</time></trkpt>
<trkpt lat="53.0845730000" lon="-4.1159720000"><ele>648</ele><time>2016-10-15T12:14:28Z</time></trkpt>
<trkpt lat="53.0845730000" lon="-4.1159720000"><ele>648</ele><time>2016-10-15T12:14:29Z</time></trkpt>
<trkpt lat="53.0845730000" lon="-4.1159720000"><ele>648</ele><time>2016-10-15T12:14:30Z</time></trkpt>
<trkpt lat="53.0845720000" lon="-4.1159720000"><ele>648</ele><time>2016-10-15T12:14:31Z</time></trkpt>
<trkpt lat="53.0845720000" lon="-4.1159720000"><ele>648</ele><time>2016-10-15T12:14:32Z</time></trkpt>
<trkpt lat="53.0845720000" lon="-4.1159720000"><ele>648</ele><time>2016-10-15T12:14:33Z</time></trkpt>
<trkpt lat="53.0845710000" lon="-4.1159720000"><ele>648</ele><time>2016-10-15T12:14:34Z</time></trkpt>
<trkpt lat="53.0845710000" lon="-4.1159720000"><ele>648</ele><time>2016-10-15T12:14:35Z</time></trkpt>
<trkpt lat="53.0845710000" lon="-4.1159720000"><ele>648</ele><time>2016-10-15T12:14:36Z</time></trkpt>
<trkpt lat="53.0845700000" lon="-4.1159720000"><ele>648</ele><time>2016-10-15T12:14:37Z</time></trkpt>
<trkpt lat="53.0845700000" lon="-4.1159720000"><ele>648</ele><time>2016-10-15T12:14:38Z</time></trkpt>
<trkpt lat="53.0845700000" lon="-4.1159720000"><ele>648</ele><time>2016-10-15T12:14:39Z</time></trkpt>
<trkpt lat="53.0845700000" lon="-4.1159720000"><ele>648</ele><time>2016-10-15T12:14:40Z</time></trkpt>
<trkpt lat="53.0845690000" lon="-4.1159720000"><ele>648</ele><time>2016-10-15T12:14:41Z</time></trkpt>
<trkpt lat="53.0845690000" lon="-4.1159720000"><ele>648</ele><time>2016-10-15T12:14:42Z</time></trkpt>
<trkpt lat="53.0845690000" lon="-4.1159720000"><ele>648</ele><time>2016-10-15T12:14:43Z</time></trkpt>
<trkpt lat="53.0845690000" lon="-4.1159720000"><ele>648</ele><time>2016-10-15T12:14:44Z</time></trkpt>
<trkpt lat="53.0845690000" lon="-4.1159720000"><ele>648</ele><time>2016-10-15T12:14:45Z</time></trkpt>
<trkpt lat="53.0845690000" lon="-4.1159730000"><ele>648</ele><time>2016-10-15T12:14:46Z</time></trkpt>
<trkpt lat="53.0845680000" lon="-4.1159730000"><ele>648</ele><time>2016-10-15T12:14:47Z</time></trkpt>
<trkpt lat="53.0845680000" lon="-4.1159730000"><ele>648</ele><time>2016-10-15T12:14:48Z</time></trkpt>
<trkpt lat="53.0845680000" lon="-4.1159730000"><ele>648</ele><time>2016-10-15T12:14:49Z</time></trkpt>
<trkpt lat="53.0845680000" lon="-4.1159730000"><ele>648</ele><time>2016-10-15T12:14:50Z</time></trkpt>
<trkpt lat="53.0845680000" lon="-4.1159740000"><ele>648</ele><time>2016-10-15T12:14:51Z</time></trkpt>
<trkpt lat="53.0845680000" lon="-4.1159740000"><ele>648</ele><time>2016-10-15T12:14:52Z</time></trkpt>
<trkpt lat="53.0845680000" lon="-4.1159740000"><ele>648</ele><time>2016-10-15T12:14:53Z</time></trkpt>
<trkpt lat="53.0845680000" lon="-4.1159740000"><ele>648</ele><time>2016-10-15T12:14:54Z</time></trkpt>
<trkpt lat="53.0845680000" lon="-4.1159750000"><ele>648</ele><time>2016-10-15T12:14:55Z</time></trkpt>
<trkpt lat="53.0845680000" lon="-4.1159750000"><ele>648</ele><time>2016-10-15T12:14:56Z</time></trkpt>
<trkpt lat="53.0845680000" lon="-4.1159750000"><ele>648</ele><time>2016-10-15T12:14:57Z</time></trkpt>
<trkpt lat="53.0845680000" lon="-4.1159750000"><ele>648</ele><time>2016-10-15T12:14:58Z</time></trkpt>
<trkpt lat="53.0845680000" lon="-4.1159760000"><ele>648</ele><time>2016-10-15T12:14:59Z</time></trkpt>
<trkpt lat="53.0845680000" lon="-4.1159760000"><ele>648</ele><time>2016-10-15T12:15:00Z</time></trkpt>
<trkpt lat="53.0845680000" lon="-4.1159770000"><ele>648</ele><time>2016-10-15T12:15:01Z</time></trkpt>
<trkpt lat="53.0845680000" lon="-4.1159770000"><ele>648</ele><time>2016-10-15T12:15:02Z</time></trkpt>
<trkpt lat="53.0845680000" lon="-4.1159770000"><ele>648</ele><time>2016-10-15T12:15:03Z</time></trkpt>
<trkpt lat="53.0845680000" lon="-4.1159780000"><ele>648</ele><time>2016-10-15T12:15:04Z</time></trkpt>
<trkpt lat="53.0845680000" lon="-4.1159780000"><ele>648</ele><time>2016-10-15T12:15:05Z</time></trkpt>
<trkpt lat="53.0845680000" lon="-4.1159780000"><ele>648</ele><time>2016-10-15T12:15:06Z</time></trkpt>
<trkpt lat="53.0845690000" lon="-4.1159790000"><ele>649</ele><time>2016-10-15T12:15:07Z</time></trkpt>
<trkpt lat="53.0845690000" lon="-4.1159790000"><ele>649</ele><time>2016-10-15T12:15:08Z</time></trkpt>
<trkpt lat="53.0845690000" lon="-4.1159790000"><ele>649</ele><time>2016-10-15T12:15:09Z</time></trkpt>
<trkpt lat="53.0845690000" lon="-4.1159800000"><ele>649</ele><time>2016-10-15T12:15:10Z</time></trkpt>
<trkpt lat="53.0845700000" lon="-4.1159800000"><ele>649</ele><time>2016-10-15T12:15:11Z</time></trkpt>
<trkpt lat="53.0845700000" lon="-4.1159800000"><ele>649</ele><time>2016-10-15T12:15:12Z</time></trkpt>
<trkpt lat="53.0845700000" lon="-4.1159810000"><ele>649</ele><time>2016-10-15T12:15:13Z</time></trkpt>
<trkpt lat="53.0845700000" lon="-4.1159810000"><ele>650</ele><time>2016-10-15T12:15:14Z</time></trkpt>
<trkpt lat="53.0845700000" lon="-4.1159810000"><ele>650</ele><time>2016-10-15T12:15:15Z</time></trkpt>
<trkpt lat="53.0845710000" lon="-4.1159820000"><ele>650</ele><time>2016-10-15T12:15:16Z</time></trkpt>
<trkpt lat="53.0845710000" lon="-4.1159820000"><ele>650</ele><time>2016-10-15T12:15:18Z</time></trkpt>
<trkpt lat="53.0845710000" lon="-4.1159820000"><ele>650</ele></trkpt>
<trkpt lat="53.0845710000" lon="-4.1159820000"><ele>650</ele><time>2016-10-15T12:15:19Z</time></trkpt>
<trkpt lat="53.0845720000" lon="-4.1159830000"><ele>650</ele><time>2016-10-15T12:15:20Z</time></trkpt>
<trkpt lat="53.0845720000" lon="-4.1159830000"><ele>650</ele><time>2016-10-15T12:15:21Z</time></trkpt>
<trkpt lat="53.0845720000" lon="-4.1159830000"><ele>650</ele><time>2016-10-15T12:15:22Z</time></trkpt>
<trkpt lat="53.0845720000" lon="-4.1159830000"><ele>650</ele><time>2016-10-15T12:15:23Z</time></trkpt>
<trkpt lat="53.0845720000" lon="-4.1159830000"><ele>650</ele><time>2016-10-15T12:15:24Z</time></trkpt>
<trkpt lat="53.0845720000" lon="-4.1159830000"><ele>650</ele><time>2016-10-15T12:15:25Z</time></trkpt>
<trkpt lat="53.0845730000" lon="-4.1159830000"><ele>650</ele><time>2016-10-15T12:15:26Z</time></trkpt>
<trkpt lat="53.0845730000" lon="-4.1159830000"><ele>650</ele><time>2016-10-15T12:15:27Z</time></trkpt>
<trkpt lat="53.0845730000" lon="-4.1159840000"><ele>650</ele><time>2016-10-15T12:15:28Z</time></trkpt>
<trkpt lat="53.0845730000" lon="-4.1159840000"><ele>650</ele><time>2016-10-15T12:15:29Z</time></trkpt>
<trkpt lat="53.0845730000" lon="-4.1159840000"><ele>650</ele><time>2016-10-15T12:15:30Z</time></trkpt>
<trkpt lat="53.0845730000" lon="-4.1159840000"><ele>650</ele><time>2016-10-15T12:15:31Z</time></trkpt>
<trkpt lat="53.0845730000" lon="-4.1159840000"><ele>650</ele><time>2016-10-15T12:15:32Z</time></trkpt>
<trkpt lat="53.0845740000" lon="-4.1159840000"><ele>650</ele><time>2016-10-15T12:15:33Z</time></trkpt>
<trkpt lat="53.0845740000" lon="-4.1159840000"><ele>650</ele><time>2016-10-15T12:15:34Z</time></trkpt>
<trkpt lat="53.0845740000" lon="-4.1159840000"><ele>651</ele><time>2016-10-15T12:15:35Z</time></trkpt>
<trkpt lat="53.0845740000" lon="-4.1159840000"><ele>651</ele><time>2016-10-15T12:15:36Z</time></trkpt>
<trkpt lat="53.0845740000" lon="-4.1159840000"><ele>651</ele><time>2016-10-15T12:15:37Z</time></trkpt>
<trkpt lat="53.0845750000" lon="-4.1159840000"><ele>651</ele><time>2016-10-15T12:15:38Z</time></trkpt>
<trkpt lat="53.0845750000" lon="-4.1159840000"><ele>651</ele><time>2016-10-15T12:15:39Z</time></trkpt>
<trkpt lat="53.0845750000" lon="-4.1159840000"><ele>651</ele><time>2016-10-15T12:15:40Z</time></trkpt>
<trkpt lat="53.0845760000" lon="-4.1159840000"><ele>651</ele><time>2016-10-15T12:15:41Z</time></trkpt>
<trkpt lat="53.0845760000" lon="-4.1159850000"><ele>651</ele><time>2016-10-15T12:15:42Z</time></trkpt>
<trkpt lat="53.0845770000" lon="-4.1159850000"><ele>651</ele><time>2016-10-15T12:15:43Z</time></trkpt>
<trkpt lat="53.0845770000" lon="-4.1159850000"><ele>651</ele><time>2016-10-15T12:15:44Z</time></trkpt>
<trkpt lat="53.0845770000" lon="-4.1159850000"><ele>651</ele><time>2016-10-15T12:15:45Z</time></trkpt>
<trkpt lat="53.0845780000" lon="-4.1159850000"><ele>651</ele><time>2016-10-15T12:15:46Z</time></trkpt>
<trkpt lat="53.0845780000" lon="-4.1159850000"><ele>651</ele><time>2016-10-15T12:15:47Z</time></trkpt>
<trkpt lat="53.0845790000" lon="-4.1159850000"><ele>651</ele><time>2016-10-15T12:15:48Z</time></trkpt>
<trkpt lat="53.0845790000" lon="-4.1159850000"><ele>651</ele><time>2016-10-15T12:15:49Z</time></trkpt>
<trkpt lat="53.0845790000" lon="-4.1159850000"><ele>651</ele><time>2016-10-15T12:15:50Z</time></trkpt>
<trkpt lat="53.0845800000" lon="-4.1159860000"><ele>652</ele><time>2016-10-15T12:15:51Z</time></trkpt>
<trkpt lat="53.0845800000" lon="-4.1159860000"><ele>652</ele><time>2016-10-15T12:15:52Z</time></trkpt>
<trkpt lat="53.0845810000" lon="-4.1159860000"><ele>652</ele><time>2016-10-15T12:15:53Z</time></trkpt>
<trkpt lat="53.0845810000" lon="-4.1159860000"><ele>652</ele><time>2016-10-15T12:15:54Z</time></trkpt>
<trkpt lat="53.0845810000" lon="-4.1159860000"><ele>652</ele><time>2016-10-15T12:15:55Z</time></trkpt>
<trkpt lat="53.0845820000" lon="-4.1159860000"><ele>652</ele><time>2016-10-15T12:15:56Z</time></trkpt>
<trkpt lat="53.0845830000" lon="-4.1159860000"><ele>652</ele><time>2016-10-15T12:15:57Z</time></trkpt>
<trkpt lat="53.0845830000" lon="-4.1159850000"><ele>652</ele><time>2016-10-15T12:15:58Z</time></trkpt>
<trkpt lat="53.0845840000" lon="-4.1159850000"><ele>653</ele><time>2016-10-15T12:15:59Z</time></trkpt>
<trkpt lat="53.0845850000" lon="-4.1159850000"><ele>653</ele><time>2016-10-15T12:16:00Z</time></trkpt>
<trkpt lat="53.0845860000" lon="-4.1159850000"><ele>653</ele><time>2016-10-15T12:16:01Z</time></trkpt>
<trkpt lat="53.0845870000" lon="-4.1159850000"><ele>653</ele><time>2016-10-15T12:16:02Z</time></trkpt>
<trkpt lat="53.0845950000" lon="-4.1159820000"><ele>654</ele><time>2016-10-15T12:16:10Z</time></trkpt>
<trkpt lat="53.0845960000" lon="-4.1159820000"><ele>654</ele><time>2016-10-15T12:16:11Z</time></trkpt>
<trkpt lat="53.0845970000" lon="-4.1159820000"><ele>654</ele><time>2016-10-15T12:16:12Z</time></trkpt>
<trkpt lat="53.0845980000" lon="-4.1159820000"><ele>654</ele><time>2016-10-15T12:16:13Z</time></trkpt>
<trkpt lat="53.0845990000" lon="-4.1159810000"><ele>654</ele><time>2016-10-15T12:16:14Z</time></trkpt>
<trkpt lat="53.0845990000" lon="-4.1159810000"><ele>654</ele><time>2016-10-15T12:16:15Z</time></trkpt>
<trkpt lat="53.0846000000" lon="-4.1159810000"><ele>654</ele><time>2016-10-15T12:16:16Z</time></trkpt>
<trkpt lat="53.0846000000" lon="-4.1159810000"><ele>654</ele><time>2016-10-15T12:16:18Z</time></trkpt>
<trkpt lat="53.0846010000" lon="-4.1159800000"><ele>654</ele></trkpt>
<trkpt lat="53.0846010000" lon="-4.1159800000"><ele>654</ele><time>2016-10-15T12:16:19Z</time></trkpt>
<trkpt lat="53.0846010000" lon="-4.1159800000"><ele>654</ele><time>2016-10-15T12:16:20Z</time></trkpt>
<trkpt lat="53.0846010000" lon="-4.1159790000"><ele>654</ele><time>2016-10-15T12:16:21Z</time></trkpt>
<trkpt lat="53.0846020000" lon="-4.1159790000"><ele>654</ele><time>2016-10-15T12:16:22Z</time></trkpt>
<trkpt lat="53.0846020000" lon="-4.1159780000"><ele>654</ele><time>2016-10-15T12:16:23Z</time></trkpt>
<trkpt lat="53.0846020000" lon="-4.1159780000"><ele>654</ele><time>2016-10-15T12:16:24Z</time></trkpt>
<trkpt lat="53.0846020000" lon="-4.1159770000"><ele>654</ele><time>2016-10-15T12:16:25Z</time></trkpt>
<trkpt lat="53.0846020000" lon="-4.1159760000"><ele>654</ele><time>2016-10-15T12:16:26Z</time></trkpt>
<trkpt lat="53.0846020000" lon="-4.1159760000"><ele>654</ele><time>2016-10-15T12:16:27Z</time></trkpt>
<trkpt lat="53.0846020000" lon="-4.1159750000"><ele>654</ele><time>2016-10-15T12:16:28Z</time></trkpt>
<trkpt lat="53.0846000000" lon="-4.1159700000"><ele>654</ele><time>2016-10-15T12:16:37Z</time></trkpt>
<trkpt lat="53.0846000000" lon="-4.1159700000"><ele>654</ele><time>2016-10-15T12:16:38Z</time></trkpt>
<trkpt lat="53.0845990000" lon="-4.1159700000"><ele>654</ele><time>2016-10-15T12:16:39Z</time></trkpt>
<trkpt lat="53.0845990000" lon="-4.1159690000"><ele>654</ele><time>2016-10-15T12:16:40Z</time></trkpt>
<trkpt lat="53.0845980000" lon="-4.1159690000"><ele>654</ele><time>2016-10-15T12:16:41Z</time></trkpt>
<trkpt lat="53.0845980000" lon="-4.1159690000"><ele>653</ele><time>2016-10-15T12:16:42Z</time></trkpt>
<trkpt lat="53.0845970000" lon="-4.1159690000"><ele>653</ele><time>2016-10-15T12:16:43Z</time></trkpt>
<trkpt lat="53.0845970000" lon="-4.1159690000"><ele>653</ele><time>2016-10-15T12:16:44Z</time></trkpt>
<trkpt lat="53.0845970000" lon="-4.1159700000"><ele>653</ele><time>2016-10-15T12:16:45Z</time></trkpt>
<trkpt lat="53.0845960000" lon="-4.1159700000"><ele>653</ele><time>2016-10-15T12:16:46Z</time></trkpt>
<trkpt lat="53.0845960000" lon="-4.1159700000"><ele>653</ele><time>2016-10-15T12:16:47Z</time></trkpt>
<trkpt lat="53.0845960000" lon="-4.1159700000"><ele>653</ele><time>2016-10-15T12:16:48Z</time></trkpt>
<trkpt lat="53.0845950000" lon="-4.1159700000"><ele>653</ele><time>2016-10-15T12:16:49Z</time></trkpt>
<trkpt lat="53.0845950000" lon="-4.1159700000"><ele>653</ele><time>2016-10-15T12:16:50Z</time></trkpt>
<trkpt lat="53.0845940000" lon="-4.1159700000"><ele>653</ele><time>2016-10-15T12:16:51Z</time></trkpt>
<trkpt lat="53.0845940000" lon="-4.1159700000"><ele>653</ele><time>2016-10-15T12:16:52Z</time></trkpt>
<trkpt lat="53.0845930000" lon="-4.1159700000"><ele>653</ele><time>2016-10-15T12:16:53Z</time></trkpt>
<trkpt lat="53.0845930000" lon="-4.1159700000"><ele>653</ele><time>2016-10-15T12:16:54Z</time></trkpt>
<trkpt lat="53.0845920000" lon="-4.1159700000"><ele>653</ele><time>2016-10-15T12:16:55Z</time></trkpt>
<trkpt lat="53.0845920000" lon="-4.1159700000"><ele>653</ele><time>2016-10-15T12:16:56Z</time></trkpt>
<trkpt lat="53.0845910000" lon="-4.1159700000"><ele>653</ele><time>2016-10-15T12:16:57Z</time></trkpt>
<trkpt lat="53.0845910000" lon="-4.1159700000"><ele>653</ele><time>2016-10-15T12:16:58Z</time></trkpt>
<trkpt lat="53.0845910000" lon="-4.1159700000"><ele>653</ele><time>2016-10-15T12:16:59Z</time></trkpt>
<trkpt lat="53.0845910000" lon="-4.1159700000"><ele>653</ele><time>2016-10-15T12:17:00Z</time></trkpt>
<trkpt lat="53.0845910000" lon="-4.1159700000"><ele>653</ele><time>2016-10-15T12:17:01Z</time></trkpt>
<trkpt lat="53.0845910000" lon="-4.1159700000"><ele>653</ele><time>2016-10-15T12:17:02Z</time></trkpt>
<trkpt lat="53.0845910000" lon="-4.1159710000"><ele>653</ele><time>2016-10-15T12:17:03Z</time></trkpt>
<trkpt lat="53.0845910000" lon="-4.1159710000"><ele>653</ele><time>2016-10-15T12:17:04Z</time></trkpt>
<trkpt lat="53.0845910000" lon="-4.1159710000"><ele>653</ele><time>2016-10-15T12:17:05Z</time></trkpt>
<trkpt lat="53.0845920000" lon="-4.1159720000"><ele>653</ele><time>2016-10-15T12:17:06Z</time></trkpt>
<trkpt lat="53.0845920000" lon="-4.1159720000"><ele>653</ele><time>2016-10-15T12:17:07Z</time></trkpt>
<trkpt lat="53.0845920000" lon="-4.1159720000"><ele>653</ele><time>2016-10-15T12:17:08Z</time></trkpt>
<trkpt lat="53.0845920000" lon="-4.1159730000"><ele>653</ele><time>2016-10-15T12:17:09Z</time></trkpt>
<trkpt lat="53.0845930000" lon="-4.1159730000"><ele>653</ele><time>2016-10-15T12:17:10Z</time></trkpt>
<trkpt lat="53.0845930000" lon="-4.1159740000"><ele>653</ele><time>2016-10-15T12:17:11Z</time></trkpt>
<trkpt lat="53.0845930000" lon="-4.1159740000"><ele>653</ele><time>2016-10-15T12:17:12Z</time></trkpt>
<trkpt lat="53.0845940000" lon="-4.1159750000"><ele>653</ele><time>2016-10-15T12:17:13Z</time></trkpt>
<trkpt lat="53.0845940000" lon="-4.1159750000"><ele>653</ele><time>2016-10-15T12:17:14Z</time></trkpt>
<trkpt lat="53.0845940000" lon="-4.1159750000"><ele>653</ele><time>2016-10-15T12:17:15Z</time></trkpt>
<trkpt lat="53.0845940000" lon="-4.1159760000"><ele>653</ele><time>2016-10-15T12:17:16Z</time></trkpt>
<trkpt lat="53.0845940000" lon="-4.1159760000"><ele>653</ele><time>2016-10-15T12:17:18Z</time></trkpt>
<trkpt lat="53.0845940000" lon="-4.1159760000"><ele>653</ele></trkpt>
<trkpt lat="53.0845940000" lon="-4.1159760000"><ele>653</ele><time>2016-10-15T12:17:19Z</time></trkpt>
<trkpt lat="53.0845940000" lon="-4.1159760000"><ele>653</ele><time>2016-10-15T12:17:20Z</time></trkpt>
<trkpt lat="53.0845940000" lon="-4.1159760000"><ele>653</ele><time>2016-10-15T12:17:21Z</time></trkpt>
<trkpt lat="53.0845940000" lon="-4.1159760000"><ele>653</ele><time>2016-10-15T12:17:22Z</time></trkpt>
<trkpt lat="53.0845940000" lon="-4.1159760000"><ele>653</ele><time>2016-10-15T12:17:23Z</time></trkpt>
<trkpt lat="53.0845940000" lon="-4.1159770000"><ele>653</ele><time>2016-10-15T12:17:24Z</time></trkpt>
<trkpt lat="53.0845940000" lon="-4.1159770000"><ele>653</ele><time>2016-10-15T12:17:25Z</time></trkpt>
<trkpt lat="53.0845940000" lon="-4.1159770000"><ele>653</ele><time>2016-10-15T12:17:26Z</time></trkpt>
<trkpt lat="53.0845940000" lon="-4.1159770000"><ele>652</ele><time>2016-10-15T12:17:27Z</time></trkpt>
<trkpt lat="53.0845940000" lon="-4.1159770000"><ele>652</ele><time>2016-10-15T12:17:28Z</time></trkpt>
<trkpt lat="53.0845940000" lon="-4.1159770000"><ele>652</ele><time>2016-10-15T12:17:29Z</time></trkpt>
<trkpt lat="53.0845950000" lon="-4.1159770000"><ele>652</ele><time>2016-10-15T12:17:30Z</time></trkpt>
<trkpt lat="53.0845950000" lon="-4.1159770000"><ele>652</ele><time>2016-10-15T12:17:31Z</time></trkpt>
<trkpt lat="53.0845950000" lon="-4.1159770000"><ele>652</ele><time>2016-10-15T12:17:32Z</time></trkpt>
<trkpt lat="53.0845960000" lon="-4.1159770000"><ele>652</ele><time>2016-10-15T12:17:33Z</time></trkpt>
<trkpt lat="53.0845960000" lon="-4.1159770000"><ele>652</ele><time>2016-10-15T12:17:34Z</time></trkpt>
<trkpt lat="53.0845960000" lon="-4.1159780000"><ele>652</ele><time>2016-10-15T12:17:35Z</time></trkpt>
<trkpt lat="53.0845960000" lon="-4.1159780000"><ele>652</ele><time>2016-10-15T12:17:36Z</time></trkpt>
<trkpt lat="53.0845960000" lon="-4.1159780000"><ele>652</ele><time>2016-10-15T12:17:37Z</time></trkpt>
<trkpt lat="53.0845960000" lon="-4.1159780000"><ele>652</ele><time>2016-10-15T12:17:38Z</time></trkpt>
<trkpt lat="53.0845960000" lon="-4.1159780000"><ele>652</ele><time>2016-10-15T12:17:39Z</time></trkpt>
<trkpt lat="53.0845960000" lon="-4.1159780000"><ele>652</ele><time>2016-10-15T12:17:40Z</time></trkpt>
<trkpt lat="53.0845950000" lon="-4.1159780000"><ele>652</ele><time>2016-10-15T12:17:41Z</time></trkpt>
<trkpt lat="53.0845950000" lon="-4.1159780000"><ele>652</ele><time>2016-10-15T12:17:42Z</time></trkpt>
<trkpt lat="53.0845950000" lon="-4.1159770000"><ele>652</ele><time>2016-10-15T12:17:43Z</time></trkpt>
<trkpt lat="53.0845950000" lon="-4.1159770000"><ele>652</ele><time>2016-10-15T12:17:44Z</time></trkpt>
<trkpt lat="53.0845820000" lon="-4.1159760000"><ele>649</ele><time>2016-10-15T12:18:04Z</time></trkpt>
<trkpt lat="53.0845810000" lon="-4.1159770000"><ele>649</ele><time>2016-10-15T12:18:05Z</time></trkpt>
<trkpt lat="53.0845800000" lon="-4.1159770000"><ele>649</ele><time>2016-10-15T12:18:06Z</time></trkpt>
<trkpt lat="53.0845790000" lon="-4.1159770000"><ele>649</ele><time>2016-10-15T12:18:07Z</time></trkpt>
<trkpt lat="53.0845790000" lon="-4.1159780000"><ele>648</ele><time>2016-10-15T12:18:08Z</time></trkpt>
<trkpt lat="53.0845780000" lon="-4.1159780000"><ele>648</ele><time>2016-10-15T12:18:09Z</time></trkpt>
<trkpt lat="53.0845780000" lon="-4.1159790000"><ele>648</ele><time>2016-10-15T12:18:10Z</time></trkpt>
<trkpt lat="53.0845780000" lon="-4.1159790000"><ele>649</ele><time>2016-10-15T12:18:11Z</time></trkpt>
<trkpt lat="53.0845770000" lon="-4.1159800000"><ele>649</ele><time>2016-10-15T12:18:12Z</time></trkpt>
<trkpt lat="53.0845770000" lon="-4.1159810000"><ele>649</ele><time>2016-10-15T12:18:13Z</time></trkpt>
<trkpt lat="53.0845770000" lon="-4.1159810000"><ele>649</ele><time>2016-10-15T12:18:14Z</time></trkpt>
<trkpt lat="53.0845770000" lon="-4.1159820000"><ele>649</ele><time>2016-10-15T12:18:15Z</time></trkpt>
<trkpt lat="53.0845770000" lon="-4.1159830000"><ele>649</ele><time>2016-10-15T12:18:16Z</time></trkpt>
<trkpt lat="53.0845770000" lon="-4.1159830000"><ele>649</ele><time>2016-10-15T12:18:18Z</time></trkpt>
<trkpt lat="53.0845770000" lon="-4.1159840000"><ele>649</ele></trkpt>
<trkpt lat="53.0845770000" lon="-4.1159850000"><ele>649</ele><time>2016-10-15T12:18:19Z</time></trkpt>
<trkpt lat="53.0845770000" lon="-4.1159850000"><ele>649</ele><time>2016-10-15T12:18:20Z</time></trkpt>
<trkpt lat="53.0845780000" lon="-4.1159860000"><ele>649</ele><time>2016-10-15T12:18:21Z</time></trkpt>
<trkpt lat="53.0845780000" lon="-4.1159870000"><ele>650</ele><time>2016-10-15T12:18:22Z</time></trkpt>
<trkpt lat="53.0845780000" lon="-4.1159880000"><ele>650</ele><time>2016-10-15T12:18:23Z</time></trkpt>
<trkpt lat="53.0845780000" lon="-4.1159890000"><ele>650</ele><time>2016-10-15T12:18:24Z</time></trkpt>
<trkpt lat="53.0845790000" lon="-4.1159900000"><ele>650</ele><time>2016-10-15T12:18:25Z</time></trkpt>
<trkpt lat="53.0845790000" lon="-4.1159910000"><ele>650</ele><time>2016-10-15T12:18:26Z</time></trkpt>
<trkpt lat="53.0845790000" lon="-4.1159920000"><ele>650</ele><time>2016-10-15T12:18:27Z</time></trkpt>
<trkpt lat="53.0845800000" lon="-4.1159930000"><ele>650</ele><time>2016-10-15T12:18:28Z</time></trkpt>
<trkpt lat="53.0845800000" lon="-4.1159940000"><ele>650</ele><time>2016-10-15T12:18:29Z</time></trkpt>
<trkpt lat="53.0845810000" lon="-4.1159950000"><ele>650</ele><time>2016-10-15T12:18:30Z</time></trkpt>
<trkpt lat="53.0845810000" lon="-4.1159960000"><ele>650</ele><time>2016-10-15T12:18:31Z</time></trkpt>
<trkpt lat="53.0845820000" lon="-4.1159970000"><ele>650</ele><time>2016-10-15T12:18:32Z</time></trkpt>
<trkpt lat="53.0845820000" lon="-4.1159970000"><ele>650</ele><time>2016-10-15T12:18:33Z</time></trkpt>
<trkpt lat="53.0845820000" lon="-4.1159980000"><ele>650</ele><time>2016-10-15T12:18:34Z</time></trkpt>
<trkpt lat="53.0845820000" lon="-4.1159980000"><ele>650</ele><time>2016-10-15T12:18:35Z</time></trkpt>
<trkpt lat="53.0845830000" lon="-4.1159990000"><ele>650</ele><time>2016-10-15T12:18:36Z</time></trkpt>
<trkpt lat="53.0845830000" lon="-4.1159990000"><ele>650</ele><time>2016-10-15T12:18:37Z</time></trkpt>
<trkpt lat="53.0845820000" lon="-4.1159990000"><ele>650</ele><time>2016-10-15T12:18:38Z</time></trkpt>
<trkpt lat="53.0845820000" lon="-4.1159990000"><ele>650</ele><time>2016-10-15T12:18:39Z</time></trkpt>
<trkpt lat="53.0845820000" lon="-4.1159990000"><ele>650</ele><time>2016-10-15T12:18:40Z</time></trkpt>
<trkpt lat="53.0845820000" lon="-4.1159990000"><ele>650</ele><time>2016-10-15T12:18:41Z</time></trkpt>
<trkpt lat="53.0845820000" lon="-4.1159990000"><ele>650</ele><time>2016-10-15T12:18:42Z</time></trkpt>
<trkpt lat="53.0845820000" lon="-4.1159990000"><ele>650</ele><time>2016-10-15T12:18:43Z</time></trkpt>
<trkpt lat="53.0845820000" lon="-4.1159990000"><ele>650</ele><time>2016-10-15T12:18:44Z</time></trkpt>
<trkpt lat="53.0845820000" lon="-4.1159990000"><ele>650</ele><time>2016-10-15T12:18:45Z</time></trkpt>
<trkpt lat="53.0845830000" lon="-4.1159990000"><ele>650</ele><time>2016-10-15T12:18:46Z</time></trkpt>
<trkpt lat="53.0845830000" lon="-4.1159990000"><ele>650</ele><time>2016-10-15T12:18:47Z</time></trkpt>
<trkpt lat="53.0845840000" lon="-4.1159990000"><ele>650</ele><time>2016-10-15T12:18:48Z</time></trkpt>
<trkpt lat="53.0845840000" lon="-4.1159990000"><ele>650</ele><time>2016-10-15T12:18:49Z</time></trkpt>
<trkpt lat="53.0845850000" lon="-4.1160000000"><ele>650</ele><time>2016-10-15T12:18:50Z</time></trkpt>
<trkpt lat="53.0845860000" lon="-4.1160000000"><ele>650</ele><time>2016-10-15T12:18:51Z</time></trkpt>
<trkpt lat="53.0845860000" lon="-4.1160000000"><ele>650</ele><time>2016-10-15T12:18:52Z</time></trkpt>
<trkpt lat="53.0845870000" lon="-4.1160000000"><ele>650</ele><time>2016-10-15T12:18:53Z</time></trkpt>
<trkpt lat="53.0845870000" lon="-4.1160000000"><ele>650</ele><time>2016-10-15T12:18:54Z</time></trkpt>
<trkpt lat="53.0845880000" lon="-4.1160000000"><ele>650</ele><time>2016-10-15T12:18:55Z</time></trkpt>
<trkpt lat="53.0845880000" lon="-4.1160000000"><ele>651</ele><time>2016-10-15T12:18:56Z</time></trkpt>
<trkpt lat="53.0845890000" lon="-4.1160010000"><ele>651</ele><time>2016-10-15T12:18:59Z</time></trkpt>
<trkpt lat="53.0845890000" lon="-4.1160010000"><ele>651</ele><time>2016-10-15T12:19:00Z</time></trkpt>
<trkpt lat="53.0845890000" lon="-4.1160010000"><ele>651</ele><time>2016-10-15T12:19:01Z</time></trkpt>
<trkpt lat="53.0845890000" lon="-4.1160010000"><ele>651</ele><time>2016-10-15T12:19:02Z</time></trkpt>
<trkpt lat="53.0845890000" lon="-4.1160010000"><ele>651</ele><time>2016-10-15T12:19:05Z</time></trkpt>
<trkpt lat="53.0845890000" lon="-4.1160010000"><ele>651</ele><time>2016-10-15T12:19:06Z</time></trkpt>
<trkpt lat="53.0845890000" lon="-4.1160010000"><ele>651</ele><time>2016-10-15T12:19:07Z</time></trkpt>
<trkpt lat="53.0845880000" lon="-4.1160010000"><ele>651</ele><time>2016-10-15T12:19:08Z</time></trkpt>
<trkpt lat="53.0845880000" lon="-4.1160010000"><ele>650</ele><time>2016-10-15T12:19:09Z</time></trkpt>
<trkpt lat="53.0845880000" lon="-4.1160010000"><ele>650</ele><time>2016-10-15T12:19:10Z</time></trkpt>
<trkpt lat="53.0845880000" lon="-4.1160010000"><ele>650</ele><time>2016-10-15T12:19:11Z</time></trkpt>
<trkpt lat="53.0845880000" lon="-4.1160010000"><ele>650</ele><time>2016-10-15T12:19:12Z</time></trkpt>
<trkpt lat="53.0845880000" lon="-4.1160010000"><ele>650</ele><time>2016-10-15T12:19:13Z</time></trkpt>
<trkpt lat="53.0845870000" lon="-4.1160010000"><ele>650</ele><time>2016-10-15T12:19:14Z</time></trkpt>
<trkpt lat="53.0845870000" lon="-4.1160010000"><ele>650</ele><time>2016-10-15T12:19:15Z</time></trkpt>
<trkpt lat="53.0845870000" lon="-4.1160010000"><ele>650</ele><time>2016-10-15T12:19:16Z</time></trkpt>
<trkpt lat="53.0845870000" lon="-4.1160000000"><ele>650</ele><time>2016-10-15T12:19:18Z</time></trkpt>
<trkpt lat="53.0845880000" lon="-4.1160000000"><ele>650</ele></trkpt>
<trkpt lat="53.0845880000" lon="-4.1160000000"><ele>650</ele><time>2016-10-15T12:19:19Z</time></trkpt>
<trkpt lat="53.0845880000" lon="-4.1160000000"><ele>650</ele><time>2016-10-15T12:19:20Z</time></trkpt>
<trkpt lat="53.0845880000" lon="-4.1160000000"><ele>650</ele><time>2016-10-15T12:19:21Z</time></trkpt>
<trkpt lat="53.0845880000" lon="-4.1160000000"><ele>650</ele><time>2016-10-15T12:19:22Z</time></trkpt>
<trkpt lat="53.0845890000" lon="-4.1160000000"><ele>650</ele><time>2016-10-15T12:19:23Z</time></trkpt>
<trkpt lat="53.0845890000" lon="-4.1160000000"><ele>650</ele><time>2016-10-15T12:19:24Z</time></trkpt>
<trkpt lat="53.0845890000" lon="-4.1160000000"><ele>650</ele><time>2016-10-15T12:19:25Z</time></trkpt>
<trkpt lat="53.0845890000" lon="-4.1159990000"><ele>650</ele><time>2016-10-15T12:19:26Z</time></trkpt>
<trkpt lat="53.0845890000" lon="-4.1159990000"><ele>650</ele><time>2016-10-15T12:19:27Z</time></trkpt>
<trkpt lat="53.0845890000" lon="-4.1159980000"><ele>650</ele><time>2016-10-15T12:19:28Z</time></trkpt>
<trkpt lat="53.0845890000" lon="-4.1159980000"><ele>650</ele><time>2016-10-15T12:19:29Z</time></trkpt>
<trkpt lat="53.0845890000" lon="-4.1159970000"><ele>650</ele><time>2016-10-15T12:19:30Z</time></trkpt>
<trkpt lat="53.0845890000" lon="-4.1159970000"><ele>650</ele><time>2016-10-15T12:19:31Z</time></trkpt>
<trkpt lat="53.0845890000" lon="-4.1159960000"><ele>650</ele><time>2016-10-15T12:19:32Z</time></trkpt>
<trkpt lat="53.0845890000" lon="-4.1159950000"><ele>650</ele><time>2016-10-15T12:19:33Z</time></trkpt>
<trkpt lat="53.0845880000" lon="-4.1159950000"><ele>650</ele><time>2016-10-15T12:19:34Z</time></trkpt>
<trkpt lat="53.0845880000" lon="-4.1159940000"><ele>650</ele><time>2016-10-15T12:19:35Z</time></trkpt>
<trkpt lat="53.0845880000" lon="-4.1159940000"><ele>650</ele><time>2016-10-15T12:19:36Z</time></trkpt>
<trkpt lat="53.0845870000" lon="-4.1159940000"><ele>650</ele><time>2016-10-15T12:19:37Z</time></trkpt>
<trkpt lat="53.0845870000" lon="-4.1159930000"><ele>650</ele><time>2016-10-15T12:19:38Z</time></trkpt>
<trkpt lat="53.0845860000" lon="-4.1159930000"><ele>650</ele><time>2016-10-15T12:19:39Z</time></trkpt>
<trkpt lat="53.0845860000" lon="-4.1159920000"><ele>650</ele><time>2016-10-15T12:19:40Z</time></trkpt>
<trkpt lat="53.0845850000" lon="-4.1159920000"><ele>650</ele><time>2016-10-15T12:19:41Z</time></trkpt>
<trkpt lat="53.0845850000" lon="-4.1159910000"><ele>650</ele><time>2016-10-15T12:19:42Z</time></trkpt>
<trkpt lat="53.0845840000" lon="-4.1159910000"><ele>650</ele><time>2016-10-15T12:19:43Z</time></trkpt>
<trkpt lat="53.0845830000" lon="-4.1159910000"><ele>649</ele><time>2016-10-15T12:19:44Z</time></trkpt>
<trkpt lat="53.0845830000" lon="-4.1159900000"><ele>649</ele><time>2016-10-15T12:19:45Z</time></trkpt>
<trkpt lat="53.0845820000" lon="-4.1159900000"><ele>649</ele><time>2016-10-15T12:19:46Z</time></trkpt>
<trkpt lat="53.0845820000" lon="-4.1159900000"><ele>649</ele><time>2016-10-15T12:19:47Z</time></trkpt>
<trkpt lat="53.0845810000" lon="-4.1159890000"><ele>649</ele><time>2016-10-15T12:19:48Z</time></trkpt>
<trkpt lat="53.0845810000" lon="-4.1159890000"><ele>649</ele><time>2016-10-15T12:19:49Z</time></trkpt>
<trkpt lat="53.0845800000" lon="-4.1159880000"><ele>649</ele><time>2016-10-15T12:19:50Z</time></trkpt>
<trkpt lat="53.0845800000" lon="-4.1159880000"><ele>649</ele><time>2016-10-15T12:19:51Z</time></trkpt>
<trkpt lat="53.0845790000" lon="-4.1159880000"><ele>649</ele><time>2016-10-15T12:19:52Z</time></trkpt>
<trkpt lat="53.0845790000" lon="-4.1159880000"><ele>649</ele><time>2016-10-15T12:19:53Z</time></trkpt>
<trkpt lat="53.0845780000" lon="-4.1159880000"><ele>649</ele><time>2016-10-15T12:19:54Z</time></trkpt>
<trkpt lat="53.0845780000" lon="-4.1159880000"><ele>649</ele><time>2016-10-15T12:19:55Z</time></trkpt>
<trkpt lat="53.0845770000" lon="-4.1159880000"><ele>649</ele><time>2016-10-15T12:19:56Z</time></trkpt>
<trkpt lat="53.0845770000" lon="-4.1159880000"><ele>649</ele><time>2016-10-15T12:19:57Z</time></trkpt>
<trkpt lat="53.0845760000" lon="-4.1159880000"><ele>649</ele><time>2016-10-15T12:19:58Z</time></trkpt>
<trkpt lat="53.0845760000" lon="-4.1159880000"><ele>649</ele><time>2016-10-15T12:19:59Z</time></trkpt>
<trkpt lat="53.0845750000" lon="-4.1159880000"><ele>649</ele><time>2016-10-15T12:20:00Z</time></trkpt>
<trkpt lat="53.0845750000" lon="-4.1159870000"><ele>649</ele><time>2016-10-15T12:20:01Z</time></trkpt>
<trkpt lat="53.0845740000" lon="-4.1159870000"><ele>649</ele><time>2016-10-15T12:20:02Z</time></trkpt>
<trkpt lat="53.0845740000" lon="-4.1159860000"><ele>649</ele><time>2016-10-15T12:20:03Z</time></trkpt>
<trkpt lat="53.0845730000" lon="-4.1159860000"><ele>649</ele><time>2016-10-15T12:20:04Z</time></trkpt>
<trkpt lat="53.0845730000" lon="-4.1159850000"><ele>649</ele><time>2016-10-15T12:20:05Z</time></trkpt>
<trkpt lat="53.0845720000" lon="-4.1159840000"><ele>649</ele><time>2016-10-15T12:20:06Z</time></trkpt>
<trkpt lat="53.0845720000" lon="-4.1159830000"><ele>649</ele><time>2016-10-15T12:20:07Z</time></trkpt>
<trkpt lat="53.0845710000" lon="-4.1159820000"><ele>649</ele><time>2016-10-15T12:20:08Z</time></trkpt>
<trkpt lat="53.0845710000" lon="-4.1159810000"><ele>649</ele><time>2016-10-15T12:20:09Z</time></trkpt>
<trkpt lat="53.0845700000" lon="-4.1159810000"><ele>649</ele><time>2016-10-15T12:20:10Z</time></trkpt>
<trkpt lat="53.0845700000" lon="-4.1159800000"><ele>649</ele><time>2016-10-15T12:20:11Z</time></trkpt>
<trkpt lat="53.0845700000" lon="-4.1159790000"><ele>649</ele><time>2016-10-15T12:20:12Z</time></trkpt>
<trkpt lat="53.0845690000" lon="-4.1159780000"><ele>649</ele><time>2016-10-15T12:20:13Z</time></trkpt>
<trkpt lat="53.0845690000" lon="-4.1159770000"><ele>649</ele><time>2016-10-15T12:20:14Z</time></trkpt>
<trkpt lat="53.0845690000" lon="-4.1159770000"><ele>649</ele><time>2016-10-15T12:20:15Z</time></trkpt>
<trkpt lat="53.0845680000" lon="-4.1159760000"><ele>649</ele><time>2016-10-15T12:20:16Z</time></trkpt>
<trkpt lat="53.0845680000" lon="-4.1159750000"><ele>649</ele><time>2016-10-15T12:20:18Z</time></trkpt>
<trkpt lat="53.0845680000" lon="-4.1159750000"><ele>648</ele></trkpt>
<trkpt lat="53.0845680000" lon="-4.1159740000"><ele>648</ele><time>2016-10-15T12:20:19Z</time></trkpt>
<trkpt lat="53.0845680000" lon="-4.1159740000"><ele>648</ele><time>2016-10-15T12:20:20Z</time></trkpt>
<trkpt lat="53.0845680000" lon="-4.1159730000"><ele>648</ele><time>2016-10-15T12:20:21Z</time></trkpt>
<trkpt lat="53.0845680000" lon="-4.1159720000"><ele>648</ele><time>2016-10-15T12:20:22Z</time></trkpt>
<trkpt lat="53.0845680000" lon="-4.1159720000"><ele>648</ele><time>2016-10-15T12:20:23Z</time></trkpt>
<trkpt lat="53.0845680000" lon="-4.1159720000"><ele>648</ele><time>2016-10-15T12:20:24Z</time></trkpt>
<trkpt lat="53.0845680000" lon="-4.1159710000"><ele>648</ele><time>2016-10-15T12:20:25Z</time></trkpt>
<trkpt lat="53.0845680000" lon="-4.1159710000"><ele>648</ele><time>2016-10-15T12:20:26Z</time></trkpt>
<trkpt lat="53.0845680000" lon="-4.1159700000"><ele>648</ele><time>2016-10-15T12:20:27Z</time></trkpt>
<trkpt lat="53.0845680000" lon="-4.1159700000"><ele>649</ele><time>2016-10-15T12:20:28Z</time></trkpt>
<trkpt lat="53.0845680000" lon="-4.1159690000"><ele>649</ele><time>2016-10-15T12:20:29Z</time></trkpt>
<trkpt lat="53.0845680000" lon="-4.1159690000"><ele>649</ele><time>2016-10-15T12:20:30Z</time></trkpt>
<trkpt lat="53.0845680000" lon="-4.1159690000"><ele>649</ele><time>2016-10-15T12:20:36Z</time></trkpt>
<trkpt lat="53.0845670000" lon="-4.1159690000"><ele>649</ele><time>2016-10-15T12:20:37Z</time></trkpt>
<trkpt lat="53.0845670000" lon="-4.1159690000"><ele>649</ele><time>2016-10-15T12:20:38Z</time></trkpt>
<trkpt lat="53.0845670000" lon="-4.1159690000"><ele>649</ele><time>2016-10-15T12:20:39Z</time></trkpt>
<trkpt lat="53.0845670000" lon="-4.1159690000"><ele>649</ele><time>2016-10-15T12:20:40Z</time></trkpt>
<trkpt lat="53.0845670000" lon="-4.1159690000"><ele>649</ele><time>2016-10-15T12:20:41Z</time></trkpt>
<trkpt lat="53.0845670000" lon="-4.1159700000"><ele>649</ele><time>2016-10-15T12:20:42Z</time></trkpt>
<trkpt lat="53.0845670000" lon="-4.1159700000"><ele>649</ele><time>2016-10-15T12:20:43Z</time></trkpt>
<trkpt lat="53.0845670000" lon="-4.1159700000"><ele>649</ele><time>2016-10-15T12:20:44Z</time></trkpt>
<trkpt lat="53.0845680000" lon="-4.1159710000"><ele>649</ele><time>2016-10-15T12:20:45Z</time></trkpt>
<trkpt lat="53.0845680000" lon="-4.1159710000"><ele>649</ele><time>2016-10-15T12:20:46Z</time></trkpt>
<trkpt lat="53.0845680000" lon="-4.1159710000"><ele>649</ele><time>2016-10-15T12:20:47Z</time></trkpt>
<trkpt lat="53.0845680000" lon="-4.1159720000"><ele>649</ele><time>2016-10-15T12:20:48Z</time></trkpt>
<trkpt lat="53.0845680000" lon="-4.1159720000"><ele>649</ele><time>2016-10-15T12:20:49Z</time></trkpt>
<trkpt lat="53.0845680000" lon="-4.1159730000"><ele>649</ele><time>2016-10-15T12:20:50Z</time></trkpt>
<trkpt lat="53.0845680000" lon="-4.1159730000"><ele>649</ele><time>2016-10-15T12:20:51Z</time></trkpt>
<trkpt lat="53.0845680000" lon="-4.1159730000"><ele>649</ele><time>2016-10-15T12:20:52Z</time></trkpt>
<trkpt lat="53.0845680000" lon="-4.1159730000"><ele>649</ele><time>2016-10-15T12:20:53Z</time></trkpt>
<trkpt lat="53.0845670000" lon="-4.1159730000"><ele>649</ele><time>2016-10-15T12:20:54Z</time></trkpt>
<trkpt lat="53.0845670000" lon="-4.1159730000"><ele>649</ele><time>2016-10-15T12:20:55Z</time></trkpt>
<trkpt lat="53.0845670000" lon="-4.1159730000"><ele>649</ele><time>2016-10-15T12:20:56Z</time></trkpt>
<trkpt lat="53.0845670000" lon="-4.1159730000"><ele>649</ele><time>2016-10-15T12:20:57Z</time></trkpt>
<trkpt lat="53.0845670000" lon="-4.1159730000"><ele>649</ele><time>2016-10-15T12:20:59Z</time></trkpt>
<trkpt lat="53.0845670000" lon="-4.1159730000"><ele>649</ele><time>2016-10-15T12:21:00Z</time></trkpt>
<trkpt lat="53.0845670000" lon="-4.1159730000"><ele>649</ele><time>2016-10-15T12:21:01Z</time></trkpt>
<trkpt lat="53.0845670000" lon="-4.1159730000"><ele>649</ele><time>2016-10-15T12:21:02Z</time></trkpt>
<trkpt lat="53.0845670000" lon="-4.1159730000"><ele>649</ele><time>2016-10-15T12:21:05Z</time></trkpt>
<trkpt lat="53.0845670000" lon="-4.1159730000"><ele>649</ele><time>2016-10-15T12:21:06Z</time></trkpt>
<trkpt lat="53.0845670000" lon="-4.1159730000"><ele>649</ele><time>2016-10-15T12:21:07Z</time></trkpt>
<trkpt lat="53.0845670000" lon="-4.1159730000"><ele>649</ele><time>2016-10-15T12:21:08Z</time></trkpt>
<trkpt lat="53.0845670000" lon="-4.1159730000"><ele>649</ele><time>2016-10-15T12:21:09Z</time></trkpt>
<trkpt lat="53.0845660000" lon="-4.1159730000"><ele>649</ele><time>2016-10-15T12:21:10Z</time></trkpt>
<trkpt lat="53.0845660000" lon="-4.1159740000"><ele>649</ele><time>2016-10-15T12:21:11Z</time></trkpt>
<trkpt lat="53.0845660000" lon="-4.1159740000"><ele>649</ele><time>2016-10-15T12:21:12Z</time></trkpt>
<trkpt lat="53.0845650000" lon="-4.1159750000"><ele>649</ele><time>2016-10-15T12:21:13Z</time></trkpt>
<trkpt lat="53.0845650000" lon="-4.1159750000"><ele>649</ele><time>2016-10-15T12:21:14Z</time></trkpt>
<trkpt lat="53.0845640000" lon="-4.1159760000"><ele>649</ele><time>2016-10-15T12:21:15Z</time></trkpt>
<trkpt lat="53.0845640000" lon="-4.1159770000"><ele>649</ele><time>2016-10-15T12:21:16Z</time></trkpt>
<trkpt lat="53.0845640000" lon="-4.1159770000"><ele>649</ele><time>2016-10-15T12:21:18Z</time></trkpt>
<trkpt lat="53.0845630000" lon="-4.1159770000"><ele>649</ele></trkpt>
<trkpt lat="53.0845630000" lon="-4.1159780000"><ele>649</ele><time>2016-10-15T12:21:19Z</time></trkpt>
<trkpt lat="53.0845630000" lon="-4.1159780000"><ele>649</ele><time>2016-10-15T12:21:20Z</time></trkpt>
<trkpt lat="53.0845620000" lon="-4.1159780000"><ele>649</ele><time>2016-10-15T12:21:21Z</time></trkpt>
<trkpt lat="53.0845620000" lon="-4.1159780000"><ele>649</ele><time>2016-10-15T12:21:22Z</time></trkpt>
<trkpt lat="53.0845620000" lon="-4.1159780000"><ele>649</ele><time>2016-10-15T12:21:23Z</time></trkpt>
<trkpt lat="53.0845610000" lon="-4.1159780000"><ele>649</ele><time>2016-10-15T12:21:24Z</time></trkpt>
<trkpt lat="53.0845610000" lon="-4.1159780000"><ele>649</ele><time>2016-10-15T12:21:25Z</time></trkpt>
<trkpt lat="53.0845610000" lon="-4.1159770000"><ele>649</ele><time>2016-10-15T12:21:26Z</time></trkpt>
<trkpt lat="53.0845610000" lon="-4.1159770000"><ele>649</ele><time>2016-10-15T12:21:27Z</time></trkpt>
<trkpt lat="53.0845610000" lon="-4.1159770000"><ele>650</ele><time>2016-10-15T12:21:28Z</time></trkpt>
<trkpt lat="53.0845600000" lon="-4.1159780000"><ele>650</ele><time>2016-10-15T12:21:29Z</time></trkpt>
<trkpt lat="53.0845590000" lon="-4.1159780000"><ele>650</ele><time>2016-10-15T12:21:30Z</time></trkpt>
<trkpt lat="53.0845580000" lon="-4.1159790000"><ele>650</ele><time>2016-10-15T12:21:31Z</time></trkpt>
<trkpt lat="53.0845570000" lon="-4.1159800000"><ele>650</ele><time>2016-10-15T12:21:32Z</time></trkpt>
<trkpt lat="53.0845560000" lon="-4.1159820000"><ele>650</ele><time>2016-10-15T12:21:33Z</time></trkpt>
<trkpt lat="53.0845540000" lon="-4.1159830000"><ele>650</ele><time>2016-10-15T12:21:34Z</time></trkpt>
<trkpt lat="53.0845530000" lon="-4.1159840000"><ele>650</ele><time>2016-10-15T12:21:35Z</time></trkpt>
<trkpt lat="53.0845510000" lon="-4.1159850000"><ele>650</ele><time>2016-10-15T12:21:36Z</time></trkpt>
<trkpt lat="53.0845500000" lon="-4.1159860000"><ele>650</ele><time>2016-10-15T12:21:37Z</time></trkpt>
<trkpt lat="53.0845480000" lon="-4.1159880000"><ele>650</ele><time>2016-10-15T12:21:38Z</time></trkpt>
<trkpt lat="53.0845460000" lon="-4.1159890000"><ele>650</ele><time>2016-10-15T12:21:39Z</time></trkpt>
<trkpt lat="53.0845440000" lon="-4.1159910000"><ele>650</ele><time>2016-10-15T12:21:40Z</time></trkpt>
<trkpt lat="53.0845420000" lon="-4.1159930000"><ele>650</ele><time>2016-10-15T12:21:41Z</time></trkpt>
<trkpt lat="53.0845400000" lon="-4.1159950000"><ele>651</ele><time>2016-10-15T12:21:42Z</time></trkpt>
<trkpt lat="53.0845380000" lon="-4.1159990000"><ele>651</ele><time>2016-10-15T12:21:43Z</time></trkpt>
<trkpt lat="53.0845360000" lon="-4.1160020000"><ele>651</ele><time>2016-10-15T12:21:44Z</time></trkpt>
<trkpt lat="53.0845330000" lon="-4.1160060000"><ele>651</ele><time>2016-10-15T12:21:45Z</time></trkpt>
<trkpt lat="53.0845310000" lon="-4.1160100000"><ele>651</ele><time>2016-10-15T12:21:46Z</time></trkpt>
<trkpt lat="53.0845300000" lon="-4.1160130000"><ele>651</ele><time>2016-10-15T12:21:47Z</time></trkpt>
<trkpt lat="53.0845280000" lon="-4.1160160000"><ele>651</ele><time>2016-10-15T12:21:48Z</time></trkpt>
<trkpt lat="53.0845260000" lon="-4.1160190000"><ele>651</ele><time>2016-10-15T12:21:49Z</time></trkpt>
<trkpt lat="53.0845250000" lon="-4.1160230000"><ele>651</ele><time>2016-10-15T12:21:50Z</time></trkpt>
<trkpt lat="53.0845050000" lon="-4.1160680000"><ele>652</ele><time>2016-10-15T12:22:08Z</time></trkpt>
<trkpt lat="53.0844710000" lon="-4.1161570000"><ele>652</ele><time>2016-10-15T12:22:09Z</time></trkpt>
<trkpt lat="53.0844560000" lon="-4.1161860000"><ele>652</ele><time>2016-10-15T12:22:18Z</time></trkpt>
<trkpt lat="53.0844440000" lon="-4.1162180000"><ele>651</ele><time>2016-10-15T12:22:28Z</time></trkpt>
<trkpt lat="53.0844310000" lon="-4.1162530000"><ele>652</ele><time>2016-10-15T12:22:33Z</time></trkpt>
<trkpt lat="53.0844280000" lon="-4.1162610000"><ele>652</ele><time>2016-10-15T12:22:34Z</time></trkpt>
<trkpt lat="53.0843580000" lon="-4.1164500000"><ele>652</ele><time>2016-10-15T12:22:35Z</time></trkpt>
<trkpt lat="53.0843560000" lon="-4.1164600000"><ele>652</ele><time>2016-10-15T12:22:36Z</time></trkpt>
<trkpt lat="53.0843530000" lon="-4.1164700000"><ele>652</ele><time>2016-10-15T12:22:37Z</time></trkpt>
<trkpt lat="53.0843530000" lon="-4.1164700000"><ele>652</ele><time>2016-10-15T12:22:39Z</time></trkpt>
<trkpt lat="53.0843530000" lon="-4.1164710000"><ele>652</ele><time>2016-10-15T12:22:40Z</time></trkpt>
<trkpt lat="53.0843530000" lon="-4.1164710000"><ele>652</ele><time>2016-10-15T12:22:41Z</time></trkpt>
<trkpt lat="53.0843520000" lon="-4.1164720000"><ele>652</ele><time>2016-10-15T12:22:42Z</time></trkpt>
<trkpt lat="53.0843520000" lon="-4.1164730000"><ele>652</ele><time>2016-10-15T12:22:43Z</time></trkpt>
<trkpt lat="53.0843510000" lon="-4.1164740000"><ele>652</ele><time>2016-10-15T12:22:44Z</time></trkpt>
<trkpt lat="53.0843510000" lon="-4.1164760000"><ele>652</ele><time>2016-10-15T12:22:45Z</time></trkpt>
<trkpt lat="53.0843500000" lon="-4.1164780000"><ele>652</ele><time>2016-10-15T12:22:46Z</time></trkpt>
<trkpt lat="53.0843490000" lon="-4.1164810000"><ele>652</ele><time>2016-10-15T12:22:47Z</time></trkpt>
<trkpt lat="53.0843470000" lon="-4.1164840000"><ele>651</ele><time>2016-10-15T12:22:48Z</time></trkpt>
<trkpt lat="53.0843460000" lon="-4.1164870000"><ele>651</ele><time>2016-10-15T12:22:49Z</time></trkpt>
<trkpt lat="53.0843450000" lon="-4.1164910000"><ele>651</ele><time>2016-10-15T12:22:50Z</time></trkpt>
<trkpt lat="53.0843440000" lon="-4.1164960000"><ele>651</ele><time>2016-10-15T12:22:51Z</time></trkpt>
<trkpt lat="53.0843420000" lon="-4.1165010000"><ele>651</ele><time>2016-10-15T12:22:52Z</time></trkpt>
<trkpt lat="53.0843410000" lon="-4.1165070000"><ele>651</ele><time>2016-10-15T12:22:53Z</time></trkpt>
<trkpt lat="53.0843390000" lon="-4.1165130000"><ele>651</ele><time>2016-10-15T12:22:54Z</time></trkpt>
<trkpt lat="53.0843370000" lon="-4.1165200000"><ele>651</ele><time>2016-10-15T12:22:55Z</time></trkpt>
<trkpt lat="53.0843350000" lon="-4.1165260000"><ele>651</ele><time>2016-10-15T12:22:56Z</time></trkpt>
<trkpt lat="53.0843330000" lon="-4.1165330000"><ele>651</ele><time>2016-10-15T12:22:57Z</time></trkpt>
<trkpt lat="53.0843300000" lon="-4.1165410000"><ele>651</ele><time>2016-10-15T12:22:58Z</time></trkpt>
<trkpt lat="53.0843280000" lon="-4.1165480000"><ele>651</ele><time>2016-10-15T12:22:59Z</time></trkpt>
<trkpt lat="53.0843250000" lon="-4.1165560000"><ele>652</ele><time>2016-10-15T12:23:00Z</time></trkpt>
<trkpt lat="53.0843230000" lon="-4.1165650000"><ele>652</ele><time>2016-10-15T12:23:01Z</time></trkpt>
<trkpt lat="53.0843200000" lon="-4.1165730000"><ele>652</ele><time>2016-10-15T12:23:02Z</time></trkpt>
<trkpt lat="53.0843170000" lon="-4.1165820000"><ele>652</ele><time>2016-10-15T12:23:03Z</time></trkpt>
<trkpt lat="53.0843140000" lon="-4.1165910000"><ele>652</ele><time>2016-10-15T12:23:04Z</time></trkpt>
<trkpt lat="53.0843110000" lon="-4.1166000000"><ele>652</ele><time>2016-10-15T12:23:05Z</time></trkpt>
<trkpt lat="53.0843070000" lon="-4.1166080000"><ele>652</ele><time>2016-10-15T12:23:06Z</time></trkpt>
<trkpt lat="53.0843040000" lon="-4.1166170000"><ele>652</ele><time>2016-10-15T12:23:07Z</time></trkpt>
<trkpt lat="53.0843010000" lon="-4.1166250000"><ele>652</ele><time>2016-10-15T12:23:08Z</time></trkpt>
<trkpt lat="53.0842970000" lon="-4.1166330000"><ele>652</ele><time>2016-10-15T12:23:09Z</time></trkpt>
<trkpt lat="53.0842940000" lon="-4.1166400000"><ele>652</ele><time>2016-10-15T12:23:10Z</time></trkpt>
<trkpt lat="53.0842900000" lon="-4.1166490000"><ele>652</ele><time>2016-10-15T12:23:11Z</time></trkpt>
<trkpt lat="53.0842860000" lon="-4.1166570000"><ele>653</ele><time>2016-10-15T12:23:12Z</time></trkpt>
<trkpt lat="53.0842820000" lon="-4.1166650000"><ele>653</ele><time>2016-10-15T12:23:13Z</time></trkpt>
<trkpt lat="53.0842780000" lon="-4.1166730000"><ele>653</ele><time>2016-10-15T12:23:14Z</time></trkpt>
<trkpt lat="53.0842740000" lon="-4.1166820000"><ele>653</ele><time>2016-10-15T12:23:15Z</time></trkpt>
<trkpt lat="53.0842700000" lon="-4.1166900000"><ele>653</ele><time>2016-10-15T12:23:16Z</time></trkpt>
<trkpt lat="53.0842660000" lon="-4.1166980000"><ele>653</ele><time>2016-10-15T12:23:18Z</time></trkpt>
<trkpt lat="53.0842610000" lon="-4.1167070000"><ele>653</ele></trkpt>
<trkpt lat="53.0842570000" lon="-4.1167160000"><ele>653</ele><time>2016-10-15T12:23:19Z</time></trkpt>
<trkpt lat="53.0842520000" lon="-4.1167250000"><ele>653</ele><time>2016-10-15T12:23:20Z</time></trkpt>
<trkpt lat="53.0842470000" lon="-4.1167330000"><ele>653</ele><time>2016-10-15T12:23:21Z</time></trkpt>
<trkpt lat="53.0842420000" lon="-4.1167420000"><ele>653</ele><time>2016-10-15T12:23:22Z</time></trkpt>
<trkpt lat="53.0842370000" lon="-4.1167510000"><ele>653</ele><time>2016-10-15T12:23:23Z</time></trkpt>
<trkpt lat="53.0842320000" lon="-4.1167590000"><ele>653</ele><time>2016-10-15T12:23:24Z</time></trkpt>
<trkpt lat="53.0842260000" lon="-4.1167680000"><ele>653</ele><time>2016-10-15T12:23:25Z</time></trkpt>
<trkpt lat="53.0842210000" lon="-4.1167760000"><ele>653</ele><time>2016-10-15T12:23:26Z</time></trkpt>
<trkpt lat="53.0842150000" lon="-4.1167840000"><ele>653</ele><time>2016-10-15T12:23:27Z</time></trkpt>
<trkpt lat="53.0842090000" lon="-4.1167920000"><ele>653</ele><time>2016-10-15T12:23:28Z</time></trkpt>
<trkpt lat="53.0842030000" lon="-4.1168000000"><ele>653</ele><time>2016-10-15T12:23:29Z</time></trkpt>
<trkpt lat="53.0841970000" lon="-4.1168090000"><ele>653</ele><time>2016-10-15T12:23:30Z</time></trkpt>
<trkpt lat="53.0841900000" lon="-4.1168170000"><ele>653</ele><time>2016-10-15T12:23:31Z</time></trkpt>
<trkpt lat="53.0841840000" lon="-4.1168260000"><ele>653</ele><time>2016-10-15T12:23:32Z</time></trkpt>
<trkpt lat="53.0840680000" lon="-4.1169880000"><ele>653</ele><time>2016-10-15T12:23:33Z</time></trkpt>
<trkpt lat="53.0840610000" lon="-4.1170010000"><ele>653</ele><time>2016-10-15T12:23:34Z</time></trkpt>
<trkpt lat="53.0840550000" lon="-4.1170160000"><ele>653</ele><time>2016-10-15T12:23:35Z</time></trkpt>
<trkpt lat="53.0840550000" lon="-4.1170160000"><ele>653</ele><time>2016-10-15T12:23:36Z</time></trkpt>
<trkpt lat="53.0840550000" lon="-4.1170170000"><ele>653</ele><time>2016-10-15T12:23:37Z</time></trkpt>
<trkpt lat="53.0840540000" lon="-4.1170170000"><ele>653</ele><time>2016-10-15T12:23:38Z</time></trkpt>
<trkpt lat="53.0840540000" lon="-4.1170180000"><ele>652</ele><time>2016-10-15T12:23:39Z</time></trkpt>
<trkpt lat="53.0840540000" lon="-4.1170200000"><ele>652</ele><time>2016-10-15T12:23:40Z</time></trkpt>
<trkpt lat="53.0840530000" lon="-4.1170220000"><ele>652</ele><time>2016-10-15T12:23:41Z</time></trkpt>
<trkpt lat="53.0840520000" lon="-4.1170240000"><ele>652</ele><time>2016-10-15T12:23:42Z</time></trkpt>
<trkpt lat="53.0840510000" lon="-4.1170270000"><ele>652</ele><time>2016-10-15T12:23:43Z</time></trkpt>
<trkpt lat="53.0840490000" lon="-4.1170310000"><ele>652</ele><time>2016-10-15T12:23:44Z</time></trkpt>
<trkpt lat="53.0840480000" lon="-4.1170360000"><ele>652</ele><time>2016-10-15T12:23:45Z</time></trkpt>
<trkpt lat="53.0840460000" lon="-4.1170410000"><ele>652</ele><time>2016-10-15T12:23:46Z</time></trkpt>
<trkpt lat="53.0840440000" lon="-4.1170470000"><ele>652</ele><time>2016-10-15T12:23:47Z</time></trkpt>
<trkpt lat="53.0840410000" lon="-4.1170540000"><ele>652</ele><time>2016-10-15T12:23:48Z</time></trkpt>
<trkpt lat="53.0840390000" lon="-4.1170620000"><ele>651</ele><time>2016-10-15T12:23:49Z</time></trkpt>
<trkpt lat="53.0840370000" lon="-4.1170710000"><ele>651</ele><time>2016-10-15T12:23:50Z</time></trkpt>
<trkpt lat="53.0840340000" lon="-4.1170800000"><ele>651</ele><time>2016-10-15T12:23:51Z</time></trkpt>
<trkpt lat="53.0840320000" lon="-4.1170900000"><ele>651</ele><time>2016-10-15T12:23:52Z</time></trkpt>
<trkpt lat="53.0839770000" lon="-4.1173250000"><ele>651</ele><time>2016-10-15T12:23:53Z</time></trkpt>
<trkpt lat="53.0839750000" lon="-4.1173440000"><ele>651</ele><time>2016-10-15T12:23:54Z</time></trkpt>
<trkpt lat="53.0839750000" lon="-4.1173630000"><ele>651</ele><time>2016-10-15T12:23:55Z</time></trkpt>
<trkpt lat="53.0839750000" lon="-4.1173630000"><ele>651</ele><time>2016-10-15T12:23:56Z</time></trkpt>
<trkpt lat="53.0839750000" lon="-4.1173630000"><ele>651</ele><time>2016-10-15T12:23:57Z</time></trkpt>
<trkpt lat="53.0839750000" lon="-4.1173640000"><ele>651</ele><time>2016-10-15T12:23:58Z</time></trkpt>
<trkpt lat="53.0839750000" lon="-4.1173650000"><ele>651</ele><time>2016-10-15T12:23:59Z</time></trkpt>
<trkpt lat="53.0839750000" lon="-4.1173670000"><ele>651</ele><time>2016-10-15T12:24:00Z</time></trkpt>
<trkpt lat="53.0839750000" lon="-4.1173690000"><ele>651</ele><time>2016-10-15T12:24:01Z</time></trkpt>
<trkpt lat="53.0839750000" lon="-4.1173720000"><ele>651</ele><time>2016-10-15T12:24:02Z</time></trkpt>
<trkpt lat="53.0839750000" lon="-4.1173760000"><ele>651</ele><time>2016-10-15T12:24:03Z</time></trkpt>
<trkpt lat="53.0839740000" lon="-4.1173810000"><ele>651</ele><time>2016-10-15T12:24:04Z</time></trkpt>
<trkpt lat="53.0839740000" lon="-4.1173860000"><ele>651</ele><time>2016-10-15T12:24:05Z</time></trkpt>
<trkpt lat="53.0839730000" lon="-4.1173930000"><ele>651</ele><time>2016-10-15T12:24:06Z</time></trkpt>
<trkpt lat="53.0839730000" lon="-4.1174000000"><ele>651</ele><time>2016-10-15T12:24:07Z</time></trkpt>
<trkpt lat="53.0839720000" lon="-4.1174080000"><ele>651</ele><time>2016-10-15T12:24:08Z</time></trkpt>
<trkpt lat="53.0839720000" lon="-4.1174160000"><ele>651</ele><time>2016-10-15T12:24:09Z</time></trkpt>
<trkpt lat="53.0839710000" lon="-4.1174250000"><ele>651</ele><time>2016-10-15T12:24:10Z</time></trkpt>
<trkpt lat="53.0839710000" lon="-4.1174350000"><ele>651</ele><time>2016-10-15T12:24:11Z</time></trkpt>
<trkpt lat="53.0839700000" lon="-4.1174440000"><ele>651</ele><time>2016-10-15T12:24:12Z</time></trkpt>
<trkpt lat="53.0839700000" lon="-4.1174540000"><ele>651</ele><time>2016-10-15T12:24:13Z</time></trkpt>
<trkpt lat="53.0839700000" lon="-4.1174650000"><ele>651</ele><time>2016-10-15T12:24:14Z</time></trkpt>
<trkpt lat="53.0839690000" lon="-4.1174760000"><ele>651</ele><time>2016-10-15T12:24:15Z</time></trkpt>
<trkpt lat="53.0839690000" lon="-4.1174870000"><ele>651</ele><time>2016-10-15T12:24:16Z</time></trkpt>
<trkpt lat="53.0839690000" lon="-4.1175000000"><ele>650</ele><time>2016-10-15T12:24:18Z</time></trkpt>
<trkpt lat="53.0839690000" lon="-4.1175120000"><ele>650</ele></trkpt>
<trkpt lat="53.0839690000" lon="-4.1175250000"><ele>650</ele><time>2016-10-15T12:24:19Z</time></trkpt>
<trkpt lat="53.0839680000" lon="-4.1175390000"><ele>650</ele><time>2016-10-15T12:24:20Z</time></trkpt>
<trkpt lat="53.0839680000" lon="-4.1175530000"><ele>650</ele><time>2016-10-15T12:24:21Z</time></trkpt>
<trkpt lat="53.0839680000" lon="-4.1175680000"><ele>650</ele><time>2016-10-15T12:24:22Z</time></trkpt>
<trkpt lat="53.0839670000" lon="-4.1175840000"><ele>650</ele><time>2016-10-15T12:24:23Z</time></trkpt>
<trkpt lat="53.0839670000" lon="-4.1176000000"><ele>649</ele><time>2016-10-15T12:24:24Z</time></trkpt>
<trkpt lat="53.0839660000" lon="-4.1176160000"><ele>649</ele><time>2016-10-15T12:24:25Z</time></trkpt>
<trkpt lat="53.0839560000" lon="-4.1179210000"><ele>649</ele><time>2016-10-15T12:24:26Z</time></trkpt>
<trkpt lat="53.0839540000" lon="-4.1179430000"><ele>649</ele><time>2016-10-15T12:24:27Z</time></trkpt>
<trkpt lat="53.0839520000" lon="-4.1179640000"><ele>649</ele><time>2016-10-15T12:24:28Z</time></trkpt>
<trkpt lat="53.0839490000" lon="-4.1179840000"><ele>649</ele><time>2016-10-15T12:24:29Z</time></trkpt>
<trkpt lat="53.0839460000" lon="-4.1180020000"><ele>649</ele><time>2016-10-15T12:24:30Z</time></trkpt>
<trkpt lat="53.0839440000" lon="-4.1180200000"><ele>649</ele><time>2016-10-15T12:24:31Z</time></trkpt>
<trkpt lat="53.0839410000" lon="-4.1180400000"><ele>649</ele><time>2016-10-15T12:24:32Z</time></trkpt>
<trkpt lat="53.0839390000" lon="-4.1180600000"><ele>648</ele><time>2016-10-15T12:24:33Z</time></trkpt>
<trkpt lat="53.0839390000" lon="-4.1180750000"><ele>648</ele><time>2016-10-15T12:24:34Z</time></trkpt>
<trkpt lat="53.0839380000" lon="-4.1180940000"><ele>648</ele><time>2016-10-15T12:24:35Z</time></trkpt>
<trkpt lat="53.0839360000" lon="-4.1181140000"><ele>648</ele><time>2016-10-15T12:24:36Z</time></trkpt>
<trkpt lat="53.0839350000" lon="-4.1181330000"><ele>648</ele><time>2016-10-15T12:24:37Z</time></trkpt>
<trkpt lat="53.0839330000" lon="-4.1181520000"><ele>648</ele><time>2016-10-15T12:24:38Z</time></trkpt>
<trkpt lat="53.0839310000" lon="-4.1181730000"><ele>648</ele><time>2016-10-15T12:24:39Z</time></trkpt>
<trkpt lat="53.0839290000" lon="-4.1181890000"><ele>648</ele><time>2016-10-15T12:24:40Z</time></trkpt>
<trkpt lat="53.0839260000" lon="-4.1182080000"><ele>648</ele><time>2016-10-15T12:24:41Z</time></trkpt>
<trkpt lat="53.0839220000" lon="-4.1182280000"><ele>648</ele><time>2016-10-15T12:24:42Z</time></trkpt>
<trkpt lat="53.0839190000" lon="-4.1182470000"><ele>648</ele><time>2016-10-15T12:24:43Z</time></trkpt>
<trkpt lat="53.0839170000" lon="-4.1182660000"><ele>648</ele><time>2016-10-15T12:24:44Z</time></trkpt>
<trkpt lat="53.0839150000" lon="-4.1182850000"><ele>647</ele><time>2016-10-15T12:24:45Z</time></trkpt>
<trkpt lat="53.0839120000" lon="-4.1183030000"><ele>647</ele><time>2016-10-15T12:24:46Z</time></trkpt>
<trkpt lat="53.0839090000" lon="-4.1183180000"><ele>647</ele><time>2016-10-15T12:24:47Z</time></trkpt>
<trkpt lat="53.0839060000" lon="-4.1183350000"><ele>647</ele><time>2016-10-15T12:24:48Z</time></trkpt>
<trkpt lat="53.0839060000" lon="-4.1183350000"><ele>647</ele><time>2016-10-15T12:24:49Z</time></trkpt>
<trkpt lat="53.0839060000" lon="-4.1183350000"><ele>647</ele><time>2016-10-15T12:24:50Z</time></trkpt>
<trkpt lat="53.0839060000" lon="-4.1183360000"><ele>647</ele><time>2016-10-15T12:24:51Z</time></trkpt>
<trkpt lat="53.0839060000" lon="-4.1183370000"><ele>646</ele><time>2016-10-15T12:24:52Z</time></trkpt>
<trkpt lat="53.0839050000" lon="-4.1183390000"><ele>646</ele><time>2016-10-15T12:24:53Z</time></trkpt>
<trkpt lat="53.0839050000" lon="-4.1183410000"><ele>646</ele><time>2016-10-15T12:24:54Z</time></trkpt>
<trkpt lat="53.0839050000" lon="-4.1183430000"><ele>646</ele><time>2016-10-15T12:24:55Z</time></trkpt>
<trkpt lat="53.0839040000" lon="-4.1183470000"><ele>646</ele><time>2016-10-15T12:24:56Z</time></trkpt>
<trkpt lat="53.0839030000" lon="-4.1183510000"><ele>646</ele><time>2016-10-15T12:24:57Z</time></trkpt>
<trkpt lat="53.0839020000" lon="-4.1183560000"><ele>645</ele><time>2016-10-15T12:24:58Z</time></trkpt>
<trkpt lat="53.0839010000" lon="-4.1183620000"><ele>645</ele><time>2016-10-15T12:24:59Z</time></trkpt>
<trkpt lat="53.0838990000" lon="-4.1183690000"><ele>645</ele><time>2016-10-15T12:25:00Z</time></trkpt>
<trkpt lat="53.0838980000" lon="-4.1183760000"><ele>645</ele><time>2016-10-15T12:25:01Z</time></trkpt>
<trkpt lat="53.0838960000" lon="-4.1183840000"><ele>645</ele><time>2016-10-15T12:25:02Z</time></trkpt>
<trkpt lat="53.0838940000" lon="-4.1183930000"><ele>645</ele><time>2016-10-15T12:25:03Z</time></trkpt>
<trkpt lat="53.0838920000" lon="-4.1184020000"><ele>644</ele><time>2016-10-15T12:25:04Z</time></trkpt>
<trkpt lat="53.0838900000" lon="-4.1184120000"><ele>644</ele><time>2016-10-15T12:25:05Z</time></trkpt>
<trkpt lat="53.0838880000" lon="-4.1184230000"><ele>644</ele><time>2016-10-15T12:25:06Z</time></trkpt>
<trkpt lat="53.0838860000" lon="-4.1184350000"><ele>644</ele><time>2016-10-15T12:25:07Z</time></trkpt>
<trkpt lat="53.0838840000" lon="-4.1184470000"><ele>644</ele><time>2016-10-15T12:25:08Z</time></trkpt>
<trkpt lat="53.0838820000" lon="-4.1184590000"><ele>644</ele><time>2016-10-15T12:25:09Z</time></trkpt>
<trkpt lat="53.0838400000" lon="-4.1187280000"><ele>644</ele><time>2016-10-15T12:25:10Z</time></trkpt>
<trkpt lat="53.0838370000" lon="-4.1187470000"><ele>644</ele><time>2016-10-15T12:25:11Z</time></trkpt>
<trkpt lat="53.0838340000" lon="-4.1187660000"><ele>644</ele><time>2016-10-15T12:25:12Z</time></trkpt>
<trkpt lat="53.0838340000" lon="-4.1187860000"><ele>643</ele><time>2016-10-15T12:25:13Z</time></trkpt>
<trkpt lat="53.0838330000" lon="-4.1188050000"><ele>643</ele><time>2016-10-15T12:25:14Z</time></trkpt>
<trkpt lat="53.0838330000" lon="-4.1188050000"><ele>643</ele><time>2016-10-15T12:25:15Z</time></trkpt>
<trkpt lat="53.0838330000" lon="-4.1188050000"><ele>643</ele><time>2016-10-15T12:25:16Z</time></trkpt>
<trkpt lat="53.0838330000" lon="-4.1188060000"><ele>643</ele><time>2016-10-15T12:25:18Z</time></trkpt>
<trkpt lat="53.0838330000" lon="-4.1188080000"><ele>643</ele></trkpt>
<trkpt lat="53.0838330000" lon="-4.1188090000"><ele>643</ele><time>2016-10-15T12:25:19Z</time></trkpt>
<trkpt lat="53.0838330000" lon="-4.1188120000"><ele>643</ele><time>2016-10-15T12:25:20Z</time></trkpt>
<trkpt lat="53.0838320000" lon="-4.1188150000"><ele>642</ele><time>2016-10-15T12:25:21Z</time></trkpt>
<trkpt lat="53.0838320000" lon="-4.1188200000"><ele>642</ele><time>2016-10-15T12:25:22Z</time></trkpt>
<trkpt lat="53.0838310000" lon="-4.1188250000"><ele>642</ele><time>2016-10-15T12:25:23Z</time></trkpt>
<trkpt lat="53.0838110000" lon="-4.1190070000"><ele>642</ele><time>2016-10-15T12:25:24Z</time></trkpt>
<trkpt lat="53.0838090000" lon="-4.1190260000"><ele>642</ele><time>2016-10-15T12:25:25Z</time></trkpt>
<trkpt lat="53.0838070000" lon="-4.1190460000"><ele>642</ele><time>2016-10-15T12:25:26Z</time></trkpt>
<trkpt lat="53.0838040000" lon="-4.1190660000"><ele>642</ele><time>2016-10-15T12:25:27Z</time></trkpt>
<trkpt lat="53.0838010000" lon="-4.1190860000"><ele>642</ele><time>2016-10-15T12:25:28Z</time></trkpt>
<trkpt lat="53.0837990000" lon="-4.1191080000"><ele>641</ele><time>2016-10-15T12:25:29Z</time></trkpt>
<trkpt lat="53.0837960000" lon="-4.1191290000"><ele>641</ele><time>2016-10-15T12:25:30Z</time></trkpt>
<trkpt lat="53.0837940000" lon="-4.1191540000"><ele>641</ele><time>2016-10-15T12:25:31Z</time></trkpt>
<trkpt lat="53.0837940000" lon="-4.1191780000"><ele>641</ele><time>2016-10-15T12:25:32Z</time></trkpt>
<trkpt lat="53.0837920000" lon="-4.1192010000"><ele>641</ele><time>2016-10-15T12:25:33Z</time></trkpt>
<trkpt lat="53.0837910000" lon="-4.1192230000"><ele>641</ele><time>2016-10-15T12:25:34Z</time></trkpt>
<trkpt lat="53.0837910000" lon="-4.1192440000"><ele>641</ele><time>2016-10-15T12:25:35Z</time></trkpt>
<trkpt lat="53.0837900000" lon="-4.1192640000"><ele>641</ele><time>2016-10-15T12:25:36Z</time></trkpt>
<trkpt lat="53.0837890000" lon="-4.1192850000"><ele>641</ele><time>2016-10-15T12:25:37Z</time></trkpt>
<trkpt lat="53.0837870000" lon="-4.1193060000"><ele>641</ele><time>2016-10-15T12:25:38Z</time></trkpt>
<trkpt lat="53.0837830000" lon="-4.1193260000"><ele>640</ele><time>2016-10-15T12:25:39Z</time></trkpt>
<trkpt lat="53.0837780000" lon="-4.1193460000"><ele>640</ele><time>2016-10-15T12:25:40Z</time></trkpt>
<trkpt lat="53.0837750000" lon="-4.1193640000"><ele>640</ele><time>2016-10-15T12:25:41Z</time></trkpt>
<trkpt lat="53.0837720000" lon="-4.1193850000"><ele>640</ele><time>2016-10-15T12:25:42Z</time></trkpt>
<trkpt lat="53.0837700000" lon="-4.1194070000"><ele>640</ele><time>2016-10-15T12:25:43Z</time></trkpt>
<trkpt lat="53.0837680000" lon="-4.1194270000"><ele>640</ele><time>2016-10-15T12:25:44Z</time></trkpt>
<trkpt lat="53.0837650000" lon="-4.1194450000"><ele>640</ele><time>2016-10-15T12:25:45Z</time></trkpt>
<trkpt lat="53.0837630000" lon="-4.1194650000"><ele>640</ele><time>2016-10-15T12:25:46Z</time></trkpt>
<trkpt lat="53.0837600000" lon="-4.1194840000"><ele>640</ele><time>2016-10-15T12:25:47Z</time></trkpt>
<trkpt lat="53.0837570000" lon="-4.1195030000"><ele>639</ele><time>2016-10-15T12:25:48Z</time></trkpt>
<trkpt lat="53.0837560000" lon="-4.1195240000"><ele>639</ele><time>2016-10-15T12:25:49Z</time></trkpt>
<trkpt lat="53.0837550000" lon="-4.1195430000"><ele>639</ele><time>2016-10-15T12:25:50Z</time></trkpt>
<trkpt lat="53.0837530000" lon="-4.1195650000"><ele>639</ele><time>2016-10-15T12:25:51Z</time></trkpt>
<trkpt lat="53.0837520000" lon="-4.1195840000"><ele>639</ele><time>2016-10-15T12:25:52Z</time></trkpt>
<trkpt lat="53.0837490000" lon="-4.1196020000"><ele>639</ele><time>2016-10-15T12:25:53Z</time></trkpt>
<trkpt lat="53.0837480000" lon="-4.1196180000"><ele>639</ele><time>2016-10-15T12:25:54Z</time></trkpt>
<trkpt lat="53.0837480000" lon="-4.1196180000"><ele>639</ele><time>2016-10-15T12:25:55Z</time></trkpt>
<trkpt lat="53.0837480000" lon="-4.1196180000"><ele>639</ele><time>2016-10-15T12:25:56Z</time></trkpt>
<trkpt lat="53.0837480000" lon="-4.1196190000"><ele>638</ele><time>2016-10-15T12:25:57Z</time></trkpt>
<trkpt lat="53.0837470000" lon="-4.1196200000"><ele>638</ele><time>2016-10-15T12:25:58Z</time></trkpt>
<trkpt lat="53.0837470000" lon="-4.1196220000"><ele>638</ele><time>2016-10-15T12:25:59Z</time></trkpt>
<trkpt lat="53.0837400000" lon="-4.1197380000"><ele>638</ele><time>2016-10-15T12:26:00Z</time></trkpt>
<trkpt lat="53.0837390000" lon="-4.1197570000"><ele>638</ele><time>2016-10-15T12:26:01Z</time></trkpt>
<trkpt lat="53.0837370000" lon="-4.1197750000"><ele>638</ele><time>2016-10-15T12:26:02Z</time></trkpt>
<trkpt lat="53.0837370000" lon="-4.1197760000"><ele>638</ele><time>2016-10-15T12:26:03Z</time></trkpt>
<trkpt lat="53.0837370000" lon="-4.1197760000"><ele>638</ele><time>2016-10-15T12:26:04Z</time></trkpt>
<trkpt lat="53.0837370000" lon="-4.1197770000"><ele>638</ele><time>2016-10-15T12:26:05Z</time></trkpt>
<trkpt lat="53.0837370000" lon="-4.1197780000"><ele>637</ele><time>2016-10-15T12:26:06Z</time></trkpt>
<trkpt lat="53.0837370000" lon="-4.1197800000"><ele>637</ele><time>2016-10-15T12:26:07Z</time></trkpt>
<trkpt lat="53.0837370000" lon="-4.1197830000"><ele>637</ele><time>2016-10-15T12:26:08Z</time></trkpt>
<trkpt lat="53.0837370000" lon="-4.1197860000"><ele>637</ele><time>2016-10-15T12:26:09Z</time></trkpt>
<trkpt lat="53.0837360000" lon="-4.1197910000"><ele>637</ele><time>2016-10-15T12:26:10Z</time></trkpt>
<trkpt lat="53.0837360000" lon="-4.1197960000"><ele>637</ele><time>2016-10-15T12:26:11Z</time></trkpt>
<trkpt lat="53.0837350000" lon="-4.1198020000"><ele>637</ele><time>2016-10-15T12:26:12Z</time></trkpt>
<trkpt lat="53.0837350000" lon="-4.1198090000"><ele>637</ele><time>2016-10-15T12:26:13Z</time></trkpt>
<trkpt lat="53.0837340000" lon="-4.1198170000"><ele>636</ele><time>2016-10-15T12:26:14Z</time></trkpt>
<trkpt lat="53.0837340000" lon="-4.1198260000"><ele>636</ele><time>2016-10-15T12:26:15Z</time></trkpt>
<trkpt lat="53.0837330000" lon="-4.1198360000"><ele>636</ele><time>2016-10-15T12:26:16Z</time></trkpt>
<trkpt lat="53.0837320000" lon="-4.1198470000"><ele>636</ele><time>2016-10-15T12:26:18Z</time></trkpt>
<trkpt lat="53.0837310000" lon="-4.1198580000"><ele>636</ele></trkpt>
<trkpt lat="53.0837070000" lon="-4.1201200000"><ele>636</ele><time>2016-10-15T12:26:19Z</time></trkpt>
<trkpt lat="53.0837050000" lon="-4.1201380000"><ele>635</ele><time>2016-10-15T12:26:20Z</time></trkpt>
<trkpt lat="53.0837030000" lon="-4.1201580000"><ele>635</ele><time>2016-10-15T12:26:21Z</time></trkpt>
<trkpt lat="53.0837030000" lon="-4.1201770000"><ele>635</ele><time>2016-10-15T12:26:22Z</time></trkpt>
<trkpt lat="53.0837030000" lon="-4.1201920000"><ele>635</ele><time>2016-10-15T12:26:23Z</time></trkpt>
<trkpt lat="53.0837030000" lon="-4.1201920000"><ele>635</ele><time>2016-10-15T12:26:24Z</time></trkpt>
<trkpt lat="53.0837030000" lon="-4.1201930000"><ele>635</ele><time>2016-10-15T12:26:25Z</time></trkpt>
<trkpt lat="53.0837030000" lon="-4.1201930000"><ele>634</ele><time>2016-10-15T12:26:26Z</time></trkpt>
<trkpt lat="53.0837030000" lon="-4.1201940000"><ele>634</ele><time>2016-10-15T12:26:27Z</time></trkpt>
<trkpt lat="53.0837030000" lon="-4.1201960000"><ele>634</ele><time>2016-10-15T12:26:28Z</time></trkpt>
<trkpt lat="53.0837020000" lon="-4.1201980000"><ele>634</ele><time>2016-10-15T12:26:29Z</time></trkpt>
<trkpt lat="53.0837020000" lon="-4.1202010000"><ele>633</ele><time>2016-10-15T12:26:30Z</time></trkpt>
<trkpt lat="53.0837020000" lon="-4.1202050000"><ele>633</ele><time>2016-10-15T12:26:31Z</time></trkpt>
<trkpt lat="53.0837010000" lon="-4.1202100000"><ele>633</ele><time>2016-10-15T12:26:32Z</time></trkpt>
<trkpt lat="53.0837010000" lon="-4.1202150000"><ele>633</ele><time>2016-10-15T12:26:33Z</time></trkpt>
<trkpt lat="53.0837000000" lon="-4.1202210000"><ele>633</ele><time>2016-10-15T12:26:34Z</time></trkpt>
<trkpt lat="53.0836990000" lon="-4.1202280000"><ele>632</ele><time>2016-10-15T12:26:35Z</time></trkpt>
<trkpt lat="53.0836980000" lon="-4.1202360000"><ele>632</ele><time>2016-10-15T12:26:36Z</time></trkpt>
<trkpt lat="53.0836970000" lon="-4.1202450000"><ele>632</ele><time>2016-10-15T12:26:37Z</time></trkpt>
<trkpt lat="53.0836960000" lon="-4.1202540000"><ele>632</ele><time>2016-10-15T12:26:38Z</time></trkpt>
<trkpt lat="53.0836950000" lon="-4.1202640000"><ele>632</ele><time>2016-10-15T12:26:39Z</time></trkpt>
<trkpt lat="53.0836940000" lon="-4.1202750000"><ele>631</ele><time>2016-10-15T12:26:40Z</time></trkpt>
<trkpt lat="53.0836930000" lon="-4.1202860000"><ele>631</ele><time>2016-10-15T12:26:41Z</time></trkpt>
<trkpt lat="53.0836920000" lon="-4.1202980000"><ele>631</ele><time>2016-10-15T12:26:42Z</time></trkpt>
<trkpt lat="53.0836900000" lon="-4.1203100000"><ele>631</ele><time>2016-10-15T12:26:43Z</time></trkpt>
<trkpt lat="53.0836890000" lon="-4.1203220000"><ele>631</ele><time>2016-10-15T12:26:44Z</time></trkpt>
<trkpt lat="53.0836880000" lon="-4.1203350000"><ele>631</ele><time>2016-10-15T12:26:45Z</time></trkpt>
<trkpt lat="53.0836860000" lon="-4.1203490000"><ele>630</ele><time>2016-10-15T12:26:46Z</time></trkpt>
<trkpt lat="53.0836850000" lon="-4.1203620000"><ele>630</ele><time>2016-10-15T12:26:47Z</time></trkpt>
<trkpt lat="53.0836830000" lon="-4.1203760000"><ele>630</ele><time>2016-10-15T12:26:48Z</time></trkpt>
<trkpt lat="53.0836810000" lon="-4.1203910000"><ele>630</ele><time>2016-10-15T12:26:49Z</time></trkpt>
<trkpt lat="53.0836800000" lon="-4.1204050000"><ele>629</ele><time>2016-10-15T12:26:50Z</time></trkpt>
<trkpt lat="53.0836780000" lon="-4.1204200000"><ele>629</ele><time>2016-10-15T12:26:51Z</time></trkpt>
<trkpt lat="53.0836760000" lon="-4.1204350000"><ele>629</ele><time>2016-10-15T12:26:52Z</time></trkpt>
<trkpt lat="53.0836750000" lon="-4.1204500000"><ele>628</ele><time>2016-10-15T12:26:53Z</time></trkpt>
<trkpt lat="53.0836730000" lon="-4.1204650000"><ele>628</ele><time>2016-10-15T12:26:54Z</time></trkpt>
<trkpt lat="53.0836710000" lon="-4.1204800000"><ele>628</ele><time>2016-10-15T12:26:55Z</time></trkpt>
<trkpt lat="53.0836690000" lon="-4.1204950000"><ele>628</ele><time>2016-10-15T12:26:56Z</time></trkpt>
<trkpt lat="53.0836670000" lon="-4.1205090000"><ele>627</ele><time>2016-10-15T12:26:57Z</time></trkpt>
<trkpt lat="53.0836660000" lon="-4.1205240000"><ele>627</ele><time>2016-10-15T12:26:58Z</time></trkpt>
<trkpt lat="53.0836640000" lon="-4.1205390000"><ele>627</ele><time>2016-10-15T12:26:59Z</time></trkpt>
<trkpt lat="53.0836620000" lon="-4.1205540000"><ele>627</ele><time>2016-10-15T12:27:00Z</time></trkpt>
<trkpt lat="53.0836600000" lon="-4.1205690000"><ele>626</ele><time>2016-10-15T12:27:01Z</time></trkpt>
<trkpt lat="53.0836590000" lon="-4.1205840000"><ele>626</ele><time>2016-10-15T12:27:02Z</time></trkpt>
<trkpt lat="53.0836270000" lon="-4.1208710000"><ele>626</ele><time>2016-10-15T12:27:03Z</time></trkpt>
<trkpt lat="53.0836250000" lon="-4.1208910000"><ele>626</ele><time>2016-10-15T12:27:04Z</time></trkpt>
<trkpt lat="53.0836240000" lon="-4.1209100000"><ele>625</ele><time>2016-10-15T12:27:05Z</time></trkpt>
<trkpt lat="53.0836210000" lon="-4.1209300000"><ele>625</ele><time>2016-10-15T12:27:06Z</time></trkpt>
<trkpt lat="53.0836210000" lon="-4.1209480000"><ele>625</ele><time>2016-10-15T12:27:07Z</time></trkpt>
<trkpt lat="53.0836210000" lon="-4.1209480000"><ele>625</ele><time>2016-10-15T12:27:08Z</time></trkpt>
<trkpt lat="53.0836210000" lon="-4.1209480000"><ele>624</ele><time>2016-10-15T12:27:09Z</time></trkpt>
<trkpt lat="53.0836210000" lon="-4.1209490000"><ele>624</ele><time>2016-10-15T12:27:10Z</time></trkpt>
<trkpt lat="53.0836210000" lon="-4.1209500000"><ele>624</ele><time>2016-10-15T12:27:11Z</time></trkpt>
<trkpt lat="53.0836210000" lon="-4.1209520000"><ele>624</ele><time>2016-10-15T12:27:12Z</time></trkpt>
<trkpt lat="53.0836210000" lon="-4.1209540000"><ele>624</ele><time>2016-10-15T12:27:13Z</time></trkpt>
<trkpt lat="53.0836210000" lon="-4.1209570000"><ele>623</ele><time>2016-10-15T12:27:14Z</time></trkpt>
<trkpt lat="53.0836210000" lon="-4.1209620000"><ele>623</ele><time>2016-10-15T12:27:15Z</time></trkpt>
<trkpt lat="53.0836210000" lon="-4.1209670000"><ele>623</ele><time>2016-10-15T12:27:16Z</time></trkpt>
<trkpt lat="53.0836220000" lon="-4.1211480000"><ele>623</ele><time>2016-10-15T12:27:18Z</time></trkpt>
<trkpt lat="53.0836210000" lon="-4.1211730000"><ele>623</ele></trkpt>
<trkpt lat="53.0836190000" lon="-4.1211960000"><ele>622</ele><time>2016-10-15T12:27:19Z</time></trkpt>
<trkpt lat="53.0836170000" lon="-4.1212190000"><ele>622</ele><time>2016-10-15T12:27:20Z</time></trkpt>
<trkpt lat="53.0836150000" lon="-4.1212430000"><ele>622</ele><time>2016-10-15T12:27:21Z</time></trkpt>
<trkpt lat="53.0836130000" lon="-4.1212660000"><ele>622</ele><time>2016-10-15T12:27:22Z</time></trkpt>
<trkpt lat="53.0836110000" lon="-4.1212880000"><ele>622</ele><time>2016-10-15T12:27:23Z</time></trkpt>
<trkpt lat="53.0836090000" lon="-4.1213100000"><ele>622</ele><time>2016-10-15T12:27:24Z</time></trkpt>
<trkpt lat="53.0836080000" lon="-4.1213310000"><ele>622</ele><time>2016-10-15T12:27:25Z</time></trkpt>
<trkpt lat="53.0836070000" lon="-4.1213520000"><ele>621</ele><time>2016-10-15T12:27:26Z</time></trkpt>
<trkpt lat="53.0836070000" lon="-4.1213720000"><ele>621</ele><time>2016-10-15T12:27:27Z</time></trkpt>
<trkpt lat="53.0836050000" lon="-4.1213930000"><ele>621</ele><time>2016-10-15T12:27:28Z</time></trkpt>
<trkpt lat="53.0836020000" lon="-4.1214130000"><ele>621</ele><time>2016-10-15T12:27:29Z</time></trkpt>
<trkpt lat="53.0835980000" lon="-4.1214330000"><ele>621</ele><time>2016-10-15T12:27:30Z</time></trkpt>
<trkpt lat="53.0835950000" lon="-4.1214550000"><ele>621</ele><time>2016-10-15T12:27:31Z</time></trkpt>
<trkpt lat="53.0835920000" lon="-4.1214730000"><ele>621</ele><time>2016-10-15T12:27:32Z</time></trkpt>
<trkpt lat="53.0835890000" lon="-4.1214950000"><ele>620</ele><time>2016-10-15T12:27:33Z</time></trkpt>
<trkpt lat="53.0835870000" lon="-4.1215170000"><ele>620</ele><time>2016-10-15T12:27:34Z</time></trkpt>
<trkpt lat="53.0835840000" lon="-4.1215380000"><ele>620</ele><time>2016-10-15T12:27:35Z</time></trkpt>
<trkpt lat="53.0835790000" lon="-4.1215580000"><ele>620</ele><time>2016-10-15T12:27:36Z</time></trkpt>
<trkpt lat="53.0835740000" lon="-4.1215770000"><ele>620</ele><time>2016-10-15T12:27:37Z</time></trkpt>
<trkpt lat="53.0835680000" lon="-4.1215980000"><ele>620</ele><time>2016-10-15T12:27:38Z</time></trkpt>
<trkpt lat="53.0835640000" lon="-4.1216160000"><ele>620</ele><time>2016-10-15T12:27:39Z</time></trkpt>
<trkpt lat="53.0835610000" lon="-4.1216320000"><ele>620</ele><time>2016-10-15T12:27:40Z</time></trkpt>
<trkpt lat="53.0835580000" lon="-4.1216490000"><ele>620</ele><time>2016-10-15T12:27:41Z</time></trkpt>
<trkpt lat="53.0835550000" lon="-4.1216690000"><ele>620</ele><time>2016-10-15T12:27:42Z</time></trkpt>
<trkpt lat="53.0835550000" lon="-4.1216690000"><ele>619</ele><time>2016-10-15T12:27:43Z</time></trkpt>
<trkpt lat="53.0835550000" lon="-4.1216690000"><ele>619</ele><time>2016-10-15T12:27:44Z</time></trkpt>
<trkpt lat="53.0835550000" lon="-4.1216700000"><ele>619</ele><time>2016-10-15T12:27:45Z</time></trkpt>
<trkpt lat="53.0835550000" lon="-4.1216710000"><ele>619</ele><time>2016-10-15T12:27:46Z</time></trkpt>
<trkpt lat="53.0835550000" lon="-4.1216730000"><ele>619</ele><time>2016-10-15T12:27:47Z</time></trkpt>
<trkpt lat="53.0835540000" lon="-4.1216750000"><ele>619</ele><time>2016-10-15T12:27:48Z</time></trkpt>
<trkpt lat="53.0835540000" lon="-4.1216780000"><ele>619</ele><time>2016-10-15T12:27:49Z</time></trkpt>
<trkpt lat="53.0835530000" lon="-4.1216820000"><ele>618</ele><time>2016-10-15T12:27:50Z</time></trkpt>
<trkpt lat="53.0835530000" lon="-4.1216870000"><ele>618</ele><time>2016-10-15T12:27:51Z</time></trkpt>
<trkpt lat="53.0835520000" lon="-4.1216920000"><ele>618</ele><time>2016-10-15T12:27:52Z</time></trkpt>
<trkpt lat="53.0835220000" lon="-4.1218700000"><ele>618</ele><time>2016-10-15T12:27:53Z</time></trkpt>
<trkpt lat="53.0835170000" lon="-4.1218860000"><ele>618</ele><time>2016-10-15T12:27:54Z</time></trkpt>
<trkpt lat="53.0835120000" lon="-4.1219050000"><ele>618</ele><time>2016-10-15T12:27:55Z</time></trkpt>
<trkpt lat="53.0835080000" lon="-4.1219240000"><ele>618</ele><time>2016-10-15T12:27:56Z</time></trkpt>
<trkpt lat="53.0835040000" lon="-4.1219440000"><ele>618</ele><time>2016-10-15T12:27:57Z</time></trkpt>
<trkpt lat="53.0834990000" lon="-4.1219640000"><ele>618</ele><time>2016-10-15T12:27:58Z</time></trkpt>
<trkpt lat="53.0834950000" lon="-4.1219840000"><ele>617</ele><time>2016-10-15T12:27:59Z</time></trkpt>
<trkpt lat="53.0834910000" lon="-4.1220030000"><ele>617</ele><time>2016-10-15T12:28:00Z</time></trkpt>
<trkpt lat="53.0834850000" lon="-4.1220180000"><ele>617</ele><time>2016-10-15T12:28:01Z</time></trkpt>
<trkpt lat="53.0834850000" lon="-4.1220190000"><ele>617</ele><time>2016-10-15T12:28:02Z</time></trkpt>
<trkpt lat="53.0834850000" lon="-4.1220190000"><ele>617</ele><time>2016-10-15T12:28:03Z</time></trkpt>
<trkpt lat="53.0834850000" lon="-4.1220200000"><ele>617</ele><time>2016-10-15T12:28:04Z</time></trkpt>
<trkpt lat="53.0834850000" lon="-4.1220210000"><ele>617</ele><time>2016-10-15T12:28:05Z</time></trkpt>
<trkpt lat="53.0834850000" lon="-4.1220220000"><ele>616</ele><time>2016-10-15T12:28:06Z</time></trkpt>
<trkpt lat="53.0834610000" lon="-4.1221290000"><ele>616</ele><time>2016-10-15T12:28:07Z</time></trkpt>
<trkpt lat="53.0834540000" lon="-4.1221500000"><ele>616</ele><time>2016-10-15T12:28:08Z</time></trkpt>
<trkpt lat="53.0834470000" lon="-4.1221710000"><ele>616</ele><time>2016-10-15T12:28:09Z</time></trkpt>
<trkpt lat="53.0834420000" lon="-4.1221910000"><ele>616</ele><time>2016-10-15T12:28:10Z</time></trkpt>
<trkpt lat="53.0834350000" lon="-4.1222130000"><ele>616</ele><time>2016-10-15T12:28:11Z</time></trkpt>
<trkpt lat="53.0834280000" lon="-4.1222310000"><ele>615</ele><time>2016-10-15T12:28:12Z</time></trkpt>
<trkpt lat="53.0834210000" lon="-4.1222510000"><ele>615</ele><time>2016-10-15T12:28:13Z</time></trkpt>
<trkpt lat="53.0834150000" lon="-4.1222720000"><ele>615</ele><time>2016-10-15T12:28:14Z</time></trkpt>
<trkpt lat="53.0834100000" lon="-4.1222920000"><ele>615</ele><time>2016-10-15T12:28:15Z</time></trkpt>
<trkpt lat="53.0834070000" lon="-4.1223090000"><ele>615</ele><time>2016-10-15T12:28:16Z</time></trkpt>
<trkpt lat="53.0834030000" lon="-4.1223240000"><ele>615</ele><time>2016-10-15T12:28:18Z</time></trkpt>
<trkpt lat="53.0834000000" lon="-4.1223400000"><ele>614</ele></trkpt>
<trkpt lat="53.0834000000" lon="-4.1223410000"><ele>614</ele><time>2016-10-15T12:28:19Z</time></trkpt>
<trkpt lat="53.0834000000" lon="-4.1223410000"><ele>614</ele><time>2016-10-15T12:28:20Z</time></trkpt>
<trkpt lat="53.0834000000" lon="-4.1223410000"><ele>614</ele><time>2016-10-15T12:28:21Z</time></trkpt>
<trkpt lat="53.0834000000" lon="-4.1223420000"><ele>614</ele><time>2016-10-15T12:28:22Z</time></trkpt>
<trkpt lat="53.0834000000" lon="-4.1223440000"><ele>614</ele><time>2016-10-15T12:28:23Z</time></trkpt>
<trkpt lat="53.0833990000" lon="-4.1223460000"><ele>614</ele><time>2016-10-15T12:28:24Z</time></trkpt>
<trkpt lat="53.0833990000" lon="-4.1223490000"><ele>613</ele><time>2016-10-15T12:28:25Z</time></trkpt>
<trkpt lat="53.0833990000" lon="-4.1223520000"><ele>613</ele><time>2016-10-15T12:28:26Z</time></trkpt>
<trkpt lat="53.0833990000" lon="-4.1223560000"><ele>613</ele><time>2016-10-15T12:28:27Z</time></trkpt>
<trkpt lat="53.0833990000" lon="-4.1223610000"><ele>613</ele><time>2016-10-15T12:28:28Z</time></trkpt>
<trkpt lat="53.0833990000" lon="-4.1223670000"><ele>613</ele><time>2016-10-15T12:28:29Z</time></trkpt>
<trkpt lat="53.0833950000" lon="-4.1225610000"><ele>613</ele><time>2016-10-15T12:28:30Z</time></trkpt>
<trkpt lat="53.0833960000" lon="-4.1225810000"><ele>613</ele><time>2016-10-15T12:28:31Z</time></trkpt>
<trkpt lat="53.0833960000" lon="-4.1226000000"><ele>612</ele><time>2016-10-15T12:28:32Z</time></trkpt>
<trkpt lat="53.0833930000" lon="-4.1226190000"><ele>612</ele><time>2016-10-15T12:28:33Z</time></trkpt>
<trkpt lat="53.0833940000" lon="-4.1226360000"><ele>612</ele><time>2016-10-15T12:28:34Z</time></trkpt>
<trkpt lat="53.0833960000" lon="-4.1226520000"><ele>612</ele><time>2016-10-15T12:28:35Z</time></trkpt>
<trkpt lat="53.0833960000" lon="-4.1226520000"><ele>612</ele><time>2016-10-15T12:28:36Z</time></trkpt>
<trkpt lat="53.0833960000" lon="-4.1226530000"><ele>612</ele><time>2016-10-15T12:28:37Z</time></trkpt>
<trkpt lat="53.0833960000" lon="-4.1226530000"><ele>612</ele><time>2016-10-15T12:28:38Z</time></trkpt>
<trkpt lat="53.0833960000" lon="-4.1226550000"><ele>611</ele><time>2016-10-15T12:28:39Z</time></trkpt>
<trkpt lat="53.0833960000" lon="-4.1226560000"><ele>611</ele><time>2016-10-15T12:28:40Z</time></trkpt>
<trkpt lat="53.0833960000" lon="-4.1226580000"><ele>611</ele><time>2016-10-15T12:28:41Z</time></trkpt>
<trkpt lat="53.0833960000" lon="-4.1226610000"><ele>611</ele><time>2016-10-15T12:28:42Z</time></trkpt>
<trkpt lat="53.0833960000" lon="-4.1226640000"><ele>611</ele><time>2016-10-15T12:28:43Z</time></trkpt>
<trkpt lat="53.0833950000" lon="-4.1226680000"><ele>610</ele><time>2016-10-15T12:28:44Z</time></trkpt>
<trkpt lat="53.0833950000" lon="-4.1226730000"><ele>610</ele><time>2016-10-15T12:28:45Z</time></trkpt>
<trkpt lat="53.0833940000" lon="-4.1226780000"><ele>610</ele><time>2016-10-15T12:28:46Z</time></trkpt>
<trkpt lat="53.0833940000" lon="-4.1226850000"><ele>610</ele><time>2016-10-15T12:28:47Z</time></trkpt>
<trkpt lat="53.0833930000" lon="-4.1226920000"><ele>610</ele><time>2016-10-15T12:28:48Z</time></trkpt>
<trkpt lat="53.0833920000" lon="-4.1227000000"><ele>609</ele><time>2016-10-15T12:28:49Z</time></trkpt>
<trkpt lat="53.0833900000" lon="-4.1227080000"><ele>609</ele><time>2016-10-15T12:28:50Z</time></trkpt>
<trkpt lat="53.0833890000" lon="-4.1227170000"><ele>609</ele><time>2016-10-15T12:28:51Z</time></trkpt>
<trkpt lat="53.0833870000" lon="-4.1227250000"><ele>609</ele><time>2016-10-15T12:28:52Z</time></trkpt>
<trkpt lat="53.0833850000" lon="-4.1227350000"><ele>608</ele><time>2016-10-15T12:28:53Z</time></trkpt>
<trkpt lat="53.0833820000" lon="-4.1227440000"><ele>608</ele><time>2016-10-15T12:28:54Z</time></trkpt>
<trkpt lat="53.0833790000" lon="-4.1227540000"><ele>608</ele><time>2016-10-15T12:28:55Z</time></trkpt>
<trkpt lat="53.0833760000" lon="-4.1227640000"><ele>608</ele><time>2016-10-15T12:28:56Z</time></trkpt>
<trkpt lat="53.0833730000" lon="-4.1227740000"><ele>607</ele><time>2016-10-15T12:28:57Z</time></trkpt>
<trkpt lat="53.0833690000" lon="-4.1227840000"><ele>607</ele><time>2016-10-15T12:28:58Z</time></trkpt>
<trkpt lat="53.0833650000" lon="-4.1227950000"><ele>607</ele><time>2016-10-15T12:28:59Z</time></trkpt>
<trkpt lat="53.0833600000" lon="-4.1228060000"><ele>607</ele><time>2016-10-15T12:29:00Z</time></trkpt>
<trkpt lat="53.0833560000" lon="-4.1228170000"><ele>607</ele><time>2016-10-15T12:29:01Z</time></trkpt>
<trkpt lat="53.0833510000" lon="-4.1228280000"><ele>606</ele><time>2016-10-15T12:29:02Z</time></trkpt>
<trkpt lat="53.0833460000" lon="-4.1228400000"><ele>606</ele><time>2016-10-15T12:29:03Z</time></trkpt>
<trkpt lat="53.0833410000" lon="-4.1228520000"><ele>606</ele><time>2016-10-15T12:29:04Z</time></trkpt>
<trkpt lat="53.0833360000" lon="-4.1228640000"><ele>606</ele><time>2016-10-15T12:29:05Z</time></trkpt>
<trkpt lat="53.0833300000" lon="-4.1228770000"><ele>605</ele><time>2016-10-15T12:29:06Z</time></trkpt>
<trkpt lat="53.0833250000" lon="-4.1228890000"><ele>605</ele><time>2016-10-15T12:29:07Z</time></trkpt>
<trkpt lat="53.0833190000" lon="-4.1229020000"><ele>605</ele><time>2016-10-15T12:29:08Z</time></trkpt>
<trkpt lat="53.0833140000" lon="-4.1229150000"><ele>605</ele><time>2016-10-15T12:29:09Z</time></trkpt>
<trkpt lat="53.0832110000" lon="-4.1231630000"><ele>604</ele><time>2016-10-15T12:29:10Z</time></trkpt>
<trkpt lat="53.0832030000" lon="-4.1231790000"><ele>604</ele><time>2016-10-15T12:29:11Z</time></trkpt>
<trkpt lat="53.0831990000" lon="-4.1231920000"><ele>604</ele><time>2016-10-15T12:29:12Z</time></trkpt>
<trkpt lat="53.0831950000" lon="-4.1232100000"><ele>604</ele><time>2016-10-15T12:29:13Z</time></trkpt>
<trkpt lat="53.0831950000" lon="-4.1232100000"><ele>603</ele><time>2016-10-15T12:29:14Z</time></trkpt>
<trkpt lat="53.0831940000" lon="-4.1232100000"><ele>603</ele><time>2016-10-15T12:29:15Z</time></trkpt>
<trkpt lat="53.0831940000" lon="-4.1232110000"><ele>603</ele><time>2016-10-15T12:29:16Z</time></trkpt>
<trkpt lat="53.0831940000" lon="-4.1232120000"><ele>603</ele><time>2016-10-15T12:29:18Z</time></trkpt>
<trkpt lat="53.0831930000" lon="-4.1232130000"><ele>603</ele></trkpt>
<trkpt lat="53.0831930000" lon="-4.1232150000"><ele>603</ele><time>2016-10-15T12:29:19Z</time></trkpt>
<trkpt lat="53.0831920000" lon="-4.1232170000"><ele>602</ele><time>2016-10-15T12:29:20Z</time></trkpt>
<trkpt lat="53.0831910000" lon="-4.1232200000"><ele>602</ele><time>2016-10-15T12:29:21Z</time></trkpt>
<trkpt lat="53.0831890000" lon="-4.1232240000"><ele>602</ele><time>2016-10-15T12:29:22Z</time></trkpt>
<trkpt lat="53.0831880000" lon="-4.1232280000"><ele>602</ele><time>2016-10-15T12:29:23Z</time></trkpt>
<trkpt lat="53.0831860000" lon="-4.1232330000"><ele>602</ele><time>2016-10-15T12:29:24Z</time></trkpt>
<trkpt lat="53.0831840000" lon="-4.1232390000"><ele>602</ele><time>2016-10-15T12:29:25Z</time></trkpt>
<trkpt lat="53.0831820000" lon="-4.1232460000"><ele>602</ele><time>2016-10-15T12:29:26Z</time></trkpt>
<trkpt lat="53.0831790000" lon="-4.1232530000"><ele>602</ele><time>2016-10-15T12:29:27Z</time></trkpt>
<trkpt lat="53.0831770000" lon="-4.1232610000"><ele>602</ele><time>2016-10-15T12:29:28Z</time></trkpt>
<trkpt lat="53.0831740000" lon="-4.1232700000"><ele>601</ele><time>2016-10-15T12:29:29Z</time></trkpt>
<trkpt lat="53.0831710000" lon="-4.1232800000"><ele>601</ele><time>2016-10-15T12:29:30Z</time></trkpt>
<trkpt lat="53.0831680000" lon="-4.1232890000"><ele>601</ele><time>2016-10-15T12:29:31Z</time></trkpt>
<trkpt lat="53.0831640000" lon="-4.1233000000"><ele>601</ele><time>2016-10-15T12:29:32Z</time></trkpt>
<trkpt lat="53.0831610000" lon="-4.1233110000"><ele>601</ele><time>2016-10-15T12:29:33Z</time></trkpt>
<trkpt lat="53.0831570000" lon="-4.1233220000"><ele>600</ele><time>2016-10-15T12:29:34Z</time></trkpt>
<trkpt lat="53.0831540000" lon="-4.1233330000"><ele>600</ele><time>2016-10-15T12:29:35Z</time></trkpt>
<trkpt lat="53.0831500000" lon="-4.1233450000"><ele>600</ele><time>2016-10-15T12:29:36Z</time></trkpt>
<trkpt lat="53.0831460000" lon="-4.1233570000"><ele>600</ele><time>2016-10-15T12:29:37Z</time></trkpt>
<trkpt lat="53.0831420000" lon="-4.1233700000"><ele>599</ele><time>2016-10-15T12:29:38Z</time></trkpt>
<trkpt lat="53.0831380000" lon="-4.1233830000"><ele>599</ele><time>2016-10-15T12:29:39Z</time></trkpt>
<trkpt lat="53.0831340000" lon="-4.1233960000"><ele>599</ele><time>2016-10-15T12:29:40Z</time></trkpt>
<trkpt lat="53.0831300000" lon="-4.1234090000"><ele>599</ele><time>2016-10-15T12:29:41Z</time></trkpt>
<trkpt lat="53.0831260000" lon="-4.1234220000"><ele>598</ele><time>2016-10-15T12:29:42Z</time></trkpt>
<trkpt lat="53.0831220000" lon="-4.1234350000"><ele>598</ele><time>2016-10-15T12:29:43Z</time></trkpt>
<trkpt lat="53.0831170000" lon="-4.1234490000"><ele>598</ele><time>2016-10-15T12:29:44Z</time></trkpt>
<trkpt lat="53.0831130000" lon="-4.1234620000"><ele>598</ele><time>2016-10-15T12:29:45Z</time></trkpt>
<trkpt lat="53.0831090000" lon="-4.1234760000"><ele>597</ele><time>2016-10-15T12:29:46Z</time></trkpt>
<trkpt lat="53.0831040000" lon="-4.1234890000"><ele>597</ele><time>2016-10-15T12:29:47Z</time></trkpt>
<trkpt lat="53.0831000000" lon="-4.1235030000"><ele>597</ele><time>2016-10-15T12:29:48Z</time></trkpt>
<trkpt lat="53.0830950000" lon="-4.1235160000"><ele>597</ele><time>2016-10-15T12:29:49Z</time></trkpt>
<trkpt lat="53.0830900000" lon="-4.1235290000"><ele>597</ele><time>2016-10-15T12:29:50Z</time></trkpt>
<trkpt lat="53.0829950000" lon="-4.1237870000"><ele>596</ele><time>2016-10-15T12:29:51Z</time></trkpt>
<trkpt lat="53.0829870000" lon="-4.1238030000"><ele>596</ele><time>2016-10-15T12:29:52Z</time></trkpt>
<trkpt lat="53.0829790000" lon="-4.1238180000"><ele>596</ele><time>2016-10-15T12:29:53Z</time></trkpt>
<trkpt lat="53.0829720000" lon="-4.1238340000"><ele>596</ele><time>2016-10-15T12:29:54Z</time></trkpt>
<trkpt lat="53.0829620000" lon="-4.1238500000"><ele>595</ele><time>2016-10-15T12:29:55Z</time></trkpt>
<trkpt lat="53.0829550000" lon="-4.1238650000"><ele>595</ele><time>2016-10-15T12:29:56Z</time></trkpt>
<trkpt lat="53.0829470000" lon="-4.1238820000"><ele>595</ele><time>2016-10-15T12:29:57Z</time></trkpt>
<trkpt lat="53.0829370000" lon="-4.1238940000"><ele>595</ele><time>2016-10-15T12:29:58Z</time></trkpt>
<trkpt lat="53.0829280000" lon="-4.1239090000"><ele>595</ele><time>2016-10-15T12:29:59Z</time></trkpt>
<trkpt lat="53.0829170000" lon="-4.1239270000"><ele>594</ele><time>2016-10-15T12:30:00Z</time></trkpt>
<trkpt lat="53.0829070000" lon="-4.1239430000"><ele>594</ele><time>2016-10-15T12:30:01Z</time></trkpt>
<trkpt lat="53.0828980000" lon="-4.1239560000"><ele>594</ele><time>2016-10-15T12:30:02Z</time></trkpt>
<trkpt lat="53.0828900000" lon="-4.1239680000"><ele>594</ele><time>2016-10-15T12:30:03Z</time></trkpt>
<trkpt lat="53.0828820000" lon="-4.1239830000"><ele>594</ele><time>2016-10-15T12:30:04Z</time></trkpt>
<trkpt lat="53.0828750000" lon="-4.1239980000"><ele>593</ele><time>2016-10-15T12:30:05Z</time></trkpt>
<trkpt lat="53.0828680000" lon="-4.1240160000"><ele>593</ele><time>2016-10-15T12:30:06Z</time></trkpt>
<trkpt lat="53.0828610000" lon="-4.1240320000"><ele>593</ele><time>2016-10-15T12:30:07Z</time></trkpt>
<trkpt lat="53.0828540000" lon="-4.1240490000"><ele>593</ele><time>2016-10-15T12:30:08Z</time></trkpt>
<trkpt lat="53.0828470000" lon="-4.1240640000"><ele>592</ele><time>2016-10-15T12:30:09Z</time></trkpt>
<trkpt lat="53.0828390000" lon="-4.1240770000"><ele>592</ele><time>2016-10-15T12:30:10Z</time></trkpt>
<trkpt lat="53.0828320000" lon="-4.1240870000"><ele>592</ele><time>2016-10-15T12:30:11Z</time></trkpt>
<trkpt lat="53.0828220000" lon="-4.1240970000"><ele>592</ele><time>2016-10-15T12:30:12Z</time></trkpt>
<trkpt lat="53.0828130000" lon="-4.1241080000"><ele>591</ele><time>2016-10-15T12:30:13Z</time></trkpt>
<trkpt lat="53.0828130000" lon="-4.1241080000"><ele>591</ele><time>2016-10-15T12:30:14Z</time></trkpt>
<trkpt lat="53.0828130000" lon="-4.1241090000"><ele>591</ele><time>2016-10-15T12:30:15Z</time></trkpt>
<trkpt lat="53.0828130000" lon="-4.1241090000"><ele>590</ele><time>2016-10-15T12:30:16Z</time></trkpt>
<trkpt lat="53.0828120000" lon="-4.1241100000"><ele>590</ele><time>2016-10-15T12:30:18Z</time></trkpt>
<trkpt lat="53.0828120000" lon="-4.1241110000"><ele>590</ele></trkpt>
<trkpt lat="53.0828110000" lon="-4.1241120000"><ele>590</ele><time>2016-10-15T12:30:19Z</time></trkpt>
<trkpt lat="53.0828090000" lon="-4.1241140000"><ele>589</ele><time>2016-10-15T12:30:20Z</time></trkpt>
<trkpt lat="53.0828080000" lon="-4.1241170000"><ele>589</ele><time>2016-10-15T12:30:21Z</time></trkpt>
<trkpt lat="53.0828060000" lon="-4.1241200000"><ele>589</ele><time>2016-10-15T12:30:22Z</time></trkpt>
<trkpt lat="53.0828040000" lon="-4.1241240000"><ele>589</ele><time>2016-10-15T12:30:23Z</time></trkpt>
<trkpt lat="53.0828020000" lon="-4.1241280000"><ele>588</ele><time>2016-10-15T12:30:24Z</time></trkpt>
<trkpt lat="53.0827990000" lon="-4.1241330000"><ele>588</ele><time>2016-10-15T12:30:25Z</time></trkpt>
<trkpt lat="53.0827960000" lon="-4.1241380000"><ele>588</ele><time>2016-10-15T12:30:26Z</time></trkpt>
<trkpt lat="53.0827930000" lon="-4.1241450000"><ele>588</ele><time>2016-10-15T12:30:27Z</time></trkpt>
<trkpt lat="53.0827890000" lon="-4.1241520000"><ele>587</ele><time>2016-10-15T12:30:28Z</time></trkpt>
<trkpt lat="53.0827850000" lon="-4.1241590000"><ele>587</ele><time>2016-10-15T12:30:29Z</time></trkpt>
<trkpt lat="53.0826830000" lon="-4.1243600000"><ele>587</ele><time>2016-10-15T12:30:30Z</time></trkpt>
<trkpt lat="53.0826760000" lon="-4.1243770000"><ele>587</ele><time>2016-10-15T12:30:31Z</time></trkpt>
<trkpt lat="53.0826690000" lon="-4.1243930000"><ele>586</ele><time>2016-10-15T12:30:32Z</time></trkpt>
<trkpt lat="53.0826610000" lon="-4.1244050000"><ele>586</ele><time>2016-10-15T12:30:33Z</time></trkpt>
<trkpt lat="53.0826540000" lon="-4.1244180000"><ele>586</ele><time>2016-10-15T12:30:34Z</time></trkpt>
<trkpt lat="53.0826490000" lon="-4.1244320000"><ele>586</ele><time>2016-10-15T12:30:35Z</time></trkpt>
<trkpt lat="53.0826490000" lon="-4.1244320000"><ele>586</ele><time>2016-10-15T12:30:37Z</time></trkpt>
<trkpt lat="53.0826490000" lon="-4.1244320000"><ele>585</ele><time>2016-10-15T12:30:38Z</time></trkpt>
<trkpt lat="53.0826490000" lon="-4.1244320000"><ele>585</ele><time>2016-10-15T12:30:39Z</time></trkpt>
<trkpt lat="53.0826480000" lon="-4.1244320000"><ele>585</ele><time>2016-10-15T12:30:40Z</time></trkpt>
<trkpt lat="53.0826480000" lon="-4.1244330000"><ele>585</ele><time>2016-10-15T12:30:41Z</time></trkpt>
<trkpt lat="53.0826480000" lon="-4.1244330000"><ele>585</ele><time>2016-10-15T12:30:42Z</time></trkpt>
<trkpt lat="53.0826480000" lon="-4.1244330000"><ele>584</ele><time>2016-10-15T12:30:43Z</time></trkpt>
<trkpt lat="53.0826480000" lon="-4.1244330000"><ele>584</ele><time>2016-10-15T12:30:44Z</time></trkpt>
<trkpt lat="53.0826480000" lon="-4.1244330000"><ele>584</ele><time>2016-10-15T12:30:45Z</time></trkpt>
<trkpt lat="53.0826470000" lon="-4.1244340000"><ele>584</ele><time>2016-10-15T12:30:46Z</time></trkpt>
<trkpt lat="53.0826470000" lon="-4.1244340000"><ele>584</ele><time>2016-10-15T12:30:47Z</time></trkpt>
<trkpt lat="53.0826460000" lon="-4.1244350000"><ele>583</ele><time>2016-10-15T12:30:48Z</time></trkpt>
<trkpt lat="53.0826450000" lon="-4.1244360000"><ele>583</ele><time>2016-10-15T12:30:49Z</time></trkpt>
<trkpt lat="53.0826110000" lon="-4.1244950000"><ele>583</ele><time>2016-10-15T12:30:50Z</time></trkpt>
<trkpt lat="53.0826030000" lon="-4.1245110000"><ele>583</ele><time>2016-10-15T12:30:51Z</time></trkpt>
<trkpt lat="53.0825950000" lon="-4.1245290000"><ele>583</ele><time>2016-10-15T12:30:52Z</time></trkpt>
<trkpt lat="53.0825890000" lon="-4.1245450000"><ele>582</ele><time>2016-10-15T12:30:53Z</time></trkpt>
<trkpt lat="53.0825810000" lon="-4.1245610000"><ele>582</ele><time>2016-10-15T12:30:54Z</time></trkpt>
<trkpt lat="53.0825710000" lon="-4.1245770000"><ele>582</ele><time>2016-10-15T12:30:55Z</time></trkpt>
<trkpt lat="53.0825630000" lon="-4.1245920000"><ele>582</ele><time>2016-10-15T12:30:56Z</time></trkpt>
<trkpt lat="53.0825560000" lon="-4.1246110000"><ele>582</ele><time>2016-10-15T12:30:57Z</time></trkpt>
<trkpt lat="53.0825490000" lon="-4.1246310000"><ele>581</ele><time>2016-10-15T12:30:58Z</time></trkpt>
<trkpt lat="53.0825420000" lon="-4.1246490000"><ele>581</ele><time>2016-10-15T12:30:59Z</time></trkpt>
<trkpt lat="53.0825360000" lon="-4.1246670000"><ele>581</ele><time>2016-10-15T12:31:00Z</time></trkpt>
<trkpt lat="53.0825300000" lon="-4.1246900000"><ele>581</ele><time>2016-10-15T12:31:01Z</time></trkpt>
<trkpt lat="53.0825250000" lon="-4.1247110000"><ele>581</ele><time>2016-10-15T12:31:02Z</time></trkpt>
<trkpt lat="53.0825190000" lon="-4.1247300000"><ele>580</ele><time>2016-10-15T12:31:03Z</time></trkpt>
<trkpt lat="53.0825120000" lon="-4.1247490000"><ele>580</ele><time>2016-10-15T12:31:04Z</time></trkpt>
<trkpt lat="53.0825080000" lon="-4.1247690000"><ele>580</ele><time>2016-10-15T12:31:05Z</time></trkpt>
<trkpt lat="53.0825050000" lon="-4.1247880000"><ele>580</ele><time>2016-10-15T12:31:06Z</time></trkpt>
<trkpt lat="53.0825000000" lon="-4.1248070000"><ele>580</ele><time>2016-10-15T12:31:07Z</time></trkpt>
<trkpt lat="53.0824910000" lon="-4.1248270000"><ele>579</ele><time>2016-10-15T12:31:08Z</time></trkpt>
<trkpt lat="53.0824840000" lon="-4.1248470000"><ele>579</ele><time>2016-10-15T12:31:09Z</time></trkpt>
<trkpt lat="53.0824790000" lon="-4.1248670000"><ele>579</ele><time>2016-10-15T12:31:10Z</time></trkpt>
<trkpt lat="53.0824730000" lon="-4.1248880000"><ele>579</ele><time>2016-10-15T12:31:11Z</time></trkpt>
<trkpt lat="53.0824650000" lon="-4.1249100000"><ele>579</ele><time>2016-10-15T12:31:12Z</time></trkpt>
<trkpt lat="53.0824590000" lon="-4.1249280000"><ele>579</ele><time>2016-10-15T12:31:13Z</time></trkpt>
<trkpt lat="53.0824530000" lon="-4.1249420000"><ele>579</ele><time>2016-10-15T12:31:14Z</time></trkpt>
<trkpt lat="53.0824450000" lon="-4.1249560000"><ele>578</ele><time>2016-10-15T12:31:15Z</time></trkpt>
<trkpt lat="53.0824380000" lon="-4.1249720000"><ele>578</ele><time>2016-10-15T12:31:16Z</time></trkpt>
<trkpt lat="53.0824330000" lon="-4.1249890000"><ele>578</ele><time>2016-10-15T12:31:18Z</time></trkpt>
<trkpt lat="53.0824260000" lon="-4.1250080000"><ele>578</ele></trkpt>
<trkpt lat="53.0824170000" lon="-4.1250260000"><ele>578</ele><time>2016-10-15T12:31:19Z</time></trkpt>
<trkpt lat="53.0824090000" lon="-4.1250430000"><ele>578</ele><time>2016-10-15T12:31:20Z</time></trkpt>
<trkpt lat="53.0824000000" lon="-4.1250610000"><ele>578</ele><time>2016-10-15T12:31:21Z</time></trkpt>
<trkpt lat="53.0823930000" lon="-4.1250790000"><ele>577</ele><time>2016-10-15T12:31:22Z</time></trkpt>
<trkpt lat="53.0823860000" lon="-4.1250960000"><ele>577</ele><time>2016-10-15T12:31:23Z</time></trkpt>
<trkpt lat="53.0823780000" lon="-4.1251140000"><ele>577</ele><time>2016-10-15T12:31:24Z</time></trkpt>
<trkpt lat="53.0823670000" lon="-4.1251340000"><ele>577</ele><time>2016-10-15T12:31:25Z</time></trkpt>
<trkpt lat="53.0823600000" lon="-4.1251520000"><ele>577</ele><time>2016-10-15T12:31:26Z</time></trkpt>
<trkpt lat="53.0823520000" lon="-4.1251710000"><ele>576</ele><time>2016-10-15T12:31:27Z</time></trkpt>
<trkpt lat="53.0823440000" lon="-4.1251900000"><ele>576</ele><time>2016-10-15T12:31:28Z</time></trkpt>
<trkpt lat="53.0823350000" lon="-4.1252100000"><ele>576</ele><time>2016-10-15T12:31:29Z</time></trkpt>
<trkpt lat="53.0823260000" lon="-4.1252280000"><ele>576</ele><time>2016-10-15T12:31:30Z</time></trkpt>
<trkpt lat="53.0823170000" lon="-4.1252460000"><ele>576</ele><time>2016-10-15T12:31:31Z</time></trkpt>
<trkpt lat="53.0823080000" lon="-4.1252630000"><ele>575</ele><time>2016-10-15T12:31:32Z</time></trkpt>
<trkpt lat="53.0822990000" lon="-4.1252830000"><ele>575</ele><time>2016-10-15T12:31:33Z</time></trkpt>
<trkpt lat="53.0822900000" lon="-4.1253040000"><ele>575</ele><time>2016-10-15T12:31:34Z</time></trkpt>
<trkpt lat="53.0822800000" lon="-4.1253240000"><ele>575</ele><time>2016-10-15T12:31:35Z</time></trkpt>
<trkpt lat="53.0822710000" lon="-4.1253430000"><ele>575</ele><time>2016-10-15T12:31:36Z</time></trkpt>
<trkpt lat="53.0822630000" lon="-4.1253610000"><ele>574</ele><time>2016-10-15T12:31:37Z</time></trkpt>
<trkpt lat="53.0822540000" lon="-4.1253780000"><ele>574</ele><time>2016-10-15T12:31:38Z</time></trkpt>
<trkpt lat="53.0822440000" lon="-4.1253970000"><ele>574</ele><time>2016-10-15T12:31:39Z</time></trkpt>
<trkpt lat="53.0822340000" lon="-4.1254140000"><ele>574</ele><time>2016-10-15T12:31:40Z</time></trkpt>
<trkpt lat="53.0822250000" lon="-4.1254290000"><ele>574</ele><time>2016-10-15T12:31:41Z</time></trkpt>
<trkpt lat="53.0822170000" lon="-4.1254450000"><ele>574</ele><time>2016-10-15T12:31:42Z</time></trkpt>
<trkpt lat="53.0822080000" lon="-4.1254620000"><ele>573</ele><time>2016-10-15T12:31:43Z</time></trkpt>
<trkpt lat="53.0821990000" lon="-4.1254810000"><ele>573</ele><time>2016-10-15T12:31:44Z</time></trkpt>
<trkpt lat="53.0821900000" lon="-4.1254990000"><ele>573</ele><time>2016-10-15T12:31:45Z</time></trkpt>
<trkpt lat="53.0821800000" lon="-4.1255170000"><ele>573</ele><time>2016-10-15T12:31:46Z</time></trkpt>
<trkpt lat="53.0821720000" lon="-4.1255330000"><ele>573</ele><time>2016-10-15T12:31:47Z</time></trkpt>
<trkpt lat="53.0821640000" lon="-4.1255500000"><ele>573</ele><time>2016-10-15T12:31:48Z</time></trkpt>
<trkpt lat="53.0821540000" lon="-4.1255700000"><ele>572</ele><time>2016-10-15T12:31:49Z</time></trkpt>
<trkpt lat="53.0821450000" lon="-4.1255880000"><ele>572</ele><time>2016-10-15T12:31:50Z</time></trkpt>
<trkpt lat="53.0821360000" lon="-4.1256040000"><ele>572</ele><time>2016-10-15T12:31:51Z</time></trkpt>
<trkpt lat="53.0821280000" lon="-4.1256220000"><ele>572</ele><time>2016-10-15T12:31:52Z</time></trkpt>
<trkpt lat="53.0821200000" lon="-4.1256420000"><ele>572</ele><time>2016-10-15T12:31:53Z</time></trkpt>
<trkpt lat="53.0821120000" lon="-4.1256580000"><ele>572</ele><time>2016-10-15T12:31:54Z</time></trkpt>
<trkpt lat="53.0821040000" lon="-4.1256700000"><ele>572</ele><time>2016-10-15T12:31:55Z</time></trkpt>
<trkpt lat="53.0820960000" lon="-4.1256850000"><ele>572</ele><time>2016-10-15T12:31:56Z</time></trkpt>
<trkpt lat="53.0820890000" lon="-4.1257010000"><ele>572</ele><time>2016-10-15T12:31:57Z</time></trkpt>
<trkpt lat="53.0820810000" lon="-4.1257200000"><ele>572</ele><time>2016-10-15T12:31:58Z</time></trkpt>
<trkpt lat="53.0820720000" lon="-4.1257380000"><ele>571</ele><time>2016-10-15T12:31:59Z</time></trkpt>
<trkpt lat="53.0820630000" lon="-4.1257540000"><ele>571</ele><time>2016-10-15T12:32:00Z</time></trkpt>
<trkpt lat="53.0820550000" lon="-4.1257690000"><ele>571</ele><time>2016-10-15T12:32:01Z</time></trkpt>
<trkpt lat="53.0820470000" lon="-4.1257840000"><ele>571</ele><time>2016-10-15T12:32:02Z</time></trkpt>
<trkpt lat="53.0820390000" lon="-4.1258000000"><ele>571</ele><time>2016-10-15T12:32:03Z</time></trkpt>
<trkpt lat="53.0820310000" lon="-4.1258150000"><ele>571</ele><time>2016-10-15T12:32:04Z</time></trkpt>
<trkpt lat="53.0820220000" lon="-4.1258320000"><ele>571</ele><time>2016-10-15T12:32:05Z</time></trkpt>
<trkpt lat="53.0820140000" lon="-4.1258500000"><ele>571</ele><time>2016-10-15T12:32:06Z</time></trkpt>
<trkpt lat="53.0820070000" lon="-4.1258670000"><ele>571</ele><time>2016-10-15T12:32:07Z</time></trkpt>
<trkpt lat="53.0819990000" lon="-4.1258840000"><ele>571</ele><time>2016-10-15T12:32:08Z</time></trkpt>
<trkpt lat="53.0819900000" lon="-4.1259010000"><ele>571</ele><time>2016-10-15T12:32:09Z</time></trkpt>
<trkpt lat="53.0819830000" lon="-4.1259140000"><ele>571</ele><time>2016-10-15T12:32:10Z</time></trkpt>
<trkpt lat="53.0819750000" lon="-4.1259260000"><ele>571</ele><time>2016-10-15T12:32:11Z</time></trkpt>
<trkpt lat="53.0819670000" lon="-4.1259410000"><ele>571</ele><time>2016-10-15T12:32:12Z</time></trkpt>
<trkpt lat="53.0819580000" lon="-4.1259560000"><ele>571</ele><time>2016-10-15T12:32:13Z</time></trkpt>
<trkpt lat="53.0819490000" lon="-4.1259700000"><ele>571</ele><time>2016-10-15T12:32:14Z</time></trkpt>
<trkpt lat="53.0819410000" lon="-4.1259830000"><ele>571</ele><time>2016-10-15T12:32:15Z</time></trkpt>
<trkpt lat="53.0819340000" lon="-4.1259970000"><ele>571</ele><time>2016-10-15T12:32:16Z</time></trkpt>
<trkpt lat="53.0819290000" lon="-4.1260120000"><ele>571</ele><time>2016-10-15T12:32:18Z</time></trkpt>
<trkpt lat="53.0819230000" lon="-4.1260270000"><ele>571</ele></trkpt>
<trkpt lat="53.0819230000" lon="-4.1260270000"><ele>571</ele><time>2016-10-15T12:32:19Z</time></trkpt>
<trkpt lat="53.0819230000" lon="-4.1260270000"><ele>571</ele><time>2016-10-15T12:32:20Z</time></trkpt>
<trkpt lat="53.0819230000" lon="-4.1260280000"><ele>571</ele><time>2016-10-15T12:32:21Z</time></trkpt>
<trkpt lat="53.0819220000" lon="-4.1260290000"><ele>571</ele><time>2016-10-15T12:32:22Z</time></trkpt>
<trkpt lat="53.0819220000" lon="-4.1260300000"><ele>571</ele><time>2016-10-15T12:32:23Z</time></trkpt>
<trkpt lat="53.0819210000" lon="-4.1260320000"><ele>571</ele><time>2016-10-15T12:32:24Z</time></trkpt>
<trkpt lat="53.0818730000" lon="-4.1261490000"><ele>571</ele><time>2016-10-15T12:32:25Z</time></trkpt>
<trkpt lat="53.0818650000" lon="-4.1261670000"><ele>571</ele><time>2016-10-15T12:32:26Z</time></trkpt>
<trkpt lat="53.0818580000" lon="-4.1261860000"><ele>571</ele><time>2016-10-15T12:32:27Z</time></trkpt>
<trkpt lat="53.0818520000" lon="-4.1262050000"><ele>571</ele><time>2016-10-15T12:32:28Z</time></trkpt>
<trkpt lat="53.0818460000" lon="-4.1262230000"><ele>571</ele><time>2016-10-15T12:32:29Z</time></trkpt>
<trkpt lat="53.0818390000" lon="-4.1262410000"><ele>571</ele><time>2016-10-15T12:32:30Z</time></trkpt>
<trkpt lat="53.0818320000" lon="-4.1262600000"><ele>571</ele><time>2016-10-15T12:32:31Z</time></trkpt>
<trkpt lat="53.0818250000" lon="-4.1262780000"><ele>571</ele><time>2016-10-15T12:32:32Z</time></trkpt>
<trkpt lat="53.0818180000" lon="-4.1262970000"><ele>571</ele><time>2016-10-15T12:32:33Z</time></trkpt>
<trkpt lat="53.0818120000" lon="-4.1263140000"><ele>571</ele><time>2016-10-15T12:32:34Z</time></trkpt>
<trkpt lat="53.0818030000" lon="-4.1263310000"><ele>571</ele><time>2016-10-15T12:32:35Z</time></trkpt>
<trkpt lat="53.0817900000" lon="-4.1263500000"><ele>571</ele><time>2016-10-15T12:32:36Z</time></trkpt>
<trkpt lat="53.0817810000" lon="-4.1263690000"><ele>571</ele><time>2016-10-15T12:32:37Z</time></trkpt>
<trkpt lat="53.0817640000" lon="-4.1264070000"><ele>571</ele><time>2016-10-15T12:32:39Z</time></trkpt>
<trkpt lat="53.0817570000" lon="-4.1264280000"><ele>571</ele><time>2016-10-15T12:32:40Z</time></trkpt>
<trkpt lat="53.0817500000" lon="-4.1264490000"><ele>571</ele><time>2016-10-15T12:32:41Z</time></trkpt>
<trkpt lat="53.0817430000" lon="-4.1264680000"><ele>571</ele><time>2016-10-15T12:32:42Z</time></trkpt>
<trkpt lat="53.0817360000" lon="-4.1264870000"><ele>571</ele><time>2016-10-15T12:32:43Z</time></trkpt>
<trkpt lat="53.0817300000" lon="-4.1265020000"><ele>571</ele><time>2016-10-15T12:32:44Z</time></trkpt>
<trkpt lat="53.0817230000" lon="-4.1265190000"><ele>571</ele><time>2016-10-15T12:32:45Z</time></trkpt>
<trkpt lat="53.0817170000" lon="-4.1265360000"><ele>571</ele><time>2016-10-15T12:32:46Z</time></trkpt>
<trkpt lat="53.0817120000" lon="-4.1265520000"><ele>571</ele><time>2016-10-15T12:32:47Z</time></trkpt>
<trkpt lat="53.0817070000" lon="-4.1265700000"><ele>571</ele><time>2016-10-15T12:32:48Z</time></trkpt>
<trkpt lat="53.0817070000" lon="-4.1265700000"><ele>571</ele><time>2016-10-15T12:32:49Z</time></trkpt>
<trkpt lat="53.0817070000" lon="-4.1265700000"><ele>571</ele><time>2016-10-15T12:32:50Z</time></trkpt>
<trkpt lat="53.0817070000" lon="-4.1265710000"><ele>571</ele><time>2016-10-15T12:32:51Z</time></trkpt>
<trkpt lat="53.0817070000" lon="-4.1265720000"><ele>571</ele><time>2016-10-15T12:32:52Z</time></trkpt>
<trkpt lat="53.0817070000" lon="-4.1265730000"><ele>571</ele><time>2016-10-15T12:32:53Z</time></trkpt>
<trkpt lat="53.0816860000" lon="-4.1266810000"><ele>571</ele><time>2016-10-15T12:32:54Z</time></trkpt>
<trkpt lat="53.0816830000" lon="-4.1267020000"><ele>571</ele><time>2016-10-15T12:32:55Z</time></trkpt>
<trkpt lat="53.0816800000" lon="-4.1267200000"><ele>570</ele><time>2016-10-15T12:32:56Z</time></trkpt>
<trkpt lat="53.0816800000" lon="-4.1267360000"><ele>570</ele><time>2016-10-15T12:32:57Z</time></trkpt>
<trkpt lat="53.0816800000" lon="-4.1267560000"><ele>570</ele><time>2016-10-15T12:32:58Z</time></trkpt>
<trkpt lat="53.0816810000" lon="-4.1267750000"><ele>570</ele><time>2016-10-15T12:32:59Z</time></trkpt>
<trkpt lat="53.0816840000" lon="-4.1267960000"><ele>570</ele><time>2016-10-15T12:33:00Z</time></trkpt>
<trkpt lat="53.0816880000" lon="-4.1268200000"><ele>569</ele><time>2016-10-15T12:33:01Z</time></trkpt>
<trkpt lat="53.0816930000" lon="-4.1268430000"><ele>569</ele><time>2016-10-15T12:33:02Z</time></trkpt>
<trkpt lat="53.0816970000" lon="-4.1268640000"><ele>569</ele><time>2016-10-15T12:33:03Z</time></trkpt>
<trkpt lat="53.0817010000" lon="-4.1268840000"><ele>569</ele><time>2016-10-15T12:33:04Z</time></trkpt>
<trkpt lat="53.0817010000" lon="-4.1269060000"><ele>568</ele><time>2016-10-15T12:33:05Z</time></trkpt>
<trkpt lat="53.0817000000" lon="-4.1269320000"><ele>568</ele><time>2016-10-15T12:33:06Z</time></trkpt>
<trkpt lat="53.0816990000" lon="-4.1269540000"><ele>568</ele><time>2016-10-15T12:33:07Z</time></trkpt>
<trkpt lat="53.0816990000" lon="-4.1269740000"><ele>568</ele><time>2016-10-15T12:33:08Z</time></trkpt>
<trkpt lat="53.0817030000" lon="-4.1269940000"><ele>568</ele><time>2016-10-15T12:33:09Z</time></trkpt>
<trkpt lat="53.0817050000" lon="-4.1270150000"><ele>568</ele><time>2016-10-15T12:33:10Z</time></trkpt>
<trkpt lat="53.0817050000" lon="-4.1270380000"><ele>567</ele><time>2016-10-15T12:33:11Z</time></trkpt>
<trkpt lat="53.0817060000" lon="-4.1270580000"><ele>567</ele><time>2016-10-15T12:33:12Z</time></trkpt>
<trkpt lat="53.0817070000" lon="-4.1270760000"><ele>567</ele><time>2016-10-15T12:33:13Z</time></trkpt>
<trkpt lat="53.0817070000" lon="-4.1270950000"><ele>567</ele><time>2016-10-15T12:33:14Z</time></trkpt>
<trkpt lat="53.0817070000" lon="-4.1270960000"><ele>567</ele><time>2016-10-15T12:33:15Z</time></trkpt>
<trkpt lat="53.0817070000" lon="-4.1270960000"><ele>567</ele><time>2016-10-15T12:33:16Z</time></trkpt>
<trkpt lat="53.0817070000" lon="-4.1270970000"><ele>566</ele><time>2016-10-15T12:33:18Z</time></trkpt>
<trkpt lat="53.0817070000" lon="-4.1270980000"><ele>566</ele></trkpt>
<trkpt lat="53.0817070000" lon="-4.1270990000"><ele>566</ele><time>2016-10-15T12:33:19Z</time></trkpt>
<trkpt lat="53.0817070000" lon="-4.1271010000"><ele>566</ele><time>2016-10-15T12:33:20Z</time></trkpt>
<trkpt lat="53.0817060000" lon="-4.1271030000"><ele>566</ele><time>2016-10-15T12:33:21Z</time></trkpt>
<trkpt lat="53.0816900000" lon="-4.1272400000"><ele>566</ele><time>2016-10-15T12:33:22Z</time></trkpt>
<trkpt lat="53.0816870000" lon="-4.1272600000"><ele>565</ele><time>2016-10-15T12:33:23Z</time></trkpt>
<trkpt lat="53.0816860000" lon="-4.1272780000"><ele>565</ele><time>2016-10-15T12:33:24Z</time></trkpt>
<trkpt lat="53.0816850000" lon="-4.1272940000"><ele>565</ele><time>2016-10-15T12:33:25Z</time></trkpt>
<trkpt lat="53.0816860000" lon="-4.1273100000"><ele>565</ele><time>2016-10-15T12:33:26Z</time></trkpt>
<trkpt lat="53.0816860000" lon="-4.1273280000"><ele>565</ele><time>2016-10-15T12:33:27Z</time></trkpt>
<trkpt lat="53.0816870000" lon="-4.1273440000"><ele>564</ele><time>2016-10-15T12:33:28Z</time></trkpt>
<trkpt lat="53.0816880000" lon="-4.1273610000"><ele>564</ele><time>2016-10-15T12:33:29Z</time></trkpt>
<trkpt lat="53.0816880000" lon="-4.1273610000"><ele>564</ele><time>2016-10-15T12:33:30Z</time></trkpt>
<trkpt lat="53.0816880000" lon="-4.1273610000"><ele>564</ele><time>2016-10-15T12:33:31Z</time></trkpt>
<trkpt lat="53.0816880000" lon="-4.1273620000"><ele>563</ele><time>2016-10-15T12:33:32Z</time></trkpt>
<trkpt lat="53.0816880000" lon="-4.1273630000"><ele>563</ele><time>2016-10-15T12:33:33Z</time></trkpt>
<trkpt lat="53.0816880000" lon="-4.1273640000"><ele>563</ele><time>2016-10-15T12:33:34Z</time></trkpt>
<trkpt lat="53.0816880000" lon="-4.1273660000"><ele>562</ele><time>2016-10-15T12:33:35Z</time></trkpt>
<trkpt lat="53.0816880000" lon="-4.1273680000"><ele>562</ele><time>2016-10-15T12:33:36Z</time></trkpt>
<trkpt lat="53.0816880000" lon="-4.1273710000"><ele>562</ele><time>2016-10-15T12:33:37Z</time></trkpt>
<trkpt lat="53.0816880000" lon="-4.1273750000"><ele>561</ele><time>2016-10-15T12:33:38Z</time></trkpt>
<trkpt lat="53.0816870000" lon="-4.1273800000"><ele>561</ele><time>2016-10-15T12:33:39Z</time></trkpt>
<trkpt lat="53.0816870000" lon="-4.1273850000"><ele>561</ele><time>2016-10-15T12:33:40Z</time></trkpt>
<trkpt lat="53.0816870000" lon="-4.1273900000"><ele>561</ele><time>2016-10-15T12:33:41Z</time></trkpt>
<trkpt lat="53.0816860000" lon="-4.1273970000"><ele>560</ele><time>2016-10-15T12:33:42Z</time></trkpt>
<trkpt lat="53.0816860000" lon="-4.1274040000"><ele>560</ele><time>2016-10-15T12:33:43Z</time></trkpt>
<trkpt lat="53.0816850000" lon="-4.1274120000"><ele>560</ele><time>2016-10-15T12:33:44Z</time></trkpt>
<trkpt lat="53.0816850000" lon="-4.1274200000"><ele>560</ele><time>2016-10-15T12:33:45Z</time></trkpt>
<trkpt lat="53.0816840000" lon="-4.1274290000"><ele>559</ele><time>2016-10-15T12:33:46Z</time></trkpt>
<trkpt lat="53.0816840000" lon="-4.1274380000"><ele>559</ele><time>2016-10-15T12:33:47Z</time></trkpt>
<trkpt lat="53.0816840000" lon="-4.1274480000"><ele>559</ele><time>2016-10-15T12:33:48Z</time></trkpt>
<trkpt lat="53.0816830000" lon="-4.1274580000"><ele>558</ele><time>2016-10-15T12:33:49Z</time></trkpt>
<trkpt lat="53.0816830000" lon="-4.1274690000"><ele>558</ele><time>2016-10-15T12:33:50Z</time></trkpt>
<trkpt lat="53.0816830000" lon="-4.1274810000"><ele>558</ele><time>2016-10-15T12:33:51Z</time></trkpt>
<trkpt lat="53.0816820000" lon="-4.1274930000"><ele>558</ele><time>2016-10-15T12:33:52Z</time></trkpt>
<trkpt lat="53.0816810000" lon="-4.1275030000"><ele>557</ele><time>2016-10-15T12:33:53Z</time></trkpt>
<trkpt lat="53.0816800000" lon="-4.1275160000"><ele>557</ele><time>2016-10-15T12:33:54Z</time></trkpt>
<trkpt lat="53.0816790000" lon="-4.1275290000"><ele>557</ele><time>2016-10-15T12:33:55Z</time></trkpt>
<trkpt lat="53.0816780000" lon="-4.1275420000"><ele>557</ele><time>2016-10-15T12:33:56Z</time></trkpt>
<trkpt lat="53.0816760000" lon="-4.1275550000"><ele>556</ele><time>2016-10-15T12:33:57Z</time></trkpt>
<trkpt lat="53.0816750000" lon="-4.1275690000"><ele>556</ele><time>2016-10-15T12:33:58Z</time></trkpt>
<trkpt lat="53.0816730000" lon="-4.1275830000"><ele>556</ele><time>2016-10-15T12:33:59Z</time></trkpt>
<trkpt lat="53.0816710000" lon="-4.1275970000"><ele>556</ele><time>2016-10-15T12:34:00Z</time></trkpt>
<trkpt lat="53.0816680000" lon="-4.1276110000"><ele>555</ele><time>2016-10-15T12:34:01Z</time></trkpt>
<trkpt lat="53.0816660000" lon="-4.1276250000"><ele>555</ele><time>2016-10-15T12:34:02Z</time></trkpt>
<trkpt lat="53.0816630000" lon="-4.1276400000"><ele>555</ele><time>2016-10-15T12:34:03Z</time></trkpt>
<trkpt lat="53.0816610000" lon="-4.1276550000"><ele>555</ele><time>2016-10-15T12:34:04Z</time></trkpt>
<trkpt lat="53.0816580000" lon="-4.1276690000"><ele>555</ele><time>2016-10-15T12:34:05Z</time></trkpt>
<trkpt lat="53.0816540000" lon="-4.1276840000"><ele>554</ele><time>2016-10-15T12:34:06Z</time></trkpt>
<trkpt lat="53.0816510000" lon="-4.1276980000"><ele>554</ele><time>2016-10-15T12:34:07Z</time></trkpt>
<trkpt lat="53.0816470000" lon="-4.1277120000"><ele>554</ele><time>2016-10-15T12:34:08Z</time></trkpt>
<trkpt lat="53.0815690000" lon="-4.1279960000"><ele>554</ele><time>2016-10-15T12:34:09Z</time></trkpt>
<trkpt lat="53.0815590000" lon="-4.1280100000"><ele>554</ele><time>2016-10-15T12:34:10Z</time></trkpt>
<trkpt lat="53.0815500000" lon="-4.1280240000"><ele>554</ele><time>2016-10-15T12:34:11Z</time></trkpt>
<trkpt lat="53.0815430000" lon="-4.1280370000"><ele>553</ele><time>2016-10-15T12:34:12Z</time></trkpt>
<trkpt lat="53.0815370000" lon="-4.1280480000"><ele>553</ele><time>2016-10-15T12:34:13Z</time></trkpt>
<trkpt lat="53.0815370000" lon="-4.1280480000"><ele>553</ele><time>2016-10-15T12:34:15Z</time></trkpt>
<trkpt lat="53.0815370000" lon="-4.1280490000"><ele>552</ele><time>2016-10-15T12:34:16Z</time></trkpt>
<trkpt lat="53.0815360000" lon="-4.1280500000"><ele>552</ele><time>2016-10-15T12:34:18Z</time></trkpt>
<trkpt lat="53.0815360000" lon="-4.1280510000"><ele>552</ele></trkpt>
<trkpt lat="53.0815360000" lon="-4.1280520000"><ele>552</ele><time>2016-10-15T12:34:19Z</time></trkpt>
<trkpt lat="53.0815350000" lon="-4.1280540000"><ele>551</ele><time>2016-10-15T12:34:20Z</time></trkpt>
<trkpt lat="53.0815350000" lon="-4.1280560000"><ele>551</ele><time>2016-10-15T12:34:21Z</time></trkpt>
<trkpt lat="53.0815340000" lon="-4.1280590000"><ele>551</ele><time>2016-10-15T12:34:22Z</time></trkpt>
<trkpt lat="53.0815340000" lon="-4.1280630000"><ele>551</ele><time>2016-10-15T12:34:23Z</time></trkpt>
<trkpt lat="53.0815330000" lon="-4.1280670000"><ele>550</ele><time>2016-10-15T12:34:24Z</time></trkpt>
<trkpt lat="53.0815320000" lon="-4.1280720000"><ele>550</ele><time>2016-10-15T12:34:25Z</time></trkpt>
<trkpt lat="53.0815320000" lon="-4.1280770000"><ele>550</ele><time>2016-10-15T12:34:26Z</time></trkpt>
<trkpt lat="53.0815310000" lon="-4.1280830000"><ele>549</ele><time>2016-10-15T12:34:27Z</time></trkpt>
<trkpt lat="53.0815300000" lon="-4.1280900000"><ele>549</ele><time>2016-10-15T12:34:28Z</time></trkpt>
<trkpt lat="53.0815300000" lon="-4.1280970000"><ele>549</ele><time>2016-10-15T12:34:29Z</time></trkpt>
<trkpt lat="53.0815290000" lon="-4.1281050000"><ele>549</ele><time>2016-10-15T12:34:30Z</time></trkpt>
<trkpt lat="53.0815290000" lon="-4.1281130000"><ele>548</ele><time>2016-10-15T12:34:31Z</time></trkpt>
<trkpt lat="53.0815280000" lon="-4.1281220000"><ele>548</ele><time>2016-10-15T12:34:32Z</time></trkpt>
<trkpt lat="53.0815280000" lon="-4.1281310000"><ele>548</ele><time>2016-10-15T12:34:33Z</time></trkpt>
<trkpt lat="53.0815280000" lon="-4.1281400000"><ele>547</ele><time>2016-10-15T12:34:34Z</time></trkpt>
<trkpt lat="53.0815280000" lon="-4.1281500000"><ele>547</ele><time>2016-10-15T12:34:35Z</time></trkpt>
<trkpt lat="53.0815280000" lon="-4.1281600000"><ele>547</ele><time>2016-10-15T12:34:36Z</time></trkpt>
<trkpt lat="53.0815280000" lon="-4.1281710000"><ele>547</ele><time>2016-10-15T12:34:37Z</time></trkpt>
<trkpt lat="53.0815270000" lon="-4.1281820000"><ele>546</ele><time>2016-10-15T12:34:38Z</time></trkpt>
<trkpt lat="53.0815270000" lon="-4.1281930000"><ele>546</ele><time>2016-10-15T12:34:39Z</time></trkpt>
<trkpt lat="53.0815270000" lon="-4.1282050000"><ele>546</ele><time>2016-10-15T12:34:40Z</time></trkpt>
<trkpt lat="53.0815260000" lon="-4.1282170000"><ele>545</ele><time>2016-10-15T12:34:41Z</time></trkpt>
<trkpt lat="53.0815260000" lon="-4.1282290000"><ele>545</ele><time>2016-10-15T12:34:42Z</time></trkpt>
<trkpt lat="53.0815260000" lon="-4.1282410000"><ele>545</ele><time>2016-10-15T12:34:43Z</time></trkpt>
<trkpt lat="53.0815250000" lon="-4.1282540000"><ele>544</ele><time>2016-10-15T12:34:44Z</time></trkpt>
<trkpt lat="53.0815250000" lon="-4.1282670000"><ele>544</ele><time>2016-10-15T12:34:45Z</time></trkpt>
<trkpt lat="53.0815250000" lon="-4.1282800000"><ele>544</ele><time>2016-10-15T12:34:46Z</time></trkpt>
<trkpt lat="53.0815240000" lon="-4.1282940000"><ele>544</ele><time>2016-10-15T12:34:47Z</time></trkpt>
<trkpt lat="53.0815240000" lon="-4.1283070000"><ele>543</ele><time>2016-10-15T12:34:48Z</time></trkpt>
<trkpt lat="53.0815230000" lon="-4.1283210000"><ele>543</ele><time>2016-10-15T12:34:49Z</time></trkpt>
<trkpt lat="53.0815230000" lon="-4.1283340000"><ele>543</ele><time>2016-10-15T12:34:50Z</time></trkpt>
<trkpt lat="53.0815220000" lon="-4.1283480000"><ele>542</ele><time>2016-10-15T12:34:51Z</time></trkpt>
<trkpt lat="53.0815220000" lon="-4.1283620000"><ele>542</ele><time>2016-10-15T12:34:52Z</time></trkpt>
<trkpt lat="53.0815210000" lon="-4.1283760000"><ele>542</ele><time>2016-10-15T12:34:53Z</time></trkpt>
<trkpt lat="53.0815210000" lon="-4.1283900000"><ele>542</ele><time>2016-10-15T12:34:54Z</time></trkpt>
<trkpt lat="53.0815200000" lon="-4.1284040000"><ele>541</ele><time>2016-10-15T12:34:55Z</time></trkpt>
<trkpt lat="53.0815190000" lon="-4.1284180000"><ele>541</ele><time>2016-10-15T12:34:56Z</time></trkpt>
<trkpt lat="53.0815190000" lon="-4.1284310000"><ele>541</ele><time>2016-10-15T12:34:57Z</time></trkpt>
<trkpt lat="53.0815180000" lon="-4.1284450000"><ele>540</ele><time>2016-10-15T12:34:58Z</time></trkpt>
<trkpt lat="53.0815170000" lon="-4.1284600000"><ele>540</ele><time>2016-10-15T12:34:59Z</time></trkpt>
<trkpt lat="53.0815170000" lon="-4.1284740000"><ele>540</ele><time>2016-10-15T12:35:00Z</time></trkpt>
<trkpt lat="53.0815160000" lon="-4.1284880000"><ele>540</ele><time>2016-10-15T12:35:01Z</time></trkpt>
<trkpt lat="53.0815150000" lon="-4.1285020000"><ele>539</ele><time>2016-10-15T12:35:02Z</time></trkpt>
<trkpt lat="53.0815150000" lon="-4.1285160000"><ele>539</ele><time>2016-10-15T12:35:03Z</time></trkpt>
<trkpt lat="53.0815140000" lon="-4.1285310000"><ele>539</ele><time>2016-10-15T12:35:04Z</time></trkpt>
<trkpt lat="53.0815140000" lon="-4.1285450000"><ele>538</ele><time>2016-10-15T12:35:05Z</time></trkpt>
<trkpt lat="53.0815130000" lon="-4.1285590000"><ele>538</ele><time>2016-10-15T12:35:06Z</time></trkpt>
<trkpt lat="53.0815120000" lon="-4.1285730000"><ele>537</ele><time>2016-10-15T12:35:07Z</time></trkpt>
<trkpt lat="53.0815120000" lon="-4.1285870000"><ele>537</ele><time>2016-10-15T12:35:08Z</time></trkpt>
<trkpt lat="53.0815110000" lon="-4.1286010000"><ele>537</ele><time>2016-10-15T12:35:09Z</time></trkpt>
<trkpt lat="53.0815100000" lon="-4.1286150000"><ele>536</ele><time>2016-10-15T12:35:10Z</time></trkpt>
<trkpt lat="53.0815100000" lon="-4.1286290000"><ele>536</ele><time>2016-10-15T12:35:11Z</time></trkpt>
<trkpt lat="53.0815090000" lon="-4.1286440000"><ele>536</ele><time>2016-10-15T12:35:12Z</time></trkpt>
<trkpt lat="53.0815090000" lon="-4.1286590000"><ele>535</ele><time>2016-10-15T12:35:13Z</time></trkpt>
<trkpt lat="53.0815090000" lon="-4.1286740000"><ele>535</ele><time>2016-10-15T12:35:14Z</time></trkpt>
<trkpt lat="53.0815090000" lon="-4.1286880000"><ele>535</ele><time>2016-10-15T12:35:15Z</time></trkpt>
<trkpt lat="53.0815090000" lon="-4.1287030000"><ele>534</ele><time>2016-10-15T12:35:16Z</time></trkpt>
<trkpt lat="53.0815090000" lon="-4.1287180000"><ele>534</ele><time>2016-10-15T12:35:18Z</time></trkpt>
<trkpt lat="53.0815090000" lon="-4.1287330000"><ele>534</ele></trkpt>
<trkpt lat="53.0815090000" lon="-4.1287470000"><ele>534</ele><time>2016-10-15T12:35:19Z</time></trkpt>
<trkpt lat="53.0815100000" lon="-4.1287620000"><ele>533</ele><time>2016-10-15T12:35:20Z</time></trkpt>
<trkpt lat="53.0815100000" lon="-4.1287770000"><ele>533</ele><time>2016-10-15T12:35:21Z</time></trkpt>
<trkpt lat="53.0815100000" lon="-4.1287920000"><ele>533</ele><time>2016-10-15T12:35:22Z</time></trkpt>
<trkpt lat="53.0815100000" lon="-4.1288060000"><ele>533</ele><time>2016-10-15T12:35:23Z</time></trkpt>
<trkpt lat="53.0815100000" lon="-4.1288210000"><ele>532</ele><time>2016-10-15T12:35:24Z</time></trkpt>
<trkpt lat="53.0815100000" lon="-4.1288360000"><ele>532</ele><time>2016-10-15T12:35:25Z</time></trkpt>
<trkpt lat="53.0815100000" lon="-4.1288520000"><ele>532</ele><time>2016-10-15T12:35:26Z</time></trkpt>
<trkpt lat="53.0815100000" lon="-4.1288670000"><ele>532</ele><time>2016-10-15T12:35:27Z</time></trkpt>
<trkpt lat="53.0815100000" lon="-4.1288820000"><ele>531</ele><time>2016-10-15T12:35:28Z</time></trkpt>
<trkpt lat="53.0815110000" lon="-4.1288980000"><ele>531</ele><time>2016-10-15T12:35:29Z</time></trkpt>
<trkpt lat="53.0815110000" lon="-4.1289140000"><ele>531</ele><time>2016-10-15T12:35:30Z</time></trkpt>
<trkpt lat="53.0815110000" lon="-4.1289300000"><ele>531</ele><time>2016-10-15T12:35:31Z</time></trkpt>
<trkpt lat="53.0815170000" lon="-4.1292350000"><ele>530</ele><time>2016-10-15T12:35:32Z</time></trkpt>
<trkpt lat="53.0815170000" lon="-4.1292520000"><ele>530</ele><time>2016-10-15T12:35:33Z</time></trkpt>
<trkpt lat="53.0815190000" lon="-4.1292670000"><ele>530</ele><time>2016-10-15T12:35:34Z</time></trkpt>
<trkpt lat="53.0815220000" lon="-4.1292830000"><ele>530</ele><time>2016-10-15T12:35:35Z</time></trkpt>
<trkpt lat="53.0815220000" lon="-4.1292830000"><ele>529</ele><time>2016-10-15T12:35:36Z</time></trkpt>
<trkpt lat="53.0815220000" lon="-4.1292840000"><ele>529</ele><time>2016-10-15T12:35:37Z</time></trkpt>
<trkpt lat="53.0815290000" lon="-4.1293430000"><ele>529</ele><time>2016-10-15T12:35:38Z</time></trkpt>
<trkpt lat="53.0815290000" lon="-4.1293600000"><ele>529</ele><time>2016-10-15T12:35:39Z</time></trkpt>
<trkpt lat="53.0815260000" lon="-4.1293770000"><ele>528</ele><time>2016-10-15T12:35:40Z</time></trkpt>
<trkpt lat="53.0815240000" lon="-4.1293960000"><ele>528</ele><time>2016-10-15T12:35:41Z</time></trkpt>
<trkpt lat="53.0815240000" lon="-4.1293960000"><ele>528</ele><time>2016-10-15T12:35:42Z</time></trkpt>
<trkpt lat="53.0815160000" lon="-4.1294350000"><ele>528</ele><time>2016-10-15T12:35:43Z</time></trkpt>
<trkpt lat="53.0815130000" lon="-4.1294510000"><ele>527</ele><time>2016-10-15T12:35:44Z</time></trkpt>
<trkpt lat="53.0815090000" lon="-4.1294670000"><ele>527</ele><time>2016-10-15T12:35:45Z</time></trkpt>
<trkpt lat="53.0815070000" lon="-4.1294790000"><ele>527</ele><time>2016-10-15T12:35:46Z</time></trkpt>
<trkpt lat="53.0815070000" lon="-4.1294790000"><ele>526</ele><time>2016-10-15T12:35:47Z</time></trkpt>
<trkpt lat="53.0815070000" lon="-4.1294790000"><ele>526</ele><time>2016-10-15T12:35:48Z</time></trkpt>
<trkpt lat="53.0815070000" lon="-4.1294790000"><ele>526</ele><time>2016-10-15T12:35:49Z</time></trkpt>
<trkpt lat="53.0815070000" lon="-4.1294800000"><ele>526</ele><time>2016-10-15T12:35:50Z</time></trkpt>
<trkpt lat="53.0815070000" lon="-4.1294820000"><ele>525</ele><time>2016-10-15T12:35:51Z</time></trkpt>
<trkpt lat="53.0815060000" lon="-4.1294830000"><ele>525</ele><time>2016-10-15T12:35:52Z</time></trkpt>
<trkpt lat="53.0815060000" lon="-4.1294860000"><ele>525</ele><time>2016-10-15T12:35:53Z</time></trkpt>
<trkpt lat="53.0815060000" lon="-4.1294890000"><ele>524</ele><time>2016-10-15T12:35:54Z</time></trkpt>
<trkpt lat="53.0815050000" lon="-4.1294920000"><ele>524</ele><time>2016-10-15T12:35:55Z</time></trkpt>
<trkpt lat="53.0815050000" lon="-4.1294960000"><ele>524</ele><time>2016-10-15T12:35:56Z</time></trkpt>
<trkpt lat="53.0815040000" lon="-4.1295010000"><ele>523</ele><time>2016-10-15T12:35:57Z</time></trkpt>
<trkpt lat="53.0815040000" lon="-4.1295060000"><ele>523</ele><time>2016-10-15T12:35:58Z</time></trkpt>
<trkpt lat="53.0815030000" lon="-4.1295120000"><ele>523</ele><time>2016-10-15T12:35:59Z</time></trkpt>
<trkpt lat="53.0815030000" lon="-4.1295180000"><ele>522</ele><time>2016-10-15T12:36:00Z</time></trkpt>
<trkpt lat="53.0815020000" lon="-4.1295250000"><ele>522</ele><time>2016-10-15T12:36:01Z</time></trkpt>
<trkpt lat="53.0815020000" lon="-4.1295330000"><ele>521</ele><time>2016-10-15T12:36:02Z</time></trkpt>
<trkpt lat="53.0815010000" lon="-4.1295410000"><ele>521</ele><time>2016-10-15T12:36:03Z</time></trkpt>
<trkpt lat="53.0815010000" lon="-4.1295490000"><ele>521</ele><time>2016-10-15T12:36:04Z</time></trkpt>
<trkpt lat="53.0815000000" lon="-4.1295580000"><ele>520</ele><time>2016-10-15T12:36:05Z</time></trkpt>
<trkpt lat="53.0815000000" lon="-4.1295670000"><ele>520</ele><time>2016-10-15T12:36:06Z</time></trkpt>
<trkpt lat="53.0814990000" lon="-4.1295770000"><ele>519</ele><time>2016-10-15T12:36:07Z</time></trkpt>
<trkpt lat="53.0814990000" lon="-4.1295870000"><ele>519</ele><time>2016-10-15T12:36:08Z</time></trkpt>
<trkpt lat="53.0814990000" lon="-4.1295970000"><ele>519</ele><time>2016-10-15T12:36:09Z</time></trkpt>
<trkpt lat="53.0814990000" lon="-4.1296080000"><ele>518</ele><time>2016-10-15T12:36:10Z</time></trkpt>
<trkpt lat="53.0814990000" lon="-4.1296190000"><ele>518</ele><time>2016-10-15T12:36:11Z</time></trkpt>
<trkpt lat="53.0814980000" lon="-4.1296310000"><ele>517</ele><time>2016-10-15T12:36:12Z</time></trkpt>
<trkpt lat="53.0814980000" lon="-4.1296430000"><ele>517</ele><time>2016-10-15T12:36:13Z</time></trkpt>
<trkpt lat="53.0814980000" lon="-4.1296560000"><ele>517</ele><time>2016-10-15T12:36:14Z</time></trkpt>
<trkpt lat="53.0814980000" lon="-4.1296690000"><ele>516</ele><time>2016-10-15T12:36:15Z</time></trkpt>
<trkpt lat="53.0814980000" lon="-4.1296820000"><ele>516</ele><time>2016-10-15T12:36:16Z</time></trkpt>
<trkpt lat="53.0814970000" lon="-4.1296950000"><ele>516</ele><time>2016-10-15T12:36:18Z</time></trkpt>
<trkpt lat="53.0814970000" lon="-4.1297080000"><ele>516</ele></trkpt>
<trkpt lat="53.0814970000" lon="-4.1297210000"><ele>515</ele><time>2016-10-15T12:36:19Z</time></trkpt>
<trkpt lat="53.0814970000" lon="-4.1297350000"><ele>515</ele><time>2016-10-15T12:36:20Z</time></trkpt>
<trkpt lat="53.0814960000" lon="-4.1297480000"><ele>515</ele><time>2016-10-15T12:36:21Z</time></trkpt>
<trkpt lat="53.0814960000" lon="-4.1297620000"><ele>515</ele><time>2016-10-15T12:36:22Z</time></trkpt>
<trkpt lat="53.0814950000" lon="-4.1297750000"><ele>514</ele><time>2016-10-15T12:36:23Z</time></trkpt>
<trkpt lat="53.0814950000" lon="-4.1297890000"><ele>514</ele><time>2016-10-15T12:36:24Z</time></trkpt>
<trkpt lat="53.0814940000" lon="-4.1298030000"><ele>514</ele><time>2016-10-15T12:36:25Z</time></trkpt>
<trkpt lat="53.0814930000" lon="-4.1298170000"><ele>514</ele><time>2016-10-15T12:36:26Z</time></trkpt>
<trkpt lat="53.0814920000" lon="-4.1298310000"><ele>514</ele><time>2016-10-15T12:36:27Z</time></trkpt>
<trkpt lat="53.0814920000" lon="-4.1298450000"><ele>513</ele><time>2016-10-15T12:36:28Z</time></trkpt>
<trkpt lat="53.0814900000" lon="-4.1298590000"><ele>513</ele><time>2016-10-15T12:36:29Z</time></trkpt>
<trkpt lat="53.0814890000" lon="-4.1298730000"><ele>513</ele><time>2016-10-15T12:36:30Z</time></trkpt>
<trkpt lat="53.0814880000" lon="-4.1298870000"><ele>513</ele><time>2016-10-15T12:36:31Z</time></trkpt>
<trkpt lat="53.0814870000" lon="-4.1299010000"><ele>513</ele><time>2016-10-15T12:36:32Z</time></trkpt>
<trkpt lat="53.0814850000" lon="-4.1299160000"><ele>513</ele><time>2016-10-15T12:36:33Z</time></trkpt>
<trkpt lat="53.0814840000" lon="-4.1299300000"><ele>513</ele><time>2016-10-15T12:36:34Z</time></trkpt>
<trkpt lat="53.0814820000" lon="-4.1299450000"><ele>512</ele><time>2016-10-15T12:36:35Z</time></trkpt>
<trkpt lat="53.0814800000" lon="-4.1299600000"><ele>512</ele><time>2016-10-15T12:36:36Z</time></trkpt>
<trkpt lat="53.0814790000" lon="-4.1299750000"><ele>512</ele><time>2016-10-15T12:36:37Z</time></trkpt>
<trkpt lat="53.0814770000" lon="-4.1299910000"><ele>512</ele><time>2016-10-15T12:36:38Z</time></trkpt>
<trkpt lat="53.0814360000" lon="-4.1302870000"><ele>512</ele><time>2016-10-15T12:36:39Z</time></trkpt>
<trkpt lat="53.0814280000" lon="-4.1303060000"><ele>512</ele><time>2016-10-15T12:36:40Z</time></trkpt>
<trkpt lat="53.0814230000" lon="-4.1303230000"><ele>511</ele><time>2016-10-15T12:36:41Z</time></trkpt>
<trkpt lat="53.0814170000" lon="-4.1303420000"><ele>511</ele><time>2016-10-15T12:36:42Z</time></trkpt>
<trkpt lat="53.0814110000" lon="-4.1303620000"><ele>511</ele><time>2016-10-15T12:36:43Z</time></trkpt>
<trkpt lat="53.0814060000" lon="-4.1303850000"><ele>511</ele><time>2016-10-15T12:36:44Z</time></trkpt>
<trkpt lat="53.0813990000" lon="-4.1304020000"><ele>511</ele><time>2016-10-15T12:36:45Z</time></trkpt>
<trkpt lat="53.0813920000" lon="-4.1304190000"><ele>510</ele><time>2016-10-15T12:36:46Z</time></trkpt>
<trkpt lat="53.0813850000" lon="-4.1304360000"><ele>510</ele><time>2016-10-15T12:36:47Z</time></trkpt>
<trkpt lat="53.0813770000" lon="-4.1304560000"><ele>510</ele><time>2016-10-15T12:36:48Z</time></trkpt>
<trkpt lat="53.0813710000" lon="-4.1304750000"><ele>510</ele><time>2016-10-15T12:36:49Z</time></trkpt>
<trkpt lat="53.0813660000" lon="-4.1304970000"><ele>509</ele><time>2016-10-15T12:36:50Z</time></trkpt>
<trkpt lat="53.0813620000" lon="-4.1305150000"><ele>509</ele><time>2016-10-15T12:36:51Z</time></trkpt>
<trkpt lat="53.0813570000" lon="-4.1305300000"><ele>509</ele><time>2016-10-15T12:36:52Z</time></trkpt>
<trkpt lat="53.0813500000" lon="-4.1305440000"><ele>509</ele><time>2016-10-15T12:36:53Z</time></trkpt>
<trkpt lat="53.0813450000" lon="-4.1305590000"><ele>509</ele><time>2016-10-15T12:36:54Z</time></trkpt>
<trkpt lat="53.0813450000" lon="-4.1305590000"><ele>508</ele><time>2016-10-15T12:36:55Z</time></trkpt>
<trkpt lat="53.0813450000" lon="-4.1305590000"><ele>508</ele><time>2016-10-15T12:36:56Z</time></trkpt>
<trkpt lat="53.0813300000" lon="-4.1306240000"><ele>508</ele><time>2016-10-15T12:36:57Z</time></trkpt>
<trkpt lat="53.0813300000" lon="-4.1306500000"><ele>508</ele><time>2016-10-15T12:36:58Z</time></trkpt>
<trkpt lat="53.0813300000" lon="-4.1306720000"><ele>507</ele><time>2016-10-15T12:36:59Z</time></trkpt>
<trkpt lat="53.0813270000" lon="-4.1306940000"><ele>507</ele><time>2016-10-15T12:37:00Z</time></trkpt>
<trkpt lat="53.0813230000" lon="-4.1307160000"><ele>507</ele><time>2016-10-15T12:37:01Z</time></trkpt>
<trkpt lat="53.0813210000" lon="-4.1307350000"><ele>507</ele><time>2016-10-15T12:37:02Z</time></trkpt>
<trkpt lat="53.0813180000" lon="-4.1307530000"><ele>506</ele><time>2016-10-15T12:37:03Z</time></trkpt>
<trkpt lat="53.0813170000" lon="-4.1307750000"><ele>506</ele><time>2016-10-15T12:37:04Z</time></trkpt>
<trkpt lat="53.0813170000" lon="-4.1307950000"><ele>506</ele><time>2016-10-15T12:37:05Z</time></trkpt>
<trkpt lat="53.0813140000" lon="-4.1308140000"><ele>506</ele><time>2016-10-15T12:37:06Z</time></trkpt>
<trkpt lat="53.0813120000" lon="-4.1308330000"><ele>505</ele><time>2016-10-15T12:37:07Z</time></trkpt>
<trkpt lat="53.0813120000" lon="-4.1308330000"><ele>505</ele><time>2016-10-15T12:37:08Z</time></trkpt>
<trkpt lat="53.0813120000" lon="-4.1308330000"><ele>505</ele><time>2016-10-15T12:37:09Z</time></trkpt>
<trkpt lat="53.0813100000" lon="-4.1308970000"><ele>504</ele><time>2016-10-15T12:37:10Z</time></trkpt>
<trkpt lat="53.0813080000" lon="-4.1309230000"><ele>504</ele><time>2016-10-15T12:37:11Z</time></trkpt>
<trkpt lat="53.0813070000" lon="-4.1309460000"><ele>504</ele><time>2016-10-15T12:37:12Z</time></trkpt>
<trkpt lat="53.0813050000" lon="-4.1309650000"><ele>503</ele><time>2016-10-15T12:37:13Z</time></trkpt>
<trkpt lat="53.0813040000" lon="-4.1309840000"><ele>503</ele><time>2016-10-15T12:37:14Z</time></trkpt>
<trkpt lat="53.0813020000" lon="-4.1310030000"><ele>503</ele><time>2016-10-15T12:37:15Z</time></trkpt>
<trkpt lat="53.0813010000" lon="-4.1310220000"><ele>502</ele><time>2016-10-15T12:37:16Z</time></trkpt>
<trkpt lat="53.0812980000" lon="-4.1310450000"><ele>502</ele><time>2016-10-15T12:37:18Z</time></trkpt>
<trkpt lat="53.0812940000" lon="-4.1310650000"><ele>502</ele></trkpt>
<trkpt lat="53.0812900000" lon="-4.1310810000"><ele>502</ele><time>2016-10-15T12:37:19Z</time></trkpt>
<trkpt lat="53.0812860000" lon="-4.1310980000"><ele>501</ele><time>2016-10-15T12:37:20Z</time></trkpt>
<trkpt lat="53.0812830000" lon="-4.1311170000"><ele>501</ele><time>2016-10-15T12:37:21Z</time></trkpt>
<trkpt lat="53.0812820000" lon="-4.1311340000"><ele>501</ele><time>2016-10-15T12:37:22Z</time></trkpt>
<trkpt lat="53.0812810000" lon="-4.1311540000"><ele>501</ele><time>2016-10-15T12:37:23Z</time></trkpt>
<trkpt lat="53.0812810000" lon="-4.1311550000"><ele>500</ele><time>2016-10-15T12:37:24Z</time></trkpt>
<trkpt lat="53.0812810000" lon="-4.1311550000"><ele>500</ele><time>2016-10-15T12:37:25Z</time></trkpt>
<trkpt lat="53.0812810000" lon="-4.1311560000"><ele>500</ele><time>2016-10-15T12:37:26Z</time></trkpt>
<trkpt lat="53.0812810000" lon="-4.1311570000"><ele>500</ele><time>2016-10-15T12:37:27Z</time></trkpt>
<trkpt lat="53.0812810000" lon="-4.1311580000"><ele>500</ele><time>2016-10-15T12:37:28Z</time></trkpt>
<trkpt lat="53.0812800000" lon="-4.1311600000"><ele>499</ele><time>2016-10-15T12:37:29Z</time></trkpt>
<trkpt lat="53.0812800000" lon="-4.1311630000"><ele>499</ele><time>2016-10-15T12:37:30Z</time></trkpt>
<trkpt lat="53.0812790000" lon="-4.1311660000"><ele>499</ele><time>2016-10-15T12:37:31Z</time></trkpt>
<trkpt lat="53.0812790000" lon="-4.1311710000"><ele>499</ele><time>2016-10-15T12:37:32Z</time></trkpt>
<trkpt lat="53.0812780000" lon="-4.1311750000"><ele>499</ele><time>2016-10-15T12:37:33Z</time></trkpt>
<trkpt lat="53.0812770000" lon="-4.1311810000"><ele>499</ele><time>2016-10-15T12:37:34Z</time></trkpt>
<trkpt lat="53.0812760000" lon="-4.1311870000"><ele>498</ele><time>2016-10-15T12:37:35Z</time></trkpt>
<trkpt lat="53.0812760000" lon="-4.1311950000"><ele>498</ele><time>2016-10-15T12:37:36Z</time></trkpt>
<trkpt lat="53.0812750000" lon="-4.1312020000"><ele>498</ele><time>2016-10-15T12:37:37Z</time></trkpt>
<trkpt lat="53.0812740000" lon="-4.1312110000"><ele>498</ele><time>2016-10-15T12:37:38Z</time></trkpt>
<trkpt lat="53.0812730000" lon="-4.1312210000"><ele>498</ele><time>2016-10-15T12:37:39Z</time></trkpt>
<trkpt lat="53.0812730000" lon="-4.1312310000"><ele>497</ele><time>2016-10-15T12:37:40Z</time></trkpt>
<trkpt lat="53.0812720000" lon="-4.1312410000"><ele>497</ele><time>2016-10-15T12:37:41Z</time></trkpt>
<trkpt lat="53.0812720000" lon="-4.1312520000"><ele>497</ele><time>2016-10-15T12:37:42Z</time></trkpt>
<trkpt lat="53.0812710000" lon="-4.1312640000"><ele>497</ele><time>2016-10-15T12:37:43Z</time></trkpt>
<trkpt lat="53.0812700000" lon="-4.1312750000"><ele>497</ele><time>2016-10-15T12:37:44Z</time></trkpt>
<trkpt lat="53.0812690000" lon="-4.1312870000"><ele>496</ele><time>2016-10-15T12:37:45Z</time></trkpt>
<trkpt lat="53.0812670000" lon="-4.1313000000"><ele>496</ele><time>2016-10-15T12:37:46Z</time></trkpt>
<trkpt lat="53.0812660000" lon="-4.1313120000"><ele>496</ele><time>2016-10-15T12:37:47Z</time></trkpt>
<trkpt lat="53.0812640000" lon="-4.1313240000"><ele>496</ele><time>2016-10-15T12:37:48Z</time></trkpt>
<trkpt lat="53.0812620000" lon="-4.1313370000"><ele>495</ele><time>2016-10-15T12:37:49Z</time></trkpt>
<trkpt lat="53.0812590000" lon="-4.1313500000"><ele>495</ele><time>2016-10-15T12:37:50Z</time></trkpt>
<trkpt lat="53.0812560000" lon="-4.1313630000"><ele>495</ele><time>2016-10-15T12:37:51Z</time></trkpt>
<trkpt lat="53.0812530000" lon="-4.1313760000"><ele>495</ele><time>2016-10-15T12:37:52Z</time></trkpt>
<trkpt lat="53.0812500000" lon="-4.1313900000"><ele>494</ele><time>2016-10-15T12:37:53Z</time></trkpt>
<trkpt lat="53.0812460000" lon="-4.1314030000"><ele>494</ele><time>2016-10-15T12:37:54Z</time></trkpt>
<trkpt lat="53.0812430000" lon="-4.1314170000"><ele>494</ele><time>2016-10-15T12:37:55Z</time></trkpt>
<trkpt lat="53.0812390000" lon="-4.1314310000"><ele>493</ele><time>2016-10-15T12:37:56Z</time></trkpt>
<trkpt lat="53.0812350000" lon="-4.1314450000"><ele>493</ele><time>2016-10-15T12:37:57Z</time></trkpt>
<trkpt lat="53.0811570000" lon="-4.1317220000"><ele>493</ele><time>2016-10-15T12:37:58Z</time></trkpt>
<trkpt lat="53.0811530000" lon="-4.1317380000"><ele>492</ele><time>2016-10-15T12:37:59Z</time></trkpt>
<trkpt lat="53.0811480000" lon="-4.1317540000"><ele>492</ele><time>2016-10-15T12:38:00Z</time></trkpt>
<trkpt lat="53.0811450000" lon="-4.1317720000"><ele>492</ele><time>2016-10-15T12:38:01Z</time></trkpt>
<trkpt lat="53.0811450000" lon="-4.1317720000"><ele>492</ele><time>2016-10-15T12:38:02Z</time></trkpt>
<trkpt lat="53.0811450000" lon="-4.1317720000"><ele>491</ele><time>2016-10-15T12:38:03Z</time></trkpt>
<trkpt lat="53.0811440000" lon="-4.1317730000"><ele>491</ele><time>2016-10-15T12:38:04Z</time></trkpt>
<trkpt lat="53.0811440000" lon="-4.1317740000"><ele>491</ele><time>2016-10-15T12:38:05Z</time></trkpt>
<trkpt lat="53.0811440000" lon="-4.1317750000"><ele>491</ele><time>2016-10-15T12:38:06Z</time></trkpt>
<trkpt lat="53.0811430000" lon="-4.1317770000"><ele>490</ele><time>2016-10-15T12:38:07Z</time></trkpt>
<trkpt lat="53.0811430000" lon="-4.1317800000"><ele>490</ele><time>2016-10-15T12:38:08Z</time></trkpt>
<trkpt lat="53.0811420000" lon="-4.1317830000"><ele>490</ele><time>2016-10-15T12:38:09Z</time></trkpt>
<trkpt lat="53.0811410000" lon="-4.1317870000"><ele>489</ele><time>2016-10-15T12:38:10Z</time></trkpt>
<trkpt lat="53.0811400000" lon="-4.1317910000"><ele>489</ele><time>2016-10-15T12:38:11Z</time></trkpt>
<trkpt lat="53.0811380000" lon="-4.1317960000"><ele>489</ele><time>2016-10-15T12:38:12Z</time></trkpt>
<trkpt lat="53.0811360000" lon="-4.1318020000"><ele>488</ele><time>2016-10-15T12:38:13Z</time></trkpt>
<trkpt lat="53.0811340000" lon="-4.1318070000"><ele>488</ele><time>2016-10-15T12:38:14Z</time></trkpt>
<trkpt lat="53.0811310000" lon="-4.1318140000"><ele>488</ele><time>2016-10-15T12:38:15Z</time></trkpt>
<trkpt lat="53.0811280000" lon="-4.1318200000"><ele>488</ele><time>2016-10-15T12:38:16Z</time></trkpt>
<trkpt lat="53.0811250000" lon="-4.1318270000"><ele>487</ele><time>2016-10-15T12:38:18Z</time></trkpt>
<trkpt lat="53.0811210000" lon="-4.1318340000"><ele>487</ele></trkpt>
<trkpt lat="53.0811170000" lon="-4.1318420000"><ele>487</ele><time>2016-10-15T12:38:19Z</time></trkpt>
<trkpt lat="53.0811130000" lon="-4.1318500000"><ele>487</ele><time>2016-10-15T12:38:20Z</time></trkpt>
<trkpt lat="53.0811080000" lon="-4.1318580000"><ele>486</ele><time>2016-10-15T12:38:21Z</time></trkpt>
<trkpt lat="53.0811030000" lon="-4.1318660000"><ele>486</ele><time>2016-10-15T12:38:22Z</time></trkpt>
<trkpt lat="53.0810980000" lon="-4.1318750000"><ele>486</ele><time>2016-10-15T12:38:23Z</time></trkpt>
<trkpt lat="53.0810930000" lon="-4.1318840000"><ele>486</ele><time>2016-10-15T12:38:24Z</time></trkpt>
<trkpt lat="53.0810880000" lon="-4.1318940000"><ele>486</ele><time>2016-10-15T12:38:25Z</time></trkpt>
<trkpt lat="53.0810840000" lon="-4.1319040000"><ele>485</ele><time>2016-10-15T12:38:26Z</time></trkpt>
<trkpt lat="53.0810790000" lon="-4.1319150000"><ele>485</ele><time>2016-10-15T12:38:27Z</time></trkpt>
<trkpt lat="53.0810740000" lon="-4.1319260000"><ele>485</ele><time>2016-10-15T12:38:28Z</time></trkpt>
<trkpt lat="53.0810690000" lon="-4.1319380000"><ele>485</ele><time>2016-10-15T12:38:29Z</time></trkpt>
<trkpt lat="53.0810640000" lon="-4.1319500000"><ele>485</ele><time>2016-10-15T12:38:30Z</time></trkpt>
<trkpt lat="53.0810590000" lon="-4.1319620000"><ele>484</ele><time>2016-10-15T12:38:31Z</time></trkpt>
<trkpt lat="53.0810550000" lon="-4.1319750000"><ele>484</ele><time>2016-10-15T12:38:32Z</time></trkpt>
<trkpt lat="53.0810500000" lon="-4.1319890000"><ele>484</ele><time>2016-10-15T12:38:33Z</time></trkpt>
<trkpt lat="53.0810460000" lon="-4.1320020000"><ele>484</ele><time>2016-10-15T12:38:34Z</time></trkpt>
<trkpt lat="53.0810420000" lon="-4.1320160000"><ele>484</ele><time>2016-10-15T12:38:35Z</time></trkpt>
<trkpt lat="53.0810370000" lon="-4.1320300000"><ele>484</ele><time>2016-10-15T12:38:36Z</time></trkpt>
<trkpt lat="53.0810330000" lon="-4.1320440000"><ele>483</ele><time>2016-10-15T12:38:37Z</time></trkpt>
<trkpt lat="53.0809480000" lon="-4.1323030000"><ele>483</ele><time>2016-10-15T12:38:38Z</time></trkpt>
<trkpt lat="53.0809400000" lon="-4.1323170000"><ele>483</ele><time>2016-10-15T12:38:39Z</time></trkpt>
<trkpt lat="53.0809330000" lon="-4.1323340000"><ele>483</ele><time>2016-10-15T12:38:40Z</time></trkpt>
<trkpt lat="53.0809270000" lon="-4.1323450000"><ele>483</ele><time>2016-10-15T12:38:41Z</time></trkpt>
<trkpt lat="53.0809260000" lon="-4.1323450000"><ele>482</ele><time>2016-10-15T12:38:43Z</time></trkpt>
<trkpt lat="53.0809260000" lon="-4.1323450000"><ele>482</ele><time>2016-10-15T12:38:44Z</time></trkpt>
<trkpt lat="53.0809260000" lon="-4.1323460000"><ele>482</ele><time>2016-10-15T12:38:45Z</time></trkpt>
<trkpt lat="53.0809250000" lon="-4.1323460000"><ele>482</ele><time>2016-10-15T12:38:46Z</time></trkpt>
<trkpt lat="53.0809240000" lon="-4.1323470000"><ele>482</ele><time>2016-10-15T12:38:47Z</time></trkpt>
<trkpt lat="53.0809230000" lon="-4.1323480000"><ele>481</ele><time>2016-10-15T12:38:48Z</time></trkpt>
<trkpt lat="53.0809220000" lon="-4.1323490000"><ele>481</ele><time>2016-10-15T12:38:49Z</time></trkpt>
<trkpt lat="53.0809200000" lon="-4.1323510000"><ele>481</ele><time>2016-10-15T12:38:50Z</time></trkpt>
<trkpt lat="53.0809190000" lon="-4.1323530000"><ele>481</ele><time>2016-10-15T12:38:51Z</time></trkpt>
<trkpt lat="53.0809160000" lon="-4.1323560000"><ele>480</ele><time>2016-10-15T12:38:52Z</time></trkpt>
<trkpt lat="53.0809140000" lon="-4.1323590000"><ele>480</ele><time>2016-10-15T12:38:53Z</time></trkpt>
<trkpt lat="53.0809120000" lon="-4.1323640000"><ele>480</ele><time>2016-10-15T12:38:54Z</time></trkpt>
<trkpt lat="53.0809090000" lon="-4.1323690000"><ele>480</ele><time>2016-10-15T12:38:55Z</time></trkpt>
<trkpt lat="53.0809060000" lon="-4.1323740000"><ele>479</ele><time>2016-10-15T12:38:56Z</time></trkpt>
<trkpt lat="53.0809030000" lon="-4.1323800000"><ele>479</ele><time>2016-10-15T12:38:57Z</time></trkpt>
<trkpt lat="53.0808990000" lon="-4.1323870000"><ele>479</ele><time>2016-10-15T12:38:58Z</time></trkpt>
<trkpt lat="53.0808960000" lon="-4.1323940000"><ele>479</ele><time>2016-10-15T12:38:59Z</time></trkpt>
<trkpt lat="53.0808930000" lon="-4.1324020000"><ele>478</ele><time>2016-10-15T12:39:00Z</time></trkpt>
<trkpt lat="53.0808890000" lon="-4.1324100000"><ele>478</ele><time>2016-10-15T12:39:01Z</time></trkpt>
<trkpt lat="53.0808850000" lon="-4.1324190000"><ele>478</ele><time>2016-10-15T12:39:02Z</time></trkpt>
<trkpt lat="53.0808810000" lon="-4.1324290000"><ele>478</ele><time>2016-10-15T12:39:03Z</time></trkpt>
<trkpt lat="53.0808760000" lon="-4.1324390000"><ele>478</ele><time>2016-10-15T12:39:04Z</time></trkpt>
<trkpt lat="53.0808720000" lon="-4.1324490000"><ele>477</ele><time>2016-10-15T12:39:05Z</time></trkpt>
<trkpt lat="53.0808680000" lon="-4.1324600000"><ele>477</ele><time>2016-10-15T12:39:06Z</time></trkpt>
<trkpt lat="53.0808630000" lon="-4.1324720000"><ele>477</ele><time>2016-10-15T12:39:07Z</time></trkpt>
<trkpt lat="53.0808590000" lon="-4.1324840000"><ele>477</ele><time>2016-10-15T12:39:08Z</time></trkpt>
<trkpt lat="53.0808540000" lon="-4.1324960000"><ele>477</ele><time>2016-10-15T12:39:09Z</time></trkpt>
<trkpt lat="53.0808490000" lon="-4.1325090000"><ele>477</ele><time>2016-10-15T12:39:10Z</time></trkpt>
<trkpt lat="53.0808430000" lon="-4.1325220000"><ele>476</ele><time>2016-10-15T12:39:11Z</time></trkpt>
<trkpt lat="53.0808390000" lon="-4.1325350000"><ele>476</ele><time>2016-10-15T12:39:12Z</time></trkpt>
<trkpt lat="53.0808340000" lon="-4.1325480000"><ele>476</ele><time>2016-10-15T12:39:13Z</time></trkpt>
<trkpt lat="53.0808300000" lon="-4.1325610000"><ele>476</ele><time>2016-10-15T12:39:14Z</time></trkpt>
<trkpt lat="53.0808250000" lon="-4.1325740000"><ele>476</ele><time>2016-10-15T12:39:15Z</time></trkpt>
<trkpt lat="53.0808220000" lon="-4.1325850000"><ele>476</ele><time>2016-10-15T12:39:16Z</time></trkpt>
<trkpt lat="53.0808180000" lon="-4.1325970000"><ele>475</ele><time>2016-10-15T12:39:18Z</time></trkpt>
<trkpt lat="53.0808150000" lon="-4.1326090000"><ele>475</ele></trkpt>
<trkpt lat="53.0808120000" lon="-4.1326200000"><ele>475</ele><time>2016-10-15T12:39:19Z</time></trkpt>
<trkpt lat="53.0808090000" lon="-4.1326310000"><ele>475</ele><time>2016-10-15T12:39:20Z</time></trkpt>
<trkpt lat="53.0808060000" lon="-4.1326420000"><ele>475</ele><time>2016-10-15T12:39:21Z</time></trkpt>
<trkpt lat="53.0808040000" lon="-4.1326530000"><ele>474</ele><time>2016-10-15T12:39:22Z</time></trkpt>
<trkpt lat="53.0808020000" lon="-4.1326630000"><ele>474</ele><time>2016-10-15T12:39:23Z</time></trkpt>
<trkpt lat="53.0808010000" lon="-4.1326730000"><ele>474</ele><time>2016-10-15T12:39:24Z</time></trkpt>
<trkpt lat="53.0808000000" lon="-4.1326840000"><ele>474</ele><time>2016-10-15T12:39:25Z</time></trkpt>
<trkpt lat="53.0807990000" lon="-4.1326940000"><ele>474</ele><time>2016-10-15T12:39:26Z</time></trkpt>
<trkpt lat="53.0807990000" lon="-4.1327030000"><ele>473</ele><time>2016-10-15T12:39:27Z</time></trkpt>
<trkpt lat="53.0808000000" lon="-4.1327120000"><ele>473</ele><time>2016-10-15T12:39:28Z</time></trkpt>
<trkpt lat="53.0808010000" lon="-4.1327210000"><ele>473</ele><time>2016-10-15T12:39:29Z</time></trkpt>
<trkpt lat="53.0808020000" lon="-4.1327300000"><ele>473</ele><time>2016-10-15T12:39:30Z</time></trkpt>
<trkpt lat="53.0808040000" lon="-4.1327380000"><ele>473</ele><time>2016-10-15T12:39:31Z</time></trkpt>
<trkpt lat="53.0808070000" lon="-4.1327450000"><ele>473</ele><time>2016-10-15T12:39:32Z</time></trkpt>
<trkpt lat="53.0808090000" lon="-4.1327520000"><ele>473</ele><time>2016-10-15T12:39:33Z</time></trkpt>
<trkpt lat="53.0808130000" lon="-4.1327580000"><ele>473</ele><time>2016-10-15T12:39:34Z</time></trkpt>
<trkpt lat="53.0808170000" lon="-4.1327630000"><ele>473</ele><time>2016-10-15T12:39:35Z</time></trkpt>
<trkpt lat="53.0808210000" lon="-4.1327690000"><ele>473</ele><time>2016-10-15T12:39:36Z</time></trkpt>
<trkpt lat="53.0808250000" lon="-4.1327750000"><ele>473</ele><time>2016-10-15T12:39:37Z</time></trkpt>
<trkpt lat="53.0808310000" lon="-4.1327800000"><ele>473</ele><time>2016-10-15T12:39:38Z</time></trkpt>
<trkpt lat="53.0808360000" lon="-4.1327840000"><ele>473</ele><time>2016-10-15T12:39:39Z</time></trkpt>
<trkpt lat="53.0808430000" lon="-4.1327890000"><ele>473</ele><time>2016-10-15T12:39:40Z</time></trkpt>
<trkpt lat="53.0809570000" lon="-4.1328660000"><ele>473</ele><time>2016-10-15T12:39:41Z</time></trkpt>
<trkpt lat="53.0809720000" lon="-4.1328680000"><ele>473</ele><time>2016-10-15T12:39:42Z</time></trkpt>
<trkpt lat="53.0809840000" lon="-4.1328690000"><ele>473</ele><time>2016-10-15T12:39:43Z</time></trkpt>
<trkpt lat="53.0809950000" lon="-4.1328690000"><ele>473</ele><time>2016-10-15T12:39:44Z</time></trkpt>
<trkpt lat="53.0810090000" lon="-4.1328690000"><ele>473</ele><time>2016-10-15T12:39:45Z</time></trkpt>
<trkpt lat="53.0810200000" lon="-4.1328700000"><ele>473</ele><time>2016-10-15T12:39:46Z</time></trkpt>
<trkpt lat="53.0810300000" lon="-4.1328710000"><ele>473</ele><time>2016-10-15T12:39:47Z</time></trkpt>
<trkpt lat="53.0810410000" lon="-4.1328710000"><ele>473</ele><time>2016-10-15T12:39:48Z</time></trkpt>
<trkpt lat="53.0810410000" lon="-4.1328710000"><ele>473</ele><time>2016-10-15T12:39:49Z</time></trkpt>
<trkpt lat="53.0810420000" lon="-4.1328710000"><ele>473</ele><time>2016-10-15T12:39:50Z</time></trkpt>
<trkpt lat="53.0810420000" lon="-4.1328710000"><ele>473</ele><time>2016-10-15T12:39:51Z</time></trkpt>
<trkpt lat="53.0810430000" lon="-4.1328710000"><ele>473</ele><time>2016-10-15T12:39:52Z</time></trkpt>
<trkpt lat="53.0810430000" lon="-4.1328710000"><ele>473</ele><time>2016-10-15T12:39:53Z</time></trkpt>
<trkpt lat="53.0810450000" lon="-4.1328710000"><ele>473</ele><time>2016-10-15T12:39:54Z</time></trkpt>
<trkpt lat="53.0810460000" lon="-4.1328710000"><ele>473</ele><time>2016-10-15T12:39:55Z</time></trkpt>
<trkpt lat="53.0810480000" lon="-4.1328710000"><ele>473</ele><time>2016-10-15T12:39:56Z</time></trkpt>
<trkpt lat="53.0810510000" lon="-4.1328710000"><ele>473</ele><time>2016-10-15T12:39:57Z</time></trkpt>
<trkpt lat="53.0810540000" lon="-4.1328710000"><ele>473</ele><time>2016-10-15T12:39:58Z</time></trkpt>
<trkpt lat="53.0810570000" lon="-4.1328700000"><ele>472</ele><time>2016-10-15T12:39:59Z</time></trkpt>
<trkpt lat="53.0810610000" lon="-4.1328700000"><ele>472</ele><time>2016-10-15T12:40:00Z</time></trkpt>
<trkpt lat="53.0810660000" lon="-4.1328700000"><ele>472</ele><time>2016-10-15T12:40:01Z</time></trkpt>
<trkpt lat="53.0810710000" lon="-4.1328690000"><ele>472</ele><time>2016-10-15T12:40:02Z</time></trkpt>
<trkpt lat="53.0812060000" lon="-4.1328450000"><ele>472</ele><time>2016-10-15T12:40:03Z</time></trkpt>
<trkpt lat="53.0812200000" lon="-4.1328410000"><ele>472</ele><time>2016-10-15T12:40:04Z</time></trkpt>
<trkpt lat="53.0812320000" lon="-4.1328350000"><ele>472</ele><time>2016-10-15T12:40:05Z</time></trkpt>
<trkpt lat="53.0812440000" lon="-4.1328310000"><ele>472</ele><time>2016-10-15T12:40:06Z</time></trkpt>
<trkpt lat="53.0812570000" lon="-4.1328280000"><ele>471</ele><time>2016-10-15T12:40:07Z</time></trkpt>
<trkpt lat="53.0812670000" lon="-4.1328230000"><ele>471</ele><time>2016-10-15T12:40:08Z</time></trkpt>
<trkpt lat="53.0812770000" lon="-4.1328170000"><ele>471</ele><time>2016-10-15T12:40:09Z</time></trkpt>
<trkpt lat="53.0812890000" lon="-4.1328110000"><ele>471</ele><time>2016-10-15T12:40:10Z</time></trkpt>
<trkpt lat="53.0812980000" lon="-4.1328040000"><ele>471</ele><time>2016-10-15T12:40:11Z</time></trkpt>
<trkpt lat="53.0813070000" lon="-4.1328000000"><ele>470</ele><time>2016-10-15T12:40:12Z</time></trkpt>
<trkpt lat="53.0813170000" lon="-4.1327950000"><ele>470</ele><time>2016-10-15T12:40:13Z</time></trkpt>
<trkpt lat="53.0813170000" lon="-4.1327950000"><ele>470</ele><time>2016-10-15T12:40:14Z</time></trkpt>
<trkpt lat="53.0813170000" lon="-4.1327950000"><ele>470</ele><time>2016-10-15T12:40:15Z</time></trkpt>
<trkpt lat="53.0813180000" lon="-4.1327950000"><ele>470</ele><time>2016-10-15T12:40:16Z</time></trkpt>
<trkpt lat="53.0813180000" lon="-4.1327940000"><ele>469</ele><time>2016-10-15T12:40:18Z</time></trkpt>
<trkpt lat="53.0813190000" lon="-4.1327940000"><ele>469</ele></trkpt>
<trkpt lat="53.0813200000" lon="-4.1327940000"><ele>469</ele><time>2016-10-15T12:40:19Z</time></trkpt>
<trkpt lat="53.0813220000" lon="-4.1327930000"><ele>469</ele><time>2016-10-15T12:40:20Z</time></trkpt>
<trkpt lat="53.0813240000" lon="-4.1327920000"><ele>469</ele><time>2016-10-15T12:40:21Z</time></trkpt>
<trkpt lat="53.0813260000" lon="-4.1327910000"><ele>469</ele><time>2016-10-15T12:40:22Z</time></trkpt>
<trkpt lat="53.0813290000" lon="-4.1327900000"><ele>468</ele><time>2016-10-15T12:40:23Z</time></trkpt>
<trkpt lat="53.0813320000" lon="-4.1327890000"><ele>468</ele><time>2016-10-15T12:40:24Z</time></trkpt>
<trkpt lat="53.0813350000" lon="-4.1327870000"><ele>468</ele><time>2016-10-15T12:40:25Z</time></trkpt>
<trkpt lat="53.0813390000" lon="-4.1327850000"><ele>468</ele><time>2016-10-15T12:40:26Z</time></trkpt>
<trkpt lat="53.0813430000" lon="-4.1327830000"><ele>467</ele><time>2016-10-15T12:40:27Z</time></trkpt>
<trkpt lat="53.0813480000" lon="-4.1327800000"><ele>467</ele><time>2016-10-15T12:40:28Z</time></trkpt>
<trkpt lat="53.0813520000" lon="-4.1327770000"><ele>467</ele><time>2016-10-15T12:40:29Z</time></trkpt>
<trkpt lat="53.0813580000" lon="-4.1327740000"><ele>466</ele><time>2016-10-15T12:40:30Z</time></trkpt>
<trkpt lat="53.0813630000" lon="-4.1327710000"><ele>466</ele><time>2016-10-15T12:40:31Z</time></trkpt>
<trkpt lat="53.0813690000" lon="-4.1327680000"><ele>466</ele><time>2016-10-15T12:40:32Z</time></trkpt>
<trkpt lat="53.0813750000" lon="-4.1327650000"><ele>466</ele><time>2016-10-15T12:40:33Z</time></trkpt>
<trkpt lat="53.0813820000" lon="-4.1327610000"><ele>465</ele><time>2016-10-15T12:40:34Z</time></trkpt>
<trkpt lat="53.0815240000" lon="-4.1326750000"><ele>465</ele><time>2016-10-15T12:40:35Z</time></trkpt>
<trkpt lat="53.0815340000" lon="-4.1326670000"><ele>465</ele><time>2016-10-15T12:40:36Z</time></trkpt>
<trkpt lat="53.0815430000" lon="-4.1326610000"><ele>464</ele><time>2016-10-15T12:40:37Z</time></trkpt>
<trkpt lat="53.0815510000" lon="-4.1326550000"><ele>464</ele><time>2016-10-15T12:40:38Z</time></trkpt>
<trkpt lat="53.0815620000" lon="-4.1326510000"><ele>464</ele><time>2016-10-15T12:40:39Z</time></trkpt>
<trkpt lat="53.0815700000" lon="-4.1326470000"><ele>463</ele><time>2016-10-15T12:40:40Z</time></trkpt>
<trkpt lat="53.0815780000" lon="-4.1326420000"><ele>463</ele><time>2016-10-15T12:40:41Z</time></trkpt>
<trkpt lat="53.0815780000" lon="-4.1326420000"><ele>463</ele><time>2016-10-15T12:40:42Z</time></trkpt>
<trkpt lat="53.0815780000" lon="-4.1326420000"><ele>463</ele><time>2016-10-15T12:40:43Z</time></trkpt>
<trkpt lat="53.0815790000" lon="-4.1326420000"><ele>462</ele><time>2016-10-15T12:40:44Z</time></trkpt>
<trkpt lat="53.0815790000" lon="-4.1326410000"><ele>462</ele><time>2016-10-15T12:40:45Z</time></trkpt>
<trkpt lat="53.0815800000" lon="-4.1326410000"><ele>462</ele><time>2016-10-15T12:40:46Z</time></trkpt>
<trkpt lat="53.0815810000" lon="-4.1326400000"><ele>462</ele><time>2016-10-15T12:40:47Z</time></trkpt>
<trkpt lat="53.0815820000" lon="-4.1326390000"><ele>462</ele><time>2016-10-15T12:40:48Z</time></trkpt>
<trkpt lat="53.0815830000" lon="-4.1326380000"><ele>461</ele><time>2016-10-15T12:40:49Z</time></trkpt>
<trkpt lat="53.0815850000" lon="-4.1326360000"><ele>461</ele><time>2016-10-15T12:40:50Z</time></trkpt>
<trkpt lat="53.0815870000" lon="-4.1326340000"><ele>461</ele><time>2016-10-15T12:40:51Z</time></trkpt>
<trkpt lat="53.0816780000" lon="-4.1325630000"><ele>461</ele><time>2016-10-15T12:40:52Z</time></trkpt>
<trkpt lat="53.0816910000" lon="-4.1325540000"><ele>460</ele><time>2016-10-15T12:40:53Z</time></trkpt>
<trkpt lat="53.0816990000" lon="-4.1325460000"><ele>460</ele><time>2016-10-15T12:40:54Z</time></trkpt>
<trkpt lat="53.0817080000" lon="-4.1325390000"><ele>460</ele><time>2016-10-15T12:40:55Z</time></trkpt>
<trkpt lat="53.0817170000" lon="-4.1325310000"><ele>459</ele><time>2016-10-15T12:40:56Z</time></trkpt>
<trkpt lat="53.0817260000" lon="-4.1325220000"><ele>459</ele><time>2016-10-15T12:40:57Z</time></trkpt>
<trkpt lat="53.0817430000" lon="-4.1325100000"><ele>456</ele><time>2016-10-15T12:41:08Z</time></trkpt>
<trkpt lat="53.0817630000" lon="-4.1324930000"><ele>455</ele><time>2016-10-15T12:41:14Z</time></trkpt>
<trkpt lat="53.0817840000" lon="-4.1324730000"><ele>455</ele><time>2016-10-15T12:41:19Z</time></trkpt>
<trkpt lat="53.0819370000" lon="-4.1323310000"><ele>454</ele><time>2016-10-15T12:41:21Z</time></trkpt>
<trkpt lat="53.0820230000" lon="-4.1322670000"><ele>453</ele><time>2016-10-15T12:41:29Z</time></trkpt>
<trkpt lat="53.0820450000" lon="-4.1322490000"><ele>453</ele><time>2016-10-15T12:41:31Z</time></trkpt>
<trkpt lat="53.0820620000" lon="-4.1322310000"><ele>451</ele><time>2016-10-15T12:41:42Z</time></trkpt>
<trkpt lat="53.0821700000" lon="-4.1321310000"><ele>450</ele><time>2016-10-15T12:41:44Z</time></trkpt>
<trkpt lat="53.0821950000" lon="-4.1321170000"><ele>450</ele><time>2016-10-15T12:41:46Z</time></trkpt>
<trkpt lat="53.0822480000" lon="-4.1320930000"><ele>449</ele><time>2016-10-15T12:41:50Z</time></trkpt>
<trkpt lat="53.0822680000" lon="-4.1320740000"><ele>449</ele><time>2016-10-15T12:41:52Z</time></trkpt>
<trkpt lat="53.0822940000" lon="-4.1320570000"><ele>448</ele><time>2016-10-15T12:41:54Z</time></trkpt>
<trkpt lat="53.0823190000" lon="-4.1320390000"><ele>448</ele><time>2016-10-15T12:41:56Z</time></trkpt>
<trkpt lat="53.0823420000" lon="-4.1320240000"><ele>448</ele><time>2016-10-15T12:41:58Z</time></trkpt>
<trkpt lat="53.0823590000" lon="-4.1320210000"><ele>447</ele><time>2016-10-15T12:42:01Z</time></trkpt>
<trkpt lat="53.0824110000" lon="-4.1320110000"><ele>447</ele><time>2016-10-15T12:42:03Z</time></trkpt>
<trkpt lat="53.0824400000" lon="-4.1320070000"><ele>447</ele><time>2016-10-15T12:42:05Z</time></trkpt>
<trkpt lat="53.0824640000" lon="-4.1319970000"><ele>447</ele><time>2016-10-15T12:42:07Z</time></trkpt>
<trkpt lat="53.0824890000" lon="-4.1319890000"><ele>447</ele><time>2016-10-15T12:42:09Z</time></trkpt>
<trkpt lat="53.0825130000" lon="-4.1319820000"><ele>446</ele><time>2016-10-15T12:42:11Z</time></trkpt>
<trkpt lat="53.0825400000" lon="-4.1319720000"><ele>446</ele><time>2016-10-15T12:42:13Z</time></trkpt>
<trkpt lat="53.0825610000" lon="-4.1319590000"><ele>446</ele><time>2016-10-15T12:42:15Z</time></trkpt>
<trkpt lat="53.0825810000" lon="-4.1319500000"><ele>446</ele><time>2016-10-15T12:42:18Z</time></trkpt>
<trkpt lat="53.0826010000" lon="-4.1319440000"><ele>444</ele><time>2016-10-15T12:42:28Z</time></trkpt>
<trkpt lat="53.0826220000" lon="-4.1319310000"><ele>444</ele><time>2016-10-15T12:42:34Z</time></trkpt>
<trkpt lat="53.0826420000" lon="-4.1319150000"><ele>443</ele><time>2016-10-15T12:42:38Z</time></trkpt>
<trkpt lat="53.0828140000" lon="-4.1317770000"><ele>443</ele><time>2016-10-15T12:42:40Z</time></trkpt>
<trkpt lat="53.0829080000" lon="-4.1316550000"><ele>442</ele><time>2016-10-15T12:42:51Z</time></trkpt>
<trkpt lat="53.0829370000" lon="-4.1316280000"><ele>442</ele><time>2016-10-15T12:42:54Z</time></trkpt>
<trkpt lat="53.0829650000" lon="-4.1316000000"><ele>442</ele><time>2016-10-15T12:42:57Z</time></trkpt>
<trkpt lat="53.0829910000" lon="-4.1315740000"><ele>441</ele><time>2016-10-15T12:43:00Z</time></trkpt>
<trkpt lat="53.0830850000" lon="-4.1315020000"><ele>439</ele><time>2016-10-15T12:43:09Z</time></trkpt>
<trkpt lat="53.0831110000" lon="-4.1314980000"><ele>438</ele><time>2016-10-15T12:43:11Z</time></trkpt>
<trkpt lat="53.0831360000" lon="-4.1314650000"><ele>438</ele><time>2016-10-15T12:43:14Z</time></trkpt>
<trkpt lat="53.0831610000" lon="-4.1314270000"><ele>437</ele><time>2016-10-15T12:43:18Z</time></trkpt>
<trkpt lat="53.0831860000" lon="-4.1314100000"><ele>436</ele><time>2016-10-15T12:43:19Z</time></trkpt>
<trkpt lat="53.0832120000" lon="-4.1314010000"><ele>435</ele><time>2016-10-15T12:43:21Z</time></trkpt>
<trkpt lat="53.0832640000" lon="-4.1313810000"><ele>434</ele><time>2016-10-15T12:43:26Z</time></trkpt>
<trkpt lat="53.0832980000" lon="-4.1313730000"><ele>433</ele><time>2016-10-15T12:43:29Z</time></trkpt>
<trkpt lat="53.0833310000" lon="-4.1313690000"><ele>432</ele><time>2016-10-15T12:43:31Z</time></trkpt>
<trkpt lat="53.0833610000" lon="-4.1313470000"><ele>431</ele><time>2016-10-15T12:43:34Z</time></trkpt>
<trkpt lat="53.0833880000" lon="-4.1313310000"><ele>430</ele><time>2016-10-15T12:43:36Z</time></trkpt>
<trkpt lat="53.0834210000" lon="-4.1313060000"><ele>430</ele><time>2016-10-15T12:43:39Z</time></trkpt>
<trkpt lat="53.0835380000" lon="-4.1311720000"><ele>428</ele><time>2016-10-15T12:43:51Z</time></trkpt>
<trkpt lat="53.0835770000" lon="-4.1311540000"><ele>428</ele><time>2016-10-15T12:43:54Z</time></trkpt>
<trkpt lat="53.0836320000" lon="-4.1311190000"><ele>427</ele><time>2016-10-15T12:43:59Z</time></trkpt>
<trkpt lat="53.0836700000" lon="-4.1311150000"><ele>426</ele><time>2016-10-15T12:44:01Z</time></trkpt>
<trkpt lat="53.0837120000" lon="-4.1310790000"><ele>426</ele><time>2016-10-15T12:44:05Z</time></trkpt>
<trkpt lat="53.0837720000" lon="-4.1310630000"><ele>424</ele><time>2016-10-15T12:44:12Z</time></trkpt>
<trkpt lat="53.0838320000" lon="-4.1309970000"><ele>423</ele><time>2016-10-15T12:44:18Z</time></trkpt>
<trkpt lat="53.0838870000" lon="-4.1309800000"><ele>422</ele><time>2016-10-15T12:44:22Z</time></trkpt>
<trkpt lat="53.0839330000" lon="-4.1309450000"><ele>408</ele><time>2016-10-15T12:44:59Z</time></trkpt>
<trkpt lat="53.0839980000" lon="-4.1308480000"><ele>408</ele><time>2016-10-15T12:45:00Z</time></trkpt>
<trkpt lat="53.0840560000" lon="-4.1308090000"><ele>408</ele><time>2016-10-15T12:45:05Z</time></trkpt>
<trkpt lat="53.0841050000" lon="-4.1307850000"><ele>408</ele><time>2016-10-15T12:45:09Z</time></trkpt>
<trkpt lat="53.0841800000" lon="-4.1307760000"><ele>408</ele><time>2016-10-15T12:45:16Z</time></trkpt>
<trkpt lat="53.0842400000" lon="-4.1307310000"><ele>408</ele><time>2016-10-15T12:45:21Z</time></trkpt>
<trkpt lat="53.0842830000" lon="-4.1307060000"><ele>408</ele><time>2016-10-15T12:45:25Z</time></trkpt>
<trkpt lat="53.0843310000" lon="-4.1307240000"><ele>407</ele><time>2016-10-15T12:45:28Z</time></trkpt>
<trkpt lat="53.0843700000" lon="-4.1307260000"><ele>407</ele><time>2016-10-15T12:45:31Z</time></trkpt>
<trkpt lat="53.0844150000" lon="-4.1307180000"><ele>407</ele><time>2016-10-15T12:45:34Z</time></trkpt>
<trkpt lat="53.0844950000" lon="-4.1306720000"><ele>406</ele><time>2016-10-15T12:45:40Z</time></trkpt>
<trkpt lat="53.0845540000" lon="-4.1305360000"><ele>406</ele><time>2016-10-15T12:45:52Z</time></trkpt>
<trkpt lat="53.0846120000" lon="-4.1304790000"><ele>406</ele><time>2016-10-15T12:45:57Z</time></trkpt>
<trkpt lat="53.0846920000" lon="-4.1303650000"><ele>407</ele><time>2016-10-15T12:46:05Z</time></trkpt>
<trkpt lat="53.0847380000" lon="-4.1303280000"><ele>408</ele><time>2016-10-15T12:46:09Z</time></trkpt>
<trkpt lat="53.0847920000" lon="-4.1303180000"><ele>409</ele><time>2016-10-15T12:46:13Z</time></trkpt>
<trkpt lat="53.0848440000" lon="-4.1303280000"><ele>409</ele><time>2016-10-15T12:46:16Z</time></trkpt>
<trkpt lat="53.0848950000" lon="-4.1303330000"><ele>409</ele><time>2016-10-15T12:46:19Z</time></trkpt>
<trkpt lat="53.0849450000" lon="-4.1303360000"><ele>409</ele><time>2016-10-15T12:46:22Z</time></trkpt>
<trkpt lat="53.0850010000" lon="-4.1303180000"><ele>409</ele><time>2016-10-15T12:46:26Z</time></trkpt>
<trkpt lat="53.0851040000" lon="-4.1302680000"><ele>407</ele><time>2016-10-15T12:46:35Z</time></trkpt>
<trkpt lat="53.0851440000" lon="-4.1302560000"><ele>407</ele><time>2016-10-15T12:46:38Z</time></trkpt>
<trkpt lat="53.0851830000" lon="-4.1302400000"><ele>406</ele><time>2016-10-15T12:46:41Z</time></trkpt>
<trkpt lat="53.0852330000" lon="-4.1302240000"><ele>405</ele><time>2016-10-15T12:46:45Z</time></trkpt>
<trkpt lat="53.0852670000" lon="-4.1302090000"><ele>403</ele><time>2016-10-15T12:46:48Z</time></trkpt>
<trkpt lat="53.0852980000" lon="-4.1301990000"><ele>402</ele><time>2016-10-15T12:46:51Z</time></trkpt>
<trkpt lat="53.0853360000" lon="-4.1302190000"><ele>401</ele><time>2016-10-15T12:46:54Z</time></trkpt>
<trkpt lat="53.0853740000" lon="-4.1302090000"><ele>401</ele><time>2016-10-15T12:46:56Z</time></trkpt>
<trkpt lat="53.0854070000" lon="-4.1301930000"><ele>401</ele><time>2016-10-15T12:46:58Z</time></trkpt>
<trkpt lat="53.0854290000" lon="-4.1301780000"><ele>400</ele><time>2016-10-15T12:47:00Z</time></trkpt>
<trkpt lat="53.0854520000" lon="-4.1301740000"><ele>396</ele><time>2016-10-15T12:47:23Z</time></trkpt>
<trkpt lat="53.0855310000" lon="-4.1301440000"><ele>396</ele><time>2016-10-15T12:47:24Z</time></trkpt>
<trkpt lat="53.0855520000" lon="-4.1301360000"><ele>396</ele><time>2016-10-15T12:47:26Z</time></trkpt>
<trkpt lat="53.0856640000" lon="-4.1300810000"><ele>397</ele><time>2016-10-15T12:47:35Z</time></trkpt>
<trkpt lat="53.0856910000" lon="-4.1300680000"><ele>396</ele><time>2016-10-15T12:47:37Z</time></trkpt>
<trkpt lat="53.0857130000" lon="-4.1300610000"><ele>396</ele><time>2016-10-15T12:47:39Z</time></trkpt>
<trkpt lat="53.0857320000" lon="-4.1300510000"><ele>396</ele><time>2016-10-15T12:47:41Z</time></trkpt>
<trkpt lat="53.0857490000" lon="-4.1300470000"><ele>396</ele><time>2016-10-15T12:47:50Z</time></trkpt>
<trkpt lat="53.0858800000" lon="-4.1299990000"><ele>397</ele><time>2016-10-15T12:47:54Z</time></trkpt>
<trkpt lat="53.0859090000" lon="-4.1299920000"><ele>397</ele><time>2016-10-15T12:47:56Z</time></trkpt>
<trkpt lat="53.0859330000" lon="-4.1299820000"><ele>397</ele><time>2016-10-15T12:47:59Z</time></trkpt>
<trkpt lat="53.0859580000" lon="-4.1299710000"><ele>397</ele><time>2016-10-15T12:48:02Z</time></trkpt>
<trkpt lat="53.0860000000" lon="-4.1299570000"><ele>397</ele><time>2016-10-15T12:48:06Z</time></trkpt>
<trkpt lat="53.0860260000" lon="-4.1299440000"><ele>397</ele><time>2016-10-15T12:48:09Z</time></trkpt>
<trkpt lat="53.0860490000" lon="-4.1299400000"><ele>397</ele><time>2016-10-15T12:48:11Z</time></trkpt>
<trkpt lat="53.0860700000" lon="-4.1299330000"><ele>394</ele><time>2016-10-15T12:48:24Z</time></trkpt>
<trkpt lat="53.0862410000" lon="-4.1299170000"><ele>393</ele><time>2016-10-15T12:48:27Z</time></trkpt>
<trkpt lat="53.0862670000" lon="-4.1299160000"><ele>393</ele><time>2016-10-15T12:48:29Z</time></trkpt>
<trkpt lat="53.0862970000" lon="-4.1299150000"><ele>393</ele><time>2016-10-15T12:48:31Z</time></trkpt>
<trkpt lat="53.0863290000" lon="-4.1299100000"><ele>392</ele><time>2016-10-15T12:48:33Z</time></trkpt>
<trkpt lat="53.0863560000" lon="-4.1299120000"><ele>392</ele><time>2016-10-15T12:48:35Z</time></trkpt>
<trkpt lat="53.0863850000" lon="-4.1299000000"><ele>392</ele><time>2016-10-15T12:48:37Z</time></trkpt>
<trkpt lat="53.0864070000" lon="-4.1298920000"><ele>392</ele><time>2016-10-15T12:48:39Z</time></trkpt>
<trkpt lat="53.0864420000" lon="-4.1298820000"><ele>391</ele><time>2016-10-15T12:48:42Z</time></trkpt>
<trkpt lat="53.0864690000" lon="-4.1298730000"><ele>391</ele><time>2016-10-15T12:48:44Z</time></trkpt>
<trkpt lat="53.0864920000" lon="-4.1298620000"><ele>390</ele><time>2016-10-15T12:48:46Z</time></trkpt>
<trkpt lat="53.0865450000" lon="-4.1298400000"><ele>389</ele><time>2016-10-15T12:48:50Z</time></trkpt>
<trkpt lat="53.0865800000" lon="-4.1298240000"><ele>389</ele><time>2016-10-15T12:48:52Z</time></trkpt>
<trkpt lat="53.0866100000" lon="-4.1298180000"><ele>388</ele><time>2016-10-15T12:48:54Z</time></trkpt>
<trkpt lat="53.0866440000" lon="-4.1298140000"><ele>387</ele><time>2016-10-15T12:48:57Z</time></trkpt>
<trkpt lat="53.0866790000" lon="-4.1297990000"><ele>387</ele><time>2016-10-15T12:49:00Z</time></trkpt>
<trkpt lat="53.0867040000" lon="-4.1297840000"><ele>386</ele><time>2016-10-15T12:49:02Z</time></trkpt>
<trkpt lat="53.0867310000" lon="-4.1297680000"><ele>386</ele><time>2016-10-15T12:49:04Z</time></trkpt>
<trkpt lat="53.0867910000" lon="-4.1297550000"><ele>385</ele><time>2016-10-15T12:49:09Z</time></trkpt>
<trkpt lat="53.0868180000" lon="-4.1297480000"><ele>384</ele><time>2016-10-15T12:49:11Z</time></trkpt>
<trkpt lat="53.0868450000" lon="-4.1297430000"><ele>384</ele><time>2016-10-15T12:49:13Z</time></trkpt>
<trkpt lat="53.0868720000" lon="-4.1297240000"><ele>384</ele><time>2016-10-15T12:49:15Z</time></trkpt>
<trkpt lat="53.0869210000" lon="-4.1297040000"><ele>384</ele><time>2016-10-15T12:49:19Z</time></trkpt>
<trkpt lat="53.0869480000" lon="-4.1296890000"><ele>384</ele><time>2016-10-15T12:49:21Z</time></trkpt>
<trkpt lat="53.0869760000" lon="-4.1296800000"><ele>383</ele><time>2016-10-15T12:49:24Z</time></trkpt>
<trkpt lat="53.0870020000" lon="-4.1296700000"><ele>383</ele><time>2016-10-15T12:49:26Z</time></trkpt>
<trkpt lat="53.0870280000" lon="-4.1296560000"><ele>383</ele><time>2016-10-15T12:49:29Z</time></trkpt>
<trkpt lat="53.0870760000" lon="-4.1295980000"><ele>382</ele><time>2016-10-15T12:49:34Z</time></trkpt>
<trkpt lat="53.0871010000" lon="-4.1295850000"><ele>381</ele><time>2016-10-15T12:49:36Z</time></trkpt>
<trkpt lat="53.0871620000" lon="-4.1295250000"><ele>380</ele><time>2016-10-15T12:49:42Z</time></trkpt>
<trkpt lat="53.0872130000" lon="-4.1294780000"><ele>379</ele><time>2016-10-15T12:49:46Z</time></trkpt>
<trkpt lat="53.0872770000" lon="-4.1294780000"><ele>378</ele><time>2016-10-15T12:49:50Z</time></trkpt>
<trkpt lat="53.0874020000" lon="-4.1293910000"><ele>375</ele><time>2016-10-15T12:50:01Z</time></trkpt>
<trkpt lat="53.0874500000" lon="-4.1293560000"><ele>373</ele><time>2016-10-15T12:50:05Z</time></trkpt>
<trkpt lat="53.0875020000" lon="-4.1293360000"><ele>372</ele><time>2016-10-15T12:50:09Z</time></trkpt>
<trkpt lat="53.0875590000" lon="-4.1293270000"><ele>371</ele><time>2016-10-15T12:50:13Z</time></trkpt>
<trkpt lat="53.0876290000" lon="-4.1292670000"><ele>370</ele><time>2016-10-15T12:50:19Z</time></trkpt>
<trkpt lat="53.0876860000" lon="-4.1292490000"><ele>369</ele><time>2016-10-15T12:50:24Z</time></trkpt>
<trkpt lat="53.0877890000" lon="-4.1291480000"><ele>366</ele><time>2016-10-15T12:50:34Z</time></trkpt>
<trkpt lat="53.0878290000" lon="-4.1291200000"><ele>366</ele><time>2016-10-15T12:50:37Z</time></trkpt>
<trkpt lat="53.0878640000" lon="-4.1290990000"><ele>366</ele><time>2016-10-15T12:50:40Z</time></trkpt>
<trkpt lat="53.0878990000" lon="-4.1290840000"><ele>366</ele><time>2016-10-15T12:50:43Z</time></trkpt>
<trkpt lat="53.0879320000" lon="-4.1290650000"><ele>366</ele><time>2016-10-15T12:50:46Z</time></trkpt>
<trkpt lat="53.0879700000" lon="-4.1290560000"><ele>366</ele><time>2016-10-15T12:50:49Z</time></trkpt>
<trkpt lat="53.0879980000" lon="-4.1290440000"><ele>366</ele><time>2016-10-15T12:50:51Z</time></trkpt>
<trkpt lat="53.0880270000" lon="-4.1290410000"><ele>366</ele><time>2016-10-15T12:50:53Z</time></trkpt>
<trkpt lat="53.0880570000" lon="-4.1290380000"><ele>366</ele><time>2016-10-15T12:50:55Z</time></trkpt>
<trkpt lat="53.0880820000" lon="-4.1290280000"><ele>366</ele><time>2016-10-15T12:50:57Z</time></trkpt>
<trkpt lat="53.0881050000" lon="-4.1290070000"><ele>366</ele><time>2016-10-15T12:50:59Z</time></trkpt>
<trkpt lat="53.0881180000" lon="-4.1289980000"><ele>366</ele><time>2016-10-15T12:51:00Z</time></trkpt>
<trkpt lat="53.0881300000" lon="-4.1289900000"><ele>366</ele><time>2016-10-15T12:51:01Z</time></trkpt>
<trkpt lat="53.0881410000" lon="-4.1289850000"><ele>366</ele><time>2016-10-15T12:51:02Z</time></trkpt>
<trkpt lat="53.0881530000" lon="-4.1289800000"><ele>366</ele><time>2016-10-15T12:51:03Z</time></trkpt>
<trkpt lat="53.0881650000" lon="-4.1289740000"><ele>366</ele><time>2016-10-15T12:51:04Z</time></trkpt>
<trkpt lat="53.0881770000" lon="-4.1289700000"><ele>366</ele><time>2016-10-15T12:51:05Z</time></trkpt>
<trkpt lat="53.0881880000" lon="-4.1289640000"><ele>366</ele><time>2016-10-15T12:51:06Z</time></trkpt>
<trkpt lat="53.0882000000" lon="-4.1289560000"><ele>366</ele><time>2016-10-15T12:51:07Z</time></trkpt>
<trkpt lat="53.0882130000" lon="-4.1289510000"><ele>366</ele><time>2016-10-15T12:51:08Z</time></trkpt>
<trkpt lat="53.0882240000" lon="-4.1289450000"><ele>366</ele><time>2016-10-15T12:51:09Z</time></trkpt>
<trkpt lat="53.0882350000" lon="-4.1289390000"><ele>366</ele><time>2016-10-15T12:51:10Z</time></trkpt>
<trkpt lat="53.0882440000" lon="-4.1289360000"><ele>366</ele><time>2016-10-15T12:51:11Z</time></trkpt>
<trkpt lat="53.0882560000" lon="-4.1289290000"><ele>366</ele><time>2016-10-15T12:51:12Z</time></trkpt>
<trkpt lat="53.0882680000" lon="-4.1289210000"><ele>366</ele><time>2016-10-15T12:51:13Z</time></trkpt>
<trkpt lat="53.0882830000" lon="-4.1289140000"><ele>366</ele><time>2016-10-15T12:51:14Z</time></trkpt>
<trkpt lat="53.0882970000" lon="-4.1289110000"><ele>366</ele><time>2016-10-15T12:51:15Z</time></trkpt>
<trkpt lat="53.0883110000" lon="-4.1289100000"><ele>365</ele><time>2016-10-15T12:51:16Z</time></trkpt>
<trkpt lat="53.0883260000" lon="-4.1289100000"><ele>365</ele><time>2016-10-15T12:51:17Z</time></trkpt>
<trkpt lat="53.0883380000" lon="-4.1289050000"><ele>365</ele><time>2016-10-15T12:51:18Z</time></trkpt>
<trkpt lat="53.0883520000" lon="-4.1289010000"><ele>365</ele><time>2016-10-15T12:51:19Z</time></trkpt>
<trkpt lat="53.0883630000" lon="-4.1288920000"><ele>365</ele><time>2016-10-15T12:51:20Z</time></trkpt>
<trkpt lat="53.0883740000" lon="-4.1288820000"><ele>365</ele><time>2016-10-15T12:51:21Z</time></trkpt>
<trkpt lat="53.0883980000" lon="-4.1288650000"><ele>365</ele><time>2016-10-15T12:51:23Z</time></trkpt>
<trkpt lat="53.0884100000" lon="-4.1288560000"><ele>365</ele><time>2016-10-15T12:51:24Z</time></trkpt>
<trkpt lat="53.0884200000" lon="-4.1288470000"><ele>365</ele><time>2016-10-15T12:51:25Z</time></trkpt>
<trkpt lat="53.0884320000" lon="-4.1288380000"><ele>365</ele><time>2016-10-15T12:51:26Z</time></trkpt>
<trkpt lat="53.0884450000" lon="-4.1288290000"><ele>365</ele><time>2016-10-15T12:51:27Z</time></trkpt>
<trkpt lat="53.0884570000" lon="-4.1288210000"><ele>365</ele><time>2016-10-15T12:51:28Z</time></trkpt>
<trkpt lat="53.0884690000" lon="-4.1288170000"><ele>364</ele><time>2016-10-15T12:51:29Z</time></trkpt>
<trkpt lat="53.0884810000" lon="-4.1288120000"><ele>364</ele><time>2016-10-15T12:51:30Z</time></trkpt>
<trkpt lat="53.0884930000" lon="-4.1288090000"><ele>364</ele><time>2016-10-15T12:51:31Z</time></trkpt>
<trkpt lat="53.0885070000" lon="-4.1288050000"><ele>364</ele><time>2016-10-15T12:51:32Z</time></trkpt>
<trkpt lat="53.0885210000" lon="-4.1287990000"><ele>364</ele><time>2016-10-15T12:51:33Z</time></trkpt>
<trkpt lat="53.0885320000" lon="-4.1287940000"><ele>364</ele><time>2016-10-15T12:51:34Z</time></trkpt>
<trkpt lat="53.0885440000" lon="-4.1287870000"><ele>364</ele><time>2016-10-15T12:51:35Z</time></trkpt>
<trkpt lat="53.0885550000" lon="-4.1287800000"><ele>364</ele><time>2016-10-15T12:51:36Z</time></trkpt>
<trkpt lat="53.0885690000" lon="-4.1287730000"><ele>364</ele><time>2016-10-15T12:51:37Z</time></trkpt>
<trkpt lat="53.0885830000" lon="-4.1287660000"><ele>364</ele><time>2016-10-15T12:51:38Z</time></trkpt>
<trkpt lat="53.0885990000" lon="-4.1287580000"><ele>364</ele><time>2016-10-15T12:51:39Z</time></trkpt>
<trkpt lat="53.0886130000" lon="-4.1287490000"><ele>365</ele><time>2016-10-15T12:51:40Z</time></trkpt>
<trkpt lat="53.0886270000" lon="-4.1287410000"><ele>365</ele><time>2016-10-15T12:51:41Z</time></trkpt>
<trkpt lat="53.0886400000" lon="-4.1287310000"><ele>365</ele><time>2016-10-15T12:51:42Z</time></trkpt>
<trkpt lat="53.0886550000" lon="-4.1287200000"><ele>365</ele><time>2016-10-15T12:51:43Z</time></trkpt>
<trkpt lat="53.0886680000" lon="-4.1287120000"><ele>365</ele><time>2016-10-15T12:51:44Z</time></trkpt>
<trkpt lat="53.0886820000" lon="-4.1287030000"><ele>365</ele><time>2016-10-15T12:51:45Z</time></trkpt>
<trkpt lat="53.0886940000" lon="-4.1286950000"><ele>365</ele><time>2016-10-15T12:51:46Z</time></trkpt>
<trkpt lat="53.0887080000" lon="-4.1286860000"><ele>365</ele><time>2016-10-15T12:51:47Z</time></trkpt>
<trkpt lat="53.0887210000" lon="-4.1286770000"><ele>365</ele><time>2016-10-15T12:51:48Z</time></trkpt>
<trkpt lat="53.0887330000" lon="-4.1286680000"><ele>365</ele><time>2016-10-15T12:51:49Z</time></trkpt>
<trkpt lat="53.0887440000" lon="-4.1286550000"><ele>365</ele><time>2016-10-15T12:51:50Z</time></trkpt>
<trkpt lat="53.0887570000" lon="-4.1286450000"><ele>366</ele><time>2016-10-15T12:51:51Z</time></trkpt>
<trkpt lat="53.0887680000" lon="-4.1286350000"><ele>366</ele><time>2016-10-15T12:51:52Z</time></trkpt>
<trkpt lat="53.0887820000" lon="-4.1286260000"><ele>366</ele><time>2016-10-15T12:51:53Z</time></trkpt>
<trkpt lat="53.0887950000" lon="-4.1286220000"><ele>366</ele><time>2016-10-15T12:51:54Z</time></trkpt>
<trkpt lat="53.0888070000" lon="-4.1286180000"><ele>366</ele><time>2016-10-15T12:51:55Z</time></trkpt>
<trkpt lat="53.0888170000" lon="-4.1286180000"><ele>366</ele><time>2016-10-15T12:51:56Z</time></trkpt>
<trkpt lat="53.0888270000" lon="-4.1286200000"><ele>366</ele><time>2016-10-15T12:51:57Z</time></trkpt>
<trkpt lat="53.0888380000" lon="-4.1286210000"><ele>366</ele><time>2016-10-15T12:51:58Z</time></trkpt>
<trkpt lat="53.0888480000" lon="-4.1286230000"><ele>366</ele><time>2016-10-15T12:51:59Z</time></trkpt>
<trkpt lat="53.0888480000" lon="-4.1286230000"><ele>366</ele><time>2016-10-15T12:52:00Z</time></trkpt>
<trkpt lat="53.0888480000" lon="-4.1286230000"><ele>366</ele><time>2016-10-15T12:52:01Z</time></trkpt>
<trkpt lat="53.0888480000" lon="-4.1286230000"><ele>366</ele><time>2016-10-15T12:52:02Z</time></trkpt>
<trkpt lat="53.0888490000" lon="-4.1286230000"><ele>366</ele><time>2016-10-15T12:52:03Z</time></trkpt>
<trkpt lat="53.0889000000" lon="-4.1285740000"><ele>367</ele><time>2016-10-15T12:52:04Z</time></trkpt>
<trkpt lat="53.0889060000" lon="-4.1285590000"><ele>367</ele><time>2016-10-15T12:52:05Z</time></trkpt>
<trkpt lat="53.0889160000" lon="-4.1285470000"><ele>367</ele><time>2016-10-15T12:52:06Z</time></trkpt>
<trkpt lat="53.0889270000" lon="-4.1285340000"><ele>367</ele><time>2016-10-15T12:52:07Z</time></trkpt>
<trkpt lat="53.0889370000" lon="-4.1285250000"><ele>367</ele><time>2016-10-15T12:52:08Z</time></trkpt>
<trkpt lat="53.0889440000" lon="-4.1285170000"><ele>367</ele><time>2016-10-15T12:52:09Z</time></trkpt>
<trkpt lat="53.0889540000" lon="-4.1285080000"><ele>367</ele><time>2016-10-15T12:52:10Z</time></trkpt>
<trkpt lat="53.0889640000" lon="-4.1284960000"><ele>367</ele><time>2016-10-15T12:52:11Z</time></trkpt>
<trkpt lat="53.0889740000" lon="-4.1284850000"><ele>367</ele><time>2016-10-15T12:52:12Z</time></trkpt>
<trkpt lat="53.0889830000" lon="-4.1284700000"><ele>367</ele><time>2016-10-15T12:52:13Z</time></trkpt>
<trkpt lat="53.0889920000" lon="-4.1284570000"><ele>367</ele><time>2016-10-15T12:52:14Z</time></trkpt>
<trkpt lat="53.0890020000" lon="-4.1284470000"><ele>367</ele><time>2016-10-15T12:52:15Z</time></trkpt>
<trkpt lat="53.0890140000" lon="-4.1284370000"><ele>366</ele><time>2016-10-15T12:52:16Z</time></trkpt>
<trkpt lat="53.0890280000" lon="-4.1284300000"><ele>366</ele><time>2016-10-15T12:52:17Z</time></trkpt>
<trkpt lat="53.0890410000" lon="-4.1284230000"><ele>366</ele><time>2016-10-15T12:52:18Z</time></trkpt>
<trkpt lat="53.0890510000" lon="-4.1284160000"><ele>366</ele><time>2016-10-15T12:52:19Z</time></trkpt>
<trkpt lat="53.0890650000" lon="-4.1284050000"><ele>366</ele><time>2016-10-15T12:52:20Z</time></trkpt>
<trkpt lat="53.0890800000" lon="-4.1283990000"><ele>366</ele><time>2016-10-15T12:52:21Z</time></trkpt>
<trkpt lat="53.0891060000" lon="-4.1283840000"><ele>366</ele><time>2016-10-15T12:52:23Z</time></trkpt>
<trkpt lat="53.0891180000" lon="-4.1283740000"><ele>366</ele><time>2016-10-15T12:52:24Z</time></trkpt>
<trkpt lat="53.0891320000" lon="-4.1283680000"><ele>366</ele><time>2016-10-15T12:52:25Z</time></trkpt>
<trkpt lat="53.0891450000" lon="-4.1283600000"><ele>366</ele><time>2016-10-15T12:52:26Z</time></trkpt>
<trkpt lat="53.0891580000" lon="-4.1283510000"><ele>366</ele><time>2016-10-15T12:52:27Z</time></trkpt>
<trkpt lat="53.0891710000" lon="-4.1283390000"><ele>366</ele><time>2016-10-15T12:52:28Z</time></trkpt>
<trkpt lat="53.0891850000" lon="-4.1283290000"><ele>366</ele><time>2016-10-15T12:52:29Z</time></trkpt>
<trkpt lat="53.0891980000" lon="-4.1283210000"><ele>366</ele><time>2016-10-15T12:52:30Z</time></trkpt>
<trkpt lat="53.0892110000" lon="-4.1283130000"><ele>366</ele><time>2016-10-15T12:52:31Z</time></trkpt>
<trkpt lat="53.0892220000" lon="-4.1283030000"><ele>366</ele><time>2016-10-15T12:52:32Z</time></trkpt>
<trkpt lat="53.0892330000" lon="-4.1282880000"><ele>367</ele><time>2016-10-15T12:52:33Z</time></trkpt>
<trkpt lat="53.0892430000" lon="-4.1282760000"><ele>367</ele><time>2016-10-15T12:52:34Z</time></trkpt>
<trkpt lat="53.0892540000" lon="-4.1282620000"><ele>367</ele><time>2016-10-15T12:52:35Z</time></trkpt>
<trkpt lat="53.0892660000" lon="-4.1282490000"><ele>367</ele><time>2016-10-15T12:52:36Z</time></trkpt>
<trkpt lat="53.0892780000" lon="-4.1282390000"><ele>367</ele><time>2016-10-15T12:52:37Z</time></trkpt>
<trkpt lat="53.0892890000" lon="-4.1282320000"><ele>367</ele><time>2016-10-15T12:52:38Z</time></trkpt>
<trkpt lat="53.0893000000" lon="-4.1282220000"><ele>367</ele><time>2016-10-15T12:52:39Z</time></trkpt>
<trkpt lat="53.0893110000" lon="-4.1282110000"><ele>367</ele><time>2016-10-15T12:52:40Z</time></trkpt>
<trkpt lat="53.0893230000" lon="-4.1281980000"><ele>367</ele><time>2016-10-15T12:52:41Z</time></trkpt>
<trkpt lat="53.0893340000" lon="-4.1281850000"><ele>367</ele><time>2016-10-15T12:52:42Z</time></trkpt>
<trkpt lat="53.0893440000" lon="-4.1281740000"><ele>367</ele><time>2016-10-15T12:52:43Z</time></trkpt>
<trkpt lat="53.0893540000" lon="-4.1281620000"><ele>367</ele><time>2016-10-15T12:52:44Z</time></trkpt>
<trkpt lat="53.0893650000" lon="-4.1281480000"><ele>367</ele><time>2016-10-15T12:52:45Z</time></trkpt>
<trkpt lat="53.0893760000" lon="-4.1281360000"><ele>367</ele><time>2016-10-15T12:52:46Z</time></trkpt>
<trkpt lat="53.0893870000" lon="-4.1281240000"><ele>367</ele><time>2016-10-15T12:52:47Z</time></trkpt>
<trkpt lat="53.0893980000" lon="-4.1281090000"><ele>367</ele><time>2016-10-15T12:52:48Z</time></trkpt>
<trkpt lat="53.0894090000" lon="-4.1280940000"><ele>367</ele><time>2016-10-15T12:52:49Z</time></trkpt>
<trkpt lat="53.0894200000" lon="-4.1280850000"><ele>367</ele><time>2016-10-15T12:52:50Z</time></trkpt>
<trkpt lat="53.0894320000" lon="-4.1280740000"><ele>367</ele><time>2016-10-15T12:52:51Z</time></trkpt>
<trkpt lat="53.0894430000" lon="-4.1280640000"><ele>367</ele><time>2016-10-15T12:52:52Z</time></trkpt>
<trkpt lat="53.0894560000" lon="-4.1280530000"><ele>367</ele><time>2016-10-15T12:52:53Z</time></trkpt>
<trkpt lat="53.0894680000" lon="-4.1280420000"><ele>367</ele><time>2016-10-15T12:52:54Z</time></trkpt>
<trkpt lat="53.0894810000" lon="-4.1280350000"><ele>367</ele><time>2016-10-15T12:52:55Z</time></trkpt>
<trkpt lat="53.0894920000" lon="-4.1280280000"><ele>367</ele><time>2016-10-15T12:52:56Z</time></trkpt>
<trkpt lat="53.0895030000" lon="-4.1280220000"><ele>367</ele><time>2016-10-15T12:52:57Z</time></trkpt>
<trkpt lat="53.0895150000" lon="-4.1280160000"><ele>367</ele><time>2016-10-15T12:52:58Z</time></trkpt>
<trkpt lat="53.0895280000" lon="-4.1280070000"><ele>367</ele><time>2016-10-15T12:52:59Z</time></trkpt>
<trkpt lat="53.0895400000" lon="-4.1279960000"><ele>367</ele><time>2016-10-15T12:53:00Z</time></trkpt>
<trkpt lat="53.0895510000" lon="-4.1279840000"><ele>366</ele><time>2016-10-15T12:53:01Z</time></trkpt>
<trkpt lat="53.0895630000" lon="-4.1279730000"><ele>366</ele><time>2016-10-15T12:53:02Z</time></trkpt>
<trkpt lat="53.0895730000" lon="-4.1279640000"><ele>366</ele><time>2016-10-15T12:53:03Z</time></trkpt>
<trkpt lat="53.0895830000" lon="-4.1279500000"><ele>366</ele><time>2016-10-15T12:53:04Z</time></trkpt>
<trkpt lat="53.0895940000" lon="-4.1279360000"><ele>366</ele><time>2016-10-15T12:53:05Z</time></trkpt>
<trkpt lat="53.0896040000" lon="-4.1279230000"><ele>366</ele><time>2016-10-15T12:53:06Z</time></trkpt>
<trkpt lat="53.0896160000" lon="-4.1279080000"><ele>366</ele><time>2016-10-15T12:53:07Z</time></trkpt>
<trkpt lat="53.0896270000" lon="-4.1278930000"><ele>366</ele><time>2016-10-15T12:53:08Z</time></trkpt>
<trkpt lat="53.0896380000" lon="-4.1278820000"><ele>366</ele><time>2016-10-15T12:53:09Z</time></trkpt>
<trkpt lat="53.0896480000" lon="-4.1278690000"><ele>366</ele><time>2016-10-15T12:53:10Z</time></trkpt>
<trkpt lat="53.0896580000" lon="-4.1278560000"><ele>366</ele><time>2016-10-15T12:53:11Z</time></trkpt>
<trkpt lat="53.0896680000" lon="-4.1278430000"><ele>366</ele><time>2016-10-15T12:53:12Z</time></trkpt>
<trkpt lat="53.0896790000" lon="-4.1278310000"><ele>366</ele><time>2016-10-15T12:53:13Z</time></trkpt>
<trkpt lat="53.0896900000" lon="-4.1278210000"><ele>366</ele><time>2016-10-15T12:53:14Z</time></trkpt>
<trkpt lat="53.0897020000" lon="-4.1278100000"><ele>366</ele><time>2016-10-15T12:53:15Z</time></trkpt>
<trkpt lat="53.0897140000" lon="-4.1277990000"><ele>366</ele><time>2016-10-15T12:53:16Z</time></trkpt>
<trkpt lat="53.0897260000" lon="-4.1277860000"><ele>366</ele><time>2016-10-15T12:53:17Z</time></trkpt>
<trkpt lat="53.0897370000" lon="-4.1277760000"><ele>366</ele><time>2016-10-15T12:53:18Z</time></trkpt>
<trkpt lat="53.0897490000" lon="-4.1277690000"><ele>366</ele><time>2016-10-15T12:53:19Z</time></trkpt>
<trkpt lat="53.0897600000" lon="-4.1277610000"><ele>366</ele><time>2016-10-15T12:53:20Z</time></trkpt>
<trkpt lat="53.0897720000" lon="-4.1277540000"><ele>366</ele><time>2016-10-15T12:53:21Z</time></trkpt>
<trkpt lat="53.0897970000" lon="-4.1277370000"><ele>366</ele><time>2016-10-15T12:53:23Z</time></trkpt>
<trkpt lat="53.0898080000" lon="-4.1277280000"><ele>366</ele><time>2016-10-15T12:53:24Z</time></trkpt>
<trkpt lat="53.0898190000" lon="-4.1277190000"><ele>366</ele><time>2016-10-15T12:53:25Z</time></trkpt>
<trkpt lat="53.0898310000" lon="-4.1277100000"><ele>365</ele><time>2016-10-15T12:53:26Z</time></trkpt>
<trkpt lat="53.0898430000" lon="-4.1277010000"><ele>365</ele><time>2016-10-15T12:53:27Z</time></trkpt>
<trkpt lat="53.0898550000" lon="-4.1276920000"><ele>365</ele><time>2016-10-15T12:53:28Z</time></trkpt>
<trkpt lat="53.0898680000" lon="-4.1276810000"><ele>365</ele><time>2016-10-15T12:53:29Z</time></trkpt>
<trkpt lat="53.0898810000" lon="-4.1276700000"><ele>365</ele><time>2016-10-15T12:53:30Z</time></trkpt>
<trkpt lat="53.0898930000" lon="-4.1276600000"><ele>365</ele><time>2016-10-15T12:53:31Z</time></trkpt>
<trkpt lat="53.0899040000" lon="-4.1276520000"><ele>365</ele><time>2016-10-15T12:53:32Z</time></trkpt>
<trkpt lat="53.0899150000" lon="-4.1276420000"><ele>365</ele><time>2016-10-15T12:53:33Z</time></trkpt>
<trkpt lat="53.0899270000" lon="-4.1276310000"><ele>365</ele><time>2016-10-15T12:53:34Z</time></trkpt>
<trkpt lat="53.0899390000" lon="-4.1276200000"><ele>365</ele><time>2016-10-15T12:53:35Z</time></trkpt>
<trkpt lat="53.0899510000" lon="-4.1276070000"><ele>365</ele><time>2016-10-15T12:53:36Z</time></trkpt>
<trkpt lat="53.0899630000" lon="-4.1275940000"><ele>365</ele><time>2016-10-15T12:53:37Z</time></trkpt>
<trkpt lat="53.0899740000" lon="-4.1275830000"><ele>365</ele><time>2016-10-15T12:53:38Z</time></trkpt>
<trkpt lat="53.0899850000" lon="-4.1275730000"><ele>365</ele><time>2016-10-15T12:53:39Z</time></trkpt>
<trkpt lat="53.0899960000" lon="-4.1275640000"><ele>364</ele><time>2016-10-15T12:53:40Z</time></trkpt>
<trkpt lat="53.0900070000" lon="-4.1275540000"><ele>364</ele><time>2016-10-15T12:53:41Z</time></trkpt>
<trkpt lat="53.0900180000" lon="-4.1275430000"><ele>364</ele><time>2016-10-15T12:53:42Z</time></trkpt>
<trkpt lat="53.0900300000" lon="-4.1275300000"><ele>364</ele><time>2016-10-15T12:53:43Z</time></trkpt>
<trkpt lat="53.0900410000" lon="-4.1275200000"><ele>364</ele><time>2016-10-15T12:53:44Z</time></trkpt>
<trkpt lat="53.0900520000" lon="-4.1275100000"><ele>364</ele><time>2016-10-15T12:53:45Z</time></trkpt>
<trkpt lat="53.0900630000" lon="-4.1275000000"><ele>364</ele><time>2016-10-15T12:53:46Z</time></trkpt>
<trkpt lat="53.0900750000" lon="-4.1274900000"><ele>364</ele><time>2016-10-15T12:53:47Z</time></trkpt>
<trkpt lat="53.0900850000" lon="-4.1274790000"><ele>364</ele><time>2016-10-15T12:53:48Z</time></trkpt>
<trkpt lat="53.0900960000" lon="-4.1274660000"><ele>364</ele><time>2016-10-15T12:53:49Z</time></trkpt>
<trkpt lat="53.0901070000" lon="-4.1274540000"><ele>364</ele><time>2016-10-15T12:53:50Z</time></trkpt>
<trkpt lat="53.0901180000" lon="-4.1274450000"><ele>364</ele><time>2016-10-15T12:53:51Z</time></trkpt>
<trkpt lat="53.0901280000" lon="-4.1274350000"><ele>364</ele><time>2016-10-15T12:53:52Z</time></trkpt>
<trkpt lat="53.0901390000" lon="-4.1274250000"><ele>364</ele><time>2016-10-15T12:53:53Z</time></trkpt>
<trkpt lat="53.0901510000" lon="-4.1274130000"><ele>364</ele><time>2016-10-15T12:53:54Z</time></trkpt>
<trkpt lat="53.0901610000" lon="-4.1274000000"><ele>364</ele><time>2016-10-15T12:53:55Z</time></trkpt>
<trkpt lat="53.0901720000" lon="-4.1273870000"><ele>364</ele><time>2016-10-15T12:53:56Z</time></trkpt>
<trkpt lat="53.0901840000" lon="-4.1273750000"><ele>364</ele><time>2016-10-15T12:53:57Z</time></trkpt>
<trkpt lat="53.0901960000" lon="-4.1273620000"><ele>364</ele><time>2016-10-15T12:53:58Z</time></trkpt>
<trkpt lat="53.0902070000" lon="-4.1273510000"><ele>364</ele><time>2016-10-15T12:53:59Z</time></trkpt>
<trkpt lat="53.0902180000" lon="-4.1273390000"><ele>364</ele><time>2016-10-15T12:54:00Z</time></trkpt>
<trkpt lat="53.0902300000" lon="-4.1273270000"><ele>364</ele><time>2016-10-15T12:54:01Z</time></trkpt>
<trkpt lat="53.0902410000" lon="-4.1273140000"><ele>364</ele><time>2016-10-15T12:54:02Z</time></trkpt>
<trkpt lat="53.0902530000" lon="-4.1273010000"><ele>364</ele><time>2016-10-15T12:54:03Z</time></trkpt>
<trkpt lat="53.0902660000" lon="-4.1272890000"><ele>364</ele><time>2016-10-15T12:54:04Z</time></trkpt>
<trkpt lat="53.0902780000" lon="-4.1272780000"><ele>364</ele><time>2016-10-15T12:54:05Z</time></trkpt>
<trkpt lat="53.0902900000" lon="-4.1272690000"><ele>364</ele><time>2016-10-15T12:54:06Z</time></trkpt>
<trkpt lat="53.0903040000" lon="-4.1272580000"><ele>364</ele><time>2016-10-15T12:54:07Z</time></trkpt>
<trkpt lat="53.0903150000" lon="-4.1272470000"><ele>364</ele><time>2016-10-15T12:54:08Z</time></trkpt>
<trkpt lat="53.0903290000" lon="-4.1272360000"><ele>364</ele><time>2016-10-15T12:54:09Z</time></trkpt>
<trkpt lat="53.0903420000" lon="-4.1272270000"><ele>364</ele><time>2016-10-15T12:54:10Z</time></trkpt>
<trkpt lat="53.0903550000" lon="-4.1272180000"><ele>364</ele><time>2016-10-15T12:54:11Z</time></trkpt>
<trkpt lat="53.0903680000" lon="-4.1272100000"><ele>364</ele><time>2016-10-15T12:54:12Z</time></trkpt>
<trkpt lat="53.0903810000" lon="-4.1272030000"><ele>364</ele><time>2016-10-15T12:54:13Z</time></trkpt>
<trkpt lat="53.0903930000" lon="-4.1271950000"><ele>364</ele><time>2016-10-15T12:54:14Z</time></trkpt>
<trkpt lat="53.0904070000" lon="-4.1271870000"><ele>364</ele><time>2016-10-15T12:54:15Z</time></trkpt>
<trkpt lat="53.0904190000" lon="-4.1271790000"><ele>364</ele><time>2016-10-15T12:54:16Z</time></trkpt>
<trkpt lat="53.0904320000" lon="-4.1271700000"><ele>364</ele><time>2016-10-15T12:54:17Z</time></trkpt>
<trkpt lat="53.0904440000" lon="-4.1271610000"><ele>364</ele><time>2016-10-15T12:54:18Z</time></trkpt>
<trkpt lat="53.0904560000" lon="-4.1271530000"><ele>364</ele><time>2016-10-15T12:54:19Z</time></trkpt>
<trkpt lat="53.0904680000" lon="-4.1271450000"><ele>364</ele><time>2016-10-15T12:54:20Z</time></trkpt>
<trkpt lat="53.0904790000" lon="-4.1271360000"><ele>364</ele><time>2016-10-15T12:54:21Z</time></trkpt>
<trkpt lat="53.0905030000" lon="-4.1271180000"><ele>364</ele><time>2016-10-15T12:54:23Z</time></trkpt>
<trkpt lat="53.0905160000" lon="-4.1271080000"><ele>364</ele><time>2016-10-15T12:54:24Z</time></trkpt>
<trkpt lat="53.0905290000" lon="-4.1270990000"><ele>364</ele><time>2016-10-15T12:54:25Z</time></trkpt>
<trkpt lat="53.0905420000" lon="-4.1270880000"><ele>364</ele><time>2016-10-15T12:54:26Z</time></trkpt>
<trkpt lat="53.0905550000" lon="-4.1270780000"><ele>364</ele><time>2016-10-15T12:54:27Z</time></trkpt>
<trkpt lat="53.0905670000" lon="-4.1270680000"><ele>364</ele><time>2016-10-15T12:54:28Z</time></trkpt>
<trkpt lat="53.0905810000" lon="-4.1270600000"><ele>364</ele><time>2016-10-15T12:54:29Z</time></trkpt>
<trkpt lat="53.0905940000" lon="-4.1270520000"><ele>364</ele><time>2016-10-15T12:54:30Z</time></trkpt>
<trkpt lat="53.0906060000" lon="-4.1270430000"><ele>364</ele><time>2016-10-15T12:54:31Z</time></trkpt>
<trkpt lat="53.0906200000" lon="-4.1270320000"><ele>365</ele><time>2016-10-15T12:54:32Z</time></trkpt>
<trkpt lat="53.0906320000" lon="-4.1270190000"><ele>365</ele><time>2016-10-15T12:54:33Z</time></trkpt>
<trkpt lat="53.0906450000" lon="-4.1270100000"><ele>365</ele><time>2016-10-15T12:54:34Z</time></trkpt>
<trkpt lat="53.0906580000" lon="-4.1270030000"><ele>365</ele><time>2016-10-15T12:54:35Z</time></trkpt>
<trkpt lat="53.0906690000" lon="-4.1269980000"><ele>365</ele><time>2016-10-15T12:54:36Z</time></trkpt>
<trkpt lat="53.0906820000" lon="-4.1269900000"><ele>365</ele><time>2016-10-15T12:54:37Z</time></trkpt>
<trkpt lat="53.0906930000" lon="-4.1269810000"><ele>365</ele><time>2016-10-15T12:54:38Z</time></trkpt>
<trkpt lat="53.0907060000" lon="-4.1269740000"><ele>365</ele><time>2016-10-15T12:54:39Z</time></trkpt>
<trkpt lat="53.0907180000" lon="-4.1269680000"><ele>365</ele><time>2016-10-15T12:54:40Z</time></trkpt>
<trkpt lat="53.0907290000" lon="-4.1269620000"><ele>365</ele><time>2016-10-15T12:54:41Z</time></trkpt>
<trkpt lat="53.0907400000" lon="-4.1269550000"><ele>365</ele><time>2016-10-15T12:54:42Z</time></trkpt>
<trkpt lat="53.0907500000" lon="-4.1269490000"><ele>365</ele><time>2016-10-15T12:54:43Z</time></trkpt>
<trkpt lat="53.0907610000" lon="-4.1269430000"><ele>365</ele><time>2016-10-15T12:54:44Z</time></trkpt>
<trkpt lat="53.0907720000" lon="-4.1269360000"><ele>365</ele><time>2016-10-15T12:54:45Z</time></trkpt>
<trkpt lat="53.0907840000" lon="-4.1269280000"><ele>365</ele><time>2016-10-15T12:54:46Z</time></trkpt>
<trkpt lat="53.0907950000" lon="-4.1269190000"><ele>365</ele><time>2016-10-15T12:54:47Z</time></trkpt>
<trkpt lat="53.0908060000" lon="-4.1269090000"><ele>365</ele><time>2016-10-15T12:54:48Z</time></trkpt>
<trkpt lat="53.0908160000" lon="-4.1268990000"><ele>365</ele><time>2016-10-15T12:54:49Z</time></trkpt>
<trkpt lat="53.0908230000" lon="-4.1268890000"><ele>365</ele><time>2016-10-15T12:54:50Z</time></trkpt>
<trkpt lat="53.0908310000" lon="-4.1268830000"><ele>365</ele><time>2016-10-15T12:54:51Z</time></trkpt>
<trkpt lat="53.0908310000" lon="-4.1268830000"><ele>365</ele><time>2016-10-15T12:54:52Z</time></trkpt>
<trkpt lat="53.0908310000" lon="-4.1268830000"><ele>365</ele><time>2016-10-15T12:54:53Z</time></trkpt>
<trkpt lat="53.0908320000" lon="-4.1268830000"><ele>365</ele><time>2016-10-15T12:54:54Z</time></trkpt>
<trkpt lat="53.0908320000" lon="-4.1268820000"><ele>365</ele><time>2016-10-15T12:54:55Z</time></trkpt>
<trkpt lat="53.0908340000" lon="-4.1268810000"><ele>365</ele><time>2016-10-15T12:54:56Z</time></trkpt>
<trkpt lat="53.0908960000" lon="-4.1268370000"><ele>365</ele><time>2016-10-15T12:54:57Z</time></trkpt>
<trkpt lat="53.0909080000" lon="-4.1268290000"><ele>365</ele><time>2016-10-15T12:54:58Z</time></trkpt>
<trkpt lat="53.0909210000" lon="-4.1268190000"><ele>365</ele><time>2016-10-15T12:54:59Z</time></trkpt>
<trkpt lat="53.0909320000" lon="-4.1268080000"><ele>365</ele><time>2016-10-15T12:55:00Z</time></trkpt>
<trkpt lat="53.0909430000" lon="-4.1267970000"><ele>365</ele><time>2016-10-15T12:55:01Z</time></trkpt>
<trkpt lat="53.0909550000" lon="-4.1267870000"><ele>365</ele><time>2016-10-15T12:55:02Z</time></trkpt>
<trkpt lat="53.0909680000" lon="-4.1267790000"><ele>365</ele><time>2016-10-15T12:55:03Z</time></trkpt>
<trkpt lat="53.0909810000" lon="-4.1267740000"><ele>365</ele><time>2016-10-15T12:55:04Z</time></trkpt>
<trkpt lat="53.0909930000" lon="-4.1267660000"><ele>365</ele><time>2016-10-15T12:55:05Z</time></trkpt>
<trkpt lat="53.0910050000" lon="-4.1267580000"><ele>365</ele><time>2016-10-15T12:55:06Z</time></trkpt>
<trkpt lat="53.0910170000" lon="-4.1267520000"><ele>365</ele><time>2016-10-15T12:55:07Z</time></trkpt>
<trkpt lat="53.0910300000" lon="-4.1267470000"><ele>365</ele><time>2016-10-15T12:55:08Z</time></trkpt>
<trkpt lat="53.0910410000" lon="-4.1267420000"><ele>365</ele><time>2016-10-15T12:55:09Z</time></trkpt>
<trkpt lat="53.0910520000" lon="-4.1267380000"><ele>365</ele><time>2016-10-15T12:55:10Z</time></trkpt>
<trkpt lat="53.0910610000" lon="-4.1267330000"><ele>365</ele><time>2016-10-15T12:55:11Z</time></trkpt>
<trkpt lat="53.0910710000" lon="-4.1267290000"><ele>364</ele><time>2016-10-15T12:55:12Z</time></trkpt>
<trkpt lat="53.0910710000" lon="-4.1267290000"><ele>364</ele><time>2016-10-15T12:55:13Z</time></trkpt>
<trkpt lat="53.0910710000" lon="-4.1267290000"><ele>364</ele><time>2016-10-15T12:55:14Z</time></trkpt>
<trkpt lat="53.0910720000" lon="-4.1267290000"><ele>364</ele><time>2016-10-15T12:55:15Z</time></trkpt>
<trkpt lat="53.0910730000" lon="-4.1267290000"><ele>364</ele><time>2016-10-15T12:55:16Z</time></trkpt>
<trkpt lat="53.0910740000" lon="-4.1267280000"><ele>364</ele><time>2016-10-15T12:55:17Z</time></trkpt>
<trkpt lat="53.0910750000" lon="-4.1267270000"><ele>364</ele><time>2016-10-15T12:55:18Z</time></trkpt>
<trkpt lat="53.0910780000" lon="-4.1267260000"><ele>364</ele><time>2016-10-15T12:55:19Z</time></trkpt>
<trkpt lat="53.0910800000" lon="-4.1267250000"><ele>364</ele><time>2016-10-15T12:55:20Z</time></trkpt>
<trkpt lat="53.0910830000" lon="-4.1267230000"><ele>364</ele><time>2016-10-15T12:55:21Z</time></trkpt>
<trkpt lat="53.0910900000" lon="-4.1267190000"><ele>363</ele><time>2016-10-15T12:55:23Z</time></trkpt>
<trkpt lat="53.0910940000" lon="-4.1267170000"><ele>363</ele><time>2016-10-15T12:55:24Z</time></trkpt>
<trkpt lat="53.0912220000" lon="-4.1266330000"><ele>363</ele><time>2016-10-15T12:55:25Z</time></trkpt>
<trkpt lat="53.0912340000" lon="-4.1266220000"><ele>363</ele><time>2016-10-15T12:55:26Z</time></trkpt>
<trkpt lat="53.0912470000" lon="-4.1266130000"><ele>363</ele><time>2016-10-15T12:55:27Z</time></trkpt>
<trkpt lat="53.0912580000" lon="-4.1266040000"><ele>363</ele><time>2016-10-15T12:55:28Z</time></trkpt>
<trkpt lat="53.0912700000" lon="-4.1265990000"><ele>363</ele><time>2016-10-15T12:55:29Z</time></trkpt>
<trkpt lat="53.0912800000" lon="-4.1265920000"><ele>363</ele><time>2016-10-15T12:55:30Z</time></trkpt>
<trkpt lat="53.0912800000" lon="-4.1265920000"><ele>363</ele><time>2016-10-15T12:55:31Z</time></trkpt>
<trkpt lat="53.0913030000" lon="-4.1265740000"><ele>363</ele><time>2016-10-15T12:55:32Z</time></trkpt>
<trkpt lat="53.0913150000" lon="-4.1265660000"><ele>363</ele><time>2016-10-15T12:55:33Z</time></trkpt>
<trkpt lat="53.0913280000" lon="-4.1265570000"><ele>363</ele><time>2016-10-15T12:55:34Z</time></trkpt>
<trkpt lat="53.0913380000" lon="-4.1265440000"><ele>363</ele><time>2016-10-15T12:55:35Z</time></trkpt>
<trkpt lat="53.0913500000" lon="-4.1265310000"><ele>363</ele><time>2016-10-15T12:55:36Z</time></trkpt>
<trkpt lat="53.0913610000" lon="-4.1265180000"><ele>363</ele><time>2016-10-15T12:55:37Z</time></trkpt>
<trkpt lat="53.0913720000" lon="-4.1265030000"><ele>363</ele><time>2016-10-15T12:55:38Z</time></trkpt>
<trkpt lat="53.0913810000" lon="-4.1264910000"><ele>363</ele><time>2016-10-15T12:55:39Z</time></trkpt>
<trkpt lat="53.0913900000" lon="-4.1264820000"><ele>363</ele><time>2016-10-15T12:55:40Z</time></trkpt>
<trkpt lat="53.0913980000" lon="-4.1264690000"><ele>363</ele><time>2016-10-15T12:55:41Z</time></trkpt>
<trkpt lat="53.0913980000" lon="-4.1264690000"><ele>363</ele><time>2016-10-15T12:55:42Z</time></trkpt>
<trkpt lat="53.0913980000" lon="-4.1264690000"><ele>363</ele><time>2016-10-15T12:55:43Z</time></trkpt>
<trkpt lat="53.0913990000" lon="-4.1264680000"><ele>363</ele><time>2016-10-15T12:55:44Z</time></trkpt>
<trkpt lat="53.0913990000" lon="-4.1264670000"><ele>363</ele><time>2016-10-15T12:55:45Z</time></trkpt>
<trkpt lat="53.0914000000" lon="-4.1264660000"><ele>363</ele><time>2016-10-15T12:55:46Z</time></trkpt>
<trkpt lat="53.0914010000" lon="-4.1264640000"><ele>363</ele><time>2016-10-15T12:55:47Z</time></trkpt>
<trkpt lat="53.0914020000" lon="-4.1264610000"><ele>363</ele><time>2016-10-15T12:55:48Z</time></trkpt>
<trkpt lat="53.0914040000" lon="-4.1264580000"><ele>363</ele><time>2016-10-15T12:55:49Z</time></trkpt>
<trkpt lat="53.0914070000" lon="-4.1264540000"><ele>364</ele><time>2016-10-15T12:55:50Z</time></trkpt>
<trkpt lat="53.0914100000" lon="-4.1264500000"><ele>364</ele><time>2016-10-15T12:55:51Z</time></trkpt>
<trkpt lat="53.0914130000" lon="-4.1264460000"><ele>364</ele><time>2016-10-15T12:55:52Z</time></trkpt>
<trkpt lat="53.0914160000" lon="-4.1264410000"><ele>364</ele><time>2016-10-15T12:55:53Z</time></trkpt>
<trkpt lat="53.0914210000" lon="-4.1264360000"><ele>364</ele><time>2016-10-15T12:55:54Z</time></trkpt>
<trkpt lat="53.0914250000" lon="-4.1264300000"><ele>364</ele><time>2016-10-15T12:55:55Z</time></trkpt>
<trkpt lat="53.0914300000" lon="-4.1264240000"><ele>364</ele><time>2016-10-15T12:55:56Z</time></trkpt>
<trkpt lat="53.0915450000" lon="-4.1262950000"><ele>364</ele><time>2016-10-15T12:55:57Z</time></trkpt>
<trkpt lat="53.0915550000" lon="-4.1262920000"><ele>364</ele><time>2016-10-15T12:55:58Z</time></trkpt>
<trkpt lat="53.0915650000" lon="-4.1262900000"><ele>364</ele><time>2016-10-15T12:55:59Z</time></trkpt>
<trkpt lat="53.0915750000" lon="-4.1262860000"><ele>364</ele><time>2016-10-15T12:56:00Z</time></trkpt>
<trkpt lat="53.0915750000" lon="-4.1262860000"><ele>364</ele><time>2016-10-15T12:56:01Z</time></trkpt>
<trkpt lat="53.0915750000" lon="-4.1262860000"><ele>364</ele><time>2016-10-15T12:56:02Z</time></trkpt>
<trkpt lat="53.0915760000" lon="-4.1262860000"><ele>364</ele><time>2016-10-15T12:56:03Z</time></trkpt>
<trkpt lat="53.0915770000" lon="-4.1262850000"><ele>364</ele><time>2016-10-15T12:56:04Z</time></trkpt>
<trkpt lat="53.0915780000" lon="-4.1262850000"><ele>364</ele><time>2016-10-15T12:56:05Z</time></trkpt>
<trkpt lat="53.0915790000" lon="-4.1262840000"><ele>364</ele><time>2016-10-15T12:56:06Z</time></trkpt>
<trkpt lat="53.0915820000" lon="-4.1262830000"><ele>364</ele><time>2016-10-15T12:56:07Z</time></trkpt>
<trkpt lat="53.0915840000" lon="-4.1262820000"><ele>364</ele><time>2016-10-15T12:56:08Z</time></trkpt>
<trkpt lat="53.0915870000" lon="-4.1262800000"><ele>364</ele><time>2016-10-15T12:56:09Z</time></trkpt>
<trkpt lat="53.0915900000" lon="-4.1262780000"><ele>364</ele><time>2016-10-15T12:56:10Z</time></trkpt>
<trkpt lat="53.0916970000" lon="-4.1262100000"><ele>364</ele><time>2016-10-15T12:56:11Z</time></trkpt>
<trkpt lat="53.0917090000" lon="-4.1261990000"><ele>364</ele><time>2016-10-15T12:56:12Z</time></trkpt>
<trkpt lat="53.0917200000" lon="-4.1261880000"><ele>364</ele><time>2016-10-15T12:56:13Z</time></trkpt>
<trkpt lat="53.0917320000" lon="-4.1261760000"><ele>364</ele><time>2016-10-15T12:56:14Z</time></trkpt>
<trkpt lat="53.0917430000" lon="-4.1261670000"><ele>364</ele><time>2016-10-15T12:56:15Z</time></trkpt>
<trkpt lat="53.0917550000" lon="-4.1261590000"><ele>364</ele><time>2016-10-15T12:56:16Z</time></trkpt>
<trkpt lat="53.0917670000" lon="-4.1261500000"><ele>364</ele><time>2016-10-15T12:56:17Z</time></trkpt>
<trkpt lat="53.0917790000" lon="-4.1261390000"><ele>364</ele><time>2016-10-15T12:56:18Z</time></trkpt>
<trkpt lat="53.0917910000" lon="-4.1261300000"><ele>364</ele><time>2016-10-15T12:56:19Z</time></trkpt>
<trkpt lat="53.0918030000" lon="-4.1261190000"><ele>364</ele><time>2016-10-15T12:56:20Z</time></trkpt>
<trkpt lat="53.0918140000" lon="-4.1261060000"><ele>364</ele><time>2016-10-15T12:56:21Z</time></trkpt>
<trkpt lat="53.0918350000" lon="-4.1260800000"><ele>364</ele><time>2016-10-15T12:56:23Z</time></trkpt>
<trkpt lat="53.0918430000" lon="-4.1260650000"><ele>364</ele><time>2016-10-15T12:56:24Z</time></trkpt>
<trkpt lat="53.0918500000" lon="-4.1260520000"><ele>364</ele><time>2016-10-15T12:56:25Z</time></trkpt>
<trkpt lat="53.0918560000" lon="-4.1260450000"><ele>364</ele><time>2016-10-15T12:56:26Z</time></trkpt>
<trkpt lat="53.0918560000" lon="-4.1260450000"><ele>364</ele><time>2016-10-15T12:56:27Z</time></trkpt>
<trkpt lat="53.0918560000" lon="-4.1260440000"><ele>364</ele><time>2016-10-15T12:56:28Z</time></trkpt>
<trkpt lat="53.0918570000" lon="-4.1260440000"><ele>364</ele><time>2016-10-15T12:56:29Z</time></trkpt>
<trkpt lat="53.0918570000" lon="-4.1260440000"><ele>363</ele><time>2016-10-15T12:56:30Z</time></trkpt>
<trkpt lat="53.0918580000" lon="-4.1260430000"><ele>363</ele><time>2016-10-15T12:56:31Z</time></trkpt>
<trkpt lat="53.0918600000" lon="-4.1260420000"><ele>363</ele><time>2016-10-15T12:56:32Z</time></trkpt>
<trkpt lat="53.0918610000" lon="-4.1260400000"><ele>363</ele><time>2016-10-15T12:56:33Z</time></trkpt>
<trkpt lat="53.0918630000" lon="-4.1260390000"><ele>363</ele><time>2016-10-15T12:56:34Z</time></trkpt>
<trkpt lat="53.0918660000" lon="-4.1260360000"><ele>362</ele><time>2016-10-15T12:56:35Z</time></trkpt>
<trkpt lat="53.0918690000" lon="-4.1260330000"><ele>362</ele><time>2016-10-15T12:56:36Z</time></trkpt>
<trkpt lat="53.0918730000" lon="-4.1260290000"><ele>362</ele><time>2016-10-15T12:56:37Z</time></trkpt>
<trkpt lat="53.0918770000" lon="-4.1260250000"><ele>362</ele><time>2016-10-15T12:56:38Z</time></trkpt>
<trkpt lat="53.0918820000" lon="-4.1260200000"><ele>361</ele><time>2016-10-15T12:56:39Z</time></trkpt>
<trkpt lat="53.0919960000" lon="-4.1259000000"><ele>361</ele><time>2016-10-15T12:56:40Z</time></trkpt>
<trkpt lat="53.0920040000" lon="-4.1258850000"><ele>361</ele><time>2016-10-15T12:56:41Z</time></trkpt>
<trkpt lat="53.0920130000" lon="-4.1258710000"><ele>361</ele><time>2016-10-15T12:56:42Z</time></trkpt>
<trkpt lat="53.0920240000" lon="-4.1258620000"><ele>361</ele><time>2016-10-15T12:56:43Z</time></trkpt>
<trkpt lat="53.0920330000" lon="-4.1258510000"><ele>360</ele><time>2016-10-15T12:56:44Z</time></trkpt>
<trkpt lat="53.0920430000" lon="-4.1258390000"><ele>360</ele><time>2016-10-15T12:56:45Z</time></trkpt>
<trkpt lat="53.0920530000" lon="-4.1258280000"><ele>360</ele><time>2016-10-15T12:56:46Z</time></trkpt>
<trkpt lat="53.0920630000" lon="-4.1258170000"><ele>360</ele><time>2016-10-15T12:56:47Z</time></trkpt>
<trkpt lat="53.0920750000" lon="-4.1258050000"><ele>359</ele><time>2016-10-15T12:56:48Z</time></trkpt>
<trkpt lat="53.0920850000" lon="-4.1257880000"><ele>359</ele><time>2016-10-15T12:56:49Z</time></trkpt>
<trkpt lat="53.0920940000" lon="-4.1257750000"><ele>359</ele><time>2016-10-15T12:56:50Z</time></trkpt>
<trkpt lat="53.0921040000" lon="-4.1257610000"><ele>359</ele><time>2016-10-15T12:56:51Z</time></trkpt>
<trkpt lat="53.0921140000" lon="-4.1257460000"><ele>359</ele><time>2016-10-15T12:56:52Z</time></trkpt>
<trkpt lat="53.0921240000" lon="-4.1257320000"><ele>359</ele><time>2016-10-15T12:56:53Z</time></trkpt>
<trkpt lat="53.0921330000" lon="-4.1257190000"><ele>358</ele><time>2016-10-15T12:56:54Z</time></trkpt>
<trkpt lat="53.0921420000" lon="-4.1257070000"><ele>358</ele><time>2016-10-15T12:56:55Z</time></trkpt>
<trkpt lat="53.0921510000" lon="-4.1256960000"><ele>358</ele><time>2016-10-15T12:56:56Z</time></trkpt>
<trkpt lat="53.0921600000" lon="-4.1256840000"><ele>358</ele><time>2016-10-15T12:56:57Z</time></trkpt>
<trkpt lat="53.0921690000" lon="-4.1256730000"><ele>358</ele><time>2016-10-15T12:56:58Z</time></trkpt>
<trkpt lat="53.0921780000" lon="-4.1256610000"><ele>357</ele><time>2016-10-15T12:56:59Z</time></trkpt>
<trkpt lat="53.0921880000" lon="-4.1256480000"><ele>357</ele><time>2016-10-15T12:57:00Z</time></trkpt>
<trkpt lat="53.0921970000" lon="-4.1256330000"><ele>357</ele><time>2016-10-15T12:57:01Z</time></trkpt>
<trkpt lat="53.0922070000" lon="-4.1256210000"><ele>357</ele><time>2016-10-15T12:57:02Z</time></trkpt>
<trkpt lat="53.0922170000" lon="-4.1256080000"><ele>357</ele><time>2016-10-15T12:57:03Z</time></trkpt>
<trkpt lat="53.0922270000" lon="-4.1255950000"><ele>356</ele><time>2016-10-15T12:57:04Z</time></trkpt>
<trkpt lat="53.0922380000" lon="-4.1255800000"><ele>356</ele><time>2016-10-15T12:57:05Z</time></trkpt>
<trkpt lat="53.0922490000" lon="-4.1255660000"><ele>356</ele><time>2016-10-15T12:57:06Z</time></trkpt>
<trkpt lat="53.0922600000" lon="-4.1255550000"><ele>356</ele><time>2016-10-15T12:57:07Z</time></trkpt>
<trkpt lat="53.0922700000" lon="-4.1255430000"><ele>356</ele><time>2016-10-15T12:57:08Z</time></trkpt>
<trkpt lat="53.0922820000" lon="-4.1255310000"><ele>356</ele><time>2016-10-15T12:57:09Z</time></trkpt>
<trkpt lat="53.0922930000" lon="-4.1255190000"><ele>356</ele><time>2016-10-15T12:57:10Z</time></trkpt>
<trkpt lat="53.0923030000" lon="-4.1255040000"><ele>356</ele><time>2016-10-15T12:57:11Z</time></trkpt>
<trkpt lat="53.0923120000" lon="-4.1254900000"><ele>356</ele><time>2016-10-15T12:57:12Z</time></trkpt>
<trkpt lat="53.0923180000" lon="-4.1254750000"><ele>355</ele><time>2016-10-15T12:57:13Z</time></trkpt>
<trkpt lat="53.0923260000" lon="-4.1254590000"><ele>355</ele><time>2016-10-15T12:57:14Z</time></trkpt>
<trkpt lat="53.0923350000" lon="-4.1254420000"><ele>355</ele><time>2016-10-15T12:57:15Z</time></trkpt>
<trkpt lat="53.0923440000" lon="-4.1254260000"><ele>355</ele><time>2016-10-15T12:57:16Z</time></trkpt>
<trkpt lat="53.0923530000" lon="-4.1254120000"><ele>355</ele><time>2016-10-15T12:57:17Z</time></trkpt>
<trkpt lat="53.0923620000" lon="-4.1253990000"><ele>355</ele><time>2016-10-15T12:57:18Z</time></trkpt>
<trkpt lat="53.0923690000" lon="-4.1253860000"><ele>355</ele><time>2016-10-15T12:57:19Z</time></trkpt>
<trkpt lat="53.0923690000" lon="-4.1253860000"><ele>355</ele><time>2016-10-15T12:57:20Z</time></trkpt>
<trkpt lat="53.0923700000" lon="-4.1253860000"><ele>355</ele><time>2016-10-15T12:57:21Z</time></trkpt>
<trkpt lat="53.0923700000" lon="-4.1253850000"><ele>354</ele><time>2016-10-15T12:57:23Z</time></trkpt>
<trkpt lat="53.0923710000" lon="-4.1253840000"><ele>354</ele><time>2016-10-15T12:57:24Z</time></trkpt>
<trkpt lat="53.0924190000" lon="-4.1252930000"><ele>354</ele><time>2016-10-15T12:57:25Z</time></trkpt>
<trkpt lat="53.0924290000" lon="-4.1252770000"><ele>354</ele><time>2016-10-15T12:57:26Z</time></trkpt>
<trkpt lat="53.0924400000" lon="-4.1252600000"><ele>354</ele><time>2016-10-15T12:57:27Z</time></trkpt>
<trkpt lat="53.0924490000" lon="-4.1252420000"><ele>354</ele><time>2016-10-15T12:57:28Z</time></trkpt>
<trkpt lat="53.0924580000" lon="-4.1252270000"><ele>354</ele><time>2016-10-15T12:57:29Z</time></trkpt>
<trkpt lat="53.0924650000" lon="-4.1252140000"><ele>354</ele><time>2016-10-15T12:57:30Z</time></trkpt>
<trkpt lat="53.0924650000" lon="-4.1252140000"><ele>354</ele><time>2016-10-15T12:57:31Z</time></trkpt>
<trkpt lat="53.0924650000" lon="-4.1252140000"><ele>354</ele><time>2016-10-15T12:57:32Z</time></trkpt>
<trkpt lat="53.0924660000" lon="-4.1252130000"><ele>354</ele><time>2016-10-15T12:57:33Z</time></trkpt>
<trkpt lat="53.0924660000" lon="-4.1252130000"><ele>353</ele><time>2016-10-15T12:57:34Z</time></trkpt>
<trkpt lat="53.0924670000" lon="-4.1252110000"><ele>353</ele><time>2016-10-15T12:57:35Z</time></trkpt>
<trkpt lat="53.0925130000" lon="-4.1251400000"><ele>353</ele><time>2016-10-15T12:57:36Z</time></trkpt>
<trkpt lat="53.0925220000" lon="-4.1251270000"><ele>353</ele><time>2016-10-15T12:57:37Z</time></trkpt>
<trkpt lat="53.0925320000" lon="-4.1251150000"><ele>353</ele><time>2016-10-15T12:57:38Z</time></trkpt>
<trkpt lat="53.0925450000" lon="-4.1251040000"><ele>353</ele><time>2016-10-15T12:57:39Z</time></trkpt>
<trkpt lat="53.0925550000" lon="-4.1250930000"><ele>353</ele><time>2016-10-15T12:57:40Z</time></trkpt>
<trkpt lat="53.0925640000" lon="-4.1250830000"><ele>353</ele><time>2016-10-15T12:57:41Z</time></trkpt>
<trkpt lat="53.0925640000" lon="-4.1250830000"><ele>352</ele><time>2016-10-15T12:57:42Z</time></trkpt>
<trkpt lat="53.0925640000" lon="-4.1250820000"><ele>352</ele><time>2016-10-15T12:57:43Z</time></trkpt>
<trkpt lat="53.0925650000" lon="-4.1250820000"><ele>352</ele><time>2016-10-15T12:57:44Z</time></trkpt>
<trkpt lat="53.0925650000" lon="-4.1250810000"><ele>352</ele><time>2016-10-15T12:57:45Z</time></trkpt>
<trkpt lat="53.0925660000" lon="-4.1250810000"><ele>352</ele><time>2016-10-15T12:57:46Z</time></trkpt>
<trkpt lat="53.0925680000" lon="-4.1250790000"><ele>352</ele><time>2016-10-15T12:57:47Z</time></trkpt>
<trkpt lat="53.0925690000" lon="-4.1250780000"><ele>351</ele><time>2016-10-15T12:57:48Z</time></trkpt>
<trkpt lat="53.0925720000" lon="-4.1250760000"><ele>351</ele><time>2016-10-15T12:57:49Z</time></trkpt>
<trkpt lat="53.0925750000" lon="-4.1250740000"><ele>351</ele><time>2016-10-15T12:57:50Z</time></trkpt>
<trkpt lat="53.0925780000" lon="-4.1250720000"><ele>351</ele><time>2016-10-15T12:57:51Z</time></trkpt>
<trkpt lat="53.0925810000" lon="-4.1250690000"><ele>351</ele><time>2016-10-15T12:57:52Z</time></trkpt>
<trkpt lat="53.0926870000" lon="-4.1249790000"><ele>351</ele><time>2016-10-15T12:57:53Z</time></trkpt>
<trkpt lat="53.0926960000" lon="-4.1249640000"><ele>351</ele><time>2016-10-15T12:57:54Z</time></trkpt>
<trkpt lat="53.0927060000" lon="-4.1249500000"><ele>351</ele><time>2016-10-15T12:57:55Z</time></trkpt>
<trkpt lat="53.0927180000" lon="-4.1249420000"><ele>351</ele><time>2016-10-15T12:57:56Z</time></trkpt>
<trkpt lat="53.0927290000" lon="-4.1249330000"><ele>351</ele><time>2016-10-15T12:57:57Z</time></trkpt>
<trkpt lat="53.0927410000" lon="-4.1249230000"><ele>350</ele><time>2016-10-15T12:57:58Z</time></trkpt>
<trkpt lat="53.0927510000" lon="-4.1249100000"><ele>350</ele><time>2016-10-15T12:57:59Z</time></trkpt>
<trkpt lat="53.0927620000" lon="-4.1248980000"><ele>350</ele><time>2016-10-15T12:58:00Z</time></trkpt>
<trkpt lat="53.0927750000" lon="-4.1248890000"><ele>350</ele><time>2016-10-15T12:58:01Z</time></trkpt>
<trkpt lat="53.0927870000" lon="-4.1248820000"><ele>350</ele><time>2016-10-15T12:58:02Z</time></trkpt>
<trkpt lat="53.0927990000" lon="-4.1248770000"><ele>350</ele><time>2016-10-15T12:58:03Z</time></trkpt>
<trkpt lat="53.0928100000" lon="-4.1248680000"><ele>350</ele><time>2016-10-15T12:58:04Z</time></trkpt>
<trkpt lat="53.0928220000" lon="-4.1248620000"><ele>350</ele><time>2016-10-15T12:58:05Z</time></trkpt>
<trkpt lat="53.0928360000" lon="-4.1248560000"><ele>350</ele><time>2016-10-15T12:58:06Z</time></trkpt>
<trkpt lat="53.0928490000" lon="-4.1248500000"><ele>350</ele><time>2016-10-15T12:58:07Z</time></trkpt>
<trkpt lat="53.0928610000" lon="-4.1248450000"><ele>350</ele><time>2016-10-15T12:58:08Z</time></trkpt>
<trkpt lat="53.0928750000" lon="-4.1248410000"><ele>350</ele><time>2016-10-15T12:58:09Z</time></trkpt>
<trkpt lat="53.0928890000" lon="-4.1248370000"><ele>350</ele><time>2016-10-15T12:58:10Z</time></trkpt>
<trkpt lat="53.0929000000" lon="-4.1248330000"><ele>350</ele><time>2016-10-15T12:58:11Z</time></trkpt>
<trkpt lat="53.0929110000" lon="-4.1248270000"><ele>350</ele><time>2016-10-15T12:58:12Z</time></trkpt>
<trkpt lat="53.0929230000" lon="-4.1248220000"><ele>350</ele><time>2016-10-15T12:58:13Z</time></trkpt>
<trkpt lat="53.0929330000" lon="-4.1248170000"><ele>350</ele><time>2016-10-15T12:58:14Z</time></trkpt>
<trkpt lat="53.0929440000" lon="-4.1248120000"><ele>350</ele><time>2016-10-15T12:58:15Z</time></trkpt>
<trkpt lat="53.0929550000" lon="-4.1248050000"><ele>350</ele><time>2016-10-15T12:58:16Z</time></trkpt>
<trkpt lat="53.0929650000" lon="-4.1248000000"><ele>349</ele><time>2016-10-15T12:58:17Z</time></trkpt>
<trkpt lat="53.0929740000" lon="-4.1247940000"><ele>349</ele><time>2016-10-15T12:58:18Z</time></trkpt>
<trkpt lat="53.0929850000" lon="-4.1247870000"><ele>349</ele><time>2016-10-15T12:58:19Z</time></trkpt>
<trkpt lat="53.0929860000" lon="-4.1247870000"><ele>349</ele><time>2016-10-15T12:58:20Z</time></trkpt>
<trkpt lat="53.0929860000" lon="-4.1247870000"><ele>349</ele><time>2016-10-15T12:58:21Z</time></trkpt>
<trkpt lat="53.0929870000" lon="-4.1247860000"><ele>349</ele><time>2016-10-15T12:58:23Z</time></trkpt>
<trkpt lat="53.0929880000" lon="-4.1247860000"><ele>348</ele><time>2016-10-15T12:58:24Z</time></trkpt>
<trkpt lat="53.0929890000" lon="-4.1247850000"><ele>348</ele><time>2016-10-15T12:58:25Z</time></trkpt>
<trkpt lat="53.0929910000" lon="-4.1247840000"><ele>348</ele><time>2016-10-15T12:58:26Z</time></trkpt>
<trkpt lat="53.0930780000" lon="-4.1247440000"><ele>348</ele><time>2016-10-15T12:58:27Z</time></trkpt>
<trkpt lat="53.0930910000" lon="-4.1247420000"><ele>348</ele><time>2016-10-15T12:58:28Z</time></trkpt>
<trkpt lat="53.0931040000" lon="-4.1247360000"><ele>348</ele><time>2016-10-15T12:58:29Z</time></trkpt>
<trkpt lat="53.0931150000" lon="-4.1247330000"><ele>348</ele><time>2016-10-15T12:58:30Z</time></trkpt>
<trkpt lat="53.0931260000" lon="-4.1247300000"><ele>348</ele><time>2016-10-15T12:58:31Z</time></trkpt>
<trkpt lat="53.0931360000" lon="-4.1247290000"><ele>348</ele><time>2016-10-15T12:58:32Z</time></trkpt>
<trkpt lat="53.0931450000" lon="-4.1247300000"><ele>347</ele><time>2016-10-15T12:58:33Z</time></trkpt>
<trkpt lat="53.0931550000" lon="-4.1247300000"><ele>347</ele><time>2016-10-15T12:58:34Z</time></trkpt>
<trkpt lat="53.0931550000" lon="-4.1247300000"><ele>347</ele><time>2016-10-15T12:58:35Z</time></trkpt>
<trkpt lat="53.0931550000" lon="-4.1247300000"><ele>347</ele><time>2016-10-15T12:58:36Z</time></trkpt>
<trkpt lat="53.0931550000" lon="-4.1247300000"><ele>347</ele><time>2016-10-15T12:58:37Z</time></trkpt>
<trkpt lat="53.0931560000" lon="-4.1247300000"><ele>346</ele><time>2016-10-15T12:58:38Z</time></trkpt>
<trkpt lat="53.0931560000" lon="-4.1247300000"><ele>346</ele><time>2016-10-15T12:58:39Z</time></trkpt>
<trkpt lat="53.0931570000" lon="-4.1247300000"><ele>346</ele><time>2016-10-15T12:58:40Z</time></trkpt>
<trkpt lat="53.0931590000" lon="-4.1247300000"><ele>346</ele><time>2016-10-15T12:58:41Z</time></trkpt>
<trkpt lat="53.0931600000" lon="-4.1247300000"><ele>345</ele><time>2016-10-15T12:58:42Z</time></trkpt>
<trkpt lat="53.0931620000" lon="-4.1247300000"><ele>345</ele><time>2016-10-15T12:58:43Z</time></trkpt>
<trkpt lat="53.0931650000" lon="-4.1247300000"><ele>345</ele><time>2016-10-15T12:58:44Z</time></trkpt>
<trkpt lat="53.0931680000" lon="-4.1247310000"><ele>344</ele><time>2016-10-15T12:58:45Z</time></trkpt>
<trkpt lat="53.0931710000" lon="-4.1247310000"><ele>344</ele><time>2016-10-15T12:58:46Z</time></trkpt>
<trkpt lat="53.0931750000" lon="-4.1247310000"><ele>344</ele><time>2016-10-15T12:58:47Z</time></trkpt>
<trkpt lat="53.0931790000" lon="-4.1247310000"><ele>344</ele><time>2016-10-15T12:58:48Z</time></trkpt>
<trkpt lat="53.0931830000" lon="-4.1247300000"><ele>343</ele><time>2016-10-15T12:58:49Z</time></trkpt>
<trkpt lat="53.0931890000" lon="-4.1247300000"><ele>343</ele><time>2016-10-15T12:58:50Z</time></trkpt>
<trkpt lat="53.0931940000" lon="-4.1247300000"><ele>343</ele><time>2016-10-15T12:58:51Z</time></trkpt>
<trkpt lat="53.0932000000" lon="-4.1247300000"><ele>342</ele><time>2016-10-15T12:58:52Z</time></trkpt>
<trkpt lat="53.0932060000" lon="-4.1247300000"><ele>342</ele><time>2016-10-15T12:58:53Z</time></trkpt>
<trkpt lat="53.0932140000" lon="-4.1247300000"><ele>342</ele><time>2016-10-15T12:58:54Z</time></trkpt>
<trkpt lat="53.0932220000" lon="-4.1247290000"><ele>342</ele><time>2016-10-15T12:58:55Z</time></trkpt>
<trkpt lat="53.0932290000" lon="-4.1247280000"><ele>342</ele><time>2016-10-15T12:58:56Z</time></trkpt>
<trkpt lat="53.0932680000" lon="-4.1247220000"><ele>340</ele><time>2016-10-15T12:59:03Z</time></trkpt>
<trkpt lat="53.0933490000" lon="-4.1246890000"><ele>340</ele><time>2016-10-15T12:59:05Z</time></trkpt>
<trkpt lat="53.0933500000" lon="-4.1246920000"><ele>340</ele><time>2016-10-15T12:59:06Z</time></trkpt>
<trkpt lat="53.0933560000" lon="-4.1246930000"><ele>340</ele><time>2016-10-15T12:59:07Z</time></trkpt>
<trkpt lat="53.0933560000" lon="-4.1246930000"><ele>340</ele><time>2016-10-15T12:59:08Z</time></trkpt>
<trkpt lat="53.0933570000" lon="-4.1246930000"><ele>340</ele><time>2016-10-15T12:59:09Z</time></trkpt>
<trkpt lat="53.0933570000" lon="-4.1246930000"><ele>340</ele><time>2016-10-15T12:59:10Z</time></trkpt>
<trkpt lat="53.0933570000" lon="-4.1246930000"><ele>340</ele><time>2016-10-15T12:59:11Z</time></trkpt>
<trkpt lat="53.0933580000" lon="-4.1246930000"><ele>340</ele><time>2016-10-15T12:59:12Z</time></trkpt>
<trkpt lat="53.0933580000" lon="-4.1246930000"><ele>339</ele><time>2016-10-15T12:59:13Z</time></trkpt>
<trkpt lat="53.0933590000" lon="-4.1246930000"><ele>339</ele><time>2016-10-15T12:59:14Z</time></trkpt>
<trkpt lat="53.0933600000" lon="-4.1246930000"><ele>339</ele><time>2016-10-15T12:59:15Z</time></trkpt>
<trkpt lat="53.0933610000" lon="-4.1246930000"><ele>339</ele><time>2016-10-15T12:59:16Z</time></trkpt>
<trkpt lat="53.0933620000" lon="-4.1246930000"><ele>339</ele><time>2016-10-15T12:59:17Z</time></trkpt>
<trkpt lat="53.0933640000" lon="-4.1246920000"><ele>339</ele><time>2016-10-15T12:59:18Z</time></trkpt>
<trkpt lat="53.0933650000" lon="-4.1246920000"><ele>339</ele><time>2016-10-15T12:59:19Z</time></trkpt>
<trkpt lat="53.0933670000" lon="-4.1246920000"><ele>339</ele><time>2016-10-15T12:59:20Z</time></trkpt>
<trkpt lat="53.0933680000" lon="-4.1246920000"><ele>339</ele><time>2016-10-15T12:59:21Z</time></trkpt>
<trkpt lat="53.0933720000" lon="-4.1246920000"><ele>339</ele><time>2016-10-15T12:59:23Z</time></trkpt>
<trkpt lat="53.0933740000" lon="-4.1246920000"><ele>339</ele><time>2016-10-15T12:59:24Z</time></trkpt>
<trkpt lat="53.0933760000" lon="-4.1246930000"><ele>339</ele><time>2016-10-15T12:59:25Z</time></trkpt>
<trkpt lat="53.0933790000" lon="-4.1246930000"><ele>339</ele><time>2016-10-15T12:59:26Z</time></trkpt>
<trkpt lat="53.0933830000" lon="-4.1246930000"><ele>339</ele><time>2016-10-15T12:59:27Z</time></trkpt>
<trkpt lat="53.0933870000" lon="-4.1246930000"><ele>339</ele><time>2016-10-15T12:59:28Z</time></trkpt>
<trkpt lat="53.0933910000" lon="-4.1246930000"><ele>339</ele><time>2016-10-15T12:59:29Z</time></trkpt>
<trkpt lat="53.0933960000" lon="-4.1246930000"><ele>339</ele><time>2016-10-15T12:59:30Z</time></trkpt>
<trkpt lat="53.0934020000" lon="-4.1246930000"><ele>339</ele><time>2016-10-15T12:59:31Z</time></trkpt>
<trkpt lat="53.0934070000" lon="-4.1246930000"><ele>339</ele><time>2016-10-15T12:59:32Z</time></trkpt>
<trkpt lat="53.0934140000" lon="-4.1246930000"><ele>339</ele><time>2016-10-15T12:59:33Z</time></trkpt>
<trkpt lat="53.0934200000" lon="-4.1246930000"><ele>339</ele><time>2016-10-15T12:59:34Z</time></trkpt>
<trkpt lat="53.0934270000" lon="-4.1246930000"><ele>339</ele><time>2016-10-15T12:59:35Z</time></trkpt>
<trkpt lat="53.0934350000" lon="-4.1246930000"><ele>339</ele><time>2016-10-15T12:59:36Z</time></trkpt>
<trkpt lat="53.0934420000" lon="-4.1246930000"><ele>339</ele><time>2016-10-15T12:59:37Z</time></trkpt>
<trkpt lat="53.0934500000" lon="-4.1246920000"><ele>339</ele><time>2016-10-15T12:59:38Z</time></trkpt>
<trkpt lat="53.0934590000" lon="-4.1246910000"><ele>339</ele><time>2016-10-15T12:59:39Z</time></trkpt>
<trkpt lat="53.0934670000" lon="-4.1246900000"><ele>339</ele><time>2016-10-15T12:59:40Z</time></trkpt>
<trkpt lat="53.0934760000" lon="-4.1246890000"><ele>338</ele><time>2016-10-15T12:59:41Z</time></trkpt>
<trkpt lat="53.0934860000" lon="-4.1246880000"><ele>338</ele><time>2016-10-15T12:59:42Z</time></trkpt>
<trkpt lat="53.0936500000" lon="-4.1246630000"><ele>338</ele><time>2016-10-15T12:59:43Z</time></trkpt>
<trkpt lat="53.0936630000" lon="-4.1246580000"><ele>338</ele><time>2016-10-15T12:59:44Z</time></trkpt>
<trkpt lat="53.0936760000" lon="-4.1246540000"><ele>338</ele><time>2016-10-15T12:59:45Z</time></trkpt>
<trkpt lat="53.0936910000" lon="-4.1246490000"><ele>338</ele><time>2016-10-15T12:59:46Z</time></trkpt>
<trkpt lat="53.0937050000" lon="-4.1246460000"><ele>339</ele><time>2016-10-15T12:59:47Z</time></trkpt>
<trkpt lat="53.0937180000" lon="-4.1246400000"><ele>339</ele><time>2016-10-15T12:59:48Z</time></trkpt>
<trkpt lat="53.0937300000" lon="-4.1246310000"><ele>339</ele><time>2016-10-15T12:59:49Z</time></trkpt>
<trkpt lat="53.0937410000" lon="-4.1246240000"><ele>339</ele><time>2016-10-15T12:59:50Z</time></trkpt>
<trkpt lat="53.0937510000" lon="-4.1246150000"><ele>339</ele><time>2016-10-15T12:59:51Z</time></trkpt>
<trkpt lat="53.0937620000" lon="-4.1246070000"><ele>339</ele><time>2016-10-15T12:59:52Z</time></trkpt>
<trkpt lat="53.0937730000" lon="-4.1246010000"><ele>339</ele><time>2016-10-15T12:59:53Z</time></trkpt>
<trkpt lat="53.0937850000" lon="-4.1245940000"><ele>339</ele><time>2016-10-15T12:59:54Z</time></trkpt>
<trkpt lat="53.0937960000" lon="-4.1245890000"><ele>339</ele><time>2016-10-15T12:59:55Z</time></trkpt>
<trkpt lat="53.0938080000" lon="-4.1245860000"><ele>339</ele><time>2016-10-15T12:59:56Z</time></trkpt>
<trkpt lat="53.0938200000" lon="-4.1245790000"><ele>339</ele><time>2016-10-15T12:59:57Z</time></trkpt>
<trkpt lat="53.0938300000" lon="-4.1245700000"><ele>339</ele><time>2016-10-15T12:59:58Z</time></trkpt>
<trkpt lat="53.0938430000" lon="-4.1245600000"><ele>339</ele><time>2016-10-15T12:59:59Z</time></trkpt>
<trkpt lat="53.0938550000" lon="-4.1245490000"><ele>339</ele><time>2016-10-15T13:00:00Z</time></trkpt>
<trkpt lat="53.0938680000" lon="-4.1245400000"><ele>339</ele><time>2016-10-15T13:00:01Z</time></trkpt>
<trkpt lat="53.0938770000" lon="-4.1245360000"><ele>339</ele><time>2016-10-15T13:00:02Z</time></trkpt>
<trkpt lat="53.0938880000" lon="-4.1245290000"><ele>338</ele><time>2016-10-15T13:00:03Z</time></trkpt>
<trkpt lat="53.0939010000" lon="-4.1245200000"><ele>338</ele><time>2016-10-15T13:00:04Z</time></trkpt>
<trkpt lat="53.0939130000" lon="-4.1245130000"><ele>338</ele><time>2016-10-15T13:00:05Z</time></trkpt>
<trkpt lat="53.0939250000" lon="-4.1245070000"><ele>338</ele><time>2016-10-15T13:00:06Z</time></trkpt>
<trkpt lat="53.0939370000" lon="-4.1245000000"><ele>338</ele><time>2016-10-15T13:00:07Z</time></trkpt>
<trkpt lat="53.0939500000" lon="-4.1244910000"><ele>338</ele><time>2016-10-15T13:00:08Z</time></trkpt>
<trkpt lat="53.0939620000" lon="-4.1244810000"><ele>338</ele><time>2016-10-15T13:00:09Z</time></trkpt>
<trkpt lat="53.0939750000" lon="-4.1244710000"><ele>338</ele><time>2016-10-15T13:00:10Z</time></trkpt>
<trkpt lat="53.0939880000" lon="-4.1244610000"><ele>338</ele><time>2016-10-15T13:00:11Z</time></trkpt>
<trkpt lat="53.0940000000" lon="-4.1244520000"><ele>338</ele><time>2016-10-15T13:00:12Z</time></trkpt>
<trkpt lat="53.0940120000" lon="-4.1244420000"><ele>338</ele><time>2016-10-15T13:00:13Z</time></trkpt>
<trkpt lat="53.0940250000" lon="-4.1244300000"><ele>339</ele><time>2016-10-15T13:00:14Z</time></trkpt>
<trkpt lat="53.0940360000" lon="-4.1244180000"><ele>339</ele><time>2016-10-15T13:00:15Z</time></trkpt>
<trkpt lat="53.0940470000" lon="-4.1244070000"><ele>339</ele><time>2016-10-15T13:00:16Z</time></trkpt>
<trkpt lat="53.0940550000" lon="-4.1243990000"><ele>339</ele><time>2016-10-15T13:00:17Z</time></trkpt>
<trkpt lat="53.0940620000" lon="-4.1243930000"><ele>339</ele><time>2016-10-15T13:00:18Z</time></trkpt>
<trkpt lat="53.0940630000" lon="-4.1243930000"><ele>339</ele><time>2016-10-15T13:00:19Z</time></trkpt>
<trkpt lat="53.0940630000" lon="-4.1243930000"><ele>339</ele><time>2016-10-15T13:00:20Z</time></trkpt>
<trkpt lat="53.0940630000" lon="-4.1243920000"><ele>339</ele><time>2016-10-15T13:00:21Z</time></trkpt>
<trkpt lat="53.0940650000" lon="-4.1243910000"><ele>339</ele><time>2016-10-15T13:00:23Z</time></trkpt>
<trkpt lat="53.0940670000" lon="-4.1243890000"><ele>339</ele><time>2016-10-15T13:00:24Z</time></trkpt>
<trkpt lat="53.0940690000" lon="-4.1243870000"><ele>339</ele><time>2016-10-15T13:00:25Z</time></trkpt>
<trkpt lat="53.0941500000" lon="-4.1243170000"><ele>338</ele><time>2016-10-15T13:00:26Z</time></trkpt>
<trkpt lat="53.0941610000" lon="-4.1243080000"><ele>338</ele><time>2016-10-15T13:00:27Z</time></trkpt>
<trkpt lat="53.0941700000" lon="-4.1243000000"><ele>338</ele><time>2016-10-15T13:00:28Z</time></trkpt>
<trkpt lat="53.0941710000" lon="-4.1243000000"><ele>338</ele><time>2016-10-15T13:00:29Z</time></trkpt>
<trkpt lat="53.0941710000" lon="-4.1243000000"><ele>338</ele><time>2016-10-15T13:00:30Z</time></trkpt>
<trkpt lat="53.0941710000" lon="-4.1243000000"><ele>338</ele><time>2016-10-15T13:00:31Z</time></trkpt>
<trkpt lat="53.0941720000" lon="-4.1242990000"><ele>338</ele><time>2016-10-15T13:00:32Z</time></trkpt>
<trkpt lat="53.0941740000" lon="-4.1242990000"><ele>338</ele><time>2016-10-15T13:00:33Z</time></trkpt>
<trkpt lat="53.0941760000" lon="-4.1242980000"><ele>338</ele><time>2016-10-15T13:00:34Z</time></trkpt>
<trkpt lat="53.0941780000" lon="-4.1242970000"><ele>338</ele><time>2016-10-15T13:00:35Z</time></trkpt>
<trkpt lat="53.0942740000" lon="-4.1242560000"><ele>338</ele><time>2016-10-15T13:00:36Z</time></trkpt>
<trkpt lat="53.0942880000" lon="-4.1242510000"><ele>338</ele><time>2016-10-15T13:00:37Z</time></trkpt>
<trkpt lat="53.0943010000" lon="-4.1242480000"><ele>338</ele><time>2016-10-15T13:00:38Z</time></trkpt>
<trkpt lat="53.0943130000" lon="-4.1242430000"><ele>338</ele><time>2016-10-15T13:00:39Z</time></trkpt>
<trkpt lat="53.0943260000" lon="-4.1242400000"><ele>338</ele><time>2016-10-15T13:00:40Z</time></trkpt>
<trkpt lat="53.0943390000" lon="-4.1242380000"><ele>338</ele><time>2016-10-15T13:00:41Z</time></trkpt>
<trkpt lat="53.0943500000" lon="-4.1242350000"><ele>338</ele><time>2016-10-15T13:00:42Z</time></trkpt>
<trkpt lat="53.0943620000" lon="-4.1242320000"><ele>337</ele><time>2016-10-15T13:00:43Z</time></trkpt>
<trkpt lat="53.0943760000" lon="-4.1242280000"><ele>337</ele><time>2016-10-15T13:00:44Z</time></trkpt>
<trkpt lat="53.0943880000" lon="-4.1242240000"><ele>337</ele><time>2016-10-15T13:00:45Z</time></trkpt>
<trkpt lat="53.0943980000" lon="-4.1242210000"><ele>337</ele><time>2016-10-15T13:00:46Z</time></trkpt>
<trkpt lat="53.0944100000" lon="-4.1242140000"><ele>337</ele><time>2016-10-15T13:00:47Z</time></trkpt>
<trkpt lat="53.0944240000" lon="-4.1242080000"><ele>337</ele><time>2016-10-15T13:00:48Z</time></trkpt>
<trkpt lat="53.0944370000" lon="-4.1242060000"><ele>337</ele><time>2016-10-15T13:00:49Z</time></trkpt>
<trkpt lat="53.0944510000" lon="-4.1242040000"><ele>337</ele><time>2016-10-15T13:00:50Z</time></trkpt>
<trkpt lat="53.0944630000" lon="-4.1242020000"><ele>337</ele><time>2016-10-15T13:00:51Z</time></trkpt>
<trkpt lat="53.0944750000" lon="-4.1241980000"><ele>337</ele><time>2016-10-15T13:00:52Z</time></trkpt>
<trkpt lat="53.0944850000" lon="-4.1241940000"><ele>336</ele><time>2016-10-15T13:00:53Z</time></trkpt>
<trkpt lat="53.0944990000" lon="-4.1241900000"><ele>336</ele><time>2016-10-15T13:00:54Z</time></trkpt>
<trkpt lat="53.0945100000" lon="-4.1241850000"><ele>336</ele><time>2016-10-15T13:00:55Z</time></trkpt>
<trkpt lat="53.0945210000" lon="-4.1241830000"><ele>336</ele><time>2016-10-15T13:00:56Z</time></trkpt>
<trkpt lat="53.0945340000" lon="-4.1241810000"><ele>336</ele><time>2016-10-15T13:00:57Z</time></trkpt>
<trkpt lat="53.0945460000" lon="-4.1241790000"><ele>336</ele><time>2016-10-15T13:00:58Z</time></trkpt>
<trkpt lat="53.0945590000" lon="-4.1241770000"><ele>336</ele><time>2016-10-15T13:00:59Z</time></trkpt>
<trkpt lat="53.0945700000" lon="-4.1241770000"><ele>336</ele><time>2016-10-15T13:01:00Z</time></trkpt>
<trkpt lat="53.0945820000" lon="-4.1241770000"><ele>336</ele><time>2016-10-15T13:01:01Z</time></trkpt>
<trkpt lat="53.0945820000" lon="-4.1241770000"><ele>335</ele><time>2016-10-15T13:01:02Z</time></trkpt>
<trkpt lat="53.0945820000" lon="-4.1241770000"><ele>335</ele><time>2016-10-15T13:01:03Z</time></trkpt>
<trkpt lat="53.0945820000" lon="-4.1241770000"><ele>335</ele><time>2016-10-15T13:01:04Z</time></trkpt>
<trkpt lat="53.0945830000" lon="-4.1241770000"><ele>335</ele><time>2016-10-15T13:01:05Z</time></trkpt>
<trkpt lat="53.0945840000" lon="-4.1241770000"><ele>335</ele><time>2016-10-15T13:01:06Z</time></trkpt>
<trkpt lat="53.0945860000" lon="-4.1241770000"><ele>335</ele><time>2016-10-15T13:01:07Z</time></trkpt>
<trkpt lat="53.0945870000" lon="-4.1241770000"><ele>335</ele><time>2016-10-15T13:01:08Z</time></trkpt>
<trkpt lat="53.0945900000" lon="-4.1241760000"><ele>334</ele><time>2016-10-15T13:01:09Z</time></trkpt>
<trkpt lat="53.0945920000" lon="-4.1241760000"><ele>334</ele><time>2016-10-15T13:01:10Z</time></trkpt>
<trkpt lat="53.0945950000" lon="-4.1241760000"><ele>334</ele><time>2016-10-15T13:01:11Z</time></trkpt>
<trkpt lat="53.0945980000" lon="-4.1241760000"><ele>334</ele><time>2016-10-15T13:01:12Z</time></trkpt>
<trkpt lat="53.0946010000" lon="-4.1241760000"><ele>334</ele><time>2016-10-15T13:01:13Z</time></trkpt>
<trkpt lat="53.0946040000" lon="-4.1241750000"><ele>334</ele><time>2016-10-15T13:01:14Z</time></trkpt>
<trkpt lat="53.0946070000" lon="-4.1241750000"><ele>334</ele><time>2016-10-15T13:01:15Z</time></trkpt>
<trkpt lat="53.0946100000" lon="-4.1241740000"><ele>334</ele><time>2016-10-15T13:01:16Z</time></trkpt>
<trkpt lat="53.0946140000" lon="-4.1241740000"><ele>334</ele><time>2016-10-15T13:01:17Z</time></trkpt>
<trkpt lat="53.0946180000" lon="-4.1241740000"><ele>333</ele><time>2016-10-15T13:01:18Z</time></trkpt>
<trkpt lat="53.0946230000" lon="-4.1241740000"><ele>333</ele><time>2016-10-15T13:01:19Z</time></trkpt>
<trkpt lat="53.0946290000" lon="-4.1241740000"><ele>333</ele><time>2016-10-15T13:01:20Z</time></trkpt>
<trkpt lat="53.0946340000" lon="-4.1241740000"><ele>333</ele><time>2016-10-15T13:01:21Z</time></trkpt>
<trkpt lat="53.0946470000" lon="-4.1241740000"><ele>333</ele><time>2016-10-15T13:01:23Z</time></trkpt>
<trkpt lat="53.0947780000" lon="-4.1241720000"><ele>333</ele><time>2016-10-15T13:01:24Z</time></trkpt>
<trkpt lat="53.0947920000" lon="-4.1241690000"><ele>333</ele><time>2016-10-15T13:01:25Z</time></trkpt>
<trkpt lat="53.0948080000" lon="-4.1241680000"><ele>333</ele><time>2016-10-15T13:01:26Z</time></trkpt>
<trkpt lat="53.0948220000" lon="-4.1241650000"><ele>333</ele><time>2016-10-15T13:01:27Z</time></trkpt>
<trkpt lat="53.0948370000" lon="-4.1241650000"><ele>333</ele><time>2016-10-15T13:01:28Z</time></trkpt>
<trkpt lat="53.0948510000" lon="-4.1241650000"><ele>333</ele><time>2016-10-15T13:01:29Z</time></trkpt>
<trkpt lat="53.0948630000" lon="-4.1241650000"><ele>332</ele><time>2016-10-15T13:01:30Z</time></trkpt>
<trkpt lat="53.0948740000" lon="-4.1241650000"><ele>332</ele><time>2016-10-15T13:01:31Z</time></trkpt>
<trkpt lat="53.0948880000" lon="-4.1241640000"><ele>332</ele><time>2016-10-15T13:01:32Z</time></trkpt>
<trkpt lat="53.0949010000" lon="-4.1241630000"><ele>332</ele><time>2016-10-15T13:01:33Z</time></trkpt>
<trkpt lat="53.0949110000" lon="-4.1241640000"><ele>332</ele><time>2016-10-15T13:01:34Z</time></trkpt>
<trkpt lat="53.0949220000" lon="-4.1241650000"><ele>332</ele><time>2016-10-15T13:01:35Z</time></trkpt>
<trkpt lat="53.0949220000" lon="-4.1241650000"><ele>332</ele><time>2016-10-15T13:01:36Z</time></trkpt>
<trkpt lat="53.0949220000" lon="-4.1241650000"><ele>332</ele><time>2016-10-15T13:01:37Z</time></trkpt>
<trkpt lat="53.0949230000" lon="-4.1241650000"><ele>332</ele><time>2016-10-15T13:01:38Z</time></trkpt>
<trkpt lat="53.0949230000" lon="-4.1241650000"><ele>332</ele><time>2016-10-15T13:01:39Z</time></trkpt>
<trkpt lat="53.0949250000" lon="-4.1241650000"><ele>332</ele><time>2016-10-15T13:01:40Z</time></trkpt>
<trkpt lat="53.0949260000" lon="-4.1241650000"><ele>332</ele><time>2016-10-15T13:01:41Z</time></trkpt>
<trkpt lat="53.0949280000" lon="-4.1241650000"><ele>331</ele><time>2016-10-15T13:01:42Z</time></trkpt>
<trkpt lat="53.0949310000" lon="-4.1241650000"><ele>331</ele><time>2016-10-15T13:01:43Z</time></trkpt>
<trkpt lat="53.0949340000" lon="-4.1241660000"><ele>331</ele><time>2016-10-15T13:01:44Z</time></trkpt>
<trkpt lat="53.0949370000" lon="-4.1241660000"><ele>331</ele><time>2016-10-15T13:01:45Z</time></trkpt>
<trkpt lat="53.0949420000" lon="-4.1241670000"><ele>331</ele><time>2016-10-15T13:01:46Z</time></trkpt>
<trkpt lat="53.0949470000" lon="-4.1241680000"><ele>331</ele><time>2016-10-15T13:01:47Z</time></trkpt>
<trkpt lat="53.0949520000" lon="-4.1241690000"><ele>331</ele><time>2016-10-15T13:01:48Z</time></trkpt>
<trkpt lat="53.0949580000" lon="-4.1241700000"><ele>331</ele><time>2016-10-15T13:01:49Z</time></trkpt>
<trkpt lat="53.0949640000" lon="-4.1241710000"><ele>331</ele><time>2016-10-15T13:01:50Z</time></trkpt>
<trkpt lat="53.0949710000" lon="-4.1241720000"><ele>331</ele><time>2016-10-15T13:01:51Z</time></trkpt>
<trkpt lat="53.0949790000" lon="-4.1241730000"><ele>331</ele><time>2016-10-15T13:01:52Z</time></trkpt>
<trkpt lat="53.0949870000" lon="-4.1241740000"><ele>331</ele><time>2016-10-15T13:01:53Z</time></trkpt>
<trkpt lat="53.0949950000" lon="-4.1241750000"><ele>331</ele><time>2016-10-15T13:01:54Z</time></trkpt>
<trkpt lat="53.0951730000" lon="-4.1241960000"><ele>331</ele><time>2016-10-15T13:01:55Z</time></trkpt>
<trkpt lat="53.0951840000" lon="-4.1241940000"><ele>331</ele><time>2016-10-15T13:01:56Z</time></trkpt>
<trkpt lat="53.0951930000" lon="-4.1241920000"><ele>331</ele><time>2016-10-15T13:01:57Z</time></trkpt>
<trkpt lat="53.0952050000" lon="-4.1241870000"><ele>331</ele><time>2016-10-15T13:01:58Z</time></trkpt>
<trkpt lat="53.0952150000" lon="-4.1241840000"><ele>331</ele><time>2016-10-15T13:01:59Z</time></trkpt>
<trkpt lat="53.0952260000" lon="-4.1241800000"><ele>331</ele><time>2016-10-15T13:02:00Z</time></trkpt>
<trkpt lat="53.0952260000" lon="-4.1241800000"><ele>331</ele><time>2016-10-15T13:02:01Z</time></trkpt>
<trkpt lat="53.0952260000" lon="-4.1241800000"><ele>331</ele><time>2016-10-15T13:02:02Z</time></trkpt>
<trkpt lat="53.0952270000" lon="-4.1241800000"><ele>331</ele><time>2016-10-15T13:02:03Z</time></trkpt>
<trkpt lat="53.0952280000" lon="-4.1241790000"><ele>331</ele><time>2016-10-15T13:02:04Z</time></trkpt>
<trkpt lat="53.0952290000" lon="-4.1241790000"><ele>331</ele><time>2016-10-15T13:02:05Z</time></trkpt>
<trkpt lat="53.0953070000" lon="-4.1241670000"><ele>330</ele><time>2016-10-15T13:02:06Z</time></trkpt>
<trkpt lat="53.0953210000" lon="-4.1241670000"><ele>330</ele><time>2016-10-15T13:02:07Z</time></trkpt>
<trkpt lat="53.0953330000" lon="-4.1241660000"><ele>330</ele><time>2016-10-15T13:02:08Z</time></trkpt>
<trkpt lat="53.0953440000" lon="-4.1241650000"><ele>330</ele><time>2016-10-15T13:02:09Z</time></trkpt>
<trkpt lat="53.0953570000" lon="-4.1241650000"><ele>330</ele><time>2016-10-15T13:02:10Z</time></trkpt>
<trkpt lat="53.0953700000" lon="-4.1241660000"><ele>330</ele><time>2016-10-15T13:02:11Z</time></trkpt>
<trkpt lat="53.0953820000" lon="-4.1241670000"><ele>330</ele><time>2016-10-15T13:02:12Z</time></trkpt>
<trkpt lat="53.0953930000" lon="-4.1241660000"><ele>329</ele><time>2016-10-15T13:02:13Z</time></trkpt>
<trkpt lat="53.0954050000" lon="-4.1241660000"><ele>329</ele><time>2016-10-15T13:02:14Z</time></trkpt>
<trkpt lat="53.0954190000" lon="-4.1241670000"><ele>329</ele><time>2016-10-15T13:02:15Z</time></trkpt>
<trkpt lat="53.0954300000" lon="-4.1241650000"><ele>329</ele><time>2016-10-15T13:02:16Z</time></trkpt>
<trkpt lat="53.0954430000" lon="-4.1241660000"><ele>329</ele><time>2016-10-15T13:02:17Z</time></trkpt>
<trkpt lat="53.0954540000" lon="-4.1241670000"><ele>328</ele><time>2016-10-15T13:02:18Z</time></trkpt>
<trkpt lat="53.0954670000" lon="-4.1241680000"><ele>328</ele><time>2016-10-15T13:02:19Z</time></trkpt>
<trkpt lat="53.0954800000" lon="-4.1241690000"><ele>328</ele><time>2016-10-15T13:02:20Z</time></trkpt>
<trkpt lat="53.0954940000" lon="-4.1241700000"><ele>328</ele><time>2016-10-15T13:02:21Z</time></trkpt>
<trkpt lat="53.0955170000" lon="-4.1241680000"><ele>328</ele><time>2016-10-15T13:02:23Z</time></trkpt>
<trkpt lat="53.0955270000" lon="-4.1241700000"><ele>328</ele><time>2016-10-15T13:02:24Z</time></trkpt>
<trkpt lat="53.0955360000" lon="-4.1241680000"><ele>328</ele><time>2016-10-15T13:02:25Z</time></trkpt>
<trkpt lat="53.0955460000" lon="-4.1241670000"><ele>328</ele><time>2016-10-15T13:02:26Z</time></trkpt>
<trkpt lat="53.0955570000" lon="-4.1241670000"><ele>328</ele><time>2016-10-15T13:02:27Z</time></trkpt>
<trkpt lat="53.0955700000" lon="-4.1241670000"><ele>328</ele><time>2016-10-15T13:02:28Z</time></trkpt>
<trkpt lat="53.0955800000" lon="-4.1241650000"><ele>328</ele><time>2016-10-15T13:02:29Z</time></trkpt>
<trkpt lat="53.0955800000" lon="-4.1241650000"><ele>327</ele><time>2016-10-15T13:02:31Z</time></trkpt>
<trkpt lat="53.0955810000" lon="-4.1241650000"><ele>327</ele><time>2016-10-15T13:02:32Z</time></trkpt>
<trkpt lat="53.0955810000" lon="-4.1241650000"><ele>327</ele><time>2016-10-15T13:02:33Z</time></trkpt>
<trkpt lat="53.0955820000" lon="-4.1241650000"><ele>327</ele><time>2016-10-15T13:02:34Z</time></trkpt>
<trkpt lat="53.0955840000" lon="-4.1241650000"><ele>327</ele><time>2016-10-15T13:02:35Z</time></trkpt>
<trkpt lat="53.0955860000" lon="-4.1241650000"><ele>327</ele><time>2016-10-15T13:02:36Z</time></trkpt>
<trkpt lat="53.0955880000" lon="-4.1241640000"><ele>327</ele><time>2016-10-15T13:02:37Z</time></trkpt>
<trkpt lat="53.0955910000" lon="-4.1241640000"><ele>327</ele><time>2016-10-15T13:02:38Z</time></trkpt>
<trkpt lat="53.0955940000" lon="-4.1241640000"><ele>327</ele><time>2016-10-15T13:02:39Z</time></trkpt>
<trkpt lat="53.0955980000" lon="-4.1241630000"><ele>326</ele><time>2016-10-15T13:02:40Z</time></trkpt>
<trkpt lat="53.0956020000" lon="-4.1241630000"><ele>326</ele><time>2016-10-15T13:02:41Z</time></trkpt>
<trkpt lat="53.0956060000" lon="-4.1241620000"><ele>326</ele><time>2016-10-15T13:02:42Z</time></trkpt>
<trkpt lat="53.0956090000" lon="-4.1241620000"><ele>326</ele><time>2016-10-15T13:02:43Z</time></trkpt>
<trkpt lat="53.0956150000" lon="-4.1241610000"><ele>326</ele><time>2016-10-15T13:02:44Z</time></trkpt>
<trkpt lat="53.0956220000" lon="-4.1241600000"><ele>326</ele><time>2016-10-15T13:02:45Z</time></trkpt>
<trkpt lat="53.0956280000" lon="-4.1241590000"><ele>326</ele><time>2016-10-15T13:02:46Z</time></trkpt>
<trkpt lat="53.0956360000" lon="-4.1241580000"><ele>326</ele><time>2016-10-15T13:02:47Z</time></trkpt>
<trkpt lat="53.0956430000" lon="-4.1241570000"><ele>326</ele><time>2016-10-15T13:02:48Z</time></trkpt>
<trkpt lat="53.0956510000" lon="-4.1241560000"><ele>326</ele><time>2016-10-15T13:02:49Z</time></trkpt>
<trkpt lat="53.0956600000" lon="-4.1241550000"><ele>326</ele><time>2016-10-15T13:02:50Z</time></trkpt>
<trkpt lat="53.0956690000" lon="-4.1241530000"><ele>326</ele><time>2016-10-15T13:02:51Z</time></trkpt>
<trkpt lat="53.0956780000" lon="-4.1241510000"><ele>326</ele><time>2016-10-15T13:02:52Z</time></trkpt>
<trkpt lat="53.0956880000" lon="-4.1241490000"><ele>326</ele><time>2016-10-15T13:02:53Z</time></trkpt>
<trkpt lat="53.0958630000" lon="-4.1241140000"><ele>326</ele><time>2016-10-15T13:02:54Z</time></trkpt>
<trkpt lat="53.0958740000" lon="-4.1241110000"><ele>326</ele><time>2016-10-15T13:02:55Z</time></trkpt>
<trkpt lat="53.0958850000" lon="-4.1241090000"><ele>326</ele><time>2016-10-15T13:02:56Z</time></trkpt>
<trkpt lat="53.0958960000" lon="-4.1241100000"><ele>326</ele><time>2016-10-15T13:02:57Z</time></trkpt>
<trkpt lat="53.0959090000" lon="-4.1241100000"><ele>326</ele><time>2016-10-15T13:02:58Z</time></trkpt>
<trkpt lat="53.0959210000" lon="-4.1241110000"><ele>325</ele><time>2016-10-15T13:02:59Z</time></trkpt>
<trkpt lat="53.0959340000" lon="-4.1241130000"><ele>325</ele><time>2016-10-15T13:03:00Z</time></trkpt>
<trkpt lat="53.0959460000" lon="-4.1241150000"><ele>325</ele><time>2016-10-15T13:03:01Z</time></trkpt>
<trkpt lat="53.0959590000" lon="-4.1241160000"><ele>325</ele><time>2016-10-15T13:03:02Z</time></trkpt>
<trkpt lat="53.0959730000" lon="-4.1241160000"><ele>325</ele><time>2016-10-15T13:03:03Z</time></trkpt>
<trkpt lat="53.0959860000" lon="-4.1241160000"><ele>325</ele><time>2016-10-15T13:03:04Z</time></trkpt>
<trkpt lat="53.0959960000" lon="-4.1241160000"><ele>325</ele><time>2016-10-15T13:03:05Z</time></trkpt>
<trkpt lat="53.0960100000" lon="-4.1241190000"><ele>324</ele><time>2016-10-15T13:03:06Z</time></trkpt>
<trkpt lat="53.0960210000" lon="-4.1241210000"><ele>324</ele><time>2016-10-15T13:03:07Z</time></trkpt>
<trkpt lat="53.0960320000" lon="-4.1241220000"><ele>324</ele><time>2016-10-15T13:03:08Z</time></trkpt>
<trkpt lat="53.0960440000" lon="-4.1241240000"><ele>324</ele><time>2016-10-15T13:03:09Z</time></trkpt>
<trkpt lat="53.0960570000" lon="-4.1241260000"><ele>324</ele><time>2016-10-15T13:03:10Z</time></trkpt>
<trkpt lat="53.0960690000" lon="-4.1241290000"><ele>324</ele><time>2016-10-15T13:03:11Z</time></trkpt>
<trkpt lat="53.0960770000" lon="-4.1241290000"><ele>323</ele><time>2016-10-15T13:03:12Z</time></trkpt>
<trkpt lat="53.0960780000" lon="-4.1241290000"><ele>323</ele><time>2016-10-15T13:03:13Z</time></trkpt>
<trkpt lat="53.0960780000" lon="-4.1241290000"><ele>323</ele><time>2016-10-15T13:03:14Z</time></trkpt>
<trkpt lat="53.0960780000" lon="-4.1241290000"><ele>323</ele><time>2016-10-15T13:03:15Z</time></trkpt>
<trkpt lat="53.0960790000" lon="-4.1241290000"><ele>323</ele><time>2016-10-15T13:03:16Z</time></trkpt>
<trkpt lat="53.0960800000" lon="-4.1241290000"><ele>323</ele><time>2016-10-15T13:03:17Z</time></trkpt>
<trkpt lat="53.0960820000" lon="-4.1241300000"><ele>323</ele><time>2016-10-15T13:03:18Z</time></trkpt>
<trkpt lat="53.0960840000" lon="-4.1241300000"><ele>323</ele><time>2016-10-15T13:03:19Z</time></trkpt>
<trkpt lat="53.0960870000" lon="-4.1241310000"><ele>322</ele><time>2016-10-15T13:03:20Z</time></trkpt>
<trkpt lat="53.0960900000" lon="-4.1241310000"><ele>322</ele><time>2016-10-15T13:03:21Z</time></trkpt>
<trkpt lat="53.0960980000" lon="-4.1241330000"><ele>322</ele><time>2016-10-15T13:03:23Z</time></trkpt>
<trkpt lat="53.0961030000" lon="-4.1241330000"><ele>322</ele><time>2016-10-15T13:03:24Z</time></trkpt>
<trkpt lat="53.0961090000" lon="-4.1241340000"><ele>322</ele><time>2016-10-15T13:03:25Z</time></trkpt>
<trkpt lat="53.0962510000" lon="-4.1241600000"><ele>322</ele><time>2016-10-15T13:03:26Z</time></trkpt>
<trkpt lat="53.0962650000" lon="-4.1241630000"><ele>322</ele><time>2016-10-15T13:03:27Z</time></trkpt>
<trkpt lat="53.0962780000" lon="-4.1241660000"><ele>321</ele><time>2016-10-15T13:03:28Z</time></trkpt>
<trkpt lat="53.0962910000" lon="-4.1241690000"><ele>321</ele><time>2016-10-15T13:03:29Z</time></trkpt>
<trkpt lat="53.0963060000" lon="-4.1241730000"><ele>321</ele><time>2016-10-15T13:03:30Z</time></trkpt>
<trkpt lat="53.0963190000" lon="-4.1241780000"><ele>321</ele><time>2016-10-15T13:03:31Z</time></trkpt>
<trkpt lat="53.0963290000" lon="-4.1241820000"><ele>321</ele><time>2016-10-15T13:03:32Z</time></trkpt>
<trkpt lat="53.0963410000" lon="-4.1241850000"><ele>321</ele><time>2016-10-15T13:03:33Z</time></trkpt>
<trkpt lat="53.0963540000" lon="-4.1241850000"><ele>320</ele><time>2016-10-15T13:03:34Z</time></trkpt>
<trkpt lat="53.0963650000" lon="-4.1241830000"><ele>320</ele><time>2016-10-15T13:03:35Z</time></trkpt>
<trkpt lat="53.0963780000" lon="-4.1241810000"><ele>320</ele><time>2016-10-15T13:03:36Z</time></trkpt>
<trkpt lat="53.0963900000" lon="-4.1241810000"><ele>320</ele><time>2016-10-15T13:03:37Z</time></trkpt>
<trkpt lat="53.0964020000" lon="-4.1241810000"><ele>320</ele><time>2016-10-15T13:03:38Z</time></trkpt>
<trkpt lat="53.0964170000" lon="-4.1241840000"><ele>320</ele><time>2016-10-15T13:03:39Z</time></trkpt>
<trkpt lat="53.0964310000" lon="-4.1241900000"><ele>320</ele><time>2016-10-15T13:03:40Z</time></trkpt>
<trkpt lat="53.0964440000" lon="-4.1241980000"><ele>320</ele><time>2016-10-15T13:03:41Z</time></trkpt>
<trkpt lat="53.0964560000" lon="-4.1242040000"><ele>319</ele><time>2016-10-15T13:03:42Z</time></trkpt>
<trkpt lat="53.0964660000" lon="-4.1242090000"><ele>319</ele><time>2016-10-15T13:03:43Z</time></trkpt>
<trkpt lat="53.0964790000" lon="-4.1242130000"><ele>319</ele><time>2016-10-15T13:03:44Z</time></trkpt>
<trkpt lat="53.0964910000" lon="-4.1242150000"><ele>319</ele><time>2016-10-15T13:03:45Z</time></trkpt>
<trkpt lat="53.0965040000" lon="-4.1242170000"><ele>319</ele><time>2016-10-15T13:03:46Z</time></trkpt>
<trkpt lat="53.0965170000" lon="-4.1242190000"><ele>319</ele><time>2016-10-15T13:03:47Z</time></trkpt>
<trkpt lat="53.0965300000" lon="-4.1242210000"><ele>319</ele><time>2016-10-15T13:03:48Z</time></trkpt>
<trkpt lat="53.0965450000" lon="-4.1242260000"><ele>319</ele><time>2016-10-15T13:03:49Z</time></trkpt>
<trkpt lat="53.0965580000" lon="-4.1242310000"><ele>319</ele><time>2016-10-15T13:03:50Z</time></trkpt>
<trkpt lat="53.0965690000" lon="-4.1242350000"><ele>319</ele><time>2016-10-15T13:03:51Z</time></trkpt>
<trkpt lat="53.0965800000" lon="-4.1242390000"><ele>318</ele><time>2016-10-15T13:03:52Z</time></trkpt>
<trkpt lat="53.0965910000" lon="-4.1242430000"><ele>318</ele><time>2016-10-15T13:03:53Z</time></trkpt>
<trkpt lat="53.0965910000" lon="-4.1242430000"><ele>318</ele><time>2016-10-15T13:03:54Z</time></trkpt>
<trkpt lat="53.0965910000" lon="-4.1242430000"><ele>318</ele><time>2016-10-15T13:03:55Z</time></trkpt>
<trkpt lat="53.0965910000" lon="-4.1242440000"><ele>318</ele><time>2016-10-15T13:03:56Z</time></trkpt>
<trkpt lat="53.0965920000" lon="-4.1242440000"><ele>318</ele><time>2016-10-15T13:03:57Z</time></trkpt>
<trkpt lat="53.0965930000" lon="-4.1242450000"><ele>318</ele><time>2016-10-15T13:03:58Z</time></trkpt>
<trkpt lat="53.0965950000" lon="-4.1242450000"><ele>318</ele><time>2016-10-15T13:03:59Z</time></trkpt>
<trkpt lat="53.0965970000" lon="-4.1242460000"><ele>318</ele><time>2016-10-15T13:04:00Z</time></trkpt>
<trkpt lat="53.0966830000" lon="-4.1242860000"><ele>318</ele><time>2016-10-15T13:04:01Z</time></trkpt>
<trkpt lat="53.0966950000" lon="-4.1242860000"><ele>317</ele><time>2016-10-15T13:04:02Z</time></trkpt>
<trkpt lat="53.0967090000" lon="-4.1242850000"><ele>317</ele><time>2016-10-15T13:04:03Z</time></trkpt>
<trkpt lat="53.0967210000" lon="-4.1242860000"><ele>317</ele><time>2016-10-15T13:04:04Z</time></trkpt>
<trkpt lat="53.0967340000" lon="-4.1242870000"><ele>317</ele><time>2016-10-15T13:04:05Z</time></trkpt>
<trkpt lat="53.0967470000" lon="-4.1242850000"><ele>317</ele><time>2016-10-15T13:04:06Z</time></trkpt>
<trkpt lat="53.0967610000" lon="-4.1242850000"><ele>317</ele><time>2016-10-15T13:04:07Z</time></trkpt>
<trkpt lat="53.0967740000" lon="-4.1242840000"><ele>317</ele><time>2016-10-15T13:04:08Z</time></trkpt>
<trkpt lat="53.0967860000" lon="-4.1242840000"><ele>317</ele><time>2016-10-15T13:04:09Z</time></trkpt>
<trkpt lat="53.0967970000" lon="-4.1242860000"><ele>316</ele><time>2016-10-15T13:04:10Z</time></trkpt>
<trkpt lat="53.0968090000" lon="-4.1242900000"><ele>316</ele><time>2016-10-15T13:04:11Z</time></trkpt>
<trkpt lat="53.0968210000" lon="-4.1242920000"><ele>316</ele><time>2016-10-15T13:04:12Z</time></trkpt>
<trkpt lat="53.0968330000" lon="-4.1242930000"><ele>316</ele><time>2016-10-15T13:04:13Z</time></trkpt>
<trkpt lat="53.0968440000" lon="-4.1242960000"><ele>316</ele><time>2016-10-15T13:04:14Z</time></trkpt>
<trkpt lat="53.0968560000" lon="-4.1243000000"><ele>316</ele><time>2016-10-15T13:04:15Z</time></trkpt>
<trkpt lat="53.0968680000" lon="-4.1243040000"><ele>316</ele><time>2016-10-15T13:04:16Z</time></trkpt>
<trkpt lat="53.0968800000" lon="-4.1243090000"><ele>316</ele><time>2016-10-15T13:04:17Z</time></trkpt>
<trkpt lat="53.0968900000" lon="-4.1243130000"><ele>316</ele><time>2016-10-15T13:04:18Z</time></trkpt>
<trkpt lat="53.0969020000" lon="-4.1243190000"><ele>316</ele><time>2016-10-15T13:04:19Z</time></trkpt>
<trkpt lat="53.0969150000" lon="-4.1243230000"><ele>315</ele><time>2016-10-15T13:04:20Z</time></trkpt>
<trkpt lat="53.0969290000" lon="-4.1243260000"><ele>315</ele><time>2016-10-15T13:04:21Z</time></trkpt>
<trkpt lat="53.0969550000" lon="-4.1243340000"><ele>315</ele><time>2016-10-15T13:04:23Z</time></trkpt>
<trkpt lat="53.0969700000" lon="-4.1243390000"><ele>315</ele><time>2016-10-15T13:04:24Z</time></trkpt>
<trkpt lat="53.0969820000" lon="-4.1243430000"><ele>315</ele><time>2016-10-15T13:04:25Z</time></trkpt>
<trkpt lat="53.0969940000" lon="-4.1243510000"><ele>315</ele><time>2016-10-15T13:04:26Z</time></trkpt>
<trkpt lat="53.0970030000" lon="-4.1243590000"><ele>315</ele><time>2016-10-15T13:04:27Z</time></trkpt>
<trkpt lat="53.0970130000" lon="-4.1243640000"><ele>315</ele><time>2016-10-15T13:04:28Z</time></trkpt>
<trkpt lat="53.0970130000" lon="-4.1243640000"><ele>315</ele><time>2016-10-15T13:04:29Z</time></trkpt>
<trkpt lat="53.0970130000" lon="-4.1243640000"><ele>315</ele><time>2016-10-15T13:04:30Z</time></trkpt>
<trkpt lat="53.0970140000" lon="-4.1243640000"><ele>315</ele><time>2016-10-15T13:04:31Z</time></trkpt>
<trkpt lat="53.0970140000" lon="-4.1243640000"><ele>315</ele><time>2016-10-15T13:04:32Z</time></trkpt>
<trkpt lat="53.0970150000" lon="-4.1243650000"><ele>314</ele><time>2016-10-15T13:04:33Z</time></trkpt>
<trkpt lat="53.0970160000" lon="-4.1243650000"><ele>314</ele><time>2016-10-15T13:04:34Z</time></trkpt>
<trkpt lat="53.0970180000" lon="-4.1243660000"><ele>314</ele><time>2016-10-15T13:04:35Z</time></trkpt>
<trkpt lat="53.0970190000" lon="-4.1243670000"><ele>314</ele><time>2016-10-15T13:04:36Z</time></trkpt>
<trkpt lat="53.0970220000" lon="-4.1243690000"><ele>314</ele><time>2016-10-15T13:04:37Z</time></trkpt>
<trkpt lat="53.0970240000" lon="-4.1243700000"><ele>314</ele><time>2016-10-15T13:04:38Z</time></trkpt>
<trkpt lat="53.0970270000" lon="-4.1243720000"><ele>314</ele><time>2016-10-15T13:04:39Z</time></trkpt>
<trkpt lat="53.0970300000" lon="-4.1243740000"><ele>314</ele><time>2016-10-15T13:04:40Z</time></trkpt>
<trkpt lat="53.0970340000" lon="-4.1243770000"><ele>314</ele><time>2016-10-15T13:04:41Z</time></trkpt>
<trkpt lat="53.0970380000" lon="-4.1243790000"><ele>314</ele><time>2016-10-15T13:04:42Z</time></trkpt>
<trkpt lat="53.0970420000" lon="-4.1243810000"><ele>313</ele><time>2016-10-15T13:04:43Z</time></trkpt>
<trkpt lat="53.0971720000" lon="-4.1244520000"><ele>313</ele><time>2016-10-15T13:04:44Z</time></trkpt>
<trkpt lat="53.0971840000" lon="-4.1244600000"><ele>313</ele><time>2016-10-15T13:04:45Z</time></trkpt>
<trkpt lat="53.0971950000" lon="-4.1244670000"><ele>313</ele><time>2016-10-15T13:04:46Z</time></trkpt>
<trkpt lat="53.0972050000" lon="-4.1244730000"><ele>312</ele><time>2016-10-15T13:04:47Z</time></trkpt>
<trkpt lat="53.0972050000" lon="-4.1244730000"><ele>312</ele><time>2016-10-15T13:04:48Z</time></trkpt>
<trkpt lat="53.0972050000" lon="-4.1244730000"><ele>312</ele><time>2016-10-15T13:04:49Z</time></trkpt>
<trkpt lat="53.0972050000" lon="-4.1244730000"><ele>311</ele><time>2016-10-15T13:04:50Z</time></trkpt>
<trkpt lat="53.0972060000" lon="-4.1244740000"><ele>311</ele><time>2016-10-15T13:04:51Z</time></trkpt>
<trkpt lat="53.0972070000" lon="-4.1244740000"><ele>311</ele><time>2016-10-15T13:04:52Z</time></trkpt>
<trkpt lat="53.0972080000" lon="-4.1244750000"><ele>310</ele><time>2016-10-15T13:04:53Z</time></trkpt>
<trkpt lat="53.0972100000" lon="-4.1244760000"><ele>310</ele><time>2016-10-15T13:04:54Z</time></trkpt>
<trkpt lat="53.0972120000" lon="-4.1244780000"><ele>310</ele><time>2016-10-15T13:04:55Z</time></trkpt>
<trkpt lat="53.0972150000" lon="-4.1244800000"><ele>310</ele><time>2016-10-15T13:04:56Z</time></trkpt>
<trkpt lat="53.0972190000" lon="-4.1244820000"><ele>310</ele><time>2016-10-15T13:04:57Z</time></trkpt>
<trkpt lat="53.0972230000" lon="-4.1244850000"><ele>310</ele><time>2016-10-15T13:04:58Z</time></trkpt>
<trkpt lat="53.0972270000" lon="-4.1244870000"><ele>310</ele><time>2016-10-15T13:04:59Z</time></trkpt>
<trkpt lat="53.0972320000" lon="-4.1244900000"><ele>310</ele><time>2016-10-15T13:05:00Z</time></trkpt>
<trkpt lat="53.0972370000" lon="-4.1244940000"><ele>309</ele><time>2016-10-15T13:05:01Z</time></trkpt>
<trkpt lat="53.0972430000" lon="-4.1244970000"><ele>309</ele><time>2016-10-15T13:05:02Z</time></trkpt>
<trkpt lat="53.0972500000" lon="-4.1245010000"><ele>309</ele><time>2016-10-15T13:05:03Z</time></trkpt>
<trkpt lat="53.0972560000" lon="-4.1245050000"><ele>309</ele><time>2016-10-15T13:05:04Z</time></trkpt>
<trkpt lat="53.0972640000" lon="-4.1245090000"><ele>309</ele><time>2016-10-15T13:05:05Z</time></trkpt>
<trkpt lat="53.0972710000" lon="-4.1245130000"><ele>309</ele><time>2016-10-15T13:05:06Z</time></trkpt>
<trkpt lat="53.0972790000" lon="-4.1245170000"><ele>309</ele><time>2016-10-15T13:05:07Z</time></trkpt>
<trkpt lat="53.0972870000" lon="-4.1245220000"><ele>309</ele><time>2016-10-15T13:05:08Z</time></trkpt>
<trkpt lat="53.0972950000" lon="-4.1245270000"><ele>309</ele><time>2016-10-15T13:05:09Z</time></trkpt>
<trkpt lat="53.0973030000" lon="-4.1245320000"><ele>308</ele><time>2016-10-15T13:05:10Z</time></trkpt>
<trkpt lat="53.0973120000" lon="-4.1245370000"><ele>308</ele><time>2016-10-15T13:05:11Z</time></trkpt>
<trkpt lat="53.0973200000" lon="-4.1245430000"><ele>308</ele><time>2016-10-15T13:05:12Z</time></trkpt>
<trkpt lat="53.0973290000" lon="-4.1245490000"><ele>308</ele><time>2016-10-15T13:05:13Z</time></trkpt>
<trkpt lat="53.0973390000" lon="-4.1245560000"><ele>308</ele><time>2016-10-15T13:05:14Z</time></trkpt>
<trkpt lat="53.0975110000" lon="-4.1246800000"><ele>307</ele><time>2016-10-15T13:05:15Z</time></trkpt>
<trkpt lat="53.0975210000" lon="-4.1246910000"><ele>307</ele><time>2016-10-15T13:05:16Z</time></trkpt>
<trkpt lat="53.0975310000" lon="-4.1247020000"><ele>307</ele><time>2016-10-15T13:05:17Z</time></trkpt>
<trkpt lat="53.0975390000" lon="-4.1247090000"><ele>307</ele><time>2016-10-15T13:05:18Z</time></trkpt>
<trkpt lat="53.0975490000" lon="-4.1247190000"><ele>307</ele><time>2016-10-15T13:05:19Z</time></trkpt>
<trkpt lat="53.0975490000" lon="-4.1247190000"><ele>306</ele><time>2016-10-15T13:05:20Z</time></trkpt>
<trkpt lat="53.0975490000" lon="-4.1247190000"><ele>306</ele><time>2016-10-15T13:05:21Z</time></trkpt>
<trkpt lat="53.0975510000" lon="-4.1247200000"><ele>306</ele><time>2016-10-15T13:05:23Z</time></trkpt>
<trkpt lat="53.0975520000" lon="-4.1247210000"><ele>305</ele><time>2016-10-15T13:05:24Z</time></trkpt>
<trkpt lat="53.0976190000" lon="-4.1247850000"><ele>305</ele><time>2016-10-15T13:05:25Z</time></trkpt>
<trkpt lat="53.0976270000" lon="-4.1247940000"><ele>305</ele><time>2016-10-15T13:05:26Z</time></trkpt>
<trkpt lat="53.0976370000" lon="-4.1248050000"><ele>305</ele><time>2016-10-15T13:05:27Z</time></trkpt>
<trkpt lat="53.0976480000" lon="-4.1248150000"><ele>305</ele><time>2016-10-15T13:05:28Z</time></trkpt>
<trkpt lat="53.0976540000" lon="-4.1248250000"><ele>304</ele><time>2016-10-15T13:05:29Z</time></trkpt>
<trkpt lat="53.0976540000" lon="-4.1248250000"><ele>304</ele><time>2016-10-15T13:05:30Z</time></trkpt>
<trkpt lat="53.0976540000" lon="-4.1248260000"><ele>304</ele><time>2016-10-15T13:05:31Z</time></trkpt>
<trkpt lat="53.0976880000" lon="-4.1248580000"><ele>304</ele><time>2016-10-15T13:05:32Z</time></trkpt>
<trkpt lat="53.0977000000" lon="-4.1248700000"><ele>303</ele><time>2016-10-15T13:05:33Z</time></trkpt>
<trkpt lat="53.0977120000" lon="-4.1248810000"><ele>303</ele><time>2016-10-15T13:05:34Z</time></trkpt>
<trkpt lat="53.0977230000" lon="-4.1248920000"><ele>303</ele><time>2016-10-15T13:05:35Z</time></trkpt>
<trkpt lat="53.0977350000" lon="-4.1249050000"><ele>303</ele><time>2016-10-15T13:05:36Z</time></trkpt>
<trkpt lat="53.0977470000" lon="-4.1249170000"><ele>302</ele><time>2016-10-15T13:05:37Z</time></trkpt>
<trkpt lat="53.0977590000" lon="-4.1249290000"><ele>302</ele><time>2016-10-15T13:05:38Z</time></trkpt>
<trkpt lat="53.0977720000" lon="-4.1249410000"><ele>302</ele><time>2016-10-15T13:05:39Z</time></trkpt>
<trkpt lat="53.0977810000" lon="-4.1249520000"><ele>302</ele><time>2016-10-15T13:05:40Z</time></trkpt>
<trkpt lat="53.0977890000" lon="-4.1249620000"><ele>302</ele><time>2016-10-15T13:05:41Z</time></trkpt>
<trkpt lat="53.0977900000" lon="-4.1249620000"><ele>302</ele><time>2016-10-15T13:05:42Z</time></trkpt>
<trkpt lat="53.0977900000" lon="-4.1249620000"><ele>302</ele><time>2016-10-15T13:05:43Z</time></trkpt>
<trkpt lat="53.0977900000" lon="-4.1249630000"><ele>302</ele><time>2016-10-15T13:05:44Z</time></trkpt>
<trkpt lat="53.0977910000" lon="-4.1249630000"><ele>302</ele><time>2016-10-15T13:05:45Z</time></trkpt>
<trkpt lat="53.0977920000" lon="-4.1249640000"><ele>302</ele><time>2016-10-15T13:05:46Z</time></trkpt>
<trkpt lat="53.0977940000" lon="-4.1249660000"><ele>302</ele><time>2016-10-15T13:05:47Z</time></trkpt>
<trkpt lat="53.0977950000" lon="-4.1249670000"><ele>302</ele><time>2016-10-15T13:05:48Z</time></trkpt>
<trkpt lat="53.0977970000" lon="-4.1249690000"><ele>302</ele><time>2016-10-15T13:05:49Z</time></trkpt>
<trkpt lat="53.0977990000" lon="-4.1249720000"><ele>302</ele><time>2016-10-15T13:05:50Z</time></trkpt>
<trkpt lat="53.0978020000" lon="-4.1249740000"><ele>301</ele><time>2016-10-15T13:05:51Z</time></trkpt>
<trkpt lat="53.0978040000" lon="-4.1249770000"><ele>301</ele><time>2016-10-15T13:05:52Z</time></trkpt>
<trkpt lat="53.0978070000" lon="-4.1249800000"><ele>301</ele><time>2016-10-15T13:05:53Z</time></trkpt>
<trkpt lat="53.0978090000" lon="-4.1249830000"><ele>301</ele><time>2016-10-15T13:05:54Z</time></trkpt>
<trkpt lat="53.0978110000" lon="-4.1249850000"><ele>301</ele><time>2016-10-15T13:05:55Z</time></trkpt>
<trkpt lat="53.0978150000" lon="-4.1249880000"><ele>301</ele><time>2016-10-15T13:05:56Z</time></trkpt>
<trkpt lat="53.0978180000" lon="-4.1249910000"><ele>301</ele><time>2016-10-15T13:05:57Z</time></trkpt>
<trkpt lat="53.0978230000" lon="-4.1249940000"><ele>301</ele><time>2016-10-15T13:05:58Z</time></trkpt>
<trkpt lat="53.0978270000" lon="-4.1249980000"><ele>301</ele><time>2016-10-15T13:05:59Z</time></trkpt>
<trkpt lat="53.0978320000" lon="-4.1250020000"><ele>301</ele><time>2016-10-15T13:06:00Z</time></trkpt>
<trkpt lat="53.0978380000" lon="-4.1250060000"><ele>301</ele><time>2016-10-15T13:06:01Z</time></trkpt>
<trkpt lat="53.0978440000" lon="-4.1250100000"><ele>301</ele><time>2016-10-15T13:06:02Z</time></trkpt>
<trkpt lat="53.0978500000" lon="-4.1250150000"><ele>301</ele><time>2016-10-15T13:06:03Z</time></trkpt>
<trkpt lat="53.0978570000" lon="-4.1250200000"><ele>301</ele><time>2016-10-15T13:06:04Z</time></trkpt>
<trkpt lat="53.0978630000" lon="-4.1250240000"><ele>301</ele><time>2016-10-15T13:06:05Z</time></trkpt>
<trkpt lat="53.0978700000" lon="-4.1250300000"><ele>301</ele><time>2016-10-15T13:06:06Z</time></trkpt>
<trkpt lat="53.0978780000" lon="-4.1250350000"><ele>300</ele><time>2016-10-15T13:06:07Z</time></trkpt>
<trkpt lat="53.0978850000" lon="-4.1250410000"><ele>300</ele><time>2016-10-15T13:06:08Z</time></trkpt>
<trkpt lat="53.0978930000" lon="-4.1250460000"><ele>300</ele><time>2016-10-15T13:06:09Z</time></trkpt>
<trkpt lat="53.0979010000" lon="-4.1250520000"><ele>300</ele><time>2016-10-15T13:06:10Z</time></trkpt>
<trkpt lat="53.0979090000" lon="-4.1250580000"><ele>300</ele><time>2016-10-15T13:06:11Z</time></trkpt>
<trkpt lat="53.0979170000" lon="-4.1250640000"><ele>300</ele><time>2016-10-15T13:06:12Z</time></trkpt>
<trkpt lat="53.0979260000" lon="-4.1250710000"><ele>300</ele><time>2016-10-15T13:06:13Z</time></trkpt>
<trkpt lat="53.0979340000" lon="-4.1250770000"><ele>300</ele><time>2016-10-15T13:06:14Z</time></trkpt>
<trkpt lat="53.0980800000" lon="-4.1251920000"><ele>300</ele><time>2016-10-15T13:06:15Z</time></trkpt>
<trkpt lat="53.0980910000" lon="-4.1252000000"><ele>300</ele><time>2016-10-15T13:06:16Z</time></trkpt>
<trkpt lat="53.0981040000" lon="-4.1252090000"><ele>299</ele><time>2016-10-15T13:06:17Z</time></trkpt>
<trkpt lat="53.0981150000" lon="-4.1252170000"><ele>299</ele><time>2016-10-15T13:06:18Z</time></trkpt>
<trkpt lat="53.0981260000" lon="-4.1252240000"><ele>299</ele><time>2016-10-15T13:06:19Z</time></trkpt>
<trkpt lat="53.0981360000" lon="-4.1252310000"><ele>299</ele><time>2016-10-15T13:06:20Z</time></trkpt>
<trkpt lat="53.0981360000" lon="-4.1252310000"><ele>299</ele><time>2016-10-15T13:06:21Z</time></trkpt>
<trkpt lat="53.0981360000" lon="-4.1252320000"><ele>299</ele><time>2016-10-15T13:06:23Z</time></trkpt>
<trkpt lat="53.0981370000" lon="-4.1252320000"><ele>299</ele><time>2016-10-15T13:06:24Z</time></trkpt>
<trkpt lat="53.0981380000" lon="-4.1252330000"><ele>299</ele><time>2016-10-15T13:06:25Z</time></trkpt>
<trkpt lat="53.0981390000" lon="-4.1252340000"><ele>299</ele><time>2016-10-15T13:06:26Z</time></trkpt>
<trkpt lat="53.0981410000" lon="-4.1252350000"><ele>299</ele><time>2016-10-15T13:06:27Z</time></trkpt>
<trkpt lat="53.0981430000" lon="-4.1252370000"><ele>299</ele><time>2016-10-15T13:06:28Z</time></trkpt>
<trkpt lat="53.0981460000" lon="-4.1252390000"><ele>299</ele><time>2016-10-15T13:06:29Z</time></trkpt>
<trkpt lat="53.0981490000" lon="-4.1252410000"><ele>299</ele><time>2016-10-15T13:06:30Z</time></trkpt>
<trkpt lat="53.0981530000" lon="-4.1252440000"><ele>299</ele><time>2016-10-15T13:06:31Z</time></trkpt>
<trkpt lat="53.0981570000" lon="-4.1252470000"><ele>299</ele><time>2016-10-15T13:06:32Z</time></trkpt>
<trkpt lat="53.0981620000" lon="-4.1252510000"><ele>299</ele><time>2016-10-15T13:06:33Z</time></trkpt>
<trkpt lat="53.0981670000" lon="-4.1252550000"><ele>299</ele><time>2016-10-15T13:06:34Z</time></trkpt>
<trkpt lat="53.0981720000" lon="-4.1252590000"><ele>299</ele><time>2016-10-15T13:06:35Z</time></trkpt>
<trkpt lat="53.0981780000" lon="-4.1252640000"><ele>299</ele><time>2016-10-15T13:06:36Z</time></trkpt>
<trkpt lat="53.0981840000" lon="-4.1252690000"><ele>299</ele><time>2016-10-15T13:06:37Z</time></trkpt>
<trkpt lat="53.0981910000" lon="-4.1252740000"><ele>299</ele><time>2016-10-15T13:06:38Z</time></trkpt>
<trkpt lat="53.0981970000" lon="-4.1252800000"><ele>299</ele><time>2016-10-15T13:06:39Z</time></trkpt>
<trkpt lat="53.0982040000" lon="-4.1252860000"><ele>298</ele><time>2016-10-15T13:06:40Z</time></trkpt>
<trkpt lat="53.0982100000" lon="-4.1252910000"><ele>298</ele><time>2016-10-15T13:06:41Z</time></trkpt>
<trkpt lat="53.0982160000" lon="-4.1252960000"><ele>298</ele><time>2016-10-15T13:06:42Z</time></trkpt>
<trkpt lat="53.0982240000" lon="-4.1253030000"><ele>298</ele><time>2016-10-15T13:06:43Z</time></trkpt>
<trkpt lat="53.0982320000" lon="-4.1253110000"><ele>298</ele><time>2016-10-15T13:06:44Z</time></trkpt>
<trkpt lat="53.0982410000" lon="-4.1253180000"><ele>298</ele><time>2016-10-15T13:06:45Z</time></trkpt>
<trkpt lat="53.0983920000" lon="-4.1254580000"><ele>298</ele><time>2016-10-15T13:06:46Z</time></trkpt>
<trkpt lat="53.0984020000" lon="-4.1254680000"><ele>298</ele><time>2016-10-15T13:06:47Z</time></trkpt>
<trkpt lat="53.0984100000" lon="-4.1254780000"><ele>297</ele><time>2016-10-15T13:06:48Z</time></trkpt>
<trkpt lat="53.0984100000" lon="-4.1254780000"><ele>297</ele><time>2016-10-15T13:06:49Z</time></trkpt>
<trkpt lat="53.0984110000" lon="-4.1254790000"><ele>297</ele><time>2016-10-15T13:06:50Z</time></trkpt>
<trkpt lat="53.0984110000" lon="-4.1254790000"><ele>297</ele><time>2016-10-15T13:06:51Z</time></trkpt>
<trkpt lat="53.0984120000" lon="-4.1254800000"><ele>297</ele><time>2016-10-15T13:06:52Z</time></trkpt>
<trkpt lat="53.0984130000" lon="-4.1254810000"><ele>297</ele><time>2016-10-15T13:06:53Z</time></trkpt>
<trkpt lat="53.0984140000" lon="-4.1254820000"><ele>296</ele><time>2016-10-15T13:06:54Z</time></trkpt>
<trkpt lat="53.0984150000" lon="-4.1254840000"><ele>296</ele><time>2016-10-15T13:06:55Z</time></trkpt>
<trkpt lat="53.0984170000" lon="-4.1254860000"><ele>296</ele><time>2016-10-15T13:06:56Z</time></trkpt>
<trkpt lat="53.0984200000" lon="-4.1254890000"><ele>296</ele><time>2016-10-15T13:06:57Z</time></trkpt>
<trkpt lat="53.0984230000" lon="-4.1254920000"><ele>295</ele><time>2016-10-15T13:06:58Z</time></trkpt>
<trkpt lat="53.0984260000" lon="-4.1254950000"><ele>295</ele><time>2016-10-15T13:06:59Z</time></trkpt>
<trkpt lat="53.0984300000" lon="-4.1254990000"><ele>295</ele><time>2016-10-15T13:07:00Z</time></trkpt>
<trkpt lat="53.0984340000" lon="-4.1255030000"><ele>295</ele><time>2016-10-15T13:07:01Z</time></trkpt>
<trkpt lat="53.0984390000" lon="-4.1255070000"><ele>295</ele><time>2016-10-15T13:07:02Z</time></trkpt>
<trkpt lat="53.0984440000" lon="-4.1255120000"><ele>294</ele><time>2016-10-15T13:07:03Z</time></trkpt>
<trkpt lat="53.0984490000" lon="-4.1255180000"><ele>294</ele><time>2016-10-15T13:07:04Z</time></trkpt>
<trkpt lat="53.0984550000" lon="-4.1255240000"><ele>294</ele><time>2016-10-15T13:07:05Z</time></trkpt>
<trkpt lat="53.0984620000" lon="-4.1255300000"><ele>294</ele><time>2016-10-15T13:07:06Z</time></trkpt>
<trkpt lat="53.0984680000" lon="-4.1255360000"><ele>294</ele><time>2016-10-15T13:07:07Z</time></trkpt>
<trkpt lat="53.0984750000" lon="-4.1255430000"><ele>294</ele><time>2016-10-15T13:07:08Z</time></trkpt>
<trkpt lat="53.0984820000" lon="-4.1255500000"><ele>293</ele><time>2016-10-15T13:07:09Z</time></trkpt>
<trkpt lat="53.0984900000" lon="-4.1255570000"><ele>293</ele><time>2016-10-15T13:07:10Z</time></trkpt>
<trkpt lat="53.0984970000" lon="-4.1255650000"><ele>293</ele><time>2016-10-15T13:07:11Z</time></trkpt>
<trkpt lat="53.0985050000" lon="-4.1255720000"><ele>293</ele><time>2016-10-15T13:07:12Z</time></trkpt>
<trkpt lat="53.0985140000" lon="-4.1255800000"><ele>293</ele><time>2016-10-15T13:07:13Z</time></trkpt>
<trkpt lat="53.0985220000" lon="-4.1255880000"><ele>293</ele><time>2016-10-15T13:07:14Z</time></trkpt>
<trkpt lat="53.0986730000" lon="-4.1257340000"><ele>292</ele><time>2016-10-15T13:07:15Z</time></trkpt>
<trkpt lat="53.0986850000" lon="-4.1257450000"><ele>292</ele><time>2016-10-15T13:07:16Z</time></trkpt>
<trkpt lat="53.0986960000" lon="-4.1257540000"><ele>292</ele><time>2016-10-15T13:07:17Z</time></trkpt>
<trkpt lat="53.0987070000" lon="-4.1257620000"><ele>292</ele><time>2016-10-15T13:07:18Z</time></trkpt>
<trkpt lat="53.0987160000" lon="-4.1257700000"><ele>292</ele><time>2016-10-15T13:07:19Z</time></trkpt>
<trkpt lat="53.0987160000" lon="-4.1257700000"><ele>292</ele><time>2016-10-15T13:07:20Z</time></trkpt>
<trkpt lat="53.0987160000" lon="-4.1257710000"><ele>292</ele><time>2016-10-15T13:07:21Z</time></trkpt>
<trkpt lat="53.0987180000" lon="-4.1257720000"><ele>291</ele><time>2016-10-15T13:07:23Z</time></trkpt>
<trkpt lat="53.0987190000" lon="-4.1257720000"><ele>291</ele><time>2016-10-15T13:07:24Z</time></trkpt>
<trkpt lat="53.0987200000" lon="-4.1257740000"><ele>291</ele><time>2016-10-15T13:07:25Z</time></trkpt>
<trkpt lat="53.0987220000" lon="-4.1257750000"><ele>291</ele><time>2016-10-15T13:07:26Z</time></trkpt>
<trkpt lat="53.0987240000" lon="-4.1257780000"><ele>291</ele><time>2016-10-15T13:07:27Z</time></trkpt>
<trkpt lat="53.0987270000" lon="-4.1257800000"><ele>291</ele><time>2016-10-15T13:07:28Z</time></trkpt>
<trkpt lat="53.0987310000" lon="-4.1257830000"><ele>291</ele><time>2016-10-15T13:07:29Z</time></trkpt>
<trkpt lat="53.0987340000" lon="-4.1257870000"><ele>291</ele><time>2016-10-15T13:07:30Z</time></trkpt>
<trkpt lat="53.0987390000" lon="-4.1257910000"><ele>291</ele><time>2016-10-15T13:07:31Z</time></trkpt>
<trkpt lat="53.0987440000" lon="-4.1257960000"><ele>291</ele><time>2016-10-15T13:07:32Z</time></trkpt>
<trkpt lat="53.0987490000" lon="-4.1258020000"><ele>291</ele><time>2016-10-15T13:07:33Z</time></trkpt>
<trkpt lat="53.0987550000" lon="-4.1258070000"><ele>291</ele><time>2016-10-15T13:07:34Z</time></trkpt>
<trkpt lat="53.0987600000" lon="-4.1258140000"><ele>290</ele><time>2016-10-15T13:07:35Z</time></trkpt>
<trkpt lat="53.0987660000" lon="-4.1258200000"><ele>290</ele><time>2016-10-15T13:07:36Z</time></trkpt>
<trkpt lat="53.0987730000" lon="-4.1258270000"><ele>290</ele><time>2016-10-15T13:07:37Z</time></trkpt>
<trkpt lat="53.0987790000" lon="-4.1258340000"><ele>290</ele><time>2016-10-15T13:07:38Z</time></trkpt>
<trkpt lat="53.0987860000" lon="-4.1258420000"><ele>290</ele><time>2016-10-15T13:07:39Z</time></trkpt>
<trkpt lat="53.0987930000" lon="-4.1258490000"><ele>289</ele><time>2016-10-15T13:07:40Z</time></trkpt>
<trkpt lat="53.0988010000" lon="-4.1258570000"><ele>289</ele><time>2016-10-15T13:07:41Z</time></trkpt>
<trkpt lat="53.0988090000" lon="-4.1258660000"><ele>289</ele><time>2016-10-15T13:07:42Z</time></trkpt>
<trkpt lat="53.0988170000" lon="-4.1258740000"><ele>289</ele><time>2016-10-15T13:07:43Z</time></trkpt>
<trkpt lat="53.0989780000" lon="-4.1260240000"><ele>289</ele><time>2016-10-15T13:07:44Z</time></trkpt>
<trkpt lat="53.0989950000" lon="-4.1260280000"><ele>288</ele><time>2016-10-15T13:07:45Z</time></trkpt>
<trkpt lat="53.0990080000" lon="-4.1260360000"><ele>288</ele><time>2016-10-15T13:07:46Z</time></trkpt>
<trkpt lat="53.0990190000" lon="-4.1260470000"><ele>288</ele><time>2016-10-15T13:07:47Z</time></trkpt>
<trkpt lat="53.0990290000" lon="-4.1260560000"><ele>288</ele><time>2016-10-15T13:07:48Z</time></trkpt>
<trkpt lat="53.0990420000" lon="-4.1260650000"><ele>288</ele><time>2016-10-15T13:07:49Z</time></trkpt>
<trkpt lat="53.0990560000" lon="-4.1260740000"><ele>288</ele><time>2016-10-15T13:07:50Z</time></trkpt>
<trkpt lat="53.0990670000" lon="-4.1260840000"><ele>288</ele><time>2016-10-15T13:07:51Z</time></trkpt>
<trkpt lat="53.0990770000" lon="-4.1260950000"><ele>288</ele><time>2016-10-15T13:07:52Z</time></trkpt>
<trkpt lat="53.0990880000" lon="-4.1261050000"><ele>287</ele><time>2016-10-15T13:07:53Z</time></trkpt>
<trkpt lat="53.0991000000" lon="-4.1261150000"><ele>287</ele><time>2016-10-15T13:07:54Z</time></trkpt>
<trkpt lat="53.0991100000" lon="-4.1261240000"><ele>287</ele><time>2016-10-15T13:07:55Z</time></trkpt>
<trkpt lat="53.0991220000" lon="-4.1261340000"><ele>287</ele><time>2016-10-15T13:07:56Z</time></trkpt>
<trkpt lat="53.0991320000" lon="-4.1261450000"><ele>287</ele><time>2016-10-15T13:07:57Z</time></trkpt>
<trkpt lat="53.0991440000" lon="-4.1261560000"><ele>287</ele><time>2016-10-15T13:07:58Z</time></trkpt>
<trkpt lat="53.0991570000" lon="-4.1261660000"><ele>287</ele><time>2016-10-15T13:07:59Z</time></trkpt>
<trkpt lat="53.0991720000" lon="-4.1261770000"><ele>287</ele><time>2016-10-15T13:08:00Z</time></trkpt>
<trkpt lat="53.0991830000" lon="-4.1261870000"><ele>287</ele><time>2016-10-15T13:08:01Z</time></trkpt>
<trkpt lat="53.0991960000" lon="-4.1261970000"><ele>286</ele><time>2016-10-15T13:08:02Z</time></trkpt>
<trkpt lat="53.0992080000" lon="-4.1262070000"><ele>286</ele><time>2016-10-15T13:08:03Z</time></trkpt>
<trkpt lat="53.0992200000" lon="-4.1262170000"><ele>286</ele><time>2016-10-15T13:08:04Z</time></trkpt>
<trkpt lat="53.0992330000" lon="-4.1262250000"><ele>286</ele><time>2016-10-15T13:08:05Z</time></trkpt>
<trkpt lat="53.0992460000" lon="-4.1262340000"><ele>286</ele><time>2016-10-15T13:08:06Z</time></trkpt>
<trkpt lat="53.0992550000" lon="-4.1262440000"><ele>286</ele><time>2016-10-15T13:08:07Z</time></trkpt>
<trkpt lat="53.0992640000" lon="-4.1262540000"><ele>286</ele><time>2016-10-15T13:08:08Z</time></trkpt>
<trkpt lat="53.0992750000" lon="-4.1262640000"><ele>286</ele><time>2016-10-15T13:08:09Z</time></trkpt>
<trkpt lat="53.0992860000" lon="-4.1262730000"><ele>286</ele><time>2016-10-15T13:08:10Z</time></trkpt>
<trkpt lat="53.0992960000" lon="-4.1262820000"><ele>286</ele><time>2016-10-15T13:08:11Z</time></trkpt>
<trkpt lat="53.0993060000" lon="-4.1262920000"><ele>286</ele><time>2016-10-15T13:08:12Z</time></trkpt>
<trkpt lat="53.0993060000" lon="-4.1262920000"><ele>286</ele><time>2016-10-15T13:08:13Z</time></trkpt>
<trkpt lat="53.0993060000" lon="-4.1262920000"><ele>286</ele><time>2016-10-15T13:08:14Z</time></trkpt>
<trkpt lat="53.0993070000" lon="-4.1262930000"><ele>286</ele><time>2016-10-15T13:08:15Z</time></trkpt>
<trkpt lat="53.0993080000" lon="-4.1262930000"><ele>286</ele><time>2016-10-15T13:08:16Z</time></trkpt>
<trkpt lat="53.0993090000" lon="-4.1262950000"><ele>286</ele><time>2016-10-15T13:08:17Z</time></trkpt>
<trkpt lat="53.0993100000" lon="-4.1262960000"><ele>285</ele><time>2016-10-15T13:08:18Z</time></trkpt>
<trkpt lat="53.0993120000" lon="-4.1262980000"><ele>285</ele><time>2016-10-15T13:08:19Z</time></trkpt>
<trkpt lat="53.0993140000" lon="-4.1263010000"><ele>285</ele><time>2016-10-15T13:08:20Z</time></trkpt>
<trkpt lat="53.0993170000" lon="-4.1263040000"><ele>285</ele><time>2016-10-15T13:08:21Z</time></trkpt>
<trkpt lat="53.0993230000" lon="-4.1263120000"><ele>285</ele><time>2016-10-15T13:08:23Z</time></trkpt>
<trkpt lat="53.0993270000" lon="-4.1263170000"><ele>285</ele><time>2016-10-15T13:08:24Z</time></trkpt>
<trkpt lat="53.0993310000" lon="-4.1263220000"><ele>285</ele><time>2016-10-15T13:08:25Z</time></trkpt>
<trkpt lat="53.0993350000" lon="-4.1263280000"><ele>285</ele><time>2016-10-15T13:08:26Z</time></trkpt>
<trkpt lat="53.0993390000" lon="-4.1263340000"><ele>285</ele><time>2016-10-15T13:08:27Z</time></trkpt>
<trkpt lat="53.0993440000" lon="-4.1263400000"><ele>285</ele><time>2016-10-15T13:08:28Z</time></trkpt>
<trkpt lat="53.0994680000" lon="-4.1264960000"><ele>285</ele><time>2016-10-15T13:08:29Z</time></trkpt>
<trkpt lat="53.0994800000" lon="-4.1265070000"><ele>285</ele><time>2016-10-15T13:08:30Z</time></trkpt>
<trkpt lat="53.0994920000" lon="-4.1265170000"><ele>285</ele><time>2016-10-15T13:08:31Z</time></trkpt>
<trkpt lat="53.0995030000" lon="-4.1265250000"><ele>285</ele><time>2016-10-15T13:08:32Z</time></trkpt>
<trkpt lat="53.0995130000" lon="-4.1265330000"><ele>285</ele><time>2016-10-15T13:08:33Z</time></trkpt>
<trkpt lat="53.0995230000" lon="-4.1265400000"><ele>284</ele><time>2016-10-15T13:08:34Z</time></trkpt>
<trkpt lat="53.0995360000" lon="-4.1265430000"><ele>284</ele><time>2016-10-15T13:08:35Z</time></trkpt>
<trkpt lat="53.0995480000" lon="-4.1265470000"><ele>284</ele><time>2016-10-15T13:08:36Z</time></trkpt>
<trkpt lat="53.0995600000" lon="-4.1265510000"><ele>284</ele><time>2016-10-15T13:08:37Z</time></trkpt>
<trkpt lat="53.0995730000" lon="-4.1265550000"><ele>284</ele><time>2016-10-15T13:08:38Z</time></trkpt>
<trkpt lat="53.0995850000" lon="-4.1265590000"><ele>284</ele><time>2016-10-15T13:08:39Z</time></trkpt>
<trkpt lat="53.0995980000" lon="-4.1265640000"><ele>284</ele><time>2016-10-15T13:08:40Z</time></trkpt>
<trkpt lat="53.0996090000" lon="-4.1265690000"><ele>284</ele><time>2016-10-15T13:08:41Z</time></trkpt>
<trkpt lat="53.0996210000" lon="-4.1265750000"><ele>284</ele><time>2016-10-15T13:08:42Z</time></trkpt>
<trkpt lat="53.0996310000" lon="-4.1265810000"><ele>284</ele><time>2016-10-15T13:08:43Z</time></trkpt>
<trkpt lat="53.0996390000" lon="-4.1265890000"><ele>284</ele><time>2016-10-15T13:08:44Z</time></trkpt>
<trkpt lat="53.0996510000" lon="-4.1265980000"><ele>284</ele><time>2016-10-15T13:08:45Z</time></trkpt>
<trkpt lat="53.0996650000" lon="-4.1266080000"><ele>283</ele><time>2016-10-15T13:08:46Z</time></trkpt>
<trkpt lat="53.0996780000" lon="-4.1266180000"><ele>283</ele><time>2016-10-15T13:08:47Z</time></trkpt>
<trkpt lat="53.0996890000" lon="-4.1266290000"><ele>283</ele><time>2016-10-15T13:08:48Z</time></trkpt>
<trkpt lat="53.0997010000" lon="-4.1266390000"><ele>283</ele><time>2016-10-15T13:08:49Z</time></trkpt>
<trkpt lat="53.0997130000" lon="-4.1266480000"><ele>283</ele><time>2016-10-15T13:08:50Z</time></trkpt>
<trkpt lat="53.0997270000" lon="-4.1266560000"><ele>283</ele><time>2016-10-15T13:08:51Z</time></trkpt>
<trkpt lat="53.0997380000" lon="-4.1266620000"><ele>283</ele><time>2016-10-15T13:08:52Z</time></trkpt>
<trkpt lat="53.0997510000" lon="-4.1266680000"><ele>282</ele><time>2016-10-15T13:08:53Z</time></trkpt>
<trkpt lat="53.0997630000" lon="-4.1266730000"><ele>282</ele><time>2016-10-15T13:08:54Z</time></trkpt>
<trkpt lat="53.0997760000" lon="-4.1266780000"><ele>282</ele><time>2016-10-15T13:08:55Z</time></trkpt>
<trkpt lat="53.0997860000" lon="-4.1266820000"><ele>282</ele><time>2016-10-15T13:08:56Z</time></trkpt>
<trkpt lat="53.0997960000" lon="-4.1266870000"><ele>282</ele><time>2016-10-15T13:08:57Z</time></trkpt>
<trkpt lat="53.0998060000" lon="-4.1266920000"><ele>282</ele><time>2016-10-15T13:08:58Z</time></trkpt>
<trkpt lat="53.0998150000" lon="-4.1266930000"><ele>281</ele><time>2016-10-15T13:08:59Z</time></trkpt>
<trkpt lat="53.0998250000" lon="-4.1266960000"><ele>281</ele><time>2016-10-15T13:09:00Z</time></trkpt>
<trkpt lat="53.0998260000" lon="-4.1266960000"><ele>281</ele><time>2016-10-15T13:09:01Z</time></trkpt>
<trkpt lat="53.0998260000" lon="-4.1266960000"><ele>281</ele><time>2016-10-15T13:09:02Z</time></trkpt>
<trkpt lat="53.0998260000" lon="-4.1266960000"><ele>281</ele><time>2016-10-15T13:09:03Z</time></trkpt>
<trkpt lat="53.0998270000" lon="-4.1266960000"><ele>281</ele><time>2016-10-15T13:09:04Z</time></trkpt>
<trkpt lat="53.0998280000" lon="-4.1266960000"><ele>280</ele><time>2016-10-15T13:09:05Z</time></trkpt>
<trkpt lat="53.0998290000" lon="-4.1266960000"><ele>280</ele><time>2016-10-15T13:09:06Z</time></trkpt>
<trkpt lat="53.0998300000" lon="-4.1266960000"><ele>280</ele><time>2016-10-15T13:09:07Z</time></trkpt>
<trkpt lat="53.0998320000" lon="-4.1266960000"><ele>280</ele><time>2016-10-15T13:09:08Z</time></trkpt>
<trkpt lat="53.0998350000" lon="-4.1266970000"><ele>280</ele><time>2016-10-15T13:09:09Z</time></trkpt>
<trkpt lat="53.0998380000" lon="-4.1266970000"><ele>280</ele><time>2016-10-15T13:09:10Z</time></trkpt>
<trkpt lat="53.0998420000" lon="-4.1266980000"><ele>279</ele><time>2016-10-15T13:09:11Z</time></trkpt>
<trkpt lat="53.0998460000" lon="-4.1266990000"><ele>279</ele><time>2016-10-15T13:09:12Z</time></trkpt>
<trkpt lat="53.0998510000" lon="-4.1266990000"><ele>279</ele><time>2016-10-15T13:09:13Z</time></trkpt>
<trkpt lat="53.0998560000" lon="-4.1267000000"><ele>279</ele><time>2016-10-15T13:09:14Z</time></trkpt>
<trkpt lat="53.0998610000" lon="-4.1267010000"><ele>279</ele><time>2016-10-15T13:09:15Z</time></trkpt>
<trkpt lat="53.0998670000" lon="-4.1267020000"><ele>279</ele><time>2016-10-15T13:09:16Z</time></trkpt>
<trkpt lat="53.0998730000" lon="-4.1267030000"><ele>279</ele><time>2016-10-15T13:09:17Z</time></trkpt>
<trkpt lat="53.0998800000" lon="-4.1267040000"><ele>279</ele><time>2016-10-15T13:09:18Z</time></trkpt>
<trkpt lat="53.0998870000" lon="-4.1267060000"><ele>278</ele><time>2016-10-15T13:09:19Z</time></trkpt>
<trkpt lat="53.0998940000" lon="-4.1267070000"><ele>278</ele><time>2016-10-15T13:09:20Z</time></trkpt>
<trkpt lat="53.0999020000" lon="-4.1267090000"><ele>278</ele><time>2016-10-15T13:09:21Z</time></trkpt>
<trkpt lat="53.0999180000" lon="-4.1267130000"><ele>278</ele><time>2016-10-15T13:09:23Z</time></trkpt>
<trkpt lat="53.0999260000" lon="-4.1267160000"><ele>278</ele><time>2016-10-15T13:09:24Z</time></trkpt>
<trkpt lat="53.0999340000" lon="-4.1267180000"><ele>277</ele><time>2016-10-15T13:09:25Z</time></trkpt>
<trkpt lat="53.0999430000" lon="-4.1267210000"><ele>277</ele><time>2016-10-15T13:09:26Z</time></trkpt>
<trkpt lat="53.0999510000" lon="-4.1267240000"><ele>277</ele><time>2016-10-15T13:09:27Z</time></trkpt>
<trkpt lat="53.0999600000" lon="-4.1267270000"><ele>277</ele><time>2016-10-15T13:09:28Z</time></trkpt>
<trkpt lat="53.0999700000" lon="-4.1267300000"><ele>277</ele><time>2016-10-15T13:09:29Z</time></trkpt>
<trkpt lat="53.0999790000" lon="-4.1267330000"><ele>276</ele><time>2016-10-15T13:09:30Z</time></trkpt>
<trkpt lat="53.1001530000" lon="-4.1267920000"><ele>276</ele><time>2016-10-15T13:09:31Z</time></trkpt>
<trkpt lat="53.1001630000" lon="-4.1267970000"><ele>276</ele><time>2016-10-15T13:09:32Z</time></trkpt>
<trkpt lat="53.1001780000" lon="-4.1268010000"><ele>276</ele><time>2016-10-15T13:09:33Z</time></trkpt>
<trkpt lat="53.1001900000" lon="-4.1268060000"><ele>276</ele><time>2016-10-15T13:09:34Z</time></trkpt>
<trkpt lat="53.1002010000" lon="-4.1268130000"><ele>275</ele><time>2016-10-15T13:09:35Z</time></trkpt>
<trkpt lat="53.1002120000" lon="-4.1268190000"><ele>275</ele><time>2016-10-15T13:09:36Z</time></trkpt>
<trkpt lat="53.1002220000" lon="-4.1268250000"><ele>275</ele><time>2016-10-15T13:09:37Z</time></trkpt>
<trkpt lat="53.1002330000" lon="-4.1268320000"><ele>275</ele><time>2016-10-15T13:09:38Z</time></trkpt>
<trkpt lat="53.1002420000" lon="-4.1268380000"><ele>275</ele><time>2016-10-15T13:09:39Z</time></trkpt>
<trkpt lat="53.1002510000" lon="-4.1268430000"><ele>274</ele><time>2016-10-15T13:09:40Z</time></trkpt>
<trkpt lat="53.1002600000" lon="-4.1268480000"><ele>274</ele><time>2016-10-15T13:09:41Z</time></trkpt>
<trkpt lat="53.1002600000" lon="-4.1268480000"><ele>274</ele><time>2016-10-15T13:09:42Z</time></trkpt>
<trkpt lat="53.1002600000" lon="-4.1268480000"><ele>273</ele><time>2016-10-15T13:09:43Z</time></trkpt>
<trkpt lat="53.1002610000" lon="-4.1268480000"><ele>273</ele><time>2016-10-15T13:09:44Z</time></trkpt>
<trkpt lat="53.1002620000" lon="-4.1268480000"><ele>273</ele><time>2016-10-15T13:09:45Z</time></trkpt>
<trkpt lat="53.1002630000" lon="-4.1268490000"><ele>273</ele><time>2016-10-15T13:09:46Z</time></trkpt>
<trkpt lat="53.1002640000" lon="-4.1268500000"><ele>272</ele><time>2016-10-15T13:09:47Z</time></trkpt>
<trkpt lat="53.1003490000" lon="-4.1268950000"><ele>272</ele><time>2016-10-15T13:09:48Z</time></trkpt>
<trkpt lat="53.1003660000" lon="-4.1269010000"><ele>272</ele><time>2016-10-15T13:09:49Z</time></trkpt>
<trkpt lat="53.1003810000" lon="-4.1269050000"><ele>272</ele><time>2016-10-15T13:09:50Z</time></trkpt>
<trkpt lat="53.1003940000" lon="-4.1269090000"><ele>272</ele><time>2016-10-15T13:09:51Z</time></trkpt>
<trkpt lat="53.1004080000" lon="-4.1269140000"><ele>272</ele><time>2016-10-15T13:09:52Z</time></trkpt>
<trkpt lat="53.1004220000" lon="-4.1269170000"><ele>272</ele><time>2016-10-15T13:09:53Z</time></trkpt>
<trkpt lat="53.1004330000" lon="-4.1269190000"><ele>272</ele><time>2016-10-15T13:09:54Z</time></trkpt>
<trkpt lat="53.1004470000" lon="-4.1269200000"><ele>272</ele><time>2016-10-15T13:09:55Z</time></trkpt>
<trkpt lat="53.1004610000" lon="-4.1269230000"><ele>272</ele><time>2016-10-15T13:09:56Z</time></trkpt>
<trkpt lat="53.1004740000" lon="-4.1269270000"><ele>271</ele><time>2016-10-15T13:09:57Z</time></trkpt>
<trkpt lat="53.1004890000" lon="-4.1269310000"><ele>271</ele><time>2016-10-15T13:09:58Z</time></trkpt>
<trkpt lat="53.1005020000" lon="-4.1269360000"><ele>271</ele><time>2016-10-15T13:09:59Z</time></trkpt>
<trkpt lat="53.1005150000" lon="-4.1269410000"><ele>271</ele><time>2016-10-15T13:10:00Z</time></trkpt>
<trkpt lat="53.1005270000" lon="-4.1269470000"><ele>271</ele><time>2016-10-15T13:10:01Z</time></trkpt>
<trkpt lat="53.1005410000" lon="-4.1269500000"><ele>271</ele><time>2016-10-15T13:10:02Z</time></trkpt>
<trkpt lat="53.1005550000" lon="-4.1269530000"><ele>271</ele><time>2016-10-15T13:10:03Z</time></trkpt>
<trkpt lat="53.1005680000" lon="-4.1269580000"><ele>271</ele><time>2016-10-15T13:10:04Z</time></trkpt>
<trkpt lat="53.1005810000" lon="-4.1269620000"><ele>271</ele><time>2016-10-15T13:10:05Z</time></trkpt>
<trkpt lat="53.1005930000" lon="-4.1269700000"><ele>270</ele><time>2016-10-15T13:10:06Z</time></trkpt>
<trkpt lat="53.1006050000" lon="-4.1269770000"><ele>270</ele><time>2016-10-15T13:10:07Z</time></trkpt>
<trkpt lat="53.1006140000" lon="-4.1269850000"><ele>270</ele><time>2016-10-15T13:10:08Z</time></trkpt>
<trkpt lat="53.1006250000" lon="-4.1269900000"><ele>270</ele><time>2016-10-15T13:10:09Z</time></trkpt>
<trkpt lat="53.1006360000" lon="-4.1269960000"><ele>270</ele><time>2016-10-15T13:10:10Z</time></trkpt>
<trkpt lat="53.1006460000" lon="-4.1270020000"><ele>270</ele><time>2016-10-15T13:10:11Z</time></trkpt>
<trkpt lat="53.1006570000" lon="-4.1270090000"><ele>269</ele><time>2016-10-15T13:10:12Z</time></trkpt>
<trkpt lat="53.1006570000" lon="-4.1270090000"><ele>269</ele><time>2016-10-15T13:10:13Z</time></trkpt>
<trkpt lat="53.1006570000" lon="-4.1270090000"><ele>269</ele><time>2016-10-15T13:10:14Z</time></trkpt>
<trkpt lat="53.1006570000" lon="-4.1270090000"><ele>269</ele><time>2016-10-15T13:10:15Z</time></trkpt>
<trkpt lat="53.1006580000" lon="-4.1270090000"><ele>268</ele><time>2016-10-15T13:10:16Z</time></trkpt>
<trkpt lat="53.1006590000" lon="-4.1270100000"><ele>268</ele><time>2016-10-15T13:10:17Z</time></trkpt>
<trkpt lat="53.1006610000" lon="-4.1270110000"><ele>268</ele><time>2016-10-15T13:10:18Z</time></trkpt>
<trkpt lat="53.1006630000" lon="-4.1270110000"><ele>268</ele><time>2016-10-15T13:10:19Z</time></trkpt>
<trkpt lat="53.1006650000" lon="-4.1270130000"><ele>268</ele><time>2016-10-15T13:10:20Z</time></trkpt>
<trkpt lat="53.1006670000" lon="-4.1270140000"><ele>267</ele><time>2016-10-15T13:10:21Z</time></trkpt>
<trkpt lat="53.1006730000" lon="-4.1270160000"><ele>267</ele><time>2016-10-15T13:10:23Z</time></trkpt>
<trkpt lat="53.1006760000" lon="-4.1270170000"><ele>267</ele><time>2016-10-15T13:10:24Z</time></trkpt>
<trkpt lat="53.1006800000" lon="-4.1270190000"><ele>267</ele><time>2016-10-15T13:10:25Z</time></trkpt>
<trkpt lat="53.1006840000" lon="-4.1270200000"><ele>267</ele><time>2016-10-15T13:10:26Z</time></trkpt>
<trkpt lat="53.1006870000" lon="-4.1270220000"><ele>267</ele><time>2016-10-15T13:10:27Z</time></trkpt>
<trkpt lat="53.1006910000" lon="-4.1270230000"><ele>267</ele><time>2016-10-15T13:10:28Z</time></trkpt>
<trkpt lat="53.1006930000" lon="-4.1270230000"><ele>267</ele><time>2016-10-15T13:10:29Z</time></trkpt>
<trkpt lat="53.1006970000" lon="-4.1270250000"><ele>266</ele><time>2016-10-15T13:10:30Z</time></trkpt>
<trkpt lat="53.1007010000" lon="-4.1270270000"><ele>266</ele><time>2016-10-15T13:10:31Z</time></trkpt>
<trkpt lat="53.1007050000" lon="-4.1270300000"><ele>266</ele><time>2016-10-15T13:10:32Z</time></trkpt>
<trkpt lat="53.1007090000" lon="-4.1270330000"><ele>266</ele><time>2016-10-15T13:10:33Z</time></trkpt>
<trkpt lat="53.1007140000" lon="-4.1270360000"><ele>266</ele><time>2016-10-15T13:10:34Z</time></trkpt>
<trkpt lat="53.1007180000" lon="-4.1270400000"><ele>266</ele><time>2016-10-15T13:10:35Z</time></trkpt>
<trkpt lat="53.1007230000" lon="-4.1270450000"><ele>266</ele><time>2016-10-15T13:10:36Z</time></trkpt>
<trkpt lat="53.1007280000" lon="-4.1270490000"><ele>265</ele><time>2016-10-15T13:10:37Z</time></trkpt>
<trkpt lat="53.1007340000" lon="-4.1270540000"><ele>265</ele><time>2016-10-15T13:10:38Z</time></trkpt>
<trkpt lat="53.1007400000" lon="-4.1270600000"><ele>265</ele><time>2016-10-15T13:10:39Z</time></trkpt>
<trkpt lat="53.1007460000" lon="-4.1270660000"><ele>265</ele><time>2016-10-15T13:10:40Z</time></trkpt>
<trkpt lat="53.1007520000" lon="-4.1270720000"><ele>265</ele><time>2016-10-15T13:10:41Z</time></trkpt>
<trkpt lat="53.1007590000" lon="-4.1270790000"><ele>264</ele><time>2016-10-15T13:10:42Z</time></trkpt>
<trkpt lat="53.1007670000" lon="-4.1270860000"><ele>264</ele><time>2016-10-15T13:10:43Z</time></trkpt>
<trkpt lat="53.1007740000" lon="-4.1270930000"><ele>264</ele><time>2016-10-15T13:10:44Z</time></trkpt>
<trkpt lat="53.1007820000" lon="-4.1271010000"><ele>264</ele><time>2016-10-15T13:10:45Z</time></trkpt>
<trkpt lat="53.1007900000" lon="-4.1271090000"><ele>264</ele><time>2016-10-15T13:10:46Z</time></trkpt>
<trkpt lat="53.1007980000" lon="-4.1271170000"><ele>263</ele><time>2016-10-15T13:10:47Z</time></trkpt>
<trkpt lat="53.1008070000" lon="-4.1271250000"><ele>263</ele><time>2016-10-15T13:10:48Z</time></trkpt>
<trkpt lat="53.1008160000" lon="-4.1271340000"><ele>263</ele><time>2016-10-15T13:10:49Z</time></trkpt>
<trkpt lat="53.1009750000" lon="-4.1272860000"><ele>263</ele><time>2016-10-15T13:10:50Z</time></trkpt>
<trkpt lat="53.1009890000" lon="-4.1272980000"><ele>263</ele><time>2016-10-15T13:10:51Z</time></trkpt>
<trkpt lat="53.1010020000" lon="-4.1273110000"><ele>263</ele><time>2016-10-15T13:10:52Z</time></trkpt>
<trkpt lat="53.1010150000" lon="-4.1273250000"><ele>263</ele><time>2016-10-15T13:10:53Z</time></trkpt>
<trkpt lat="53.1010270000" lon="-4.1273390000"><ele>263</ele><time>2016-10-15T13:10:54Z</time></trkpt>
<trkpt lat="53.1010370000" lon="-4.1273530000"><ele>263</ele><time>2016-10-15T13:10:55Z</time></trkpt>
<trkpt lat="53.1010490000" lon="-4.1273660000"><ele>263</ele><time>2016-10-15T13:10:56Z</time></trkpt>
<trkpt lat="53.1010590000" lon="-4.1273790000"><ele>263</ele><time>2016-10-15T13:10:57Z</time></trkpt>
<trkpt lat="53.1010710000" lon="-4.1273920000"><ele>263</ele><time>2016-10-15T13:10:58Z</time></trkpt>
<trkpt lat="53.1010840000" lon="-4.1274050000"><ele>263</ele><time>2016-10-15T13:10:59Z</time></trkpt>
<trkpt lat="53.1010960000" lon="-4.1274160000"><ele>263</ele><time>2016-10-15T13:11:00Z</time></trkpt>
<trkpt lat="53.1011080000" lon="-4.1274290000"><ele>263</ele><time>2016-10-15T13:11:01Z</time></trkpt>
<trkpt lat="53.1011200000" lon="-4.1274420000"><ele>263</ele><time>2016-10-15T13:11:02Z</time></trkpt>
<trkpt lat="53.1011330000" lon="-4.1274540000"><ele>263</ele><time>2016-10-15T13:11:03Z</time></trkpt>
<trkpt lat="53.1011460000" lon="-4.1274720000"><ele>263</ele><time>2016-10-15T13:11:04Z</time></trkpt>
<trkpt lat="53.1011570000" lon="-4.1274900000"><ele>263</ele><time>2016-10-15T13:11:05Z</time></trkpt>
<trkpt lat="53.1011650000" lon="-4.1275020000"><ele>263</ele><time>2016-10-15T13:11:06Z</time></trkpt>
<trkpt lat="53.1011750000" lon="-4.1275140000"><ele>263</ele><time>2016-10-15T13:11:07Z</time></trkpt>
<trkpt lat="53.1011750000" lon="-4.1275140000"><ele>263</ele><time>2016-10-15T13:11:08Z</time></trkpt>
<trkpt lat="53.1011750000" lon="-4.1275140000"><ele>263</ele><time>2016-10-15T13:11:09Z</time></trkpt>
<trkpt lat="53.1011750000" lon="-4.1275140000"><ele>263</ele><time>2016-10-15T13:11:10Z</time></trkpt>
<trkpt lat="53.1011760000" lon="-4.1275150000"><ele>263</ele><time>2016-10-15T13:11:11Z</time></trkpt>
<trkpt lat="53.1011770000" lon="-4.1275160000"><ele>262</ele><time>2016-10-15T13:11:12Z</time></trkpt>
<trkpt lat="53.1011780000" lon="-4.1275180000"><ele>262</ele><time>2016-10-15T13:11:13Z</time></trkpt>
<trkpt lat="53.1011790000" lon="-4.1275210000"><ele>262</ele><time>2016-10-15T13:11:14Z</time></trkpt>
<trkpt lat="53.1011930000" lon="-4.1275470000"><ele>262</ele><time>2016-10-15T13:11:20Z</time></trkpt>
<trkpt lat="53.1012920000" lon="-4.1277400000"><ele>262</ele><time>2016-10-15T13:11:23Z</time></trkpt>
<trkpt lat="53.1013140000" lon="-4.1277850000"><ele>262</ele><time>2016-10-15T13:11:25Z</time></trkpt>
<trkpt lat="53.1014010000" lon="-4.1279060000"><ele>262</ele><time>2016-10-15T13:11:33Z</time></trkpt>
<trkpt lat="53.1014290000" lon="-4.1279520000"><ele>262</ele><time>2016-10-15T13:11:36Z</time></trkpt>
<trkpt lat="53.1014500000" lon="-4.1279980000"><ele>262</ele><time>2016-10-15T13:11:39Z</time></trkpt>
<trkpt lat="53.1014790000" lon="-4.1280430000"><ele>262</ele><time>2016-10-15T13:11:42Z</time></trkpt>
<trkpt lat="53.1015030000" lon="-4.1280820000"><ele>261</ele><time>2016-10-15T13:11:45Z</time></trkpt>
<trkpt lat="53.1015310000" lon="-4.1281180000"><ele>261</ele><time>2016-10-15T13:11:48Z</time></trkpt>
<trkpt lat="53.1015590000" lon="-4.1281540000"><ele>260</ele><time>2016-10-15T13:11:51Z</time></trkpt>
<trkpt lat="53.1015820000" lon="-4.1281750000"><ele>259</ele><time>2016-10-15T13:11:59Z</time></trkpt>
<trkpt lat="53.1016590000" lon="-4.1282750000"><ele>258</ele><time>2016-10-15T13:12:01Z</time></trkpt>
<trkpt lat="53.1016820000" lon="-4.1283020000"><ele>258</ele><time>2016-10-15T13:12:03Z</time></trkpt>
<trkpt lat="53.1017050000" lon="-4.1283310000"><ele>258</ele><time>2016-10-15T13:12:05Z</time></trkpt>
<trkpt lat="53.1017240000" lon="-4.1283610000"><ele>257</ele><time>2016-10-15T13:12:07Z</time></trkpt>
<trkpt lat="53.1017420000" lon="-4.1283930000"><ele>257</ele><time>2016-10-15T13:12:09Z</time></trkpt>
<trkpt lat="53.1017630000" lon="-4.1284240000"><ele>257</ele><time>2016-10-15T13:12:11Z</time></trkpt>
<trkpt lat="53.1017810000" lon="-4.1284580000"><ele>256</ele><time>2016-10-15T13:12:13Z</time></trkpt>
<trkpt lat="53.1018030000" lon="-4.1284910000"><ele>256</ele><time>2016-10-15T13:12:15Z</time></trkpt>
<trkpt lat="53.1018260000" lon="-4.1285260000"><ele>256</ele><time>2016-10-15T13:12:17Z</time></trkpt>
<trkpt lat="53.1018460000" lon="-4.1285590000"><ele>256</ele><time>2016-10-15T13:12:19Z</time></trkpt>
<trkpt lat="53.1018640000" lon="-4.1285960000"><ele>256</ele><time>2016-10-15T13:12:21Z</time></trkpt>
<trkpt lat="53.1018840000" lon="-4.1286310000"><ele>256</ele><time>2016-10-15T13:12:23Z</time></trkpt>
<trkpt lat="53.1019040000" lon="-4.1286630000"><ele>256</ele><time>2016-10-15T13:12:25Z</time></trkpt>
<trkpt lat="53.1019220000" lon="-4.1286940000"><ele>256</ele><time>2016-10-15T13:12:27Z</time></trkpt>
<trkpt lat="53.1019380000" lon="-4.1287260000"><ele>256</ele><time>2016-10-15T13:12:29Z</time></trkpt>
<trkpt lat="53.1019550000" lon="-4.1287590000"><ele>256</ele><time>2016-10-15T13:12:31Z</time></trkpt>
<trkpt lat="53.1020510000" lon="-4.1288630000"><ele>255</ele><time>2016-10-15T13:12:41Z</time></trkpt>
<trkpt lat="53.1020820000" lon="-4.1288850000"><ele>255</ele><time>2016-10-15T13:12:44Z</time></trkpt>
<trkpt lat="53.1021060000" lon="-4.1288980000"><ele>255</ele><time>2016-10-15T13:12:46Z</time></trkpt>
<trkpt lat="53.1021300000" lon="-4.1289040000"><ele>254</ele><time>2016-10-15T13:12:48Z</time></trkpt>
<trkpt lat="53.1021570000" lon="-4.1289050000"><ele>254</ele><time>2016-10-15T13:12:50Z</time></trkpt>
<trkpt lat="53.1023010000" lon="-4.1288720000"><ele>253</ele><time>2016-10-15T13:13:01Z</time></trkpt>
<trkpt lat="53.1023390000" lon="-4.1288660000"><ele>253</ele><time>2016-10-15T13:13:04Z</time></trkpt>
<trkpt lat="53.1023660000" lon="-4.1288670000"><ele>252</ele><time>2016-10-15T13:13:06Z</time></trkpt>
<trkpt lat="53.1024110000" lon="-4.1288840000"><ele>252</ele><time>2016-10-15T13:13:10Z</time></trkpt>
<trkpt lat="53.1024350000" lon="-4.1288940000"><ele>252</ele><time>2016-10-15T13:13:12Z</time></trkpt>
<trkpt lat="53.1024540000" lon="-4.1289080000"><ele>250</ele><time>2016-10-15T13:13:21Z</time></trkpt>
<trkpt lat="53.1024730000" lon="-4.1289240000"><ele>249</ele><time>2016-10-15T13:13:26Z</time></trkpt>
<trkpt lat="53.1026210000" lon="-4.1290680000"><ele>249</ele><time>2016-10-15T13:13:28Z</time></trkpt>
<trkpt lat="53.1026310000" lon="-4.1290810000"><ele>249</ele><time>2016-10-15T13:13:29Z</time></trkpt>
<trkpt lat="53.1026420000" lon="-4.1290940000"><ele>249</ele><time>2016-10-15T13:13:30Z</time></trkpt>
<trkpt lat="53.1026500000" lon="-4.1291060000"><ele>249</ele><time>2016-10-15T13:13:31Z</time></trkpt>
<trkpt lat="53.1026580000" lon="-4.1291190000"><ele>249</ele><time>2016-10-15T13:13:32Z</time></trkpt>
<trkpt lat="53.1026660000" lon="-4.1291310000"><ele>249</ele><time>2016-10-15T13:13:33Z</time></trkpt>
<trkpt lat="53.1026730000" lon="-4.1291420000"><ele>249</ele><time>2016-10-15T13:13:34Z</time></trkpt>
<trkpt lat="53.1026810000" lon="-4.1291540000"><ele>249</ele><time>2016-10-15T13:13:35Z</time></trkpt>
<trkpt lat="53.1026810000" lon="-4.1291540000"><ele>249</ele><time>2016-10-15T13:13:36Z</time></trkpt>
<trkpt lat="53.1026810000" lon="-4.1291540000"><ele>248</ele><time>2016-10-15T13:13:37Z</time></trkpt>
<trkpt lat="53.1026820000" lon="-4.1291550000"><ele>248</ele><time>2016-10-15T13:13:38Z</time></trkpt>
<trkpt lat="53.1026820000" lon="-4.1291560000"><ele>248</ele><time>2016-10-15T13:13:39Z</time></trkpt>
<trkpt lat="53.1026830000" lon="-4.1291570000"><ele>248</ele><time>2016-10-15T13:13:40Z</time></trkpt>
<trkpt lat="53.1026850000" lon="-4.1291590000"><ele>249</ele><time>2016-10-15T13:13:41Z</time></trkpt>
<trkpt lat="53.1026860000" lon="-4.1291610000"><ele>249</ele><time>2016-10-15T13:13:42Z</time></trkpt>
<trkpt lat="53.1026880000" lon="-4.1291630000"><ele>249</ele><time>2016-10-15T13:13:43Z</time></trkpt>
<trkpt lat="53.1026910000" lon="-4.1291670000"><ele>249</ele><time>2016-10-15T13:13:44Z</time></trkpt>
<trkpt lat="53.1026940000" lon="-4.1291700000"><ele>249</ele><time>2016-10-15T13:13:45Z</time></trkpt>
<trkpt lat="53.1026980000" lon="-4.1291750000"><ele>249</ele><time>2016-10-15T13:13:46Z</time></trkpt>
<trkpt lat="53.1027020000" lon="-4.1291800000"><ele>249</ele><time>2016-10-15T13:13:47Z</time></trkpt>
<trkpt lat="53.1027060000" lon="-4.1291850000"><ele>249</ele><time>2016-10-15T13:13:48Z</time></trkpt>
<trkpt lat="53.1027110000" lon="-4.1291910000"><ele>249</ele><time>2016-10-15T13:13:49Z</time></trkpt>
<trkpt lat="53.1027170000" lon="-4.1291970000"><ele>249</ele><time>2016-10-15T13:13:50Z</time></trkpt>
<trkpt lat="53.1027220000" lon="-4.1292040000"><ele>249</ele><time>2016-10-15T13:13:51Z</time></trkpt>
<trkpt lat="53.1027290000" lon="-4.1292110000"><ele>249</ele><time>2016-10-15T13:13:52Z</time></trkpt>
<trkpt lat="53.1027350000" lon="-4.1292180000"><ele>249</ele><time>2016-10-15T13:13:53Z</time></trkpt>
<trkpt lat="53.1027420000" lon="-4.1292250000"><ele>249</ele><time>2016-10-15T13:13:54Z</time></trkpt>
<trkpt lat="53.1027500000" lon="-4.1292330000"><ele>249</ele><time>2016-10-15T13:13:55Z</time></trkpt>
<trkpt lat="53.1027570000" lon="-4.1292400000"><ele>249</ele><time>2016-10-15T13:13:56Z</time></trkpt>
<trkpt lat="53.1027650000" lon="-4.1292480000"><ele>249</ele><time>2016-10-15T13:13:57Z</time></trkpt>
<trkpt lat="53.1027740000" lon="-4.1292560000"><ele>249</ele><time>2016-10-15T13:13:58Z</time></trkpt>
<trkpt lat="53.1029270000" lon="-4.1294010000"><ele>249</ele><time>2016-10-15T13:13:59Z</time></trkpt>
<trkpt lat="53.1029370000" lon="-4.1294060000"><ele>249</ele><time>2016-10-15T13:14:00Z</time></trkpt>
<trkpt lat="53.1029470000" lon="-4.1294130000"><ele>249</ele><time>2016-10-15T13:14:01Z</time></trkpt>
<trkpt lat="53.1029470000" lon="-4.1294130000"><ele>249</ele><time>2016-10-15T13:14:02Z</time></trkpt>
<trkpt lat="53.1029480000" lon="-4.1294130000"><ele>249</ele><time>2016-10-15T13:14:03Z</time></trkpt>
<trkpt lat="53.1029480000" lon="-4.1294130000"><ele>249</ele><time>2016-10-15T13:14:04Z</time></trkpt>
<trkpt lat="53.1029490000" lon="-4.1294130000"><ele>249</ele><time>2016-10-15T13:14:05Z</time></trkpt>
<trkpt lat="53.1029500000" lon="-4.1294130000"><ele>249</ele><time>2016-10-15T13:14:06Z</time></trkpt>
<trkpt lat="53.1029520000" lon="-4.1294140000"><ele>249</ele><time>2016-10-15T13:14:07Z</time></trkpt>
<trkpt lat="53.1029540000" lon="-4.1294140000"><ele>249</ele><time>2016-10-15T13:14:08Z</time></trkpt>
<trkpt lat="53.1029570000" lon="-4.1294150000"><ele>249</ele><time>2016-10-15T13:14:09Z</time></trkpt>
<trkpt lat="53.1029600000" lon="-4.1294150000"><ele>249</ele><time>2016-10-15T13:14:10Z</time></trkpt>
<trkpt lat="53.1029630000" lon="-4.1294150000"><ele>249</ele><time>2016-10-15T13:14:11Z</time></trkpt>
<trkpt lat="53.1029670000" lon="-4.1294150000"><ele>249</ele><time>2016-10-15T13:14:12Z</time></trkpt>
<trkpt lat="53.1029720000" lon="-4.1294140000"><ele>249</ele><time>2016-10-15T13:14:13Z</time></trkpt>
<trkpt lat="53.1029770000" lon="-4.1294130000"><ele>248</ele><time>2016-10-15T13:14:14Z</time></trkpt>
<trkpt lat="53.1029830000" lon="-4.1294120000"><ele>248</ele><time>2016-10-15T13:14:15Z</time></trkpt>
<trkpt lat="53.1029890000" lon="-4.1294100000"><ele>248</ele><time>2016-10-15T13:14:16Z</time></trkpt>
<trkpt lat="53.1029960000" lon="-4.1294080000"><ele>248</ele><time>2016-10-15T13:14:17Z</time></trkpt>
<trkpt lat="53.1030040000" lon="-4.1294050000"><ele>248</ele><time>2016-10-15T13:14:18Z</time></trkpt>
<trkpt lat="53.1030110000" lon="-4.1294010000"><ele>248</ele><time>2016-10-15T13:14:19Z</time></trkpt>
<trkpt lat="53.1030200000" lon="-4.1293970000"><ele>248</ele><time>2016-10-15T13:14:20Z</time></trkpt>
<trkpt lat="53.1030280000" lon="-4.1293930000"><ele>248</ele><time>2016-10-15T13:14:21Z</time></trkpt>
<trkpt lat="53.1030460000" lon="-4.1293810000"><ele>248</ele><time>2016-10-15T13:14:23Z</time></trkpt>
<trkpt lat="53.1030550000" lon="-4.1293750000"><ele>248</ele><time>2016-10-15T13:14:24Z</time></trkpt>
<trkpt lat="53.1030640000" lon="-4.1293680000"><ele>248</ele><time>2016-10-15T13:14:25Z</time></trkpt>
<trkpt lat="53.1032350000" lon="-4.1292370000"><ele>248</ele><time>2016-10-15T13:14:26Z</time></trkpt>
<trkpt lat="53.1032460000" lon="-4.1292260000"><ele>248</ele><time>2016-10-15T13:14:27Z</time></trkpt>
<trkpt lat="53.1032560000" lon="-4.1292140000"><ele>248</ele><time>2016-10-15T13:14:28Z</time></trkpt>
<trkpt lat="53.1032680000" lon="-4.1292050000"><ele>248</ele><time>2016-10-15T13:14:29Z</time></trkpt>
<trkpt lat="53.1032800000" lon="-4.1291980000"><ele>248</ele><time>2016-10-15T13:14:30Z</time></trkpt>
<trkpt lat="53.1032930000" lon="-4.1291930000"><ele>248</ele><time>2016-10-15T13:14:31Z</time></trkpt>
<trkpt lat="53.1033050000" lon="-4.1291890000"><ele>248</ele><time>2016-10-15T13:14:32Z</time></trkpt>
<trkpt lat="53.1033170000" lon="-4.1291860000"><ele>248</ele><time>2016-10-15T13:14:33Z</time></trkpt>
<trkpt lat="53.1033290000" lon="-4.1291880000"><ele>248</ele><time>2016-10-15T13:14:34Z</time></trkpt>
<trkpt lat="53.1033400000" lon="-4.1291910000"><ele>248</ele><time>2016-10-15T13:14:35Z</time></trkpt>
<trkpt lat="53.1033400000" lon="-4.1291910000"><ele>248</ele><time>2016-10-15T13:14:36Z</time></trkpt>
<trkpt lat="53.1033400000" lon="-4.1291910000"><ele>248</ele><time>2016-10-15T13:14:37Z</time></trkpt>
<trkpt lat="53.1033400000" lon="-4.1291910000"><ele>248</ele><time>2016-10-15T13:14:38Z</time></trkpt>
<trkpt lat="53.1033410000" lon="-4.1291910000"><ele>248</ele><time>2016-10-15T13:14:39Z</time></trkpt>
<trkpt lat="53.1033430000" lon="-4.1291910000"><ele>248</ele><time>2016-10-15T13:14:40Z</time></trkpt>
<trkpt lat="53.1033450000" lon="-4.1291920000"><ele>248</ele><time>2016-10-15T13:14:41Z</time></trkpt>
<trkpt lat="53.1033470000" lon="-4.1291920000"><ele>248</ele><time>2016-10-15T13:14:42Z</time></trkpt>
<trkpt lat="53.1033500000" lon="-4.1291930000"><ele>248</ele><time>2016-10-15T13:14:43Z</time></trkpt>
<trkpt lat="53.1033540000" lon="-4.1291930000"><ele>248</ele><time>2016-10-15T13:14:44Z</time></trkpt>
<trkpt lat="53.1033580000" lon="-4.1291940000"><ele>248</ele><time>2016-10-15T13:14:45Z</time></trkpt>
<trkpt lat="53.1033630000" lon="-4.1291950000"><ele>248</ele><time>2016-10-15T13:14:46Z</time></trkpt>
<trkpt lat="53.1033680000" lon="-4.1291960000"><ele>248</ele><time>2016-10-15T13:14:47Z</time></trkpt>
<trkpt lat="53.1033740000" lon="-4.1291970000"><ele>248</ele><time>2016-10-15T13:14:48Z</time></trkpt>
<trkpt lat="53.1033800000" lon="-4.1291990000"><ele>248</ele><time>2016-10-15T13:14:49Z</time></trkpt>
<trkpt lat="53.1033870000" lon="-4.1292000000"><ele>248</ele><time>2016-10-15T13:14:50Z</time></trkpt>
<trkpt lat="53.1033940000" lon="-4.1292020000"><ele>247</ele><time>2016-10-15T13:14:51Z</time></trkpt>
<trkpt lat="53.1035570000" lon="-4.1292380000"><ele>247</ele><time>2016-10-15T13:14:52Z</time></trkpt>
<trkpt lat="53.1035700000" lon="-4.1292430000"><ele>247</ele><time>2016-10-15T13:14:53Z</time></trkpt>
<trkpt lat="53.1035840000" lon="-4.1292460000"><ele>247</ele><time>2016-10-15T13:14:54Z</time></trkpt>
<trkpt lat="53.1035990000" lon="-4.1292470000"><ele>247</ele><time>2016-10-15T13:14:55Z</time></trkpt>
<trkpt lat="53.1036130000" lon="-4.1292490000"><ele>247</ele><time>2016-10-15T13:14:56Z</time></trkpt>
<trkpt lat="53.1036260000" lon="-4.1292520000"><ele>247</ele><time>2016-10-15T13:14:57Z</time></trkpt>
<trkpt lat="53.1036380000" lon="-4.1292540000"><ele>247</ele><time>2016-10-15T13:14:58Z</time></trkpt>
<trkpt lat="53.1036490000" lon="-4.1292550000"><ele>247</ele><time>2016-10-15T13:14:59Z</time></trkpt>
<trkpt lat="53.1036590000" lon="-4.1292560000"><ele>247</ele><time>2016-10-15T13:15:00Z</time></trkpt>
<trkpt lat="53.1036590000" lon="-4.1292560000"><ele>247</ele><time>2016-10-15T13:15:01Z</time></trkpt>
<trkpt lat="53.1036600000" lon="-4.1292560000"><ele>247</ele><time>2016-10-15T13:15:02Z</time></trkpt>
<trkpt lat="53.1036600000" lon="-4.1292560000"><ele>246</ele><time>2016-10-15T13:15:03Z</time></trkpt>
<trkpt lat="53.1036610000" lon="-4.1292560000"><ele>246</ele><time>2016-10-15T13:15:04Z</time></trkpt>
<trkpt lat="53.1036620000" lon="-4.1292560000"><ele>246</ele><time>2016-10-15T13:15:05Z</time></trkpt>
<trkpt lat="53.1036630000" lon="-4.1292560000"><ele>246</ele><time>2016-10-15T13:15:06Z</time></trkpt>
<trkpt lat="53.1036650000" lon="-4.1292560000"><ele>246</ele><time>2016-10-15T13:15:07Z</time></trkpt>
<trkpt lat="53.1036680000" lon="-4.1292560000"><ele>246</ele><time>2016-10-15T13:15:08Z</time></trkpt>
<trkpt lat="53.1036710000" lon="-4.1292570000"><ele>246</ele><time>2016-10-15T13:15:09Z</time></trkpt>
<trkpt lat="53.1037790000" lon="-4.1292810000"><ele>246</ele><time>2016-10-15T13:15:10Z</time></trkpt>
<trkpt lat="53.1037920000" lon="-4.1292870000"><ele>246</ele><time>2016-10-15T13:15:11Z</time></trkpt>
<trkpt lat="53.1038050000" lon="-4.1292920000"><ele>246</ele><time>2016-10-15T13:15:12Z</time></trkpt>
<trkpt lat="53.1038180000" lon="-4.1292950000"><ele>246</ele><time>2016-10-15T13:15:13Z</time></trkpt>
<trkpt lat="53.1038300000" lon="-4.1292980000"><ele>246</ele><time>2016-10-15T13:15:14Z</time></trkpt>
<trkpt lat="53.1038420000" lon="-4.1293010000"><ele>246</ele><time>2016-10-15T13:15:15Z</time></trkpt>
<trkpt lat="53.1038540000" lon="-4.1293060000"><ele>246</ele><time>2016-10-15T13:15:16Z</time></trkpt>
<trkpt lat="53.1038670000" lon="-4.1293110000"><ele>246</ele><time>2016-10-15T13:15:17Z</time></trkpt>
<trkpt lat="53.1038800000" lon="-4.1293140000"><ele>246</ele><time>2016-10-15T13:15:18Z</time></trkpt>
<trkpt lat="53.1038920000" lon="-4.1293190000"><ele>246</ele><time>2016-10-15T13:15:19Z</time></trkpt>
<trkpt lat="53.1039040000" lon="-4.1293230000"><ele>247</ele><time>2016-10-15T13:15:20Z</time></trkpt>
<trkpt lat="53.1039180000" lon="-4.1293270000"><ele>247</ele><time>2016-10-15T13:15:21Z</time></trkpt>
<trkpt lat="53.1039450000" lon="-4.1293350000"><ele>247</ele><time>2016-10-15T13:15:23Z</time></trkpt>
<trkpt lat="53.1039580000" lon="-4.1293370000"><ele>247</ele><time>2016-10-15T13:15:24Z</time></trkpt>
<trkpt lat="53.1039730000" lon="-4.1293380000"><ele>247</ele><time>2016-10-15T13:15:25Z</time></trkpt>
<trkpt lat="53.1039860000" lon="-4.1293400000"><ele>248</ele><time>2016-10-15T13:15:26Z</time></trkpt>
<trkpt lat="53.1039980000" lon="-4.1293420000"><ele>248</ele><time>2016-10-15T13:15:27Z</time></trkpt>
<trkpt lat="53.1040070000" lon="-4.1293450000"><ele>248</ele><time>2016-10-15T13:15:28Z</time></trkpt>
<trkpt lat="53.1040080000" lon="-4.1293450000"><ele>248</ele><time>2016-10-15T13:15:29Z</time></trkpt>
<trkpt lat="53.1040080000" lon="-4.1293450000"><ele>248</ele><time>2016-10-15T13:15:30Z</time></trkpt>
<trkpt lat="53.1040080000" lon="-4.1293450000"><ele>248</ele><time>2016-10-15T13:15:31Z</time></trkpt>
<trkpt lat="53.1040090000" lon="-4.1293450000"><ele>248</ele><time>2016-10-15T13:15:32Z</time></trkpt>
<trkpt lat="53.1040100000" lon="-4.1293450000"><ele>248</ele><time>2016-10-15T13:15:33Z</time></trkpt>
<trkpt lat="53.1040120000" lon="-4.1293460000"><ele>248</ele><time>2016-10-15T13:15:34Z</time></trkpt>
<trkpt lat="53.1040140000" lon="-4.1293460000"><ele>248</ele><time>2016-10-15T13:15:35Z</time></trkpt>
<trkpt lat="53.1041040000" lon="-4.1293660000"><ele>248</ele><time>2016-10-15T13:15:36Z</time></trkpt>
<trkpt lat="53.1041170000" lon="-4.1293710000"><ele>248</ele><time>2016-10-15T13:15:37Z</time></trkpt>
<trkpt lat="53.1041280000" lon="-4.1293740000"><ele>248</ele><time>2016-10-15T13:15:38Z</time></trkpt>
<trkpt lat="53.1041430000" lon="-4.1293770000"><ele>248</ele><time>2016-10-15T13:15:39Z</time></trkpt>
<trkpt lat="53.1041570000" lon="-4.1293810000"><ele>248</ele><time>2016-10-15T13:15:40Z</time></trkpt>
<trkpt lat="53.1041710000" lon="-4.1293830000"><ele>248</ele><time>2016-10-15T13:15:41Z</time></trkpt>
<trkpt lat="53.1041840000" lon="-4.1293830000"><ele>248</ele><time>2016-10-15T13:15:42Z</time></trkpt>
<trkpt lat="53.1041970000" lon="-4.1293850000"><ele>249</ele><time>2016-10-15T13:15:43Z</time></trkpt>
<trkpt lat="53.1042090000" lon="-4.1293880000"><ele>249</ele><time>2016-10-15T13:15:44Z</time></trkpt>
<trkpt lat="53.1042210000" lon="-4.1293930000"><ele>249</ele><time>2016-10-15T13:15:45Z</time></trkpt>
<trkpt lat="53.1042340000" lon="-4.1293990000"><ele>249</ele><time>2016-10-15T13:15:46Z</time></trkpt>
<trkpt lat="53.1042450000" lon="-4.1294010000"><ele>249</ele><time>2016-10-15T13:15:47Z</time></trkpt>
<trkpt lat="53.1042560000" lon="-4.1294020000"><ele>249</ele><time>2016-10-15T13:15:48Z</time></trkpt>
<trkpt lat="53.1042570000" lon="-4.1294020000"><ele>249</ele><time>2016-10-15T13:15:49Z</time></trkpt>
<trkpt lat="53.1042570000" lon="-4.1294020000"><ele>249</ele><time>2016-10-15T13:15:50Z</time></trkpt>
<trkpt lat="53.1042570000" lon="-4.1294030000"><ele>250</ele><time>2016-10-15T13:15:51Z</time></trkpt>
<trkpt lat="53.1042990000" lon="-4.1294240000"><ele>250</ele><time>2016-10-15T13:15:52Z</time></trkpt>
<trkpt lat="53.1043130000" lon="-4.1294280000"><ele>250</ele><time>2016-10-15T13:15:53Z</time></trkpt>
<trkpt lat="53.1043260000" lon="-4.1294330000"><ele>250</ele><time>2016-10-15T13:15:54Z</time></trkpt>
<trkpt lat="53.1043390000" lon="-4.1294390000"><ele>250</ele><time>2016-10-15T13:15:55Z</time></trkpt>
<trkpt lat="53.1043500000" lon="-4.1294430000"><ele>250</ele><time>2016-10-15T13:15:56Z</time></trkpt>
<trkpt lat="53.1043610000" lon="-4.1294470000"><ele>250</ele><time>2016-10-15T13:15:57Z</time></trkpt>
<trkpt lat="53.1043720000" lon="-4.1294500000"><ele>250</ele><time>2016-10-15T13:15:58Z</time></trkpt>
<trkpt lat="53.1043840000" lon="-4.1294520000"><ele>250</ele><time>2016-10-15T13:15:59Z</time></trkpt>
<trkpt lat="53.1043940000" lon="-4.1294570000"><ele>250</ele><time>2016-10-15T13:16:00Z</time></trkpt>
<trkpt lat="53.1043940000" lon="-4.1294570000"><ele>250</ele><time>2016-10-15T13:16:01Z</time></trkpt>
<trkpt lat="53.1043940000" lon="-4.1294570000"><ele>250</ele><time>2016-10-15T13:16:02Z</time></trkpt>
<trkpt lat="53.1043950000" lon="-4.1294570000"><ele>250</ele><time>2016-10-15T13:16:03Z</time></trkpt>
<trkpt lat="53.1044430000" lon="-4.1294790000"><ele>250</ele><time>2016-10-15T13:16:04Z</time></trkpt>
<trkpt lat="53.1044560000" lon="-4.1294820000"><ele>250</ele><time>2016-10-15T13:16:05Z</time></trkpt>
<trkpt lat="53.1044680000" lon="-4.1294860000"><ele>250</ele><time>2016-10-15T13:16:06Z</time></trkpt>
<trkpt lat="53.1044800000" lon="-4.1294900000"><ele>250</ele><time>2016-10-15T13:16:07Z</time></trkpt>
<trkpt lat="53.1044910000" lon="-4.1294930000"><ele>250</ele><time>2016-10-15T13:16:08Z</time></trkpt>
<trkpt lat="53.1045030000" lon="-4.1294950000"><ele>250</ele><time>2016-10-15T13:16:09Z</time></trkpt>
<trkpt lat="53.1045150000" lon="-4.1294990000"><ele>250</ele><time>2016-10-15T13:16:10Z</time></trkpt>
<trkpt lat="53.1045280000" lon="-4.1295030000"><ele>250</ele><time>2016-10-15T13:16:11Z</time></trkpt>
<trkpt lat="53.1045410000" lon="-4.1295050000"><ele>250</ele><time>2016-10-15T13:16:12Z</time></trkpt>
<trkpt lat="53.1045530000" lon="-4.1295070000"><ele>250</ele><time>2016-10-15T13:16:13Z</time></trkpt>
<trkpt lat="53.1045660000" lon="-4.1295110000"><ele>249</ele><time>2016-10-15T13:16:14Z</time></trkpt>
<trkpt lat="53.1045780000" lon="-4.1295110000"><ele>249</ele><time>2016-10-15T13:16:15Z</time></trkpt>
<trkpt lat="53.1045900000" lon="-4.1295130000"><ele>249</ele><time>2016-10-15T13:16:16Z</time></trkpt>
<trkpt lat="53.1046030000" lon="-4.1295140000"><ele>249</ele><time>2016-10-15T13:16:17Z</time></trkpt>
<trkpt lat="53.1046160000" lon="-4.1295130000"><ele>249</ele><time>2016-10-15T13:16:18Z</time></trkpt>
<trkpt lat="53.1046300000" lon="-4.1295120000"><ele>249</ele><time>2016-10-15T13:16:19Z</time></trkpt>
<trkpt lat="53.1046430000" lon="-4.1295120000"><ele>249</ele><time>2016-10-15T13:16:20Z</time></trkpt>
<trkpt lat="53.1046550000" lon="-4.1295100000"><ele>249</ele><time>2016-10-15T13:16:21Z</time></trkpt>
<trkpt lat="53.1046790000" lon="-4.1295050000"><ele>249</ele><time>2016-10-15T13:16:23Z</time></trkpt>
<trkpt lat="53.1046910000" lon="-4.1295020000"><ele>249</ele><time>2016-10-15T13:16:24Z</time></trkpt>
<trkpt lat="53.1047050000" lon="-4.1294990000"><ele>249</ele><time>2016-10-15T13:16:25Z</time></trkpt>
<trkpt lat="53.1047180000" lon="-4.1294980000"><ele>249</ele><time>2016-10-15T13:16:26Z</time></trkpt>
<trkpt lat="53.1047330000" lon="-4.1294970000"><ele>249</ele><time>2016-10-15T13:16:27Z</time></trkpt>
<trkpt lat="53.1047470000" lon="-4.1294960000"><ele>249</ele><time>2016-10-15T13:16:28Z</time></trkpt>
<trkpt lat="53.1047600000" lon="-4.1294920000"><ele>248</ele><time>2016-10-15T13:16:29Z</time></trkpt>
<trkpt lat="53.1047730000" lon="-4.1294900000"><ele>248</ele><time>2016-10-15T13:16:30Z</time></trkpt>
<trkpt lat="53.1047840000" lon="-4.1294870000"><ele>248</ele><time>2016-10-15T13:16:31Z</time></trkpt>
<trkpt lat="53.1047960000" lon="-4.1294850000"><ele>248</ele><time>2016-10-15T13:16:32Z</time></trkpt>
<trkpt lat="53.1048090000" lon="-4.1294820000"><ele>248</ele><time>2016-10-15T13:16:33Z</time></trkpt>
<trkpt lat="53.1048230000" lon="-4.1294770000"><ele>248</ele><time>2016-10-15T13:16:34Z</time></trkpt>
<trkpt lat="53.1048370000" lon="-4.1294730000"><ele>248</ele><time>2016-10-15T13:16:35Z</time></trkpt>
<trkpt lat="53.1048490000" lon="-4.1294680000"><ele>248</ele><time>2016-10-15T13:16:36Z</time></trkpt>
<trkpt lat="53.1048610000" lon="-4.1294640000"><ele>248</ele><time>2016-10-15T13:16:37Z</time></trkpt>
<trkpt lat="53.1048740000" lon="-4.1294590000"><ele>248</ele><time>2016-10-15T13:16:38Z</time></trkpt>
<trkpt lat="53.1048870000" lon="-4.1294530000"><ele>248</ele><time>2016-10-15T13:16:39Z</time></trkpt>
<trkpt lat="53.1049000000" lon="-4.1294490000"><ele>248</ele><time>2016-10-15T13:16:40Z</time></trkpt>
<trkpt lat="53.1049140000" lon="-4.1294460000"><ele>248</ele><time>2016-10-15T13:16:41Z</time></trkpt>
<trkpt lat="53.1049280000" lon="-4.1294430000"><ele>248</ele><time>2016-10-15T13:16:42Z</time></trkpt>
<trkpt lat="53.1049420000" lon="-4.1294400000"><ele>248</ele><time>2016-10-15T13:16:43Z</time></trkpt>
<trkpt lat="53.1049550000" lon="-4.1294370000"><ele>248</ele><time>2016-10-15T13:16:44Z</time></trkpt>
<trkpt lat="53.1049670000" lon="-4.1294330000"><ele>248</ele><time>2016-10-15T13:16:45Z</time></trkpt>
<trkpt lat="53.1049810000" lon="-4.1294300000"><ele>248</ele><time>2016-10-15T13:16:46Z</time></trkpt>
<trkpt lat="53.1049940000" lon="-4.1294250000"><ele>248</ele><time>2016-10-15T13:16:47Z</time></trkpt>
<trkpt lat="53.1050060000" lon="-4.1294220000"><ele>248</ele><time>2016-10-15T13:16:48Z</time></trkpt>
<trkpt lat="53.1050160000" lon="-4.1294190000"><ele>248</ele><time>2016-10-15T13:16:49Z</time></trkpt>
<trkpt lat="53.1050280000" lon="-4.1294180000"><ele>248</ele><time>2016-10-15T13:16:50Z</time></trkpt>
<trkpt lat="53.1050420000" lon="-4.1294150000"><ele>248</ele><time>2016-10-15T13:16:51Z</time></trkpt>
<trkpt lat="53.1050540000" lon="-4.1294120000"><ele>248</ele><time>2016-10-15T13:16:52Z</time></trkpt>
<trkpt lat="53.1050660000" lon="-4.1294090000"><ele>248</ele><time>2016-10-15T13:16:53Z</time></trkpt>
<trkpt lat="53.1050780000" lon="-4.1294050000"><ele>248</ele><time>2016-10-15T13:16:54Z</time></trkpt>
<trkpt lat="53.1050890000" lon="-4.1294010000"><ele>247</ele><time>2016-10-15T13:16:55Z</time></trkpt>
<trkpt lat="53.1050990000" lon="-4.1293970000"><ele>247</ele><time>2016-10-15T13:16:56Z</time></trkpt>
<trkpt lat="53.1051120000" lon="-4.1293920000"><ele>247</ele><time>2016-10-15T13:16:57Z</time></trkpt>
<trkpt lat="53.1051270000" lon="-4.1293900000"><ele>247</ele><time>2016-10-15T13:16:58Z</time></trkpt>
<trkpt lat="53.1051410000" lon="-4.1293890000"><ele>247</ele><time>2016-10-15T13:16:59Z</time></trkpt>
<trkpt lat="53.1051540000" lon="-4.1293870000"><ele>247</ele><time>2016-10-15T13:17:00Z</time></trkpt>
<trkpt lat="53.1051670000" lon="-4.1293850000"><ele>247</ele><time>2016-10-15T13:17:01Z</time></trkpt>
<trkpt lat="53.1051800000" lon="-4.1293810000"><ele>247</ele><time>2016-10-15T13:17:02Z</time></trkpt>
<trkpt lat="53.1051940000" lon="-4.1293770000"><ele>247</ele><time>2016-10-15T13:17:03Z</time></trkpt>
<trkpt lat="53.1052060000" lon="-4.1293710000"><ele>247</ele><time>2016-10-15T13:17:04Z</time></trkpt>
<trkpt lat="53.1052190000" lon="-4.1293660000"><ele>247</ele><time>2016-10-15T13:17:05Z</time></trkpt>
<trkpt lat="53.1052330000" lon="-4.1293630000"><ele>246</ele><time>2016-10-15T13:17:06Z</time></trkpt>
<trkpt lat="53.1052480000" lon="-4.1293600000"><ele>246</ele><time>2016-10-15T13:17:07Z</time></trkpt>
<trkpt lat="53.1052600000" lon="-4.1293560000"><ele>246</ele><time>2016-10-15T13:17:08Z</time></trkpt>
<trkpt lat="53.1052740000" lon="-4.1293500000"><ele>246</ele><time>2016-10-15T13:17:09Z</time></trkpt>
<trkpt lat="53.1052880000" lon="-4.1293450000"><ele>246</ele><time>2016-10-15T13:17:10Z</time></trkpt>
<trkpt lat="53.1053020000" lon="-4.1293410000"><ele>246</ele><time>2016-10-15T13:17:11Z</time></trkpt>
<trkpt lat="53.1053160000" lon="-4.1293380000"><ele>246</ele><time>2016-10-15T13:17:12Z</time></trkpt>
<trkpt lat="53.1053300000" lon="-4.1293360000"><ele>246</ele><time>2016-10-15T13:17:13Z</time></trkpt>
<trkpt lat="53.1053410000" lon="-4.1293320000"><ele>246</ele><time>2016-10-15T13:17:14Z</time></trkpt>
<trkpt lat="53.1053550000" lon="-4.1293280000"><ele>246</ele><time>2016-10-15T13:17:15Z</time></trkpt>
<trkpt lat="53.1053690000" lon="-4.1293240000"><ele>246</ele><time>2016-10-15T13:17:16Z</time></trkpt>
<trkpt lat="53.1053830000" lon="-4.1293200000"><ele>246</ele><time>2016-10-15T13:17:17Z</time></trkpt>
<trkpt lat="53.1053950000" lon="-4.1293160000"><ele>246</ele><time>2016-10-15T13:17:18Z</time></trkpt>
<trkpt lat="53.1054090000" lon="-4.1293100000"><ele>246</ele><time>2016-10-15T13:17:19Z</time></trkpt>
<trkpt lat="53.1054220000" lon="-4.1293050000"><ele>246</ele><time>2016-10-15T13:17:20Z</time></trkpt>
<trkpt lat="53.1054350000" lon="-4.1293010000"><ele>246</ele><time>2016-10-15T13:17:21Z</time></trkpt>
<trkpt lat="53.1054610000" lon="-4.1292920000"><ele>246</ele><time>2016-10-15T13:17:23Z</time></trkpt>
<trkpt lat="53.1054740000" lon="-4.1292860000"><ele>246</ele><time>2016-10-15T13:17:24Z</time></trkpt>
<trkpt lat="53.1054860000" lon="-4.1292820000"><ele>246</ele><time>2016-10-15T13:17:25Z</time></trkpt>
<trkpt lat="53.1054990000" lon="-4.1292810000"><ele>246</ele><time>2016-10-15T13:17:26Z</time></trkpt>
<trkpt lat="53.1055130000" lon="-4.1292780000"><ele>246</ele><time>2016-10-15T13:17:27Z</time></trkpt>
<trkpt lat="53.1055240000" lon="-4.1292760000"><ele>246</ele><time>2016-10-15T13:17:28Z</time></trkpt>
<trkpt lat="53.1055340000" lon="-4.1292740000"><ele>246</ele><time>2016-10-15T13:17:29Z</time></trkpt>
<trkpt lat="53.1055350000" lon="-4.1292740000"><ele>245</ele><time>2016-10-15T13:17:30Z</time></trkpt>
<trkpt lat="53.1055350000" lon="-4.1292740000"><ele>245</ele><time>2016-10-15T13:17:31Z</time></trkpt>
<trkpt lat="53.1055350000" lon="-4.1292740000"><ele>245</ele><time>2016-10-15T13:17:32Z</time></trkpt>
<trkpt lat="53.1055360000" lon="-4.1292740000"><ele>245</ele><time>2016-10-15T13:17:33Z</time></trkpt>
<trkpt lat="53.1055370000" lon="-4.1292740000"><ele>245</ele><time>2016-10-15T13:17:34Z</time></trkpt>
<trkpt lat="53.1055390000" lon="-4.1292740000"><ele>245</ele><time>2016-10-15T13:17:35Z</time></trkpt>
<trkpt lat="53.1055410000" lon="-4.1292730000"><ele>245</ele><time>2016-10-15T13:17:36Z</time></trkpt>
<trkpt lat="53.1055440000" lon="-4.1292730000"><ele>245</ele><time>2016-10-15T13:17:37Z</time></trkpt>
<trkpt lat="53.1055470000" lon="-4.1292720000"><ele>245</ele><time>2016-10-15T13:17:38Z</time></trkpt>
<trkpt lat="53.1055490000" lon="-4.1292720000"><ele>245</ele><time>2016-10-15T13:17:39Z</time></trkpt>
<trkpt lat="53.1055530000" lon="-4.1292710000"><ele>245</ele><time>2016-10-15T13:17:40Z</time></trkpt>
<trkpt lat="53.1055560000" lon="-4.1292710000"><ele>245</ele><time>2016-10-15T13:17:41Z</time></trkpt>
<trkpt lat="53.1055600000" lon="-4.1292710000"><ele>245</ele><time>2016-10-15T13:17:42Z</time></trkpt>
<trkpt lat="53.1055650000" lon="-4.1292700000"><ele>245</ele><time>2016-10-15T13:17:44Z</time></trkpt>
<trkpt lat="53.1055690000" lon="-4.1292700000"><ele>245</ele></trkpt>
<trkpt lat="53.1055740000" lon="-4.1292700000"><ele>245</ele><time>2016-10-15T13:17:45Z</time></trkpt>
<trkpt lat="53.1056960000" lon="-4.1292680000"><ele>245</ele><time>2016-10-15T13:17:46Z</time></trkpt>
<trkpt lat="53.1057070000" lon="-4.1292660000"><ele>245</ele><time>2016-10-15T13:17:47Z</time></trkpt>
<trkpt lat="53.1057220000" lon="-4.1292650000"><ele>245</ele><time>2016-10-15T13:17:48Z</time></trkpt>
<trkpt lat="53.1057350000" lon="-4.1292670000"><ele>245</ele><time>2016-10-15T13:17:49Z</time></trkpt>
<trkpt lat="53.1057490000" lon="-4.1292690000"><ele>245</ele><time>2016-10-15T13:17:50Z</time></trkpt>
<trkpt lat="53.1057620000" lon="-4.1292670000"><ele>245</ele><time>2016-10-15T13:17:51Z</time></trkpt>
<trkpt lat="53.1057730000" lon="-4.1292670000"><ele>245</ele><time>2016-10-15T13:17:52Z</time></trkpt>
<trkpt lat="53.1057830000" lon="-4.1292660000"><ele>245</ele><time>2016-10-15T13:17:53Z</time></trkpt>
<trkpt lat="53.1057830000" lon="-4.1292660000"><ele>245</ele><time>2016-10-15T13:17:54Z</time></trkpt>
<trkpt lat="53.1057830000" lon="-4.1292660000"><ele>245</ele><time>2016-10-15T13:17:55Z</time></trkpt>
<trkpt lat="53.1057830000" lon="-4.1292660000"><ele>244</ele><time>2016-10-15T13:17:56Z</time></trkpt>
<trkpt lat="53.1057840000" lon="-4.1292660000"><ele>244</ele><time>2016-10-15T13:17:57Z</time></trkpt>
<trkpt lat="53.1057850000" lon="-4.1292660000"><ele>244</ele><time>2016-10-15T13:17:58Z</time></trkpt>
<trkpt lat="53.1057870000" lon="-4.1292660000"><ele>244</ele><time>2016-10-15T13:17:59Z</time></trkpt>
<trkpt lat="53.1057880000" lon="-4.1292670000"><ele>244</ele><time>2016-10-15T13:18:00Z</time></trkpt>
<trkpt lat="53.1057900000" lon="-4.1292670000"><ele>244</ele><time>2016-10-15T13:18:01Z</time></trkpt>
<trkpt lat="53.1057930000" lon="-4.1292680000"><ele>244</ele><time>2016-10-15T13:18:02Z</time></trkpt>
<trkpt lat="53.1057960000" lon="-4.1292690000"><ele>244</ele><time>2016-10-15T13:18:03Z</time></trkpt>
<trkpt lat="53.1058000000" lon="-4.1292700000"><ele>243</ele><time>2016-10-15T13:18:04Z</time></trkpt>
<trkpt lat="53.1058040000" lon="-4.1292710000"><ele>243</ele><time>2016-10-15T13:18:05Z</time></trkpt>
<trkpt lat="53.1058090000" lon="-4.1292730000"><ele>243</ele><time>2016-10-15T13:18:06Z</time></trkpt>
<trkpt lat="53.1058140000" lon="-4.1292740000"><ele>243</ele><time>2016-10-15T13:18:07Z</time></trkpt>
<trkpt lat="53.1058200000" lon="-4.1292760000"><ele>243</ele><time>2016-10-15T13:18:08Z</time></trkpt>
<trkpt lat="53.1058260000" lon="-4.1292780000"><ele>243</ele><time>2016-10-15T13:18:09Z</time></trkpt>
<trkpt lat="53.1058320000" lon="-4.1292800000"><ele>243</ele><time>2016-10-15T13:18:10Z</time></trkpt>
<trkpt lat="53.1058390000" lon="-4.1292820000"><ele>242</ele><time>2016-10-15T13:18:11Z</time></trkpt>
<trkpt lat="53.1058460000" lon="-4.1292840000"><ele>242</ele><time>2016-10-15T13:18:12Z</time></trkpt>
<trkpt lat="53.1058540000" lon="-4.1292870000"><ele>242</ele><time>2016-10-15T13:18:13Z</time></trkpt>
<trkpt lat="53.1058620000" lon="-4.1292900000"><ele>242</ele><time>2016-10-15T13:18:14Z</time></trkpt>
<trkpt lat="53.1058700000" lon="-4.1292930000"><ele>242</ele><time>2016-10-15T13:18:15Z</time></trkpt>
<trkpt lat="53.1058780000" lon="-4.1292960000"><ele>241</ele><time>2016-10-15T13:18:16Z</time></trkpt>
<trkpt lat="53.1058870000" lon="-4.1293000000"><ele>241</ele><time>2016-10-15T13:18:17Z</time></trkpt>
<trkpt lat="53.1058960000" lon="-4.1293030000"><ele>241</ele><time>2016-10-15T13:18:18Z</time></trkpt>
<trkpt lat="53.1059060000" lon="-4.1293070000"><ele>241</ele><time>2016-10-15T13:18:19Z</time></trkpt>
<trkpt lat="53.1059150000" lon="-4.1293110000"><ele>241</ele><time>2016-10-15T13:18:20Z</time></trkpt>
<trkpt lat="53.1060830000" lon="-4.1293940000"><ele>240</ele><time>2016-10-15T13:18:21Z</time></trkpt>
<trkpt lat="53.1061030000" lon="-4.1294140000"><ele>240</ele><time>2016-10-15T13:18:23Z</time></trkpt>
<trkpt lat="53.1061140000" lon="-4.1294240000"><ele>240</ele><time>2016-10-15T13:18:24Z</time></trkpt>
<trkpt lat="53.1061240000" lon="-4.1294340000"><ele>240</ele><time>2016-10-15T13:18:25Z</time></trkpt>
<trkpt lat="53.1061330000" lon="-4.1294440000"><ele>239</ele><time>2016-10-15T13:18:26Z</time></trkpt>
<trkpt lat="53.1061450000" lon="-4.1294530000"><ele>239</ele><time>2016-10-15T13:18:27Z</time></trkpt>
<trkpt lat="53.1061580000" lon="-4.1294610000"><ele>239</ele><time>2016-10-15T13:18:28Z</time></trkpt>
<trkpt lat="53.1061690000" lon="-4.1294680000"><ele>239</ele><time>2016-10-15T13:18:29Z</time></trkpt>
<trkpt lat="53.1061810000" lon="-4.1294740000"><ele>238</ele><time>2016-10-15T13:18:30Z</time></trkpt>
<trkpt lat="53.1061920000" lon="-4.1294790000"><ele>238</ele><time>2016-10-15T13:18:31Z</time></trkpt>
<trkpt lat="53.1062030000" lon="-4.1294840000"><ele>238</ele><time>2016-10-15T13:18:32Z</time></trkpt>
<trkpt lat="53.1062140000" lon="-4.1294880000"><ele>238</ele><time>2016-10-15T13:18:33Z</time></trkpt>
<trkpt lat="53.1062250000" lon="-4.1294900000"><ele>238</ele><time>2016-10-15T13:18:34Z</time></trkpt>
<trkpt lat="53.1062370000" lon="-4.1294960000"><ele>237</ele><time>2016-10-15T13:18:35Z</time></trkpt>
<trkpt lat="53.1062500000" lon="-4.1295000000"><ele>237</ele><time>2016-10-15T13:18:36Z</time></trkpt>
<trkpt lat="53.1062620000" lon="-4.1295020000"><ele>237</ele><time>2016-10-15T13:18:37Z</time></trkpt>
<trkpt lat="53.1062740000" lon="-4.1295050000"><ele>237</ele><time>2016-10-15T13:18:38Z</time></trkpt>
<trkpt lat="53.1062870000" lon="-4.1295090000"><ele>237</ele><time>2016-10-15T13:18:39Z</time></trkpt>
<trkpt lat="53.1062990000" lon="-4.1295140000"><ele>236</ele><time>2016-10-15T13:18:40Z</time></trkpt>
<trkpt lat="53.1063120000" lon="-4.1295190000"><ele>236</ele><time>2016-10-15T13:18:41Z</time></trkpt>
<trkpt lat="53.1063250000" lon="-4.1295240000"><ele>236</ele><time>2016-10-15T13:18:42Z</time></trkpt>
<trkpt lat="53.1063380000" lon="-4.1295300000"><ele>236</ele><time>2016-10-15T13:18:43Z</time></trkpt>
<trkpt lat="53.1063490000" lon="-4.1295370000"><ele>235</ele><time>2016-10-15T13:18:44Z</time></trkpt>
<trkpt lat="53.1063600000" lon="-4.1295460000"><ele>235</ele><time>2016-10-15T13:18:45Z</time></trkpt>
<trkpt lat="53.1063720000" lon="-4.1295590000"><ele>235</ele><time>2016-10-15T13:18:46Z</time></trkpt>
<trkpt lat="53.1063810000" lon="-4.1295750000"><ele>235</ele><time>2016-10-15T13:18:47Z</time></trkpt>
<trkpt lat="53.1063900000" lon="-4.1295920000"><ele>235</ele><time>2016-10-15T13:18:48Z</time></trkpt>
<trkpt lat="53.1063990000" lon="-4.1296070000"><ele>235</ele><time>2016-10-15T13:18:49Z</time></trkpt>
<trkpt lat="53.1064070000" lon="-4.1296230000"><ele>235</ele><time>2016-10-15T13:18:50Z</time></trkpt>
<trkpt lat="53.1064150000" lon="-4.1296390000"><ele>235</ele><time>2016-10-15T13:18:51Z</time></trkpt>
<trkpt lat="53.1064250000" lon="-4.1296530000"><ele>234</ele><time>2016-10-15T13:18:52Z</time></trkpt>
<trkpt lat="53.1064330000" lon="-4.1296660000"><ele>234</ele><time>2016-10-15T13:18:53Z</time></trkpt>
<trkpt lat="53.1064410000" lon="-4.1296760000"><ele>234</ele><time>2016-10-15T13:18:54Z</time></trkpt>
<trkpt lat="53.1064420000" lon="-4.1296760000"><ele>234</ele><time>2016-10-15T13:18:55Z</time></trkpt>
<trkpt lat="53.1064420000" lon="-4.1296760000"><ele>234</ele><time>2016-10-15T13:18:56Z</time></trkpt>
<trkpt lat="53.1064420000" lon="-4.1296770000"><ele>234</ele><time>2016-10-15T13:18:57Z</time></trkpt>
<trkpt lat="53.1064430000" lon="-4.1296770000"><ele>234</ele><time>2016-10-15T13:18:58Z</time></trkpt>
<trkpt lat="53.1064430000" lon="-4.1296770000"><ele>234</ele><time>2016-10-15T13:18:59Z</time></trkpt>
<trkpt lat="53.1064440000" lon="-4.1296770000"><ele>234</ele><time>2016-10-15T13:19:00Z</time></trkpt>
<trkpt lat="53.1064450000" lon="-4.1296770000"><ele>233</ele><time>2016-10-15T13:19:01Z</time></trkpt>
<trkpt lat="53.1064450000" lon="-4.1296770000"><ele>233</ele><time>2016-10-15T13:19:02Z</time></trkpt>
<trkpt lat="53.1064460000" lon="-4.1296780000"><ele>233</ele><time>2016-10-15T13:19:03Z</time></trkpt>
<trkpt lat="53.1064470000" lon="-4.1296780000"><ele>233</ele><time>2016-10-15T13:19:04Z</time></trkpt>
<trkpt lat="53.1064490000" lon="-4.1296780000"><ele>233</ele><time>2016-10-15T13:19:05Z</time></trkpt>
<trkpt lat="53.1064510000" lon="-4.1296780000"><ele>233</ele><time>2016-10-15T13:19:06Z</time></trkpt>
<trkpt lat="53.1064530000" lon="-4.1296790000"><ele>233</ele><time>2016-10-15T13:19:07Z</time></trkpt>
<trkpt lat="53.1064550000" lon="-4.1296790000"><ele>233</ele><time>2016-10-15T13:19:08Z</time></trkpt>
<trkpt lat="53.1064580000" lon="-4.1296790000"><ele>233</ele><time>2016-10-15T13:19:09Z</time></trkpt>
<trkpt lat="53.1064620000" lon="-4.1296790000"><ele>233</ele><time>2016-10-15T13:19:10Z</time></trkpt>
<trkpt lat="53.1064660000" lon="-4.1296800000"><ele>233</ele><time>2016-10-15T13:19:11Z</time></trkpt>
<trkpt lat="53.1064710000" lon="-4.1296800000"><ele>233</ele><time>2016-10-15T13:19:12Z</time></trkpt>
<trkpt lat="53.1064760000" lon="-4.1296800000"><ele>233</ele><time>2016-10-15T13:19:13Z</time></trkpt>
<trkpt lat="53.1065840000" lon="-4.1296760000"><ele>233</ele><time>2016-10-15T13:19:14Z</time></trkpt>
<trkpt lat="53.1065990000" lon="-4.1296700000"><ele>233</ele><time>2016-10-15T13:19:15Z</time></trkpt>
<trkpt lat="53.1066120000" lon="-4.1296640000"><ele>233</ele><time>2016-10-15T13:19:16Z</time></trkpt>
<trkpt lat="53.1066260000" lon="-4.1296570000"><ele>232</ele><time>2016-10-15T13:19:17Z</time></trkpt>
<trkpt lat="53.1066400000" lon="-4.1296500000"><ele>232</ele><time>2016-10-15T13:19:18Z</time></trkpt>
<trkpt lat="53.1066550000" lon="-4.1296440000"><ele>232</ele><time>2016-10-15T13:19:19Z</time></trkpt>
<trkpt lat="53.1066690000" lon="-4.1296390000"><ele>232</ele><time>2016-10-15T13:19:20Z</time></trkpt>
<trkpt lat="53.1066830000" lon="-4.1296310000"><ele>232</ele><time>2016-10-15T13:19:21Z</time></trkpt>
<trkpt lat="53.1067090000" lon="-4.1296140000"><ele>232</ele><time>2016-10-15T13:19:23Z</time></trkpt>
<trkpt lat="53.1067220000" lon="-4.1296030000"><ele>232</ele><time>2016-10-15T13:19:24Z</time></trkpt>
<trkpt lat="53.1067340000" lon="-4.1295910000"><ele>233</ele><time>2016-10-15T13:19:25Z</time></trkpt>
<trkpt lat="53.1067440000" lon="-4.1295810000"><ele>233</ele><time>2016-10-15T13:19:26Z</time></trkpt>
<trkpt lat="53.1067540000" lon="-4.1295730000"><ele>233</ele><time>2016-10-15T13:19:27Z</time></trkpt>
<trkpt lat="53.1067660000" lon="-4.1295660000"><ele>233</ele><time>2016-10-15T13:19:28Z</time></trkpt>
<trkpt lat="53.1067790000" lon="-4.1295620000"><ele>233</ele><time>2016-10-15T13:19:29Z</time></trkpt>
<trkpt lat="53.1067920000" lon="-4.1295580000"><ele>233</ele><time>2016-10-15T13:19:30Z</time></trkpt>
<trkpt lat="53.1068040000" lon="-4.1295540000"><ele>233</ele><time>2016-10-15T13:19:31Z</time></trkpt>
<trkpt lat="53.1068160000" lon="-4.1295510000"><ele>233</ele><time>2016-10-15T13:19:32Z</time></trkpt>
<trkpt lat="53.1068280000" lon="-4.1295470000"><ele>233</ele><time>2016-10-15T13:19:33Z</time></trkpt>
<trkpt lat="53.1068390000" lon="-4.1295440000"><ele>234</ele><time>2016-10-15T13:19:34Z</time></trkpt>
<trkpt lat="53.1068490000" lon="-4.1295430000"><ele>234</ele><time>2016-10-15T13:19:35Z</time></trkpt>
<trkpt lat="53.1068490000" lon="-4.1295430000"><ele>234</ele><time>2016-10-15T13:19:36Z</time></trkpt>
<trkpt lat="53.1068490000" lon="-4.1295430000"><ele>234</ele><time>2016-10-15T13:19:37Z</time></trkpt>
<trkpt lat="53.1068490000" lon="-4.1295440000"><ele>234</ele><time>2016-10-15T13:19:38Z</time></trkpt>
<trkpt lat="53.1068500000" lon="-4.1295440000"><ele>234</ele><time>2016-10-15T13:19:39Z</time></trkpt>
<trkpt lat="53.1068520000" lon="-4.1295440000"><ele>235</ele><time>2016-10-15T13:19:40Z</time></trkpt>
<trkpt lat="53.1068530000" lon="-4.1295450000"><ele>235</ele><time>2016-10-15T13:19:41Z</time></trkpt>
<trkpt lat="53.1068550000" lon="-4.1295460000"><ele>235</ele><time>2016-10-15T13:19:42Z</time></trkpt>
<trkpt lat="53.1068580000" lon="-4.1295470000"><ele>235</ele><time>2016-10-15T13:19:43Z</time></trkpt>
<trkpt lat="53.1068610000" lon="-4.1295490000"><ele>235</ele><time>2016-10-15T13:19:44Z</time></trkpt>
<trkpt lat="53.1068650000" lon="-4.1295510000"><ele>235</ele><time>2016-10-15T13:19:45Z</time></trkpt>
<trkpt lat="53.1068690000" lon="-4.1295530000"><ele>235</ele><time>2016-10-15T13:19:46Z</time></trkpt>
<trkpt lat="53.1068730000" lon="-4.1295560000"><ele>235</ele><time>2016-10-15T13:19:47Z</time></trkpt>
<trkpt lat="53.1068780000" lon="-4.1295600000"><ele>236</ele><time>2016-10-15T13:19:48Z</time></trkpt>
<trkpt lat="53.1068840000" lon="-4.1295630000"><ele>236</ele><time>2016-10-15T13:19:49Z</time></trkpt>
<trkpt lat="53.1068890000" lon="-4.1295680000"><ele>236</ele><time>2016-10-15T13:19:50Z</time></trkpt>
<trkpt lat="53.1068950000" lon="-4.1295730000"><ele>236</ele><time>2016-10-15T13:19:51Z</time></trkpt>
<trkpt lat="53.1069010000" lon="-4.1295780000"><ele>236</ele><time>2016-10-15T13:19:52Z</time></trkpt>
<trkpt lat="53.1069070000" lon="-4.1295830000"><ele>236</ele><time>2016-10-15T13:19:53Z</time></trkpt>
<trkpt lat="53.1069140000" lon="-4.1295900000"><ele>236</ele><time>2016-10-15T13:19:54Z</time></trkpt>
<trkpt lat="53.1069210000" lon="-4.1295960000"><ele>236</ele><time>2016-10-15T13:19:55Z</time></trkpt>
<trkpt lat="53.1069280000" lon="-4.1296030000"><ele>236</ele><time>2016-10-15T13:19:56Z</time></trkpt>
<trkpt lat="53.1069360000" lon="-4.1296090000"><ele>236</ele><time>2016-10-15T13:19:57Z</time></trkpt>
<trkpt lat="53.1069430000" lon="-4.1296170000"><ele>236</ele><time>2016-10-15T13:19:58Z</time></trkpt>
<trkpt lat="53.1069510000" lon="-4.1296240000"><ele>236</ele><time>2016-10-15T13:19:59Z</time></trkpt>
<trkpt lat="53.1069590000" lon="-4.1296320000"><ele>236</ele><time>2016-10-15T13:20:00Z</time></trkpt>
<trkpt lat="53.1069670000" lon="-4.1296400000"><ele>237</ele><time>2016-10-15T13:20:01Z</time></trkpt>
<trkpt lat="53.1071090000" lon="-4.1297790000"><ele>237</ele><time>2016-10-15T13:20:02Z</time></trkpt>
<trkpt lat="53.1071190000" lon="-4.1297890000"><ele>237</ele><time>2016-10-15T13:20:03Z</time></trkpt>
<trkpt lat="53.1071290000" lon="-4.1297980000"><ele>237</ele><time>2016-10-15T13:20:04Z</time></trkpt>
<trkpt lat="53.1071380000" lon="-4.1298080000"><ele>237</ele><time>2016-10-15T13:20:05Z</time></trkpt>
<trkpt lat="53.1071460000" lon="-4.1298190000"><ele>237</ele><time>2016-10-15T13:20:06Z</time></trkpt>
<trkpt lat="53.1071460000" lon="-4.1298190000"><ele>237</ele><time>2016-10-15T13:20:07Z</time></trkpt>
<trkpt lat="53.1071460000" lon="-4.1298190000"><ele>237</ele><time>2016-10-15T13:20:08Z</time></trkpt>
<trkpt lat="53.1071470000" lon="-4.1298190000"><ele>237</ele><time>2016-10-15T13:20:09Z</time></trkpt>
<trkpt lat="53.1071470000" lon="-4.1298200000"><ele>237</ele><time>2016-10-15T13:20:10Z</time></trkpt>
<trkpt lat="53.1071480000" lon="-4.1298200000"><ele>237</ele><time>2016-10-15T13:20:11Z</time></trkpt>
<trkpt lat="53.1071490000" lon="-4.1298210000"><ele>237</ele><time>2016-10-15T13:20:12Z</time></trkpt>
<trkpt lat="53.1071500000" lon="-4.1298210000"><ele>238</ele><time>2016-10-15T13:20:13Z</time></trkpt>
<trkpt lat="53.1071510000" lon="-4.1298220000"><ele>238</ele><time>2016-10-15T13:20:14Z</time></trkpt>
<trkpt lat="53.1071520000" lon="-4.1298230000"><ele>238</ele><time>2016-10-15T13:20:15Z</time></trkpt>
<trkpt lat="53.1071540000" lon="-4.1298240000"><ele>238</ele><time>2016-10-15T13:20:16Z</time></trkpt>
<trkpt lat="53.1071560000" lon="-4.1298240000"><ele>238</ele><time>2016-10-15T13:20:17Z</time></trkpt>
<trkpt lat="53.1071580000" lon="-4.1298250000"><ele>238</ele><time>2016-10-15T13:20:18Z</time></trkpt>
<trkpt lat="53.1071600000" lon="-4.1298250000"><ele>238</ele><time>2016-10-15T13:20:19Z</time></trkpt>
<trkpt lat="53.1071630000" lon="-4.1298260000"><ele>238</ele><time>2016-10-15T13:20:21Z</time></trkpt>
<trkpt lat="53.1071640000" lon="-4.1298260000"><ele>238</ele><time>2016-10-15T13:20:22Z</time></trkpt>
<trkpt lat="53.1071660000" lon="-4.1298260000"><ele>238</ele><time>2016-10-15T13:20:23Z</time></trkpt>
<trkpt lat="53.1071680000" lon="-4.1298260000"><ele>238</ele><time>2016-10-15T13:20:24Z</time></trkpt>
<trkpt lat="53.1071690000" lon="-4.1298270000"><ele>238</ele><time>2016-10-15T13:20:25Z</time></trkpt>
<trkpt lat="53.1071710000" lon="-4.1298270000"><ele>238</ele><time>2016-10-15T13:20:26Z</time></trkpt>
<trkpt lat="53.1071720000" lon="-4.1298270000"><ele>239</ele><time>2016-10-15T13:20:27Z</time></trkpt>
<trkpt lat="53.1072120000" lon="-4.1298400000"><ele>240</ele><time>2016-10-15T13:21:16Z</time></trkpt>
<trkpt lat="53.1072200000" lon="-4.1298400000"><ele>240</ele><time>2016-10-15T13:21:17Z</time></trkpt>
<trkpt lat="53.1072330000" lon="-4.1298750000"><ele>241</ele><time>2016-10-15T13:21:49Z</time></trkpt>
<trkpt lat="53.1073090000" lon="-4.1300030000"><ele>241</ele><time>2016-10-15T13:21:51Z</time></trkpt>
<trkpt lat="53.1073240000" lon="-4.1300270000"><ele>241</ele><time>2016-10-15T13:21:53Z</time></trkpt>
<trkpt lat="53.1073370000" lon="-4.1300520000"><ele>241</ele><time>2016-10-15T13:22:03Z</time></trkpt>
<trkpt lat="53.1073420000" lon="-4.1300600000"><ele>241</ele><time>2016-10-15T13:22:05Z</time></trkpt>
<trkpt lat="53.1073450000" lon="-4.1300660000"><ele>241</ele><time>2016-10-15T13:22:06Z</time></trkpt>
<trkpt lat="53.1073490000" lon="-4.1300720000"><ele>241</ele><time>2016-10-15T13:22:07Z</time></trkpt>
<trkpt lat="53.1073530000" lon="-4.1300790000"><ele>241</ele><time>2016-10-15T13:22:08Z</time></trkpt>
<trkpt lat="53.1073570000" lon="-4.1300870000"><ele>241</ele><time>2016-10-15T13:22:09Z</time></trkpt>
<trkpt lat="53.1074660000" lon="-4.1302780000"><ele>241</ele><time>2016-10-15T13:22:10Z</time></trkpt>
<trkpt lat="53.1074760000" lon="-4.1302920000"><ele>241</ele><time>2016-10-15T13:22:11Z</time></trkpt>
<trkpt lat="53.1074870000" lon="-4.1303070000"><ele>241</ele><time>2016-10-15T13:22:12Z</time></trkpt>
<trkpt lat="53.1074950000" lon="-4.1303230000"><ele>241</ele><time>2016-10-15T13:22:13Z</time></trkpt>
<trkpt lat="53.1075030000" lon="-4.1303400000"><ele>241</ele><time>2016-10-15T13:22:14Z</time></trkpt>
<trkpt lat="53.1075110000" lon="-4.1303550000"><ele>241</ele><time>2016-10-15T13:22:15Z</time></trkpt>
<trkpt lat="53.1075210000" lon="-4.1303700000"><ele>241</ele><time>2016-10-15T13:22:16Z</time></trkpt>
<trkpt lat="53.1075310000" lon="-4.1303860000"><ele>241</ele><time>2016-10-15T13:22:17Z</time></trkpt>
<trkpt lat="53.1075400000" lon="-4.1304010000"><ele>241</ele><time>2016-10-15T13:22:18Z</time></trkpt>
<trkpt lat="53.1075490000" lon="-4.1304160000"><ele>241</ele><time>2016-10-15T13:22:19Z</time></trkpt>
<trkpt lat="53.1075590000" lon="-4.1304300000"><ele>241</ele><time>2016-10-15T13:22:20Z</time></trkpt>
<trkpt lat="53.1075690000" lon="-4.1304440000"><ele>241</ele><time>2016-10-15T13:22:21Z</time></trkpt>
<trkpt lat="53.1075800000" lon="-4.1304600000"><ele>241</ele><time>2016-10-15T13:22:22Z</time></trkpt>
<trkpt lat="53.1075890000" lon="-4.1304750000"><ele>241</ele><time>2016-10-15T13:22:23Z</time></trkpt>
<trkpt lat="53.1075980000" lon="-4.1304910000"><ele>241</ele><time>2016-10-15T13:22:24Z</time></trkpt>
<trkpt lat="53.1076070000" lon="-4.1305080000"><ele>241</ele><time>2016-10-15T13:22:25Z</time></trkpt>
<trkpt lat="53.1076160000" lon="-4.1305220000"><ele>241</ele><time>2016-10-15T13:22:26Z</time></trkpt>
<trkpt lat="53.1076240000" lon="-4.1305360000"><ele>241</ele><time>2016-10-15T13:22:27Z</time></trkpt>
<trkpt lat="53.1076330000" lon="-4.1305530000"><ele>240</ele><time>2016-10-15T13:22:28Z</time></trkpt>
<trkpt lat="53.1076440000" lon="-4.1305700000"><ele>240</ele><time>2016-10-15T13:22:29Z</time></trkpt>
<trkpt lat="53.1076520000" lon="-4.1305880000"><ele>240</ele><time>2016-10-15T13:22:30Z</time></trkpt>
<trkpt lat="53.1076590000" lon="-4.1306050000"><ele>240</ele><time>2016-10-15T13:22:31Z</time></trkpt>
<trkpt lat="53.1076710000" lon="-4.1306230000"><ele>240</ele><time>2016-10-15T13:22:32Z</time></trkpt>
<trkpt lat="53.1076840000" lon="-4.1306420000"><ele>240</ele><time>2016-10-15T13:22:33Z</time></trkpt>
<trkpt lat="53.1076960000" lon="-4.1306600000"><ele>240</ele><time>2016-10-15T13:22:34Z</time></trkpt>
<trkpt lat="53.1077070000" lon="-4.1306750000"><ele>240</ele><time>2016-10-15T13:22:35Z</time></trkpt>
<trkpt lat="53.1077170000" lon="-4.1306910000"><ele>240</ele><time>2016-10-15T13:22:36Z</time></trkpt>
<trkpt lat="53.1077270000" lon="-4.1307060000"><ele>240</ele><time>2016-10-15T13:22:37Z</time></trkpt>
<trkpt lat="53.1077380000" lon="-4.1307210000"><ele>240</ele><time>2016-10-15T13:22:38Z</time></trkpt>
<trkpt lat="53.1077480000" lon="-4.1307340000"><ele>240</ele><time>2016-10-15T13:22:39Z</time></trkpt>
<trkpt lat="53.1077580000" lon="-4.1307480000"><ele>240</ele><time>2016-10-15T13:22:40Z</time></trkpt>
<trkpt lat="53.1077690000" lon="-4.1307630000"><ele>240</ele><time>2016-10-15T13:22:41Z</time></trkpt>
<trkpt lat="53.1077770000" lon="-4.1307770000"><ele>240</ele><time>2016-10-15T13:22:42Z</time></trkpt>
<trkpt lat="53.1077850000" lon="-4.1307920000"><ele>240</ele><time>2016-10-15T13:22:43Z</time></trkpt>
<trkpt lat="53.1077950000" lon="-4.1308070000"><ele>240</ele><time>2016-10-15T13:22:44Z</time></trkpt>
<trkpt lat="53.1078020000" lon="-4.1308220000"><ele>240</ele><time>2016-10-15T13:22:45Z</time></trkpt>
<trkpt lat="53.1078120000" lon="-4.1308380000"><ele>240</ele><time>2016-10-15T13:22:46Z</time></trkpt>
<trkpt lat="53.1078220000" lon="-4.1308520000"><ele>240</ele><time>2016-10-15T13:22:47Z</time></trkpt>
<trkpt lat="53.1078320000" lon="-4.1308670000"><ele>240</ele><time>2016-10-15T13:22:48Z</time></trkpt>
<trkpt lat="53.1078420000" lon="-4.1308830000"><ele>240</ele><time>2016-10-15T13:22:49Z</time></trkpt>
<trkpt lat="53.1078510000" lon="-4.1308990000"><ele>240</ele><time>2016-10-15T13:22:50Z</time></trkpt>
<trkpt lat="53.1078600000" lon="-4.1309160000"><ele>240</ele><time>2016-10-15T13:22:51Z</time></trkpt>
<trkpt lat="53.1078680000" lon="-4.1309340000"><ele>240</ele><time>2016-10-15T13:22:52Z</time></trkpt>
<trkpt lat="53.1078770000" lon="-4.1309510000"><ele>240</ele><time>2016-10-15T13:22:53Z</time></trkpt>
<trkpt lat="53.1078870000" lon="-4.1309660000"><ele>240</ele><time>2016-10-15T13:22:54Z</time></trkpt>
<trkpt lat="53.1078970000" lon="-4.1309810000"><ele>240</ele><time>2016-10-15T13:22:55Z</time></trkpt>
<trkpt lat="53.1079080000" lon="-4.1309990000"><ele>240</ele><time>2016-10-15T13:22:56Z</time></trkpt>
<trkpt lat="53.1079200000" lon="-4.1310140000"><ele>240</ele><time>2016-10-15T13:22:57Z</time></trkpt>
<trkpt lat="53.1079300000" lon="-4.1310270000"><ele>240</ele><time>2016-10-15T13:22:58Z</time></trkpt>
<trkpt lat="53.1079390000" lon="-4.1310400000"><ele>240</ele><time>2016-10-15T13:22:59Z</time></trkpt>
<trkpt lat="53.1079460000" lon="-4.1310550000"><ele>240</ele><time>2016-10-15T13:23:00Z</time></trkpt>
<trkpt lat="53.1079640000" lon="-4.1310890000"><ele>240</ele><time>2016-10-15T13:23:02Z</time></trkpt>
<trkpt lat="53.1079740000" lon="-4.1311060000"><ele>240</ele><time>2016-10-15T13:23:03Z</time></trkpt>
<trkpt lat="53.1079860000" lon="-4.1311230000"><ele>240</ele><time>2016-10-15T13:23:04Z</time></trkpt>
<trkpt lat="53.1079980000" lon="-4.1311360000"><ele>240</ele><time>2016-10-15T13:23:05Z</time></trkpt>
<trkpt lat="53.1080100000" lon="-4.1311500000"><ele>240</ele><time>2016-10-15T13:23:06Z</time></trkpt>
<trkpt lat="53.1080220000" lon="-4.1311650000"><ele>240</ele><time>2016-10-15T13:23:07Z</time></trkpt>
<trkpt lat="53.1080340000" lon="-4.1311800000"><ele>240</ele><time>2016-10-15T13:23:08Z</time></trkpt>
<trkpt lat="53.1080460000" lon="-4.1311940000"><ele>240</ele><time>2016-10-15T13:23:09Z</time></trkpt>
<trkpt lat="53.1080560000" lon="-4.1312100000"><ele>240</ele><time>2016-10-15T13:23:10Z</time></trkpt>
<trkpt lat="53.1080650000" lon="-4.1312250000"><ele>240</ele><time>2016-10-15T13:23:11Z</time></trkpt>
<trkpt lat="53.1080750000" lon="-4.1312390000"><ele>240</ele><time>2016-10-15T13:23:12Z</time></trkpt>
<trkpt lat="53.1080830000" lon="-4.1312530000"><ele>240</ele><time>2016-10-15T13:23:13Z</time></trkpt>
<trkpt lat="53.1080910000" lon="-4.1312680000"><ele>240</ele><time>2016-10-15T13:23:14Z</time></trkpt>
<trkpt lat="53.1080990000" lon="-4.1312820000"><ele>240</ele><time>2016-10-15T13:23:15Z</time></trkpt>
<trkpt lat="53.1081070000" lon="-4.1312970000"><ele>240</ele><time>2016-10-15T13:23:16Z</time></trkpt>
<trkpt lat="53.1081160000" lon="-4.1313120000"><ele>240</ele><time>2016-10-15T13:23:17Z</time></trkpt>
<trkpt lat="53.1081260000" lon="-4.1313260000"><ele>240</ele><time>2016-10-15T13:23:18Z</time></trkpt>
<trkpt lat="53.1081350000" lon="-4.1313420000"><ele>240</ele><time>2016-10-15T13:23:19Z</time></trkpt>
<trkpt lat="53.1081430000" lon="-4.1313580000"><ele>240</ele><time>2016-10-15T13:23:20Z</time></trkpt>
<trkpt lat="53.1081510000" lon="-4.1313730000"><ele>240</ele><time>2016-10-15T13:23:21Z</time></trkpt>
<trkpt lat="53.1081620000" lon="-4.1313880000"><ele>240</ele><time>2016-10-15T13:23:22Z</time></trkpt>
<trkpt lat="53.1081720000" lon="-4.1314030000"><ele>240</ele><time>2016-10-15T13:23:23Z</time></trkpt>
<trkpt lat="53.1081810000" lon="-4.1314180000"><ele>240</ele><time>2016-10-15T13:23:24Z</time></trkpt>
<trkpt lat="53.1081890000" lon="-4.1314330000"><ele>240</ele><time>2016-10-15T13:23:25Z</time></trkpt>
<trkpt lat="53.1081980000" lon="-4.1314490000"><ele>240</ele><time>2016-10-15T13:23:26Z</time></trkpt>
<trkpt lat="53.1082080000" lon="-4.1314640000"><ele>240</ele><time>2016-10-15T13:23:27Z</time></trkpt>
<trkpt lat="53.1082170000" lon="-4.1314790000"><ele>240</ele><time>2016-10-15T13:23:28Z</time></trkpt>
<trkpt lat="53.1082270000" lon="-4.1314950000"><ele>240</ele><time>2016-10-15T13:23:29Z</time></trkpt>
<trkpt lat="53.1082370000" lon="-4.1315100000"><ele>239</ele><time>2016-10-15T13:23:30Z</time></trkpt>
<trkpt lat="53.1082470000" lon="-4.1315240000"><ele>239</ele><time>2016-10-15T13:23:31Z</time></trkpt>
<trkpt lat="53.1082570000" lon="-4.1315390000"><ele>239</ele><time>2016-10-15T13:23:32Z</time></trkpt>
<trkpt lat="53.1082670000" lon="-4.1315550000"><ele>239</ele><time>2016-10-15T13:23:33Z</time></trkpt>
<trkpt lat="53.1082780000" lon="-4.1315710000"><ele>239</ele><time>2016-10-15T13:23:34Z</time></trkpt>
<trkpt lat="53.1082870000" lon="-4.1315860000"><ele>239</ele><time>2016-10-15T13:23:35Z</time></trkpt>
<trkpt lat="53.1082950000" lon="-4.1315990000"><ele>239</ele><time>2016-10-15T13:23:36Z</time></trkpt>
<trkpt lat="53.1083050000" lon="-4.1316120000"><ele>239</ele><time>2016-10-15T13:23:37Z</time></trkpt>
<trkpt lat="53.1083160000" lon="-4.1316260000"><ele>239</ele><time>2016-10-15T13:23:38Z</time></trkpt>
<trkpt lat="53.1083250000" lon="-4.1316400000"><ele>239</ele><time>2016-10-15T13:23:39Z</time></trkpt>
<trkpt lat="53.1083360000" lon="-4.1316500000"><ele>239</ele><time>2016-10-15T13:23:40Z</time></trkpt>
<trkpt lat="53.1083470000" lon="-4.1316600000"><ele>239</ele><time>2016-10-15T13:23:41Z</time></trkpt>
<trkpt lat="53.1083560000" lon="-4.1316730000"><ele>239</ele><time>2016-10-15T13:23:42Z</time></trkpt>
<trkpt lat="53.1083650000" lon="-4.1316880000"><ele>238</ele><time>2016-10-15T13:23:43Z</time></trkpt>
<trkpt lat="53.1083750000" lon="-4.1317040000"><ele>238</ele><time>2016-10-15T13:23:44Z</time></trkpt>
<trkpt lat="53.1083860000" lon="-4.1317170000"><ele>238</ele><time>2016-10-15T13:23:45Z</time></trkpt>
<trkpt lat="53.1083940000" lon="-4.1317320000"><ele>238</ele><time>2016-10-15T13:23:46Z</time></trkpt>
<trkpt lat="53.1084030000" lon="-4.1317460000"><ele>238</ele><time>2016-10-15T13:23:47Z</time></trkpt>
<trkpt lat="53.1084130000" lon="-4.1317620000"><ele>238</ele><time>2016-10-15T13:23:48Z</time></trkpt>
<trkpt lat="53.1084220000" lon="-4.1317800000"><ele>238</ele><time>2016-10-15T13:23:49Z</time></trkpt>
<trkpt lat="53.1084330000" lon="-4.1317980000"><ele>238</ele><time>2016-10-15T13:23:50Z</time></trkpt>
<trkpt lat="53.1084440000" lon="-4.1318160000"><ele>238</ele><time>2016-10-15T13:23:51Z</time></trkpt>
<trkpt lat="53.1084550000" lon="-4.1318330000"><ele>238</ele><time>2016-10-15T13:23:52Z</time></trkpt>
<trkpt lat="53.1084650000" lon="-4.1318510000"><ele>238</ele><time>2016-10-15T13:23:53Z</time></trkpt>
<trkpt lat="53.1084760000" lon="-4.1318670000"><ele>238</ele><time>2016-10-15T13:23:54Z</time></trkpt>
<trkpt lat="53.1084870000" lon="-4.1318800000"><ele>238</ele><time>2016-10-15T13:23:55Z</time></trkpt>
<trkpt lat="53.1084980000" lon="-4.1318950000"><ele>238</ele><time>2016-10-15T13:23:56Z</time></trkpt>
<trkpt lat="53.1085070000" lon="-4.1319110000"><ele>238</ele><time>2016-10-15T13:23:57Z</time></trkpt>
<trkpt lat="53.1085160000" lon="-4.1319280000"><ele>238</ele><time>2016-10-15T13:23:58Z</time></trkpt>
<trkpt lat="53.1085270000" lon="-4.1319450000"><ele>238</ele><time>2016-10-15T13:23:59Z</time></trkpt>
<trkpt lat="53.1085370000" lon="-4.1319630000"><ele>238</ele><time>2016-10-15T13:24:00Z</time></trkpt>
<trkpt lat="53.1085550000" lon="-4.1319960000"><ele>238</ele><time>2016-10-15T13:24:02Z</time></trkpt>
<trkpt lat="53.1085640000" lon="-4.1320140000"><ele>238</ele><time>2016-10-15T13:24:03Z</time></trkpt>
<trkpt lat="53.1085730000" lon="-4.1320310000"><ele>239</ele><time>2016-10-15T13:24:04Z</time></trkpt>
<trkpt lat="53.1085830000" lon="-4.1320490000"><ele>239</ele><time>2016-10-15T13:24:05Z</time></trkpt>
<trkpt lat="53.1085920000" lon="-4.1320660000"><ele>239</ele><time>2016-10-15T13:24:06Z</time></trkpt>
<trkpt lat="53.1086010000" lon="-4.1320820000"><ele>239</ele><time>2016-10-15T13:24:07Z</time></trkpt>
<trkpt lat="53.1086120000" lon="-4.1320990000"><ele>239</ele><time>2016-10-15T13:24:08Z</time></trkpt>
<trkpt lat="53.1086220000" lon="-4.1321170000"><ele>239</ele><time>2016-10-15T13:24:09Z</time></trkpt>
<trkpt lat="53.1086320000" lon="-4.1321360000"><ele>239</ele><time>2016-10-15T13:24:10Z</time></trkpt>
<trkpt lat="53.1086420000" lon="-4.1321530000"><ele>239</ele><time>2016-10-15T13:24:11Z</time></trkpt>
<trkpt lat="53.1086510000" lon="-4.1321710000"><ele>239</ele><time>2016-10-15T13:24:12Z</time></trkpt>
<trkpt lat="53.1086590000" lon="-4.1321890000"><ele>239</ele><time>2016-10-15T13:24:13Z</time></trkpt>
<trkpt lat="53.1086670000" lon="-4.1322040000"><ele>239</ele><time>2016-10-15T13:24:14Z</time></trkpt>
<trkpt lat="53.1086790000" lon="-4.1322180000"><ele>240</ele><time>2016-10-15T13:24:15Z</time></trkpt>
<trkpt lat="53.1086880000" lon="-4.1322310000"><ele>240</ele><time>2016-10-15T13:24:16Z</time></trkpt>
<trkpt lat="53.1086980000" lon="-4.1322440000"><ele>240</ele><time>2016-10-15T13:24:17Z</time></trkpt>
<trkpt lat="53.1087080000" lon="-4.1322580000"><ele>240</ele><time>2016-10-15T13:24:18Z</time></trkpt>
<trkpt lat="53.1087190000" lon="-4.1322720000"><ele>240</ele><time>2016-10-15T13:24:19Z</time></trkpt>
<trkpt lat="53.1087300000" lon="-4.1322850000"><ele>240</ele><time>2016-10-15T13:24:20Z</time></trkpt>
<trkpt lat="53.1087400000" lon="-4.1322970000"><ele>240</ele><time>2016-10-15T13:24:21Z</time></trkpt>
<trkpt lat="53.1087510000" lon="-4.1323070000"><ele>240</ele><time>2016-10-15T13:24:22Z</time></trkpt>
<trkpt lat="53.1087600000" lon="-4.1323180000"><ele>240</ele><time>2016-10-15T13:24:23Z</time></trkpt>
<trkpt lat="53.1087700000" lon="-4.1323290000"><ele>240</ele><time>2016-10-15T13:24:24Z</time></trkpt>
<trkpt lat="53.1087800000" lon="-4.1323400000"><ele>240</ele><time>2016-10-15T13:24:25Z</time></trkpt>
<trkpt lat="53.1087890000" lon="-4.1323500000"><ele>240</ele><time>2016-10-15T13:24:26Z</time></trkpt>
<trkpt lat="53.1087890000" lon="-4.1323500000"><ele>240</ele><time>2016-10-15T13:24:27Z</time></trkpt>
<trkpt lat="53.1087890000" lon="-4.1323510000"><ele>240</ele><time>2016-10-15T13:24:28Z</time></trkpt>
<trkpt lat="53.1087890000" lon="-4.1323510000"><ele>240</ele><time>2016-10-15T13:24:29Z</time></trkpt>
<trkpt lat="53.1087900000" lon="-4.1323520000"><ele>239</ele><time>2016-10-15T13:24:30Z</time></trkpt>
<trkpt lat="53.1087910000" lon="-4.1323540000"><ele>239</ele><time>2016-10-15T13:24:31Z</time></trkpt>
<trkpt lat="53.1087920000" lon="-4.1323560000"><ele>239</ele><time>2016-10-15T13:24:32Z</time></trkpt>
<trkpt lat="53.1087940000" lon="-4.1323580000"><ele>239</ele><time>2016-10-15T13:24:33Z</time></trkpt>
<trkpt lat="53.1087960000" lon="-4.1323610000"><ele>239</ele><time>2016-10-15T13:24:34Z</time></trkpt>
<trkpt lat="53.1087990000" lon="-4.1323650000"><ele>239</ele><time>2016-10-15T13:24:35Z</time></trkpt>
<trkpt lat="53.1088020000" lon="-4.1323700000"><ele>239</ele><time>2016-10-15T13:24:36Z</time></trkpt>
<trkpt lat="53.1088050000" lon="-4.1323750000"><ele>239</ele><time>2016-10-15T13:24:37Z</time></trkpt>
<trkpt lat="53.1088090000" lon="-4.1323810000"><ele>239</ele><time>2016-10-15T13:24:38Z</time></trkpt>
<trkpt lat="53.1088130000" lon="-4.1323880000"><ele>238</ele><time>2016-10-15T13:24:39Z</time></trkpt>
<trkpt lat="53.1088170000" lon="-4.1323950000"><ele>238</ele><time>2016-10-15T13:24:40Z</time></trkpt>
<trkpt lat="53.1088220000" lon="-4.1324030000"><ele>238</ele><time>2016-10-15T13:24:41Z</time></trkpt>
<trkpt lat="53.1088270000" lon="-4.1324110000"><ele>238</ele><time>2016-10-15T13:24:42Z</time></trkpt>
<trkpt lat="53.1088330000" lon="-4.1324210000"><ele>238</ele><time>2016-10-15T13:24:43Z</time></trkpt>
<trkpt lat="53.1088390000" lon="-4.1324300000"><ele>238</ele><time>2016-10-15T13:24:44Z</time></trkpt>
<trkpt lat="53.1088450000" lon="-4.1324410000"><ele>237</ele><time>2016-10-15T13:24:45Z</time></trkpt>
<trkpt lat="53.1088510000" lon="-4.1324510000"><ele>237</ele><time>2016-10-15T13:24:46Z</time></trkpt>
<trkpt lat="53.1088570000" lon="-4.1324620000"><ele>237</ele><time>2016-10-15T13:24:47Z</time></trkpt>
<trkpt lat="53.1088640000" lon="-4.1324740000"><ele>237</ele><time>2016-10-15T13:24:48Z</time></trkpt>
<trkpt lat="53.1089910000" lon="-4.1326800000"><ele>237</ele><time>2016-10-15T13:24:49Z</time></trkpt>
<trkpt lat="53.1090010000" lon="-4.1326940000"><ele>237</ele><time>2016-10-15T13:24:50Z</time></trkpt>
<trkpt lat="53.1090110000" lon="-4.1327090000"><ele>237</ele><time>2016-10-15T13:24:51Z</time></trkpt>
<trkpt lat="53.1090190000" lon="-4.1327250000"><ele>237</ele><time>2016-10-15T13:24:52Z</time></trkpt>
<trkpt lat="53.1090300000" lon="-4.1327400000"><ele>237</ele><time>2016-10-15T13:24:53Z</time></trkpt>
<trkpt lat="53.1090390000" lon="-4.1327560000"><ele>237</ele><time>2016-10-15T13:24:54Z</time></trkpt>
<trkpt lat="53.1090490000" lon="-4.1327700000"><ele>237</ele><time>2016-10-15T13:24:55Z</time></trkpt>
<trkpt lat="53.1090600000" lon="-4.1327840000"><ele>237</ele><time>2016-10-15T13:24:56Z</time></trkpt>
<trkpt lat="53.1090700000" lon="-4.1327980000"><ele>237</ele><time>2016-10-15T13:24:57Z</time></trkpt>
<trkpt lat="53.1090820000" lon="-4.1328120000"><ele>237</ele><time>2016-10-15T13:24:58Z</time></trkpt>
<trkpt lat="53.1090920000" lon="-4.1328260000"><ele>237</ele><time>2016-10-15T13:24:59Z</time></trkpt>
<trkpt lat="53.1091030000" lon="-4.1328410000"><ele>237</ele><time>2016-10-15T13:25:00Z</time></trkpt>
<trkpt lat="53.1091230000" lon="-4.1328730000"><ele>237</ele><time>2016-10-15T13:25:02Z</time></trkpt>
<trkpt lat="53.1091320000" lon="-4.1328870000"><ele>237</ele><time>2016-10-15T13:25:03Z</time></trkpt>
<trkpt lat="53.1091410000" lon="-4.1329000000"><ele>237</ele><time>2016-10-15T13:25:04Z</time></trkpt>
<trkpt lat="53.1091520000" lon="-4.1329130000"><ele>237</ele><time>2016-10-15T13:25:05Z</time></trkpt>
<trkpt lat="53.1091610000" lon="-4.1329260000"><ele>237</ele><time>2016-10-15T13:25:06Z</time></trkpt>
<trkpt lat="53.1091710000" lon="-4.1329380000"><ele>237</ele><time>2016-10-15T13:25:07Z</time></trkpt>
<trkpt lat="53.1091810000" lon="-4.1329510000"><ele>238</ele><time>2016-10-15T13:25:08Z</time></trkpt>
<trkpt lat="53.1091890000" lon="-4.1329650000"><ele>238</ele><time>2016-10-15T13:25:09Z</time></trkpt>
<trkpt lat="53.1091960000" lon="-4.1329780000"><ele>238</ele><time>2016-10-15T13:25:10Z</time></trkpt>
<trkpt lat="53.1092050000" lon="-4.1329910000"><ele>238</ele><time>2016-10-15T13:25:11Z</time></trkpt>
<trkpt lat="53.1092140000" lon="-4.1330040000"><ele>238</ele><time>2016-10-15T13:25:12Z</time></trkpt>
<trkpt lat="53.1092250000" lon="-4.1330190000"><ele>238</ele><time>2016-10-15T13:25:13Z</time></trkpt>
<trkpt lat="53.1092330000" lon="-4.1330330000"><ele>238</ele><time>2016-10-15T13:25:14Z</time></trkpt>
<trkpt lat="53.1092420000" lon="-4.1330490000"><ele>238</ele><time>2016-10-15T13:25:15Z</time></trkpt>
<trkpt lat="53.1092500000" lon="-4.1330660000"><ele>238</ele><time>2016-10-15T13:25:16Z</time></trkpt>
<trkpt lat="53.1092600000" lon="-4.1330800000"><ele>238</ele><time>2016-10-15T13:25:17Z</time></trkpt>
<trkpt lat="53.1092690000" lon="-4.1330930000"><ele>239</ele><time>2016-10-15T13:25:18Z</time></trkpt>
<trkpt lat="53.1092780000" lon="-4.1331070000"><ele>239</ele><time>2016-10-15T13:25:19Z</time></trkpt>
<trkpt lat="53.1092870000" lon="-4.1331210000"><ele>239</ele><time>2016-10-15T13:25:20Z</time></trkpt>
<trkpt lat="53.1092990000" lon="-4.1331300000"><ele>239</ele><time>2016-10-15T13:25:21Z</time></trkpt>
<trkpt lat="53.1093110000" lon="-4.1331400000"><ele>239</ele><time>2016-10-15T13:25:22Z</time></trkpt>
<trkpt lat="53.1093210000" lon="-4.1331530000"><ele>239</ele><time>2016-10-15T13:25:23Z</time></trkpt>
<trkpt lat="53.1093300000" lon="-4.1331640000"><ele>239</ele><time>2016-10-15T13:25:24Z</time></trkpt>
<trkpt lat="53.1093400000" lon="-4.1331770000"><ele>239</ele><time>2016-10-15T13:25:25Z</time></trkpt>
<trkpt lat="53.1093480000" lon="-4.1331920000"><ele>239</ele><time>2016-10-15T13:25:26Z</time></trkpt>
<trkpt lat="53.1093580000" lon="-4.1332070000"><ele>239</ele><time>2016-10-15T13:25:27Z</time></trkpt>
<trkpt lat="53.1093670000" lon="-4.1332210000"><ele>239</ele><time>2016-10-15T13:25:28Z</time></trkpt>
<trkpt lat="53.1093770000" lon="-4.1332360000"><ele>239</ele><time>2016-10-15T13:25:29Z</time></trkpt>
<trkpt lat="53.1093880000" lon="-4.1332500000"><ele>240</ele><time>2016-10-15T13:25:30Z</time></trkpt>
<trkpt lat="53.1093970000" lon="-4.1332620000"><ele>240</ele><time>2016-10-15T13:25:31Z</time></trkpt>
<trkpt lat="53.1094060000" lon="-4.1332760000"><ele>240</ele><time>2016-10-15T13:25:32Z</time></trkpt>
<trkpt lat="53.1094140000" lon="-4.1332910000"><ele>241</ele><time>2016-10-15T13:25:33Z</time></trkpt>
<trkpt lat="53.1094230000" lon="-4.1333050000"><ele>241</ele><time>2016-10-15T13:25:34Z</time></trkpt>
<trkpt lat="53.1094300000" lon="-4.1333180000"><ele>241</ele><time>2016-10-15T13:25:35Z</time></trkpt>
<trkpt lat="53.1094380000" lon="-4.1333280000"><ele>241</ele><time>2016-10-15T13:25:36Z</time></trkpt>
<trkpt lat="53.1094470000" lon="-4.1333400000"><ele>241</ele><time>2016-10-15T13:25:37Z</time></trkpt>
<trkpt lat="53.1094570000" lon="-4.1333520000"><ele>241</ele><time>2016-10-15T13:25:38Z</time></trkpt>
<trkpt lat="53.1094680000" lon="-4.1333670000"><ele>241</ele><time>2016-10-15T13:25:39Z</time></trkpt>
<trkpt lat="53.1094760000" lon="-4.1333840000"><ele>241</ele><time>2016-10-15T13:25:40Z</time></trkpt>
<trkpt lat="53.1094830000" lon="-4.1334020000"><ele>242</ele><time>2016-10-15T13:25:41Z</time></trkpt>
<trkpt lat="53.1094920000" lon="-4.1334190000"><ele>242</ele><time>2016-10-15T13:25:42Z</time></trkpt>
<trkpt lat="53.1095010000" lon="-4.1334350000"><ele>242</ele><time>2016-10-15T13:25:43Z</time></trkpt>
<trkpt lat="53.1095070000" lon="-4.1334520000"><ele>242</ele><time>2016-10-15T13:25:44Z</time></trkpt>
<trkpt lat="53.1095130000" lon="-4.1334690000"><ele>242</ele><time>2016-10-15T13:25:45Z</time></trkpt>
<trkpt lat="53.1095200000" lon="-4.1334880000"><ele>242</ele><time>2016-10-15T13:25:46Z</time></trkpt>
<trkpt lat="53.1095300000" lon="-4.1335060000"><ele>242</ele><time>2016-10-15T13:25:47Z</time></trkpt>
<trkpt lat="53.1095370000" lon="-4.1335250000"><ele>242</ele><time>2016-10-15T13:25:48Z</time></trkpt>
<trkpt lat="53.1095430000" lon="-4.1335450000"><ele>242</ele><time>2016-10-15T13:25:49Z</time></trkpt>
<trkpt lat="53.1095490000" lon="-4.1335640000"><ele>242</ele><time>2016-10-15T13:25:50Z</time></trkpt>
<trkpt lat="53.1095560000" lon="-4.1335820000"><ele>242</ele><time>2016-10-15T13:25:51Z</time></trkpt>
<trkpt lat="53.1095650000" lon="-4.1335990000"><ele>242</ele><time>2016-10-15T13:25:52Z</time></trkpt>
<trkpt lat="53.1095730000" lon="-4.1336130000"><ele>242</ele><time>2016-10-15T13:25:53Z</time></trkpt>
<trkpt lat="53.1095810000" lon="-4.1336200000"><ele>242</ele><time>2016-10-15T13:25:54Z</time></trkpt>
<trkpt lat="53.1095860000" lon="-4.1336230000"><ele>243</ele><time>2016-10-15T13:25:55Z</time></trkpt>
<trkpt lat="53.1095860000" lon="-4.1336230000"><ele>243</ele><time>2016-10-15T13:25:57Z</time></trkpt>
<trkpt lat="53.1095860000" lon="-4.1336230000"><ele>243</ele><time>2016-10-15T13:25:58Z</time></trkpt>
<trkpt lat="53.1096170000" lon="-4.1336180000"><ele>245</ele><time>2016-10-15T13:26:24Z</time></trkpt>
<trkpt lat="53.1096480000" lon="-4.1336120000"><ele>240</ele><time>2016-10-15T13:27:04Z</time></trkpt>
<trkpt lat="53.1096370000" lon="-4.1336150000"><ele>243</ele><time>2016-10-15T13:27:43Z</time></trkpt>
<trkpt lat="53.1096360000" lon="-4.1336140000"><ele>243</ele><time>2016-10-15T13:27:44Z</time></trkpt>
<trkpt lat="53.1096350000" lon="-4.1336120000"><ele>243</ele><time>2016-10-15T13:27:45Z</time></trkpt>
<trkpt lat="53.1096340000" lon="-4.1336110000"><ele>243</ele><time>2016-10-15T13:27:46Z</time></trkpt>
<trkpt lat="53.1096330000" lon="-4.1336090000"><ele>243</ele><time>2016-10-15T13:27:47Z</time></trkpt>
<trkpt lat="53.1096320000" lon="-4.1336080000"><ele>243</ele><time>2016-10-15T13:27:48Z</time></trkpt>
<trkpt lat="53.1096310000" lon="-4.1336060000"><ele>243</ele><time>2016-10-15T13:27:49Z</time></trkpt>
<trkpt lat="53.1096310000" lon="-4.1336050000"><ele>243</ele><time>2016-10-15T13:27:50Z</time></trkpt>
<trkpt lat="53.1096300000" lon="-4.1336030000"><ele>243</ele><time>2016-10-15T13:27:51Z</time></trkpt>
<trkpt lat="53.1096290000" lon="-4.1336020000"><ele>244</ele><time>2016-10-15T13:27:52Z</time></trkpt>
<trkpt lat="53.1096290000" lon="-4.1336000000"><ele>244</ele><time>2016-10-15T13:27:53Z</time></trkpt>
<trkpt lat="53.1096170000" lon="-4.1335720000"><ele>246</ele><time>2016-10-15T13:28:16Z</time></trkpt>
<trkpt lat="53.1096170000" lon="-4.1335700000"><ele>246</ele><time>2016-10-15T13:28:17Z</time></trkpt>
<trkpt lat="53.1096170000" lon="-4.1335690000"><ele>246</ele><time>2016-10-15T13:28:18Z</time></trkpt>
<trkpt lat="53.1096160000" lon="-4.1335670000"><ele>246</ele><time>2016-10-15T13:28:19Z</time></trkpt>
<trkpt lat="53.1096160000" lon="-4.1335660000"><ele>246</ele><time>2016-10-15T13:28:20Z</time></trkpt>
<trkpt lat="53.1096160000" lon="-4.1335650000"><ele>247</ele><time>2016-10-15T13:28:21Z</time></trkpt>
<trkpt lat="53.1096160000" lon="-4.1335640000"><ele>247</ele><time>2016-10-15T13:28:22Z</time></trkpt>
<trkpt lat="53.1096160000" lon="-4.1335630000"><ele>247</ele><time>2016-10-15T13:28:23Z</time></trkpt>
<trkpt lat="53.1096170000" lon="-4.1335630000"><ele>247</ele><time>2016-10-15T13:28:24Z</time></trkpt>
<trkpt lat="53.1096170000" lon="-4.1335620000"><ele>247</ele><time>2016-10-15T13:28:25Z</time></trkpt>
<trkpt lat="53.1096170000" lon="-4.1335620000"><ele>247</ele><time>2016-10-15T13:28:26Z</time></trkpt>
<trkpt lat="53.1096170000" lon="-4.1335610000"><ele>247</ele><time>2016-10-15T13:28:27Z</time></trkpt>
<trkpt lat="53.1096180000" lon="-4.1335610000"><ele>247</ele><time>2016-10-15T13:28:28Z</time></trkpt>
<trkpt lat="53.1096180000" lon="-4.1335600000"><ele>247</ele><time>2016-10-15T13:28:29Z</time></trkpt>
<trkpt lat="53.1096190000" lon="-4.1335600000"><ele>247</ele><time>2016-10-15T13:28:30Z</time></trkpt>
<trkpt lat="53.1096290000" lon="-4.1335600000"><ele>247</ele><time>2016-10-15T13:29:02Z</time></trkpt>
<trkpt lat="53.1096290000" lon="-4.1335610000"><ele>247</ele><time>2016-10-15T13:29:03Z</time></trkpt>
<trkpt lat="53.1096290000" lon="-4.1335610000"><ele>247</ele><time>2016-10-15T13:29:04Z</time></trkpt>
<trkpt lat="53.1096290000" lon="-4.1335610000"><ele>247</ele><time>2016-10-15T13:29:05Z</time></trkpt>
<trkpt lat="53.1096290000" lon="-4.1335610000"><ele>247</ele><time>2016-10-15T13:29:06Z</time></trkpt>
<trkpt lat="53.1096290000" lon="-4.1335620000"><ele>247</ele><time>2016-10-15T13:29:07Z</time></trkpt>
<trkpt lat="53.1096290000" lon="-4.1335620000"><ele>247</ele><time>2016-10-15T13:29:08Z</time></trkpt>
<trkpt lat="53.1096290000" lon="-4.1335630000"><ele>247</ele><time>2016-10-15T13:29:09Z</time></trkpt>
<trkpt lat="53.1096290000" lon="-4.1335640000"><ele>247</ele><time>2016-10-15T13:29:10Z</time></trkpt>
<trkpt lat="53.1096290000" lon="-4.1335650000"><ele>247</ele><time>2016-10-15T13:29:11Z</time></trkpt>
<trkpt lat="53.1096290000" lon="-4.1335660000"><ele>247</ele><time>2016-10-15T13:29:12Z</time></trkpt>
<trkpt lat="53.1096290000" lon="-4.1335670000"><ele>247</ele><time>2016-10-15T13:29:13Z</time></trkpt>
<trkpt lat="53.1096290000" lon="-4.1335690000"><ele>247</ele><time>2016-10-15T13:29:14Z</time></trkpt>
<trkpt lat="53.1096290000" lon="-4.1335700000"><ele>247</ele><time>2016-10-15T13:29:15Z</time></trkpt>
<trkpt lat="53.1096290000" lon="-4.1335710000"><ele>247</ele><time>2016-10-15T13:29:16Z</time></trkpt>
<trkpt lat="53.1096290000" lon="-4.1335720000"><ele>247</ele><time>2016-10-15T13:29:17Z</time></trkpt>
<trkpt lat="53.1096290000" lon="-4.1335730000"><ele>247</ele><time>2016-10-15T13:29:18Z</time></trkpt>
<trkpt lat="53.1096290000" lon="-4.1335750000"><ele>247</ele><time>2016-10-15T13:29:19Z</time></trkpt>
<trkpt lat="53.1096290000" lon="-4.1335760000"><ele>247</ele><time>2016-10-15T13:29:20Z</time></trkpt>
<trkpt lat="53.1096290000" lon="-4.1335780000"><ele>248</ele><time>2016-10-15T13:29:21Z</time></trkpt>
<trkpt lat="53.1096290000" lon="-4.1335790000"><ele>248</ele><time>2016-10-15T13:29:22Z</time></trkpt>
<trkpt lat="53.1096290000" lon="-4.1335800000"><ele>248</ele><time>2016-10-15T13:29:23Z</time></trkpt>
<trkpt lat="53.1096290000" lon="-4.1335810000"><ele>248</ele><time>2016-10-15T13:29:24Z</time></trkpt>
<trkpt lat="53.1096280000" lon="-4.1335810000"><ele>248</ele><time>2016-10-15T13:29:25Z</time></trkpt>
<trkpt lat="53.1096280000" lon="-4.1335820000"><ele>248</ele><time>2016-10-15T13:29:26Z</time></trkpt>
<trkpt lat="53.1096280000" lon="-4.1335820000"><ele>248</ele><time>2016-10-15T13:29:27Z</time></trkpt>
<trkpt lat="53.1096270000" lon="-4.1335830000"><ele>248</ele><time>2016-10-15T13:29:28Z</time></trkpt>
<trkpt lat="53.1096270000" lon="-4.1335830000"><ele>249</ele><time>2016-10-15T13:29:29Z</time></trkpt>
<trkpt lat="53.1096270000" lon="-4.1335840000"><ele>249</ele><time>2016-10-15T13:29:30Z</time></trkpt>
<trkpt lat="53.1096260000" lon="-4.1335850000"><ele>249</ele><time>2016-10-15T13:29:31Z</time></trkpt>
<trkpt lat="53.1096260000" lon="-4.1335850000"><ele>249</ele><time>2016-10-15T13:29:32Z</time></trkpt>
<trkpt lat="53.1096260000" lon="-4.1335860000"><ele>249</ele><time>2016-10-15T13:29:33Z</time></trkpt>
<trkpt lat="53.1096260000" lon="-4.1335860000"><ele>249</ele><time>2016-10-15T13:29:34Z</time></trkpt>
<trkpt lat="53.1096260000" lon="-4.1335860000"><ele>249</ele><time>2016-10-15T13:29:35Z</time></trkpt>
<trkpt lat="53.1096260000" lon="-4.1335860000"><ele>249</ele><time>2016-10-15T13:29:36Z</time></trkpt>
<trkpt lat="53.1096260000" lon="-4.1335860000"><ele>249</ele><time>2016-10-15T13:29:37Z</time></trkpt>
<trkpt lat="53.1096260000" lon="-4.1335860000"><ele>249</ele><time>2016-10-15T13:29:38Z</time></trkpt>
<trkpt lat="53.1096260000" lon="-4.1335870000"><ele>249</ele><time>2016-10-15T13:29:39Z</time></trkpt>
<trkpt lat="53.1096260000" lon="-4.1335870000"><ele>249</ele><time>2016-10-15T13:29:41Z</time></trkpt>
<trkpt lat="53.1096260000" lon="-4.1335870000"><ele>249</ele><time>2016-10-15T13:29:42Z</time></trkpt>
<trkpt lat="53.1096290000" lon="-4.1335920000"><ele>249</ele><time>2016-10-15T13:30:10Z</time></trkpt>
<trkpt lat="53.1096290000" lon="-4.1335910000"><ele>249</ele><time>2016-10-15T13:30:11Z</time></trkpt>
<trkpt lat="53.1096300000" lon="-4.1335910000"><ele>249</ele><time>2016-10-15T13:30:12Z</time></trkpt>
<trkpt lat="53.1096300000" lon="-4.1335900000"><ele>249</ele><time>2016-10-15T13:30:13Z</time></trkpt>
<trkpt lat="53.1096310000" lon="-4.1335890000"><ele>249</ele><time>2016-10-15T13:30:14Z</time></trkpt>
<trkpt lat="53.1096320000" lon="-4.1335880000"><ele>249</ele><time>2016-10-15T13:30:15Z</time></trkpt>
<trkpt lat="53.1096340000" lon="-4.1335870000"><ele>248</ele><time>2016-10-15T13:30:16Z</time></trkpt>
<trkpt lat="53.1096360000" lon="-4.1335860000"><ele>248</ele><time>2016-10-15T13:30:17Z</time></trkpt>
<trkpt lat="53.1096380000" lon="-4.1335860000"><ele>248</ele><time>2016-10-15T13:30:18Z</time></trkpt>
<trkpt lat="53.1096410000" lon="-4.1335860000"><ele>248</ele><time>2016-10-15T13:30:19Z</time></trkpt>
<trkpt lat="53.1096440000" lon="-4.1335860000"><ele>248</ele><time>2016-10-15T13:30:20Z</time></trkpt>
<trkpt lat="53.1096470000" lon="-4.1335870000"><ele>247</ele><time>2016-10-15T13:30:21Z</time></trkpt>
<trkpt lat="53.1096500000" lon="-4.1335870000"><ele>247</ele><time>2016-10-15T13:30:22Z</time></trkpt>
<trkpt lat="53.1096540000" lon="-4.1335860000"><ele>247</ele><time>2016-10-15T13:30:23Z</time></trkpt>
<trkpt lat="53.1096580000" lon="-4.1335860000"><ele>246</ele><time>2016-10-15T13:30:24Z</time></trkpt>
<trkpt lat="53.1096610000" lon="-4.1335850000"><ele>246</ele><time>2016-10-15T13:30:25Z</time></trkpt>
<trkpt lat="53.1096660000" lon="-4.1335830000"><ele>246</ele><time>2016-10-15T13:30:26Z</time></trkpt>
<trkpt lat="53.1096700000" lon="-4.1335820000"><ele>245</ele><time>2016-10-15T13:30:27Z</time></trkpt>
<trkpt lat="53.1096740000" lon="-4.1335810000"><ele>245</ele><time>2016-10-15T13:30:28Z</time></trkpt>
<trkpt lat="53.1096780000" lon="-4.1335800000"><ele>244</ele><time>2016-10-15T13:30:29Z</time></trkpt>
<trkpt lat="53.1096820000" lon="-4.1335780000"><ele>244</ele><time>2016-10-15T13:30:30Z</time></trkpt>
<trkpt lat="53.1096860000" lon="-4.1335770000"><ele>244</ele><time>2016-10-15T13:30:31Z</time></trkpt>
<trkpt lat="53.1096910000" lon="-4.1335750000"><ele>243</ele><time>2016-10-15T13:30:32Z</time></trkpt>
<trkpt lat="53.1096960000" lon="-4.1335730000"><ele>243</ele><time>2016-10-15T13:30:33Z</time></trkpt>
<trkpt lat="53.1097010000" lon="-4.1335710000"><ele>243</ele><time>2016-10-15T13:30:34Z</time></trkpt>
<trkpt lat="53.1097060000" lon="-4.1335690000"><ele>243</ele><time>2016-10-15T13:30:35Z</time></trkpt>
<trkpt lat="53.1097110000" lon="-4.1335660000"><ele>242</ele><time>2016-10-15T13:30:36Z</time></trkpt>
<trkpt lat="53.1097170000" lon="-4.1335640000"><ele>242</ele><time>2016-10-15T13:30:37Z</time></trkpt>
<trkpt lat="53.1097230000" lon="-4.1335620000"><ele>242</ele><time>2016-10-15T13:30:38Z</time></trkpt>
<trkpt lat="53.1097290000" lon="-4.1335600000"><ele>242</ele><time>2016-10-15T13:30:39Z</time></trkpt>
<trkpt lat="53.1097350000" lon="-4.1335580000"><ele>241</ele><time>2016-10-15T13:30:40Z</time></trkpt>
<trkpt lat="53.1097420000" lon="-4.1335560000"><ele>241</ele><time>2016-10-15T13:30:41Z</time></trkpt>
<trkpt lat="53.1097490000" lon="-4.1335540000"><ele>241</ele><time>2016-10-15T13:30:42Z</time></trkpt>
<trkpt lat="53.1097560000" lon="-4.1335520000"><ele>241</ele><time>2016-10-15T13:30:43Z</time></trkpt>
<trkpt lat="53.1097630000" lon="-4.1335500000"><ele>241</ele><time>2016-10-15T13:30:44Z</time></trkpt>
<trkpt lat="53.1097860000" lon="-4.1335430000"><ele>240</ele><time>2016-10-15T13:30:47Z</time></trkpt>
<trkpt lat="53.1098100000" lon="-4.1335360000"><ele>239</ele><time>2016-10-15T13:30:50Z</time></trkpt>
<trkpt lat="53.1099690000" lon="-4.1334830000"><ele>239</ele><time>2016-10-15T13:30:52Z</time></trkpt>
<trkpt lat="53.1099940000" lon="-4.1334710000"><ele>238</ele><time>2016-10-15T13:30:55Z</time></trkpt>
<trkpt lat="53.1100230000" lon="-4.1334590000"><ele>237</ele><time>2016-10-15T13:31:06Z</time></trkpt>
<trkpt lat="53.1101770000" lon="-4.1333970000"><ele>237</ele><time>2016-10-15T13:31:07Z</time></trkpt>
<trkpt lat="53.1102070000" lon="-4.1333840000"><ele>237</ele><time>2016-10-15T13:31:09Z</time></trkpt>
<trkpt lat="53.1102380000" lon="-4.1333640000"><ele>237</ele><time>2016-10-15T13:31:11Z</time></trkpt>
<trkpt lat="53.1102650000" lon="-4.1333520000"><ele>237</ele><time>2016-10-15T13:31:12Z</time></trkpt>
<trkpt lat="53.1102910000" lon="-4.1333420000"><ele>237</ele><time>2016-10-15T13:31:13Z</time></trkpt>
<trkpt lat="53.1103260000" lon="-4.1333250000"><ele>238</ele><time>2016-10-15T13:31:15Z</time></trkpt>
<trkpt lat="53.1103470000" lon="-4.1333090000"><ele>239</ele><time>2016-10-15T13:31:17Z</time></trkpt>
<trkpt lat="53.1103620000" lon="-4.1332900000"><ele>240</ele><time>2016-10-15T13:31:22Z</time></trkpt>
<trkpt lat="53.1103630000" lon="-4.1332890000"><ele>240</ele><time>2016-10-15T13:31:23Z</time></trkpt>
<trkpt lat="53.1103640000" lon="-4.1332880000"><ele>240</ele><time>2016-10-15T13:31:24Z</time></trkpt>
<trkpt lat="53.1103650000" lon="-4.1332870000"><ele>240</ele><time>2016-10-15T13:31:25Z</time></trkpt>
<trkpt lat="53.1103670000" lon="-4.1332860000"><ele>240</ele><time>2016-10-15T13:31:26Z</time></trkpt>
<trkpt lat="53.1103690000" lon="-4.1332840000"><ele>240</ele><time>2016-10-15T13:31:27Z</time></trkpt>
<trkpt lat="53.1103710000" lon="-4.1332820000"><ele>240</ele><time>2016-10-15T13:31:28Z</time></trkpt>
<trkpt lat="53.1103740000" lon="-4.1332800000"><ele>240</ele><time>2016-10-15T13:31:29Z</time></trkpt>
<trkpt lat="53.1103780000" lon="-4.1332780000"><ele>240</ele><time>2016-10-15T13:31:30Z</time></trkpt>
<trkpt lat="53.1103820000" lon="-4.1332750000"><ele>240</ele><time>2016-10-15T13:31:31Z</time></trkpt>
<trkpt lat="53.1103860000" lon="-4.1332720000"><ele>240</ele><time>2016-10-15T13:31:32Z</time></trkpt>
<trkpt lat="53.1103900000" lon="-4.1332680000"><ele>240</ele><time>2016-10-15T13:31:33Z</time></trkpt>
<trkpt lat="53.1103950000" lon="-4.1332650000"><ele>239</ele><time>2016-10-15T13:31:34Z</time></trkpt>
<trkpt lat="53.1104000000" lon="-4.1332610000"><ele>239</ele><time>2016-10-15T13:31:35Z</time></trkpt>
<trkpt lat="53.1104050000" lon="-4.1332570000"><ele>238</ele><time>2016-10-15T13:31:36Z</time></trkpt>
<trkpt lat="53.1104100000" lon="-4.1332540000"><ele>238</ele><time>2016-10-15T13:31:37Z</time></trkpt>
<trkpt lat="53.1104160000" lon="-4.1332500000"><ele>237</ele><time>2016-10-15T13:31:38Z</time></trkpt>
<trkpt lat="53.1104220000" lon="-4.1332460000"><ele>237</ele><time>2016-10-15T13:31:39Z</time></trkpt>
<trkpt lat="53.1104290000" lon="-4.1332420000"><ele>236</ele><time>2016-10-15T13:31:40Z</time></trkpt>
<trkpt lat="53.1104360000" lon="-4.1332380000"><ele>236</ele><time>2016-10-15T13:31:41Z</time></trkpt>
<trkpt lat="53.1104440000" lon="-4.1332340000"><ele>236</ele><time>2016-10-15T13:31:42Z</time></trkpt>
<trkpt lat="53.1104510000" lon="-4.1332300000"><ele>235</ele><time>2016-10-15T13:31:43Z</time></trkpt>
<trkpt lat="53.1104590000" lon="-4.1332260000"><ele>235</ele><time>2016-10-15T13:31:44Z</time></trkpt>
<trkpt lat="53.1104670000" lon="-4.1332220000"><ele>234</ele><time>2016-10-15T13:31:45Z</time></trkpt>
<trkpt lat="53.1104750000" lon="-4.1332170000"><ele>234</ele><time>2016-10-15T13:31:46Z</time></trkpt>
<trkpt lat="53.1104840000" lon="-4.1332120000"><ele>233</ele><time>2016-10-15T13:31:47Z</time></trkpt>
<trkpt lat="53.1106340000" lon="-4.1331250000"><ele>233</ele><time>2016-10-15T13:31:48Z</time></trkpt>
<trkpt lat="53.1106450000" lon="-4.1331130000"><ele>233</ele><time>2016-10-15T13:31:49Z</time></trkpt>
<trkpt lat="53.1106560000" lon="-4.1331000000"><ele>232</ele><time>2016-10-15T13:31:50Z</time></trkpt>
<trkpt lat="53.1106670000" lon="-4.1330880000"><ele>232</ele><time>2016-10-15T13:31:51Z</time></trkpt>
<trkpt lat="53.1106760000" lon="-4.1330760000"><ele>232</ele><time>2016-10-15T13:31:52Z</time></trkpt>
<trkpt lat="53.1106840000" lon="-4.1330630000"><ele>231</ele><time>2016-10-15T13:31:53Z</time></trkpt>
<trkpt lat="53.1107030000" lon="-4.1330360000"><ele>231</ele><time>2016-10-15T13:31:55Z</time></trkpt>
<trkpt lat="53.1107120000" lon="-4.1330200000"><ele>231</ele><time>2016-10-15T13:31:56Z</time></trkpt>
<trkpt lat="53.1107220000" lon="-4.1330050000"><ele>230</ele><time>2016-10-15T13:31:57Z</time></trkpt>
<trkpt lat="53.1107310000" lon="-4.1329910000"><ele>230</ele><time>2016-10-15T13:31:58Z</time></trkpt>
<trkpt lat="53.1107400000" lon="-4.1329750000"><ele>230</ele><time>2016-10-15T13:31:59Z</time></trkpt>
<trkpt lat="53.1107490000" lon="-4.1329600000"><ele>230</ele><time>2016-10-15T13:32:00Z</time></trkpt>
<trkpt lat="53.1107570000" lon="-4.1329450000"><ele>229</ele><time>2016-10-15T13:32:01Z</time></trkpt>
<trkpt lat="53.1107650000" lon="-4.1329280000"><ele>229</ele><time>2016-10-15T13:32:02Z</time></trkpt>
<trkpt lat="53.1107710000" lon="-4.1329100000"><ele>229</ele><time>2016-10-15T13:32:03Z</time></trkpt>
<trkpt lat="53.1107770000" lon="-4.1328920000"><ele>229</ele><time>2016-10-15T13:32:04Z</time></trkpt>
<trkpt lat="53.1107810000" lon="-4.1328750000"><ele>229</ele><time>2016-10-15T13:32:05Z</time></trkpt>
<trkpt lat="53.1107870000" lon="-4.1328580000"><ele>229</ele><time>2016-10-15T13:32:06Z</time></trkpt>
<trkpt lat="53.1107920000" lon="-4.1328400000"><ele>229</ele><time>2016-10-15T13:32:07Z</time></trkpt>
<trkpt lat="53.1107970000" lon="-4.1328230000"><ele>228</ele><time>2016-10-15T13:32:08Z</time></trkpt>
<trkpt lat="53.1107990000" lon="-4.1328040000"><ele>228</ele><time>2016-10-15T13:32:09Z</time></trkpt>
<trkpt lat="53.1107990000" lon="-4.1327860000"><ele>228</ele><time>2016-10-15T13:32:10Z</time></trkpt>
<trkpt lat="53.1107990000" lon="-4.1327860000"><ele>228</ele><time>2016-10-15T13:32:11Z</time></trkpt>
<trkpt lat="53.1107990000" lon="-4.1327860000"><ele>228</ele><time>2016-10-15T13:32:12Z</time></trkpt>
<trkpt lat="53.1107990000" lon="-4.1327850000"><ele>228</ele><time>2016-10-15T13:32:13Z</time></trkpt>
<trkpt lat="53.1107990000" lon="-4.1327830000"><ele>228</ele><time>2016-10-15T13:32:14Z</time></trkpt>
<trkpt lat="53.1107990000" lon="-4.1327810000"><ele>227</ele><time>2016-10-15T13:32:15Z</time></trkpt>
<trkpt lat="53.1107990000" lon="-4.1327780000"><ele>227</ele><time>2016-10-15T13:32:16Z</time></trkpt>
<trkpt lat="53.1108000000" lon="-4.1327740000"><ele>227</ele><time>2016-10-15T13:32:17Z</time></trkpt>
<trkpt lat="53.1108000000" lon="-4.1327690000"><ele>227</ele><time>2016-10-15T13:32:18Z</time></trkpt>
<trkpt lat="53.1108010000" lon="-4.1327640000"><ele>227</ele><time>2016-10-15T13:32:19Z</time></trkpt>
<trkpt lat="53.1108010000" lon="-4.1327580000"><ele>227</ele><time>2016-10-15T13:32:20Z</time></trkpt>
<trkpt lat="53.1108020000" lon="-4.1327510000"><ele>227</ele><time>2016-10-15T13:32:21Z</time></trkpt>
<trkpt lat="53.1108030000" lon="-4.1327440000"><ele>227</ele><time>2016-10-15T13:32:22Z</time></trkpt>
<trkpt lat="53.1108050000" lon="-4.1327360000"><ele>227</ele><time>2016-10-15T13:32:23Z</time></trkpt>
<trkpt lat="53.1108070000" lon="-4.1327270000"><ele>227</ele><time>2016-10-15T13:32:24Z</time></trkpt>
<trkpt lat="53.1108090000" lon="-4.1327180000"><ele>227</ele><time>2016-10-15T13:32:25Z</time></trkpt>
<trkpt lat="53.1108110000" lon="-4.1327080000"><ele>227</ele><time>2016-10-15T13:32:26Z</time></trkpt>
<trkpt lat="53.1108140000" lon="-4.1326970000"><ele>226</ele><time>2016-10-15T13:32:27Z</time></trkpt>
<trkpt lat="53.1108170000" lon="-4.1326870000"><ele>226</ele><time>2016-10-15T13:32:28Z</time></trkpt>
<trkpt lat="53.1108200000" lon="-4.1326760000"><ele>226</ele><time>2016-10-15T13:32:29Z</time></trkpt>
<trkpt lat="53.1108240000" lon="-4.1326650000"><ele>226</ele><time>2016-10-15T13:32:30Z</time></trkpt>
<trkpt lat="53.1108280000" lon="-4.1326540000"><ele>226</ele><time>2016-10-15T13:32:31Z</time></trkpt>
<trkpt lat="53.1108320000" lon="-4.1326430000"><ele>225</ele><time>2016-10-15T13:32:32Z</time></trkpt>
<trkpt lat="53.1108370000" lon="-4.1326330000"><ele>225</ele><time>2016-10-15T13:32:33Z</time></trkpt>
<trkpt lat="53.1108420000" lon="-4.1326220000"><ele>225</ele><time>2016-10-15T13:32:34Z</time></trkpt>
<trkpt lat="53.1108470000" lon="-4.1326120000"><ele>225</ele><time>2016-10-15T13:32:35Z</time></trkpt>
<trkpt lat="53.1108530000" lon="-4.1326020000"><ele>225</ele><time>2016-10-15T13:32:36Z</time></trkpt>
<trkpt lat="53.1108590000" lon="-4.1325920000"><ele>224</ele><time>2016-10-15T13:32:37Z</time></trkpt>
<trkpt lat="53.1108650000" lon="-4.1325830000"><ele>224</ele><time>2016-10-15T13:32:38Z</time></trkpt>
<trkpt lat="53.1108720000" lon="-4.1325740000"><ele>224</ele><time>2016-10-15T13:32:39Z</time></trkpt>
<trkpt lat="53.1108790000" lon="-4.1325660000"><ele>224</ele><time>2016-10-15T13:32:40Z</time></trkpt>
<trkpt lat="53.1108860000" lon="-4.1325580000"><ele>223</ele><time>2016-10-15T13:32:41Z</time></trkpt>
<trkpt lat="53.1108940000" lon="-4.1325510000"><ele>223</ele><time>2016-10-15T13:32:42Z</time></trkpt>
<trkpt lat="53.1109020000" lon="-4.1325440000"><ele>223</ele><time>2016-10-15T13:32:43Z</time></trkpt>
<trkpt lat="53.1109100000" lon="-4.1325370000"><ele>222</ele><time>2016-10-15T13:32:44Z</time></trkpt>
<trkpt lat="53.1109180000" lon="-4.1325300000"><ele>222</ele><time>2016-10-15T13:32:45Z</time></trkpt>
<trkpt lat="53.1110630000" lon="-4.1324260000"><ele>222</ele><time>2016-10-15T13:32:46Z</time></trkpt>
<trkpt lat="53.1110760000" lon="-4.1324240000"><ele>222</ele><time>2016-10-15T13:32:47Z</time></trkpt>
<trkpt lat="53.1110900000" lon="-4.1324220000"><ele>221</ele><time>2016-10-15T13:32:48Z</time></trkpt>
<trkpt lat="53.1111020000" lon="-4.1324200000"><ele>221</ele><time>2016-10-15T13:32:49Z</time></trkpt>
<trkpt lat="53.1111150000" lon="-4.1324200000"><ele>221</ele><time>2016-10-15T13:32:50Z</time></trkpt>
<trkpt lat="53.1111270000" lon="-4.1324180000"><ele>221</ele><time>2016-10-15T13:32:51Z</time></trkpt>
<trkpt lat="53.1111380000" lon="-4.1324160000"><ele>220</ele><time>2016-10-15T13:32:52Z</time></trkpt>
<trkpt lat="53.1111500000" lon="-4.1324140000"><ele>220</ele><time>2016-10-15T13:32:53Z</time></trkpt>
<trkpt lat="53.1111750000" lon="-4.1324110000"><ele>219</ele><time>2016-10-15T13:32:55Z</time></trkpt>
<trkpt lat="53.1111850000" lon="-4.1324080000"><ele>219</ele><time>2016-10-15T13:32:56Z</time></trkpt>
<trkpt lat="53.1111940000" lon="-4.1324030000"><ele>219</ele><time>2016-10-15T13:32:57Z</time></trkpt>
<trkpt lat="53.1112220000" lon="-4.1323940000"><ele>218</ele><time>2016-10-15T13:32:59Z</time></trkpt>
<trkpt lat="53.1112500000" lon="-4.1323930000"><ele>218</ele><time>2016-10-15T13:33:01Z</time></trkpt>
<trkpt lat="53.1112790000" lon="-4.1323910000"><ele>218</ele><time>2016-10-15T13:33:03Z</time></trkpt>
<trkpt lat="53.1112950000" lon="-4.1323860000"><ele>217</ele><time>2016-10-15T13:33:06Z</time></trkpt>
<trkpt lat="53.1112950000" lon="-4.1323860000"><ele>217</ele><time>2016-10-15T13:33:07Z</time></trkpt>
<trkpt lat="53.1112960000" lon="-4.1323860000"><ele>217</ele><time>2016-10-15T13:33:08Z</time></trkpt>
<trkpt lat="53.1112970000" lon="-4.1323860000"><ele>216</ele><time>2016-10-15T13:33:09Z</time></trkpt>
<trkpt lat="53.1113790000" lon="-4.1323760000"><ele>216</ele><time>2016-10-15T13:33:10Z</time></trkpt>
<trkpt lat="53.1113940000" lon="-4.1323770000"><ele>216</ele><time>2016-10-15T13:33:11Z</time></trkpt>
<trkpt lat="53.1114070000" lon="-4.1323780000"><ele>216</ele><time>2016-10-15T13:33:12Z</time></trkpt>
<trkpt lat="53.1114180000" lon="-4.1323800000"><ele>216</ele><time>2016-10-15T13:33:13Z</time></trkpt>
<trkpt lat="53.1114300000" lon="-4.1323800000"><ele>216</ele><time>2016-10-15T13:33:14Z</time></trkpt>
<trkpt lat="53.1114440000" lon="-4.1323800000"><ele>215</ele><time>2016-10-15T13:33:15Z</time></trkpt>
<trkpt lat="53.1114580000" lon="-4.1323790000"><ele>215</ele><time>2016-10-15T13:33:16Z</time></trkpt>
<trkpt lat="53.1114710000" lon="-4.1323770000"><ele>215</ele><time>2016-10-15T13:33:17Z</time></trkpt>
<trkpt lat="53.1114840000" lon="-4.1323740000"><ele>215</ele><time>2016-10-15T13:33:18Z</time></trkpt>
<trkpt lat="53.1114970000" lon="-4.1323720000"><ele>215</ele><time>2016-10-15T13:33:19Z</time></trkpt>
<trkpt lat="53.1115100000" lon="-4.1323710000"><ele>215</ele><time>2016-10-15T13:33:20Z</time></trkpt>
<trkpt lat="53.1115240000" lon="-4.1323710000"><ele>215</ele><time>2016-10-15T13:33:21Z</time></trkpt>
<trkpt lat="53.1115370000" lon="-4.1323690000"><ele>214</ele><time>2016-10-15T13:33:22Z</time></trkpt>
<trkpt lat="53.1115500000" lon="-4.1323670000"><ele>214</ele><time>2016-10-15T13:33:23Z</time></trkpt>
<trkpt lat="53.1115630000" lon="-4.1323650000"><ele>214</ele><time>2016-10-15T13:33:24Z</time></trkpt>
<trkpt lat="53.1115770000" lon="-4.1323620000"><ele>214</ele><time>2016-10-15T13:33:25Z</time></trkpt>
<trkpt lat="53.1115900000" lon="-4.1323570000"><ele>214</ele><time>2016-10-15T13:33:26Z</time></trkpt>
<trkpt lat="53.1116030000" lon="-4.1323520000"><ele>214</ele><time>2016-10-15T13:33:27Z</time></trkpt>
<trkpt lat="53.1116140000" lon="-4.1323450000"><ele>213</ele><time>2016-10-15T13:33:28Z</time></trkpt>
<trkpt lat="53.1116240000" lon="-4.1323390000"><ele>213</ele><time>2016-10-15T13:33:29Z</time></trkpt>
<trkpt lat="53.1116240000" lon="-4.1323390000"><ele>213</ele><time>2016-10-15T13:33:30Z</time></trkpt>
<trkpt lat="53.1116240000" lon="-4.1323390000"><ele>213</ele><time>2016-10-15T13:33:31Z</time></trkpt>
<trkpt lat="53.1116250000" lon="-4.1323390000"><ele>213</ele><time>2016-10-15T13:33:32Z</time></trkpt>
<trkpt lat="53.1116250000" lon="-4.1323390000"><ele>213</ele><time>2016-10-15T13:33:33Z</time></trkpt>
<trkpt lat="53.1116270000" lon="-4.1323380000"><ele>212</ele><time>2016-10-15T13:33:34Z</time></trkpt>
<trkpt lat="53.1116280000" lon="-4.1323380000"><ele>212</ele><time>2016-10-15T13:33:35Z</time></trkpt>
<trkpt lat="53.1116300000" lon="-4.1323370000"><ele>212</ele><time>2016-10-15T13:33:36Z</time></trkpt>
<trkpt lat="53.1116330000" lon="-4.1323360000"><ele>212</ele><time>2016-10-15T13:33:37Z</time></trkpt>
<trkpt lat="53.1116360000" lon="-4.1323340000"><ele>212</ele><time>2016-10-15T13:33:38Z</time></trkpt>
<trkpt lat="53.1116390000" lon="-4.1323320000"><ele>211</ele><time>2016-10-15T13:33:39Z</time></trkpt>
<trkpt lat="53.1116430000" lon="-4.1323300000"><ele>211</ele><time>2016-10-15T13:33:40Z</time></trkpt>
<trkpt lat="53.1116480000" lon="-4.1323280000"><ele>211</ele><time>2016-10-15T13:33:41Z</time></trkpt>
<trkpt lat="53.1116530000" lon="-4.1323250000"><ele>210</ele><time>2016-10-15T13:33:42Z</time></trkpt>
<trkpt lat="53.1116590000" lon="-4.1323220000"><ele>210</ele><time>2016-10-15T13:33:43Z</time></trkpt>
<trkpt lat="53.1116650000" lon="-4.1323190000"><ele>210</ele><time>2016-10-15T13:33:44Z</time></trkpt>
<trkpt lat="53.1116720000" lon="-4.1323150000"><ele>210</ele><time>2016-10-15T13:33:45Z</time></trkpt>
<trkpt lat="53.1116790000" lon="-4.1323110000"><ele>210</ele><time>2016-10-15T13:33:46Z</time></trkpt>
<trkpt lat="53.1116870000" lon="-4.1323060000"><ele>209</ele><time>2016-10-15T13:33:47Z</time></trkpt>
<trkpt lat="53.1116960000" lon="-4.1323020000"><ele>209</ele><time>2016-10-15T13:33:48Z</time></trkpt>
<trkpt lat="53.1117050000" lon="-4.1322970000"><ele>209</ele><time>2016-10-15T13:33:49Z</time></trkpt>
<trkpt lat="53.1117140000" lon="-4.1322920000"><ele>209</ele><time>2016-10-15T13:33:50Z</time></trkpt>
<trkpt lat="53.1118880000" lon="-4.1321990000"><ele>209</ele><time>2016-10-15T13:33:51Z</time></trkpt>
<trkpt lat="53.1119020000" lon="-4.1321940000"><ele>209</ele><time>2016-10-15T13:33:52Z</time></trkpt>
<trkpt lat="53.1119150000" lon="-4.1321910000"><ele>209</ele><time>2016-10-15T13:33:53Z</time></trkpt>
<trkpt lat="53.1119450000" lon="-4.1321860000"><ele>209</ele><time>2016-10-15T13:33:55Z</time></trkpt>
<trkpt lat="53.1119560000" lon="-4.1321860000"><ele>209</ele><time>2016-10-15T13:33:56Z</time></trkpt>
<trkpt lat="53.1119680000" lon="-4.1321900000"><ele>209</ele><time>2016-10-15T13:33:57Z</time></trkpt>
<trkpt lat="53.1119820000" lon="-4.1321940000"><ele>209</ele><time>2016-10-15T13:33:58Z</time></trkpt>
<trkpt lat="53.1119950000" lon="-4.1322030000"><ele>209</ele><time>2016-10-15T13:33:59Z</time></trkpt>
<trkpt lat="53.1120050000" lon="-4.1322120000"><ele>209</ele><time>2016-10-15T13:34:00Z</time></trkpt>
<trkpt lat="53.1120170000" lon="-4.1322210000"><ele>208</ele><time>2016-10-15T13:34:01Z</time></trkpt>
<trkpt lat="53.1120280000" lon="-4.1322280000"><ele>208</ele><time>2016-10-15T13:34:02Z</time></trkpt>
<trkpt lat="53.1120400000" lon="-4.1322360000"><ele>208</ele><time>2016-10-15T13:34:03Z</time></trkpt>
<trkpt lat="53.1120520000" lon="-4.1322450000"><ele>208</ele><time>2016-10-15T13:34:04Z</time></trkpt>
<trkpt lat="53.1120630000" lon="-4.1322500000"><ele>208</ele><time>2016-10-15T13:34:05Z</time></trkpt>
<trkpt lat="53.1120760000" lon="-4.1322530000"><ele>208</ele><time>2016-10-15T13:34:06Z</time></trkpt>
<trkpt lat="53.1120870000" lon="-4.1322540000"><ele>208</ele><time>2016-10-15T13:34:07Z</time></trkpt>
<trkpt lat="53.1120990000" lon="-4.1322520000"><ele>208</ele><time>2016-10-15T13:34:08Z</time></trkpt>
<trkpt lat="53.1121100000" lon="-4.1322460000"><ele>208</ele><time>2016-10-15T13:34:09Z</time></trkpt>
<trkpt lat="53.1121240000" lon="-4.1322400000"><ele>207</ele><time>2016-10-15T13:34:10Z</time></trkpt>
<trkpt lat="53.1121370000" lon="-4.1322330000"><ele>207</ele><time>2016-10-15T13:34:11Z</time></trkpt>
<trkpt lat="53.1121490000" lon="-4.1322240000"><ele>207</ele><time>2016-10-15T13:34:12Z</time></trkpt>
<trkpt lat="53.1121610000" lon="-4.1322150000"><ele>207</ele><time>2016-10-15T13:34:13Z</time></trkpt>
<trkpt lat="53.1121710000" lon="-4.1322070000"><ele>207</ele><time>2016-10-15T13:34:14Z</time></trkpt>
<trkpt lat="53.1121820000" lon="-4.1321990000"><ele>207</ele><time>2016-10-15T13:34:15Z</time></trkpt>
<trkpt lat="53.1121920000" lon="-4.1321950000"><ele>207</ele><time>2016-10-15T13:34:16Z</time></trkpt>
<trkpt lat="53.1122030000" lon="-4.1321890000"><ele>206</ele><time>2016-10-15T13:34:17Z</time></trkpt>
<trkpt lat="53.1122030000" lon="-4.1321890000"><ele>206</ele><time>2016-10-15T13:34:18Z</time></trkpt>
<trkpt lat="53.1122040000" lon="-4.1321890000"><ele>206</ele><time>2016-10-15T13:34:19Z</time></trkpt>
<trkpt lat="53.1122040000" lon="-4.1321890000"><ele>206</ele><time>2016-10-15T13:34:20Z</time></trkpt>
<trkpt lat="53.1122050000" lon="-4.1321890000"><ele>206</ele><time>2016-10-15T13:34:21Z</time></trkpt>
<trkpt lat="53.1122060000" lon="-4.1321890000"><ele>206</ele><time>2016-10-15T13:34:22Z</time></trkpt>
<trkpt lat="53.1122080000" lon="-4.1321890000"><ele>205</ele><time>2016-10-15T13:34:23Z</time></trkpt>
<trkpt lat="53.1122100000" lon="-4.1321890000"><ele>205</ele><time>2016-10-15T13:34:24Z</time></trkpt>
<trkpt lat="53.1122130000" lon="-4.1321890000"><ele>205</ele><time>2016-10-15T13:34:25Z</time></trkpt>
<trkpt lat="53.1122160000" lon="-4.1321890000"><ele>205</ele><time>2016-10-15T13:34:26Z</time></trkpt>
<trkpt lat="53.1122200000" lon="-4.1321890000"><ele>205</ele><time>2016-10-15T13:34:27Z</time></trkpt>
<trkpt lat="53.1122250000" lon="-4.1321900000"><ele>204</ele><time>2016-10-15T13:34:28Z</time></trkpt>
<trkpt lat="53.1122300000" lon="-4.1321910000"><ele>204</ele><time>2016-10-15T13:34:29Z</time></trkpt>
<trkpt lat="53.1122350000" lon="-4.1321920000"><ele>204</ele><time>2016-10-15T13:34:30Z</time></trkpt>
<trkpt lat="53.1122420000" lon="-4.1321940000"><ele>204</ele><time>2016-10-15T13:34:31Z</time></trkpt>
<trkpt lat="53.1122480000" lon="-4.1321960000"><ele>203</ele><time>2016-10-15T13:34:32Z</time></trkpt>
<trkpt lat="53.1122560000" lon="-4.1321980000"><ele>203</ele><time>2016-10-15T13:34:33Z</time></trkpt>
<trkpt lat="53.1122640000" lon="-4.1322000000"><ele>203</ele><time>2016-10-15T13:34:34Z</time></trkpt>
<trkpt lat="53.1122720000" lon="-4.1322030000"><ele>203</ele><time>2016-10-15T13:34:35Z</time></trkpt>
<trkpt lat="53.1122800000" lon="-4.1322070000"><ele>202</ele><time>2016-10-15T13:34:36Z</time></trkpt>
<trkpt lat="53.1122890000" lon="-4.1322100000"><ele>202</ele><time>2016-10-15T13:34:37Z</time></trkpt>
<trkpt lat="53.1122980000" lon="-4.1322130000"><ele>202</ele><time>2016-10-15T13:34:38Z</time></trkpt>
<trkpt lat="53.1123080000" lon="-4.1322170000"><ele>202</ele><time>2016-10-15T13:34:39Z</time></trkpt>
<trkpt lat="53.1124780000" lon="-4.1322790000"><ele>202</ele><time>2016-10-15T13:34:40Z</time></trkpt>
<trkpt lat="53.1124930000" lon="-4.1322840000"><ele>201</ele><time>2016-10-15T13:34:41Z</time></trkpt>
<trkpt lat="53.1125110000" lon="-4.1322920000"><ele>201</ele><time>2016-10-15T13:34:42Z</time></trkpt>
<trkpt lat="53.1125270000" lon="-4.1322990000"><ele>201</ele><time>2016-10-15T13:34:43Z</time></trkpt>
<trkpt lat="53.1125430000" lon="-4.1323040000"><ele>201</ele><time>2016-10-15T13:34:45Z</time></trkpt>
<trkpt lat="53.1125550000" lon="-4.1323070000"><ele>201</ele></trkpt>
<trkpt lat="53.1125680000" lon="-4.1323090000"><ele>201</ele><time>2016-10-15T13:34:46Z</time></trkpt>
<trkpt lat="53.1125840000" lon="-4.1323120000"><ele>202</ele><time>2016-10-15T13:34:47Z</time></trkpt>
<trkpt lat="53.1126000000" lon="-4.1323170000"><ele>202</ele><time>2016-10-15T13:34:48Z</time></trkpt>
<trkpt lat="53.1126150000" lon="-4.1323200000"><ele>202</ele><time>2016-10-15T13:34:49Z</time></trkpt>
<trkpt lat="53.1126280000" lon="-4.1323250000"><ele>202</ele><time>2016-10-15T13:34:50Z</time></trkpt>
<trkpt lat="53.1126410000" lon="-4.1323300000"><ele>202</ele><time>2016-10-15T13:34:51Z</time></trkpt>
<trkpt lat="53.1126530000" lon="-4.1323350000"><ele>202</ele><time>2016-10-15T13:34:52Z</time></trkpt>
<trkpt lat="53.1126660000" lon="-4.1323410000"><ele>202</ele><time>2016-10-15T13:34:53Z</time></trkpt>
<trkpt lat="53.1126920000" lon="-4.1323520000"><ele>202</ele><time>2016-10-15T13:34:55Z</time></trkpt>
<trkpt lat="53.1127010000" lon="-4.1323560000"><ele>202</ele><time>2016-10-15T13:34:56Z</time></trkpt>
<trkpt lat="53.1127140000" lon="-4.1323650000"><ele>202</ele><time>2016-10-15T13:34:57Z</time></trkpt>
<trkpt lat="53.1127270000" lon="-4.1323760000"><ele>201</ele><time>2016-10-15T13:34:58Z</time></trkpt>
<trkpt lat="53.1127400000" lon="-4.1323880000"><ele>201</ele><time>2016-10-15T13:34:59Z</time></trkpt>
<trkpt lat="53.1127510000" lon="-4.1324000000"><ele>201</ele><time>2016-10-15T13:35:00Z</time></trkpt>
<trkpt lat="53.1127600000" lon="-4.1324140000"><ele>201</ele><time>2016-10-15T13:35:01Z</time></trkpt>
<trkpt lat="53.1127670000" lon="-4.1324310000"><ele>201</ele><time>2016-10-15T13:35:02Z</time></trkpt>
<trkpt lat="53.1127750000" lon="-4.1324470000"><ele>201</ele><time>2016-10-15T13:35:03Z</time></trkpt>
<trkpt lat="53.1127830000" lon="-4.1324650000"><ele>201</ele><time>2016-10-15T13:35:04Z</time></trkpt>
<trkpt lat="53.1127900000" lon="-4.1324840000"><ele>200</ele><time>2016-10-15T13:35:05Z</time></trkpt>
<trkpt lat="53.1127970000" lon="-4.1325030000"><ele>200</ele><time>2016-10-15T13:35:06Z</time></trkpt>
<trkpt lat="53.1128020000" lon="-4.1325230000"><ele>200</ele><time>2016-10-15T13:35:07Z</time></trkpt>
<trkpt lat="53.1128080000" lon="-4.1325440000"><ele>200</ele><time>2016-10-15T13:35:08Z</time></trkpt>
<trkpt lat="53.1128150000" lon="-4.1325640000"><ele>200</ele><time>2016-10-15T13:35:09Z</time></trkpt>
<trkpt lat="53.1128210000" lon="-4.1325840000"><ele>200</ele><time>2016-10-15T13:35:10Z</time></trkpt>
<trkpt lat="53.1128280000" lon="-4.1326050000"><ele>200</ele><time>2016-10-15T13:35:11Z</time></trkpt>
<trkpt lat="53.1128340000" lon="-4.1326260000"><ele>199</ele><time>2016-10-15T13:35:12Z</time></trkpt>
<trkpt lat="53.1128420000" lon="-4.1326470000"><ele>199</ele><time>2016-10-15T13:35:13Z</time></trkpt>
<trkpt lat="53.1128520000" lon="-4.1326660000"><ele>199</ele><time>2016-10-15T13:35:14Z</time></trkpt>
<trkpt lat="53.1128610000" lon="-4.1326840000"><ele>199</ele><time>2016-10-15T13:35:15Z</time></trkpt>
<trkpt lat="53.1128690000" lon="-4.1327030000"><ele>199</ele><time>2016-10-15T13:35:16Z</time></trkpt>
<trkpt lat="53.1128780000" lon="-4.1327190000"><ele>199</ele><time>2016-10-15T13:35:17Z</time></trkpt>
<trkpt lat="53.1128850000" lon="-4.1327380000"><ele>199</ele><time>2016-10-15T13:35:18Z</time></trkpt>
<trkpt lat="53.1128940000" lon="-4.1327580000"><ele>199</ele><time>2016-10-15T13:35:19Z</time></trkpt>
<trkpt lat="53.1129010000" lon="-4.1327780000"><ele>199</ele><time>2016-10-15T13:35:20Z</time></trkpt>
<trkpt lat="53.1129070000" lon="-4.1327980000"><ele>199</ele><time>2016-10-15T13:35:21Z</time></trkpt>
<trkpt lat="53.1129140000" lon="-4.1328190000"><ele>199</ele><time>2016-10-15T13:35:22Z</time></trkpt>
<trkpt lat="53.1129190000" lon="-4.1328390000"><ele>199</ele><time>2016-10-15T13:35:23Z</time></trkpt>
<trkpt lat="53.1129250000" lon="-4.1328590000"><ele>199</ele><time>2016-10-15T13:35:24Z</time></trkpt>
<trkpt lat="53.1129300000" lon="-4.1328770000"><ele>199</ele><time>2016-10-15T13:35:25Z</time></trkpt>
<trkpt lat="53.1129340000" lon="-4.1328960000"><ele>199</ele><time>2016-10-15T13:35:26Z</time></trkpt>
<trkpt lat="53.1129370000" lon="-4.1329160000"><ele>199</ele><time>2016-10-15T13:35:27Z</time></trkpt>
<trkpt lat="53.1129410000" lon="-4.1329330000"><ele>199</ele><time>2016-10-15T13:35:28Z</time></trkpt>
<trkpt lat="53.1129450000" lon="-4.1329480000"><ele>199</ele><time>2016-10-15T13:35:29Z</time></trkpt>
<trkpt lat="53.1129450000" lon="-4.1329480000"><ele>199</ele><time>2016-10-15T13:35:30Z</time></trkpt>
<trkpt lat="53.1129450000" lon="-4.1329480000"><ele>199</ele><time>2016-10-15T13:35:31Z</time></trkpt>
<trkpt lat="53.1129450000" lon="-4.1329490000"><ele>199</ele><time>2016-10-15T13:35:32Z</time></trkpt>
<trkpt lat="53.1129450000" lon="-4.1329490000"><ele>199</ele><time>2016-10-15T13:35:33Z</time></trkpt>
<trkpt lat="53.1129460000" lon="-4.1329500000"><ele>199</ele><time>2016-10-15T13:35:34Z</time></trkpt>
<trkpt lat="53.1129460000" lon="-4.1329510000"><ele>199</ele><time>2016-10-15T13:35:35Z</time></trkpt>
<trkpt lat="53.1129470000" lon="-4.1329520000"><ele>199</ele><time>2016-10-15T13:35:36Z</time></trkpt>
<trkpt lat="53.1129480000" lon="-4.1329540000"><ele>199</ele><time>2016-10-15T13:35:37Z</time></trkpt>
<trkpt lat="53.1129490000" lon="-4.1329550000"><ele>199</ele><time>2016-10-15T13:35:38Z</time></trkpt>
<trkpt lat="53.1129500000" lon="-4.1329580000"><ele>199</ele><time>2016-10-15T13:35:39Z</time></trkpt>
<trkpt lat="53.1129520000" lon="-4.1329610000"><ele>198</ele><time>2016-10-15T13:35:40Z</time></trkpt>
<trkpt lat="53.1129540000" lon="-4.1329650000"><ele>198</ele><time>2016-10-15T13:35:41Z</time></trkpt>
<trkpt lat="53.1129560000" lon="-4.1329690000"><ele>198</ele><time>2016-10-15T13:35:42Z</time></trkpt>
<trkpt lat="53.1129580000" lon="-4.1329740000"><ele>198</ele><time>2016-10-15T13:35:43Z</time></trkpt>
<trkpt lat="53.1129610000" lon="-4.1329800000"><ele>198</ele><time>2016-10-15T13:35:44Z</time></trkpt>
<trkpt lat="53.1129640000" lon="-4.1329860000"><ele>198</ele><time>2016-10-15T13:35:45Z</time></trkpt>
<trkpt lat="53.1129670000" lon="-4.1329930000"><ele>198</ele><time>2016-10-15T13:35:46Z</time></trkpt>
<trkpt lat="53.1129700000" lon="-4.1330010000"><ele>198</ele><time>2016-10-15T13:35:47Z</time></trkpt>
<trkpt lat="53.1129740000" lon="-4.1330090000"><ele>197</ele><time>2016-10-15T13:35:48Z</time></trkpt>
<trkpt lat="53.1129780000" lon="-4.1330180000"><ele>197</ele><time>2016-10-15T13:35:49Z</time></trkpt>
<trkpt lat="53.1129830000" lon="-4.1330280000"><ele>197</ele><time>2016-10-15T13:35:50Z</time></trkpt>
<trkpt lat="53.1129870000" lon="-4.1330370000"><ele>197</ele><time>2016-10-15T13:35:51Z</time></trkpt>
<trkpt lat="53.1129920000" lon="-4.1330470000"><ele>197</ele><time>2016-10-15T13:35:52Z</time></trkpt>
<trkpt lat="53.1129970000" lon="-4.1330570000"><ele>197</ele><time>2016-10-15T13:35:53Z</time></trkpt>
<trkpt lat="53.1130080000" lon="-4.1330780000"><ele>197</ele><time>2016-10-15T13:35:55Z</time></trkpt>
<trkpt lat="53.1130140000" lon="-4.1330880000"><ele>197</ele><time>2016-10-15T13:35:56Z</time></trkpt>
<trkpt lat="53.1130200000" lon="-4.1330990000"><ele>196</ele><time>2016-10-15T13:35:57Z</time></trkpt>
<trkpt lat="53.1130270000" lon="-4.1331090000"><ele>196</ele><time>2016-10-15T13:35:58Z</time></trkpt>
<trkpt lat="53.1130340000" lon="-4.1331200000"><ele>196</ele><time>2016-10-15T13:35:59Z</time></trkpt>
<trkpt lat="53.1130410000" lon="-4.1331300000"><ele>196</ele><time>2016-10-15T13:36:00Z</time></trkpt>
<trkpt lat="53.1131730000" lon="-4.1333190000"><ele>196</ele><time>2016-10-15T13:36:01Z</time></trkpt>
<trkpt lat="53.1131830000" lon="-4.1333290000"><ele>196</ele><time>2016-10-15T13:36:02Z</time></trkpt>
<trkpt lat="53.1131960000" lon="-4.1333400000"><ele>196</ele><time>2016-10-15T13:36:03Z</time></trkpt>
<trkpt lat="53.1132060000" lon="-4.1333510000"><ele>196</ele><time>2016-10-15T13:36:04Z</time></trkpt>
<trkpt lat="53.1132160000" lon="-4.1333620000"><ele>196</ele><time>2016-10-15T13:36:05Z</time></trkpt>
<trkpt lat="53.1132270000" lon="-4.1333720000"><ele>196</ele><time>2016-10-15T13:36:06Z</time></trkpt>
<trkpt lat="53.1132360000" lon="-4.1333810000"><ele>196</ele><time>2016-10-15T13:36:07Z</time></trkpt>
<trkpt lat="53.1132470000" lon="-4.1333930000"><ele>196</ele><time>2016-10-15T13:36:08Z</time></trkpt>
<trkpt lat="53.1132590000" lon="-4.1334060000"><ele>196</ele><time>2016-10-15T13:36:09Z</time></trkpt>
<trkpt lat="53.1132700000" lon="-4.1334190000"><ele>196</ele><time>2016-10-15T13:36:10Z</time></trkpt>
<trkpt lat="53.1132810000" lon="-4.1334320000"><ele>196</ele><time>2016-10-15T13:36:11Z</time></trkpt>
<trkpt lat="53.1132920000" lon="-4.1334460000"><ele>196</ele><time>2016-10-15T13:36:12Z</time></trkpt>
<trkpt lat="53.1133020000" lon="-4.1334600000"><ele>196</ele><time>2016-10-15T13:36:13Z</time></trkpt>
<trkpt lat="53.1133110000" lon="-4.1334720000"><ele>196</ele><time>2016-10-15T13:36:14Z</time></trkpt>
<trkpt lat="53.1133200000" lon="-4.1334840000"><ele>196</ele><time>2016-10-15T13:36:15Z</time></trkpt>
<trkpt lat="53.1133310000" lon="-4.1334960000"><ele>196</ele><time>2016-10-15T13:36:16Z</time></trkpt>
<trkpt lat="53.1133420000" lon="-4.1335090000"><ele>196</ele><time>2016-10-15T13:36:17Z</time></trkpt>
<trkpt lat="53.1133520000" lon="-4.1335200000"><ele>196</ele><time>2016-10-15T13:36:18Z</time></trkpt>
<trkpt lat="53.1133630000" lon="-4.1335310000"><ele>196</ele><time>2016-10-15T13:36:19Z</time></trkpt>
<trkpt lat="53.1133770000" lon="-4.1335410000"><ele>196</ele><time>2016-10-15T13:36:20Z</time></trkpt>
<trkpt lat="53.1133900000" lon="-4.1335490000"><ele>196</ele><time>2016-10-15T13:36:21Z</time></trkpt>
<trkpt lat="53.1134010000" lon="-4.1335550000"><ele>196</ele><time>2016-10-15T13:36:22Z</time></trkpt>
<trkpt lat="53.1134120000" lon="-4.1335600000"><ele>196</ele><time>2016-10-15T13:36:23Z</time></trkpt>
<trkpt lat="53.1134120000" lon="-4.1335600000"><ele>196</ele><time>2016-10-15T13:36:24Z</time></trkpt>
<trkpt lat="53.1134130000" lon="-4.1335600000"><ele>196</ele><time>2016-10-15T13:36:25Z</time></trkpt>
<trkpt lat="53.1134130000" lon="-4.1335610000"><ele>196</ele><time>2016-10-15T13:36:26Z</time></trkpt>
<trkpt lat="53.1134140000" lon="-4.1335610000"><ele>196</ele><time>2016-10-15T13:36:27Z</time></trkpt>
<trkpt lat="53.1134140000" lon="-4.1335610000"><ele>195</ele><time>2016-10-15T13:36:28Z</time></trkpt>
<trkpt lat="53.1134360000" lon="-4.1335640000"><ele>195</ele><time>2016-10-15T13:36:35Z</time></trkpt>
<trkpt lat="53.1134420000" lon="-4.1335640000"><ele>195</ele><time>2016-10-15T13:36:36Z</time></trkpt>
<trkpt lat="53.1136000000" lon="-4.1335690000"><ele>195</ele><time>2016-10-15T13:36:37Z</time></trkpt>
<trkpt lat="53.1136130000" lon="-4.1335690000"><ele>194</ele><time>2016-10-15T13:36:38Z</time></trkpt>
<trkpt lat="53.1136250000" lon="-4.1335670000"><ele>194</ele><time>2016-10-15T13:36:39Z</time></trkpt>
<trkpt lat="53.1136380000" lon="-4.1335650000"><ele>194</ele><time>2016-10-15T13:36:40Z</time></trkpt>
<trkpt lat="53.1136500000" lon="-4.1335610000"><ele>194</ele><time>2016-10-15T13:36:41Z</time></trkpt>
<trkpt lat="53.1136610000" lon="-4.1335600000"><ele>194</ele><time>2016-10-15T13:36:42Z</time></trkpt>
<trkpt lat="53.1136610000" lon="-4.1335600000"><ele>194</ele><time>2016-10-15T13:36:43Z</time></trkpt>
<trkpt lat="53.1136610000" lon="-4.1335600000"><ele>194</ele><time>2016-10-15T13:36:44Z</time></trkpt>
<trkpt lat="53.1136620000" lon="-4.1335600000"><ele>193</ele><time>2016-10-15T13:36:45Z</time></trkpt>
<trkpt lat="53.1136630000" lon="-4.1335600000"><ele>193</ele><time>2016-10-15T13:36:46Z</time></trkpt>
<trkpt lat="53.1136640000" lon="-4.1335610000"><ele>193</ele><time>2016-10-15T13:36:47Z</time></trkpt>
<trkpt lat="53.1136650000" lon="-4.1335610000"><ele>193</ele><time>2016-10-15T13:36:48Z</time></trkpt>
<trkpt lat="53.1136670000" lon="-4.1335620000"><ele>193</ele><time>2016-10-15T13:36:49Z</time></trkpt>
<trkpt lat="53.1136700000" lon="-4.1335630000"><ele>193</ele><time>2016-10-15T13:36:50Z</time></trkpt>
<trkpt lat="53.1136730000" lon="-4.1335650000"><ele>192</ele><time>2016-10-15T13:36:51Z</time></trkpt>
<trkpt lat="53.1136760000" lon="-4.1335660000"><ele>192</ele><time>2016-10-15T13:36:52Z</time></trkpt>
<trkpt lat="53.1136800000" lon="-4.1335680000"><ele>192</ele><time>2016-10-15T13:36:53Z</time></trkpt>
<trkpt lat="53.1136900000" lon="-4.1335720000"><ele>192</ele><time>2016-10-15T13:36:55Z</time></trkpt>
<trkpt lat="53.1136960000" lon="-4.1335750000"><ele>191</ele><time>2016-10-15T13:36:56Z</time></trkpt>
<trkpt lat="53.1137020000" lon="-4.1335770000"><ele>191</ele><time>2016-10-15T13:36:57Z</time></trkpt>
<trkpt lat="53.1137090000" lon="-4.1335800000"><ele>191</ele><time>2016-10-15T13:36:58Z</time></trkpt>
<trkpt lat="53.1137160000" lon="-4.1335830000"><ele>191</ele><time>2016-10-15T13:36:59Z</time></trkpt>
<trkpt lat="53.1137240000" lon="-4.1335860000"><ele>190</ele><time>2016-10-15T13:37:00Z</time></trkpt>
<trkpt lat="53.1137330000" lon="-4.1335890000"><ele>190</ele><time>2016-10-15T13:37:01Z</time></trkpt>
<trkpt lat="53.1137410000" lon="-4.1335930000"><ele>190</ele><time>2016-10-15T13:37:02Z</time></trkpt>
<trkpt lat="53.1137500000" lon="-4.1335960000"><ele>190</ele><time>2016-10-15T13:37:03Z</time></trkpt>
<trkpt lat="53.1137600000" lon="-4.1335990000"><ele>190</ele><time>2016-10-15T13:37:04Z</time></trkpt>
<trkpt lat="53.1137700000" lon="-4.1336030000"><ele>190</ele><time>2016-10-15T13:37:05Z</time></trkpt>
<trkpt lat="53.1139750000" lon="-4.1336770000"><ele>190</ele><time>2016-10-15T13:37:06Z</time></trkpt>
<trkpt lat="53.1139870000" lon="-4.1336790000"><ele>189</ele><time>2016-10-15T13:37:07Z</time></trkpt>
<trkpt lat="53.1140010000" lon="-4.1336820000"><ele>189</ele><time>2016-10-15T13:37:08Z</time></trkpt>
<trkpt lat="53.1140130000" lon="-4.1336860000"><ele>189</ele><time>2016-10-15T13:37:09Z</time></trkpt>
<trkpt lat="53.1140280000" lon="-4.1336890000"><ele>189</ele><time>2016-10-15T13:37:10Z</time></trkpt>
<trkpt lat="53.1140410000" lon="-4.1336930000"><ele>189</ele><time>2016-10-15T13:37:11Z</time></trkpt>
<trkpt lat="53.1140540000" lon="-4.1336980000"><ele>189</ele><time>2016-10-15T13:37:12Z</time></trkpt>
<trkpt lat="53.1140660000" lon="-4.1337020000"><ele>189</ele><time>2016-10-15T13:37:13Z</time></trkpt>
<trkpt lat="53.1140790000" lon="-4.1337070000"><ele>189</ele><time>2016-10-15T13:37:14Z</time></trkpt>
<trkpt lat="53.1140960000" lon="-4.1337150000"><ele>189</ele><time>2016-10-15T13:37:22Z</time></trkpt>
<trkpt lat="53.1140980000" lon="-4.1337150000"><ele>189</ele><time>2016-10-15T13:37:23Z</time></trkpt>
<trkpt lat="53.1141020000" lon="-4.1337160000"><ele>189</ele><time>2016-10-15T13:37:24Z</time></trkpt>
<trkpt lat="53.1141050000" lon="-4.1337170000"><ele>189</ele><time>2016-10-15T13:37:25Z</time></trkpt>
<trkpt lat="53.1141090000" lon="-4.1337180000"><ele>189</ele><time>2016-10-15T13:37:26Z</time></trkpt>
<trkpt lat="53.1141140000" lon="-4.1337190000"><ele>188</ele><time>2016-10-15T13:37:27Z</time></trkpt>
<trkpt lat="53.1141190000" lon="-4.1337200000"><ele>188</ele><time>2016-10-15T13:37:28Z</time></trkpt>
<trkpt lat="53.1141250000" lon="-4.1337220000"><ele>188</ele><time>2016-10-15T13:37:29Z</time></trkpt>
<trkpt lat="53.1141310000" lon="-4.1337240000"><ele>188</ele><time>2016-10-15T13:37:30Z</time></trkpt>
<trkpt lat="53.1141370000" lon="-4.1337260000"><ele>188</ele><time>2016-10-15T13:37:31Z</time></trkpt>
<trkpt lat="53.1141440000" lon="-4.1337280000"><ele>187</ele><time>2016-10-15T13:37:32Z</time></trkpt>
<trkpt lat="53.1141510000" lon="-4.1337310000"><ele>187</ele><time>2016-10-15T13:37:33Z</time></trkpt>
<trkpt lat="53.1141590000" lon="-4.1337340000"><ele>187</ele><time>2016-10-15T13:37:34Z</time></trkpt>
<trkpt lat="53.1141670000" lon="-4.1337370000"><ele>187</ele><time>2016-10-15T13:37:35Z</time></trkpt>
<trkpt lat="53.1141750000" lon="-4.1337400000"><ele>187</ele><time>2016-10-15T13:37:36Z</time></trkpt>
<trkpt lat="53.1141840000" lon="-4.1337430000"><ele>186</ele><time>2016-10-15T13:37:37Z</time></trkpt>
<trkpt lat="53.1141930000" lon="-4.1337460000"><ele>186</ele><time>2016-10-15T13:37:38Z</time></trkpt>
<trkpt lat="53.1143810000" lon="-4.1338100000"><ele>186</ele><time>2016-10-15T13:37:39Z</time></trkpt>
<trkpt lat="53.1143950000" lon="-4.1338170000"><ele>186</ele><time>2016-10-15T13:37:40Z</time></trkpt>
<trkpt lat="53.1144070000" lon="-4.1338240000"><ele>185</ele><time>2016-10-15T13:37:41Z</time></trkpt>
<trkpt lat="53.1144200000" lon="-4.1338310000"><ele>185</ele><time>2016-10-15T13:37:42Z</time></trkpt>
<trkpt lat="53.1144350000" lon="-4.1338370000"><ele>185</ele><time>2016-10-15T13:37:43Z</time></trkpt>
<trkpt lat="53.1144510000" lon="-4.1338420000"><ele>185</ele><time>2016-10-15T13:37:44Z</time></trkpt>
<trkpt lat="53.1144640000" lon="-4.1338430000"><ele>185</ele><time>2016-10-15T13:37:45Z</time></trkpt>
<trkpt lat="53.1144770000" lon="-4.1338440000"><ele>184</ele><time>2016-10-15T13:37:46Z</time></trkpt>
<trkpt lat="53.1144900000" lon="-4.1338450000"><ele>184</ele><time>2016-10-15T13:37:47Z</time></trkpt>
<trkpt lat="53.1145010000" lon="-4.1338430000"><ele>184</ele><time>2016-10-15T13:37:48Z</time></trkpt>
<trkpt lat="53.1145130000" lon="-4.1338420000"><ele>184</ele><time>2016-10-15T13:37:49Z</time></trkpt>
<trkpt lat="53.1145250000" lon="-4.1338390000"><ele>184</ele><time>2016-10-15T13:37:50Z</time></trkpt>
<trkpt lat="53.1145400000" lon="-4.1338390000"><ele>183</ele><time>2016-10-15T13:37:51Z</time></trkpt>
<trkpt lat="53.1145550000" lon="-4.1338400000"><ele>183</ele><time>2016-10-15T13:37:52Z</time></trkpt>
<trkpt lat="53.1145700000" lon="-4.1338400000"><ele>183</ele><time>2016-10-15T13:37:53Z</time></trkpt>
<trkpt lat="53.1145970000" lon="-4.1338310000"><ele>183</ele><time>2016-10-15T13:37:55Z</time></trkpt>
<trkpt lat="53.1146110000" lon="-4.1338290000"><ele>182</ele><time>2016-10-15T13:37:56Z</time></trkpt>
<trkpt lat="53.1146260000" lon="-4.1338260000"><ele>182</ele><time>2016-10-15T13:37:57Z</time></trkpt>
<trkpt lat="53.1146410000" lon="-4.1338230000"><ele>182</ele><time>2016-10-15T13:37:58Z</time></trkpt>
<trkpt lat="53.1146570000" lon="-4.1338200000"><ele>182</ele><time>2016-10-15T13:37:59Z</time></trkpt>
<trkpt lat="53.1146700000" lon="-4.1338150000"><ele>182</ele><time>2016-10-15T13:38:00Z</time></trkpt>
<trkpt lat="53.1146820000" lon="-4.1338110000"><ele>182</ele><time>2016-10-15T13:38:01Z</time></trkpt>
<trkpt lat="53.1146970000" lon="-4.1338070000"><ele>182</ele><time>2016-10-15T13:38:02Z</time></trkpt>
<trkpt lat="53.1147110000" lon="-4.1338030000"><ele>182</ele><time>2016-10-15T13:38:03Z</time></trkpt>
<trkpt lat="53.1147220000" lon="-4.1337980000"><ele>182</ele><time>2016-10-15T13:38:04Z</time></trkpt>
<trkpt lat="53.1147350000" lon="-4.1337940000"><ele>182</ele><time>2016-10-15T13:38:05Z</time></trkpt>
<trkpt lat="53.1147490000" lon="-4.1337900000"><ele>181</ele><time>2016-10-15T13:38:06Z</time></trkpt>
<trkpt lat="53.1147620000" lon="-4.1337870000"><ele>181</ele><time>2016-10-15T13:38:07Z</time></trkpt>
<trkpt lat="53.1147750000" lon="-4.1337830000"><ele>181</ele><time>2016-10-15T13:38:08Z</time></trkpt>
<trkpt lat="53.1147870000" lon="-4.1337780000"><ele>181</ele><time>2016-10-15T13:38:09Z</time></trkpt>
<trkpt lat="53.1147990000" lon="-4.1337750000"><ele>181</ele><time>2016-10-15T13:38:10Z</time></trkpt>
<trkpt lat="53.1148090000" lon="-4.1337730000"><ele>181</ele><time>2016-10-15T13:38:11Z</time></trkpt>
<trkpt lat="53.1148090000" lon="-4.1337730000"><ele>181</ele><time>2016-10-15T13:38:12Z</time></trkpt>
<trkpt lat="53.1148100000" lon="-4.1337730000"><ele>180</ele><time>2016-10-15T13:38:13Z</time></trkpt>
<trkpt lat="53.1148100000" lon="-4.1337730000"><ele>180</ele><time>2016-10-15T13:38:14Z</time></trkpt>
<trkpt lat="53.1148110000" lon="-4.1337730000"><ele>180</ele><time>2016-10-15T13:38:15Z</time></trkpt>
<trkpt lat="53.1148120000" lon="-4.1337720000"><ele>180</ele><time>2016-10-15T13:38:16Z</time></trkpt>
<trkpt lat="53.1148140000" lon="-4.1337720000"><ele>179</ele><time>2016-10-15T13:38:17Z</time></trkpt>
<trkpt lat="53.1148160000" lon="-4.1337710000"><ele>179</ele><time>2016-10-15T13:38:18Z</time></trkpt>
<trkpt lat="53.1148190000" lon="-4.1337700000"><ele>179</ele><time>2016-10-15T13:38:19Z</time></trkpt>
<trkpt lat="53.1148220000" lon="-4.1337690000"><ele>178</ele><time>2016-10-15T13:38:20Z</time></trkpt>
<trkpt lat="53.1148260000" lon="-4.1337680000"><ele>178</ele><time>2016-10-15T13:38:21Z</time></trkpt>
<trkpt lat="53.1148300000" lon="-4.1337660000"><ele>178</ele><time>2016-10-15T13:38:22Z</time></trkpt>
<trkpt lat="53.1148340000" lon="-4.1337650000"><ele>178</ele><time>2016-10-15T13:38:24Z</time></trkpt>
<trkpt lat="53.1148390000" lon="-4.1337630000"><ele>177</ele></trkpt>
<trkpt lat="53.1148440000" lon="-4.1337600000"><ele>177</ele><time>2016-10-15T13:38:25Z</time></trkpt>
<trkpt lat="53.1148500000" lon="-4.1337570000"><ele>177</ele><time>2016-10-15T13:38:26Z</time></trkpt>
<trkpt lat="53.1148560000" lon="-4.1337540000"><ele>176</ele><time>2016-10-15T13:38:27Z</time></trkpt>
<trkpt lat="53.1148630000" lon="-4.1337500000"><ele>176</ele><time>2016-10-15T13:38:28Z</time></trkpt>
<trkpt lat="53.1148700000" lon="-4.1337450000"><ele>176</ele><time>2016-10-15T13:38:29Z</time></trkpt>
<trkpt lat="53.1148770000" lon="-4.1337410000"><ele>176</ele><time>2016-10-15T13:38:30Z</time></trkpt>
<trkpt lat="53.1148850000" lon="-4.1337350000"><ele>175</ele><time>2016-10-15T13:38:31Z</time></trkpt>
<trkpt lat="53.1148940000" lon="-4.1337300000"><ele>175</ele><time>2016-10-15T13:38:32Z</time></trkpt>
<trkpt lat="53.1149030000" lon="-4.1337240000"><ele>175</ele><time>2016-10-15T13:38:33Z</time></trkpt>
<trkpt lat="53.1150630000" lon="-4.1336120000"><ele>175</ele><time>2016-10-15T13:38:34Z</time></trkpt>
<trkpt lat="53.1150750000" lon="-4.1336050000"><ele>174</ele><time>2016-10-15T13:38:35Z</time></trkpt>
<trkpt lat="53.1150870000" lon="-4.1336000000"><ele>174</ele><time>2016-10-15T13:38:36Z</time></trkpt>
<trkpt lat="53.1150990000" lon="-4.1335930000"><ele>174</ele><time>2016-10-15T13:38:37Z</time></trkpt>
<trkpt lat="53.1151100000" lon="-4.1335870000"><ele>174</ele><time>2016-10-15T13:38:38Z</time></trkpt>
<trkpt lat="53.1151220000" lon="-4.1335800000"><ele>174</ele><time>2016-10-15T13:38:39Z</time></trkpt>
<trkpt lat="53.1151330000" lon="-4.1335730000"><ele>173</ele><time>2016-10-15T13:38:40Z</time></trkpt>
<trkpt lat="53.1151450000" lon="-4.1335650000"><ele>173</ele><time>2016-10-15T13:38:41Z</time></trkpt>
<trkpt lat="53.1151580000" lon="-4.1335580000"><ele>173</ele><time>2016-10-15T13:38:42Z</time></trkpt>
<trkpt lat="53.1151700000" lon="-4.1335530000"><ele>173</ele><time>2016-10-15T13:38:43Z</time></trkpt>
<trkpt lat="53.1151820000" lon="-4.1335480000"><ele>173</ele><time>2016-10-15T13:38:44Z</time></trkpt>
<trkpt lat="53.1151940000" lon="-4.1335440000"><ele>173</ele><time>2016-10-15T13:38:45Z</time></trkpt>
<trkpt lat="53.1152070000" lon="-4.1335400000"><ele>172</ele><time>2016-10-15T13:38:46Z</time></trkpt>
<trkpt lat="53.1152210000" lon="-4.1335340000"><ele>172</ele><time>2016-10-15T13:38:47Z</time></trkpt>
<trkpt lat="53.1152330000" lon="-4.1335280000"><ele>172</ele><time>2016-10-15T13:38:48Z</time></trkpt>
<trkpt lat="53.1152460000" lon="-4.1335220000"><ele>172</ele><time>2016-10-15T13:38:49Z</time></trkpt>
<trkpt lat="53.1152590000" lon="-4.1335150000"><ele>172</ele><time>2016-10-15T13:38:50Z</time></trkpt>
<trkpt lat="53.1152720000" lon="-4.1335090000"><ele>172</ele><time>2016-10-15T13:38:51Z</time></trkpt>
<trkpt lat="53.1152850000" lon="-4.1335040000"><ele>172</ele><time>2016-10-15T13:38:52Z</time></trkpt>
<trkpt lat="53.1152980000" lon="-4.1335000000"><ele>172</ele><time>2016-10-15T13:38:53Z</time></trkpt>
<trkpt lat="53.1153210000" lon="-4.1334900000"><ele>172</ele><time>2016-10-15T13:38:55Z</time></trkpt>
<trkpt lat="53.1153320000" lon="-4.1334860000"><ele>171</ele><time>2016-10-15T13:38:56Z</time></trkpt>
<trkpt lat="53.1153430000" lon="-4.1334830000"><ele>171</ele><time>2016-10-15T13:38:57Z</time></trkpt>
<trkpt lat="53.1153550000" lon="-4.1334770000"><ele>171</ele><time>2016-10-15T13:38:58Z</time></trkpt>
<trkpt lat="53.1153670000" lon="-4.1334730000"><ele>171</ele><time>2016-10-15T13:38:59Z</time></trkpt>
<trkpt lat="53.1153800000" lon="-4.1334670000"><ele>171</ele><time>2016-10-15T13:39:00Z</time></trkpt>
<trkpt lat="53.1153920000" lon="-4.1334650000"><ele>171</ele><time>2016-10-15T13:39:01Z</time></trkpt>
<trkpt lat="53.1154030000" lon="-4.1334630000"><ele>171</ele><time>2016-10-15T13:39:02Z</time></trkpt>
<trkpt lat="53.1154150000" lon="-4.1334590000"><ele>171</ele><time>2016-10-15T13:39:03Z</time></trkpt>
<trkpt lat="53.1154260000" lon="-4.1334550000"><ele>170</ele><time>2016-10-15T13:39:04Z</time></trkpt>
<trkpt lat="53.1154380000" lon="-4.1334490000"><ele>170</ele><time>2016-10-15T13:39:05Z</time></trkpt>
<trkpt lat="53.1154510000" lon="-4.1334440000"><ele>170</ele><time>2016-10-15T13:39:06Z</time></trkpt>
<trkpt lat="53.1154630000" lon="-4.1334380000"><ele>170</ele><time>2016-10-15T13:39:07Z</time></trkpt>
<trkpt lat="53.1154760000" lon="-4.1334300000"><ele>170</ele><time>2016-10-15T13:39:08Z</time></trkpt>
<trkpt lat="53.1154890000" lon="-4.1334250000"><ele>170</ele><time>2016-10-15T13:39:09Z</time></trkpt>
<trkpt lat="53.1155020000" lon="-4.1334220000"><ele>170</ele><time>2016-10-15T13:39:10Z</time></trkpt>
<trkpt lat="53.1155160000" lon="-4.1334160000"><ele>170</ele><time>2016-10-15T13:39:11Z</time></trkpt>
<trkpt lat="53.1155290000" lon="-4.1334090000"><ele>170</ele><time>2016-10-15T13:39:12Z</time></trkpt>
<trkpt lat="53.1155430000" lon="-4.1334010000"><ele>169</ele><time>2016-10-15T13:39:13Z</time></trkpt>
<trkpt lat="53.1155580000" lon="-4.1333930000"><ele>169</ele><time>2016-10-15T13:39:14Z</time></trkpt>
<trkpt lat="53.1155720000" lon="-4.1333850000"><ele>169</ele><time>2016-10-15T13:39:15Z</time></trkpt>
<trkpt lat="53.1155840000" lon="-4.1333770000"><ele>169</ele><time>2016-10-15T13:39:16Z</time></trkpt>
<trkpt lat="53.1155960000" lon="-4.1333670000"><ele>169</ele><time>2016-10-15T13:39:17Z</time></trkpt>
<trkpt lat="53.1156080000" lon="-4.1333550000"><ele>169</ele><time>2016-10-15T13:39:18Z</time></trkpt>
<trkpt lat="53.1156180000" lon="-4.1333470000"><ele>169</ele><time>2016-10-15T13:39:19Z</time></trkpt>
<trkpt lat="53.1156300000" lon="-4.1333380000"><ele>169</ele><time>2016-10-15T13:39:20Z</time></trkpt>
<trkpt lat="53.1156410000" lon="-4.1333310000"><ele>169</ele><time>2016-10-15T13:39:21Z</time></trkpt>
<trkpt lat="53.1156520000" lon="-4.1333190000"><ele>169</ele><time>2016-10-15T13:39:22Z</time></trkpt>
<trkpt lat="53.1156620000" lon="-4.1333090000"><ele>169</ele><time>2016-10-15T13:39:23Z</time></trkpt>
<trkpt lat="53.1156720000" lon="-4.1332990000"><ele>169</ele><time>2016-10-15T13:39:24Z</time></trkpt>
<trkpt lat="53.1156810000" lon="-4.1332850000"><ele>169</ele><time>2016-10-15T13:39:25Z</time></trkpt>
<trkpt lat="53.1156910000" lon="-4.1332730000"><ele>169</ele><time>2016-10-15T13:39:26Z</time></trkpt>
<trkpt lat="53.1157010000" lon="-4.1332620000"><ele>169</ele><time>2016-10-15T13:39:27Z</time></trkpt>
<trkpt lat="53.1157110000" lon="-4.1332530000"><ele>169</ele><time>2016-10-15T13:39:28Z</time></trkpt>
<trkpt lat="53.1157200000" lon="-4.1332400000"><ele>169</ele><time>2016-10-15T13:39:29Z</time></trkpt>
<trkpt lat="53.1157200000" lon="-4.1332400000"><ele>169</ele><time>2016-10-15T13:39:30Z</time></trkpt>
<trkpt lat="53.1157200000" lon="-4.1332400000"><ele>169</ele><time>2016-10-15T13:39:31Z</time></trkpt>
<trkpt lat="53.1157210000" lon="-4.1332390000"><ele>169</ele><time>2016-10-15T13:39:32Z</time></trkpt>
<trkpt lat="53.1157210000" lon="-4.1332380000"><ele>169</ele><time>2016-10-15T13:39:33Z</time></trkpt>
<trkpt lat="53.1157220000" lon="-4.1332360000"><ele>169</ele><time>2016-10-15T13:39:34Z</time></trkpt>
<trkpt lat="53.1157240000" lon="-4.1332330000"><ele>168</ele><time>2016-10-15T13:39:35Z</time></trkpt>
<trkpt lat="53.1157250000" lon="-4.1332300000"><ele>168</ele><time>2016-10-15T13:39:36Z</time></trkpt>
<trkpt lat="53.1157270000" lon="-4.1332260000"><ele>168</ele><time>2016-10-15T13:39:37Z</time></trkpt>
<trkpt lat="53.1157300000" lon="-4.1332210000"><ele>168</ele><time>2016-10-15T13:39:38Z</time></trkpt>
<trkpt lat="53.1157330000" lon="-4.1332150000"><ele>168</ele><time>2016-10-15T13:39:39Z</time></trkpt>
<trkpt lat="53.1157360000" lon="-4.1332090000"><ele>168</ele><time>2016-10-15T13:39:40Z</time></trkpt>
<trkpt lat="53.1157400000" lon="-4.1332020000"><ele>168</ele><time>2016-10-15T13:39:41Z</time></trkpt>
<trkpt lat="53.1157430000" lon="-4.1331940000"><ele>167</ele><time>2016-10-15T13:39:42Z</time></trkpt>
<trkpt lat="53.1157470000" lon="-4.1331850000"><ele>167</ele><time>2016-10-15T13:39:43Z</time></trkpt>
<trkpt lat="53.1157510000" lon="-4.1331760000"><ele>167</ele><time>2016-10-15T13:39:44Z</time></trkpt>
<trkpt lat="53.1157560000" lon="-4.1331670000"><ele>167</ele><time>2016-10-15T13:39:45Z</time></trkpt>
<trkpt lat="53.1157600000" lon="-4.1331570000"><ele>166</ele><time>2016-10-15T13:39:46Z</time></trkpt>
<trkpt lat="53.1157640000" lon="-4.1331460000"><ele>166</ele><time>2016-10-15T13:39:47Z</time></trkpt>
<trkpt lat="53.1157690000" lon="-4.1331340000"><ele>166</ele><time>2016-10-15T13:39:48Z</time></trkpt>
<trkpt lat="53.1157730000" lon="-4.1331220000"><ele>166</ele><time>2016-10-15T13:39:49Z</time></trkpt>
<trkpt lat="53.1157770000" lon="-4.1331090000"><ele>165</ele><time>2016-10-15T13:39:50Z</time></trkpt>
<trkpt lat="53.1157810000" lon="-4.1330950000"><ele>165</ele><time>2016-10-15T13:39:51Z</time></trkpt>
<trkpt lat="53.1157840000" lon="-4.1330800000"><ele>165</ele><time>2016-10-15T13:39:52Z</time></trkpt>
<trkpt lat="53.1158450000" lon="-4.1328090000"><ele>165</ele><time>2016-10-15T13:39:53Z</time></trkpt>
<trkpt lat="53.1158500000" lon="-4.1327540000"><ele>165</ele><time>2016-10-15T13:39:55Z</time></trkpt>
<trkpt lat="53.1158550000" lon="-4.1327330000"><ele>164</ele><time>2016-10-15T13:39:56Z</time></trkpt>
<trkpt lat="53.1158600000" lon="-4.1327130000"><ele>164</ele><time>2016-10-15T13:39:57Z</time></trkpt>
<trkpt lat="53.1158650000" lon="-4.1326900000"><ele>164</ele><time>2016-10-15T13:39:58Z</time></trkpt>
<trkpt lat="53.1158710000" lon="-4.1326680000"><ele>164</ele><time>2016-10-15T13:39:59Z</time></trkpt>
<trkpt lat="53.1158770000" lon="-4.1326480000"><ele>164</ele><time>2016-10-15T13:40:00Z</time></trkpt>
<trkpt lat="53.1158830000" lon="-4.1326280000"><ele>164</ele><time>2016-10-15T13:40:01Z</time></trkpt>
<trkpt lat="53.1158900000" lon="-4.1326090000"><ele>164</ele><time>2016-10-15T13:40:02Z</time></trkpt>
<trkpt lat="53.1158980000" lon="-4.1325940000"><ele>164</ele><time>2016-10-15T13:40:03Z</time></trkpt>
<trkpt lat="53.1159060000" lon="-4.1325790000"><ele>164</ele><time>2016-10-15T13:40:04Z</time></trkpt>
<trkpt lat="53.1159130000" lon="-4.1325690000"><ele>164</ele><time>2016-10-15T13:40:05Z</time></trkpt>
<trkpt lat="53.1159190000" lon="-4.1325540000"><ele>164</ele><time>2016-10-15T13:40:07Z</time></trkpt>
<trkpt lat="53.1159250000" lon="-4.1325380000"><ele>163</ele></trkpt>
<trkpt lat="53.1159320000" lon="-4.1325230000"><ele>163</ele><time>2016-10-15T13:40:08Z</time></trkpt>
<trkpt lat="53.1159400000" lon="-4.1325090000"><ele>163</ele><time>2016-10-15T13:40:09Z</time></trkpt>
<trkpt lat="53.1159480000" lon="-4.1324960000"><ele>163</ele><time>2016-10-15T13:40:10Z</time></trkpt>
<trkpt lat="53.1159480000" lon="-4.1324960000"><ele>163</ele><time>2016-10-15T13:40:11Z</time></trkpt>
<trkpt lat="53.1159480000" lon="-4.1324960000"><ele>162</ele><time>2016-10-15T13:40:12Z</time></trkpt>
<trkpt lat="53.1159490000" lon="-4.1324950000"><ele>162</ele><time>2016-10-15T13:40:13Z</time></trkpt>
<trkpt lat="53.1159490000" lon="-4.1324940000"><ele>162</ele><time>2016-10-15T13:40:14Z</time></trkpt>
<trkpt lat="53.1159500000" lon="-4.1324930000"><ele>162</ele><time>2016-10-15T13:40:15Z</time></trkpt>
<trkpt lat="53.1159510000" lon="-4.1324910000"><ele>162</ele><time>2016-10-15T13:40:16Z</time></trkpt>
<trkpt lat="53.1159530000" lon="-4.1324880000"><ele>161</ele><time>2016-10-15T13:40:17Z</time></trkpt>
<trkpt lat="53.1159550000" lon="-4.1324850000"><ele>161</ele><time>2016-10-15T13:40:18Z</time></trkpt>
<trkpt lat="53.1159580000" lon="-4.1324820000"><ele>161</ele><time>2016-10-15T13:40:19Z</time></trkpt>
<trkpt lat="53.1159610000" lon="-4.1324780000"><ele>161</ele><time>2016-10-15T13:40:20Z</time></trkpt>
<trkpt lat="53.1159650000" lon="-4.1324740000"><ele>160</ele><time>2016-10-15T13:40:21Z</time></trkpt>
<trkpt lat="53.1159700000" lon="-4.1324680000"><ele>160</ele><time>2016-10-15T13:40:22Z</time></trkpt>
<trkpt lat="53.1159750000" lon="-4.1324630000"><ele>160</ele><time>2016-10-15T13:40:23Z</time></trkpt>
<trkpt lat="53.1159800000" lon="-4.1324560000"><ele>160</ele><time>2016-10-15T13:40:24Z</time></trkpt>
<trkpt lat="53.1159860000" lon="-4.1324500000"><ele>159</ele><time>2016-10-15T13:40:25Z</time></trkpt>
<trkpt lat="53.1159930000" lon="-4.1324430000"><ele>159</ele><time>2016-10-15T13:40:26Z</time></trkpt>
<trkpt lat="53.1161260000" lon="-4.1323160000"><ele>159</ele><time>2016-10-15T13:40:27Z</time></trkpt>
<trkpt lat="53.1161400000" lon="-4.1323120000"><ele>159</ele><time>2016-10-15T13:40:28Z</time></trkpt>
<trkpt lat="53.1161540000" lon="-4.1323080000"><ele>158</ele><time>2016-10-15T13:40:29Z</time></trkpt>
<trkpt lat="53.1161690000" lon="-4.1323030000"><ele>158</ele><time>2016-10-15T13:40:30Z</time></trkpt>
<trkpt lat="53.1161840000" lon="-4.1322970000"><ele>158</ele><time>2016-10-15T13:40:31Z</time></trkpt>
<trkpt lat="53.1161980000" lon="-4.1322920000"><ele>158</ele><time>2016-10-15T13:40:32Z</time></trkpt>
<trkpt lat="53.1162120000" lon="-4.1322860000"><ele>158</ele><time>2016-10-15T13:40:33Z</time></trkpt>
<trkpt lat="53.1162250000" lon="-4.1322830000"><ele>158</ele><time>2016-10-15T13:40:34Z</time></trkpt>
<trkpt lat="53.1162400000" lon="-4.1322800000"><ele>157</ele><time>2016-10-15T13:40:35Z</time></trkpt>
<trkpt lat="53.1162560000" lon="-4.1322780000"><ele>157</ele><time>2016-10-15T13:40:36Z</time></trkpt>
<trkpt lat="53.1162700000" lon="-4.1322740000"><ele>157</ele><time>2016-10-15T13:40:37Z</time></trkpt>
<trkpt lat="53.1162850000" lon="-4.1322700000"><ele>157</ele><time>2016-10-15T13:40:38Z</time></trkpt>
<trkpt lat="53.1163000000" lon="-4.1322660000"><ele>157</ele><time>2016-10-15T13:40:39Z</time></trkpt>
<trkpt lat="53.1163150000" lon="-4.1322630000"><ele>157</ele><time>2016-10-15T13:40:40Z</time></trkpt>
<trkpt lat="53.1163280000" lon="-4.1322610000"><ele>157</ele><time>2016-10-15T13:40:41Z</time></trkpt>
<trkpt lat="53.1163400000" lon="-4.1322580000"><ele>157</ele><time>2016-10-15T13:40:42Z</time></trkpt>
<trkpt lat="53.1163520000" lon="-4.1322550000"><ele>157</ele><time>2016-10-15T13:40:43Z</time></trkpt>
<trkpt lat="53.1163640000" lon="-4.1322520000"><ele>157</ele><time>2016-10-15T13:40:44Z</time></trkpt>
<trkpt lat="53.1163760000" lon="-4.1322510000"><ele>157</ele><time>2016-10-15T13:40:45Z</time></trkpt>
<trkpt lat="53.1163870000" lon="-4.1322470000"><ele>157</ele><time>2016-10-15T13:40:46Z</time></trkpt>
<trkpt lat="53.1164000000" lon="-4.1322400000"><ele>157</ele><time>2016-10-15T13:40:47Z</time></trkpt>
<trkpt lat="53.1164130000" lon="-4.1322370000"><ele>157</ele><time>2016-10-15T13:40:48Z</time></trkpt>
<trkpt lat="53.1164260000" lon="-4.1322350000"><ele>157</ele><time>2016-10-15T13:40:49Z</time></trkpt>
<trkpt lat="53.1164370000" lon="-4.1322290000"><ele>157</ele><time>2016-10-15T13:40:50Z</time></trkpt>
<trkpt lat="53.1164490000" lon="-4.1322230000"><ele>157</ele><time>2016-10-15T13:40:51Z</time></trkpt>
<trkpt lat="53.1164590000" lon="-4.1322130000"><ele>157</ele><time>2016-10-15T13:40:52Z</time></trkpt>
<trkpt lat="53.1164680000" lon="-4.1321970000"><ele>157</ele><time>2016-10-15T13:40:53Z</time></trkpt>
<trkpt lat="53.1164850000" lon="-4.1321670000"><ele>157</ele><time>2016-10-15T13:40:55Z</time></trkpt>
<trkpt lat="53.1164930000" lon="-4.1321530000"><ele>157</ele><time>2016-10-15T13:40:56Z</time></trkpt>
<trkpt lat="53.1165010000" lon="-4.1321370000"><ele>156</ele><time>2016-10-15T13:40:57Z</time></trkpt>
<trkpt lat="53.1165090000" lon="-4.1321230000"><ele>156</ele><time>2016-10-15T13:40:58Z</time></trkpt>
<trkpt lat="53.1165180000" lon="-4.1321050000"><ele>156</ele><time>2016-10-15T13:40:59Z</time></trkpt>
<trkpt lat="53.1165250000" lon="-4.1320820000"><ele>156</ele><time>2016-10-15T13:41:00Z</time></trkpt>
<trkpt lat="53.1165320000" lon="-4.1320600000"><ele>156</ele><time>2016-10-15T13:41:01Z</time></trkpt>
<trkpt lat="53.1165400000" lon="-4.1320430000"><ele>156</ele><time>2016-10-15T13:41:02Z</time></trkpt>
<trkpt lat="53.1165480000" lon="-4.1320240000"><ele>156</ele><time>2016-10-15T13:41:03Z</time></trkpt>
<trkpt lat="53.1165560000" lon="-4.1320050000"><ele>156</ele><time>2016-10-15T13:41:04Z</time></trkpt>
<trkpt lat="53.1165630000" lon="-4.1319870000"><ele>156</ele><time>2016-10-15T13:41:05Z</time></trkpt>
<trkpt lat="53.1165710000" lon="-4.1319690000"><ele>156</ele><time>2016-10-15T13:41:06Z</time></trkpt>
<trkpt lat="53.1165790000" lon="-4.1319540000"><ele>156</ele><time>2016-10-15T13:41:07Z</time></trkpt>
<trkpt lat="53.1165880000" lon="-4.1319390000"><ele>155</ele><time>2016-10-15T13:41:08Z</time></trkpt>
<trkpt lat="53.1165960000" lon="-4.1319230000"><ele>155</ele><time>2016-10-15T13:41:09Z</time></trkpt>
<trkpt lat="53.1166040000" lon="-4.1319030000"><ele>155</ele><time>2016-10-15T13:41:10Z</time></trkpt>
<trkpt lat="53.1166110000" lon="-4.1318830000"><ele>155</ele><time>2016-10-15T13:41:11Z</time></trkpt>
<trkpt lat="53.1166210000" lon="-4.1318650000"><ele>155</ele><time>2016-10-15T13:41:12Z</time></trkpt>
<trkpt lat="53.1166290000" lon="-4.1318490000"><ele>155</ele><time>2016-10-15T13:41:13Z</time></trkpt>
<trkpt lat="53.1166360000" lon="-4.1318340000"><ele>155</ele><time>2016-10-15T13:41:14Z</time></trkpt>
<trkpt lat="53.1166430000" lon="-4.1318180000"><ele>155</ele><time>2016-10-15T13:41:15Z</time></trkpt>
<trkpt lat="53.1166520000" lon="-4.1318000000"><ele>155</ele><time>2016-10-15T13:41:16Z</time></trkpt>
<trkpt lat="53.1166600000" lon="-4.1317840000"><ele>155</ele><time>2016-10-15T13:41:17Z</time></trkpt>
<trkpt lat="53.1166660000" lon="-4.1317710000"><ele>155</ele><time>2016-10-15T13:41:18Z</time></trkpt>
<trkpt lat="53.1166720000" lon="-4.1317560000"><ele>155</ele><time>2016-10-15T13:41:19Z</time></trkpt>
<trkpt lat="53.1166780000" lon="-4.1317350000"><ele>155</ele><time>2016-10-15T13:41:20Z</time></trkpt>
<trkpt lat="53.1166820000" lon="-4.1317130000"><ele>155</ele><time>2016-10-15T13:41:21Z</time></trkpt>
<trkpt lat="53.1166880000" lon="-4.1316940000"><ele>155</ele><time>2016-10-15T13:41:22Z</time></trkpt>
<trkpt lat="53.1166920000" lon="-4.1316750000"><ele>155</ele><time>2016-10-15T13:41:23Z</time></trkpt>
<trkpt lat="53.1166960000" lon="-4.1316550000"><ele>155</ele><time>2016-10-15T13:41:24Z</time></trkpt>
<trkpt lat="53.1166980000" lon="-4.1316330000"><ele>155</ele><time>2016-10-15T13:41:25Z</time></trkpt>
<trkpt lat="53.1167010000" lon="-4.1316100000"><ele>154</ele><time>2016-10-15T13:41:26Z</time></trkpt>
<trkpt lat="53.1167050000" lon="-4.1315860000"><ele>154</ele><time>2016-10-15T13:41:27Z</time></trkpt>
<trkpt lat="53.1167100000" lon="-4.1315680000"><ele>154</ele><time>2016-10-15T13:41:28Z</time></trkpt>
<trkpt lat="53.1167130000" lon="-4.1315450000"><ele>154</ele><time>2016-10-15T13:41:29Z</time></trkpt>
<trkpt lat="53.1167140000" lon="-4.1315180000"><ele>154</ele><time>2016-10-15T13:41:30Z</time></trkpt>
<trkpt lat="53.1167150000" lon="-4.1314950000"><ele>154</ele><time>2016-10-15T13:41:31Z</time></trkpt>
<trkpt lat="53.1167140000" lon="-4.1314740000"><ele>154</ele><time>2016-10-15T13:41:32Z</time></trkpt>
<trkpt lat="53.1167150000" lon="-4.1314500000"><ele>154</ele><time>2016-10-15T13:41:33Z</time></trkpt>
<trkpt lat="53.1167160000" lon="-4.1314260000"><ele>154</ele><time>2016-10-15T13:41:34Z</time></trkpt>
<trkpt lat="53.1167190000" lon="-4.1314010000"><ele>154</ele><time>2016-10-15T13:41:35Z</time></trkpt>
<trkpt lat="53.1167220000" lon="-4.1313750000"><ele>154</ele><time>2016-10-15T13:41:36Z</time></trkpt>
<trkpt lat="53.1167250000" lon="-4.1313490000"><ele>154</ele><time>2016-10-15T13:41:37Z</time></trkpt>
<trkpt lat="53.1167280000" lon="-4.1313250000"><ele>154</ele><time>2016-10-15T13:41:38Z</time></trkpt>
<trkpt lat="53.1167320000" lon="-4.1313020000"><ele>154</ele><time>2016-10-15T13:41:39Z</time></trkpt>
<trkpt lat="53.1167370000" lon="-4.1312800000"><ele>154</ele><time>2016-10-15T13:41:40Z</time></trkpt>
<trkpt lat="53.1167430000" lon="-4.1312640000"><ele>153</ele><time>2016-10-15T13:41:41Z</time></trkpt>
<trkpt lat="53.1167500000" lon="-4.1312490000"><ele>153</ele><time>2016-10-15T13:41:42Z</time></trkpt>
<trkpt lat="53.1167570000" lon="-4.1312340000"><ele>153</ele><time>2016-10-15T13:41:43Z</time></trkpt>
<trkpt lat="53.1167620000" lon="-4.1312180000"><ele>153</ele><time>2016-10-15T13:41:44Z</time></trkpt>
<trkpt lat="53.1167680000" lon="-4.1312000000"><ele>153</ele><time>2016-10-15T13:41:45Z</time></trkpt>
<trkpt lat="53.1167750000" lon="-4.1311820000"><ele>153</ele><time>2016-10-15T13:41:46Z</time></trkpt>
<trkpt lat="53.1167830000" lon="-4.1311620000"><ele>153</ele><time>2016-10-15T13:41:47Z</time></trkpt>
<trkpt lat="53.1167910000" lon="-4.1311430000"><ele>153</ele><time>2016-10-15T13:41:48Z</time></trkpt>
<trkpt lat="53.1167980000" lon="-4.1311320000"><ele>153</ele><time>2016-10-15T13:41:49Z</time></trkpt>
<trkpt lat="53.1168050000" lon="-4.1311200000"><ele>152</ele><time>2016-10-15T13:41:50Z</time></trkpt>
<trkpt lat="53.1168110000" lon="-4.1311040000"><ele>152</ele><time>2016-10-15T13:41:51Z</time></trkpt>
<trkpt lat="53.1168170000" lon="-4.1310920000"><ele>152</ele><time>2016-10-15T13:41:52Z</time></trkpt>
<trkpt lat="53.1168230000" lon="-4.1310780000"><ele>152</ele><time>2016-10-15T13:41:53Z</time></trkpt>
<trkpt lat="53.1168230000" lon="-4.1310780000"><ele>152</ele><time>2016-10-15T13:41:55Z</time></trkpt>
<trkpt lat="53.1168230000" lon="-4.1310770000"><ele>152</ele><time>2016-10-15T13:41:56Z</time></trkpt>
<trkpt lat="53.1168240000" lon="-4.1310760000"><ele>152</ele><time>2016-10-15T13:41:57Z</time></trkpt>
<trkpt lat="53.1168240000" lon="-4.1310750000"><ele>152</ele><time>2016-10-15T13:41:58Z</time></trkpt>
<trkpt lat="53.1168250000" lon="-4.1310730000"><ele>152</ele><time>2016-10-15T13:41:59Z</time></trkpt>
<trkpt lat="53.1168270000" lon="-4.1310700000"><ele>151</ele><time>2016-10-15T13:42:00Z</time></trkpt>
<trkpt lat="53.1168280000" lon="-4.1310670000"><ele>151</ele><time>2016-10-15T13:42:01Z</time></trkpt>
<trkpt lat="53.1168300000" lon="-4.1310630000"><ele>151</ele><time>2016-10-15T13:42:02Z</time></trkpt>
<trkpt lat="53.1168330000" lon="-4.1310580000"><ele>151</ele><time>2016-10-15T13:42:03Z</time></trkpt>
<trkpt lat="53.1168360000" lon="-4.1310520000"><ele>151</ele><time>2016-10-15T13:42:04Z</time></trkpt>
<trkpt lat="53.1168390000" lon="-4.1310460000"><ele>151</ele><time>2016-10-15T13:42:05Z</time></trkpt>
<trkpt lat="53.1168430000" lon="-4.1310390000"><ele>151</ele><time>2016-10-15T13:42:06Z</time></trkpt>
<trkpt lat="53.1168470000" lon="-4.1310320000"><ele>150</ele><time>2016-10-15T13:42:07Z</time></trkpt>
<trkpt lat="53.1168510000" lon="-4.1310230000"><ele>150</ele><time>2016-10-15T13:42:08Z</time></trkpt>
<trkpt lat="53.1168560000" lon="-4.1310150000"><ele>150</ele><time>2016-10-15T13:42:09Z</time></trkpt>
<trkpt lat="53.1168610000" lon="-4.1310060000"><ele>150</ele><time>2016-10-15T13:42:10Z</time></trkpt>
<trkpt lat="53.1168660000" lon="-4.1309970000"><ele>150</ele><time>2016-10-15T13:42:11Z</time></trkpt>
<trkpt lat="53.1168710000" lon="-4.1309880000"><ele>149</ele><time>2016-10-15T13:42:12Z</time></trkpt>
<trkpt lat="53.1168760000" lon="-4.1309780000"><ele>149</ele><time>2016-10-15T13:42:13Z</time></trkpt>
<trkpt lat="53.1168810000" lon="-4.1309680000"><ele>149</ele><time>2016-10-15T13:42:14Z</time></trkpt>
<trkpt lat="53.1168860000" lon="-4.1309580000"><ele>148</ele><time>2016-10-15T13:42:15Z</time></trkpt>
<trkpt lat="53.1168910000" lon="-4.1309470000"><ele>148</ele><time>2016-10-15T13:42:16Z</time></trkpt>
<trkpt lat="53.1168960000" lon="-4.1309360000"><ele>148</ele><time>2016-10-15T13:42:17Z</time></trkpt>
<trkpt lat="53.1169020000" lon="-4.1309260000"><ele>147</ele><time>2016-10-15T13:42:18Z</time></trkpt>
<trkpt lat="53.1169070000" lon="-4.1309150000"><ele>147</ele><time>2016-10-15T13:42:19Z</time></trkpt>
<trkpt lat="53.1169120000" lon="-4.1309030000"><ele>147</ele><time>2016-10-15T13:42:20Z</time></trkpt>
<trkpt lat="53.1169180000" lon="-4.1308910000"><ele>147</ele><time>2016-10-15T13:42:21Z</time></trkpt>
<trkpt lat="53.1169240000" lon="-4.1308800000"><ele>146</ele><time>2016-10-15T13:42:22Z</time></trkpt>
<trkpt lat="53.1169290000" lon="-4.1308680000"><ele>146</ele><time>2016-10-15T13:42:23Z</time></trkpt>
<trkpt lat="53.1169350000" lon="-4.1308560000"><ele>146</ele><time>2016-10-15T13:42:24Z</time></trkpt>
<trkpt lat="53.1169410000" lon="-4.1308440000"><ele>145</ele><time>2016-10-15T13:42:25Z</time></trkpt>
<trkpt lat="53.1170520000" lon="-4.1306170000"><ele>145</ele><time>2016-10-15T13:42:26Z</time></trkpt>
<trkpt lat="53.1170570000" lon="-4.1306000000"><ele>145</ele><time>2016-10-15T13:42:27Z</time></trkpt>
<trkpt lat="53.1170630000" lon="-4.1305820000"><ele>144</ele><time>2016-10-15T13:42:28Z</time></trkpt>
<trkpt lat="53.1170660000" lon="-4.1305630000"><ele>144</ele><time>2016-10-15T13:42:29Z</time></trkpt>
<trkpt lat="53.1170710000" lon="-4.1305420000"><ele>144</ele><time>2016-10-15T13:42:30Z</time></trkpt>
<trkpt lat="53.1170740000" lon="-4.1305250000"><ele>143</ele><time>2016-10-15T13:42:31Z</time></trkpt>
<trkpt lat="53.1170760000" lon="-4.1305040000"><ele>143</ele><time>2016-10-15T13:42:32Z</time></trkpt>
<trkpt lat="53.1170820000" lon="-4.1304840000"><ele>143</ele><time>2016-10-15T13:42:33Z</time></trkpt>
<trkpt lat="53.1170880000" lon="-4.1304640000"><ele>142</ele><time>2016-10-15T13:42:34Z</time></trkpt>
<trkpt lat="53.1170930000" lon="-4.1304460000"><ele>142</ele><time>2016-10-15T13:42:35Z</time></trkpt>
<trkpt lat="53.1171020000" lon="-4.1304290000"><ele>142</ele><time>2016-10-15T13:42:36Z</time></trkpt>
<trkpt lat="53.1171110000" lon="-4.1304160000"><ele>142</ele><time>2016-10-15T13:42:37Z</time></trkpt>
<trkpt lat="53.1171190000" lon="-4.1304000000"><ele>141</ele><time>2016-10-15T13:42:38Z</time></trkpt>
<trkpt lat="53.1171270000" lon="-4.1303830000"><ele>141</ele><time>2016-10-15T13:42:39Z</time></trkpt>
<trkpt lat="53.1171370000" lon="-4.1303660000"><ele>141</ele><time>2016-10-15T13:42:40Z</time></trkpt>
<trkpt lat="53.1171470000" lon="-4.1303490000"><ele>141</ele><time>2016-10-15T13:42:41Z</time></trkpt>
<trkpt lat="53.1171560000" lon="-4.1303320000"><ele>141</ele><time>2016-10-15T13:42:42Z</time></trkpt>
<trkpt lat="53.1171670000" lon="-4.1303170000"><ele>141</ele><time>2016-10-15T13:42:43Z</time></trkpt>
<trkpt lat="53.1171790000" lon="-4.1303040000"><ele>141</ele><time>2016-10-15T13:42:44Z</time></trkpt>
<trkpt lat="53.1171880000" lon="-4.1302930000"><ele>140</ele><time>2016-10-15T13:42:45Z</time></trkpt>
<trkpt lat="53.1171990000" lon="-4.1302820000"><ele>140</ele><time>2016-10-15T13:42:46Z</time></trkpt>
<trkpt lat="53.1172100000" lon="-4.1302670000"><ele>140</ele><time>2016-10-15T13:42:47Z</time></trkpt>
<trkpt lat="53.1172220000" lon="-4.1302530000"><ele>140</ele><time>2016-10-15T13:42:48Z</time></trkpt>
<trkpt lat="53.1172340000" lon="-4.1302380000"><ele>140</ele><time>2016-10-15T13:42:49Z</time></trkpt>
<trkpt lat="53.1172460000" lon="-4.1302260000"><ele>140</ele><time>2016-10-15T13:42:50Z</time></trkpt>
<trkpt lat="53.1172580000" lon="-4.1302140000"><ele>140</ele><time>2016-10-15T13:42:51Z</time></trkpt>
<trkpt lat="53.1172700000" lon="-4.1302040000"><ele>140</ele><time>2016-10-15T13:42:52Z</time></trkpt>
<trkpt lat="53.1172810000" lon="-4.1301910000"><ele>139</ele><time>2016-10-15T13:42:53Z</time></trkpt>
<trkpt lat="53.1173030000" lon="-4.1301620000"><ele>139</ele><time>2016-10-15T13:42:55Z</time></trkpt>
<trkpt lat="53.1173130000" lon="-4.1301480000"><ele>139</ele><time>2016-10-15T13:42:56Z</time></trkpt>
<trkpt lat="53.1173220000" lon="-4.1301340000"><ele>139</ele><time>2016-10-15T13:42:57Z</time></trkpt>
<trkpt lat="53.1173290000" lon="-4.1301200000"><ele>139</ele><time>2016-10-15T13:42:58Z</time></trkpt>
<trkpt lat="53.1173390000" lon="-4.1301080000"><ele>139</ele><time>2016-10-15T13:42:59Z</time></trkpt>
<trkpt lat="53.1173500000" lon="-4.1300950000"><ele>139</ele><time>2016-10-15T13:43:00Z</time></trkpt>
<trkpt lat="53.1173630000" lon="-4.1300800000"><ele>138</ele><time>2016-10-15T13:43:01Z</time></trkpt>
<trkpt lat="53.1173730000" lon="-4.1300650000"><ele>138</ele><time>2016-10-15T13:43:02Z</time></trkpt>
<trkpt lat="53.1173810000" lon="-4.1300530000"><ele>138</ele><time>2016-10-15T13:43:03Z</time></trkpt>
<trkpt lat="53.1173910000" lon="-4.1300410000"><ele>138</ele><time>2016-10-15T13:43:04Z</time></trkpt>
<trkpt lat="53.1173910000" lon="-4.1300410000"><ele>138</ele><time>2016-10-15T13:43:05Z</time></trkpt>
<trkpt lat="53.1173910000" lon="-4.1300410000"><ele>137</ele><time>2016-10-15T13:43:06Z</time></trkpt>
<trkpt lat="53.1173910000" lon="-4.1300400000"><ele>137</ele><time>2016-10-15T13:43:07Z</time></trkpt>
<trkpt lat="53.1173920000" lon="-4.1300390000"><ele>137</ele><time>2016-10-15T13:43:08Z</time></trkpt>
<trkpt lat="53.1173930000" lon="-4.1300380000"><ele>137</ele><time>2016-10-15T13:43:09Z</time></trkpt>
<trkpt lat="53.1173950000" lon="-4.1300350000"><ele>137</ele><time>2016-10-15T13:43:10Z</time></trkpt>
<trkpt lat="53.1173960000" lon="-4.1300320000"><ele>137</ele><time>2016-10-15T13:43:11Z</time></trkpt>
<trkpt lat="53.1173980000" lon="-4.1300280000"><ele>137</ele><time>2016-10-15T13:43:12Z</time></trkpt>
<trkpt lat="53.1174010000" lon="-4.1300230000"><ele>137</ele><time>2016-10-15T13:43:13Z</time></trkpt>
<trkpt lat="53.1174040000" lon="-4.1300180000"><ele>136</ele><time>2016-10-15T13:43:14Z</time></trkpt>
<trkpt lat="53.1174070000" lon="-4.1300120000"><ele>136</ele><time>2016-10-15T13:43:15Z</time></trkpt>
<trkpt lat="53.1174100000" lon="-4.1300050000"><ele>136</ele><time>2016-10-15T13:43:16Z</time></trkpt>
<trkpt lat="53.1174140000" lon="-4.1299980000"><ele>136</ele><time>2016-10-15T13:43:17Z</time></trkpt>
<trkpt lat="53.1174180000" lon="-4.1299910000"><ele>136</ele><time>2016-10-15T13:43:18Z</time></trkpt>
<trkpt lat="53.1174220000" lon="-4.1299830000"><ele>135</ele><time>2016-10-15T13:43:19Z</time></trkpt>
<trkpt lat="53.1174270000" lon="-4.1299740000"><ele>135</ele><time>2016-10-15T13:43:20Z</time></trkpt>
<trkpt lat="53.1174320000" lon="-4.1299640000"><ele>135</ele><time>2016-10-15T13:43:21Z</time></trkpt>
<trkpt lat="53.1174370000" lon="-4.1299550000"><ele>134</ele><time>2016-10-15T13:43:22Z</time></trkpt>
<trkpt lat="53.1174420000" lon="-4.1299440000"><ele>134</ele><time>2016-10-15T13:43:23Z</time></trkpt>
<trkpt lat="53.1174480000" lon="-4.1299330000"><ele>134</ele><time>2016-10-15T13:43:24Z</time></trkpt>
<trkpt lat="53.1174540000" lon="-4.1299220000"><ele>134</ele><time>2016-10-15T13:43:25Z</time></trkpt>
<trkpt lat="53.1174600000" lon="-4.1299110000"><ele>133</ele><time>2016-10-15T13:43:26Z</time></trkpt>
<trkpt lat="53.1174660000" lon="-4.1298990000"><ele>133</ele><time>2016-10-15T13:43:27Z</time></trkpt>
<trkpt lat="53.1174720000" lon="-4.1298870000"><ele>133</ele><time>2016-10-15T13:43:28Z</time></trkpt>
<trkpt lat="53.1174790000" lon="-4.1298750000"><ele>133</ele><time>2016-10-15T13:43:29Z</time></trkpt>
<trkpt lat="53.1174860000" lon="-4.1298620000"><ele>133</ele><time>2016-10-15T13:43:30Z</time></trkpt>
<trkpt lat="53.1176070000" lon="-4.1296240000"><ele>132</ele><time>2016-10-15T13:43:31Z</time></trkpt>
<trkpt lat="53.1176130000" lon="-4.1296030000"><ele>132</ele><time>2016-10-15T13:43:32Z</time></trkpt>
<trkpt lat="53.1176200000" lon="-4.1295890000"><ele>132</ele><time>2016-10-15T13:43:33Z</time></trkpt>
<trkpt lat="53.1176280000" lon="-4.1295730000"><ele>132</ele><time>2016-10-15T13:43:34Z</time></trkpt>
<trkpt lat="53.1176400000" lon="-4.1295580000"><ele>132</ele><time>2016-10-15T13:43:35Z</time></trkpt>
<trkpt lat="53.1176510000" lon="-4.1295450000"><ele>132</ele><time>2016-10-15T13:43:36Z</time></trkpt>
<trkpt lat="53.1176590000" lon="-4.1295390000"><ele>132</ele><time>2016-10-15T13:43:37Z</time></trkpt>
<trkpt lat="53.1176670000" lon="-4.1295350000"><ele>132</ele><time>2016-10-15T13:43:38Z</time></trkpt>
<trkpt lat="53.1176670000" lon="-4.1295350000"><ele>132</ele><time>2016-10-15T13:43:39Z</time></trkpt>
<trkpt lat="53.1176670000" lon="-4.1295350000"><ele>132</ele><time>2016-10-15T13:43:40Z</time></trkpt>
<trkpt lat="53.1176670000" lon="-4.1295350000"><ele>132</ele><time>2016-10-15T13:43:41Z</time></trkpt>
<trkpt lat="53.1176680000" lon="-4.1295350000"><ele>133</ele><time>2016-10-15T13:43:42Z</time></trkpt>
<trkpt lat="53.1176680000" lon="-4.1295350000"><ele>133</ele><time>2016-10-15T13:43:43Z</time></trkpt>
<trkpt lat="53.1176690000" lon="-4.1295340000"><ele>133</ele><time>2016-10-15T13:43:44Z</time></trkpt>
<trkpt lat="53.1176700000" lon="-4.1295330000"><ele>134</ele><time>2016-10-15T13:43:45Z</time></trkpt>
<trkpt lat="53.1176710000" lon="-4.1295320000"><ele>134</ele><time>2016-10-15T13:43:46Z</time></trkpt>
<trkpt lat="53.1176720000" lon="-4.1295310000"><ele>134</ele><time>2016-10-15T13:43:47Z</time></trkpt>
<trkpt lat="53.1176740000" lon="-4.1295300000"><ele>135</ele><time>2016-10-15T13:43:48Z</time></trkpt>
<trkpt lat="53.1176750000" lon="-4.1295280000"><ele>135</ele><time>2016-10-15T13:43:49Z</time></trkpt>
<trkpt lat="53.1176770000" lon="-4.1295260000"><ele>135</ele><time>2016-10-15T13:43:50Z</time></trkpt>
<trkpt lat="53.1176790000" lon="-4.1295240000"><ele>135</ele><time>2016-10-15T13:43:51Z</time></trkpt>
<trkpt lat="53.1176820000" lon="-4.1295210000"><ele>135</ele><time>2016-10-15T13:43:52Z</time></trkpt>
<trkpt lat="53.1176840000" lon="-4.1295180000"><ele>135</ele><time>2016-10-15T13:43:53Z</time></trkpt>
<trkpt lat="53.1176900000" lon="-4.1295090000"><ele>136</ele><time>2016-10-15T13:43:55Z</time></trkpt>
<trkpt lat="53.1176940000" lon="-4.1295040000"><ele>136</ele><time>2016-10-15T13:43:56Z</time></trkpt>
<trkpt lat="53.1176990000" lon="-4.1294980000"><ele>136</ele><time>2016-10-15T13:43:57Z</time></trkpt>
<trkpt lat="53.1177030000" lon="-4.1294910000"><ele>136</ele><time>2016-10-15T13:43:58Z</time></trkpt>
<trkpt lat="53.1177080000" lon="-4.1294840000"><ele>136</ele><time>2016-10-15T13:43:59Z</time></trkpt>
<trkpt lat="53.1177130000" lon="-4.1294770000"><ele>136</ele><time>2016-10-15T13:44:00Z</time></trkpt>
<trkpt lat="53.1177190000" lon="-4.1294690000"><ele>135</ele><time>2016-10-15T13:44:01Z</time></trkpt>
<trkpt lat="53.1177240000" lon="-4.1294610000"><ele>135</ele><time>2016-10-15T13:44:02Z</time></trkpt>
<trkpt lat="53.1177290000" lon="-4.1294520000"><ele>135</ele><time>2016-10-15T13:44:03Z</time></trkpt>
<trkpt lat="53.1177350000" lon="-4.1294430000"><ele>135</ele><time>2016-10-15T13:44:04Z</time></trkpt>
<trkpt lat="53.1177420000" lon="-4.1294350000"><ele>135</ele><time>2016-10-15T13:44:05Z</time></trkpt>
<trkpt lat="53.1177480000" lon="-4.1294260000"><ele>135</ele><time>2016-10-15T13:44:06Z</time></trkpt>
<trkpt lat="53.1177550000" lon="-4.1294170000"><ele>135</ele><time>2016-10-15T13:44:07Z</time></trkpt>
<trkpt lat="53.1177620000" lon="-4.1294070000"><ele>135</ele><time>2016-10-15T13:44:08Z</time></trkpt>
<trkpt lat="53.1177690000" lon="-4.1293980000"><ele>134</ele><time>2016-10-15T13:44:09Z</time></trkpt>
<trkpt lat="53.1177760000" lon="-4.1293880000"><ele>134</ele><time>2016-10-15T13:44:10Z</time></trkpt>
<trkpt lat="53.1177830000" lon="-4.1293770000"><ele>134</ele><time>2016-10-15T13:44:11Z</time></trkpt>
<trkpt lat="53.1177900000" lon="-4.1293660000"><ele>134</ele><time>2016-10-15T13:44:12Z</time></trkpt>
<trkpt lat="53.1179150000" lon="-4.1291770000"><ele>134</ele><time>2016-10-15T13:44:13Z</time></trkpt>
<trkpt lat="53.1179220000" lon="-4.1291640000"><ele>134</ele><time>2016-10-15T13:44:14Z</time></trkpt>
<trkpt lat="53.1179330000" lon="-4.1291520000"><ele>133</ele><time>2016-10-15T13:44:15Z</time></trkpt>
<trkpt lat="53.1179460000" lon="-4.1291390000"><ele>133</ele><time>2016-10-15T13:44:16Z</time></trkpt>
<trkpt lat="53.1179590000" lon="-4.1291290000"><ele>133</ele><time>2016-10-15T13:44:17Z</time></trkpt>
<trkpt lat="53.1179730000" lon="-4.1291170000"><ele>133</ele><time>2016-10-15T13:44:18Z</time></trkpt>
<trkpt lat="53.1179900000" lon="-4.1291090000"><ele>133</ele><time>2016-10-15T13:44:19Z</time></trkpt>
<trkpt lat="53.1180040000" lon="-4.1291010000"><ele>133</ele><time>2016-10-15T13:44:20Z</time></trkpt>
<trkpt lat="53.1180200000" lon="-4.1290960000"><ele>133</ele><time>2016-10-15T13:44:21Z</time></trkpt>
<trkpt lat="53.1180300000" lon="-4.1290870000"><ele>132</ele><time>2016-10-15T13:44:22Z</time></trkpt>
<trkpt lat="53.1180440000" lon="-4.1290760000"><ele>132</ele><time>2016-10-15T13:44:23Z</time></trkpt>
<trkpt lat="53.1180600000" lon="-4.1290650000"><ele>132</ele><time>2016-10-15T13:44:24Z</time></trkpt>
<trkpt lat="53.1180780000" lon="-4.1290560000"><ele>132</ele><time>2016-10-15T13:44:25Z</time></trkpt>
<trkpt lat="53.1180970000" lon="-4.1290480000"><ele>132</ele><time>2016-10-15T13:44:26Z</time></trkpt>
<trkpt lat="53.1181090000" lon="-4.1290400000"><ele>132</ele><time>2016-10-15T13:44:27Z</time></trkpt>
<trkpt lat="53.1181230000" lon="-4.1290320000"><ele>132</ele><time>2016-10-15T13:44:28Z</time></trkpt>
<trkpt lat="53.1181370000" lon="-4.1290250000"><ele>132</ele><time>2016-10-15T13:44:29Z</time></trkpt>
<trkpt lat="53.1181530000" lon="-4.1290170000"><ele>132</ele><time>2016-10-15T13:44:30Z</time></trkpt>
<trkpt lat="53.1181690000" lon="-4.1290100000"><ele>132</ele><time>2016-10-15T13:44:31Z</time></trkpt>
<trkpt lat="53.1181800000" lon="-4.1289990000"><ele>132</ele><time>2016-10-15T13:44:32Z</time></trkpt>
<trkpt lat="53.1181920000" lon="-4.1289890000"><ele>132</ele><time>2016-10-15T13:44:33Z</time></trkpt>
<trkpt lat="53.1182040000" lon="-4.1289820000"><ele>132</ele><time>2016-10-15T13:44:34Z</time></trkpt>
<trkpt lat="53.1182150000" lon="-4.1289770000"><ele>132</ele><time>2016-10-15T13:44:35Z</time></trkpt>
<trkpt lat="53.1183400000" lon="-4.1288890000"><ele>132</ele><time>2016-10-15T13:44:45Z</time></trkpt>
<trkpt lat="53.1183620000" lon="-4.1288550000"><ele>132</ele><time>2016-10-15T13:44:47Z</time></trkpt>
<trkpt lat="53.1183780000" lon="-4.1288160000"><ele>131</ele><time>2016-10-15T13:44:49Z</time></trkpt>
<trkpt lat="53.1183990000" lon="-4.1287750000"><ele>131</ele><time>2016-10-15T13:44:51Z</time></trkpt>
<trkpt lat="53.1184180000" lon="-4.1287370000"><ele>131</ele><time>2016-10-15T13:44:53Z</time></trkpt>
<trkpt lat="53.1184380000" lon="-4.1286900000"><ele>131</ele><time>2016-10-15T13:44:55Z</time></trkpt>
<trkpt lat="53.1184540000" lon="-4.1286540000"><ele>131</ele><time>2016-10-15T13:44:57Z</time></trkpt>
<trkpt lat="53.1184670000" lon="-4.1286280000"><ele>131</ele><time>2016-10-15T13:45:04Z</time></trkpt>
<trkpt lat="53.1185350000" lon="-4.1284830000"><ele>132</ele><time>2016-10-15T13:45:06Z</time></trkpt>
<trkpt lat="53.1185570000" lon="-4.1284460000"><ele>132</ele><time>2016-10-15T13:45:08Z</time></trkpt>
<trkpt lat="53.1185830000" lon="-4.1283650000"><ele>133</ele><time>2016-10-15T13:45:12Z</time></trkpt>
<trkpt lat="53.1185950000" lon="-4.1283260000"><ele>133</ele><time>2016-10-15T13:45:14Z</time></trkpt>
<trkpt lat="53.1186760000" lon="-4.1281090000"><ele>132</ele><time>2016-10-15T13:45:29Z</time></trkpt>
<trkpt lat="53.1186860000" lon="-4.1280690000"><ele>131</ele><time>2016-10-15T13:45:31Z</time></trkpt>
<trkpt lat="53.1186920000" lon="-4.1280250000"><ele>131</ele><time>2016-10-15T13:45:33Z</time></trkpt>
<trkpt lat="53.1187030000" lon="-4.1279820000"><ele>130</ele><time>2016-10-15T13:45:35Z</time></trkpt>
<trkpt lat="53.1187060000" lon="-4.1279570000"><ele>130</ele><time>2016-10-15T13:45:36Z</time></trkpt>
<trkpt lat="53.1187080000" lon="-4.1279360000"><ele>129</ele><time>2016-10-15T13:45:37Z</time></trkpt>
<trkpt lat="53.1187120000" lon="-4.1279150000"><ele>129</ele><time>2016-10-15T13:45:38Z</time></trkpt>
<trkpt lat="53.1187160000" lon="-4.1278930000"><ele>129</ele><time>2016-10-15T13:45:39Z</time></trkpt>
<trkpt lat="53.1187220000" lon="-4.1278750000"><ele>128</ele><time>2016-10-15T13:45:40Z</time></trkpt>
<trkpt lat="53.1187260000" lon="-4.1278600000"><ele>128</ele><time>2016-10-15T13:45:41Z</time></trkpt>
<trkpt lat="53.1187260000" lon="-4.1278600000"><ele>128</ele><time>2016-10-15T13:45:42Z</time></trkpt>
<trkpt lat="53.1187260000" lon="-4.1278590000"><ele>128</ele><time>2016-10-15T13:45:43Z</time></trkpt>
<trkpt lat="53.1187260000" lon="-4.1278590000"><ele>127</ele><time>2016-10-15T13:45:44Z</time></trkpt>
<trkpt lat="53.1187260000" lon="-4.1278570000"><ele>127</ele><time>2016-10-15T13:45:45Z</time></trkpt>
<trkpt lat="53.1187270000" lon="-4.1278560000"><ele>127</ele><time>2016-10-15T13:45:46Z</time></trkpt>
<trkpt lat="53.1187270000" lon="-4.1278530000"><ele>127</ele><time>2016-10-15T13:45:47Z</time></trkpt>
<trkpt lat="53.1187280000" lon="-4.1278500000"><ele>126</ele><time>2016-10-15T13:45:48Z</time></trkpt>
<trkpt lat="53.1187290000" lon="-4.1278450000"><ele>126</ele><time>2016-10-15T13:45:49Z</time></trkpt>
<trkpt lat="53.1187530000" lon="-4.1276790000"><ele>126</ele><time>2016-10-15T13:45:50Z</time></trkpt>
<trkpt lat="53.1187560000" lon="-4.1276540000"><ele>126</ele><time>2016-10-15T13:45:51Z</time></trkpt>
<trkpt lat="53.1187570000" lon="-4.1276300000"><ele>126</ele><time>2016-10-15T13:45:52Z</time></trkpt>
<trkpt lat="53.1187590000" lon="-4.1276050000"><ele>125</ele><time>2016-10-15T13:45:53Z</time></trkpt>
<trkpt lat="53.1187640000" lon="-4.1275670000"><ele>125</ele><time>2016-10-15T13:45:55Z</time></trkpt>
<trkpt lat="53.1187650000" lon="-4.1275460000"><ele>125</ele><time>2016-10-15T13:45:56Z</time></trkpt>
<trkpt lat="53.1187670000" lon="-4.1275250000"><ele>125</ele><time>2016-10-15T13:45:57Z</time></trkpt>
<trkpt lat="53.1187670000" lon="-4.1275010000"><ele>125</ele><time>2016-10-15T13:45:59Z</time></trkpt>
<trkpt lat="53.1187680000" lon="-4.1274800000"><ele>125</ele></trkpt>
<trkpt lat="53.1187710000" lon="-4.1274550000"><ele>124</ele><time>2016-10-15T13:46:00Z</time></trkpt>
<trkpt lat="53.1187740000" lon="-4.1274320000"><ele>124</ele><time>2016-10-15T13:46:01Z</time></trkpt>
<trkpt lat="53.1187740000" lon="-4.1274070000"><ele>124</ele><time>2016-10-15T13:46:02Z</time></trkpt>
<trkpt lat="53.1187740000" lon="-4.1273870000"><ele>124</ele><time>2016-10-15T13:46:03Z</time></trkpt>
<trkpt lat="53.1187740000" lon="-4.1273650000"><ele>124</ele><time>2016-10-15T13:46:04Z</time></trkpt>
<trkpt lat="53.1187750000" lon="-4.1273470000"><ele>124</ele><time>2016-10-15T13:46:05Z</time></trkpt>
<trkpt lat="53.1187760000" lon="-4.1273330000"><ele>124</ele><time>2016-10-15T13:46:06Z</time></trkpt>
<trkpt lat="53.1187770000" lon="-4.1273130000"><ele>123</ele><time>2016-10-15T13:46:07Z</time></trkpt>
<trkpt lat="53.1187780000" lon="-4.1272830000"><ele>123</ele><time>2016-10-15T13:46:08Z</time></trkpt>
<trkpt lat="53.1187790000" lon="-4.1272540000"><ele>123</ele><time>2016-10-15T13:46:09Z</time></trkpt>
<trkpt lat="53.1187800000" lon="-4.1272300000"><ele>123</ele><time>2016-10-15T13:46:10Z</time></trkpt>
<trkpt lat="53.1187820000" lon="-4.1272070000"><ele>123</ele><time>2016-10-15T13:46:11Z</time></trkpt>
<trkpt lat="53.1187820000" lon="-4.1271880000"><ele>123</ele><time>2016-10-15T13:46:12Z</time></trkpt>
<trkpt lat="53.1187840000" lon="-4.1271670000"><ele>123</ele><time>2016-10-15T13:46:13Z</time></trkpt>
<trkpt lat="53.1187840000" lon="-4.1271470000"><ele>122</ele><time>2016-10-15T13:46:14Z</time></trkpt>
<trkpt lat="53.1187830000" lon="-4.1271250000"><ele>122</ele><time>2016-10-15T13:46:15Z</time></trkpt>
<trkpt lat="53.1187840000" lon="-4.1271040000"><ele>122</ele><time>2016-10-15T13:46:16Z</time></trkpt>
<trkpt lat="53.1187840000" lon="-4.1270820000"><ele>122</ele><time>2016-10-15T13:46:17Z</time></trkpt>
<trkpt lat="53.1187820000" lon="-4.1270630000"><ele>122</ele><time>2016-10-15T13:46:18Z</time></trkpt>
<trkpt lat="53.1187800000" lon="-4.1270420000"><ele>122</ele><time>2016-10-15T13:46:19Z</time></trkpt>
<trkpt lat="53.1187780000" lon="-4.1270190000"><ele>121</ele><time>2016-10-15T13:46:20Z</time></trkpt>
<trkpt lat="53.1187760000" lon="-4.1269960000"><ele>121</ele><time>2016-10-15T13:46:21Z</time></trkpt>
<trkpt lat="53.1187760000" lon="-4.1269730000"><ele>121</ele><time>2016-10-15T13:46:22Z</time></trkpt>
<trkpt lat="53.1187780000" lon="-4.1269520000"><ele>121</ele><time>2016-10-15T13:46:23Z</time></trkpt>
<trkpt lat="53.1187810000" lon="-4.1269290000"><ele>121</ele><time>2016-10-15T13:46:24Z</time></trkpt>
<trkpt lat="53.1187860000" lon="-4.1269050000"><ele>120</ele><time>2016-10-15T13:46:25Z</time></trkpt>
<trkpt lat="53.1187930000" lon="-4.1268830000"><ele>120</ele><time>2016-10-15T13:46:26Z</time></trkpt>
<trkpt lat="53.1188010000" lon="-4.1268600000"><ele>120</ele><time>2016-10-15T13:46:27Z</time></trkpt>
<trkpt lat="53.1188070000" lon="-4.1268380000"><ele>120</ele><time>2016-10-15T13:46:28Z</time></trkpt>
<trkpt lat="53.1188130000" lon="-4.1268150000"><ele>120</ele><time>2016-10-15T13:46:29Z</time></trkpt>
<trkpt lat="53.1188190000" lon="-4.1267970000"><ele>120</ele><time>2016-10-15T13:46:30Z</time></trkpt>
<trkpt lat="53.1188250000" lon="-4.1267770000"><ele>120</ele><time>2016-10-15T13:46:31Z</time></trkpt>
<trkpt lat="53.1188300000" lon="-4.1267540000"><ele>120</ele><time>2016-10-15T13:46:32Z</time></trkpt>
<trkpt lat="53.1188370000" lon="-4.1267320000"><ele>120</ele><time>2016-10-15T13:46:33Z</time></trkpt>
<trkpt lat="53.1188440000" lon="-4.1267130000"><ele>120</ele><time>2016-10-15T13:46:34Z</time></trkpt>
<trkpt lat="53.1188520000" lon="-4.1266930000"><ele>120</ele><time>2016-10-15T13:46:35Z</time></trkpt>
<trkpt lat="53.1188590000" lon="-4.1266750000"><ele>120</ele><time>2016-10-15T13:46:36Z</time></trkpt>
<trkpt lat="53.1188670000" lon="-4.1266580000"><ele>120</ele><time>2016-10-15T13:46:37Z</time></trkpt>
<trkpt lat="53.1188740000" lon="-4.1266400000"><ele>120</ele><time>2016-10-15T13:46:38Z</time></trkpt>
<trkpt lat="53.1188800000" lon="-4.1266250000"><ele>120</ele><time>2016-10-15T13:46:39Z</time></trkpt>
<trkpt lat="53.1188870000" lon="-4.1266100000"><ele>120</ele><time>2016-10-15T13:46:40Z</time></trkpt>
<trkpt lat="53.1188930000" lon="-4.1265900000"><ele>120</ele><time>2016-10-15T13:46:41Z</time></trkpt>
<trkpt lat="53.1189000000" lon="-4.1265680000"><ele>120</ele><time>2016-10-15T13:46:42Z</time></trkpt>
<trkpt lat="53.1189060000" lon="-4.1265460000"><ele>120</ele><time>2016-10-15T13:46:43Z</time></trkpt>
<trkpt lat="53.1189130000" lon="-4.1265280000"><ele>119</ele><time>2016-10-15T13:46:44Z</time></trkpt>
<trkpt lat="53.1189210000" lon="-4.1265080000"><ele>119</ele><time>2016-10-15T13:46:45Z</time></trkpt>
<trkpt lat="53.1189290000" lon="-4.1264890000"><ele>119</ele><time>2016-10-15T13:46:46Z</time></trkpt>
<trkpt lat="53.1189390000" lon="-4.1264690000"><ele>119</ele><time>2016-10-15T13:46:47Z</time></trkpt>
<trkpt lat="53.1189470000" lon="-4.1264480000"><ele>119</ele><time>2016-10-15T13:46:48Z</time></trkpt>
<trkpt lat="53.1189560000" lon="-4.1264290000"><ele>119</ele><time>2016-10-15T13:46:49Z</time></trkpt>
<trkpt lat="53.1189640000" lon="-4.1264100000"><ele>119</ele><time>2016-10-15T13:46:50Z</time></trkpt>
<trkpt lat="53.1189730000" lon="-4.1263910000"><ele>119</ele><time>2016-10-15T13:46:51Z</time></trkpt>
<trkpt lat="53.1189810000" lon="-4.1263720000"><ele>119</ele><time>2016-10-15T13:46:52Z</time></trkpt>
<trkpt lat="53.1189900000" lon="-4.1263550000"><ele>119</ele><time>2016-10-15T13:46:53Z</time></trkpt>
<trkpt lat="53.1190080000" lon="-4.1263210000"><ele>119</ele><time>2016-10-15T13:46:55Z</time></trkpt>
<trkpt lat="53.1190170000" lon="-4.1263030000"><ele>118</ele><time>2016-10-15T13:46:56Z</time></trkpt>
<trkpt lat="53.1190250000" lon="-4.1262840000"><ele>118</ele><time>2016-10-15T13:46:57Z</time></trkpt>
<trkpt lat="53.1190340000" lon="-4.1262680000"><ele>118</ele><time>2016-10-15T13:46:58Z</time></trkpt>
<trkpt lat="53.1190430000" lon="-4.1262520000"><ele>118</ele><time>2016-10-15T13:46:59Z</time></trkpt>
<trkpt lat="53.1190520000" lon="-4.1262350000"><ele>118</ele><time>2016-10-15T13:47:00Z</time></trkpt>
<trkpt lat="53.1190610000" lon="-4.1262170000"><ele>118</ele><time>2016-10-15T13:47:01Z</time></trkpt>
<trkpt lat="53.1190700000" lon="-4.1261990000"><ele>118</ele><time>2016-10-15T13:47:02Z</time></trkpt>
<trkpt lat="53.1190790000" lon="-4.1261820000"><ele>118</ele><time>2016-10-15T13:47:03Z</time></trkpt>
<trkpt lat="53.1190880000" lon="-4.1261650000"><ele>118</ele><time>2016-10-15T13:47:04Z</time></trkpt>
<trkpt lat="53.1190980000" lon="-4.1261480000"><ele>117</ele><time>2016-10-15T13:47:05Z</time></trkpt>
<trkpt lat="53.1191090000" lon="-4.1261340000"><ele>117</ele><time>2016-10-15T13:47:06Z</time></trkpt>
<trkpt lat="53.1191170000" lon="-4.1261190000"><ele>117</ele><time>2016-10-15T13:47:07Z</time></trkpt>
<trkpt lat="53.1191220000" lon="-4.1261020000"><ele>117</ele><time>2016-10-15T13:47:08Z</time></trkpt>
<trkpt lat="53.1191230000" lon="-4.1260850000"><ele>117</ele><time>2016-10-15T13:47:09Z</time></trkpt>
<trkpt lat="53.1191230000" lon="-4.1260850000"><ele>117</ele><time>2016-10-15T13:47:10Z</time></trkpt>
<trkpt lat="53.1191230000" lon="-4.1260850000"><ele>117</ele><time>2016-10-15T13:47:11Z</time></trkpt>
<trkpt lat="53.1191230000" lon="-4.1260840000"><ele>117</ele><time>2016-10-15T13:47:12Z</time></trkpt>
<trkpt lat="53.1191220000" lon="-4.1260830000"><ele>117</ele><time>2016-10-15T13:47:13Z</time></trkpt>
<trkpt lat="53.1191220000" lon="-4.1260810000"><ele>117</ele><time>2016-10-15T13:47:14Z</time></trkpt>
<trkpt lat="53.1191210000" lon="-4.1260790000"><ele>117</ele><time>2016-10-15T13:47:15Z</time></trkpt>
<trkpt lat="53.1191200000" lon="-4.1260770000"><ele>117</ele><time>2016-10-15T13:47:16Z</time></trkpt>
<trkpt lat="53.1191190000" lon="-4.1260730000"><ele>117</ele><time>2016-10-15T13:47:17Z</time></trkpt>
<trkpt lat="53.1191170000" lon="-4.1260690000"><ele>117</ele><time>2016-10-15T13:47:18Z</time></trkpt>
<trkpt lat="53.1191150000" lon="-4.1260640000"><ele>117</ele><time>2016-10-15T13:47:19Z</time></trkpt>
<trkpt lat="53.1191130000" lon="-4.1260590000"><ele>117</ele><time>2016-10-15T13:47:20Z</time></trkpt>
<trkpt lat="53.1191100000" lon="-4.1260530000"><ele>117</ele><time>2016-10-15T13:47:21Z</time></trkpt>
<trkpt lat="53.1191070000" lon="-4.1260470000"><ele>117</ele><time>2016-10-15T13:47:22Z</time></trkpt>
<trkpt lat="53.1191030000" lon="-4.1260390000"><ele>117</ele><time>2016-10-15T13:47:23Z</time></trkpt>
<trkpt lat="53.1189900000" lon="-4.1258230000"><ele>117</ele><time>2016-10-15T13:47:24Z</time></trkpt>
<trkpt lat="53.1189780000" lon="-4.1258080000"><ele>117</ele><time>2016-10-15T13:47:25Z</time></trkpt>
<trkpt lat="53.1189690000" lon="-4.1257940000"><ele>117</ele><time>2016-10-15T13:47:26Z</time></trkpt>
<trkpt lat="53.1189590000" lon="-4.1257750000"><ele>117</ele><time>2016-10-15T13:47:27Z</time></trkpt>
<trkpt lat="53.1189510000" lon="-4.1257520000"><ele>117</ele><time>2016-10-15T13:47:28Z</time></trkpt>
<trkpt lat="53.1189440000" lon="-4.1257280000"><ele>117</ele><time>2016-10-15T13:47:29Z</time></trkpt>
<trkpt lat="53.1189360000" lon="-4.1257050000"><ele>117</ele><time>2016-10-15T13:47:30Z</time></trkpt>
<trkpt lat="53.1189270000" lon="-4.1256810000"><ele>117</ele><time>2016-10-15T13:47:31Z</time></trkpt>
<trkpt lat="53.1189200000" lon="-4.1256580000"><ele>117</ele><time>2016-10-15T13:47:32Z</time></trkpt>
<trkpt lat="53.1189170000" lon="-4.1256330000"><ele>118</ele><time>2016-10-15T13:47:33Z</time></trkpt>
<trkpt lat="53.1189150000" lon="-4.1256120000"><ele>118</ele><time>2016-10-15T13:47:34Z</time></trkpt>
<trkpt lat="53.1189130000" lon="-4.1255910000"><ele>118</ele><time>2016-10-15T13:47:35Z</time></trkpt>
<trkpt lat="53.1189130000" lon="-4.1255700000"><ele>118</ele><time>2016-10-15T13:47:36Z</time></trkpt>
<trkpt lat="53.1189130000" lon="-4.1255510000"><ele>118</ele><time>2016-10-15T13:47:37Z</time></trkpt>
<trkpt lat="53.1189110000" lon="-4.1255340000"><ele>118</ele><time>2016-10-15T13:47:38Z</time></trkpt>
<trkpt lat="53.1189110000" lon="-4.1255150000"><ele>118</ele><time>2016-10-15T13:47:39Z</time></trkpt>
<trkpt lat="53.1189120000" lon="-4.1254920000"><ele>118</ele><time>2016-10-15T13:47:40Z</time></trkpt>
<trkpt lat="53.1189130000" lon="-4.1254700000"><ele>118</ele><time>2016-10-15T13:47:41Z</time></trkpt>
<trkpt lat="53.1189140000" lon="-4.1254500000"><ele>118</ele><time>2016-10-15T13:47:42Z</time></trkpt>
<trkpt lat="53.1189130000" lon="-4.1254330000"><ele>118</ele><time>2016-10-15T13:47:43Z</time></trkpt>
<trkpt lat="53.1189100000" lon="-4.1254110000"><ele>118</ele><time>2016-10-15T13:47:44Z</time></trkpt>
<trkpt lat="53.1189060000" lon="-4.1253890000"><ele>118</ele><time>2016-10-15T13:47:45Z</time></trkpt>
<trkpt lat="53.1189010000" lon="-4.1253670000"><ele>118</ele><time>2016-10-15T13:47:46Z</time></trkpt>
<trkpt lat="53.1188960000" lon="-4.1253440000"><ele>118</ele><time>2016-10-15T13:47:47Z</time></trkpt>
<trkpt lat="53.1188880000" lon="-4.1253200000"><ele>118</ele><time>2016-10-15T13:47:48Z</time></trkpt>
<trkpt lat="53.1188820000" lon="-4.1253020000"><ele>118</ele><time>2016-10-15T13:47:49Z</time></trkpt>
<trkpt lat="53.1188760000" lon="-4.1252840000"><ele>118</ele><time>2016-10-15T13:47:50Z</time></trkpt>
<trkpt lat="53.1188710000" lon="-4.1252650000"><ele>118</ele><time>2016-10-15T13:47:51Z</time></trkpt>
<trkpt lat="53.1188660000" lon="-4.1252500000"><ele>117</ele><time>2016-10-15T13:47:52Z</time></trkpt>
<trkpt lat="53.1188600000" lon="-4.1252380000"><ele>117</ele><time>2016-10-15T13:47:53Z</time></trkpt>
<trkpt lat="53.1188600000" lon="-4.1252380000"><ele>117</ele><time>2016-10-15T13:47:55Z</time></trkpt>
<trkpt lat="53.1188600000" lon="-4.1252370000"><ele>117</ele><time>2016-10-15T13:47:56Z</time></trkpt>
<trkpt lat="53.1188350000" lon="-4.1251690000"><ele>117</ele><time>2016-10-15T13:47:57Z</time></trkpt>
<trkpt lat="53.1188300000" lon="-4.1251550000"><ele>117</ele><time>2016-10-15T13:47:58Z</time></trkpt>
<trkpt lat="53.1188250000" lon="-4.1251390000"><ele>117</ele><time>2016-10-15T13:47:59Z</time></trkpt>
<trkpt lat="53.1188210000" lon="-4.1251210000"><ele>117</ele><time>2016-10-15T13:48:00Z</time></trkpt>
<trkpt lat="53.1188160000" lon="-4.1251020000"><ele>117</ele><time>2016-10-15T13:48:01Z</time></trkpt>
<trkpt lat="53.1188110000" lon="-4.1250840000"><ele>117</ele><time>2016-10-15T13:48:02Z</time></trkpt>
<trkpt lat="53.1188040000" lon="-4.1250640000"><ele>117</ele><time>2016-10-15T13:48:03Z</time></trkpt>
<trkpt lat="53.1187960000" lon="-4.1250450000"><ele>117</ele><time>2016-10-15T13:48:04Z</time></trkpt>
<trkpt lat="53.1187890000" lon="-4.1250270000"><ele>117</ele><time>2016-10-15T13:48:05Z</time></trkpt>
<trkpt lat="53.1187810000" lon="-4.1250100000"><ele>117</ele><time>2016-10-15T13:48:06Z</time></trkpt>
<trkpt lat="53.1187750000" lon="-4.1249930000"><ele>117</ele><time>2016-10-15T13:48:07Z</time></trkpt>
<trkpt lat="53.1187680000" lon="-4.1249710000"><ele>117</ele><time>2016-10-15T13:48:08Z</time></trkpt>
<trkpt lat="53.1187610000" lon="-4.1249530000"><ele>117</ele><time>2016-10-15T13:48:09Z</time></trkpt>
<trkpt lat="53.1187550000" lon="-4.1249310000"><ele>117</ele><time>2016-10-15T13:48:10Z</time></trkpt>
<trkpt lat="53.1187490000" lon="-4.1249130000"><ele>117</ele><time>2016-10-15T13:48:11Z</time></trkpt>
<trkpt lat="53.1187420000" lon="-4.1248920000"><ele>117</ele><time>2016-10-15T13:48:12Z</time></trkpt>
<trkpt lat="53.1187360000" lon="-4.1248730000"><ele>117</ele><time>2016-10-15T13:48:13Z</time></trkpt>
<trkpt lat="53.1187290000" lon="-4.1248540000"><ele>118</ele><time>2016-10-15T13:48:14Z</time></trkpt>
<trkpt lat="53.1187220000" lon="-4.1248320000"><ele>118</ele><time>2016-10-15T13:48:15Z</time></trkpt>
<trkpt lat="53.1187150000" lon="-4.1248120000"><ele>118</ele><time>2016-10-15T13:48:16Z</time></trkpt>
<trkpt lat="53.1187080000" lon="-4.1247920000"><ele>118</ele><time>2016-10-15T13:48:17Z</time></trkpt>
<trkpt lat="53.1187010000" lon="-4.1247670000"><ele>118</ele><time>2016-10-15T13:48:18Z</time></trkpt>
<trkpt lat="53.1186970000" lon="-4.1247450000"><ele>118</ele><time>2016-10-15T13:48:19Z</time></trkpt>
<trkpt lat="53.1186930000" lon="-4.1247220000"><ele>118</ele><time>2016-10-15T13:48:20Z</time></trkpt>
<trkpt lat="53.1186890000" lon="-4.1246960000"><ele>118</ele><time>2016-10-15T13:48:21Z</time></trkpt>
<trkpt lat="53.1186880000" lon="-4.1246720000"><ele>118</ele><time>2016-10-15T13:48:22Z</time></trkpt>
<trkpt lat="53.1186880000" lon="-4.1246520000"><ele>118</ele><time>2016-10-15T13:48:23Z</time></trkpt>
<trkpt lat="53.1186870000" lon="-4.1246340000"><ele>118</ele><time>2016-10-15T13:48:24Z</time></trkpt>
<trkpt lat="53.1186840000" lon="-4.1246100000"><ele>117</ele><time>2016-10-15T13:48:25Z</time></trkpt>
<trkpt lat="53.1186780000" lon="-4.1245850000"><ele>117</ele><time>2016-10-15T13:48:26Z</time></trkpt>
<trkpt lat="53.1186720000" lon="-4.1245620000"><ele>117</ele><time>2016-10-15T13:48:27Z</time></trkpt>
<trkpt lat="53.1186660000" lon="-4.1245420000"><ele>117</ele><time>2016-10-15T13:48:28Z</time></trkpt>
<trkpt lat="53.1186610000" lon="-4.1245230000"><ele>117</ele><time>2016-10-15T13:48:29Z</time></trkpt>
<trkpt lat="53.1186560000" lon="-4.1245050000"><ele>117</ele><time>2016-10-15T13:48:30Z</time></trkpt>
<trkpt lat="53.1186520000" lon="-4.1244880000"><ele>117</ele><time>2016-10-15T13:48:31Z</time></trkpt>
<trkpt lat="53.1186470000" lon="-4.1244690000"><ele>117</ele><time>2016-10-15T13:48:32Z</time></trkpt>
<trkpt lat="53.1186420000" lon="-4.1244480000"><ele>117</ele><time>2016-10-15T13:48:33Z</time></trkpt>
<trkpt lat="53.1186380000" lon="-4.1244270000"><ele>117</ele><time>2016-10-15T13:48:34Z</time></trkpt>
<trkpt lat="53.1186360000" lon="-4.1244090000"><ele>117</ele><time>2016-10-15T13:48:35Z</time></trkpt>
<trkpt lat="53.1186310000" lon="-4.1243920000"><ele>117</ele><time>2016-10-15T13:48:36Z</time></trkpt>
<trkpt lat="53.1186270000" lon="-4.1243750000"><ele>117</ele><time>2016-10-15T13:48:37Z</time></trkpt>
<trkpt lat="53.1186240000" lon="-4.1243590000"><ele>117</ele><time>2016-10-15T13:48:38Z</time></trkpt>
<trkpt lat="53.1186220000" lon="-4.1243390000"><ele>117</ele><time>2016-10-15T13:48:39Z</time></trkpt>
<trkpt lat="53.1186190000" lon="-4.1243210000"><ele>117</ele><time>2016-10-15T13:48:40Z</time></trkpt>
<trkpt lat="53.1186140000" lon="-4.1243030000"><ele>117</ele><time>2016-10-15T13:48:41Z</time></trkpt>
<trkpt lat="53.1186140000" lon="-4.1243030000"><ele>117</ele><time>2016-10-15T13:48:42Z</time></trkpt>
<trkpt lat="53.1186140000" lon="-4.1243030000"><ele>117</ele><time>2016-10-15T13:48:43Z</time></trkpt>
<trkpt lat="53.1186140000" lon="-4.1243020000"><ele>117</ele><time>2016-10-15T13:48:44Z</time></trkpt>
<trkpt lat="53.1186140000" lon="-4.1243000000"><ele>117</ele><time>2016-10-15T13:48:45Z</time></trkpt>
<trkpt lat="53.1186140000" lon="-4.1242980000"><ele>117</ele><time>2016-10-15T13:48:46Z</time></trkpt>
<trkpt lat="53.1186130000" lon="-4.1242950000"><ele>117</ele><time>2016-10-15T13:48:47Z</time></trkpt>
<trkpt lat="53.1186130000" lon="-4.1242900000"><ele>117</ele><time>2016-10-15T13:48:48Z</time></trkpt>
<trkpt lat="53.1186120000" lon="-4.1242850000"><ele>117</ele><time>2016-10-15T13:48:49Z</time></trkpt>
<trkpt lat="53.1186100000" lon="-4.1242790000"><ele>118</ele><time>2016-10-15T13:48:50Z</time></trkpt>
<trkpt lat="53.1185580000" lon="-4.1240930000"><ele>118</ele><time>2016-10-15T13:48:51Z</time></trkpt>
<trkpt lat="53.1185480000" lon="-4.1240720000"><ele>118</ele><time>2016-10-15T13:48:52Z</time></trkpt>
<trkpt lat="53.1185380000" lon="-4.1240530000"><ele>118</ele><time>2016-10-15T13:48:53Z</time></trkpt>
<trkpt lat="53.1185210000" lon="-4.1240140000"><ele>119</ele><time>2016-10-15T13:48:55Z</time></trkpt>
<trkpt lat="53.1185110000" lon="-4.1239970000"><ele>120</ele><time>2016-10-15T13:48:56Z</time></trkpt>
<trkpt lat="53.1185040000" lon="-4.1239800000"><ele>120</ele><time>2016-10-15T13:48:57Z</time></trkpt>
<trkpt lat="53.1184950000" lon="-4.1239590000"><ele>120</ele><time>2016-10-15T13:48:58Z</time></trkpt>
<trkpt lat="53.1184870000" lon="-4.1239410000"><ele>121</ele><time>2016-10-15T13:48:59Z</time></trkpt>
<trkpt lat="53.1184750000" lon="-4.1239280000"><ele>121</ele><time>2016-10-15T13:49:00Z</time></trkpt>
<trkpt lat="53.1184640000" lon="-4.1239170000"><ele>122</ele><time>2016-10-15T13:49:01Z</time></trkpt>
<trkpt lat="53.1184570000" lon="-4.1239020000"><ele>122</ele><time>2016-10-15T13:49:02Z</time></trkpt>
<trkpt lat="53.1184530000" lon="-4.1238830000"><ele>122</ele><time>2016-10-15T13:49:03Z</time></trkpt>
<trkpt lat="53.1184480000" lon="-4.1238680000"><ele>123</ele><time>2016-10-15T13:49:04Z</time></trkpt>
<trkpt lat="53.1184480000" lon="-4.1238680000"><ele>123</ele><time>2016-10-15T13:49:05Z</time></trkpt>
<trkpt lat="53.1184480000" lon="-4.1238670000"><ele>123</ele><time>2016-10-15T13:49:06Z</time></trkpt>
<trkpt lat="53.1184480000" lon="-4.1238670000"><ele>124</ele><time>2016-10-15T13:49:07Z</time></trkpt>
<trkpt lat="53.1184300000" lon="-4.1237890000"><ele>124</ele><time>2016-10-15T13:49:08Z</time></trkpt>
<trkpt lat="53.1184240000" lon="-4.1237630000"><ele>124</ele><time>2016-10-15T13:49:09Z</time></trkpt>
<trkpt lat="53.1184160000" lon="-4.1237390000"><ele>125</ele><time>2016-10-15T13:49:12Z</time></trkpt>
<trkpt lat="53.1184170000" lon="-4.1237380000"><ele>125</ele><time>2016-10-15T13:49:13Z</time></trkpt>
<trkpt lat="53.1184170000" lon="-4.1237370000"><ele>125</ele><time>2016-10-15T13:49:14Z</time></trkpt>
<trkpt lat="53.1184170000" lon="-4.1237350000"><ele>126</ele><time>2016-10-15T13:49:15Z</time></trkpt>
<trkpt lat="53.1184180000" lon="-4.1237320000"><ele>126</ele><time>2016-10-15T13:49:16Z</time></trkpt>
<trkpt lat="53.1184180000" lon="-4.1237290000"><ele>126</ele><time>2016-10-15T13:49:17Z</time></trkpt>
<trkpt lat="53.1184190000" lon="-4.1237250000"><ele>126</ele><time>2016-10-15T13:49:18Z</time></trkpt>
<trkpt lat="53.1184190000" lon="-4.1237210000"><ele>126</ele><time>2016-10-15T13:49:19Z</time></trkpt>
<trkpt lat="53.1184190000" lon="-4.1237150000"><ele>126</ele><time>2016-10-15T13:49:20Z</time></trkpt>
<trkpt lat="53.1184190000" lon="-4.1237090000"><ele>126</ele><time>2016-10-15T13:49:21Z</time></trkpt>
<trkpt lat="53.1184190000" lon="-4.1237020000"><ele>126</ele><time>2016-10-15T13:49:22Z</time></trkpt>
<trkpt lat="53.1184190000" lon="-4.1236930000"><ele>126</ele><time>2016-10-15T13:49:23Z</time></trkpt>
<trkpt lat="53.1184180000" lon="-4.1236830000"><ele>126</ele><time>2016-10-15T13:49:24Z</time></trkpt>
<trkpt lat="53.1184170000" lon="-4.1236720000"><ele>126</ele><time>2016-10-15T13:49:26Z</time></trkpt>
<trkpt lat="53.1184160000" lon="-4.1236630000"><ele>126</ele></trkpt>
<trkpt lat="53.1184150000" lon="-4.1236530000"><ele>126</ele><time>2016-10-15T13:49:27Z</time></trkpt>
<trkpt lat="53.1184140000" lon="-4.1236430000"><ele>126</ele><time>2016-10-15T13:49:28Z</time></trkpt>
<trkpt lat="53.1184120000" lon="-4.1236310000"><ele>126</ele><time>2016-10-15T13:49:29Z</time></trkpt>
<trkpt lat="53.1184100000" lon="-4.1236190000"><ele>126</ele><time>2016-10-15T13:49:30Z</time></trkpt>
<trkpt lat="53.1184080000" lon="-4.1236080000"><ele>125</ele><time>2016-10-15T13:49:31Z</time></trkpt>
<trkpt lat="53.1184050000" lon="-4.1235980000"><ele>125</ele><time>2016-10-15T13:49:32Z</time></trkpt>
<trkpt lat="53.1184030000" lon="-4.1235880000"><ele>125</ele><time>2016-10-15T13:49:33Z</time></trkpt>
<trkpt lat="53.1184000000" lon="-4.1235770000"><ele>125</ele><time>2016-10-15T13:49:34Z</time></trkpt>
<trkpt lat="53.1183970000" lon="-4.1235650000"><ele>124</ele><time>2016-10-15T13:49:35Z</time></trkpt>
<trkpt lat="53.1183940000" lon="-4.1235530000"><ele>124</ele><time>2016-10-15T13:49:36Z</time></trkpt>
<trkpt lat="53.1183910000" lon="-4.1235390000"><ele>124</ele><time>2016-10-15T13:49:37Z</time></trkpt>
<trkpt lat="53.1183880000" lon="-4.1235220000"><ele>124</ele><time>2016-10-15T13:49:38Z</time></trkpt>
<trkpt lat="53.1183190000" lon="-4.1232270000"><ele>123</ele><time>2016-10-15T13:49:39Z</time></trkpt>
<trkpt lat="53.1183120000" lon="-4.1232050000"><ele>123</ele><time>2016-10-15T13:49:40Z</time></trkpt>
<trkpt lat="53.1183070000" lon="-4.1231780000"><ele>123</ele><time>2016-10-15T13:49:41Z</time></trkpt>
<trkpt lat="53.1183030000" lon="-4.1231520000"><ele>122</ele><time>2016-10-15T13:49:42Z</time></trkpt>
<trkpt lat="53.1182990000" lon="-4.1231230000"><ele>122</ele><time>2016-10-15T13:49:43Z</time></trkpt>
<trkpt lat="53.1182930000" lon="-4.1230960000"><ele>122</ele><time>2016-10-15T13:49:44Z</time></trkpt>
<trkpt lat="53.1182880000" lon="-4.1230690000"><ele>122</ele><time>2016-10-15T13:49:45Z</time></trkpt>
<trkpt lat="53.1182810000" lon="-4.1230390000"><ele>122</ele><time>2016-10-15T13:49:46Z</time></trkpt>
<trkpt lat="53.1182760000" lon="-4.1230160000"><ele>121</ele><time>2016-10-15T13:49:47Z</time></trkpt>
<trkpt lat="53.1182700000" lon="-4.1229920000"><ele>121</ele><time>2016-10-15T13:49:48Z</time></trkpt>
<trkpt lat="53.1182640000" lon="-4.1229690000"><ele>121</ele><time>2016-10-15T13:49:49Z</time></trkpt>
<trkpt lat="53.1182570000" lon="-4.1229480000"><ele>121</ele><time>2016-10-15T13:49:50Z</time></trkpt>
<trkpt lat="53.1182510000" lon="-4.1229310000"><ele>121</ele><time>2016-10-15T13:49:51Z</time></trkpt>
<trkpt lat="53.1182470000" lon="-4.1229120000"><ele>121</ele><time>2016-10-15T13:49:52Z</time></trkpt>
<trkpt lat="53.1182410000" lon="-4.1228870000"><ele>120</ele><time>2016-10-15T13:49:53Z</time></trkpt>
<trkpt lat="53.1182320000" lon="-4.1228510000"><ele>120</ele><time>2016-10-15T13:49:55Z</time></trkpt>
<trkpt lat="53.1182280000" lon="-4.1228340000"><ele>120</ele><time>2016-10-15T13:49:56Z</time></trkpt>
<trkpt lat="53.1182220000" lon="-4.1228150000"><ele>120</ele><time>2016-10-15T13:49:57Z</time></trkpt>
<trkpt lat="53.1182150000" lon="-4.1227970000"><ele>120</ele><time>2016-10-15T13:49:58Z</time></trkpt>
<trkpt lat="53.1182090000" lon="-4.1227750000"><ele>119</ele><time>2016-10-15T13:49:59Z</time></trkpt>
<trkpt lat="53.1182030000" lon="-4.1227560000"><ele>119</ele><time>2016-10-15T13:50:00Z</time></trkpt>
<trkpt lat="53.1181980000" lon="-4.1227360000"><ele>119</ele><time>2016-10-15T13:50:01Z</time></trkpt>
<trkpt lat="53.1181950000" lon="-4.1227160000"><ele>119</ele><time>2016-10-15T13:50:02Z</time></trkpt>
<trkpt lat="53.1181900000" lon="-4.1226980000"><ele>119</ele><time>2016-10-15T13:50:03Z</time></trkpt>
<trkpt lat="53.1181830000" lon="-4.1226740000"><ele>119</ele><time>2016-10-15T13:50:04Z</time></trkpt>
<trkpt lat="53.1181770000" lon="-4.1226500000"><ele>119</ele><time>2016-10-15T13:50:05Z</time></trkpt>
<trkpt lat="53.1181740000" lon="-4.1226270000"><ele>119</ele><time>2016-10-15T13:50:06Z</time></trkpt>
<trkpt lat="53.1181700000" lon="-4.1226030000"><ele>119</ele><time>2016-10-15T13:50:07Z</time></trkpt>
<trkpt lat="53.1181670000" lon="-4.1225830000"><ele>119</ele><time>2016-10-15T13:50:08Z</time></trkpt>
<trkpt lat="53.1181610000" lon="-4.1225630000"><ele>119</ele><time>2016-10-15T13:50:09Z</time></trkpt>
<trkpt lat="53.1181550000" lon="-4.1225410000"><ele>118</ele><time>2016-10-15T13:50:10Z</time></trkpt>
<trkpt lat="53.1181510000" lon="-4.1225210000"><ele>118</ele><time>2016-10-15T13:50:11Z</time></trkpt>
<trkpt lat="53.1181450000" lon="-4.1224990000"><ele>118</ele><time>2016-10-15T13:50:12Z</time></trkpt>
<trkpt lat="53.1181410000" lon="-4.1224780000"><ele>118</ele><time>2016-10-15T13:50:13Z</time></trkpt>
<trkpt lat="53.1181360000" lon="-4.1224580000"><ele>118</ele><time>2016-10-15T13:50:14Z</time></trkpt>
<trkpt lat="53.1181300000" lon="-4.1224390000"><ele>118</ele><time>2016-10-15T13:50:15Z</time></trkpt>
<trkpt lat="53.1181240000" lon="-4.1224150000"><ele>118</ele><time>2016-10-15T13:50:16Z</time></trkpt>
<trkpt lat="53.1181170000" lon="-4.1223930000"><ele>117</ele><time>2016-10-15T13:50:17Z</time></trkpt>
<trkpt lat="53.1181110000" lon="-4.1223720000"><ele>117</ele><time>2016-10-15T13:50:18Z</time></trkpt>
<trkpt lat="53.1181050000" lon="-4.1223540000"><ele>117</ele><time>2016-10-15T13:50:19Z</time></trkpt>
<trkpt lat="53.1180990000" lon="-4.1223370000"><ele>117</ele><time>2016-10-15T13:50:20Z</time></trkpt>
<trkpt lat="53.1180950000" lon="-4.1223170000"><ele>117</ele><time>2016-10-15T13:50:21Z</time></trkpt>
<trkpt lat="53.1180900000" lon="-4.1222970000"><ele>117</ele><time>2016-10-15T13:50:22Z</time></trkpt>
<trkpt lat="53.1180860000" lon="-4.1222770000"><ele>117</ele><time>2016-10-15T13:50:23Z</time></trkpt>
<trkpt lat="53.1180810000" lon="-4.1222580000"><ele>117</ele><time>2016-10-15T13:50:24Z</time></trkpt>
<trkpt lat="53.1180770000" lon="-4.1222370000"><ele>116</ele><time>2016-10-15T13:50:25Z</time></trkpt>
<trkpt lat="53.1180730000" lon="-4.1222150000"><ele>116</ele><time>2016-10-15T13:50:26Z</time></trkpt>
<trkpt lat="53.1180680000" lon="-4.1221950000"><ele>116</ele><time>2016-10-15T13:50:27Z</time></trkpt>
<trkpt lat="53.1180620000" lon="-4.1221730000"><ele>116</ele><time>2016-10-15T13:50:28Z</time></trkpt>
<trkpt lat="53.1180560000" lon="-4.1221520000"><ele>116</ele><time>2016-10-15T13:50:29Z</time></trkpt>
<trkpt lat="53.1180510000" lon="-4.1221310000"><ele>116</ele><time>2016-10-15T13:50:30Z</time></trkpt>
<trkpt lat="53.1180470000" lon="-4.1221140000"><ele>116</ele><time>2016-10-15T13:50:31Z</time></trkpt>
<trkpt lat="53.1180410000" lon="-4.1220960000"><ele>115</ele><time>2016-10-15T13:50:32Z</time></trkpt>
<trkpt lat="53.1180340000" lon="-4.1220760000"><ele>115</ele><time>2016-10-15T13:50:33Z</time></trkpt>
<trkpt lat="53.1180280000" lon="-4.1220550000"><ele>115</ele><time>2016-10-15T13:50:34Z</time></trkpt>
<trkpt lat="53.1180200000" lon="-4.1220330000"><ele>115</ele><time>2016-10-15T13:50:35Z</time></trkpt>
<trkpt lat="53.1180120000" lon="-4.1220150000"><ele>115</ele><time>2016-10-15T13:50:36Z</time></trkpt>
<trkpt lat="53.1180050000" lon="-4.1219990000"><ele>115</ele><time>2016-10-15T13:50:37Z</time></trkpt>
<trkpt lat="53.1179980000" lon="-4.1219810000"><ele>115</ele><time>2016-10-15T13:50:38Z</time></trkpt>
<trkpt lat="53.1179920000" lon="-4.1219650000"><ele>115</ele><time>2016-10-15T13:50:39Z</time></trkpt>
<trkpt lat="53.1179890000" lon="-4.1219490000"><ele>115</ele><time>2016-10-15T13:50:40Z</time></trkpt>
<trkpt lat="53.1179890000" lon="-4.1219490000"><ele>115</ele><time>2016-10-15T13:50:41Z</time></trkpt>
<trkpt lat="53.1179890000" lon="-4.1219480000"><ele>115</ele><time>2016-10-15T13:50:42Z</time></trkpt>
<trkpt lat="53.1179660000" lon="-4.1218940000"><ele>115</ele><time>2016-10-15T13:50:43Z</time></trkpt>
<trkpt lat="53.1179580000" lon="-4.1218740000"><ele>115</ele><time>2016-10-15T13:50:44Z</time></trkpt>
<trkpt lat="53.1179500000" lon="-4.1218550000"><ele>115</ele><time>2016-10-15T13:50:45Z</time></trkpt>
<trkpt lat="53.1179400000" lon="-4.1218370000"><ele>115</ele><time>2016-10-15T13:50:46Z</time></trkpt>
<trkpt lat="53.1179320000" lon="-4.1218170000"><ele>115</ele><time>2016-10-15T13:50:47Z</time></trkpt>
<trkpt lat="53.1179250000" lon="-4.1217960000"><ele>115</ele><time>2016-10-15T13:50:48Z</time></trkpt>
<trkpt lat="53.1179220000" lon="-4.1217760000"><ele>115</ele><time>2016-10-15T13:50:49Z</time></trkpt>
<trkpt lat="53.1179190000" lon="-4.1217580000"><ele>116</ele><time>2016-10-15T13:50:50Z</time></trkpt>
<trkpt lat="53.1179150000" lon="-4.1217370000"><ele>116</ele><time>2016-10-15T13:50:51Z</time></trkpt>
<trkpt lat="53.1179080000" lon="-4.1217180000"><ele>116</ele><time>2016-10-15T13:50:52Z</time></trkpt>
<trkpt lat="53.1179010000" lon="-4.1216980000"><ele>116</ele><time>2016-10-15T13:50:53Z</time></trkpt>
<trkpt lat="53.1178860000" lon="-4.1216570000"><ele>116</ele><time>2016-10-15T13:50:55Z</time></trkpt>
<trkpt lat="53.1178790000" lon="-4.1216350000"><ele>116</ele><time>2016-10-15T13:50:56Z</time></trkpt>
<trkpt lat="53.1178720000" lon="-4.1216140000"><ele>116</ele><time>2016-10-15T13:50:57Z</time></trkpt>
<trkpt lat="53.1178650000" lon="-4.1215970000"><ele>116</ele><time>2016-10-15T13:50:58Z</time></trkpt>
<trkpt lat="53.1178590000" lon="-4.1215810000"><ele>116</ele><time>2016-10-15T13:50:59Z</time></trkpt>
<trkpt lat="53.1178540000" lon="-4.1215660000"><ele>116</ele><time>2016-10-15T13:51:00Z</time></trkpt>
<trkpt lat="53.1178500000" lon="-4.1215460000"><ele>116</ele><time>2016-10-15T13:51:01Z</time></trkpt>
<trkpt lat="53.1178490000" lon="-4.1215250000"><ele>116</ele><time>2016-10-15T13:51:02Z</time></trkpt>
<trkpt lat="53.1178510000" lon="-4.1215060000"><ele>116</ele><time>2016-10-15T13:51:03Z</time></trkpt>
<trkpt lat="53.1178570000" lon="-4.1214880000"><ele>116</ele><time>2016-10-15T13:51:04Z</time></trkpt>
<trkpt lat="53.1178670000" lon="-4.1214780000"><ele>116</ele><time>2016-10-15T13:51:05Z</time></trkpt>
<trkpt lat="53.1178780000" lon="-4.1214710000"><ele>116</ele><time>2016-10-15T13:51:06Z</time></trkpt>
<trkpt lat="53.1178890000" lon="-4.1214680000"><ele>116</ele><time>2016-10-15T13:51:07Z</time></trkpt>
<trkpt lat="53.1178980000" lon="-4.1214640000"><ele>116</ele><time>2016-10-15T13:51:09Z</time></trkpt>
<trkpt lat="53.1179090000" lon="-4.1214690000"><ele>116</ele></trkpt>
<trkpt lat="53.1179090000" lon="-4.1214690000"><ele>116</ele><time>2016-10-15T13:51:10Z</time></trkpt>
<trkpt lat="53.1179090000" lon="-4.1214690000"><ele>116</ele><time>2016-10-15T13:51:11Z</time></trkpt>
<trkpt lat="53.1179480000" lon="-4.1214850000"><ele>116</ele><time>2016-10-15T13:51:12Z</time></trkpt>
<trkpt lat="53.1179620000" lon="-4.1214860000"><ele>116</ele><time>2016-10-15T13:51:13Z</time></trkpt>
<trkpt lat="53.1179740000" lon="-4.1214890000"><ele>116</ele><time>2016-10-15T13:51:14Z</time></trkpt>
<trkpt lat="53.1179850000" lon="-4.1214900000"><ele>116</ele><time>2016-10-15T13:51:15Z</time></trkpt>
<trkpt lat="53.1179910000" lon="-4.1214840000"><ele>115</ele><time>2016-10-15T13:51:16Z</time></trkpt>
<trkpt lat="53.1179910000" lon="-4.1214840000"><ele>115</ele><time>2016-10-15T13:51:18Z</time></trkpt>
<trkpt lat="53.1179920000" lon="-4.1214840000"><ele>115</ele><time>2016-10-15T13:51:19Z</time></trkpt>
<trkpt lat="53.1179920000" lon="-4.1214840000"><ele>115</ele><time>2016-10-15T13:51:20Z</time></trkpt>
<trkpt lat="53.1180340000" lon="-4.1214700000"><ele>115</ele><time>2016-10-15T13:51:21Z</time></trkpt>
<trkpt lat="53.1180470000" lon="-4.1214680000"><ele>115</ele><time>2016-10-15T13:51:22Z</time></trkpt>
<trkpt lat="53.1180630000" lon="-4.1214670000"><ele>115</ele><time>2016-10-15T13:51:23Z</time></trkpt>
<trkpt lat="53.1180790000" lon="-4.1214680000"><ele>115</ele><time>2016-10-15T13:51:24Z</time></trkpt>
<trkpt lat="53.1180940000" lon="-4.1214730000"><ele>115</ele><time>2016-10-15T13:51:25Z</time></trkpt>
<trkpt lat="53.1181070000" lon="-4.1214770000"><ele>114</ele><time>2016-10-15T13:51:26Z</time></trkpt>
<trkpt lat="53.1181200000" lon="-4.1214830000"><ele>114</ele><time>2016-10-15T13:51:27Z</time></trkpt>
<trkpt lat="53.1181350000" lon="-4.1214920000"><ele>114</ele><time>2016-10-15T13:51:28Z</time></trkpt>
<trkpt lat="53.1181490000" lon="-4.1214980000"><ele>114</ele><time>2016-10-15T13:51:29Z</time></trkpt>
<trkpt lat="53.1181620000" lon="-4.1215020000"><ele>114</ele><time>2016-10-15T13:51:30Z</time></trkpt>
<trkpt lat="53.1181750000" lon="-4.1215080000"><ele>114</ele><time>2016-10-15T13:51:31Z</time></trkpt>
<trkpt lat="53.1181880000" lon="-4.1215140000"><ele>114</ele><time>2016-10-15T13:51:32Z</time></trkpt>
<trkpt lat="53.1182040000" lon="-4.1215210000"><ele>114</ele><time>2016-10-15T13:51:33Z</time></trkpt>
<trkpt lat="53.1182170000" lon="-4.1215290000"><ele>114</ele><time>2016-10-15T13:51:34Z</time></trkpt>
<trkpt lat="53.1182270000" lon="-4.1215380000"><ele>114</ele><time>2016-10-15T13:51:35Z</time></trkpt>
<trkpt lat="53.1182380000" lon="-4.1215500000"><ele>114</ele><time>2016-10-15T13:51:36Z</time></trkpt>
<trkpt lat="53.1182500000" lon="-4.1215610000"><ele>114</ele><time>2016-10-15T13:51:37Z</time></trkpt>
<trkpt lat="53.1182610000" lon="-4.1215730000"><ele>114</ele><time>2016-10-15T13:51:38Z</time></trkpt>
<trkpt lat="53.1182730000" lon="-4.1215850000"><ele>114</ele><time>2016-10-15T13:51:39Z</time></trkpt>
<trkpt lat="53.1182870000" lon="-4.1215980000"><ele>114</ele><time>2016-10-15T13:51:40Z</time></trkpt>
<trkpt lat="53.1183010000" lon="-4.1216110000"><ele>114</ele><time>2016-10-15T13:51:41Z</time></trkpt>
<trkpt lat="53.1183120000" lon="-4.1216220000"><ele>114</ele><time>2016-10-15T13:51:42Z</time></trkpt>
<trkpt lat="53.1183240000" lon="-4.1216340000"><ele>114</ele><time>2016-10-15T13:51:43Z</time></trkpt>
<trkpt lat="53.1183330000" lon="-4.1216480000"><ele>114</ele><time>2016-10-15T13:51:44Z</time></trkpt>
<trkpt lat="53.1183430000" lon="-4.1216630000"><ele>114</ele><time>2016-10-15T13:51:45Z</time></trkpt>
<trkpt lat="53.1183530000" lon="-4.1216760000"><ele>114</ele><time>2016-10-15T13:51:46Z</time></trkpt>
<trkpt lat="53.1183610000" lon="-4.1216860000"><ele>114</ele><time>2016-10-15T13:51:47Z</time></trkpt>
<trkpt lat="53.1183610000" lon="-4.1216860000"><ele>114</ele><time>2016-10-15T13:51:48Z</time></trkpt>
<trkpt lat="53.1183610000" lon="-4.1216860000"><ele>113</ele><time>2016-10-15T13:51:49Z</time></trkpt>
<trkpt lat="53.1183610000" lon="-4.1216870000"><ele>113</ele><time>2016-10-15T13:51:50Z</time></trkpt>
<trkpt lat="53.1183620000" lon="-4.1216880000"><ele>113</ele><time>2016-10-15T13:51:51Z</time></trkpt>
<trkpt lat="53.1183630000" lon="-4.1216890000"><ele>113</ele><time>2016-10-15T13:51:52Z</time></trkpt>
<trkpt lat="53.1183640000" lon="-4.1216900000"><ele>113</ele><time>2016-10-15T13:51:53Z</time></trkpt>
<trkpt lat="53.1183680000" lon="-4.1216960000"><ele>113</ele><time>2016-10-15T13:51:55Z</time></trkpt>
<trkpt lat="53.1183720000" lon="-4.1217000000"><ele>112</ele><time>2016-10-15T13:51:56Z</time></trkpt>
<trkpt lat="53.1183760000" lon="-4.1217040000"><ele>112</ele><time>2016-10-15T13:51:57Z</time></trkpt>
<trkpt lat="53.1183800000" lon="-4.1217100000"><ele>112</ele><time>2016-10-15T13:51:58Z</time></trkpt>
<trkpt lat="53.1183860000" lon="-4.1217160000"><ele>112</ele><time>2016-10-15T13:51:59Z</time></trkpt>
<trkpt lat="53.1185240000" lon="-4.1218660000"><ele>112</ele><time>2016-10-15T13:52:00Z</time></trkpt>
<trkpt lat="53.1185350000" lon="-4.1218770000"><ele>113</ele><time>2016-10-15T13:52:01Z</time></trkpt>
<trkpt lat="53.1185460000" lon="-4.1218880000"><ele>113</ele><time>2016-10-15T13:52:02Z</time></trkpt>
<trkpt lat="53.1185570000" lon="-4.1219010000"><ele>113</ele><time>2016-10-15T13:52:03Z</time></trkpt>
<trkpt lat="53.1185680000" lon="-4.1219120000"><ele>113</ele><time>2016-10-15T13:52:04Z</time></trkpt>
<trkpt lat="53.1185770000" lon="-4.1219230000"><ele>113</ele><time>2016-10-15T13:52:05Z</time></trkpt>
<trkpt lat="53.1185850000" lon="-4.1219330000"><ele>113</ele><time>2016-10-15T13:52:06Z</time></trkpt>
<trkpt lat="53.1185940000" lon="-4.1219420000"><ele>113</ele><time>2016-10-15T13:52:07Z</time></trkpt>
<trkpt lat="53.1186050000" lon="-4.1219500000"><ele>113</ele><time>2016-10-15T13:52:08Z</time></trkpt>
<trkpt lat="53.1186150000" lon="-4.1219600000"><ele>114</ele><time>2016-10-15T13:52:09Z</time></trkpt>
<trkpt lat="53.1186280000" lon="-4.1219720000"><ele>114</ele><time>2016-10-15T13:52:10Z</time></trkpt>
<trkpt lat="53.1186390000" lon="-4.1219850000"><ele>114</ele><time>2016-10-15T13:52:11Z</time></trkpt>
<trkpt lat="53.1186500000" lon="-4.1219970000"><ele>114</ele><time>2016-10-15T13:52:12Z</time></trkpt>
<trkpt lat="53.1186650000" lon="-4.1220120000"><ele>114</ele><time>2016-10-15T13:52:13Z</time></trkpt>
<trkpt lat="53.1186810000" lon="-4.1220270000"><ele>114</ele><time>2016-10-15T13:52:14Z</time></trkpt>
<trkpt lat="53.1186960000" lon="-4.1220410000"><ele>114</ele><time>2016-10-15T13:52:15Z</time></trkpt>
<trkpt lat="53.1187080000" lon="-4.1220540000"><ele>114</ele><time>2016-10-15T13:52:16Z</time></trkpt>
<trkpt lat="53.1187220000" lon="-4.1220650000"><ele>114</ele><time>2016-10-15T13:52:17Z</time></trkpt>
<trkpt lat="53.1187360000" lon="-4.1220760000"><ele>114</ele><time>2016-10-15T13:52:18Z</time></trkpt>
<trkpt lat="53.1187460000" lon="-4.1220840000"><ele>114</ele><time>2016-10-15T13:52:19Z</time></trkpt>
<trkpt lat="53.1187550000" lon="-4.1220930000"><ele>115</ele><time>2016-10-15T13:52:20Z</time></trkpt>
<trkpt lat="53.1187640000" lon="-4.1221000000"><ele>115</ele><time>2016-10-15T13:52:21Z</time></trkpt>
<trkpt lat="53.1187720000" lon="-4.1221070000"><ele>115</ele><time>2016-10-15T13:52:22Z</time></trkpt>
<trkpt lat="53.1187730000" lon="-4.1221070000"><ele>115</ele><time>2016-10-15T13:52:23Z</time></trkpt>
<trkpt lat="53.1187730000" lon="-4.1221070000"><ele>115</ele><time>2016-10-15T13:52:24Z</time></trkpt>
<trkpt lat="53.1187730000" lon="-4.1221080000"><ele>115</ele><time>2016-10-15T13:52:25Z</time></trkpt>
<trkpt lat="53.1187740000" lon="-4.1221080000"><ele>115</ele><time>2016-10-15T13:52:26Z</time></trkpt>
<trkpt lat="53.1187750000" lon="-4.1221090000"><ele>115</ele><time>2016-10-15T13:52:27Z</time></trkpt>
<trkpt lat="53.1187770000" lon="-4.1221100000"><ele>115</ele><time>2016-10-15T13:52:28Z</time></trkpt>
<trkpt lat="53.1187790000" lon="-4.1221110000"><ele>115</ele><time>2016-10-15T13:52:29Z</time></trkpt>
<trkpt lat="53.1187810000" lon="-4.1221120000"><ele>114</ele><time>2016-10-15T13:52:30Z</time></trkpt>
<trkpt lat="53.1187830000" lon="-4.1221130000"><ele>114</ele><time>2016-10-15T13:52:31Z</time></trkpt>
<trkpt lat="53.1187860000" lon="-4.1221140000"><ele>114</ele><time>2016-10-15T13:52:32Z</time></trkpt>
<trkpt lat="53.1187890000" lon="-4.1221150000"><ele>114</ele><time>2016-10-15T13:52:33Z</time></trkpt>
<trkpt lat="53.1187930000" lon="-4.1221160000"><ele>114</ele><time>2016-10-15T13:52:34Z</time></trkpt>
<trkpt lat="53.1187970000" lon="-4.1221170000"><ele>114</ele><time>2016-10-15T13:52:35Z</time></trkpt>
<trkpt lat="53.1188020000" lon="-4.1221180000"><ele>114</ele><time>2016-10-15T13:52:36Z</time></trkpt>
<trkpt lat="53.1188070000" lon="-4.1221190000"><ele>113</ele><time>2016-10-15T13:52:37Z</time></trkpt>
<trkpt lat="53.1188130000" lon="-4.1221210000"><ele>113</ele><time>2016-10-15T13:52:38Z</time></trkpt>
<trkpt lat="53.1188180000" lon="-4.1221220000"><ele>113</ele><time>2016-10-15T13:52:39Z</time></trkpt>
<trkpt lat="53.1188240000" lon="-4.1221240000"><ele>113</ele><time>2016-10-15T13:52:40Z</time></trkpt>
<trkpt lat="53.1188330000" lon="-4.1221260000"><ele>113</ele><time>2016-10-15T13:52:41Z</time></trkpt>
<trkpt lat="53.1188410000" lon="-4.1221280000"><ele>113</ele><time>2016-10-15T13:52:42Z</time></trkpt>
<trkpt lat="53.1188500000" lon="-4.1221310000"><ele>113</ele><time>2016-10-15T13:52:43Z</time></trkpt>
<trkpt lat="53.1188590000" lon="-4.1221330000"><ele>113</ele><time>2016-10-15T13:52:44Z</time></trkpt>
<trkpt lat="53.1188680000" lon="-4.1221360000"><ele>113</ele><time>2016-10-15T13:52:45Z</time></trkpt>
<trkpt lat="53.1190340000" lon="-4.1221780000"><ele>112</ele><time>2016-10-15T13:52:46Z</time></trkpt>
<trkpt lat="53.1190460000" lon="-4.1221760000"><ele>112</ele><time>2016-10-15T13:52:47Z</time></trkpt>
<trkpt lat="53.1190560000" lon="-4.1221740000"><ele>112</ele><time>2016-10-15T13:52:48Z</time></trkpt>
<trkpt lat="53.1190560000" lon="-4.1221740000"><ele>112</ele><time>2016-10-15T13:52:49Z</time></trkpt>
<trkpt lat="53.1190570000" lon="-4.1221740000"><ele>112</ele><time>2016-10-15T13:52:50Z</time></trkpt>
<trkpt lat="53.1190580000" lon="-4.1221740000"><ele>112</ele><time>2016-10-15T13:52:52Z</time></trkpt>
<trkpt lat="53.1190580000" lon="-4.1221740000"><ele>111</ele><time>2016-10-15T13:52:53Z</time></trkpt>
<trkpt lat="53.1190600000" lon="-4.1221730000"><ele>111</ele><time>2016-10-15T13:52:55Z</time></trkpt>
<trkpt lat="53.1190620000" lon="-4.1221730000"><ele>110</ele><time>2016-10-15T13:52:56Z</time></trkpt>
<trkpt lat="53.1190640000" lon="-4.1221720000"><ele>110</ele><time>2016-10-15T13:52:57Z</time></trkpt>
<trkpt lat="53.1190660000" lon="-4.1221720000"><ele>110</ele><time>2016-10-15T13:52:58Z</time></trkpt>
<trkpt lat="53.1190690000" lon="-4.1221720000"><ele>110</ele><time>2016-10-15T13:52:59Z</time></trkpt>
<trkpt lat="53.1190720000" lon="-4.1221720000"><ele>110</ele><time>2016-10-15T13:53:00Z</time></trkpt>
<trkpt lat="53.1190750000" lon="-4.1221730000"><ele>109</ele><time>2016-10-15T13:53:01Z</time></trkpt>
<trkpt lat="53.1190790000" lon="-4.1221740000"><ele>109</ele><time>2016-10-15T13:53:02Z</time></trkpt>
<trkpt lat="53.1190830000" lon="-4.1221760000"><ele>109</ele><time>2016-10-15T13:53:03Z</time></trkpt>
<trkpt lat="53.1190870000" lon="-4.1221780000"><ele>109</ele><time>2016-10-15T13:53:04Z</time></trkpt>
<trkpt lat="53.1190910000" lon="-4.1221810000"><ele>109</ele><time>2016-10-15T13:53:05Z</time></trkpt>
<trkpt lat="53.1190950000" lon="-4.1221840000"><ele>109</ele><time>2016-10-15T13:53:06Z</time></trkpt>
<trkpt lat="53.1190990000" lon="-4.1221870000"><ele>109</ele><time>2016-10-15T13:53:07Z</time></trkpt>
<trkpt lat="53.1191260000" lon="-4.1222020000"><ele>109</ele><time>2016-10-15T13:53:14Z</time></trkpt>
<trkpt lat="53.1192150000" lon="-4.1222380000"><ele>109</ele><time>2016-10-15T13:53:15Z</time></trkpt>
<trkpt lat="53.1192180000" lon="-4.1222370000"><ele>109</ele><time>2016-10-15T13:53:16Z</time></trkpt>
<trkpt lat="53.1192190000" lon="-4.1222380000"><ele>109</ele><time>2016-10-15T13:53:17Z</time></trkpt>
<trkpt lat="53.1192190000" lon="-4.1222380000"><ele>109</ele><time>2016-10-15T13:53:19Z</time></trkpt>
<trkpt lat="53.1192190000" lon="-4.1222380000"><ele>109</ele><time>2016-10-15T13:53:20Z</time></trkpt>
<trkpt lat="53.1192190000" lon="-4.1222380000"><ele>109</ele><time>2016-10-15T13:53:21Z</time></trkpt>
<trkpt lat="53.1192290000" lon="-4.1222390000"><ele>107</ele><time>2016-10-15T13:53:43Z</time></trkpt>
<trkpt lat="53.1192310000" lon="-4.1222390000"><ele>106</ele><time>2016-10-15T13:53:44Z</time></trkpt>
<trkpt lat="53.1192320000" lon="-4.1222390000"><ele>105</ele><time>2016-10-15T13:53:45Z</time></trkpt>
<trkpt lat="53.1192330000" lon="-4.1222390000"><ele>105</ele><time>2016-10-15T13:53:46Z</time></trkpt>
<trkpt lat="53.1192340000" lon="-4.1222390000"><ele>104</ele><time>2016-10-15T13:53:47Z</time></trkpt>
<trkpt lat="53.1192350000" lon="-4.1222390000"><ele>104</ele><time>2016-10-15T13:53:48Z</time></trkpt>
<trkpt lat="53.1192360000" lon="-4.1222390000"><ele>103</ele><time>2016-10-15T13:53:49Z</time></trkpt>
<trkpt lat="53.1192370000" lon="-4.1222380000"><ele>103</ele><time>2016-10-15T13:53:50Z</time></trkpt>
<trkpt lat="53.1192380000" lon="-4.1222380000"><ele>103</ele><time>2016-10-15T13:53:51Z</time></trkpt>
<trkpt lat="53.1192390000" lon="-4.1222370000"><ele>102</ele><time>2016-10-15T13:53:52Z</time></trkpt>
<trkpt lat="53.1192390000" lon="-4.1222370000"><ele>102</ele><time>2016-10-15T13:53:53Z</time></trkpt>
<trkpt lat="53.1192400000" lon="-4.1222370000"><ele>102</ele><time>2016-10-15T13:53:55Z</time></trkpt>
<trkpt lat="53.1192400000" lon="-4.1222360000"><ele>102</ele><time>2016-10-15T13:53:56Z</time></trkpt>
<trkpt lat="53.1192400000" lon="-4.1222360000"><ele>102</ele><time>2016-10-15T13:53:57Z</time></trkpt>
<trkpt lat="53.1192400000" lon="-4.1222350000"><ele>102</ele><time>2016-10-15T13:53:58Z</time></trkpt>
<trkpt lat="53.1192410000" lon="-4.1222350000"><ele>102</ele><time>2016-10-15T13:53:59Z</time></trkpt>
<trkpt lat="53.1192410000" lon="-4.1222340000"><ele>102</ele><time>2016-10-15T13:54:00Z</time></trkpt>
<trkpt lat="53.1192410000" lon="-4.1222330000"><ele>102</ele><time>2016-10-15T13:54:01Z</time></trkpt>
<trkpt lat="53.1192410000" lon="-4.1222330000"><ele>102</ele><time>2016-10-15T13:54:02Z</time></trkpt>
<trkpt lat="53.1192410000" lon="-4.1222320000"><ele>102</ele><time>2016-10-15T13:54:03Z</time></trkpt>
<trkpt lat="53.1192410000" lon="-4.1222310000"><ele>102</ele><time>2016-10-15T13:54:04Z</time></trkpt>
<trkpt lat="53.1192410000" lon="-4.1222300000"><ele>102</ele><time>2016-10-15T13:54:05Z</time></trkpt>
<trkpt lat="53.1192410000" lon="-4.1222290000"><ele>102</ele><time>2016-10-15T13:54:06Z</time></trkpt>
<trkpt lat="53.1192420000" lon="-4.1222290000"><ele>103</ele><time>2016-10-15T13:54:07Z</time></trkpt>
<trkpt lat="53.1192420000" lon="-4.1222280000"><ele>103</ele><time>2016-10-15T13:54:08Z</time></trkpt>
<trkpt lat="53.1192420000" lon="-4.1222280000"><ele>103</ele><time>2016-10-15T13:54:09Z</time></trkpt>
<trkpt lat="53.1192430000" lon="-4.1222280000"><ele>103</ele><time>2016-10-15T13:54:10Z</time></trkpt>
</trkseg>
</trk>
</gpx>